<?xml version='1.0' encoding='UTF-8'?><gpx version="1.1" creator="JPX - https://github.com/jenetics/jpx" xmlns="http://www.topografix.com/GPX/1/1"><trk><trkseg><trkpt lat="44.877687224979475" lon="9.16433670087859"><ele>418.99999999999994</ele><time>2026-03-28T08:00:49Z</time></trkpt><trkpt lat="44.877706024508456" lon="9.164425233185943"><ele>419.0</ele><time>2026-03-28T08:02:52Z</time></trkpt><trkpt lat="44.8776565587348" lon="9.164484397172854"><ele>419.0</ele><time>2026-03-28T08:02:59.999Z</time></trkpt><trkpt lat="44.87768955812368" lon="9.164400015261956"><ele>419.0</ele><time>2026-03-28T08:03:09.999Z</time></trkpt><trkpt lat="44.87767458499598" lon="9.164303778829245"><ele>419.0</ele><time>2026-03-28T08:03:14.999Z</time></trkpt><trkpt lat="44.87765758831983" lon="9.164214785489326"><ele>418.99999999999994</ele><time>2026-03-28T08:03:19.999Z</time></trkpt><trkpt lat="44.87759407958933" lon="9.164172160120419"><ele>419.0</ele><time>2026-03-28T08:03:28.999Z</time></trkpt><trkpt lat="44.87757348345956" lon="9.164271654605516"><ele>418.99999999999994</ele><time>2026-03-28T08:03:37.999Z</time></trkpt><trkpt lat="44.87756583491085" lon="9.164178946363103"><ele>419.0</ele><time>2026-03-28T08:04:40.997Z</time></trkpt><trkpt lat="44.87763370122915" lon="9.164179090023612"><ele>419.0</ele><time>2026-03-28T08:04:48Z</time></trkpt><trkpt lat="44.87767051988534" lon="9.164259023468958"><ele>419.0</ele><time>2026-03-28T08:04:55Z</time></trkpt><trkpt lat="44.87769163888303" lon="9.164346746315834"><ele>418.99999999999994</ele><time>2026-03-28T08:05:03Z</time></trkpt><trkpt lat="44.877740815657276" lon="9.16448616563519"><ele>419.0</ele><time>2026-03-28T08:10:28.998Z</time></trkpt><trkpt lat="44.877801721412126" lon="9.164620176532003"><ele>418.99999999999994</ele><time>2026-03-28T08:10:30.998Z</time></trkpt><trkpt lat="44.877850859974814" lon="9.16471490606368"><ele>419.0</ele><time>2026-03-28T08:10:32.998Z</time></trkpt><trkpt lat="44.8779169850939" lon="9.16472738600802"><ele>419.0</ele><time>2026-03-28T08:10:34.998Z</time></trkpt><trkpt lat="44.877988024582656" lon="9.164777386306161"><ele>419.0</ele><time>2026-03-28T08:10:36.998Z</time></trkpt><trkpt lat="44.87799346965998" lon="9.16490211848558"><ele>418.99999999999994</ele><time>2026-03-28T08:10:38.998Z</time></trkpt><trkpt lat="44.877935390321774" lon="9.16499214314846"><ele>419.0</ele><time>2026-03-28T08:10:40.998Z</time></trkpt><trkpt lat="44.87787284116656" lon="9.165016470091118"><ele>418.99999999999994</ele><time>2026-03-28T08:10:42.998Z</time></trkpt><trkpt lat="44.87787934783791" lon="9.164901831390736"><ele>419.0</ele><time>2026-03-28T08:11:18Z</time></trkpt><trkpt lat="44.877853752976556" lon="9.16481931174187"><ele>419.0</ele><time>2026-03-28T08:11:23.999Z</time></trkpt><trkpt lat="44.87781695826126" lon="9.164738273304625"><ele>419.0</ele><time>2026-03-28T08:11:28.999Z</time></trkpt><trkpt lat="44.87779064064044" lon="9.164642368611538"><ele>419.0</ele><time>2026-03-28T08:11:33.999Z</time></trkpt><trkpt lat="44.877755857059384" lon="9.16454806323606"><ele>418.99999999999994</ele><time>2026-03-28T08:11:39.999Z</time></trkpt><trkpt lat="44.87773153291675" lon="9.16446525657215"><ele>419.0</ele><time>2026-03-28T08:11:45.999Z</time></trkpt><trkpt lat="44.87776956614597" lon="9.164541168674816"><ele>418.99999999999994</ele><time>2026-03-28T08:13:56.999Z</time></trkpt><trkpt lat="44.87779974400053" lon="9.164641124518445"><ele>419.0</ele><time>2026-03-28T08:14:02.999Z</time></trkpt><trkpt lat="44.877817087233964" lon="9.16473761145821"><ele>419.0</ele><time>2026-03-28T08:14:08.999Z</time></trkpt><trkpt lat="44.8778500182611" lon="9.164836249611813"><ele>419.0</ele><time>2026-03-28T08:14:14.998Z</time></trkpt><trkpt lat="44.87788354110074" lon="9.164928962185751"><ele>419.0</ele><time>2026-03-28T08:14:20.998Z</time></trkpt><trkpt lat="44.87791355371205" lon="9.16501718257505"><ele>418.99999999999994</ele><time>2026-03-28T08:14:27.998Z</time></trkpt><trkpt lat="44.87788708585915" lon="9.164932054769709"><ele>419.0</ele><time>2026-03-28T08:14:42.998Z</time></trkpt><trkpt lat="44.87783391493487" lon="9.1648642503263"><ele>418.66666666666663</ele><time>2026-03-28T08:14:48.998Z</time></trkpt><trkpt lat="44.87785909312874" lon="9.16495426582372"><ele>418.3333333333333</ele><time>2026-03-28T08:15:03.066Z</time></trkpt><trkpt lat="44.877932595900056" lon="9.16509971188328"><ele>418.0</ele><time>2026-03-28T08:16:06.015Z</time></trkpt><trkpt lat="44.87791362978947" lon="9.165005655927938"><ele>417.66666666666663</ele><time>2026-03-28T08:16:11.996Z</time></trkpt><trkpt lat="44.87785245709865" lon="9.164982769396454"><ele>417.3333333333333</ele><time>2026-03-28T08:16:20.999Z</time></trkpt><trkpt lat="44.8778039306948" lon="9.165048028124705"><ele>417.0</ele><time>2026-03-28T08:16:39.999Z</time></trkpt><trkpt lat="44.87775703546442" lon="9.16511159374634"><ele>417.0</ele><time>2026-03-28T08:16:40.999Z</time></trkpt><trkpt lat="44.877709636567936" lon="9.165171644946936"><ele>417.0</ele><time>2026-03-28T08:16:41.999Z</time></trkpt><trkpt lat="44.87765655934416" lon="9.165220906756401"><ele>417.0</ele><time>2026-03-28T08:16:42.999Z</time></trkpt><trkpt lat="44.877586220304046" lon="9.165276726517384"><ele>417.0</ele><time>2026-03-28T08:16:43.999Z</time></trkpt><trkpt lat="44.87750949808267" lon="9.165352152670348"><ele>417.0</ele><time>2026-03-28T08:16:44.999Z</time></trkpt><trkpt lat="44.87743564310441" lon="9.165434641000383"><ele>417.0</ele><time>2026-03-28T08:16:45.999Z</time></trkpt><trkpt lat="44.87735630465868" lon="9.165477954082416"><ele>416.0</ele><time>2026-03-28T08:16:46.999Z</time></trkpt><trkpt lat="44.877313391649466" lon="9.165544372268421"><ele>415.0</ele><time>2026-03-28T08:16:47.999Z</time></trkpt><trkpt lat="44.87723513309554" lon="9.165572235280749"><ele>414.0</ele><time>2026-03-28T08:16:49.999Z</time></trkpt><trkpt lat="44.87716970903493" lon="9.165509966454426"><ele>413.0</ele><time>2026-03-28T08:16:55.999Z</time></trkpt><trkpt lat="44.877142950439776" lon="9.165629224085135"><ele>412.0</ele><time>2026-03-28T08:49:54Z</time></trkpt><trkpt lat="44.87705953724041" lon="9.165683629035922"><ele>411.0</ele><time>2026-03-28T08:49:56Z</time></trkpt><trkpt lat="44.876975742654636" lon="9.165717356352248"><ele>410.8333333333333</ele><time>2026-03-28T08:49:58Z</time></trkpt><trkpt lat="44.87685699285044" lon="9.165776997161224"><ele>410.66666666666663</ele><time>2026-03-28T08:50:00Z</time></trkpt><trkpt lat="44.876736074077144" lon="9.165818335503827"><ele>410.5</ele><time>2026-03-28T08:50:02Z</time></trkpt><trkpt lat="44.876676008678395" lon="9.165852026415354"><ele>410.3333333333333</ele><time>2026-03-28T08:50:03Z</time></trkpt><trkpt lat="44.876612178380206" lon="9.165851300554182"><ele>410.16666666666663</ele><time>2026-03-28T08:50:04Z</time></trkpt><trkpt lat="44.876545911562275" lon="9.165867508802886"><ele>410.0</ele><time>2026-03-28T08:50:05Z</time></trkpt><trkpt lat="44.87648190305553" lon="9.165881565627773"><ele>410.16666666666663</ele><time>2026-03-28T08:50:06Z</time></trkpt><trkpt lat="44.87641701360703" lon="9.165914126463422"><ele>410.3333333333333</ele><time>2026-03-28T08:50:07Z</time></trkpt><trkpt lat="44.876356805256954" lon="9.165852336700384"><ele>410.5</ele><time>2026-03-28T08:50:08Z</time></trkpt><trkpt lat="44.87626301882995" lon="9.165737305263466"><ele>410.66666666666663</ele><time>2026-03-28T08:50:10Z</time></trkpt><trkpt lat="44.87622262799604" lon="9.165668262063834"><ele>410.8333333333333</ele><time>2026-03-28T08:50:11Z</time></trkpt><trkpt lat="44.876169579486" lon="9.165601620823985"><ele>411.0</ele><time>2026-03-28T08:50:12Z</time></trkpt><trkpt lat="44.876141403613694" lon="9.16551729091792"><ele>411.0</ele><time>2026-03-28T08:50:13Z</time></trkpt><trkpt lat="44.87603894916947" lon="9.165407672348103"><ele>411.0</ele><time>2026-03-28T08:50:15Z</time></trkpt><trkpt lat="44.875964393547264" lon="9.165392743593147"><ele>411.0</ele><time>2026-03-28T08:50:16Z</time></trkpt><trkpt lat="44.87589073630853" lon="9.16540854463808"><ele>411.0</ele><time>2026-03-28T08:50:17Z</time></trkpt><trkpt lat="44.87583103109952" lon="9.165492510482261"><ele>411.0</ele><time>2026-03-28T08:50:18Z</time></trkpt><trkpt lat="44.87578228701258" lon="9.165552327442398"><ele>411.0</ele><time>2026-03-28T08:50:19Z</time></trkpt><trkpt lat="44.87573586912666" lon="9.165628636199498"><ele>411.6666666666667</ele><time>2026-03-28T08:50:20Z</time></trkpt><trkpt lat="44.875737193430304" lon="9.16574206944555"><ele>412.33333333333337</ele><time>2026-03-28T08:50:21Z</time></trkpt><trkpt lat="44.87575586483448" lon="9.165851598593859"><ele>413.0</ele><time>2026-03-28T08:50:22Z</time></trkpt><trkpt lat="44.87580028659704" lon="9.165949950192008"><ele>413.6666666666667</ele><time>2026-03-28T08:50:23Z</time></trkpt><trkpt lat="44.875867529327785" lon="9.166030323108071"><ele>414.33333333333337</ele><time>2026-03-28T08:50:24Z</time></trkpt><trkpt lat="44.87593520863649" lon="9.166102119805393"><ele>415.0</ele><time>2026-03-28T08:50:25Z</time></trkpt><trkpt lat="44.87599320719017" lon="9.16617131747042"><ele>415.0</ele><time>2026-03-28T08:50:26Z</time></trkpt><trkpt lat="44.87604387172394" lon="9.166237719743204"><ele>415.0</ele><time>2026-03-28T08:50:27Z</time></trkpt><trkpt lat="44.87609786727971" lon="9.166300675816917"><ele>415.0</ele><time>2026-03-28T08:50:28Z</time></trkpt><trkpt lat="44.87615398189967" lon="9.166368524515494"><ele>415.0</ele><time>2026-03-28T08:50:29Z</time></trkpt><trkpt lat="44.87620557812873" lon="9.166442481438537"><ele>415.0</ele><time>2026-03-28T08:50:30Z</time></trkpt><trkpt lat="44.87625087184403" lon="9.166516197455284"><ele>415.0</ele><time>2026-03-28T08:50:31Z</time></trkpt><trkpt lat="44.876281500293196" lon="9.1666273936738"><ele>415.0</ele><time>2026-03-28T08:50:33Z</time></trkpt><trkpt lat="44.87626247438891" lon="9.166719933023598"><ele>417.00000000000006</ele><time>2026-03-28T08:50:36Z</time></trkpt><trkpt lat="44.87626019624498" lon="9.16681503863639"><ele>419.0</ele><time>2026-03-28T08:50:41Z</time></trkpt><trkpt lat="44.87627130774709" lon="9.166922117709202"><ele>421.0</ele><time>2026-03-28T08:50:45.999Z</time></trkpt><trkpt lat="44.87624834567353" lon="9.167016070595949"><ele>423.0</ele><time>2026-03-28T08:50:49.999Z</time></trkpt><trkpt lat="44.876210191710285" lon="9.167096918570003"><ele>425.00000000000006</ele><time>2026-03-28T08:50:51.999Z</time></trkpt><trkpt lat="44.87627555228759" lon="9.167122066719012"><ele>427.0</ele><time>2026-03-28T08:50:54.999Z</time></trkpt><trkpt lat="44.87586488838098" lon="9.167138989957115"><ele>428.33333333333337</ele><time>2026-03-28T08:50:58.999Z</time></trkpt><trkpt lat="44.87580118441309" lon="9.167243030427564"><ele>429.6666666666667</ele><time>2026-03-28T08:51:02.999Z</time></trkpt><trkpt lat="44.875724418785055" lon="9.167292167596475"><ele>431.0</ele><time>2026-03-28T08:51:03.999Z</time></trkpt><trkpt lat="44.875653160044344" lon="9.167320425295172"><ele>432.33333333333337</ele><time>2026-03-28T08:51:04.999Z</time></trkpt><trkpt lat="44.875572631150725" lon="9.167368367161227"><ele>433.6666666666667</ele><time>2026-03-28T08:51:05.999Z</time></trkpt><trkpt lat="44.875502624463195" lon="9.167419283781742"><ele>435.0</ele><time>2026-03-28T08:51:06.999Z</time></trkpt><trkpt lat="44.87543474697691" lon="9.167441179706586"><ele>436.3333333333333</ele><time>2026-03-28T08:51:07.999Z</time></trkpt><trkpt lat="44.87536211888168" lon="9.16749227821811"><ele>437.66666666666663</ele><time>2026-03-28T08:51:08.999Z</time></trkpt><trkpt lat="44.87529342879934" lon="9.167541178313265"><ele>439.0</ele><time>2026-03-28T08:51:09.999Z</time></trkpt><trkpt lat="44.87522295598728" lon="9.167615169370062"><ele>440.3333333333333</ele><time>2026-03-28T08:51:10.999Z</time></trkpt><trkpt lat="44.8751459212274" lon="9.167677030139659"><ele>441.66666666666663</ele><time>2026-03-28T08:51:11.999Z</time></trkpt><trkpt lat="44.87507410994024" lon="9.167765083903813"><ele>443.0</ele><time>2026-03-28T08:51:12.999Z</time></trkpt><trkpt lat="44.87500892502375" lon="9.167864358096303"><ele>444.3333333333333</ele><time>2026-03-28T08:51:13.999Z</time></trkpt><trkpt lat="44.87495615467882" lon="9.167974231267136"><ele>445.66666666666663</ele><time>2026-03-28T08:51:14.999Z</time></trkpt><trkpt lat="44.874909875561265" lon="9.168088438251711"><ele>447.0</ele><time>2026-03-28T08:51:15.999Z</time></trkpt><trkpt lat="44.874861348253624" lon="9.1681958952455"><ele>448.33333333333337</ele><time>2026-03-28T08:51:16.999Z</time></trkpt><trkpt lat="44.87480908429957" lon="9.168291471441464"><ele>449.6666666666667</ele><time>2026-03-28T08:51:17.999Z</time></trkpt><trkpt lat="44.87473270183223" lon="9.168345822275045"><ele>451.0</ele><time>2026-03-28T08:51:18.999Z</time></trkpt><trkpt lat="44.87466708374101" lon="9.168419078496557"><ele>451.6666666666667</ele><time>2026-03-28T08:51:19.999Z</time></trkpt><trkpt lat="44.874586109358006" lon="9.168453010791051"><ele>452.33333333333337</ele><time>2026-03-28T08:51:20.999Z</time></trkpt><trkpt lat="44.87450932300326" lon="9.168501083235284"><ele>453.0</ele><time>2026-03-28T08:51:21.999Z</time></trkpt><trkpt lat="44.87443643249513" lon="9.168552713219574"><ele>453.66666666666663</ele><time>2026-03-28T08:51:22.999Z</time></trkpt><trkpt lat="44.874372166308454" lon="9.168592606260356"><ele>454.3333333333333</ele><time>2026-03-28T08:51:23.999Z</time></trkpt><trkpt lat="44.87428018350327" lon="9.168629774508085"><ele>455.0</ele><time>2026-03-28T08:51:25.999Z</time></trkpt><trkpt lat="44.87437280930919" lon="9.168820438258567"><ele>454.99999999999994</ele><time>2026-03-28T08:51:28.999Z</time></trkpt><trkpt lat="44.87443265297019" lon="9.168868855842225"><ele>455.0</ele><time>2026-03-28T08:51:29.999Z</time></trkpt><trkpt lat="44.87449450295876" lon="9.168935520238957"><ele>455.0</ele><time>2026-03-28T08:51:30.999Z</time></trkpt><trkpt lat="44.87456047036323" lon="9.169014400396874"><ele>455.0</ele><time>2026-03-28T08:51:31.999Z</time></trkpt><trkpt lat="44.87462400832426" lon="9.16909355292874"><ele>454.99999999999994</ele><time>2026-03-28T08:51:32.998Z</time></trkpt><trkpt lat="44.87468656587958" lon="9.169164443927711"><ele>455.0</ele><time>2026-03-28T08:51:33.998Z</time></trkpt><trkpt lat="44.8747508541703" lon="9.169239047194594"><ele>455.8</ele><time>2026-03-28T08:51:34.998Z</time></trkpt><trkpt lat="44.874813419798905" lon="9.169319766971599"><ele>456.6</ele><time>2026-03-28T08:51:35.998Z</time></trkpt><trkpt lat="44.87488184176517" lon="9.169410431197116"><ele>457.4</ele><time>2026-03-28T08:51:36.998Z</time></trkpt><trkpt lat="44.87494813662575" lon="9.169511141819775"><ele>458.2</ele><time>2026-03-28T08:51:37.998Z</time></trkpt><trkpt lat="44.87501216489954" lon="9.169625152328402"><ele>459.0</ele><time>2026-03-28T08:51:38.998Z</time></trkpt><trkpt lat="44.87507162032188" lon="9.169728622418186"><ele>458.79999999999995</ele><time>2026-03-28T08:51:39.998Z</time></trkpt><trkpt lat="44.87514247246632" lon="9.169828855911403"><ele>458.59999999999997</ele><time>2026-03-28T08:51:40.998Z</time></trkpt><trkpt lat="44.87521582229785" lon="9.169913653912479"><ele>458.4</ele><time>2026-03-28T08:51:41.998Z</time></trkpt><trkpt lat="44.875290356371494" lon="9.169992302504287"><ele>458.2</ele><time>2026-03-28T08:51:42.998Z</time></trkpt><trkpt lat="44.87536050454358" lon="9.170066441207096"><ele>458.0</ele><time>2026-03-28T08:51:43.998Z</time></trkpt><trkpt lat="44.87541606659493" lon="9.170139523607434"><ele>457.99999999999994</ele><time>2026-03-28T08:51:44.998Z</time></trkpt><trkpt lat="44.87547095555847" lon="9.170214828430392"><ele>458.0</ele><time>2026-03-28T08:51:45.998Z</time></trkpt><trkpt lat="44.87551788534623" lon="9.170294026896846"><ele>458.0</ele><time>2026-03-28T08:51:46.998Z</time></trkpt><trkpt lat="44.87555499219569" lon="9.170376230065182"><ele>458.0</ele><time>2026-03-28T08:51:47.998Z</time></trkpt><trkpt lat="44.87559079833448" lon="9.170489417398075"><ele>457.99999999999994</ele><time>2026-03-28T08:51:48.998Z</time></trkpt><trkpt lat="44.87563494012965" lon="9.170611220508382"><ele>458.0</ele><time>2026-03-28T08:51:49.998Z</time></trkpt><trkpt lat="44.875674467637744" lon="9.170724236405649"><ele>459.66666666666663</ele><time>2026-03-28T08:51:50.998Z</time></trkpt><trkpt lat="44.875696459751275" lon="9.170819894675997"><ele>461.3333333333333</ele><time>2026-03-28T08:51:51.998Z</time></trkpt><trkpt lat="44.87570079374228" lon="9.170919661285339"><ele>463.0</ele><time>2026-03-28T08:51:52.998Z</time></trkpt><trkpt lat="44.875676234322654" lon="9.171020825775727"><ele>464.66666666666663</ele><time>2026-03-28T08:51:53.998Z</time></trkpt><trkpt lat="44.875626316653374" lon="9.171129550184803"><ele>466.3333333333333</ele><time>2026-03-28T08:51:55Z</time></trkpt><trkpt lat="44.87557541223008" lon="9.171248336441069"><ele>468.0</ele><time>2026-03-28T08:51:56Z</time></trkpt><trkpt lat="44.87553414176273" lon="9.171326072113157"><ele>468.0</ele><time>2026-03-28T08:51:57Z</time></trkpt><trkpt lat="44.875533288993914" lon="9.171456688338816"><ele>467.99999999999994</ele><time>2026-03-28T08:51:59Z</time></trkpt><trkpt lat="44.87560855057399" lon="9.17156809411002"><ele>467.99999999999994</ele><time>2026-03-28T08:52:01Z</time></trkpt><trkpt lat="44.875680058572684" lon="9.171648335863622"><ele>468.0</ele><time>2026-03-28T08:52:02Z</time></trkpt><trkpt lat="44.87572975204585" lon="9.171739445163832"><ele>468.0</ele><time>2026-03-28T08:52:03Z</time></trkpt><trkpt lat="44.87575511124181" lon="9.171844075226876"><ele>469.1666666666667</ele><time>2026-03-28T08:52:04Z</time></trkpt><trkpt lat="44.87575914012938" lon="9.171970834460623"><ele>470.33333333333337</ele><time>2026-03-28T08:52:05Z</time></trkpt><trkpt lat="44.87576597429618" lon="9.172105460008774"><ele>471.5</ele><time>2026-03-28T08:52:06Z</time></trkpt><trkpt lat="44.875776319385224" lon="9.172223062951291"><ele>472.6666666666667</ele><time>2026-03-28T08:52:07Z</time></trkpt><trkpt lat="44.875799630346734" lon="9.172334922549076"><ele>473.83333333333337</ele><time>2026-03-28T08:52:08Z</time></trkpt><trkpt lat="44.87580081604059" lon="9.172434087970762"><ele>475.0</ele><time>2026-03-28T08:52:09Z</time></trkpt><trkpt lat="44.87588435072215" lon="9.172542867568762"><ele>478.2</ele><time>2026-03-28T08:52:12Z</time></trkpt><trkpt lat="44.87597559581271" lon="9.172616591843711"><ele>481.4</ele><time>2026-03-28T08:52:14Z</time></trkpt><trkpt lat="44.876083079446055" lon="9.172633168337748"><ele>484.6</ele><time>2026-03-28T08:52:16Z</time></trkpt><trkpt lat="44.876189498776846" lon="9.172645986308062"><ele>487.8</ele><time>2026-03-28T08:52:18Z</time></trkpt><trkpt lat="44.87622970609398" lon="9.172719861871352"><ele>491.0</ele><time>2026-03-28T08:52:19Z</time></trkpt><trkpt lat="44.87626698544964" lon="9.17280013567399"><ele>490.99999999999994</ele><time>2026-03-28T08:52:20Z</time></trkpt><trkpt lat="44.87629701252524" lon="9.172905902682167"><ele>491.0</ele><time>2026-03-28T08:52:22Z</time></trkpt><trkpt lat="44.876232518446386" lon="9.172993574749283"><ele>491.0</ele><time>2026-03-28T08:52:25Z</time></trkpt><trkpt lat="44.87623307011029" lon="9.173087420135829"><ele>491.0</ele><time>2026-03-28T08:52:26Z</time></trkpt><trkpt lat="44.87619444212153" lon="9.17321483115789"><ele>490.99999999999994</ele><time>2026-03-28T08:52:27Z</time></trkpt><trkpt lat="44.87615522626369" lon="9.17333407111189"><ele>491.0</ele><time>2026-03-28T08:52:28Z</time></trkpt><trkpt lat="44.87601745646124" lon="9.173420880354227"><ele>492.20000000000005</ele><time>2026-03-28T08:52:29Z</time></trkpt><trkpt lat="44.87597860490504" lon="9.173536212553646"><ele>493.40000000000003</ele><time>2026-03-28T08:52:30Z</time></trkpt><trkpt lat="44.87590522057616" lon="9.173518558581073"><ele>494.6</ele><time>2026-03-28T08:52:32Z</time></trkpt><trkpt lat="44.87580770256402" lon="9.173591525927378"><ele>495.8</ele><time>2026-03-28T08:52:33Z</time></trkpt><trkpt lat="44.87569157556491" lon="9.173674933400468"><ele>497.0</ele><time>2026-03-28T08:52:34Z</time></trkpt><trkpt lat="44.875590114601394" lon="9.173746308957407"><ele>498.0</ele><time>2026-03-28T08:52:35Z</time></trkpt><trkpt lat="44.875501324796836" lon="9.173806572091806"><ele>499.00000000000006</ele><time>2026-03-28T08:52:36Z</time></trkpt><trkpt lat="44.87540887972705" lon="9.173864754900677"><ele>500.00000000000006</ele><time>2026-03-28T08:52:37Z</time></trkpt><trkpt lat="44.875317190714014" lon="9.173922714072523"><ele>501.0</ele><time>2026-03-28T08:52:38Z</time></trkpt><trkpt lat="44.87523886244188" lon="9.173990616949826"><ele>502.0</ele><time>2026-03-28T08:52:39Z</time></trkpt><trkpt lat="44.87516935122818" lon="9.17402321585985"><ele>501.25</ele><time>2026-03-28T08:52:40Z</time></trkpt><trkpt lat="44.875102557990196" lon="9.17398832653404"><ele>500.5</ele><time>2026-03-28T08:52:41Z</time></trkpt><trkpt lat="44.8750133382398" lon="9.173929326468858"><ele>499.75</ele><time>2026-03-28T08:52:42Z</time></trkpt><trkpt lat="44.87487403006074" lon="9.173875118643945"><ele>499.0</ele><time>2026-03-28T08:52:43Z</time></trkpt><trkpt lat="44.8747311815927" lon="9.17391729760933"><ele>499.0</ele><time>2026-03-28T08:52:44Z</time></trkpt><trkpt lat="44.87459556169416" lon="9.173912496989479"><ele>499.0</ele><time>2026-03-28T08:52:45Z</time></trkpt><trkpt lat="44.87445902485571" lon="9.173898348573442"><ele>499.0</ele><time>2026-03-28T08:52:45.999Z</time></trkpt><trkpt lat="44.874323376266055" lon="9.173956898872104"><ele>499.0</ele><time>2026-03-28T08:52:46.999Z</time></trkpt><trkpt lat="44.874170847344104" lon="9.174034845229029"><ele>502.25</ele><time>2026-03-28T08:52:47.999Z</time></trkpt><trkpt lat="44.874047468077165" lon="9.174098522808674"><ele>505.5</ele><time>2026-03-28T08:52:48.999Z</time></trkpt><trkpt lat="44.8739120697113" lon="9.17416826950308"><ele>508.75</ele><time>2026-03-28T08:52:49.999Z</time></trkpt><trkpt lat="44.873792872574974" lon="9.174245444623597"><ele>512.0</ele><time>2026-03-28T08:52:50.999Z</time></trkpt><trkpt lat="44.873710901282756" lon="9.174320538996481"><ele>511.99999999999994</ele><time>2026-03-28T08:52:51.999Z</time></trkpt><trkpt lat="44.87366093979345" lon="9.174385411657283"><ele>512.0</ele><time>2026-03-28T08:52:52.999Z</time></trkpt><trkpt lat="44.87361456370621" lon="9.174470542625523"><ele>512.0</ele><time>2026-03-28T08:52:53.999Z</time></trkpt><trkpt lat="44.873562440555105" lon="9.174558526739682"><ele>512.0</ele><time>2026-03-28T08:52:54.999Z</time></trkpt><trkpt lat="44.87349765095738" lon="9.174644622558908"><ele>511.99999999999994</ele><time>2026-03-28T08:52:55.999Z</time></trkpt><trkpt lat="44.87343905094802" lon="9.174723699649556"><ele>512.0</ele><time>2026-03-28T08:52:56.999Z</time></trkpt><trkpt lat="44.87340971388648" lon="9.174811860225727"><ele>517.4</ele><time>2026-03-28T08:52:57.999Z</time></trkpt><trkpt lat="44.873405462629044" lon="9.174921063426718"><ele>522.8000000000001</ele><time>2026-03-28T08:52:58.999Z</time></trkpt><trkpt lat="44.8733830599786" lon="9.175006415644908"><ele>528.2</ele><time>2026-03-28T08:52:59.999Z</time></trkpt><trkpt lat="44.873293742959206" lon="9.175045366035446"><ele>533.6</ele><time>2026-03-28T08:53:01.999Z</time></trkpt><trkpt lat="44.87320310976229" lon="9.174987435762665"><ele>539.0</ele><time>2026-03-28T08:53:02.999Z</time></trkpt><trkpt lat="44.873109187115354" lon="9.174873865735108"><ele>539.0</ele><time>2026-03-28T08:53:03.999Z</time></trkpt><trkpt lat="44.87306860229652" lon="9.174773177846264"><ele>539.0</ele><time>2026-03-28T08:53:04.999Z</time></trkpt><trkpt lat="44.87299574833817" lon="9.174684881521511"><ele>539.0</ele><time>2026-03-28T08:53:05.999Z</time></trkpt><trkpt lat="44.872963980948484" lon="9.174562698608348"><ele>539.0</ele><time>2026-03-28T08:53:06.999Z</time></trkpt><trkpt lat="44.87287596188272" lon="9.174578773205665"><ele>539.0</ele><time>2026-03-28T08:53:09.999Z</time></trkpt><trkpt lat="44.872970492673886" lon="9.17510142431828"><ele>539.0</ele><time>2026-03-28T08:53:10.999Z</time></trkpt><trkpt lat="44.8728828039044" lon="9.175085751778296"><ele>539.0</ele><time>2026-03-28T08:53:12.999Z</time></trkpt><trkpt lat="44.872747903711534" lon="9.175192217538743"><ele>539.0</ele><time>2026-03-28T08:53:14.999Z</time></trkpt><trkpt lat="44.872692911470594" lon="9.17526816924716"><ele>539.0</ele><time>2026-03-28T08:53:15.999Z</time></trkpt><trkpt lat="44.872671346237695" lon="9.175388544874467"><ele>539.0</ele><time>2026-03-28T08:53:16.999Z</time></trkpt><trkpt lat="44.872629264386575" lon="9.175497037984355"><ele>542.5</ele><time>2026-03-28T08:53:17.999Z</time></trkpt><trkpt lat="44.87259701798615" lon="9.175593469312185"><ele>546.0</ele><time>2026-03-28T08:53:18.999Z</time></trkpt><trkpt lat="44.872371375762455" lon="9.175684817509586"><ele>549.5</ele><time>2026-03-28T08:53:19.999Z</time></trkpt><trkpt lat="44.872313119628174" lon="9.175834733962532"><ele>553.0</ele><time>2026-03-28T08:53:20.999Z</time></trkpt><trkpt lat="44.87225422408119" lon="9.175985714982435"><ele>553.4</ele><time>2026-03-28T08:53:21.999Z</time></trkpt><trkpt lat="44.87221443522377" lon="9.176107382427627"><ele>553.8</ele><time>2026-03-28T08:53:22.999Z</time></trkpt><trkpt lat="44.87218089427324" lon="9.176236035783017"><ele>554.2</ele><time>2026-03-28T08:53:23.999Z</time></trkpt><trkpt lat="44.87216916906003" lon="9.176386100946448"><ele>554.6</ele><time>2026-03-28T08:53:24.999Z</time></trkpt><trkpt lat="44.872155883020476" lon="9.1765276981582"><ele>555.0</ele><time>2026-03-28T08:53:25.999Z</time></trkpt><trkpt lat="44.87212485184698" lon="9.176669183097967"><ele>555.0</ele><time>2026-03-28T08:53:26.999Z</time></trkpt><trkpt lat="44.87208460813214" lon="9.176797994458429"><ele>555.0</ele><time>2026-03-28T08:53:27.999Z</time></trkpt><trkpt lat="44.872046236740566" lon="9.176916865691505"><ele>555.0</ele><time>2026-03-28T08:53:28.999Z</time></trkpt><trkpt lat="44.87202426106123" lon="9.177022563657669"><ele>555.0</ele><time>2026-03-28T08:53:29.999Z</time></trkpt><trkpt lat="44.871989851281995" lon="9.177106617012369"><ele>555.0</ele><time>2026-03-28T08:53:30.999Z</time></trkpt><trkpt lat="44.871907916026466" lon="9.177164024560254"><ele>555.0</ele><time>2026-03-28T08:53:31.999Z</time></trkpt><trkpt lat="44.87182090723892" lon="9.17720572883688"><ele>556.6</ele><time>2026-03-28T08:53:32.999Z</time></trkpt><trkpt lat="44.871725659716134" lon="9.177230170802892"><ele>558.2</ele><time>2026-03-28T08:53:33.999Z</time></trkpt><trkpt lat="44.871645269827525" lon="9.177234941828344"><ele>559.8</ele><time>2026-03-28T08:53:34.999Z</time></trkpt><trkpt lat="44.87155950973522" lon="9.177210864285065"><ele>561.4</ele><time>2026-03-28T08:53:35.999Z</time></trkpt><trkpt lat="44.87146795573982" lon="9.177156649753574"><ele>563.0</ele><time>2026-03-28T08:53:36.998Z</time></trkpt><trkpt lat="44.87137484862818" lon="9.17712385102615"><ele>563.0</ele><time>2026-03-28T08:53:37.998Z</time></trkpt><trkpt lat="44.87126990979358" lon="9.177130534676138"><ele>563.0</ele><time>2026-03-28T08:53:38.998Z</time></trkpt><trkpt lat="44.87116209932453" lon="9.177165791796243"><ele>563.0</ele><time>2026-03-28T08:53:39.998Z</time></trkpt><trkpt lat="44.8710550477167" lon="9.177210645588996"><ele>563.0</ele><time>2026-03-28T08:53:40.998Z</time></trkpt><trkpt lat="44.870968067811205" lon="9.177255769623423"><ele>563.0</ele><time>2026-03-28T08:53:41.998Z</time></trkpt><trkpt lat="44.87089269885151" lon="9.177290061459804"><ele>564.6</ele><time>2026-03-28T08:53:42.998Z</time></trkpt><trkpt lat="44.87081645229113" lon="9.177319792911707"><ele>566.1999999999999</ele><time>2026-03-28T08:53:43.998Z</time></trkpt><trkpt lat="44.870736339410726" lon="9.17733759756328"><ele>567.8</ele><time>2026-03-28T08:53:44.998Z</time></trkpt><trkpt lat="44.87066504315899" lon="9.177372148849013"><ele>569.4</ele><time>2026-03-28T08:53:45.998Z</time></trkpt><trkpt lat="44.87060095809233" lon="9.177373389722616"><ele>571.0</ele><time>2026-03-28T08:53:46.998Z</time></trkpt><trkpt lat="44.8704291924614" lon="9.177303439732377"><ele>571.0</ele><time>2026-03-28T08:53:48.998Z</time></trkpt><trkpt lat="44.870327589001334" lon="9.177280140128794"><ele>571.0</ele><time>2026-03-28T08:53:51.998Z</time></trkpt><trkpt lat="44.870223421559594" lon="9.177221941583378"><ele>571.0</ele><time>2026-03-28T08:53:53.998Z</time></trkpt><trkpt lat="44.87012585132462" lon="9.177165589426114"><ele>571.0</ele><time>2026-03-28T08:53:55.998Z</time></trkpt><trkpt lat="44.87001743569942" lon="9.177371688227122"><ele>573.0</ele><time>2026-03-28T08:53:59.998Z</time></trkpt><trkpt lat="44.86999536978056" lon="9.177525085357551"><ele>575.0</ele><time>2026-03-28T08:54:02Z</time></trkpt><trkpt lat="44.869950083399154" lon="9.17771057529175"><ele>577.0</ele><time>2026-03-28T08:54:04Z</time></trkpt><trkpt lat="44.86991391057295" lon="9.177841756491807"><ele>579.0</ele><time>2026-03-28T08:54:05Z</time></trkpt><trkpt lat="44.86950672049138" lon="9.177834188009193"><ele>579.0</ele><time>2026-03-28T08:54:06Z</time></trkpt><trkpt lat="44.86941327818113" lon="9.17792962178445"><ele>579.0</ele><time>2026-03-28T08:54:07Z</time></trkpt><trkpt lat="44.8693322584305" lon="9.178028341508893"><ele>579.0</ele><time>2026-03-28T08:54:08Z</time></trkpt><trkpt lat="44.86925539510131" lon="9.17811502793583"><ele>579.0</ele><time>2026-03-28T08:54:09Z</time></trkpt><trkpt lat="44.86916576129468" lon="9.17819198400212"><ele>579.0</ele><time>2026-03-28T08:54:10Z</time></trkpt><trkpt lat="44.86907454791029" lon="9.178264676730983"><ele>579.8</ele><time>2026-03-28T08:54:11Z</time></trkpt><trkpt lat="44.86897506827883" lon="9.17830033127679"><ele>580.5999999999999</ele><time>2026-03-28T08:54:12Z</time></trkpt><trkpt lat="44.86887159510361" lon="9.178337597996519"><ele>581.4</ele><time>2026-03-28T08:54:13Z</time></trkpt><trkpt lat="44.86876749166515" lon="9.17838648151549"><ele>582.1999999999999</ele><time>2026-03-28T08:54:14Z</time></trkpt><trkpt lat="44.868663033430636" lon="9.178416308883069"><ele>583.0</ele><time>2026-03-28T08:54:15Z</time></trkpt><trkpt lat="44.86856429826017" lon="9.17843027961354"><ele>583.0</ele><time>2026-03-28T08:54:16Z</time></trkpt><trkpt lat="44.86845599685255" lon="9.17842795347485"><ele>583.0</ele><time>2026-03-28T08:54:17Z</time></trkpt><trkpt lat="44.86834412593625" lon="9.178422392261842"><ele>583.0</ele><time>2026-03-28T08:54:18Z</time></trkpt><trkpt lat="44.868236603350816" lon="9.17840722407831"><ele>583.0</ele><time>2026-03-28T08:54:19Z</time></trkpt><trkpt lat="44.86813366930715" lon="9.178375574154874"><ele>583.0</ele><time>2026-03-28T08:54:20Z</time></trkpt><trkpt lat="44.86803968845979" lon="9.17833804423185"><ele>584.5</ele><time>2026-03-28T08:54:21Z</time></trkpt><trkpt lat="44.86795308466709" lon="9.178302835516485"><ele>586.0</ele><time>2026-03-28T08:54:22Z</time></trkpt><trkpt lat="44.867866070866945" lon="9.178293832021973"><ele>587.5</ele><time>2026-03-28T08:54:23Z</time></trkpt><trkpt lat="44.86778551075202" lon="9.178308604416479"><ele>589.0</ele><time>2026-03-28T08:54:24Z</time></trkpt><trkpt lat="44.867708817928175" lon="9.17836075272203"><ele>590.5</ele><time>2026-03-28T08:54:25Z</time></trkpt><trkpt lat="44.86763108299494" lon="9.178421356021238"><ele>592.0</ele><time>2026-03-28T08:54:26Z</time></trkpt><trkpt lat="44.867552636648384" lon="9.178456003082298"><ele>592.3333333333334</ele><time>2026-03-28T08:54:27Z</time></trkpt><trkpt lat="44.86748064726651" lon="9.178455804401397"><ele>592.6666666666667</ele><time>2026-03-28T08:54:28Z</time></trkpt><trkpt lat="44.8673993137661" lon="9.178427164989547"><ele>593.0</ele><time>2026-03-28T08:54:29Z</time></trkpt><trkpt lat="44.86732439425312" lon="9.178399872861043"><ele>593.3333333333334</ele><time>2026-03-28T08:54:30Z</time></trkpt><trkpt lat="44.86724114301472" lon="9.178364469268029"><ele>593.6666666666666</ele><time>2026-03-28T08:54:32Z</time></trkpt><trkpt lat="44.86718375190304" lon="9.178406983194751"><ele>594.0</ele><time>2026-03-28T08:54:35Z</time></trkpt><trkpt lat="44.86714186206369" lon="9.178499749606962"><ele>594.0</ele><time>2026-03-28T08:54:38Z</time></trkpt><trkpt lat="44.867054762623795" lon="9.17855429622945"><ele>594.0</ele><time>2026-03-28T08:54:40Z</time></trkpt><trkpt lat="44.86694391468089" lon="9.178590634730485"><ele>594.0</ele><time>2026-03-28T08:54:42Z</time></trkpt><trkpt lat="44.86686127860905" lon="9.1786436443883"><ele>594.0</ele><time>2026-03-28T08:54:44Z</time></trkpt><trkpt lat="44.866753000579735" lon="9.178721978069637"><ele>594.0</ele><time>2026-03-28T08:54:46Z</time></trkpt><trkpt lat="44.866657715800336" lon="9.178763910014391"><ele>596.6666666666666</ele><time>2026-03-28T08:54:48Z</time></trkpt><trkpt lat="44.86654280473438" lon="9.17875300269495"><ele>599.3333333333334</ele><time>2026-03-28T08:54:50Z</time></trkpt><trkpt lat="44.86647719460159" lon="9.178783014412948"><ele>602.0</ele><time>2026-03-28T08:54:51.999Z</time></trkpt><trkpt lat="44.86646306559433" lon="9.178916727024635"><ele>604.6666666666667</ele><time>2026-03-28T08:54:53.999Z</time></trkpt><trkpt lat="44.86650218552206" lon="9.179002928164723"><ele>607.3333333333334</ele><time>2026-03-28T08:54:54.999Z</time></trkpt><trkpt lat="44.86657838102486" lon="9.179085576684043"><ele>610.0</ele><time>2026-03-28T08:54:55.999Z</time></trkpt><trkpt lat="44.86664240436827" lon="9.179115300478818"><ele>610.0</ele><time>2026-03-28T08:54:56.999Z</time></trkpt><trkpt lat="44.86672359696612" lon="9.179135836601075"><ele>610.0</ele><time>2026-03-28T08:54:57.999Z</time></trkpt><trkpt lat="44.866801613218925" lon="9.179184441706527"><ele>610.0</ele><time>2026-03-28T08:54:58.999Z</time></trkpt><trkpt lat="44.866851948462816" lon="9.179264467154933"><ele>610.0</ele><time>2026-03-28T08:54:59.999Z</time></trkpt><trkpt lat="44.86688227559662" lon="9.179375425089384"><ele>610.0</ele><time>2026-03-28T08:55:00.999Z</time></trkpt><trkpt lat="44.86691052128545" lon="9.179517605911943"><ele>610.0</ele><time>2026-03-28T08:55:01.999Z</time></trkpt><trkpt lat="44.86694897256197" lon="9.179646614873823"><ele>605.3333333333334</ele><time>2026-03-28T08:55:02.999Z</time></trkpt><trkpt lat="44.86696662986399" lon="9.17979453307067"><ele>600.6666666666667</ele><time>2026-03-28T08:55:04.999Z</time></trkpt><trkpt lat="44.86697028275294" lon="9.179883949890124"><ele>596.0</ele><time>2026-03-28T08:55:05.999Z</time></trkpt><trkpt lat="44.86696567923691" lon="9.179974869090785"><ele>591.3333333333334</ele><time>2026-03-28T08:55:07.999Z</time></trkpt><trkpt lat="44.866947282870115" lon="9.180117561089283"><ele>586.6666666666666</ele><time>2026-03-28T08:55:09.999Z</time></trkpt><trkpt lat="44.8669502775865" lon="9.180223593526685"><ele>582.0</ele><time>2026-03-28T08:55:10.999Z</time></trkpt><trkpt lat="44.86693301237968" lon="9.180313736594897"><ele>581.3333333333334</ele><time>2026-03-28T08:55:11.999Z</time></trkpt><trkpt lat="44.866907473210226" lon="9.18046709637498"><ele>580.6666666666666</ele><time>2026-03-28T08:55:12.999Z</time></trkpt><trkpt lat="44.866899166277484" lon="9.18060640267785"><ele>580.0</ele><time>2026-03-28T08:55:13.999Z</time></trkpt><trkpt lat="44.866883471767345" lon="9.180714895151898"><ele>579.3333333333333</ele><time>2026-03-28T08:55:14.999Z</time></trkpt><trkpt lat="44.86689110191994" lon="9.180803566469894"><ele>578.6666666666666</ele><time>2026-03-28T08:55:15.999Z</time></trkpt><trkpt lat="44.86682810225885" lon="9.180840154997709"><ele>578.0</ele><time>2026-03-28T08:55:16.999Z</time></trkpt><trkpt lat="44.86678154868993" lon="9.1809097027418"><ele>585.5</ele><time>2026-03-28T08:55:17.999Z</time></trkpt><trkpt lat="44.866757863454495" lon="9.18103084146512"><ele>593.0</ele><time>2026-03-28T08:55:18.999Z</time></trkpt><trkpt lat="44.866746490104326" lon="9.181149696985221"><ele>600.5</ele><time>2026-03-28T08:55:19.999Z</time></trkpt><trkpt lat="44.86674780448792" lon="9.181248713004836"><ele>608.0</ele><time>2026-03-28T08:55:20.999Z</time></trkpt><trkpt lat="44.866710065649464" lon="9.181380030242378"><ele>615.5</ele><time>2026-03-28T08:55:21.999Z</time></trkpt><trkpt lat="44.86670479347075" lon="9.181474503128689"><ele>623.0</ele><time>2026-03-28T08:55:22.999Z</time></trkpt><trkpt lat="44.866654044721855" lon="9.181629493866525"><ele>623.0</ele><time>2026-03-28T08:55:24.999Z</time></trkpt><trkpt lat="44.86662990267312" lon="9.181729259216901"><ele>623.0</ele><time>2026-03-28T08:55:25.999Z</time></trkpt><trkpt lat="44.86659933800273" lon="9.181922462520596"><ele>623.0</ele><time>2026-03-28T08:55:27.999Z</time></trkpt><trkpt lat="44.866564608980035" lon="9.182026371067723"><ele>623.0</ele><time>2026-03-28T08:55:28.999Z</time></trkpt><trkpt lat="44.866587560999506" lon="9.182212561356637"><ele>623.0</ele><time>2026-03-28T08:55:30.999Z</time></trkpt><trkpt lat="44.866516551123404" lon="9.182335943831683"><ele>622.1428571428571</ele><time>2026-03-28T08:55:32.999Z</time></trkpt><trkpt lat="44.86645778036322" lon="9.18239578660349"><ele>621.2857142857142</ele><time>2026-03-28T08:55:33.999Z</time></trkpt><trkpt lat="44.86640630110915" lon="9.18245636323357"><ele>620.4285714285714</ele><time>2026-03-28T08:55:34.999Z</time></trkpt><trkpt lat="44.86633425239548" lon="9.182489625681274"><ele>619.5714285714286</ele><time>2026-03-28T08:55:36.999Z</time></trkpt><trkpt lat="44.866275264433405" lon="9.182530693355714"><ele>618.7142857142857</ele><time>2026-03-28T08:55:38.999Z</time></trkpt><trkpt lat="44.86621515622079" lon="9.18256221431493"><ele>617.8571428571429</ele><time>2026-03-28T08:55:40.999Z</time></trkpt><trkpt lat="44.86614226194809" lon="9.182546554878119"><ele>617.0</ele><time>2026-03-28T08:55:42.998Z</time></trkpt><trkpt lat="44.86607091127821" lon="9.182548994465854"><ele>617.0</ele><time>2026-03-28T08:55:44.998Z</time></trkpt><trkpt lat="44.865980601935085" lon="9.18253295963152"><ele>617.0</ele><time>2026-03-28T08:55:46.998Z</time></trkpt><trkpt lat="44.86587990195299" lon="9.182509699812377"><ele>617.0</ele><time>2026-03-28T08:55:49.998Z</time></trkpt><trkpt lat="44.865751556917054" lon="9.182592290183726"><ele>617.0</ele><time>2026-03-28T08:55:51.998Z</time></trkpt><trkpt lat="44.86567544041134" lon="9.182566278136234"><ele>617.0</ele><time>2026-03-28T08:55:52.998Z</time></trkpt><trkpt lat="44.86560089554407" lon="9.182528664838308"><ele>621.6666666666666</ele><time>2026-03-28T08:55:53.998Z</time></trkpt><trkpt lat="44.86553177438021" lon="9.182501518976409"><ele>626.3333333333333</ele><time>2026-03-28T08:55:54.998Z</time></trkpt><trkpt lat="44.86546372942105" lon="9.182446625457668"><ele>631.0</ele><time>2026-03-28T08:55:55.998Z</time></trkpt><trkpt lat="44.86539025897658" lon="9.182415811973074"><ele>635.6666666666666</ele><time>2026-03-28T08:55:56.998Z</time></trkpt><trkpt lat="44.86527886884293" lon="9.18237470378535"><ele>640.3333333333334</ele><time>2026-03-28T08:55:58.998Z</time></trkpt><trkpt lat="44.865175044672675" lon="9.182357732686434"><ele>645.0</ele><time>2026-03-28T08:56:00.998Z</time></trkpt><trkpt lat="44.86510923900346" lon="9.182316009307558"><ele>655.6</ele><time>2026-03-28T08:56:01.998Z</time></trkpt><trkpt lat="44.864993734055275" lon="9.182261537103837"><ele>666.2</ele><time>2026-03-28T08:56:03.998Z</time></trkpt><trkpt lat="44.864932189106945" lon="9.18223031920766"><ele>676.8</ele><time>2026-03-28T08:56:04.998Z</time></trkpt><trkpt lat="44.86484707877685" lon="9.182217926245649"><ele>687.4</ele><time>2026-03-28T08:56:07Z</time></trkpt><trkpt lat="44.86475407919598" lon="9.182189473932109"><ele>698.0</ele><time>2026-03-28T08:56:09Z</time></trkpt><trkpt lat="44.864676641513626" lon="9.182137378600252"><ele>698.0</ele><time>2026-03-28T08:56:11Z</time></trkpt><trkpt lat="44.86459409931416" lon="9.182090510214158"><ele>698.0</ele><time>2026-03-28T08:56:12Z</time></trkpt><trkpt lat="44.86453644437264" lon="9.182052405003132"><ele>698.0</ele><time>2026-03-28T08:56:14Z</time></trkpt><trkpt lat="44.86447470617285" lon="9.182000352789156"><ele>698.0</ele><time>2026-03-28T08:56:16Z</time></trkpt><trkpt lat="44.86438844516083" lon="9.181990575940334"><ele>698.0</ele><time>2026-03-28T08:56:20Z</time></trkpt><trkpt lat="44.86402863478446" lon="9.18208575943863"><ele>699.1428571428571</ele><time>2026-03-28T08:56:23Z</time></trkpt><trkpt lat="44.8639559646874" lon="9.182097333364348"><ele>700.2857142857142</ele><time>2026-03-28T08:56:24Z</time></trkpt><trkpt lat="44.8638937473611" lon="9.182112127829003"><ele>701.4285714285713</ele><time>2026-03-28T08:56:25Z</time></trkpt><trkpt lat="44.86382691139209" lon="9.182106657973726"><ele>702.5714285714286</ele><time>2026-03-28T08:56:26Z</time></trkpt><trkpt lat="44.86376394842459" lon="9.182100182816638"><ele>703.7142857142858</ele><time>2026-03-28T08:56:27Z</time></trkpt><trkpt lat="44.863691050883396" lon="9.182108026386446"><ele>704.8571428571428</ele><time>2026-03-28T08:56:28Z</time></trkpt><trkpt lat="44.863613031582375" lon="9.182095949764815"><ele>706.0</ele><time>2026-03-28T08:56:29Z</time></trkpt><trkpt lat="44.86353312433084" lon="9.182100176658846"><ele>709.5</ele><time>2026-03-28T08:56:30Z</time></trkpt><trkpt lat="44.86344373181834" lon="9.182092216552029"><ele>713.0</ele><time>2026-03-28T08:56:31Z</time></trkpt><trkpt lat="44.863358099715796" lon="9.18208605720108"><ele>716.5</ele><time>2026-03-28T08:56:32Z</time></trkpt><trkpt lat="44.86327293159882" lon="9.18208478325317"><ele>720.0</ele><time>2026-03-28T08:56:33Z</time></trkpt><trkpt lat="44.86318277198867" lon="9.18208422933701"><ele>723.5</ele><time>2026-03-28T08:56:34Z</time></trkpt><trkpt lat="44.8630931504307" lon="9.182083423523734"><ele>727.0</ele><time>2026-03-28T08:56:35Z</time></trkpt><trkpt lat="44.86301843435298" lon="9.182095263380395"><ele>727.0</ele><time>2026-03-28T08:56:36Z</time></trkpt><trkpt lat="44.862946345567835" lon="9.182112921600755"><ele>727.0</ele><time>2026-03-28T08:56:37Z</time></trkpt><trkpt lat="44.8628787416448" lon="9.182137817385513"><ele>727.0</ele><time>2026-03-28T08:56:38Z</time></trkpt><trkpt lat="44.862815585287336" lon="9.182136379206009"><ele>727.0</ele><time>2026-03-28T08:56:39Z</time></trkpt><trkpt lat="44.8627042379757" lon="9.182120503768807"><ele>727.0</ele><time>2026-03-28T08:56:41Z</time></trkpt><trkpt lat="44.86261272360195" lon="9.182179621608661"><ele>727.0</ele><time>2026-03-28T08:56:43Z</time></trkpt><trkpt lat="44.86253238076335" lon="9.18218953739972"><ele>729.5</ele><time>2026-03-28T08:56:44Z</time></trkpt><trkpt lat="44.862456919159804" lon="9.182212117500633"><ele>732.0</ele><time>2026-03-28T08:56:45Z</time></trkpt><trkpt lat="44.86238266340171" lon="9.18222128914814"><ele>734.5</ele><time>2026-03-28T08:56:46Z</time></trkpt><trkpt lat="44.862313521899885" lon="9.182237840223662"><ele>737.0</ele><time>2026-03-28T08:56:47Z</time></trkpt><trkpt lat="44.86220037457389" lon="9.182222337165243"><ele>739.5</ele><time>2026-03-28T08:56:49Z</time></trkpt><trkpt lat="44.86211222983617" lon="9.182271642229603"><ele>742.0</ele><time>2026-03-28T08:56:51Z</time></trkpt><trkpt lat="44.86209245953326" lon="9.182180305275354"><ele>742.0</ele><time>2026-03-28T08:56:59.999Z</time></trkpt><trkpt lat="44.86216442132131" lon="9.18213353227223"><ele>742.0</ele><time>2026-03-28T08:57:11.999Z</time></trkpt><trkpt lat="44.86222773869005" lon="9.18200871880957"><ele>742.0</ele><time>2026-03-28T08:57:13.999Z</time></trkpt><trkpt lat="44.8622723248078" lon="9.18194561823125"><ele>742.0</ele><time>2026-03-28T08:57:14.999Z</time></trkpt><trkpt lat="44.862340885964144" lon="9.181816724983111"><ele>742.0</ele><time>2026-03-28T08:57:16.999Z</time></trkpt><trkpt lat="44.862392480465836" lon="9.181750296400688"><ele>742.0</ele><time>2026-03-28T08:57:17.999Z</time></trkpt><trkpt lat="44.862445809185935" lon="9.181680177545529"><ele>742.0</ele><time>2026-03-28T08:57:18.999Z</time></trkpt><trkpt lat="44.86248429175446" lon="9.181535621822388"><ele>742.0</ele><time>2026-03-28T08:57:20.999Z</time></trkpt><trkpt lat="44.86255467448238" lon="9.181395889919918"><ele>742.0</ele><time>2026-03-28T08:57:22.999Z</time></trkpt><trkpt lat="44.86266459056901" lon="9.181322942167537"><ele>742.0</ele><time>2026-03-28T08:57:24.999Z</time></trkpt><trkpt lat="44.8627794972274" lon="9.181243614875529"><ele>742.8333333333334</ele><time>2026-03-28T08:57:26.999Z</time></trkpt><trkpt lat="44.86286380208788" lon="9.181190183422276"><ele>743.6666666666667</ele><time>2026-03-28T08:57:27.999Z</time></trkpt><trkpt lat="44.862930174343326" lon="9.181154318141626"><ele>744.5</ele><time>2026-03-28T08:57:28.999Z</time></trkpt><trkpt lat="44.86299203294059" lon="9.181097250131346"><ele>745.3333333333334</ele><time>2026-03-28T08:57:29.999Z</time></trkpt><trkpt lat="44.86305213521052" lon="9.181007950721314"><ele>746.1666666666666</ele><time>2026-03-28T08:57:30.999Z</time></trkpt><trkpt lat="44.86309530605175" lon="9.180862324992264"><ele>747.0</ele><time>2026-03-28T08:57:32.999Z</time></trkpt><trkpt lat="44.863041086824346" lon="9.18081697760938"><ele>747.0</ele><time>2026-03-28T08:57:35.999Z</time></trkpt><trkpt lat="44.8629750929399" lon="9.180887142332303"><ele>747.0</ele><time>2026-03-28T08:57:38.999Z</time></trkpt><trkpt lat="44.86291552632794" lon="9.180955423255886"><ele>747.0</ele><time>2026-03-28T08:57:40.999Z</time></trkpt><trkpt lat="44.86282270455368" lon="9.181061301146494"><ele>747.0</ele><time>2026-03-28T08:57:42.999Z</time></trkpt><trkpt lat="44.862772717895304" lon="9.181116162198947"><ele>747.0</ele><time>2026-03-28T08:57:43.999Z</time></trkpt><trkpt lat="44.862691466837795" lon="9.181177518260647"><ele>747.0</ele><time>2026-03-28T08:57:44.999Z</time></trkpt><trkpt lat="44.862583226317696" lon="9.181231833801405"><ele>746.0</ele><time>2026-03-28T08:57:45.999Z</time></trkpt><trkpt lat="44.86247470467045" lon="9.181337623289956"><ele>745.0</ele><time>2026-03-28T08:57:46.999Z</time></trkpt><trkpt lat="44.862386417614104" lon="9.181398246661276"><ele>744.0</ele><time>2026-03-28T08:57:47.999Z</time></trkpt><trkpt lat="44.86230132899018" lon="9.18145909266589"><ele>743.0</ele><time>2026-03-28T08:57:48.999Z</time></trkpt><trkpt lat="44.862217867903915" lon="9.181491788521276"><ele>742.0</ele><time>2026-03-28T08:57:49.998Z</time></trkpt><trkpt lat="44.86211987491981" lon="9.181534748395357"><ele>742.0</ele><time>2026-03-28T08:57:50.998Z</time></trkpt><trkpt lat="44.862016866741165" lon="9.181596415067151"><ele>742.0</ele><time>2026-03-28T08:57:51.998Z</time></trkpt><trkpt lat="44.8619162205356" lon="9.18164212849097"><ele>742.0</ele><time>2026-03-28T08:57:52.998Z</time></trkpt><trkpt lat="44.86181807633425" lon="9.181675595541714"><ele>742.0</ele><time>2026-03-28T08:57:53.998Z</time></trkpt><trkpt lat="44.86171196645259" lon="9.181700080819615"><ele>742.0</ele><time>2026-03-28T08:57:54.998Z</time></trkpt><trkpt lat="44.861614855818225" lon="9.181708264582811"><ele>744.3333333333334</ele><time>2026-03-28T08:57:55.998Z</time></trkpt><trkpt lat="44.86153017836071" lon="9.181730974636523"><ele>746.6666666666667</ele><time>2026-03-28T08:57:56.998Z</time></trkpt><trkpt lat="44.86145472780452" lon="9.181739492392271"><ele>749.0</ele><time>2026-03-28T08:57:57.998Z</time></trkpt><trkpt lat="44.86138031455806" lon="9.181734524766453"><ele>751.3333333333334</ele><time>2026-03-28T08:57:58.998Z</time></trkpt><trkpt lat="44.86131315240459" lon="9.18174179094246"><ele>753.6666666666666</ele><time>2026-03-28T08:57:59.998Z</time></trkpt><trkpt lat="44.86121733138121" lon="9.181659900005469"><ele>756.0</ele><time>2026-03-28T08:58:01.998Z</time></trkpt><trkpt lat="44.86112221038287" lon="9.181647818889486"><ele>756.0</ele><time>2026-03-28T08:58:03.998Z</time></trkpt><trkpt lat="44.861032664086" lon="9.181658622385854"><ele>756.0</ele><time>2026-03-28T08:58:05.998Z</time></trkpt><trkpt lat="44.860944243384544" lon="9.181685487421245"><ele>756.0</ele><time>2026-03-28T08:58:09.998Z</time></trkpt><trkpt lat="44.86088617226948" lon="9.181778302340943"><ele>756.0</ele><time>2026-03-28T08:58:15Z</time></trkpt><trkpt lat="44.86068856607109" lon="9.181821816661007"><ele>758.1999999999999</ele><time>2026-03-28T08:58:18Z</time></trkpt><trkpt lat="44.86055128336729" lon="9.181854577077527"><ele>760.4</ele><time>2026-03-28T08:58:19Z</time></trkpt><trkpt lat="44.86045912082953" lon="9.1818590390572"><ele>762.6</ele><time>2026-03-28T08:58:20Z</time></trkpt><trkpt lat="44.86035665955143" lon="9.181860946203592"><ele>764.8</ele><time>2026-03-28T08:58:21Z</time></trkpt><trkpt lat="44.86027342810564" lon="9.181855457669004"><ele>767.0</ele><time>2026-03-28T08:58:22Z</time></trkpt><trkpt lat="44.86020782357513" lon="9.18186014849765"><ele>767.0</ele><time>2026-03-28T08:58:23Z</time></trkpt><trkpt lat="44.860140063421284" lon="9.181946635598804"><ele>767.0</ele><time>2026-03-28T08:58:24Z</time></trkpt><trkpt lat="44.860079772512336" lon="9.181998950055577"><ele>767.0</ele><time>2026-03-28T08:58:25Z</time></trkpt><trkpt lat="44.860015600700805" lon="9.182059405470941"><ele>767.0</ele><time>2026-03-28T08:58:26Z</time></trkpt><trkpt lat="44.85995454833643" lon="9.182089704782769"><ele>767.0</ele><time>2026-03-28T08:58:27Z</time></trkpt><trkpt lat="44.85986832747419" lon="9.182087374398048"><ele>767.0</ele><time>2026-03-28T08:58:28Z</time></trkpt><trkpt lat="44.859777393968415" lon="9.182067747954118"><ele>768.5</ele><time>2026-03-28T08:58:29Z</time></trkpt><trkpt lat="44.859677108052104" lon="9.182024050784156"><ele>770.0</ele><time>2026-03-28T08:58:30Z</time></trkpt><trkpt lat="44.85960577258946" lon="9.181997408004111"><ele>771.5</ele><time>2026-03-28T08:58:31Z</time></trkpt><trkpt lat="44.85951408819775" lon="9.182002779087542"><ele>773.0</ele><time>2026-03-28T08:58:33Z</time></trkpt><trkpt lat="44.85943588052553" lon="9.182054092905487"><ele>774.5000000000001</ele><time>2026-03-28T08:58:34Z</time></trkpt><trkpt lat="44.859362449490085" lon="9.182096572292455"><ele>776.0</ele><time>2026-03-28T08:58:35Z</time></trkpt><trkpt lat="44.8592749728316" lon="9.18221576247508"><ele>776.4</ele><time>2026-03-28T08:58:37Z</time></trkpt><trkpt lat="44.85919990085217" lon="9.182292406363743"><ele>776.8</ele><time>2026-03-28T08:58:38Z</time></trkpt><trkpt lat="44.85912819722974" lon="9.182358679822903"><ele>777.1999999999999</ele><time>2026-03-28T08:58:39Z</time></trkpt><trkpt lat="44.85905585202824" lon="9.182439323067946"><ele>777.5999999999999</ele><time>2026-03-28T08:58:40Z</time></trkpt><trkpt lat="44.85899423274427" lon="9.182501654648323"><ele>778.0</ele><time>2026-03-28T08:58:41Z</time></trkpt><trkpt lat="44.85891946206569" lon="9.182624568286581"><ele>776.3333333333333</ele><time>2026-03-28T08:58:43Z</time></trkpt><trkpt lat="44.8588768317479" lon="9.182767698103925"><ele>774.6666666666666</ele><time>2026-03-28T08:58:45Z</time></trkpt><trkpt lat="44.85883915870083" lon="9.182893430623789"><ele>773.0</ele><time>2026-03-28T08:58:47Z</time></trkpt><trkpt lat="44.85880223098834" lon="9.182998974598219"><ele>771.3333333333333</ele><time>2026-03-28T08:58:49Z</time></trkpt><trkpt lat="44.858766943260946" lon="9.18307664519976"><ele>769.6666666666666</ele><time>2026-03-28T08:58:50Z</time></trkpt><trkpt lat="44.85872090136909" lon="9.183171368422316"><ele>768.0</ele><time>2026-03-28T08:58:51Z</time></trkpt><trkpt lat="44.85867053682118" lon="9.183268865800477"><ele>766.8333333333334</ele><time>2026-03-28T08:58:52Z</time></trkpt><trkpt lat="44.85862068911881" lon="9.183369855562406"><ele>765.6666666666666</ele><time>2026-03-28T08:58:53Z</time></trkpt><trkpt lat="44.858577089012115" lon="9.183462263605964"><ele>764.5</ele><time>2026-03-28T08:58:54Z</time></trkpt><trkpt lat="44.85853277192888" lon="9.183554511663038"><ele>763.3333333333333</ele><time>2026-03-28T08:58:55Z</time></trkpt><trkpt lat="44.858492889922914" lon="9.183641368832276"><ele>762.1666666666666</ele><time>2026-03-28T08:58:56Z</time></trkpt><trkpt lat="44.85845221572512" lon="9.183729620552853"><ele>761.0</ele><time>2026-03-28T08:58:57Z</time></trkpt><trkpt lat="44.858416714009714" lon="9.183817897343754"><ele>761.0</ele><time>2026-03-28T08:58:58Z</time></trkpt><trkpt lat="44.85838322908035" lon="9.183895617253253"><ele>761.0</ele><time>2026-03-28T08:58:58.999Z</time></trkpt><trkpt lat="44.85832592581873" lon="9.184042987069999"><ele>761.0</ele><time>2026-03-28T08:59:00.999Z</time></trkpt><trkpt lat="44.858276634344236" lon="9.184190579432938"><ele>761.0</ele><time>2026-03-28T08:59:02.999Z</time></trkpt><trkpt lat="44.858233326345974" lon="9.1843267789663"><ele>761.0</ele><time>2026-03-28T08:59:04.999Z</time></trkpt><trkpt lat="44.8582045622297" lon="9.184468355892825"><ele>761.8</ele><time>2026-03-28T08:59:06.999Z</time></trkpt><trkpt lat="44.85817114849009" lon="9.184632817720837"><ele>762.5999999999999</ele><time>2026-03-28T08:59:08.999Z</time></trkpt><trkpt lat="44.85816704645954" lon="9.18473768264356"><ele>763.4</ele><time>2026-03-28T08:59:09.999Z</time></trkpt><trkpt lat="44.85825374222166" lon="9.184872967305088"><ele>764.2</ele><time>2026-03-28T08:59:10.999Z</time></trkpt><trkpt lat="44.858280126420276" lon="9.184991974364499"><ele>765.0</ele><time>2026-03-28T08:59:11.999Z</time></trkpt><trkpt lat="44.85829448808643" lon="9.185119524259507"><ele>765.4</ele><time>2026-03-28T08:59:12.999Z</time></trkpt><trkpt lat="44.85829762404017" lon="9.18525820413846"><ele>765.8</ele><time>2026-03-28T08:59:13.999Z</time></trkpt><trkpt lat="44.85833651662268" lon="9.185383502313554"><ele>766.2</ele><time>2026-03-28T08:59:14.999Z</time></trkpt><trkpt lat="44.85836741699864" lon="9.185512857157468"><ele>766.6</ele><time>2026-03-28T08:59:15.999Z</time></trkpt><trkpt lat="44.85841112046674" lon="9.185631932431239"><ele>767.0</ele><time>2026-03-28T08:59:16.999Z</time></trkpt><trkpt lat="44.858465876570875" lon="9.185749814374635"><ele>770.2</ele><time>2026-03-28T08:59:17.999Z</time></trkpt><trkpt lat="44.858523653975936" lon="9.185859901280628"><ele>773.4000000000001</ele><time>2026-03-28T08:59:18.999Z</time></trkpt><trkpt lat="44.85858703164054" lon="9.185950601136971"><ele>776.5999999999999</ele><time>2026-03-28T08:59:19.999Z</time></trkpt><trkpt lat="44.858664219110636" lon="9.186025415120971"><ele>779.8</ele><time>2026-03-28T08:59:20.999Z</time></trkpt><trkpt lat="44.858747975175646" lon="9.186096079106667"><ele>783.0</ele><time>2026-03-28T08:59:21.999Z</time></trkpt><trkpt lat="44.858843510973905" lon="9.186180809991306"><ele>783.0</ele><time>2026-03-28T08:59:22.999Z</time></trkpt><trkpt lat="44.85892933772189" lon="9.186252577047414"><ele>783.0</ele><time>2026-03-28T08:59:23.999Z</time></trkpt><trkpt lat="44.85902631823235" lon="9.186307141380302"><ele>783.0</ele><time>2026-03-28T08:59:24.999Z</time></trkpt><trkpt lat="44.85912319817125" lon="9.186343640456997"><ele>783.0</ele><time>2026-03-28T08:59:25.999Z</time></trkpt><trkpt lat="44.859234565596765" lon="9.18636681731338"><ele>783.0</ele><time>2026-03-28T08:59:26.999Z</time></trkpt><trkpt lat="44.8593406327534" lon="9.186353072186932"><ele>784.5999999999999</ele><time>2026-03-28T08:59:27.999Z</time></trkpt><trkpt lat="44.859431257393055" lon="9.186352200153488"><ele>786.1999999999999</ele><time>2026-03-28T08:59:28.999Z</time></trkpt><trkpt lat="44.85952285310998" lon="9.186356986740094"><ele>787.8</ele><time>2026-03-28T08:59:29.999Z</time></trkpt><trkpt lat="44.85963095248507" lon="9.1863265077612"><ele>789.4</ele><time>2026-03-28T08:59:30.999Z</time></trkpt><trkpt lat="44.859731700814244" lon="9.186294737066232"><ele>791.0</ele><time>2026-03-28T08:59:31.999Z</time></trkpt><trkpt lat="44.8598182682697" lon="9.186269958679507"><ele>791.0000000000001</ele><time>2026-03-28T08:59:32.999Z</time></trkpt><trkpt lat="44.859896986747515" lon="9.18625975078657"><ele>791.0</ele><time>2026-03-28T08:59:33.999Z</time></trkpt><trkpt lat="44.85996878563921" lon="9.186295594124402"><ele>791.0</ele><time>2026-03-28T08:59:34.999Z</time></trkpt><trkpt lat="44.86004595082031" lon="9.186331677954069"><ele>791.0</ele><time>2026-03-28T08:59:35.999Z</time></trkpt><trkpt lat="44.86013426769508" lon="9.186397284746056"><ele>791.0000000000001</ele><time>2026-03-28T08:59:36.999Z</time></trkpt><trkpt lat="44.86021158339577" lon="9.18648522787492"><ele>791.0</ele><time>2026-03-28T08:59:37.999Z</time></trkpt><trkpt lat="44.86025662352997" lon="9.186565428022362"><ele>792.4</ele><time>2026-03-28T08:59:38.999Z</time></trkpt><trkpt lat="44.86029289401491" lon="9.186649326355434"><ele>793.8</ele><time>2026-03-28T08:59:39.999Z</time></trkpt><trkpt lat="44.86034018651096" lon="9.186749718468464"><ele>795.1999999999999</ele><time>2026-03-28T08:59:42.999Z</time></trkpt><trkpt lat="44.86040761485214" lon="9.186708985191814"><ele>796.5999999999999</ele><time>2026-03-28T08:59:50.999Z</time></trkpt><trkpt lat="44.86049064270141" lon="9.186841029666798"><ele>798.0</ele><time>2026-03-28T09:00:10.998Z</time></trkpt><trkpt lat="44.8605197410106" lon="9.186980289036068"><ele>798.0</ele><time>2026-03-28T09:00:12.998Z</time></trkpt><trkpt lat="44.86054324976321" lon="9.187064065805183"><ele>798.0</ele><time>2026-03-28T09:00:14.998Z</time></trkpt><trkpt lat="44.86060467730585" lon="9.187129230520286"><ele>798.0</ele><time>2026-03-28T09:00:19Z</time></trkpt><trkpt lat="44.8606887766635" lon="9.18717807256765"><ele>798.0</ele><time>2026-03-28T09:00:22Z</time></trkpt><trkpt lat="44.8607916953933" lon="9.187211238605299"><ele>798.0</ele><time>2026-03-28T09:00:25Z</time></trkpt><trkpt lat="44.86088131902214" lon="9.187228560410793"><ele>798.0</ele><time>2026-03-28T09:00:27Z</time></trkpt><trkpt lat="44.860971447374844" lon="9.187236498385932"><ele>794.6666666666666</ele><time>2026-03-28T09:00:29Z</time></trkpt><trkpt lat="44.86105986709674" lon="9.187277123264675"><ele>791.3333333333333</ele><time>2026-03-28T09:00:31Z</time></trkpt><trkpt lat="44.86115812148807" lon="9.187300117361588"><ele>788.0</ele><time>2026-03-28T09:00:33Z</time></trkpt><trkpt lat="44.861254409743324" lon="9.187283157643709"><ele>784.6666666666666</ele><time>2026-03-28T09:00:35Z</time></trkpt><trkpt lat="44.86132725937785" lon="9.187252942014494"><ele>781.3333333333333</ele><time>2026-03-28T09:00:36Z</time></trkpt><trkpt lat="44.86139789601435" lon="9.187223230591735"><ele>778.0</ele><time>2026-03-28T09:00:37Z</time></trkpt><trkpt lat="44.86152069921885" lon="9.187193801974692"><ele>778.0</ele><time>2026-03-28T09:00:39Z</time></trkpt><trkpt lat="44.8616350507708" lon="9.187206384918072"><ele>778.0</ele><time>2026-03-28T09:00:41Z</time></trkpt><trkpt lat="44.861746234526194" lon="9.18717377543623"><ele>778.0</ele><time>2026-03-28T09:00:43Z</time></trkpt><trkpt lat="44.86185899883893" lon="9.187157513963598"><ele>778.0</ele><time>2026-03-28T09:00:45Z</time></trkpt><trkpt lat="44.86193991906962" lon="9.187189018370136"><ele>778.0</ele><time>2026-03-28T09:00:47Z</time></trkpt><trkpt lat="44.86197588792363" lon="9.187282702357015"><ele>777.5</ele><time>2026-03-28T09:00:50Z</time></trkpt><trkpt lat="44.861949920401514" lon="9.18743365424854"><ele>777.0</ele><time>2026-03-28T09:00:52Z</time></trkpt><trkpt lat="44.86179118432735" lon="9.187561154804191"><ele>776.5</ele><time>2026-03-28T09:00:55Z</time></trkpt><trkpt lat="44.86167013103403" lon="9.187601351949466"><ele>776.0</ele><time>2026-03-28T09:00:56Z</time></trkpt><trkpt lat="44.861560178061644" lon="9.187650057524687"><ele>777.3333333333334</ele><time>2026-03-28T09:00:57Z</time></trkpt><trkpt lat="44.861484208722956" lon="9.187703794592942"><ele>778.6666666666667</ele><time>2026-03-28T09:00:58Z</time></trkpt><trkpt lat="44.86139929983189" lon="9.187752624182455"><ele>780.0</ele><time>2026-03-28T09:00:59Z</time></trkpt><trkpt lat="44.86133245828878" lon="9.187803183311058"><ele>781.3333333333333</ele><time>2026-03-28T09:01:00Z</time></trkpt><trkpt lat="44.86126438236617" lon="9.18787557115585"><ele>782.6666666666666</ele><time>2026-03-28T09:01:01Z</time></trkpt><trkpt lat="44.86119485886089" lon="9.187966692974125"><ele>784.0</ele><time>2026-03-28T09:01:02Z</time></trkpt><trkpt lat="44.86113870747436" lon="9.188027531605643"><ele>784.0</ele><time>2026-03-28T09:01:03Z</time></trkpt><trkpt lat="44.861010958349816" lon="9.188067720506577"><ele>784.0</ele><time>2026-03-28T09:01:05Z</time></trkpt><trkpt lat="44.860930365602" lon="9.188082402105263"><ele>784.0</ele><time>2026-03-28T09:01:06Z</time></trkpt><trkpt lat="44.860840274093704" lon="9.188062376629237"><ele>784.0</ele><time>2026-03-28T09:01:07Z</time></trkpt><trkpt lat="44.86076384454592" lon="9.188035253572599"><ele>784.0</ele><time>2026-03-28T09:01:07.999Z</time></trkpt><trkpt lat="44.86069314746291" lon="9.188001877415985"><ele>785.5714285714286</ele><time>2026-03-28T09:01:08.999Z</time></trkpt><trkpt lat="44.860626566815355" lon="9.187994222974243"><ele>787.1428571428571</ele><time>2026-03-28T09:01:09.999Z</time></trkpt><trkpt lat="44.86056189453834" lon="9.187987043452793"><ele>788.7142857142858</ele><time>2026-03-28T09:01:10.999Z</time></trkpt><trkpt lat="44.86049534209324" lon="9.18797908900678"><ele>790.2857142857142</ele><time>2026-03-28T09:01:12.999Z</time></trkpt><trkpt lat="44.860438883466706" lon="9.188041942950225"><ele>791.8571428571429</ele><time>2026-03-28T09:01:16.999Z</time></trkpt><trkpt lat="44.860383834994146" lon="9.188093136018804"><ele>793.4285714285714</ele><time>2026-03-28T09:01:17.999Z</time></trkpt><trkpt lat="44.86031663934128" lon="9.188137131112406"><ele>795.0</ele><time>2026-03-28T09:01:18.999Z</time></trkpt><trkpt lat="44.86018354058137" lon="9.188211019230211"><ele>791.8</ele><time>2026-03-28T09:01:20.999Z</time></trkpt><trkpt lat="44.86010290520485" lon="9.188268810305093"><ele>788.6</ele><time>2026-03-28T09:01:21.999Z</time></trkpt><trkpt lat="44.86001542161377" lon="9.188316322061223"><ele>785.4000000000001</ele><time>2026-03-28T09:01:22.999Z</time></trkpt><trkpt lat="44.85992457461352" lon="9.188304194543653"><ele>782.2</ele><time>2026-03-28T09:01:23.999Z</time></trkpt><trkpt lat="44.85984124358319" lon="9.18829586167706"><ele>779.0</ele><time>2026-03-28T09:01:24.999Z</time></trkpt><trkpt lat="44.859744769541884" lon="9.188290538613368"><ele>779.0000000000001</ele><time>2026-03-28T09:01:25.999Z</time></trkpt><trkpt lat="44.85964740958594" lon="9.188288553345217"><ele>779.0</ele><time>2026-03-28T09:01:26.999Z</time></trkpt><trkpt lat="44.85957157843505" lon="9.188316584483044"><ele>779.0</ele><time>2026-03-28T09:01:27.999Z</time></trkpt><trkpt lat="44.85950934850149" lon="9.188405385935127"><ele>779.0</ele><time>2026-03-28T09:01:28.999Z</time></trkpt><trkpt lat="44.85943367367961" lon="9.188450321089816"><ele>779.0000000000001</ele><time>2026-03-28T09:01:29.999Z</time></trkpt><trkpt lat="44.85936150045571" lon="9.18845077174167"><ele>779.0</ele><time>2026-03-28T09:01:30.999Z</time></trkpt><trkpt lat="44.85929612408108" lon="9.18844399831461"><ele>779.1666666666667</ele><time>2026-03-28T09:01:31.999Z</time></trkpt><trkpt lat="44.85922363764638" lon="9.188403586383703"><ele>779.3333333333334</ele><time>2026-03-28T09:01:32.999Z</time></trkpt><trkpt lat="44.859138350603686" lon="9.188376120357317"><ele>779.5</ele><time>2026-03-28T09:01:33.999Z</time></trkpt><trkpt lat="44.85905383973567" lon="9.188331080401158"><ele>779.6666666666667</ele><time>2026-03-28T09:01:34.999Z</time></trkpt><trkpt lat="44.85895316377312" lon="9.18829319496716"><ele>779.8333333333334</ele><time>2026-03-28T09:01:35.999Z</time></trkpt><trkpt lat="44.8588702597638" lon="9.188257795985024"><ele>780.0</ele><time>2026-03-28T09:01:36.999Z</time></trkpt><trkpt lat="44.8588055098383" lon="9.188225270089053"><ele>780.0</ele><time>2026-03-28T09:01:37.999Z</time></trkpt><trkpt lat="44.85871209343526" lon="9.188198773663164"><ele>780.0</ele><time>2026-03-28T09:01:38.999Z</time></trkpt><trkpt lat="44.858636421627395" lon="9.18816691855302"><ele>780.0</ele><time>2026-03-28T09:01:39.999Z</time></trkpt><trkpt lat="44.85856449430894" lon="9.188151401904493"><ele>780.0</ele><time>2026-03-28T09:01:40.999Z</time></trkpt><trkpt lat="44.858498721935426" lon="9.188124756357015"><ele>780.0</ele><time>2026-03-28T09:01:41.999Z</time></trkpt><trkpt lat="44.8583986357655" lon="9.1879850295664"><ele>778.6666666666666</ele><time>2026-03-28T09:01:43.999Z</time></trkpt><trkpt lat="44.85833943052632" lon="9.187898426928236"><ele>777.3333333333333</ele><time>2026-03-28T09:01:44.999Z</time></trkpt><trkpt lat="44.85829393902469" lon="9.187816555827114"><ele>776.0</ele><time>2026-03-28T09:01:46.999Z</time></trkpt><trkpt lat="44.858233927833524" lon="9.187734020580617"><ele>774.6666666666666</ele><time>2026-03-28T09:01:48.999Z</time></trkpt><trkpt lat="44.85817818347981" lon="9.187673399841854"><ele>773.3333333333333</ele><time>2026-03-28T09:01:49.999Z</time></trkpt><trkpt lat="44.85808505855728" lon="9.187594733361417"><ele>772.0</ele><time>2026-03-28T09:01:51.999Z</time></trkpt><trkpt lat="44.85800451093428" lon="9.187628955517242"><ele>772.0</ele><time>2026-03-28T09:01:54.999Z</time></trkpt><trkpt lat="44.85787514662667" lon="9.187734456656667"><ele>772.0</ele><time>2026-03-28T09:01:56.999Z</time></trkpt><trkpt lat="44.857774480361385" lon="9.187670920224047"><ele>772.0</ele><time>2026-03-28T09:01:57.999Z</time></trkpt><trkpt lat="44.85769304937349" lon="9.187688377292048"><ele>772.0</ele><time>2026-03-28T09:01:58.999Z</time></trkpt><trkpt lat="44.85761566098565" lon="9.187701039286013"><ele>772.0</ele><time>2026-03-28T09:01:59.999Z</time></trkpt><trkpt lat="44.85754009435719" lon="9.187706896841338"><ele>769.4999999999999</ele><time>2026-03-28T09:02:00.999Z</time></trkpt><trkpt lat="44.85745771706376" lon="9.187706896839119"><ele>767.0</ele><time>2026-03-28T09:02:01.999Z</time></trkpt><trkpt lat="44.85738197973831" lon="9.187715486674701"><ele>764.5</ele><time>2026-03-28T09:02:02.999Z</time></trkpt><trkpt lat="44.85727483273127" lon="9.187751436636402"><ele>762.0</ele><time>2026-03-28T09:02:04.998Z</time></trkpt><trkpt lat="44.85718131176715" lon="9.187775882423098"><ele>759.5</ele><time>2026-03-28T09:02:06.998Z</time></trkpt><trkpt lat="44.85712835877887" lon="9.187851911075262"><ele>757.0</ele><time>2026-03-28T09:02:08.998Z</time></trkpt><trkpt lat="44.85703223837746" lon="9.187721124033237"><ele>757.0</ele><time>2026-03-28T09:02:10.998Z</time></trkpt><trkpt lat="44.85698105054452" lon="9.187638955951178"><ele>757.0</ele><time>2026-03-28T09:02:13.998Z</time></trkpt><trkpt lat="44.85690753107441" lon="9.187566411603354"><ele>757.0</ele><time>2026-03-28T09:02:15.998Z</time></trkpt><trkpt lat="44.85682287666631" lon="9.187511548066727"><ele>757.0</ele><time>2026-03-28T09:02:17.998Z</time></trkpt><trkpt lat="44.856762751699605" lon="9.187468578676045"><ele>757.0</ele><time>2026-03-28T09:02:19.998Z</time></trkpt><trkpt lat="44.85667815094011" lon="9.187417000376126"><ele>757.0</ele><time>2026-03-28T09:02:23Z</time></trkpt><trkpt lat="44.856595172751454" lon="9.187345620353273"><ele>752.6</ele><time>2026-03-28T09:02:25Z</time></trkpt><trkpt lat="44.856491115810115" lon="9.187279694410428"><ele>748.2</ele><time>2026-03-28T09:02:27Z</time></trkpt><trkpt lat="44.85643611729649" lon="9.187233091148194"><ele>743.8</ele><time>2026-03-28T09:02:28Z</time></trkpt><trkpt lat="44.85633052699495" lon="9.187120533760238"><ele>739.4</ele><time>2026-03-28T09:02:30Z</time></trkpt><trkpt lat="44.85623054225179" lon="9.187076687852107"><ele>735.0</ele><time>2026-03-28T09:02:32Z</time></trkpt><trkpt lat="44.856152845059746" lon="9.187025530288201"><ele>735.0</ele><time>2026-03-28T09:02:34Z</time></trkpt><trkpt lat="44.856086559236154" lon="9.18692872446238"><ele>735.0</ele><time>2026-03-28T09:02:37Z</time></trkpt><trkpt lat="44.85601049023668" lon="9.186931028453225"><ele>735.0</ele><time>2026-03-28T09:02:40Z</time></trkpt><trkpt lat="44.85592524726145" lon="9.186989277704397"><ele>735.0</ele><time>2026-03-28T09:02:42Z</time></trkpt><trkpt lat="44.855917712822524" lon="9.187140114249955"><ele>735.0</ele><time>2026-03-28T09:02:45Z</time></trkpt><trkpt lat="44.85589997264002" lon="9.187226564362335"><ele>735.0</ele><time>2026-03-28T09:02:46Z</time></trkpt><trkpt lat="44.855845200194764" lon="9.187347946780543"><ele>734.1666666666666</ele><time>2026-03-28T09:02:48Z</time></trkpt><trkpt lat="44.85580840458193" lon="9.187457394592506"><ele>733.3333333333334</ele><time>2026-03-28T09:02:50Z</time></trkpt><trkpt lat="44.8557382532087" lon="9.187567554371192"><ele>732.5</ele><time>2026-03-28T09:02:52Z</time></trkpt><trkpt lat="44.855681413078145" lon="9.187662854935548"><ele>731.6666666666667</ele><time>2026-03-28T09:02:54Z</time></trkpt><trkpt lat="44.855624496675894" lon="9.18770209039629"><ele>730.8333333333334</ele><time>2026-03-28T09:02:55Z</time></trkpt><trkpt lat="44.85557153199497" lon="9.187773005989873"><ele>730.0</ele><time>2026-03-28T09:02:56Z</time></trkpt><trkpt lat="44.85552617108042" lon="9.187847135338613"><ele>730.0</ele><time>2026-03-28T09:02:57Z</time></trkpt><trkpt lat="44.85545255729798" lon="9.187956272832018"><ele>730.0</ele><time>2026-03-28T09:02:59Z</time></trkpt><trkpt lat="44.85546356689815" lon="9.18808657067894"><ele>730.0</ele><time>2026-03-28T09:03:01Z</time></trkpt><trkpt lat="44.85550720521356" lon="9.188235059753374"><ele>730.0</ele><time>2026-03-28T09:03:03Z</time></trkpt><trkpt lat="44.85560637139093" lon="9.188327927571633"><ele>730.0</ele><time>2026-03-28T09:03:05Z</time></trkpt><trkpt lat="44.855697370836914" lon="9.18838533251208"><ele>730.0</ele><time>2026-03-28T09:03:06Z</time></trkpt><trkpt lat="44.85577325506453" lon="9.188442782011842"><ele>730.0</ele><time>2026-03-28T09:03:07Z</time></trkpt><trkpt lat="44.85582069667908" lon="9.188506417237775"><ele>730.0</ele><time>2026-03-28T09:03:08Z</time></trkpt><trkpt lat="44.85584584087754" lon="9.188587905328765"><ele>730.0</ele><time>2026-03-28T09:03:09Z</time></trkpt><trkpt lat="44.85586642469005" lon="9.188693847940144"><ele>730.0</ele><time>2026-03-28T09:03:10Z</time></trkpt><trkpt lat="44.855884826033474" lon="9.188823187196311"><ele>730.0</ele><time>2026-03-28T09:03:11Z</time></trkpt><trkpt lat="44.85590944158197" lon="9.188934137353186"><ele>732.6</ele><time>2026-03-28T09:03:12Z</time></trkpt><trkpt lat="44.8560152321335" lon="9.189021798933878"><ele>735.2</ele><time>2026-03-28T09:03:13.999Z</time></trkpt><trkpt lat="44.856105744175984" lon="9.189034782819274"><ele>737.8</ele><time>2026-03-28T09:03:14.999Z</time></trkpt><trkpt lat="44.85622167237625" lon="9.18905494528137"><ele>740.4</ele><time>2026-03-28T09:03:15.999Z</time></trkpt><trkpt lat="44.85631646570317" lon="9.189105313250625"><ele>743.0</ele><time>2026-03-28T09:03:16.999Z</time></trkpt><trkpt lat="44.85639398002897" lon="9.1891709764271"><ele>743.0</ele><time>2026-03-28T09:03:17.999Z</time></trkpt><trkpt lat="44.85646356660468" lon="9.189253480867224"><ele>743.0</ele><time>2026-03-28T09:03:18.999Z</time></trkpt><trkpt lat="44.85652009258703" lon="9.18932582373084"><ele>743.0</ele><time>2026-03-28T09:03:19.999Z</time></trkpt><trkpt lat="44.856532580343774" lon="9.189420624479368"><ele>743.0</ele><time>2026-03-28T09:03:20.999Z</time></trkpt><trkpt lat="44.85652131018125" lon="9.189618259363696"><ele>743.0</ele><time>2026-03-28T09:03:22.999Z</time></trkpt><trkpt lat="44.856503207348986" lon="9.189723969066"><ele>743.0</ele><time>2026-03-28T09:03:23.999Z</time></trkpt><trkpt lat="44.85647219605303" lon="9.18983245166495"><ele>743.0</ele><time>2026-03-28T09:03:24.999Z</time></trkpt><trkpt lat="44.85643699991431" lon="9.189922777122318"><ele>743.0</ele><time>2026-03-28T09:03:25.999Z</time></trkpt><trkpt lat="44.85630569018848" lon="9.190037605211387"><ele>743.0</ele><time>2026-03-28T09:03:27.999Z</time></trkpt><trkpt lat="44.85621580641757" lon="9.19018952572191"><ele>742.2</ele><time>2026-03-28T09:03:28.999Z</time></trkpt><trkpt lat="44.856153706210534" lon="9.190322557026587"><ele>741.4</ele><time>2026-03-28T09:03:29.999Z</time></trkpt><trkpt lat="44.85610633327825" lon="9.190437717063688"><ele>740.6</ele><time>2026-03-28T09:03:30.999Z</time></trkpt><trkpt lat="44.8560662111804" lon="9.190532629844897"><ele>739.8000000000001</ele><time>2026-03-28T09:03:31.999Z</time></trkpt><trkpt lat="44.85602096904769" lon="9.190627122803114"><ele>739.0</ele><time>2026-03-28T09:03:32.999Z</time></trkpt><trkpt lat="44.85592781549906" lon="9.190767668619502"><ele>734.6</ele><time>2026-03-28T09:03:34.999Z</time></trkpt><trkpt lat="44.85586988744796" lon="9.190861314626154"><ele>730.2</ele><time>2026-03-28T09:03:35.999Z</time></trkpt><trkpt lat="44.85582043984464" lon="9.190945199608707"><ele>725.8000000000001</ele><time>2026-03-28T09:03:36.999Z</time></trkpt><trkpt lat="44.8557548042789" lon="9.191060281455302"><ele>721.4000000000001</ele><time>2026-03-28T09:03:38.999Z</time></trkpt><trkpt lat="44.855775417944216" lon="9.19114879621521"><ele>717.0</ele><time>2026-03-28T09:04:29Z</time></trkpt><trkpt lat="44.85580833242794" lon="9.191345326326205"><ele>717.0</ele><time>2026-03-28T09:04:38Z</time></trkpt><trkpt lat="44.85572272078959" lon="9.191382216246293"><ele>717.0</ele><time>2026-03-28T09:04:39Z</time></trkpt><trkpt lat="44.85563597384201" lon="9.191443138089907"><ele>717.0</ele><time>2026-03-28T09:04:40Z</time></trkpt><trkpt lat="44.85554323187098" lon="9.191494527846114"><ele>717.0</ele><time>2026-03-28T09:04:41Z</time></trkpt><trkpt lat="44.855460069445904" lon="9.191545701566326"><ele>717.0</ele><time>2026-03-28T09:04:42Z</time></trkpt><trkpt lat="44.85541752576412" lon="9.19161382242078"><ele>717.0</ele><time>2026-03-28T09:04:43Z</time></trkpt><trkpt lat="44.855383673521104" lon="9.191759081744841"><ele>719.0</ele><time>2026-03-28T09:04:45Z</time></trkpt><trkpt lat="44.855376357905755" lon="9.19189857394088"><ele>721.0</ele><time>2026-03-28T09:04:46Z</time></trkpt><trkpt lat="44.85534466576196" lon="9.192027564838204"><ele>723.0</ele><time>2026-03-28T09:04:47Z</time></trkpt><trkpt lat="44.8552968792429" lon="9.192126850075748"><ele>725.0</ele><time>2026-03-28T09:04:48Z</time></trkpt><trkpt lat="44.85523876924086" lon="9.192201980458178"><ele>727.0</ele><time>2026-03-28T09:04:49Z</time></trkpt><trkpt lat="44.855190020994634" lon="9.192284255670522"><ele>729.0</ele><time>2026-03-28T09:04:50Z</time></trkpt><trkpt lat="44.85514134933734" lon="9.192370116501221"><ele>729.0</ele><time>2026-03-28T09:04:51Z</time></trkpt><trkpt lat="44.855115856113336" lon="9.19245886157912"><ele>729.0</ele><time>2026-03-28T09:04:52Z</time></trkpt><trkpt lat="44.85507279516868" lon="9.19261483314174"><ele>729.0</ele><time>2026-03-28T09:04:54Z</time></trkpt><trkpt lat="44.855084017514905" lon="9.192722595130638"><ele>729.0</ele><time>2026-03-28T09:04:55Z</time></trkpt><trkpt lat="44.85508977501071" lon="9.192855174571728"><ele>729.0</ele><time>2026-03-28T09:04:56Z</time></trkpt><trkpt lat="44.85509836846101" lon="9.192976353436116"><ele>729.0</ele><time>2026-03-28T09:04:57Z</time></trkpt><trkpt lat="44.85512813941567" lon="9.193062379216746"><ele>732.6</ele><time>2026-03-28T09:04:58Z</time></trkpt><trkpt lat="44.855226866117135" lon="9.193190869531263"><ele>736.2</ele><time>2026-03-28T09:05:00Z</time></trkpt><trkpt lat="44.85530734099118" lon="9.193241900860652"><ele>739.8000000000001</ele><time>2026-03-28T09:05:01Z</time></trkpt><trkpt lat="44.855381694461606" lon="9.193374745196596"><ele>743.4000000000001</ele><time>2026-03-28T09:05:03Z</time></trkpt><trkpt lat="44.85540430534834" lon="9.193458152767588"><ele>747.0</ele><time>2026-03-28T09:05:04Z</time></trkpt><trkpt lat="44.85541395301917" lon="9.193632700205628"><ele>747.0</ele><time>2026-03-28T09:05:06Z</time></trkpt><trkpt lat="44.85540506773378" lon="9.193758508364127"><ele>747.0</ele><time>2026-03-28T09:05:07Z</time></trkpt><trkpt lat="44.85538895851292" lon="9.193900597586527"><ele>747.0</ele><time>2026-03-28T09:05:08Z</time></trkpt><trkpt lat="44.85537780332742" lon="9.194026590991365"><ele>747.0</ele><time>2026-03-28T09:05:09Z</time></trkpt><trkpt lat="44.855366074301685" lon="9.194142309440476"><ele>747.0</ele><time>2026-03-28T09:05:10Z</time></trkpt><trkpt lat="44.85535079967956" lon="9.19427438940894"><ele>748.0</ele><time>2026-03-28T09:05:11Z</time></trkpt><trkpt lat="44.85531649585658" lon="9.194384820087043"><ele>749.0</ele><time>2026-03-28T09:05:12Z</time></trkpt><trkpt lat="44.85528213658149" lon="9.194493720041104"><ele>750.0</ele><time>2026-03-28T09:05:13Z</time></trkpt><trkpt lat="44.855229354466296" lon="9.194631008479757"><ele>751.0</ele><time>2026-03-28T09:05:14Z</time></trkpt><trkpt lat="44.85518984509242" lon="9.194763013699104"><ele>752.0</ele><time>2026-03-28T09:05:15Z</time></trkpt><trkpt lat="44.855161871321215" lon="9.194946143616265"><ele>752.1666666666666</ele><time>2026-03-28T09:05:17Z</time></trkpt><trkpt lat="44.85514269665807" lon="9.195061681478508"><ele>752.3333333333333</ele><time>2026-03-28T09:05:18Z</time></trkpt><trkpt lat="44.855090405936124" lon="9.195167795794799"><ele>752.5</ele><time>2026-03-28T09:05:19Z</time></trkpt><trkpt lat="44.85503635863151" lon="9.19528785905364"><ele>752.6666666666666</ele><time>2026-03-28T09:05:20Z</time></trkpt><trkpt lat="44.85498554706287" lon="9.195376691090331"><ele>752.8333333333334</ele><time>2026-03-28T09:05:21Z</time></trkpt><trkpt lat="44.85492032562164" lon="9.19544857130945"><ele>753.0</ele><time>2026-03-28T09:05:22Z</time></trkpt><trkpt lat="44.854834124963894" lon="9.195474407607612"><ele>748.2</ele><time>2026-03-28T09:05:23Z</time></trkpt><trkpt lat="44.85473121416172" lon="9.195499842719489"><ele>743.4</ele><time>2026-03-28T09:05:24Z</time></trkpt><trkpt lat="44.85462746544939" lon="9.195546274257717"><ele>738.6</ele><time>2026-03-28T09:05:25Z</time></trkpt><trkpt lat="44.854539267371614" lon="9.195577784389162"><ele>733.8000000000001</ele><time>2026-03-28T09:05:25.999Z</time></trkpt><trkpt lat="44.854461513950696" lon="9.195601963153136"><ele>729.0</ele><time>2026-03-28T09:05:26.999Z</time></trkpt><trkpt lat="44.854363044549984" lon="9.195690018703427"><ele>728.3333333333334</ele><time>2026-03-28T09:05:28.999Z</time></trkpt><trkpt lat="44.854320993064995" lon="9.195765935453007"><ele>727.6666666666666</ele><time>2026-03-28T09:05:29.999Z</time></trkpt><trkpt lat="44.85427680248056" lon="9.195849531788117"><ele>727.0</ele><time>2026-03-28T09:05:30.999Z</time></trkpt><trkpt lat="44.854229797166006" lon="9.195925999489562"><ele>726.3333333333333</ele><time>2026-03-28T09:05:31.999Z</time></trkpt><trkpt lat="44.854201753321746" lon="9.196042998601818"><ele>725.6666666666666</ele><time>2026-03-28T09:05:32.999Z</time></trkpt><trkpt lat="44.85417304695049" lon="9.196159152292685"><ele>725.0</ele><time>2026-03-28T09:05:33.999Z</time></trkpt><trkpt lat="44.85406315380929" lon="9.196272089238166"><ele>722.8571428571429</ele><time>2026-03-28T09:05:35.999Z</time></trkpt><trkpt lat="44.8540072843709" lon="9.196338329572729"><ele>720.7142857142858</ele><time>2026-03-28T09:05:36.999Z</time></trkpt><trkpt lat="44.853962013466486" lon="9.196421516041713"><ele>718.5714285714286</ele><time>2026-03-28T09:05:37.999Z</time></trkpt><trkpt lat="44.853944636375275" lon="9.196507272236246"><ele>716.4285714285714</ele><time>2026-03-28T09:05:38.999Z</time></trkpt><trkpt lat="44.85399037069686" lon="9.196603397444902"><ele>714.2857142857143</ele><time>2026-03-28T09:05:41.999Z</time></trkpt><trkpt lat="44.854070264166594" lon="9.19660402261832"><ele>712.1428571428571</ele><time>2026-03-28T09:05:43.999Z</time></trkpt><trkpt lat="44.8541419694912" lon="9.196607579703796"><ele>710.0</ele><time>2026-03-28T09:05:46.999Z</time></trkpt><trkpt lat="44.85395520761" lon="9.196759281577057"><ele>709.6</ele><time>2026-03-28T09:05:47.999Z</time></trkpt><trkpt lat="44.85405418384346" lon="9.196736816765936"><ele>709.2</ele><time>2026-03-28T09:05:48.999Z</time></trkpt><trkpt lat="44.85412876253982" lon="9.196737111521335"><ele>708.8</ele><time>2026-03-28T09:05:49.999Z</time></trkpt><trkpt lat="44.854191540340224" lon="9.196755403626781"><ele>708.4</ele><time>2026-03-28T09:05:50.999Z</time></trkpt><trkpt lat="44.854296708717875" lon="9.196730966610678"><ele>708.0</ele><time>2026-03-28T09:05:52.999Z</time></trkpt><trkpt lat="44.85441287927939" lon="9.196754761712953"><ele>708.6666666666666</ele><time>2026-03-28T09:05:54.999Z</time></trkpt><trkpt lat="44.85447964381226" lon="9.19678720256189"><ele>709.3333333333334</ele><time>2026-03-28T09:05:55.999Z</time></trkpt><trkpt lat="44.85457242800534" lon="9.1968557668433"><ele>710.0</ele><time>2026-03-28T09:05:57.999Z</time></trkpt><trkpt lat="44.85463620383727" lon="9.196857055745994"><ele>710.6666666666667</ele><time>2026-03-28T09:05:58.999Z</time></trkpt><trkpt lat="44.85470165543683" lon="9.196845833192594"><ele>711.3333333333334</ele><time>2026-03-28T09:05:59.999Z</time></trkpt><trkpt lat="44.85481747812443" lon="9.196851437151444"><ele>712.0</ele><time>2026-03-28T09:06:01.999Z</time></trkpt><trkpt lat="44.85493174669333" lon="9.196901329984168"><ele>712.0</ele><time>2026-03-28T09:06:03.999Z</time></trkpt><trkpt lat="44.8550483692109" lon="9.19694897872282"><ele>712.0</ele><time>2026-03-28T09:06:05.999Z</time></trkpt><trkpt lat="44.85548685198779" lon="9.196990108448816"><ele>715.75</ele><time>2026-03-28T09:06:06.999Z</time></trkpt><trkpt lat="44.85543070861444" lon="9.19704895171058"><ele>719.5</ele><time>2026-03-28T09:06:08.999Z</time></trkpt><trkpt lat="44.8553220900543" lon="9.19713545245691"><ele>723.25</ele><time>2026-03-28T09:06:09.999Z</time></trkpt><trkpt lat="44.855298172800524" lon="9.197298113549115"><ele>727.0</ele><time>2026-03-28T09:06:11.999Z</time></trkpt><trkpt lat="44.85514912201566" lon="9.197419172519552"><ele>722.2</ele><time>2026-03-28T09:06:12.999Z</time></trkpt><trkpt lat="44.85503559592768" lon="9.197493572400651"><ele>717.4000000000001</ele><time>2026-03-28T09:06:13.999Z</time></trkpt><trkpt lat="44.85494370277559" lon="9.197602269689149"><ele>712.5999999999999</ele><time>2026-03-28T09:06:14.999Z</time></trkpt><trkpt lat="44.85489565979752" lon="9.197701423447713"><ele>707.8</ele><time>2026-03-28T09:06:15.999Z</time></trkpt><trkpt lat="44.854843045106584" lon="9.197843239113459"><ele>703.0</ele><time>2026-03-28T09:06:17.999Z</time></trkpt><trkpt lat="44.85487009180676" lon="9.197988307943936"><ele>703.0</ele><time>2026-03-28T09:06:19.999Z</time></trkpt><trkpt lat="44.85493253761356" lon="9.198109246746098"><ele>703.0</ele><time>2026-03-28T09:06:22.999Z</time></trkpt><trkpt lat="44.8548745743924" lon="9.198199328501316"><ele>703.0</ele><time>2026-03-28T09:06:24.998Z</time></trkpt><trkpt lat="44.85480564962448" lon="9.19826729364944"><ele>703.0</ele><time>2026-03-28T09:06:27.998Z</time></trkpt><trkpt lat="44.85472306289584" lon="9.198438550941287"><ele>703.0</ele><time>2026-03-28T09:06:29.998Z</time></trkpt><trkpt lat="44.85466379746659" lon="9.19849973523404"><ele>703.1666666666667</ele><time>2026-03-28T09:06:30.998Z</time></trkpt><trkpt lat="44.85457941128048" lon="9.19859825405305"><ele>703.3333333333334</ele><time>2026-03-28T09:06:31.998Z</time></trkpt><trkpt lat="44.854535919763656" lon="9.198683565846613"><ele>703.5</ele><time>2026-03-28T09:06:32.998Z</time></trkpt><trkpt lat="44.85450495899618" lon="9.198771845092635"><ele>703.6666666666666</ele><time>2026-03-28T09:06:34Z</time></trkpt><trkpt lat="44.85447757355143" lon="9.198893931898391"><ele>703.8333333333333</ele><time>2026-03-28T09:06:35Z</time></trkpt><trkpt lat="44.854463370244154" lon="9.199038998172291"><ele>704.0</ele><time>2026-03-28T09:06:36Z</time></trkpt><trkpt lat="44.85443930756013" lon="9.19915001016591"><ele>706.3333333333333</ele><time>2026-03-28T09:06:37Z</time></trkpt><trkpt lat="44.85438507560031" lon="9.199229373367661"><ele>708.6666666666666</ele><time>2026-03-28T09:06:38Z</time></trkpt><trkpt lat="44.85435828716622" lon="9.199336244769487"><ele>711.0</ele><time>2026-03-28T09:06:39Z</time></trkpt><trkpt lat="44.854360046279" lon="9.19943718633941"><ele>713.3333333333334</ele><time>2026-03-28T09:06:40Z</time></trkpt><trkpt lat="44.85440047929043" lon="9.199608431110306"><ele>715.6666666666667</ele><time>2026-03-28T09:06:42Z</time></trkpt><trkpt lat="44.85444651873936" lon="9.199688050721937"><ele>718.0</ele><time>2026-03-28T09:06:43Z</time></trkpt><trkpt lat="44.85444311328536" lon="9.199833426256342"><ele>719.0</ele><time>2026-03-28T09:06:45Z</time></trkpt><trkpt lat="44.85441096251725" lon="9.199927420642545"><ele>720.0</ele><time>2026-03-28T09:06:46Z</time></trkpt><trkpt lat="44.85434611070916" lon="9.20000807963908"><ele>721.0</ele><time>2026-03-28T09:06:47Z</time></trkpt><trkpt lat="44.85426700667665" lon="9.200069973951145"><ele>722.0</ele><time>2026-03-28T09:06:48Z</time></trkpt><trkpt lat="44.85419028895816" lon="9.200136366499787"><ele>723.0</ele><time>2026-03-28T09:06:49Z</time></trkpt><trkpt lat="44.85415114732052" lon="9.20024050759824"><ele>724.0</ele><time>2026-03-28T09:06:50Z</time></trkpt><trkpt lat="44.85409896314161" lon="9.200359181501561"><ele>720.0</ele><time>2026-03-28T09:06:51Z</time></trkpt><trkpt lat="44.85407660132021" lon="9.20046145843335"><ele>716.0</ele><time>2026-03-28T09:06:52Z</time></trkpt><trkpt lat="44.85408568673004" lon="9.200555877371"><ele>712.0</ele><time>2026-03-28T09:06:53Z</time></trkpt><trkpt lat="44.854081527710235" lon="9.20070133865069"><ele>708.0</ele><time>2026-03-28T09:06:55Z</time></trkpt><trkpt lat="44.85415251424477" lon="9.200829790801889"><ele>704.0</ele><time>2026-03-28T09:06:57Z</time></trkpt><trkpt lat="44.854192103473856" lon="9.200909908370795"><ele>700.0</ele><time>2026-03-28T09:06:58Z</time></trkpt><trkpt lat="44.85427538121078" lon="9.201008986969883"><ele>706.0</ele><time>2026-03-28T09:07:00Z</time></trkpt><trkpt lat="44.854371940158906" lon="9.201124324518904"><ele>712.0</ele><time>2026-03-28T09:07:02Z</time></trkpt><trkpt lat="44.85442092014203" lon="9.20118151299555"><ele>718.0</ele><time>2026-03-28T09:07:03Z</time></trkpt><trkpt lat="44.85456927855761" lon="9.201234010396444"><ele>724.0</ele><time>2026-03-28T09:07:05Z</time></trkpt><trkpt lat="44.85467038016052" lon="9.201265494294375"><ele>730.0</ele><time>2026-03-28T09:07:06Z</time></trkpt><trkpt lat="44.85474510645253" lon="9.201296928708818"><ele>730.0</ele><time>2026-03-28T09:07:07Z</time></trkpt><trkpt lat="44.854817239789334" lon="9.201407923376223"><ele>730.0</ele><time>2026-03-28T09:07:09Z</time></trkpt><trkpt lat="44.85475146673855" lon="9.201546038871673"><ele>730.0</ele><time>2026-03-28T09:07:11Z</time></trkpt><trkpt lat="44.85467774838312" lon="9.2016080034438"><ele>730.0</ele><time>2026-03-28T09:07:12Z</time></trkpt><trkpt lat="44.854644245869665" lon="9.201694431339885"><ele>730.0</ele><time>2026-03-28T09:07:13Z</time></trkpt><trkpt lat="44.85462244582424" lon="9.201782614549538"><ele>730.0</ele><time>2026-03-28T09:07:14Z</time></trkpt><trkpt lat="44.8546323661656" lon="9.20188259958387"><ele>729.5</ele><time>2026-03-28T09:07:15Z</time></trkpt><trkpt lat="44.854639385629326" lon="9.201979692261178"><ele>729.0</ele><time>2026-03-28T09:07:16Z</time></trkpt><trkpt lat="44.85456920326323" lon="9.202101499333013"><ele>728.5</ele><time>2026-03-28T09:07:18Z</time></trkpt><trkpt lat="44.85452176561995" lon="9.202171415378675"><ele>728.0</ele><time>2026-03-28T09:07:20Z</time></trkpt><trkpt lat="44.854427618069096" lon="9.202199147215905"><ele>727.5</ele><time>2026-03-28T09:07:22Z</time></trkpt><trkpt lat="44.854339324082986" lon="9.20221019212358"><ele>727.0</ele><time>2026-03-28T09:07:23Z</time></trkpt><trkpt lat="44.85425440198075" lon="9.202239373854313"><ele>723.8</ele><time>2026-03-28T09:07:24Z</time></trkpt><trkpt lat="44.85415770593362" lon="9.20226389546839"><ele>720.6</ele><time>2026-03-28T09:07:25Z</time></trkpt><trkpt lat="44.85408865698962" lon="9.202284849714827"><ele>717.4</ele><time>2026-03-28T09:07:26Z</time></trkpt><trkpt lat="44.853978133475785" lon="9.20235529414918"><ele>714.1999999999999</ele><time>2026-03-28T09:07:28Z</time></trkpt><trkpt lat="44.85387142919131" lon="9.202428485528383"><ele>711.0</ele><time>2026-03-28T09:07:30Z</time></trkpt><trkpt lat="44.85382205826093" lon="9.202576129059565"><ele>711.0</ele><time>2026-03-28T09:07:32Z</time></trkpt><trkpt lat="44.853787091035564" lon="9.202678480691535"><ele>711.0</ele><time>2026-03-28T09:07:33Z</time></trkpt><trkpt lat="44.85372328685025" lon="9.202735607072993"><ele>711.0</ele><time>2026-03-28T09:07:34.999Z</time></trkpt><trkpt lat="44.853592677960954" lon="9.202772786986662"><ele>711.0</ele><time>2026-03-28T09:07:36.999Z</time></trkpt><trkpt lat="44.85348744631222" lon="9.20275675660247"><ele>711.0</ele><time>2026-03-28T09:07:37.999Z</time></trkpt><trkpt lat="44.85341676646449" lon="9.202724936727055"><ele>708.1666666666666</ele><time>2026-03-28T09:07:38.999Z</time></trkpt><trkpt lat="44.853361593627305" lon="9.202678132805124"><ele>705.3333333333334</ele><time>2026-03-28T09:07:39.999Z</time></trkpt><trkpt lat="44.85329188255751" lon="9.202619226203957"><ele>702.5</ele><time>2026-03-28T09:07:40.999Z</time></trkpt><trkpt lat="44.85320754950932" lon="9.202572334310918"><ele>699.6666666666667</ele><time>2026-03-28T09:07:41.999Z</time></trkpt><trkpt lat="44.853135087719764" lon="9.202534372209804"><ele>696.8333333333334</ele><time>2026-03-28T09:07:42.999Z</time></trkpt><trkpt lat="44.853068422823334" lon="9.202482960492137"><ele>694.0</ele><time>2026-03-28T09:07:43.999Z</time></trkpt><trkpt lat="44.85300762694461" lon="9.202444206927641"><ele>694.0</ele><time>2026-03-28T09:07:44.999Z</time></trkpt><trkpt lat="44.852905541386356" lon="9.202362129698145"><ele>694.0</ele><time>2026-03-28T09:07:46.999Z</time></trkpt><trkpt lat="44.8528508972593" lon="9.202293912489806"><ele>694.0</ele><time>2026-03-28T09:07:47.999Z</time></trkpt><trkpt lat="44.8527849522935" lon="9.202263115071798"><ele>694.0</ele><time>2026-03-28T09:07:48.999Z</time></trkpt><trkpt lat="44.85266450277152" lon="9.202244938059554"><ele>694.0</ele><time>2026-03-28T09:07:50.999Z</time></trkpt><trkpt lat="44.85257105949228" lon="9.20222341719291"><ele>691.0</ele><time>2026-03-28T09:07:52.999Z</time></trkpt><trkpt lat="44.85248688871213" lon="9.202257753118399"><ele>688.0</ele><time>2026-03-28T09:07:53.999Z</time></trkpt><trkpt lat="44.85241600062085" lon="9.20229656527793"><ele>685.0</ele><time>2026-03-28T09:07:54.999Z</time></trkpt><trkpt lat="44.85231329899678" lon="9.202331497443243"><ele>682.0</ele><time>2026-03-28T09:07:56.999Z</time></trkpt><trkpt lat="44.85222047027358" lon="9.2023306969973"><ele>679.0</ele><time>2026-03-28T09:07:59.999Z</time></trkpt><trkpt lat="44.852130424114776" lon="9.202359649701847"><ele>679.0</ele><time>2026-03-28T09:08:02.999Z</time></trkpt><trkpt lat="44.85181421846041" lon="9.202365997123229"><ele>679.0</ele><time>2026-03-28T09:08:04.999Z</time></trkpt><trkpt lat="44.85170517640297" lon="9.202428179847086"><ele>679.0</ele><time>2026-03-28T09:08:06.999Z</time></trkpt><trkpt lat="44.85169300073471" lon="9.202518357329081"><ele>675.0</ele><time>2026-03-28T09:08:12.999Z</time></trkpt><trkpt lat="44.85171133765433" lon="9.202622861642874"><ele>671.0</ele><time>2026-03-28T09:08:16.999Z</time></trkpt><trkpt lat="44.851556431633526" lon="9.20264734372756"><ele>667.0</ele><time>2026-03-28T09:08:24.999Z</time></trkpt><trkpt lat="44.85153514687547" lon="9.202757157172325"><ele>663.0</ele><time>2026-03-28T09:08:25.999Z</time></trkpt><trkpt lat="44.85148915831925" lon="9.202911220355814"><ele>659.0</ele><time>2026-03-28T09:08:27.999Z</time></trkpt><trkpt lat="44.851444945763824" lon="9.202980638399264"><ele>659.0</ele><time>2026-03-28T09:08:29.999Z</time></trkpt><trkpt lat="44.85136179465777" lon="9.202982206496618"><ele>659.0</ele><time>2026-03-28T09:08:31.998Z</time></trkpt><trkpt lat="44.851296145061134" lon="9.202970472428927"><ele>659.0</ele><time>2026-03-28T09:08:32.998Z</time></trkpt><trkpt lat="44.85118231013447" lon="9.203016786929938"><ele>659.0</ele><time>2026-03-28T09:08:34.998Z</time></trkpt><trkpt lat="44.851107999340755" lon="9.203143425843855"><ele>659.0</ele><time>2026-03-28T09:08:36.998Z</time></trkpt><trkpt lat="44.85105745297282" lon="9.203215505377527"><ele>660.0</ele><time>2026-03-28T09:08:37.998Z</time></trkpt><trkpt lat="44.85098221872278" lon="9.203285777631095"><ele>661.0</ele><time>2026-03-28T09:08:40Z</time></trkpt><trkpt lat="44.850865771844305" lon="9.203264775567245"><ele>662.0</ele><time>2026-03-28T09:08:42Z</time></trkpt><trkpt lat="44.8507072102801" lon="9.203319808400801"><ele>663.0</ele><time>2026-03-28T09:08:44Z</time></trkpt><trkpt lat="44.85061235422" lon="9.20333785006778"><ele>661.0</ele><time>2026-03-28T09:08:45Z</time></trkpt><trkpt lat="44.85053036684163" lon="9.203364188435334"><ele>659.0</ele><time>2026-03-28T09:08:46Z</time></trkpt><trkpt lat="44.85042868470814" lon="9.203401129115383"><ele>657.0</ele><time>2026-03-28T09:08:47Z</time></trkpt><trkpt lat="44.850333035458156" lon="9.203385018016258"><ele>655.0</ele><time>2026-03-28T09:08:48Z</time></trkpt><trkpt lat="44.850255267307475" lon="9.20337736569684"><ele>653.0</ele><time>2026-03-28T09:08:49Z</time></trkpt><trkpt lat="44.85017380730244" lon="9.203422138965923"><ele>651.2</ele><time>2026-03-28T09:08:50Z</time></trkpt><trkpt lat="44.85006787045466" lon="9.203426891187334"><ele>649.4</ele><time>2026-03-28T09:08:51Z</time></trkpt><trkpt lat="44.84997631021819" lon="9.203420360147112"><ele>647.6</ele><time>2026-03-28T09:08:52Z</time></trkpt><trkpt lat="44.849868831878034" lon="9.203416303022374"><ele>645.8000000000001</ele><time>2026-03-28T09:08:53Z</time></trkpt><trkpt lat="44.84977873548385" lon="9.203432961824246"><ele>644.0</ele><time>2026-03-28T09:08:54Z</time></trkpt><trkpt lat="44.84969996077484" lon="9.203455025770719"><ele>644.0</ele><time>2026-03-28T09:08:55Z</time></trkpt><trkpt lat="44.849620332015164" lon="9.203468570030672"><ele>644.0</ele><time>2026-03-28T09:08:56Z</time></trkpt><trkpt lat="44.84954306603281" lon="9.203458010003583"><ele>644.0</ele><time>2026-03-28T09:08:57Z</time></trkpt><trkpt lat="44.849476642357885" lon="9.203481263803418"><ele>644.0</ele><time>2026-03-28T09:08:58Z</time></trkpt><trkpt lat="44.84941320631789" lon="9.20352954502807"><ele>644.0</ele><time>2026-03-28T09:08:59Z</time></trkpt><trkpt lat="44.84932296036469" lon="9.203630293903734"><ele>644.0</ele><time>2026-03-28T09:09:00Z</time></trkpt><trkpt lat="44.849227693394226" lon="9.203743475094699"><ele>641.7142857142857</ele><time>2026-03-28T09:09:01Z</time></trkpt><trkpt lat="44.84914680890517" lon="9.203784970059683"><ele>639.4285714285714</ele><time>2026-03-28T09:09:02Z</time></trkpt><trkpt lat="44.84907587083857" lon="9.203793565629491"><ele>637.1428571428571</ele><time>2026-03-28T09:09:03Z</time></trkpt><trkpt lat="44.84899994908061" lon="9.203800778971548"><ele>634.8571428571429</ele><time>2026-03-28T09:09:04Z</time></trkpt><trkpt lat="44.84893987039431" lon="9.203843041970126"><ele>632.5714285714286</ele><time>2026-03-28T09:09:05Z</time></trkpt><trkpt lat="44.84888301276973" lon="9.203889435323633"><ele>630.2857142857142</ele><time>2026-03-28T09:09:06Z</time></trkpt><trkpt lat="44.848810673019926" lon="9.203899278637927"><ele>628.0</ele><time>2026-03-28T09:09:07Z</time></trkpt><trkpt lat="44.8487382486801" lon="9.203891359644064"><ele>628.0</ele><time>2026-03-28T09:09:08Z</time></trkpt><trkpt lat="44.84862650220952" lon="9.203994643710352"><ele>628.0</ele><time>2026-03-28T09:09:10Z</time></trkpt><trkpt lat="44.848577763574525" lon="9.204089576771317"><ele>628.0</ele><time>2026-03-28T09:09:11Z</time></trkpt><trkpt lat="44.84858466582949" lon="9.204210070296352"><ele>628.0</ele><time>2026-03-28T09:09:12Z</time></trkpt><trkpt lat="44.848596651365455" lon="9.204311106940986"><ele>628.0</ele><time>2026-03-28T09:09:14Z</time></trkpt><trkpt lat="44.84864408668398" lon="9.204413820072467"><ele>627.0</ele><time>2026-03-28T09:09:16Z</time></trkpt><trkpt lat="44.848650656352426" lon="9.204518402198694"><ele>626.0</ele><time>2026-03-28T09:09:19Z</time></trkpt><trkpt lat="44.848559530471576" lon="9.204504226046813"><ele>625.0</ele><time>2026-03-28T09:09:24Z</time></trkpt><trkpt lat="44.84848701203285" lon="9.204425172600484"><ele>624.0</ele><time>2026-03-28T09:09:25Z</time></trkpt><trkpt lat="44.848426979332835" lon="9.204348319841845"><ele>623.0</ele><time>2026-03-28T09:09:26Z</time></trkpt><trkpt lat="44.848325809099116" lon="9.204191558128173"><ele>623.0</ele><time>2026-03-28T09:09:28Z</time></trkpt><trkpt lat="44.848284966639085" lon="9.204116492962612"><ele>623.0</ele><time>2026-03-28T09:09:29Z</time></trkpt><trkpt lat="44.84818997364296" lon="9.204060651557743"><ele>623.0</ele><time>2026-03-28T09:09:30.999Z</time></trkpt><trkpt lat="44.84812594421025" lon="9.203998095050878"><ele>623.0</ele><time>2026-03-28T09:09:32.999Z</time></trkpt><trkpt lat="44.848050312365" lon="9.203954031768287"><ele>623.0</ele><time>2026-03-28T09:09:33.999Z</time></trkpt><trkpt lat="44.847952319093444" lon="9.203956165533892"><ele>623.0</ele><time>2026-03-28T09:09:34.999Z</time></trkpt><trkpt lat="44.84785726635544" lon="9.20392719641416"><ele>619.4</ele><time>2026-03-28T09:09:35.999Z</time></trkpt><trkpt lat="44.847757000905595" lon="9.203879215124685"><ele>615.8</ele><time>2026-03-28T09:09:36.999Z</time></trkpt><trkpt lat="44.84768644228524" lon="9.203793550521409"><ele>612.2</ele><time>2026-03-28T09:09:38.999Z</time></trkpt><trkpt lat="44.84758777675607" lon="9.203745636851457"><ele>608.6</ele><time>2026-03-28T09:09:41.999Z</time></trkpt><trkpt lat="44.84748210423635" lon="9.203709064894264"><ele>605.0</ele><time>2026-03-28T09:09:43.999Z</time></trkpt><trkpt lat="44.84725693032944" lon="9.203776214050004"><ele>605.0</ele><time>2026-03-28T09:09:46.999Z</time></trkpt><trkpt lat="44.84716574524874" lon="9.203817807874843"><ele>605.0</ele><time>2026-03-28T09:09:47.999Z</time></trkpt><trkpt lat="44.847056486147515" lon="9.203838273583017"><ele>605.0</ele><time>2026-03-28T09:09:48.999Z</time></trkpt><trkpt lat="44.84695778125517" lon="9.20382439218848"><ele>605.0</ele><time>2026-03-28T09:09:49.999Z</time></trkpt><trkpt lat="44.84688238328397" lon="9.203785858399844"><ele>605.0</ele><time>2026-03-28T09:09:50.999Z</time></trkpt><trkpt lat="44.84680743744244" lon="9.203731787310652"><ele>604.6666666666666</ele><time>2026-03-28T09:09:51.999Z</time></trkpt><trkpt lat="44.8467340528626" lon="9.203685197025031"><ele>604.3333333333333</ele><time>2026-03-28T09:09:52.999Z</time></trkpt><trkpt lat="44.846643731752046" lon="9.203663342533156"><ele>604.0</ele><time>2026-03-28T09:09:53.999Z</time></trkpt><trkpt lat="44.84655531965887" lon="9.203646969428068"><ele>603.6666666666666</ele><time>2026-03-28T09:09:54.999Z</time></trkpt><trkpt lat="44.84648387823281" lon="9.203639346928082"><ele>603.3333333333334</ele><time>2026-03-28T09:09:55.999Z</time></trkpt><trkpt lat="44.84640816107788" lon="9.203654083152193"><ele>603.0</ele><time>2026-03-28T09:09:56.999Z</time></trkpt><trkpt lat="44.846335350554625" lon="9.203707047370946"><ele>603.0</ele><time>2026-03-28T09:09:57.999Z</time></trkpt><trkpt lat="44.84624475971916" lon="9.203784378798888"><ele>603.0</ele><time>2026-03-28T09:09:58.999Z</time></trkpt><trkpt lat="44.84615492476776" lon="9.203852981051602"><ele>603.0</ele><time>2026-03-28T09:09:59.999Z</time></trkpt><trkpt lat="44.84607391099776" lon="9.203895774777047"><ele>603.0</ele><time>2026-03-28T09:10:00.999Z</time></trkpt><trkpt lat="44.84599270861791" lon="9.203940046272715"><ele>603.0</ele><time>2026-03-28T09:10:01.999Z</time></trkpt><trkpt lat="44.84590943839694" lon="9.204001951031733"><ele>605.25</ele><time>2026-03-28T09:10:02.999Z</time></trkpt><trkpt lat="44.84581639492605" lon="9.204103734186948"><ele>607.5</ele><time>2026-03-28T09:10:03.999Z</time></trkpt><trkpt lat="44.8456927618176" lon="9.204241963524558"><ele>609.75</ele><time>2026-03-28T09:10:04.999Z</time></trkpt><trkpt lat="44.84559385694859" lon="9.204359626002953"><ele>612.0</ele><time>2026-03-28T09:10:05.999Z</time></trkpt><trkpt lat="44.84550541783732" lon="9.20442876821792"><ele>612.0</ele><time>2026-03-28T09:10:06.999Z</time></trkpt><trkpt lat="44.845459456065846" lon="9.20450046325725"><ele>612.0</ele><time>2026-03-28T09:10:07.999Z</time></trkpt><trkpt lat="44.84540245079187" lon="9.204368437805785"><ele>612.0</ele><time>2026-03-28T09:10:10.999Z</time></trkpt><trkpt lat="44.8453365124398" lon="9.20426546872587"><ele>612.0</ele><time>2026-03-28T09:10:11.999Z</time></trkpt><trkpt lat="44.84525758929201" lon="9.204134848573"><ele>612.0</ele><time>2026-03-28T09:10:12.999Z</time></trkpt><trkpt lat="44.845173972026316" lon="9.204013171518287"><ele>608.75</ele><time>2026-03-28T09:10:13.999Z</time></trkpt><trkpt lat="44.84504002475039" lon="9.20391616663285"><ele>605.5</ele><time>2026-03-28T09:10:14.999Z</time></trkpt><trkpt lat="44.84493539854651" lon="9.2038251002222"><ele>602.25</ele><time>2026-03-28T09:10:15.999Z</time></trkpt><trkpt lat="44.8448857418334" lon="9.203678460650512"><ele>599.0</ele><time>2026-03-28T09:10:16.999Z</time></trkpt><trkpt lat="44.844831464329246" lon="9.203542115327297"><ele>599.0</ele><time>2026-03-28T09:10:17.999Z</time></trkpt><trkpt lat="44.84477958105267" lon="9.203444954606088"><ele>599.0</ele><time>2026-03-28T09:10:18.999Z</time></trkpt><trkpt lat="44.84472099323269" lon="9.20336412565801"><ele>599.0</ele><time>2026-03-28T09:10:19.999Z</time></trkpt><trkpt lat="44.844649687299466" lon="9.203295830757202"><ele>599.0</ele><time>2026-03-28T09:10:20.999Z</time></trkpt><trkpt lat="44.84456664747568" lon="9.203230768778242"><ele>599.0</ele><time>2026-03-28T09:10:21.999Z</time></trkpt><trkpt lat="44.84450209848118" lon="9.20320281342871"><ele>599.0</ele><time>2026-03-28T09:10:22.999Z</time></trkpt><trkpt lat="44.84440567897269" lon="9.203205934193923"><ele>601.2</ele><time>2026-03-28T09:10:23.999Z</time></trkpt><trkpt lat="44.844293924126994" lon="9.203218127528418"><ele>603.4</ele><time>2026-03-28T09:10:24.999Z</time></trkpt><trkpt lat="44.844169937974684" lon="9.203305298166965"><ele>605.6</ele><time>2026-03-28T09:10:25.999Z</time></trkpt><trkpt lat="44.84406838913617" lon="9.203372195898261"><ele>607.8</ele><time>2026-03-28T09:10:26.999Z</time></trkpt><trkpt lat="44.843991738128594" lon="9.20334956397273"><ele>610.0</ele><time>2026-03-28T09:10:27.999Z</time></trkpt><trkpt lat="44.84391842790451" lon="9.203306974404597"><ele>610.0</ele><time>2026-03-28T09:10:29.999Z</time></trkpt><trkpt lat="44.84382238028513" lon="9.203298450483368"><ele>610.0</ele><time>2026-03-28T09:10:30.999Z</time></trkpt><trkpt lat="44.84377202527231" lon="9.203240812043862"><ele>610.0</ele><time>2026-03-28T09:10:31.999Z</time></trkpt><trkpt lat="44.843697553105685" lon="9.203212367924776"><ele>610.0</ele><time>2026-03-28T09:10:32.998Z</time></trkpt><trkpt lat="44.84355997682857" lon="9.203228743135389"><ele>610.0</ele><time>2026-03-28T09:10:34.998Z</time></trkpt><trkpt lat="44.84350288184542" lon="9.20328305522915"><ele>610.0</ele><time>2026-03-28T09:10:35.998Z</time></trkpt><trkpt lat="44.84343921112454" lon="9.203424494672586"><ele>608.2</ele><time>2026-03-28T09:10:36.998Z</time></trkpt><trkpt lat="44.84341665135658" lon="9.203573910915209"><ele>606.4</ele><time>2026-03-28T09:10:37.998Z</time></trkpt><trkpt lat="44.84337653624378" lon="9.203747340278895"><ele>604.6</ele><time>2026-03-28T09:10:38.998Z</time></trkpt><trkpt lat="44.843370871019104" lon="9.203901132734584"><ele>602.8</ele><time>2026-03-28T09:10:39.998Z</time></trkpt><trkpt lat="44.84336726118292" lon="9.204030212375873"><ele>601.0</ele><time>2026-03-28T09:10:40.998Z</time></trkpt><trkpt lat="44.843370060094124" lon="9.204191908881267"><ele>601.0</ele><time>2026-03-28T09:10:41.998Z</time></trkpt><trkpt lat="44.84338023495786" lon="9.204400297751056"><ele>601.0</ele><time>2026-03-28T09:10:42.998Z</time></trkpt><trkpt lat="44.84341530153194" lon="9.20458670015546"><ele>601.0</ele><time>2026-03-28T09:10:43.998Z</time></trkpt><trkpt lat="44.843429573515415" lon="9.204716512947492"><ele>601.0</ele><time>2026-03-28T09:10:44.998Z</time></trkpt><trkpt lat="44.84344480193153" lon="9.204821953876209"><ele>603.4</ele><time>2026-03-28T09:10:46Z</time></trkpt><trkpt lat="44.84349954832066" lon="9.204939391019137"><ele>605.8</ele><time>2026-03-28T09:10:48Z</time></trkpt><trkpt lat="44.843551275556884" lon="9.205043890640367"><ele>608.1999999999999</ele><time>2026-03-28T09:10:49Z</time></trkpt><trkpt lat="44.843573814350854" lon="9.20515046811059"><ele>610.6</ele><time>2026-03-28T09:10:50Z</time></trkpt><trkpt lat="44.84355530375351" lon="9.205267586028656"><ele>613.0</ele><time>2026-03-28T09:10:52Z</time></trkpt><trkpt lat="44.84343653548978" lon="9.205304788281213"><ele>613.0</ele><time>2026-03-28T09:10:54Z</time></trkpt><trkpt lat="44.843346632209254" lon="9.205295191988638"><ele>613.0</ele><time>2026-03-28T09:10:55Z</time></trkpt><trkpt lat="44.84327786369808" lon="9.205273872941175"><ele>613.0</ele><time>2026-03-28T09:10:56Z</time></trkpt><trkpt lat="44.84318588453373" lon="9.205224059742687"><ele>613.0</ele><time>2026-03-28T09:10:57Z</time></trkpt><trkpt lat="44.84310775437003" lon="9.205211092116182"><ele>613.0</ele><time>2026-03-28T09:10:58Z</time></trkpt><trkpt lat="44.84304104316026" lon="9.205245105538149"><ele>613.0</ele><time>2026-03-28T09:10:59Z</time></trkpt><trkpt lat="44.84296850193405" lon="9.20524640488249"><ele>613.0</ele><time>2026-03-28T09:11:00Z</time></trkpt><trkpt lat="44.84288889013386" lon="9.205220152126394"><ele>613.0</ele><time>2026-03-28T09:11:01Z</time></trkpt><trkpt lat="44.842812628721155" lon="9.205207621207327"><ele>613.0</ele><time>2026-03-28T09:11:02Z</time></trkpt><trkpt lat="44.8427045696304" lon="9.205281059374807"><ele>613.0</ele><time>2026-03-28T09:11:04Z</time></trkpt><trkpt lat="44.84269468499904" lon="9.205421547195293"><ele>613.0</ele><time>2026-03-28T09:11:05Z</time></trkpt><trkpt lat="44.84269443988053" lon="9.205535851113785"><ele>613.0</ele><time>2026-03-28T09:11:06Z</time></trkpt><trkpt lat="44.84270589935865" lon="9.205634975642273"><ele>613.0</ele><time>2026-03-28T09:11:07Z</time></trkpt><trkpt lat="44.84271240723286" lon="9.205734809816558"><ele>613.0</ele><time>2026-03-28T09:11:08Z</time></trkpt><trkpt lat="44.842696832091825" lon="9.205834652902471"><ele>613.0</ele><time>2026-03-28T09:11:09Z</time></trkpt><trkpt lat="44.84266987536728" lon="9.205937017617696"><ele>613.0</ele><time>2026-03-28T09:11:11Z</time></trkpt><trkpt lat="44.84275130887206" lon="9.205920819667911"><ele>613.0</ele><time>2026-03-28T09:12:02.999Z</time></trkpt><trkpt lat="44.842827784677446" lon="9.205850156512886"><ele>617.8</ele><time>2026-03-28T09:12:04.999Z</time></trkpt><trkpt lat="44.84290955321082" lon="9.205785949361827"><ele>622.5999999999999</ele><time>2026-03-28T09:12:06.999Z</time></trkpt><trkpt lat="44.84302574426271" lon="9.2057737230404"><ele>627.4000000000001</ele><time>2026-03-28T09:12:08.999Z</time></trkpt><trkpt lat="44.84310319131974" lon="9.205884649177763"><ele>632.2</ele><time>2026-03-28T09:12:10.999Z</time></trkpt><trkpt lat="44.84309008688822" lon="9.20602137765964"><ele>637.0</ele><time>2026-03-28T09:12:12.999Z</time></trkpt><trkpt lat="44.843048364806215" lon="9.206099474897462"><ele>637.0</ele><time>2026-03-28T09:12:13.999Z</time></trkpt><trkpt lat="44.84297249304352" lon="9.206218860035575"><ele>637.0</ele><time>2026-03-28T09:12:15.999Z</time></trkpt><trkpt lat="44.843002591728784" lon="9.206319020286726"><ele>637.0</ele><time>2026-03-28T09:12:16.999Z</time></trkpt><trkpt lat="44.84303554976117" lon="9.206427433358744"><ele>637.0</ele><time>2026-03-28T09:12:17.999Z</time></trkpt><trkpt lat="44.84308117735844" lon="9.206514160013851"><ele>637.0</ele><time>2026-03-28T09:12:18.999Z</time></trkpt><trkpt lat="44.84311289279455" lon="9.206603426820141"><ele>637.0</ele><time>2026-03-28T09:12:19.999Z</time></trkpt><trkpt lat="44.843180929603484" lon="9.20665507300883"><ele>640.6666666666667</ele><time>2026-03-28T09:12:20.999Z</time></trkpt><trkpt lat="44.843260974934196" lon="9.206682575182995"><ele>644.3333333333334</ele><time>2026-03-28T09:12:21.999Z</time></trkpt><trkpt lat="44.843328666693814" lon="9.206708322572295"><ele>648.0</ele><time>2026-03-28T09:12:22.999Z</time></trkpt><trkpt lat="44.843397862838685" lon="9.206703423139267"><ele>651.6666666666666</ele><time>2026-03-28T09:12:23.999Z</time></trkpt><trkpt lat="44.843485555286534" lon="9.206670655886692"><ele>655.3333333333333</ele><time>2026-03-28T09:12:24.999Z</time></trkpt><trkpt lat="44.84358010495375" lon="9.206617282264324"><ele>659.0</ele><time>2026-03-28T09:12:25.999Z</time></trkpt><trkpt lat="44.84365629487853" lon="9.206570912940778"><ele>658.6666666666666</ele><time>2026-03-28T09:12:26.999Z</time></trkpt><trkpt lat="44.843723356427446" lon="9.206566716892254"><ele>658.3333333333333</ele><time>2026-03-28T09:12:27.999Z</time></trkpt><trkpt lat="44.84379582049039" lon="9.206514236974046"><ele>658.0</ele><time>2026-03-28T09:12:28.999Z</time></trkpt><trkpt lat="44.84387739793722" lon="9.206461545243778"><ele>657.6666666666666</ele><time>2026-03-28T09:12:29.999Z</time></trkpt><trkpt lat="44.84394755155216" lon="9.20644305240372"><ele>657.3333333333334</ele><time>2026-03-28T09:12:30.999Z</time></trkpt><trkpt lat="44.84405124645302" lon="9.206479500500379"><ele>657.0</ele><time>2026-03-28T09:12:32.999Z</time></trkpt><trkpt lat="44.844133438127166" lon="9.206559628813366"><ele>661.0</ele><time>2026-03-28T09:12:34.999Z</time></trkpt><trkpt lat="44.844179847666936" lon="9.206646379113495"><ele>665.0</ele><time>2026-03-28T09:12:35.999Z</time></trkpt><trkpt lat="44.84426701103299" lon="9.20676807697"><ele>669.0</ele><time>2026-03-28T09:12:37.999Z</time></trkpt><trkpt lat="44.844330636749895" lon="9.20682234014376"><ele>673.0</ele><time>2026-03-28T09:12:38.999Z</time></trkpt><trkpt lat="44.84445429004756" lon="9.206878429804645"><ele>677.0</ele><time>2026-03-28T09:12:43.998Z</time></trkpt><trkpt lat="44.84453492426102" lon="9.206903345387644"><ele>679.3333333333333</ele><time>2026-03-28T09:12:47.998Z</time></trkpt><trkpt lat="44.84460596169895" lon="9.206942838874028"><ele>681.6666666666666</ele><time>2026-03-28T09:12:49.998Z</time></trkpt><trkpt lat="44.84469358554554" lon="9.206962453299544"><ele>684.0</ele><time>2026-03-28T09:12:53Z</time></trkpt><trkpt lat="44.84474928905002" lon="9.207045515797432"><ele>686.3333333333334</ele><time>2026-03-28T09:12:55Z</time></trkpt><trkpt lat="44.84480357438446" lon="9.20711428803768"><ele>688.6666666666667</ele><time>2026-03-28T09:12:56Z</time></trkpt><trkpt lat="44.8448499849235" lon="9.207182577913782"><ele>691.0</ele><time>2026-03-28T09:12:57Z</time></trkpt><trkpt lat="44.844894252045286" lon="9.207251489129627"><ele>693.8</ele><time>2026-03-28T09:12:58Z</time></trkpt><trkpt lat="44.8449498545205" lon="9.207356497580443"><ele>696.5999999999999</ele><time>2026-03-28T09:13:00Z</time></trkpt><trkpt lat="44.84506396295823" lon="9.20745363197879"><ele>699.4</ele><time>2026-03-28T09:13:04Z</time></trkpt><trkpt lat="44.84513240143369" lon="9.207468672280461"><ele>702.2</ele><time>2026-03-28T09:13:05Z</time></trkpt><trkpt lat="44.845238749631385" lon="9.2073911784447"><ele>705.0</ele><time>2026-03-28T09:13:07Z</time></trkpt><trkpt lat="44.845269021689596" lon="9.207241504754169"><ele>705.0</ele><time>2026-03-28T09:13:09Z</time></trkpt><trkpt lat="44.845291019021936" lon="9.207128603484403"><ele>705.0</ele><time>2026-03-28T09:13:12Z</time></trkpt><trkpt lat="44.84527387967207" lon="9.207015417788707"><ele>705.0</ele><time>2026-03-28T09:13:14Z</time></trkpt><trkpt lat="44.84532075001384" lon="9.206923328392156"><ele>705.0</ele><time>2026-03-28T09:13:18Z</time></trkpt><trkpt lat="44.845392232667685" lon="9.20697901546419"><ele>705.0</ele><time>2026-03-28T09:13:21Z</time></trkpt><trkpt lat="44.84545588185642" lon="9.207138046749495"><ele>705.0</ele><time>2026-03-28T09:13:23Z</time></trkpt><trkpt lat="44.84551551418536" lon="9.20723453004765"><ele>705.0</ele><time>2026-03-28T09:13:25Z</time></trkpt><trkpt lat="44.84557955586401" lon="9.207267048688301"><ele>705.0</ele><time>2026-03-28T09:13:26Z</time></trkpt><trkpt lat="44.84564682915152" lon="9.207299412094578"><ele>705.0</ele><time>2026-03-28T09:13:27Z</time></trkpt><trkpt lat="44.84573388123163" lon="9.207258175395692"><ele>705.0</ele><time>2026-03-28T09:13:29Z</time></trkpt><trkpt lat="44.84589474017659" lon="9.207242898298805"><ele>710.0</ele><time>2026-03-28T09:13:33Z</time></trkpt><trkpt lat="44.845967335002236" lon="9.20715299084696"><ele>715.0</ele><time>2026-03-28T09:13:35Z</time></trkpt><trkpt lat="44.84606258182098" lon="9.207118698595636"><ele>720.0</ele><time>2026-03-28T09:13:37Z</time></trkpt><trkpt lat="44.84613527291513" lon="9.207088487479444"><ele>725.0</ele><time>2026-03-28T09:13:38Z</time></trkpt><trkpt lat="44.8462240725376" lon="9.207033609754037"><ele>730.0</ele><time>2026-03-28T09:13:39Z</time></trkpt><trkpt lat="44.84632828832497" lon="9.206979006886861"><ele>730.0</ele><time>2026-03-28T09:13:41Z</time></trkpt><trkpt lat="44.84639850447919" lon="9.206946470455597"><ele>730.0</ele><time>2026-03-28T09:13:42Z</time></trkpt><trkpt lat="44.84650476717944" lon="9.206907333007413"><ele>730.0</ele><time>2026-03-28T09:13:44Z</time></trkpt><trkpt lat="44.8465809138986" lon="9.20691686908079"><ele>730.0</ele><time>2026-03-28T09:13:45Z</time></trkpt><trkpt lat="44.84665313281614" lon="9.206869654509527"><ele>730.0</ele><time>2026-03-28T09:13:46Z</time></trkpt><trkpt lat="44.846762734584836" lon="9.206889374981555"><ele>733.4</ele><time>2026-03-28T09:13:48Z</time></trkpt><trkpt lat="44.84688494799023" lon="9.206955769784578"><ele>736.8</ele><time>2026-03-28T09:13:50Z</time></trkpt><trkpt lat="44.846989851366935" lon="9.206919892941071"><ele>740.2</ele><time>2026-03-28T09:13:52Z</time></trkpt><trkpt lat="44.84706825731102" lon="9.206917712249979"><ele>743.6</ele><time>2026-03-28T09:13:53Z</time></trkpt><trkpt lat="44.84714835354718" lon="9.206909510643001"><ele>747.0</ele><time>2026-03-28T09:13:54Z</time></trkpt><trkpt lat="44.847222170374074" lon="9.206905927480435"><ele>747.0</ele><time>2026-03-28T09:13:54.999Z</time></trkpt><trkpt lat="44.847292567305125" lon="9.206941130614743"><ele>747.0</ele><time>2026-03-28T09:13:55.999Z</time></trkpt><trkpt lat="44.84737690451296" lon="9.206970894435722"><ele>747.0</ele><time>2026-03-28T09:13:56.999Z</time></trkpt><trkpt lat="44.84749439002924" lon="9.207027939790489"><ele>747.0</ele><time>2026-03-28T09:13:58.999Z</time></trkpt><trkpt lat="44.84758046472816" lon="9.207126871820291"><ele>747.0</ele><time>2026-03-28T09:14:00.999Z</time></trkpt><trkpt lat="44.84763567297949" lon="9.207192242235186"><ele>748.4000000000001</ele><time>2026-03-28T09:14:01.999Z</time></trkpt><trkpt lat="44.84768391042081" lon="9.207268044319285"><ele>749.8000000000001</ele><time>2026-03-28T09:14:02.999Z</time></trkpt><trkpt lat="44.84775226010723" lon="9.20742191151416"><ele>751.2</ele><time>2026-03-28T09:14:04.999Z</time></trkpt><trkpt lat="44.84783831064808" lon="9.207490916318564"><ele>752.6</ele><time>2026-03-28T09:14:06.999Z</time></trkpt><trkpt lat="44.84788125179083" lon="9.207603812485685"><ele>754.0</ele><time>2026-03-28T09:14:08.999Z</time></trkpt><trkpt lat="44.8478756031919" lon="9.207693268993554"><ele>754.0</ele><time>2026-03-28T09:14:10.999Z</time></trkpt><trkpt lat="44.84796138700375" lon="9.207897707158546"><ele>754.0</ele><time>2026-03-28T09:14:11.999Z</time></trkpt><trkpt lat="44.84788652063948" lon="9.208045924829774"><ele>754.0</ele><time>2026-03-28T09:14:13.999Z</time></trkpt><trkpt lat="44.84775196557573" lon="9.2081401965119"><ele>754.0</ele><time>2026-03-28T09:14:15.999Z</time></trkpt><trkpt lat="44.84765092080879" lon="9.208217466309751"><ele>759.5</ele><time>2026-03-28T09:14:17.999Z</time></trkpt><trkpt lat="44.847555226388664" lon="9.208281730836454"><ele>765.0</ele><time>2026-03-28T09:14:18.999Z</time></trkpt><trkpt lat="44.847489202982025" lon="9.208299189038772"><ele>770.5</ele><time>2026-03-28T09:14:19.999Z</time></trkpt><trkpt lat="44.847423614627175" lon="9.208323301258588"><ele>776.0</ele><time>2026-03-28T09:14:21.999Z</time></trkpt><trkpt lat="44.84741118684365" lon="9.208433571237174"><ele>781.4999999999999</ele><time>2026-03-28T09:14:29.999Z</time></trkpt><trkpt lat="44.847346235987" lon="9.208504641684268"><ele>787.0</ele><time>2026-03-28T09:14:36.999Z</time></trkpt><trkpt lat="44.84731494706611" lon="9.208620185302179"><ele>786.9999999999999</ele><time>2026-03-28T09:14:37.999Z</time></trkpt><trkpt lat="44.84723745871822" lon="9.208707457088789"><ele>787.0</ele><time>2026-03-28T09:14:38.999Z</time></trkpt><trkpt lat="44.8471597252561" lon="9.208765968668365"><ele>787.0</ele><time>2026-03-28T09:14:39.999Z</time></trkpt><trkpt lat="44.84710702115362" lon="9.208825064902197"><ele>787.0</ele><time>2026-03-28T09:14:40.999Z</time></trkpt><trkpt lat="44.847059242243596" lon="9.20892310300634"><ele>786.9999999999999</ele><time>2026-03-28T09:14:41.999Z</time></trkpt><trkpt lat="44.84700692379744" lon="9.209042453275432"><ele>787.0</ele><time>2026-03-28T09:14:42.999Z</time></trkpt><trkpt lat="44.84695703512947" lon="9.209170711241747"><ele>786.1666666666666</ele><time>2026-03-28T09:14:43.999Z</time></trkpt><trkpt lat="44.84690083404942" lon="9.209299374418634"><ele>785.3333333333333</ele><time>2026-03-28T09:14:45.999Z</time></trkpt><trkpt lat="44.846854470452264" lon="9.209414455426833"><ele>784.5</ele><time>2026-03-28T09:14:48.999Z</time></trkpt><trkpt lat="44.8468603516259" lon="9.20951691911742"><ele>783.6666666666667</ele><time>2026-03-28T09:14:49.999Z</time></trkpt><trkpt lat="44.84687101358236" lon="9.209623056851328"><ele>782.8333333333334</ele><time>2026-03-28T09:14:50.999Z</time></trkpt><trkpt lat="44.84687279831374" lon="9.209725862596011"><ele>782.0</ele><time>2026-03-28T09:14:52.999Z</time></trkpt><trkpt lat="44.846767302222545" lon="9.209697676163337"><ele>784.3333333333334</ele><time>2026-03-28T09:18:43.999Z</time></trkpt><trkpt lat="44.84670772127445" lon="9.209668043680043"><ele>786.6666666666667</ele><time>2026-03-28T09:18:44.999Z</time></trkpt><trkpt lat="44.846639318898184" lon="9.209645879129104"><ele>789.0</ele><time>2026-03-28T09:18:45.999Z</time></trkpt><trkpt lat="44.84656212677788" lon="9.209631014002138"><ele>791.3333333333333</ele><time>2026-03-28T09:18:46.999Z</time></trkpt><trkpt lat="44.84649508997756" lon="9.209629484848874"><ele>793.6666666666666</ele><time>2026-03-28T09:18:47.999Z</time></trkpt><trkpt lat="44.84636330611082" lon="9.209687122998151"><ele>796.0</ele><time>2026-03-28T09:18:49.999Z</time></trkpt><trkpt lat="44.84627818505918" lon="9.209737508886828"><ele>795.9999999999999</ele><time>2026-03-28T09:18:50.999Z</time></trkpt><trkpt lat="44.84619484082683" lon="9.20979365082481"><ele>796.0</ele><time>2026-03-28T09:18:51.999Z</time></trkpt><trkpt lat="44.84612824357408" lon="9.209857291580956"><ele>796.0</ele><time>2026-03-28T09:18:52.999Z</time></trkpt><trkpt lat="44.8460576533745" lon="9.209932586224157"><ele>796.0</ele><time>2026-03-28T09:18:53.999Z</time></trkpt><trkpt lat="44.845982956084654" lon="9.209997191059523"><ele>795.9999999999999</ele><time>2026-03-28T09:18:54.999Z</time></trkpt><trkpt lat="44.845900419216846" lon="9.210055697052073"><ele>796.0</ele><time>2026-03-28T09:18:56.999Z</time></trkpt><trkpt lat="44.84581889376781" lon="9.210053734497508"><ele>794.1999999999999</ele><time>2026-03-28T09:18:58.999Z</time></trkpt><trkpt lat="44.845737305460766" lon="9.210012102757876"><ele>792.4</ele><time>2026-03-28T09:18:59.999Z</time></trkpt><trkpt lat="44.845662604180646" lon="9.209959778050543"><ele>790.6</ele><time>2026-03-28T09:19:00.999Z</time></trkpt><trkpt lat="44.84556277451599" lon="9.209898066716885"><ele>788.8</ele><time>2026-03-28T09:19:01.999Z</time></trkpt><trkpt lat="44.84547219008794" lon="9.209834248476968"><ele>787.0</ele><time>2026-03-28T09:19:02.999Z</time></trkpt><trkpt lat="44.8453948517923" lon="9.209801081993726"><ele>786.9999999999999</ele><time>2026-03-28T09:19:03.999Z</time></trkpt><trkpt lat="44.845318363353336" lon="9.209764545327706"><ele>787.0</ele><time>2026-03-28T09:19:04.999Z</time></trkpt><trkpt lat="44.84523651880677" lon="9.209738470422664"><ele>787.0</ele><time>2026-03-28T09:19:05.999Z</time></trkpt><trkpt lat="44.84516105395096" lon="9.209712896163351"><ele>787.0</ele><time>2026-03-28T09:19:06.999Z</time></trkpt><trkpt lat="44.84508239120832" lon="9.209700394132655"><ele>786.9999999999999</ele><time>2026-03-28T09:19:08Z</time></trkpt><trkpt lat="44.8449974318144" lon="9.209693586822796"><ele>787.0</ele><time>2026-03-28T09:19:09Z</time></trkpt><trkpt lat="44.844923046335346" lon="9.20969151398881"><ele>786.8333333333333</ele><time>2026-03-28T09:19:10Z</time></trkpt><trkpt lat="44.844819702596155" lon="9.209681531447139"><ele>786.6666666666666</ele><time>2026-03-28T09:19:12Z</time></trkpt><trkpt lat="44.844755745655064" lon="9.209658867320563"><ele>786.5</ele><time>2026-03-28T09:19:13Z</time></trkpt><trkpt lat="44.84469026998949" lon="9.209654689097023"><ele>786.3333333333333</ele><time>2026-03-28T09:19:14Z</time></trkpt><trkpt lat="44.84456372829587" lon="9.209661708230978"><ele>786.1666666666666</ele><time>2026-03-28T09:19:16Z</time></trkpt><trkpt lat="44.844496035942626" lon="9.209629604914323"><ele>786.0</ele><time>2026-03-28T09:19:17Z</time></trkpt><trkpt lat="44.844403030470964" lon="9.209575004479"><ele>786.0</ele><time>2026-03-28T09:19:19Z</time></trkpt><trkpt lat="44.84433549405215" lon="9.209576854969354"><ele>786.0</ele><time>2026-03-28T09:19:21Z</time></trkpt><trkpt lat="44.8442604174016" lon="9.209690107455886"><ele>786.0</ele><time>2026-03-28T09:19:23Z</time></trkpt><trkpt lat="44.844221321921246" lon="9.209837515416444"><ele>786.0</ele><time>2026-03-28T09:19:26Z</time></trkpt><trkpt lat="44.84421215203968" lon="9.209980523395146"><ele>786.0</ele><time>2026-03-28T09:19:28Z</time></trkpt><trkpt lat="44.844202932395795" lon="9.210144640935654"><ele>785.5</ele><time>2026-03-28T09:19:30Z</time></trkpt><trkpt lat="44.84422068469014" lon="9.210295654536704"><ele>785.0</ele><time>2026-03-28T09:19:32Z</time></trkpt><trkpt lat="44.844259058467536" lon="9.210374039653765"><ele>784.5</ele><time>2026-03-28T09:19:33Z</time></trkpt><trkpt lat="44.84428591070638" lon="9.210476901997662"><ele>784.0</ele><time>2026-03-28T09:19:34Z</time></trkpt><trkpt lat="44.844297537118926" lon="9.210565753890387"><ele>783.5</ele><time>2026-03-28T09:19:35Z</time></trkpt><trkpt lat="44.8443204861058" lon="9.2106542161037"><ele>783.0</ele><time>2026-03-28T09:19:36Z</time></trkpt><trkpt lat="44.84429340003742" lon="9.210787013296295"><ele>782.6666666666666</ele><time>2026-03-28T09:19:38Z</time></trkpt><trkpt lat="44.844240270235794" lon="9.210854063382952"><ele>782.3333333333333</ele><time>2026-03-28T09:19:40Z</time></trkpt><trkpt lat="44.844209833827655" lon="9.210942956456488"><ele>782.0</ele><time>2026-03-28T09:19:43Z</time></trkpt><trkpt lat="44.844201426020945" lon="9.211057327095753"><ele>781.6666666666666</ele><time>2026-03-28T09:19:45Z</time></trkpt><trkpt lat="44.84421065300912" lon="9.211208562997145"><ele>781.3333333333333</ele><time>2026-03-28T09:19:47Z</time></trkpt><trkpt lat="44.84426326988986" lon="9.211332683289477"><ele>781.0</ele><time>2026-03-28T09:19:49Z</time></trkpt><trkpt lat="44.84428882942741" lon="9.211465957647357"><ele>784.9999999999999</ele><time>2026-03-28T09:19:53Z</time></trkpt><trkpt lat="44.844359356072154" lon="9.211542373225722"><ele>789.0</ele><time>2026-03-28T09:19:55Z</time></trkpt><trkpt lat="44.84442850274399" lon="9.211632377963719"><ele>793.0</ele><time>2026-03-28T09:19:57Z</time></trkpt><trkpt lat="44.84446350516662" lon="9.211753440500143"><ele>797.0</ele><time>2026-03-28T09:20:00Z</time></trkpt><trkpt lat="44.84445626236713" lon="9.211857560921326"><ele>800.9999999999999</ele><time>2026-03-28T09:20:03Z</time></trkpt><trkpt lat="44.844389950388276" lon="9.211898563708807"><ele>805.0</ele><time>2026-03-28T09:20:05Z</time></trkpt><trkpt lat="44.84432513473693" lon="9.211910835267114"><ele>800.1666666666666</ele><time>2026-03-28T09:20:08Z</time></trkpt><trkpt lat="44.844268883559096" lon="9.212004739403312"><ele>795.3333333333333</ele><time>2026-03-28T09:20:11Z</time></trkpt><trkpt lat="44.844184489426105" lon="9.212008853982368"><ele>790.5</ele><time>2026-03-28T09:20:13Z</time></trkpt><trkpt lat="44.844117315028875" lon="9.212039693990455"><ele>785.6666666666667</ele><time>2026-03-28T09:20:14Z</time></trkpt><trkpt lat="44.84401467825698" lon="9.212051929603689"><ele>780.8333333333334</ele><time>2026-03-28T09:20:15Z</time></trkpt><trkpt lat="44.843910943791336" lon="9.212063099786532"><ele>776.0</ele><time>2026-03-28T09:20:16.999Z</time></trkpt><trkpt lat="44.8438305101455" lon="9.212046821875653"><ele>776.0</ele><time>2026-03-28T09:20:17.999Z</time></trkpt><trkpt lat="44.84371361513523" lon="9.211998683999742"><ele>776.0</ele><time>2026-03-28T09:20:18.999Z</time></trkpt><trkpt lat="44.84360756145879" lon="9.211944610482313"><ele>776.0</ele><time>2026-03-28T09:20:19.999Z</time></trkpt><trkpt lat="44.84350406533619" lon="9.21189603499406"><ele>776.0</ele><time>2026-03-28T09:20:20.999Z</time></trkpt><trkpt lat="44.84340126890338" lon="9.211842956416646"><ele>774.0</ele><time>2026-03-28T09:20:21.999Z</time></trkpt><trkpt lat="44.843308996780365" lon="9.211789183659752"><ele>772.0</ele><time>2026-03-28T09:20:22.999Z</time></trkpt><trkpt lat="44.84324346611182" lon="9.211753010554995"><ele>770.0</ele><time>2026-03-28T09:20:23.999Z</time></trkpt><trkpt lat="44.843176175415465" lon="9.211733340830987"><ele>768.0</ele><time>2026-03-28T09:20:24.999Z</time></trkpt><trkpt lat="44.843109690223436" lon="9.2117142745798"><ele>766.0</ele><time>2026-03-28T09:20:25.999Z</time></trkpt><trkpt lat="44.84304728552357" lon="9.211696582994387"><ele>764.0</ele><time>2026-03-28T09:20:26.999Z</time></trkpt><trkpt lat="44.842976561141285" lon="9.211695586183279"><ele>762.0</ele><time>2026-03-28T09:20:27.999Z</time></trkpt><trkpt lat="44.84286696603287" lon="9.21173219068898"><ele>762.0</ele><time>2026-03-28T09:20:29.999Z</time></trkpt><trkpt lat="44.84275180109462" lon="9.211791250722765"><ele>762.0</ele><time>2026-03-28T09:20:31.999Z</time></trkpt><trkpt lat="44.8426600277378" lon="9.211886987257207"><ele>762.0</ele><time>2026-03-28T09:20:33.999Z</time></trkpt><trkpt lat="44.84256277486598" lon="9.211999399394541"><ele>762.0</ele><time>2026-03-28T09:20:35.999Z</time></trkpt><trkpt lat="44.84239949851609" lon="9.212228067038355"><ele>765.2</ele><time>2026-03-28T09:20:37.999Z</time></trkpt><trkpt lat="44.842339161974415" lon="9.212347983742523"><ele>768.4000000000001</ele><time>2026-03-28T09:20:39.999Z</time></trkpt><trkpt lat="44.84225217940926" lon="9.212395812568694"><ele>771.5999999999999</ele><time>2026-03-28T09:20:41.999Z</time></trkpt><trkpt lat="44.84218970101831" lon="9.212432741181752"><ele>774.8</ele><time>2026-03-28T09:20:42.999Z</time></trkpt><trkpt lat="44.84206990075672" lon="9.212479434740805"><ele>778.0</ele><time>2026-03-28T09:20:44.999Z</time></trkpt><trkpt lat="44.84201169028046" lon="9.212533633820582"><ele>777.9999999999999</ele><time>2026-03-28T09:20:46.999Z</time></trkpt><trkpt lat="44.841934284713794" lon="9.212527860104295"><ele>778.0</ele><time>2026-03-28T09:20:49.999Z</time></trkpt><trkpt lat="44.841856136726484" lon="9.21253232510087"><ele>778.0</ele><time>2026-03-28T09:20:52.999Z</time></trkpt><trkpt lat="44.841786270651674" lon="9.212554855036462"><ele>778.0</ele><time>2026-03-28T09:20:54.999Z</time></trkpt><trkpt lat="44.84171783824237" lon="9.212629392614677"><ele>777.9999999999999</ele><time>2026-03-28T09:20:57.999Z</time></trkpt><trkpt lat="44.84165689067073" lon="9.212684908463366"><ele>778.0</ele><time>2026-03-28T09:20:59.999Z</time></trkpt><trkpt lat="44.841586805681736" lon="9.212767382327522"><ele>773.4285714285714</ele><time>2026-03-28T09:21:01.999Z</time></trkpt><trkpt lat="44.84156116533647" lon="9.212851926342323"><ele>768.8571428571428</ele><time>2026-03-28T09:21:03.999Z</time></trkpt><trkpt lat="44.84150650098333" lon="9.21296044066093"><ele>764.2857142857142</ele><time>2026-03-28T09:21:06.999Z</time></trkpt><trkpt lat="44.84145876352142" lon="9.213023270737395"><ele>759.7142857142858</ele><time>2026-03-28T09:21:09.999Z</time></trkpt><trkpt lat="44.84145199032917" lon="9.213119585600921"><ele>755.1428571428571</ele><time>2026-03-28T09:21:14Z</time></trkpt><trkpt lat="44.84147816430071" lon="9.213209336550326"><ele>750.5714285714286</ele><time>2026-03-28T09:21:15Z</time></trkpt><trkpt lat="44.84151066002365" lon="9.213308515829667"><ele>746.0</ele><time>2026-03-28T09:21:17Z</time></trkpt><trkpt lat="44.84157875813909" lon="9.213418860714347"><ele>746.0</ele><time>2026-03-28T09:21:19Z</time></trkpt><trkpt lat="44.84163964087439" lon="9.213513389969028"><ele>746.0</ele><time>2026-03-28T09:21:21Z</time></trkpt><trkpt lat="44.84168897518609" lon="9.213642669955744"><ele>746.0</ele><time>2026-03-28T09:21:23Z</time></trkpt><trkpt lat="44.841725726483496" lon="9.213734416832699"><ele>746.0</ele><time>2026-03-28T09:21:25Z</time></trkpt><trkpt lat="44.84177124798837" lon="9.213811292597104"><ele>746.0</ele><time>2026-03-28T09:21:26Z</time></trkpt><trkpt lat="44.84193104263402" lon="9.214044430899476"><ele>752.5999999999999</ele><time>2026-03-28T09:21:29Z</time></trkpt><trkpt lat="44.842000365222844" lon="9.214103901527235"><ele>759.2</ele><time>2026-03-28T09:21:30Z</time></trkpt><trkpt lat="44.84206241793334" lon="9.214154527935529"><ele>765.8</ele><time>2026-03-28T09:21:31Z</time></trkpt><trkpt lat="44.842178456715004" lon="9.214239142932534"><ele>772.4000000000001</ele><time>2026-03-28T09:21:33Z</time></trkpt><trkpt lat="44.8422675067364" lon="9.214338748074798"><ele>779.0</ele><time>2026-03-28T09:21:35Z</time></trkpt><trkpt lat="44.84233477622863" lon="9.214443801123036"><ele>779.0000000000001</ele><time>2026-03-28T09:21:37Z</time></trkpt><trkpt lat="44.84239258143542" lon="9.214495459365912"><ele>779.0</ele><time>2026-03-28T09:21:38Z</time></trkpt><trkpt lat="44.84245550125986" lon="9.214568891927506"><ele>779.0</ele><time>2026-03-28T09:21:40Z</time></trkpt><trkpt lat="44.84251115917805" lon="9.214618294116216"><ele>779.0</ele><time>2026-03-28T09:21:42Z</time></trkpt><trkpt lat="44.842599384421604" lon="9.214611884735307"><ele>779.0000000000001</ele><time>2026-03-28T09:21:45Z</time></trkpt><trkpt lat="44.84267842475725" lon="9.214551251634942"><ele>779.0</ele><time>2026-03-28T09:21:47Z</time></trkpt><trkpt lat="44.84278974776992" lon="9.214535740121137"><ele>790.0</ele><time>2026-03-28T09:21:50Z</time></trkpt><trkpt lat="44.84286882150602" lon="9.214501926210117"><ele>801.0</ele><time>2026-03-28T09:21:54Z</time></trkpt><trkpt lat="44.84294966765406" lon="9.214524721731014"><ele>812.0</ele><time>2026-03-28T09:21:57Z</time></trkpt><trkpt lat="44.843360203907686" lon="9.214657591686574"><ele>812.0000000000001</ele><time>2026-03-28T09:22:04Z</time></trkpt><trkpt lat="44.84342345676874" lon="9.21467024189951"><ele>812.0</ele><time>2026-03-28T09:22:06Z</time></trkpt><trkpt lat="44.843514363117166" lon="9.214732105164352"><ele>812.0</ele><time>2026-03-28T09:22:09Z</time></trkpt><trkpt lat="44.84359167957616" lon="9.21484126007847"><ele>812.0</ele><time>2026-03-28T09:22:11Z</time></trkpt><trkpt lat="44.84362803011546" lon="9.214922066786162"><ele>812.0000000000001</ele><time>2026-03-28T09:22:12Z</time></trkpt><trkpt lat="44.843674599019856" lon="9.21498523750763"><ele>812.0</ele><time>2026-03-28T09:22:13Z</time></trkpt><trkpt lat="44.84371600276581" lon="9.215053410442483"><ele>814.8</ele><time>2026-03-28T09:22:14Z</time></trkpt><trkpt lat="44.843801360494226" lon="9.21517915889188"><ele>817.6</ele><time>2026-03-28T09:22:17Z</time></trkpt><trkpt lat="44.84384176237992" lon="9.215252009961336"><ele>820.4</ele><time>2026-03-28T09:22:18Z</time></trkpt><trkpt lat="44.84389214169615" lon="9.215341718352906"><ele>823.1999999999999</ele><time>2026-03-28T09:22:19Z</time></trkpt><trkpt lat="44.84394922606897" lon="9.215516546917911"><ele>826.0</ele><time>2026-03-28T09:22:21Z</time></trkpt><trkpt lat="44.843994708140926" lon="9.215719254353157"><ele>825.9999999999999</ele><time>2026-03-28T09:22:22Z</time></trkpt><trkpt lat="44.84400783221896" lon="9.215808690518523"><ele>826.0</ele><time>2026-03-28T09:22:23Z</time></trkpt><trkpt lat="44.84402358290025" lon="9.215910396089933"><ele>826.0</ele><time>2026-03-28T09:22:24Z</time></trkpt><trkpt lat="44.84403286011121" lon="9.216044634149705"><ele>826.0</ele><time>2026-03-28T09:22:25Z</time></trkpt><trkpt lat="44.84405165435932" lon="9.216181152823191"><ele>825.9999999999999</ele><time>2026-03-28T09:22:25.999Z</time></trkpt><trkpt lat="44.844083409499774" lon="9.216303262377812"><ele>826.0</ele><time>2026-03-28T09:22:26.999Z</time></trkpt><trkpt lat="44.84412137158397" lon="9.21639727592055"><ele>826.1666666666666</ele><time>2026-03-28T09:22:27.999Z</time></trkpt><trkpt lat="44.84411937311055" lon="9.216488255641387"><ele>826.3333333333333</ele><time>2026-03-28T09:22:28.999Z</time></trkpt><trkpt lat="44.844150171794624" lon="9.216598855958905"><ele>826.5</ele><time>2026-03-28T09:22:29.999Z</time></trkpt><trkpt lat="44.84418622668842" lon="9.216742316354246"><ele>826.6666666666667</ele><time>2026-03-28T09:22:31.999Z</time></trkpt><trkpt lat="44.844271668900205" lon="9.216832924615149"><ele>826.8333333333334</ele><time>2026-03-28T09:22:33.999Z</time></trkpt><trkpt lat="44.84433740453806" lon="9.21690755700429"><ele>827.0</ele><time>2026-03-28T09:22:35.999Z</time></trkpt><trkpt lat="44.844427634423774" lon="9.216940249620674"><ele>833.0</ele><time>2026-03-28T09:22:37.999Z</time></trkpt><trkpt lat="44.844538579010454" lon="9.216947614470861"><ele>839.0</ele><time>2026-03-28T09:22:39.999Z</time></trkpt><trkpt lat="44.84461219032006" lon="9.216890367273077"><ele>845.0</ele><time>2026-03-28T09:22:41.999Z</time></trkpt><trkpt lat="44.84472153788793" lon="9.216925375076011"><ele>851.0</ele><time>2026-03-28T09:22:43.999Z</time></trkpt><trkpt lat="44.84482130064819" lon="9.217039194322513"><ele>857.0</ele><time>2026-03-28T09:22:45.999Z</time></trkpt><trkpt lat="44.844884360509724" lon="9.21712046633217"><ele>857.0</ele><time>2026-03-28T09:22:47.999Z</time></trkpt><trkpt lat="44.84494910218734" lon="9.217206784759442"><ele>857.0</ele><time>2026-03-28T09:22:51.999Z</time></trkpt><trkpt lat="44.84498617070094" lon="9.217282616942096"><ele>857.0</ele><time>2026-03-28T09:22:53.999Z</time></trkpt><trkpt lat="44.84507170405187" lon="9.217394652489846"><ele>857.0</ele><time>2026-03-28T09:22:56.999Z</time></trkpt><trkpt lat="44.84514314141355" lon="9.21746058708181"><ele>857.0</ele><time>2026-03-28T09:22:58.999Z</time></trkpt><trkpt lat="44.84527895058042" lon="9.217439892638538"><ele>857.0000000000001</ele><time>2026-03-28T09:23:00.999Z</time></trkpt><trkpt lat="44.845358623175564" lon="9.217364011797844"><ele>857.0</ele><time>2026-03-28T09:23:01.999Z</time></trkpt><trkpt lat="44.84543908170318" lon="9.217310441953188"><ele>857.0</ele><time>2026-03-28T09:23:02.999Z</time></trkpt><trkpt lat="44.845498276654396" lon="9.2172771285234"><ele>857.0</ele><time>2026-03-28T09:23:19Z</time></trkpt><trkpt lat="44.84549387881849" lon="9.217378919656676"><ele>857.0000000000001</ele><time>2026-03-28T09:23:23Z</time></trkpt><trkpt lat="44.845469884196355" lon="9.217485834950294"><ele>857.0</ele><time>2026-03-28T09:23:26Z</time></trkpt><trkpt lat="44.84544519308676" lon="9.217576275624074"><ele>857.0000000000001</ele><time>2026-03-28T09:23:28Z</time></trkpt><trkpt lat="44.845434878828414" lon="9.217688760425768"><ele>857.0</ele><time>2026-03-28T09:24:31.999Z</time></trkpt><trkpt lat="44.84540769532527" lon="9.217804745766422"><ele>857.0</ele><time>2026-03-28T09:24:34.999Z</time></trkpt><trkpt lat="44.84539699085058" lon="9.217914759841799"><ele>857.0</ele><time>2026-03-28T09:24:36.999Z</time></trkpt><trkpt lat="44.84536198228748" lon="9.218059061052426"><ele>857.0000000000001</ele><time>2026-03-28T09:24:38.999Z</time></trkpt><trkpt lat="44.84532714870062" lon="9.218164129924796"><ele>857.0</ele><time>2026-03-28T09:24:39.999Z</time></trkpt><trkpt lat="44.84527708681795" lon="9.218258361346248"><ele>856.5000000000001</ele><time>2026-03-28T09:24:40.999Z</time></trkpt><trkpt lat="44.845224684230324" lon="9.218371129132702"><ele>856.0</ele><time>2026-03-28T09:24:41.999Z</time></trkpt><trkpt lat="44.84516771651186" lon="9.218478439178064"><ele>855.5</ele><time>2026-03-28T09:24:42.999Z</time></trkpt><trkpt lat="44.84511849907328" lon="9.218549025075355"><ele>855.0</ele><time>2026-03-28T09:24:43.999Z</time></trkpt><trkpt lat="44.84511020380028" lon="9.218638923883004"><ele>854.5000000000001</ele><time>2026-03-28T09:24:44.999Z</time></trkpt><trkpt lat="44.845073933636996" lon="9.21876150654697"><ele>854.0</ele><time>2026-03-28T09:24:45.999Z</time></trkpt><trkpt lat="44.84501159437621" lon="9.218867780914902"><ele>856.0000000000001</ele><time>2026-03-28T09:24:46.999Z</time></trkpt><trkpt lat="44.84494397863809" lon="9.218977215219208"><ele>858.0</ele><time>2026-03-28T09:24:47.999Z</time></trkpt><trkpt lat="44.84490156650229" lon="9.219076317847552"><ele>860.0</ele><time>2026-03-28T09:24:48.999Z</time></trkpt><trkpt lat="44.844898434186675" lon="9.219187361676092"><ele>862.0</ele><time>2026-03-28T09:24:49.999Z</time></trkpt><trkpt lat="44.84488297215212" lon="9.219315479783132"><ele>864.0000000000001</ele><time>2026-03-28T09:24:50.999Z</time></trkpt><trkpt lat="44.84485980236554" lon="9.21943110933964"><ele>866.0</ele><time>2026-03-28T09:24:51.999Z</time></trkpt><trkpt lat="44.8448670148789" lon="9.21952210967925"><ele>866.8333333333334</ele><time>2026-03-28T09:24:52.999Z</time></trkpt><trkpt lat="44.84489022395431" lon="9.219620115536658"><ele>867.6666666666667</ele><time>2026-03-28T09:24:53.999Z</time></trkpt><trkpt lat="44.84492036944161" lon="9.219755939280077"><ele>868.5</ele><time>2026-03-28T09:24:54.999Z</time></trkpt><trkpt lat="44.84495343033012" lon="9.219892449719648"><ele>869.3333333333333</ele><time>2026-03-28T09:24:55.999Z</time></trkpt><trkpt lat="44.84498799472906" lon="9.219988019834338"><ele>870.1666666666666</ele><time>2026-03-28T09:24:56.999Z</time></trkpt><trkpt lat="44.845050460918934" lon="9.22006937609043"><ele>871.0</ele><time>2026-03-28T09:24:57.999Z</time></trkpt><trkpt lat="44.84510765764194" lon="9.220165591357102"><ele>869.8</ele><time>2026-03-28T09:24:58.999Z</time></trkpt><trkpt lat="44.84514595061407" lon="9.220264126720094"><ele>868.5999999999999</ele><time>2026-03-28T09:24:59.999Z</time></trkpt><trkpt lat="44.84519440349222" lon="9.220348779686503"><ele>867.4</ele><time>2026-03-28T09:25:00.999Z</time></trkpt><trkpt lat="44.84532610148821" lon="9.220370362703436"><ele>866.2</ele><time>2026-03-28T09:25:02.999Z</time></trkpt><trkpt lat="44.84542793062672" lon="9.220425240479756"><ele>865.0</ele><time>2026-03-28T09:25:04.999Z</time></trkpt><trkpt lat="44.84546089155835" lon="9.22059170446452"><ele>865.9999999999999</ele><time>2026-03-28T09:25:06.999Z</time></trkpt><trkpt lat="44.845482301917606" lon="9.220684047476675"><ele>867.0</ele><time>2026-03-28T09:25:07.999Z</time></trkpt><trkpt lat="44.84554949914609" lon="9.220769811289772"><ele>868.0</ele><time>2026-03-28T09:25:08.999Z</time></trkpt><trkpt lat="44.84563640112641" lon="9.220836172246349"><ele>869.0</ele><time>2026-03-28T09:25:09.999Z</time></trkpt><trkpt lat="44.84571555462413" lon="9.220889978835885"><ele>869.9999999999999</ele><time>2026-03-28T09:25:10.999Z</time></trkpt><trkpt lat="44.84578135066465" lon="9.220939425345655"><ele>871.0</ele><time>2026-03-28T09:25:11.999Z</time></trkpt><trkpt lat="44.845853363238035" lon="9.220987053970953"><ele>871.0</ele><time>2026-03-28T09:25:12.999Z</time></trkpt><trkpt lat="44.84594010183458" lon="9.221036675352972"><ele>870.9999999999999</ele><time>2026-03-28T09:25:13.999Z</time></trkpt><trkpt lat="44.84604144237959" lon="9.221075491812838"><ele>870.9999999999999</ele><time>2026-03-28T09:25:14.999Z</time></trkpt><trkpt lat="44.84615076521722" lon="9.221113489207971"><ele>871.0</ele><time>2026-03-28T09:25:15.999Z</time></trkpt><trkpt lat="44.84624821340422" lon="9.221142299789175"><ele>871.0</ele><time>2026-03-28T09:25:16.999Z</time></trkpt><trkpt lat="44.84632143813647" lon="9.22116456091337"><ele>870.0</ele><time>2026-03-28T09:25:17.999Z</time></trkpt><trkpt lat="44.84640493170096" lon="9.221198197427444"><ele>869.0</ele><time>2026-03-28T09:25:19.999Z</time></trkpt><trkpt lat="44.84657107060711" lon="9.221301545435187"><ele>868.0</ele><time>2026-03-28T09:25:25Z</time></trkpt><trkpt lat="44.84663824143148" lon="9.221289713632872"><ele>867.0</ele><time>2026-03-28T09:25:26Z</time></trkpt><trkpt lat="44.84675729564067" lon="9.221342245634188"><ele>865.6666666666666</ele><time>2026-03-28T09:25:27Z</time></trkpt><trkpt lat="44.84683334608606" lon="9.221425042438392"><ele>864.3333333333333</ele><time>2026-03-28T09:25:28Z</time></trkpt><trkpt lat="44.84689653632659" lon="9.221477679127975"><ele>863.0</ele><time>2026-03-28T09:25:29Z</time></trkpt><trkpt lat="44.84694905008058" lon="9.221565757916428"><ele>861.6666666666666</ele><time>2026-03-28T09:25:30Z</time></trkpt><trkpt lat="44.84699976915831" lon="9.221661868827834"><ele>860.3333333333333</ele><time>2026-03-28T09:25:31Z</time></trkpt><trkpt lat="44.847032691443225" lon="9.221747175195324"><ele>859.0</ele><time>2026-03-28T09:25:32Z</time></trkpt><trkpt lat="44.84706996672441" lon="9.221837389114018"><ele>858.9999999999999</ele><time>2026-03-28T09:25:33Z</time></trkpt><trkpt lat="44.84709597688001" lon="9.22193153146346"><ele>859.0</ele><time>2026-03-28T09:25:34Z</time></trkpt><trkpt lat="44.847123002605215" lon="9.222043574132105"><ele>859.0</ele><time>2026-03-28T09:25:35Z</time></trkpt><trkpt lat="44.84709558280998" lon="9.222137899380956"><ele>859.0</ele><time>2026-03-28T09:25:36Z</time></trkpt><trkpt lat="44.84707457213734" lon="9.222229255662064"><ele>858.9999999999999</ele><time>2026-03-28T09:25:37Z</time></trkpt><trkpt lat="44.847027764450985" lon="9.222343538722557"><ele>859.0</ele><time>2026-03-28T09:25:38Z</time></trkpt><trkpt lat="44.84699415621366" lon="9.222442523669947"><ele>858.1666666666666</ele><time>2026-03-28T09:25:39Z</time></trkpt><trkpt lat="44.84696316566305" lon="9.222552059990734"><ele>857.3333333333333</ele><time>2026-03-28T09:25:40Z</time></trkpt><trkpt lat="44.84693117636713" lon="9.222658064328135"><ele>856.5</ele><time>2026-03-28T09:25:41Z</time></trkpt><trkpt lat="44.84688136530506" lon="9.222750627847597"><ele>855.6666666666667</ele><time>2026-03-28T09:25:42Z</time></trkpt><trkpt lat="44.84682202624216" lon="9.222808635497703"><ele>854.8333333333334</ele><time>2026-03-28T09:25:43Z</time></trkpt><trkpt lat="44.84680662095649" lon="9.222904367644883"><ele>854.0</ele><time>2026-03-28T09:25:44Z</time></trkpt><trkpt lat="44.8467808839848" lon="9.223071700071827"><ele>853.1666666666667</ele><time>2026-03-28T09:25:46Z</time></trkpt><trkpt lat="44.84675137309545" lon="9.223187375193495"><ele>852.3333333333334</ele><time>2026-03-28T09:25:48Z</time></trkpt><trkpt lat="44.84672818028222" lon="9.223296289091271"><ele>851.5</ele><time>2026-03-28T09:25:50Z</time></trkpt><trkpt lat="44.846766898706434" lon="9.223366505375488"><ele>850.6666666666667</ele><time>2026-03-28T09:25:52Z</time></trkpt><trkpt lat="44.846782006012745" lon="9.223458267050251"><ele>849.8333333333334</ele><time>2026-03-28T09:25:54Z</time></trkpt><trkpt lat="44.8468217055773" lon="9.223551656380138"><ele>849.0</ele><time>2026-03-28T09:25:55Z</time></trkpt><trkpt lat="44.84679705339096" lon="9.223673005761471"><ele>849.0</ele><time>2026-03-28T09:25:57Z</time></trkpt><trkpt lat="44.84678297531741" lon="9.22380582433427"><ele>849.0</ele><time>2026-03-28T09:25:59Z</time></trkpt><trkpt lat="44.84673840729023" lon="9.22388878929449"><ele>849.0</ele><time>2026-03-28T09:26:00Z</time></trkpt><trkpt lat="44.84667291843019" lon="9.223952025342136"><ele>849.0</ele><time>2026-03-28T09:26:01Z</time></trkpt><trkpt lat="44.84660133171734" lon="9.224007431708873"><ele>849.0</ele><time>2026-03-28T09:26:02Z</time></trkpt><trkpt lat="44.846534140647954" lon="9.224071596404627"><ele>849.0</ele><time>2026-03-28T09:26:03Z</time></trkpt><trkpt lat="44.846485825875504" lon="9.224129098248767"><ele>845.6</ele><time>2026-03-28T09:26:04Z</time></trkpt><trkpt lat="44.84643370110455" lon="9.224238125129222"><ele>842.2</ele><time>2026-03-28T09:26:06Z</time></trkpt><trkpt lat="44.84639276170314" lon="9.22437901080122"><ele>838.8000000000001</ele><time>2026-03-28T09:26:08Z</time></trkpt><trkpt lat="44.84637664446542" lon="9.224474406568591"><ele>835.4000000000001</ele><time>2026-03-28T09:26:09Z</time></trkpt><trkpt lat="44.84625879682491" lon="9.224573598379354"><ele>832.0</ele><time>2026-03-28T09:26:11Z</time></trkpt><trkpt lat="44.846170725261594" lon="9.224664704814654"><ele>831.9999999999999</ele><time>2026-03-28T09:26:12Z</time></trkpt><trkpt lat="44.84609134587721" lon="9.22473455821221"><ele>832.0</ele><time>2026-03-28T09:26:13Z</time></trkpt><trkpt lat="44.846014766335784" lon="9.224753049055366"><ele>832.0</ele><time>2026-03-28T09:26:14Z</time></trkpt><trkpt lat="44.845937371794555" lon="9.224766001196134"><ele>832.0</ele><time>2026-03-28T09:26:15Z</time></trkpt><trkpt lat="44.84586460646955" lon="9.224772942417564"><ele>831.9999999999999</ele><time>2026-03-28T09:26:16Z</time></trkpt><trkpt lat="44.845799776694605" lon="9.224778800130023"><ele>832.0</ele><time>2026-03-28T09:26:17Z</time></trkpt><trkpt lat="44.8457244403322" lon="9.224821553632545"><ele>830.4000000000001</ele><time>2026-03-28T09:26:18Z</time></trkpt><trkpt lat="44.845644546561026" lon="9.224863263803345"><ele>828.8000000000001</ele><time>2026-03-28T09:26:19Z</time></trkpt><trkpt lat="44.845549228090505" lon="9.224932864834232"><ele>827.2</ele><time>2026-03-28T09:26:20Z</time></trkpt><trkpt lat="44.845460989670904" lon="9.225005663407456"><ele>825.6</ele><time>2026-03-28T09:26:21Z</time></trkpt><trkpt lat="44.84538484113436" lon="9.225060709005254"><ele>824.0</ele><time>2026-03-28T09:26:22Z</time></trkpt><trkpt lat="44.8453224250932" lon="9.225135402429315"><ele>824.0</ele><time>2026-03-28T09:26:23Z</time></trkpt><trkpt lat="44.84526995227802" lon="9.22524586481376"><ele>824.0</ele><time>2026-03-28T09:26:24Z</time></trkpt><trkpt lat="44.84520813682185" lon="9.225349588760219"><ele>824.0</ele><time>2026-03-28T09:26:25Z</time></trkpt><trkpt lat="44.84515549876013" lon="9.2254266699369"><ele>824.0</ele><time>2026-03-28T09:26:26Z</time></trkpt><trkpt lat="44.84510810207806" lon="9.225493613812219"><ele>824.0</ele><time>2026-03-28T09:26:27Z</time></trkpt><trkpt lat="44.845015020836215" lon="9.225605431694191"><ele>823.8000000000001</ele><time>2026-03-28T09:26:29Z</time></trkpt><trkpt lat="44.844993262268524" lon="9.225719900573518"><ele>823.6</ele><time>2026-03-28T09:26:30Z</time></trkpt><trkpt lat="44.84498342263794" lon="9.225890542570886"><ele>823.4</ele><time>2026-03-28T09:26:31Z</time></trkpt><trkpt lat="44.84498395950055" lon="9.226083988511675"><ele>823.2</ele><time>2026-03-28T09:26:32Z</time></trkpt><trkpt lat="44.844983173242504" lon="9.226229588939065"><ele>823.0</ele><time>2026-03-28T09:26:32.999Z</time></trkpt><trkpt lat="44.844981934207276" lon="9.226359401087057"><ele>824.0</ele><time>2026-03-28T09:26:33.999Z</time></trkpt><trkpt lat="44.844963112276055" lon="9.226500648222924"><ele>825.0</ele><time>2026-03-28T09:26:34.999Z</time></trkpt><trkpt lat="44.84495099051013" lon="9.2266602722364"><ele>826.0</ele><time>2026-03-28T09:26:35.999Z</time></trkpt><trkpt lat="44.84492673848567" lon="9.226805321864704"><ele>827.0</ele><time>2026-03-28T09:26:36.999Z</time></trkpt><trkpt lat="44.84491635134042" lon="9.226932932197299"><ele>828.0</ele><time>2026-03-28T09:26:37.999Z</time></trkpt><trkpt lat="44.84491508910062" lon="9.227059101312129"><ele>828.0</ele><time>2026-03-28T09:26:38.999Z</time></trkpt><trkpt lat="44.84490833902276" lon="9.227215308661457"><ele>828.0</ele><time>2026-03-28T09:26:39.999Z</time></trkpt><trkpt lat="44.84489747141533" lon="9.227356149104484"><ele>828.0</ele><time>2026-03-28T09:26:40.999Z</time></trkpt><trkpt lat="44.844891712598844" lon="9.22750630538189"><ele>828.0</ele><time>2026-03-28T09:26:41.999Z</time></trkpt><trkpt lat="44.8448886611457" lon="9.227644404630775"><ele>828.0</ele><time>2026-03-28T09:26:42.999Z</time></trkpt><trkpt lat="44.84487673575985" lon="9.227743864023498"><ele>828.3333333333334</ele><time>2026-03-28T09:26:43.999Z</time></trkpt><trkpt lat="44.84486411033749" lon="9.227842127348591"><ele>828.6666666666667</ele><time>2026-03-28T09:26:44.999Z</time></trkpt><trkpt lat="44.84483386966251" lon="9.227960265170143"><ele>829.0</ele><time>2026-03-28T09:26:45.999Z</time></trkpt><trkpt lat="44.84479940097293" lon="9.228065976213943"><ele>829.3333333333334</ele><time>2026-03-28T09:26:46.999Z</time></trkpt><trkpt lat="44.844759720919534" lon="9.228153060893385"><ele>829.6666666666667</ele><time>2026-03-28T09:26:47.999Z</time></trkpt><trkpt lat="44.844690289003736" lon="9.228213513513913"><ele>830.0</ele><time>2026-03-28T09:26:48.999Z</time></trkpt><trkpt lat="44.84460693830742" lon="9.228308837797574"><ele>829.0</ele><time>2026-03-28T09:26:49.999Z</time></trkpt><trkpt lat="44.84453203670482" lon="9.228418549210454"><ele>828.0</ele><time>2026-03-28T09:26:50.999Z</time></trkpt><trkpt lat="44.844447716724005" lon="9.22851537232649"><ele>827.0</ele><time>2026-03-28T09:26:51.999Z</time></trkpt><trkpt lat="44.84435596375005" lon="9.22862043205161"><ele>826.0</ele><time>2026-03-28T09:26:52.999Z</time></trkpt><trkpt lat="44.844274672504774" lon="9.228723149697126"><ele>825.0</ele><time>2026-03-28T09:26:53.999Z</time></trkpt><trkpt lat="44.84419763034064" lon="9.22880942224651"><ele>825.0</ele><time>2026-03-28T09:26:54.999Z</time></trkpt><trkpt lat="44.84411895204321" lon="9.228877319229866"><ele>825.0</ele><time>2026-03-28T09:26:55.999Z</time></trkpt><trkpt lat="44.844048738709695" lon="9.228940979432657"><ele>825.0</ele><time>2026-03-28T09:26:56.999Z</time></trkpt><trkpt lat="44.84398631523312" lon="9.229012897144976"><ele>825.0</ele><time>2026-03-28T09:26:57.999Z</time></trkpt><trkpt lat="44.8439491150854" lon="9.229099083264966"><ele>825.0</ele><time>2026-03-28T09:26:58.999Z</time></trkpt><trkpt lat="44.843938470112455" lon="9.229202799426973"><ele>825.0</ele><time>2026-03-28T09:26:59.999Z</time></trkpt><trkpt lat="44.84392875524261" lon="9.22931075514967"><ele>824.5</ele><time>2026-03-28T09:27:00.999Z</time></trkpt><trkpt lat="44.84392087073711" lon="9.22943068500089"><ele>824.0</ele><time>2026-03-28T09:27:01.999Z</time></trkpt><trkpt lat="44.843911936975424" lon="9.229551936317595"><ele>823.5</ele><time>2026-03-28T09:27:02.999Z</time></trkpt><trkpt lat="44.84393846846124" lon="9.22971989825834"><ele>823.0</ele><time>2026-03-28T09:27:04.999Z</time></trkpt><trkpt lat="44.84398422728933" lon="9.229822079425256"><ele>822.5</ele><time>2026-03-28T09:27:05.999Z</time></trkpt><trkpt lat="44.84400881020978" lon="9.22991100056264"><ele>822.0</ele><time>2026-03-28T09:27:06.999Z</time></trkpt><trkpt lat="44.84404210374585" lon="9.230064628967243"><ele>823.6</ele><time>2026-03-28T09:27:08.999Z</time></trkpt><trkpt lat="44.84404464410094" lon="9.230227642240555"><ele>825.2</ele><time>2026-03-28T09:27:10.999Z</time></trkpt><trkpt lat="44.84401420267206" lon="9.23034075911005"><ele>826.8</ele><time>2026-03-28T09:27:12.999Z</time></trkpt><trkpt lat="44.84392572717721" lon="9.230436979046393"><ele>828.4</ele><time>2026-03-28T09:27:14.999Z</time></trkpt><trkpt lat="44.84384074681394" lon="9.230564307696403"><ele>830.0</ele><time>2026-03-28T09:27:16.999Z</time></trkpt><trkpt lat="44.8437702354904" lon="9.230575066771257"><ele>830.0</ele><time>2026-03-28T09:27:17.999Z</time></trkpt><trkpt lat="44.84369325507493" lon="9.230570761715915"><ele>830.0</ele><time>2026-03-28T09:27:18.999Z</time></trkpt><trkpt lat="44.843613875320536" lon="9.230598536552323"><ele>830.0</ele><time>2026-03-28T09:27:19.999Z</time></trkpt><trkpt lat="44.84354201390029" lon="9.230695145851552"><ele>830.0</ele><time>2026-03-28T09:27:20.999Z</time></trkpt><trkpt lat="44.843452415500906" lon="9.23081119447381"><ele>830.0</ele><time>2026-03-28T09:27:21.999Z</time></trkpt><trkpt lat="44.84338066521075" lon="9.230922337362216"><ele>833.4</ele><time>2026-03-28T09:27:22.999Z</time></trkpt><trkpt lat="44.84329816733972" lon="9.231029579306643"><ele>836.8</ele><time>2026-03-28T09:27:23.999Z</time></trkpt><trkpt lat="44.84322429944034" lon="9.231128267356848"><ele>840.2</ele><time>2026-03-28T09:27:24.999Z</time></trkpt><trkpt lat="44.84315538305131" lon="9.231218284822535"><ele>843.6</ele><time>2026-03-28T09:27:25.999Z</time></trkpt><trkpt lat="44.84310428566926" lon="9.231294576320535"><ele>847.0</ele><time>2026-03-28T09:27:26.999Z</time></trkpt><trkpt lat="44.84305615239238" lon="9.231382093660176"><ele>847.0</ele><time>2026-03-28T09:27:27.999Z</time></trkpt><trkpt lat="44.84298395501729" lon="9.231466003427744"><ele>847.0</ele><time>2026-03-28T09:27:28.999Z</time></trkpt><trkpt lat="44.842922821974774" lon="9.231555102800497"><ele>847.0</ele><time>2026-03-28T09:27:29.999Z</time></trkpt><trkpt lat="44.84284285409145" lon="9.23166230250013"><ele>847.0</ele><time>2026-03-28T09:27:31Z</time></trkpt><trkpt lat="44.842737187891814" lon="9.231764318209786"><ele>847.0</ele><time>2026-03-28T09:27:33Z</time></trkpt><trkpt lat="44.8427206267138" lon="9.231873485886984"><ele>846.8</ele><time>2026-03-28T09:27:34Z</time></trkpt><trkpt lat="44.84266722439965" lon="9.232005697896657"><ele>846.6</ele><time>2026-03-28T09:27:36Z</time></trkpt><trkpt lat="44.84274903340966" lon="9.23188644324726"><ele>846.4</ele><time>2026-03-28T09:27:39Z</time></trkpt><trkpt lat="44.842827405401756" lon="9.231914466762227"><ele>846.1999999999999</ele><time>2026-03-28T09:27:40Z</time></trkpt><trkpt lat="44.842889866127315" lon="9.231967283013876"><ele>846.0</ele><time>2026-03-28T09:27:43Z</time></trkpt><trkpt lat="44.84302708114735" lon="9.23206336485564"><ele>846.0</ele><time>2026-03-28T09:27:44Z</time></trkpt><trkpt lat="44.84311235605197" lon="9.23212498955641"><ele>846.0</ele><time>2026-03-28T09:27:46Z</time></trkpt><trkpt lat="44.843185692366305" lon="9.232196355289954"><ele>846.0</ele><time>2026-03-28T09:27:48Z</time></trkpt><trkpt lat="44.84325453194976" lon="9.232296110709145"><ele>846.0</ele><time>2026-03-28T09:27:50Z</time></trkpt><trkpt lat="44.84329638334678" lon="9.232366720056312"><ele>846.0</ele><time>2026-03-28T09:27:51Z</time></trkpt><trkpt lat="44.843336945685635" lon="9.232434929156357"><ele>846.0</ele><time>2026-03-28T09:27:52Z</time></trkpt><trkpt lat="44.843383078796286" lon="9.232515593484315"><ele>847.5999999999999</ele><time>2026-03-28T09:27:53Z</time></trkpt><trkpt lat="44.84344847832135" lon="9.232636920793547"><ele>849.2</ele><time>2026-03-28T09:27:54Z</time></trkpt><trkpt lat="44.84350993449509" lon="9.232758153112743"><ele>850.8000000000001</ele><time>2026-03-28T09:27:55Z</time></trkpt><trkpt lat="44.84357184338072" lon="9.232893732322344"><ele>852.4000000000001</ele><time>2026-03-28T09:27:56Z</time></trkpt><trkpt lat="44.84362823526425" lon="9.233020696166696"><ele>854.0</ele><time>2026-03-28T09:27:57Z</time></trkpt><trkpt lat="44.8436736047874" lon="9.233106021080808"><ele>851.5</ele><time>2026-03-28T09:27:58Z</time></trkpt><trkpt lat="44.843725672672576" lon="9.233191099721152"><ele>849.0</ele><time>2026-03-28T09:27:59Z</time></trkpt><trkpt lat="44.84376839426191" lon="9.233274708242222"><ele>846.5</ele><time>2026-03-28T09:28:00Z</time></trkpt><trkpt lat="44.843880207240694" lon="9.233647322609288"><ele>844.0</ele><time>2026-03-28T09:28:01Z</time></trkpt><trkpt lat="44.84388964767185" lon="9.233737339904517"><ele>843.9999999999999</ele><time>2026-03-28T09:28:02Z</time></trkpt><trkpt lat="44.843868905351364" lon="9.233834436171117"><ele>844.0</ele><time>2026-03-28T09:28:04Z</time></trkpt><trkpt lat="44.84380583353474" lon="9.233834260583038"><ele>844.0</ele><time>2026-03-28T09:28:05Z</time></trkpt><trkpt lat="44.84375172965967" lon="9.233889857952477"><ele>844.0</ele><time>2026-03-28T09:28:12Z</time></trkpt><trkpt lat="44.84367571299883" lon="9.23387983989946"><ele>843.9999999999999</ele><time>2026-03-28T09:28:15Z</time></trkpt><trkpt lat="44.8436161221315" lon="9.233814343846666"><ele>844.0</ele><time>2026-03-28T09:28:16Z</time></trkpt><trkpt lat="44.84350543351119" lon="9.233747603019081"><ele>844.6666666666666</ele><time>2026-03-28T09:28:18Z</time></trkpt><trkpt lat="44.84343504888101" lon="9.233718600005268"><ele>845.3333333333333</ele><time>2026-03-28T09:28:19Z</time></trkpt><trkpt lat="44.843373739667314" lon="9.233668503988717"><ele>846.0</ele><time>2026-03-28T09:28:20Z</time></trkpt><trkpt lat="44.84331161646375" lon="9.233610780428348"><ele>846.6666666666667</ele><time>2026-03-28T09:28:21Z</time></trkpt><trkpt lat="44.84325828206404" lon="9.233557228957341"><ele>847.3333333333334</ele><time>2026-03-28T09:28:22Z</time></trkpt><trkpt lat="44.84316366554602" lon="9.233505208591911"><ele>848.0</ele><time>2026-03-28T09:28:23Z</time></trkpt><trkpt lat="44.84307225844014" lon="9.23345635158476"><ele>848.0</ele><time>2026-03-28T09:28:24Z</time></trkpt><trkpt lat="44.8429852432834" lon="9.233369193076443"><ele>848.0</ele><time>2026-03-28T09:28:25Z</time></trkpt><trkpt lat="44.842905945459215" lon="9.233305106089446"><ele>848.0</ele><time>2026-03-28T09:28:26Z</time></trkpt><trkpt lat="44.842817958604904" lon="9.233214354126034"><ele>848.0</ele><time>2026-03-28T09:28:27Z</time></trkpt><trkpt lat="44.84270707643289" lon="9.233162918304146"><ele>848.0</ele><time>2026-03-28T09:28:28Z</time></trkpt><trkpt lat="44.84261286066162" lon="9.233113337636428"><ele>849.2</ele><time>2026-03-28T09:28:29Z</time></trkpt><trkpt lat="44.84253650471291" lon="9.233074911271409"><ele>850.4</ele><time>2026-03-28T09:28:30Z</time></trkpt><trkpt lat="44.84241002359288" lon="9.23302596877191"><ele>851.6000000000001</ele><time>2026-03-28T09:28:32Z</time></trkpt><trkpt lat="44.842341469245454" lon="9.233138017027557"><ele>852.8000000000001</ele><time>2026-03-28T09:28:34Z</time></trkpt><trkpt lat="44.84232610787984" lon="9.233297121600733"><ele>854.0</ele><time>2026-03-28T09:28:35Z</time></trkpt><trkpt lat="44.84233229241998" lon="9.233453119120217"><ele>850.3333333333334</ele><time>2026-03-28T09:28:35.999Z</time></trkpt><trkpt lat="44.84233280147157" lon="9.233569621188414"><ele>846.6666666666667</ele><time>2026-03-28T09:28:36.999Z</time></trkpt><trkpt lat="44.842320737585496" lon="9.233687624572713"><ele>843.0</ele><time>2026-03-28T09:28:37.999Z</time></trkpt><trkpt lat="44.84229556091704" lon="9.233797362301132"><ele>839.3333333333333</ele><time>2026-03-28T09:28:38.999Z</time></trkpt><trkpt lat="44.84218775743477" lon="9.233834891008101"><ele>835.6666666666666</ele><time>2026-03-28T09:28:40.999Z</time></trkpt><trkpt lat="44.84210308874859" lon="9.23385098230323"><ele>832.0</ele><time>2026-03-28T09:28:41.999Z</time></trkpt><trkpt lat="44.84200293723299" lon="9.23387741027046"><ele>831.9999999999999</ele><time>2026-03-28T09:28:42.999Z</time></trkpt><trkpt lat="44.84189361397558" lon="9.23390591147402"><ele>832.0</ele><time>2026-03-28T09:28:43.999Z</time></trkpt><trkpt lat="44.841822728085404" lon="9.233905414551053"><ele>832.0</ele><time>2026-03-28T09:28:44.999Z</time></trkpt><trkpt lat="44.84174870697434" lon="9.233877513654589"><ele>832.0</ele><time>2026-03-28T09:28:45.999Z</time></trkpt><trkpt lat="44.841690514941895" lon="9.233826305659289"><ele>831.9999999999999</ele><time>2026-03-28T09:28:46.999Z</time></trkpt><trkpt lat="44.841596389801055" lon="9.233806628461139"><ele>832.0</ele><time>2026-03-28T09:28:48.999Z</time></trkpt><trkpt lat="44.84156563886265" lon="9.233898007062129"><ele>828.4000000000001</ele><time>2026-03-28T09:28:50.999Z</time></trkpt><trkpt lat="44.84162367869729" lon="9.23404246151881"><ele>824.8000000000001</ele><time>2026-03-28T09:28:53.999Z</time></trkpt><trkpt lat="44.84170508482348" lon="9.234130229393312"><ele>821.2</ele><time>2026-03-28T09:28:54.999Z</time></trkpt><trkpt lat="44.84177680172487" lon="9.234196731098695"><ele>817.6</ele><time>2026-03-28T09:28:55.999Z</time></trkpt><trkpt lat="44.841861464420454" lon="9.234150349309548"><ele>814.0</ele><time>2026-03-28T09:28:56.999Z</time></trkpt><trkpt lat="44.84198077578828" lon="9.234186057555622"><ele>813.1666666666666</ele><time>2026-03-28T09:28:58.999Z</time></trkpt><trkpt lat="44.84204502905468" lon="9.234205601516548"><ele>812.3333333333333</ele><time>2026-03-28T09:28:59.999Z</time></trkpt><trkpt lat="44.842176729668346" lon="9.234246654516966"><ele>811.5</ele><time>2026-03-28T09:29:01.999Z</time></trkpt><trkpt lat="44.84224634496027" lon="9.234274166481718"><ele>810.6666666666667</ele><time>2026-03-28T09:29:02.999Z</time></trkpt><trkpt lat="44.84231795641519" lon="9.234311125111525"><ele>809.8333333333334</ele><time>2026-03-28T09:29:03.999Z</time></trkpt><trkpt lat="44.84239062334395" lon="9.234393385362425"><ele>809.0</ele><time>2026-03-28T09:29:05.999Z</time></trkpt><trkpt lat="44.84235667131822" lon="9.23452681895831"><ele>809.0</ele><time>2026-03-28T09:29:07.999Z</time></trkpt><trkpt lat="44.84221541825505" lon="9.234530855588288"><ele>809.0</ele><time>2026-03-28T09:29:09.999Z</time></trkpt><trkpt lat="44.84215013492517" lon="9.234560418343623"><ele>809.0</ele><time>2026-03-28T09:29:10.999Z</time></trkpt><trkpt lat="44.8420725484991" lon="9.234523524150568"><ele>809.0</ele><time>2026-03-28T09:29:11.999Z</time></trkpt><trkpt lat="44.84198034225621" lon="9.234574233516721"><ele>809.0</ele><time>2026-03-28T09:29:13.999Z</time></trkpt><trkpt lat="44.84196068355877" lon="9.234756156713532"><ele>805.5000000000001</ele><time>2026-03-28T09:29:16.999Z</time></trkpt><trkpt lat="44.84204198813964" lon="9.234820663337215"><ele>802.0</ele><time>2026-03-28T09:29:17.999Z</time></trkpt><trkpt lat="44.84213276237379" lon="9.234884127923982"><ele>798.5</ele><time>2026-03-28T09:29:18.999Z</time></trkpt><trkpt lat="44.84220151321787" lon="9.23495946040859"><ele>795.0</ele><time>2026-03-28T09:29:19.999Z</time></trkpt><trkpt lat="44.84225123998595" lon="9.235037473920828"><ele>791.5000000000001</ele><time>2026-03-28T09:29:20.999Z</time></trkpt><trkpt lat="44.84227359165986" lon="9.235127977341195"><ele>788.0</ele><time>2026-03-28T09:29:21.999Z</time></trkpt><trkpt lat="44.842225595735535" lon="9.235265812629596"><ele>788.0</ele><time>2026-03-28T09:29:23.999Z</time></trkpt><trkpt lat="44.842082225312716" lon="9.235218206900312"><ele>788.0</ele><time>2026-03-28T09:29:24.999Z</time></trkpt><trkpt lat="44.84197055224921" lon="9.23526247690058"><ele>788.0</ele><time>2026-03-28T09:29:25.999Z</time></trkpt><trkpt lat="44.841871124717265" lon="9.235299881993114"><ele>788.0</ele><time>2026-03-28T09:29:26.999Z</time></trkpt><trkpt lat="44.841779417825414" lon="9.23533529284883"><ele>791.0</ele><time>2026-03-28T09:29:27.999Z</time></trkpt><trkpt lat="44.84169139990843" lon="9.235372342737461"><ele>794.0</ele><time>2026-03-28T09:29:28.999Z</time></trkpt><trkpt lat="44.8416027179897" lon="9.235415732250443"><ele>797.0</ele><time>2026-03-28T09:29:29.999Z</time></trkpt><trkpt lat="44.84151802938347" lon="9.235469424170667"><ele>800.0</ele><time>2026-03-28T09:29:30.999Z</time></trkpt><trkpt lat="44.84143847920856" lon="9.23553950115113"><ele>803.0</ele><time>2026-03-28T09:29:31.999Z</time></trkpt><trkpt lat="44.841356798300794" lon="9.235629134913308"><ele>795.8</ele><time>2026-03-28T09:29:32.999Z</time></trkpt><trkpt lat="44.841286236945216" lon="9.235717986726732"><ele>788.5999999999999</ele><time>2026-03-28T09:29:33.999Z</time></trkpt><trkpt lat="44.841225592955524" lon="9.235786185717199"><ele>781.4000000000001</ele><time>2026-03-28T09:29:34.999Z</time></trkpt><trkpt lat="44.8411429437126" lon="9.235863106467885"><ele>774.2</ele><time>2026-03-28T09:29:36Z</time></trkpt><trkpt lat="44.841060668552" lon="9.235931906808643"><ele>767.0</ele><time>2026-03-28T09:29:37Z</time></trkpt><trkpt lat="44.840992503696064" lon="9.236007612533259"><ele>768.5</ele><time>2026-03-28T09:29:38Z</time></trkpt><trkpt lat="44.840932204318634" lon="9.236097795361763"><ele>770.0</ele><time>2026-03-28T09:29:39Z</time></trkpt><trkpt lat="44.84088008479287" lon="9.236161170539624"><ele>771.5</ele><time>2026-03-28T09:29:40Z</time></trkpt><trkpt lat="44.840838460402516" lon="9.236234297682607"><ele>773.0</ele><time>2026-03-28T09:29:41Z</time></trkpt><trkpt lat="44.84075912175816" lon="9.236283941981696"><ele>774.5000000000001</ele><time>2026-03-28T09:29:43Z</time></trkpt><trkpt lat="44.840698493215235" lon="9.23632452560017"><ele>776.0</ele><time>2026-03-28T09:29:47Z</time></trkpt><trkpt lat="44.84076561793587" lon="9.236435559892792"><ele>776.0</ele><time>2026-03-28T09:29:48Z</time></trkpt><trkpt lat="44.840831518829596" lon="9.23643632083035"><ele>776.0</ele><time>2026-03-28T09:29:49Z</time></trkpt><trkpt lat="44.840966378532194" lon="9.236362280394202"><ele>776.0</ele><time>2026-03-28T09:29:51Z</time></trkpt><trkpt lat="44.84103724800447" lon="9.236387523180857"><ele>776.0</ele><time>2026-03-28T09:29:53Z</time></trkpt><trkpt lat="44.84100345461928" lon="9.236557492004406"><ele>776.0</ele><time>2026-03-28T09:29:55Z</time></trkpt><trkpt lat="44.84091863300579" lon="9.236552422294823"><ele>771.8</ele><time>2026-03-28T09:29:56Z</time></trkpt><trkpt lat="44.84086737909861" lon="9.23663641318343"><ele>767.5999999999999</ele><time>2026-03-28T09:29:57Z</time></trkpt><trkpt lat="44.840807765723476" lon="9.236737036397813"><ele>763.4</ele><time>2026-03-28T09:29:58Z</time></trkpt><trkpt lat="44.84074998046768" lon="9.236839599078934"><ele>759.2</ele><time>2026-03-28T09:29:59Z</time></trkpt><trkpt lat="44.840705577841774" lon="9.23692420049046"><ele>755.0</ele><time>2026-03-28T09:30:00Z</time></trkpt><trkpt lat="44.84061749839836" lon="9.237026788557566"><ele>755.0</ele><time>2026-03-28T09:30:02Z</time></trkpt><trkpt lat="44.84056244483938" lon="9.237072570531609"><ele>755.0</ele><time>2026-03-28T09:30:03Z</time></trkpt><trkpt lat="44.84049117235765" lon="9.237135520215636"><ele>755.0</ele><time>2026-03-28T09:30:04Z</time></trkpt><trkpt lat="44.84042639998265" lon="9.23720271582617"><ele>755.0</ele><time>2026-03-28T09:30:05Z</time></trkpt><trkpt lat="44.84036992729991" lon="9.237283267664496"><ele>755.0</ele><time>2026-03-28T09:30:06Z</time></trkpt><trkpt lat="44.840316634600924" lon="9.237361490048174"><ele>755.0</ele><time>2026-03-28T09:30:07Z</time></trkpt><trkpt lat="44.84026532064469" lon="9.237449219161366"><ele>753.8571428571428</ele><time>2026-03-28T09:30:08Z</time></trkpt><trkpt lat="44.840221607831204" lon="9.237522430109642"><ele>752.7142857142858</ele><time>2026-03-28T09:30:09Z</time></trkpt><trkpt lat="44.84017886739634" lon="9.237602243684275"><ele>751.5714285714286</ele><time>2026-03-28T09:30:10Z</time></trkpt><trkpt lat="44.840146740733964" lon="9.237683486895344"><ele>750.4285714285713</ele><time>2026-03-28T09:30:11Z</time></trkpt><trkpt lat="44.84012469306511" lon="9.237780289019017"><ele>749.2857142857142</ele><time>2026-03-28T09:30:12Z</time></trkpt><trkpt lat="44.840093429900946" lon="9.23787109336218"><ele>748.1428571428571</ele><time>2026-03-28T09:30:13Z</time></trkpt><trkpt lat="44.84006869378025" lon="9.237965237932576"><ele>747.0</ele><time>2026-03-28T09:30:14Z</time></trkpt><trkpt lat="44.84004088890759" lon="9.23805870434108"><ele>746.3333333333334</ele><time>2026-03-28T09:30:15Z</time></trkpt><trkpt lat="44.840016705474724" lon="9.23815138296801"><ele>745.6666666666666</ele><time>2026-03-28T09:30:16Z</time></trkpt><trkpt lat="44.839993878914555" lon="9.238241633135512"><ele>745.0</ele><time>2026-03-28T09:30:17Z</time></trkpt><trkpt lat="44.839966416341746" lon="9.23833544591633"><ele>744.3333333333333</ele><time>2026-03-28T09:30:18Z</time></trkpt><trkpt lat="44.83993455609552" lon="9.238435096238758"><ele>743.6666666666666</ele><time>2026-03-28T09:30:19Z</time></trkpt><trkpt lat="44.83990476159745" lon="9.238545706536273"><ele>743.0</ele><time>2026-03-28T09:30:20Z</time></trkpt><trkpt lat="44.839876019908665" lon="9.238657412519002"><ele>743.0</ele><time>2026-03-28T09:30:21Z</time></trkpt><trkpt lat="44.8398401801984" lon="9.238767985055219"><ele>743.0</ele><time>2026-03-28T09:30:22Z</time></trkpt><trkpt lat="44.83980855166476" lon="9.238876231926335"><ele>743.0</ele><time>2026-03-28T09:30:23Z</time></trkpt><trkpt lat="44.83976711984267" lon="9.23897116312826"><ele>743.0</ele><time>2026-03-28T09:30:24Z</time></trkpt><trkpt lat="44.839740886247256" lon="9.239060128738101"><ele>743.0</ele><time>2026-03-28T09:30:25Z</time></trkpt><trkpt lat="44.83971345133833" lon="9.239148190378549"><ele>743.0</ele><time>2026-03-28T09:30:26Z</time></trkpt><trkpt lat="44.83968654871704" lon="9.23923102786076"><ele>743.0</ele><time>2026-03-28T09:30:27Z</time></trkpt><trkpt lat="44.83965926484099" lon="9.239314258148884"><ele>742.8333333333333</ele><time>2026-03-28T09:30:28Z</time></trkpt><trkpt lat="44.83963042367126" lon="9.239402240049898"><ele>742.6666666666666</ele><time>2026-03-28T09:30:29Z</time></trkpt><trkpt lat="44.83959879840582" lon="9.239493592578771"><ele>742.5</ele><time>2026-03-28T09:30:30Z</time></trkpt><trkpt lat="44.83956541420694" lon="9.23958991744304"><ele>742.3333333333334</ele><time>2026-03-28T09:30:31Z</time></trkpt><trkpt lat="44.83953041249455" lon="9.239690909398819"><ele>742.1666666666667</ele><time>2026-03-28T09:30:32Z</time></trkpt><trkpt lat="44.83949418696691" lon="9.239789112747998"><ele>742.0</ele><time>2026-03-28T09:30:33Z</time></trkpt><trkpt lat="44.83945609324446" lon="9.23988746008942"><ele>741.1666666666667</ele><time>2026-03-28T09:30:34Z</time></trkpt><trkpt lat="44.83941403171672" lon="9.23997779685012"><ele>740.3333333333334</ele><time>2026-03-28T09:30:35Z</time></trkpt><trkpt lat="44.839365783135776" lon="9.240076196622923"><ele>739.5</ele><time>2026-03-28T09:30:36Z</time></trkpt><trkpt lat="44.83931787327567" lon="9.240174536179325"><ele>738.6666666666666</ele><time>2026-03-28T09:30:37Z</time></trkpt><trkpt lat="44.83927158633484" lon="9.240269544576506"><ele>737.8333333333333</ele><time>2026-03-28T09:30:38Z</time></trkpt><trkpt lat="44.83922534659477" lon="9.240357053294836"><ele>737.0</ele><time>2026-03-28T09:30:39Z</time></trkpt><trkpt lat="44.839179101194816" lon="9.24044045910533"><ele>737.0000000000001</ele><time>2026-03-28T09:30:40Z</time></trkpt><trkpt lat="44.839130487069205" lon="9.240514573875263"><ele>737.0</ele><time>2026-03-28T09:30:41Z</time></trkpt><trkpt lat="44.83908002317946" lon="9.240578538871821"><ele>737.0</ele><time>2026-03-28T09:30:42Z</time></trkpt><trkpt lat="44.83902486932696" lon="9.240634689593259"><ele>737.0</ele><time>2026-03-28T09:30:43Z</time></trkpt><trkpt lat="44.838959777869206" lon="9.240691351079729"><ele>737.0</ele><time>2026-03-28T09:30:44Z</time></trkpt><trkpt lat="44.8388930593923" lon="9.240740375131082"><ele>737.0000000000001</ele><time>2026-03-28T09:30:45Z</time></trkpt><trkpt lat="44.838826370518156" lon="9.240787953927633"><ele>737.0</ele><time>2026-03-28T09:30:46Z</time></trkpt><trkpt lat="44.83875775975166" lon="9.24083496286847"><ele>736.1666666666666</ele><time>2026-03-28T09:30:47Z</time></trkpt><trkpt lat="44.83868599321027" lon="9.240884134004332"><ele>735.3333333333333</ele><time>2026-03-28T09:30:48Z</time></trkpt><trkpt lat="44.8386120493569" lon="9.240934796900287"><ele>734.5</ele><time>2026-03-28T09:30:48.999Z</time></trkpt><trkpt lat="44.83853467888405" lon="9.240988137150607"><ele>733.6666666666666</ele><time>2026-03-28T09:30:49.999Z</time></trkpt><trkpt lat="44.83845878066911" lon="9.241041091241943"><ele>732.8333333333334</ele><time>2026-03-28T09:30:50.999Z</time></trkpt><trkpt lat="44.83839165334956" lon="9.241110538616685"><ele>732.0</ele><time>2026-03-28T09:30:51.999Z</time></trkpt><trkpt lat="44.838304630696086" lon="9.241155824068313"><ele>732.0</ele><time>2026-03-28T09:30:52.999Z</time></trkpt><trkpt lat="44.83823237422174" lon="9.241212931818247"><ele>732.0</ele><time>2026-03-28T09:30:53.999Z</time></trkpt><trkpt lat="44.83816955574431" lon="9.241281083816894"><ele>732.0</ele><time>2026-03-28T09:30:54.999Z</time></trkpt><trkpt lat="44.83810541114623" lon="9.241329091821317"><ele>732.0</ele><time>2026-03-28T09:30:55.999Z</time></trkpt><trkpt lat="44.83804434224832" lon="9.24138471605742"><ele>732.0</ele><time>2026-03-28T09:30:56.999Z</time></trkpt><trkpt lat="44.83800822795202" lon="9.241462520767088"><ele>732.0</ele><time>2026-03-28T09:30:57.999Z</time></trkpt><trkpt lat="44.83795356437706" lon="9.241538092653782"><ele>730.25</ele><time>2026-03-28T09:30:59.999Z</time></trkpt><trkpt lat="44.83783456763315" lon="9.241725635643093"><ele>728.5</ele><time>2026-03-28T09:31:09.999Z</time></trkpt><trkpt lat="44.83779134217104" lon="9.241832087154807"><ele>726.75</ele><time>2026-03-28T09:31:10.999Z</time></trkpt><trkpt lat="44.837737634651354" lon="9.24191776147732"><ele>725.0</ele><time>2026-03-28T09:31:11.999Z</time></trkpt><trkpt lat="44.83766961312625" lon="9.242031526202085"><ele>725.5</ele><time>2026-03-28T09:31:12.999Z</time></trkpt><trkpt lat="44.837606175390825" lon="9.242138566087913"><ele>726.0</ele><time>2026-03-28T09:31:13.999Z</time></trkpt><trkpt lat="44.837557119838586" lon="9.242222686326835"><ele>726.5</ele><time>2026-03-28T09:31:14.999Z</time></trkpt><trkpt lat="44.83751049830232" lon="9.242302538218336"><ele>727.0</ele><time>2026-03-28T09:31:15.999Z</time></trkpt><trkpt lat="44.83746048914167" lon="9.242388192233163"><ele>727.5</ele><time>2026-03-28T09:31:16.999Z</time></trkpt><trkpt lat="44.83740273332372" lon="9.242489470036968"><ele>728.0</ele><time>2026-03-28T09:31:17.999Z</time></trkpt><trkpt lat="44.83734952833851" lon="9.242588258360867"><ele>728.2857142857143</ele><time>2026-03-28T09:31:18.999Z</time></trkpt><trkpt lat="44.837301822007745" lon="9.242676836950858"><ele>728.5714285714286</ele><time>2026-03-28T09:31:19.999Z</time></trkpt><trkpt lat="44.837259563658705" lon="9.24275527423763"><ele>728.8571428571429</ele><time>2026-03-28T09:31:20.999Z</time></trkpt><trkpt lat="44.837214007067374" lon="9.242833459637469"><ele>729.1428571428571</ele><time>2026-03-28T09:31:21.999Z</time></trkpt><trkpt lat="44.83716596507971" lon="9.242911745705255"><ele>729.4285714285714</ele><time>2026-03-28T09:31:22.999Z</time></trkpt><trkpt lat="44.83711390172594" lon="9.24298868145707"><ele>729.7142857142858</ele><time>2026-03-28T09:31:23.999Z</time></trkpt><trkpt lat="44.8370610399843" lon="9.2430566577589"><ele>730.0</ele><time>2026-03-28T09:31:24.999Z</time></trkpt><trkpt lat="44.83700787799624" lon="9.243113279783012"><ele>730.5</ele><time>2026-03-28T09:31:25.999Z</time></trkpt><trkpt lat="44.83693839602186" lon="9.243150148117431"><ele>731.0</ele><time>2026-03-28T09:31:26.999Z</time></trkpt><trkpt lat="44.83686615502261" lon="9.24316077715612"><ele>731.5</ele><time>2026-03-28T09:31:27.999Z</time></trkpt><trkpt lat="44.83677530734741" lon="9.243164277947761"><ele>732.0</ele><time>2026-03-28T09:31:28.999Z</time></trkpt><trkpt lat="44.83667568416459" lon="9.243159643492183"><ele>732.5</ele><time>2026-03-28T09:31:29.999Z</time></trkpt><trkpt lat="44.836566841694435" lon="9.243159001562539"><ele>733.0</ele><time>2026-03-28T09:31:30.999Z</time></trkpt><trkpt lat="44.83647504776794" lon="9.243175166757563"><ele>733.0</ele><time>2026-03-28T09:31:31.999Z</time></trkpt><trkpt lat="44.836405828757286" lon="9.243197800811842"><ele>733.0</ele><time>2026-03-28T09:31:32.999Z</time></trkpt><trkpt lat="44.83631725043642" lon="9.243272002248855"><ele>733.0</ele><time>2026-03-28T09:31:33.999Z</time></trkpt><trkpt lat="44.83625729963494" lon="9.243386526006761"><ele>733.0</ele><time>2026-03-28T09:31:34.999Z</time></trkpt><trkpt lat="44.83619098528049" lon="9.243500619349554"><ele>733.0</ele><time>2026-03-28T09:31:35.999Z</time></trkpt><trkpt lat="44.83613217142853" lon="9.243601778150781"><ele>733.0</ele><time>2026-03-28T09:31:36.999Z</time></trkpt><trkpt lat="44.83607118179974" lon="9.243706679077846"><ele>733.0</ele><time>2026-03-28T09:31:37.999Z</time></trkpt><trkpt lat="44.83601073171076" lon="9.243811916153668"><ele>733.0</ele><time>2026-03-28T09:31:38.999Z</time></trkpt><trkpt lat="44.835953689917346" lon="9.243912799914238"><ele>733.0</ele><time>2026-03-28T09:31:39.999Z</time></trkpt><trkpt lat="44.83590111131377" lon="9.244019776365061"><ele>733.0</ele><time>2026-03-28T09:31:40.999Z</time></trkpt><trkpt lat="44.835864741999934" lon="9.244138650248367"><ele>734.0</ele><time>2026-03-28T09:31:42.001Z</time></trkpt><trkpt lat="44.83584156464232" lon="9.244255439966413"><ele>735.0</ele><time>2026-03-28T09:31:43.001Z</time></trkpt><trkpt lat="44.83582440469019" lon="9.244357278996581"><ele>736.0</ele><time>2026-03-28T09:31:44.001Z</time></trkpt><trkpt lat="44.83581086253392" lon="9.244453706022266"><ele>737.0</ele><time>2026-03-28T09:31:45.001Z</time></trkpt><trkpt lat="44.83579609386114" lon="9.244556880403275"><ele>738.0</ele><time>2026-03-28T09:31:46.001Z</time></trkpt><trkpt lat="44.83578065309283" lon="9.244657939084695"><ele>739.0</ele><time>2026-03-28T09:31:47.001Z</time></trkpt><trkpt lat="44.83592191415455" lon="9.244789769549186"><ele>736.8333333333334</ele><time>2026-03-28T09:31:48.001Z</time></trkpt><trkpt lat="44.83598829027129" lon="9.244880620478186"><ele>734.6666666666667</ele><time>2026-03-28T09:31:49.001Z</time></trkpt><trkpt lat="44.83605499923302" lon="9.244955203964695"><ele>732.5</ele><time>2026-03-28T09:31:50.001Z</time></trkpt><trkpt lat="44.8361195423844" lon="9.245039565133123"><ele>730.3333333333334</ele><time>2026-03-28T09:31:51.001Z</time></trkpt><trkpt lat="44.83617451291981" lon="9.24513983078029"><ele>728.1666666666666</ele><time>2026-03-28T09:31:52.001Z</time></trkpt><trkpt lat="44.83620621718664" lon="9.245259234695485"><ele>726.0</ele><time>2026-03-28T09:31:53.001Z</time></trkpt><trkpt lat="44.83620947123284" lon="9.24539478499954"><ele>726.0</ele><time>2026-03-28T09:31:54.001Z</time></trkpt><trkpt lat="44.83616598477501" lon="9.245530778736898"><ele>726.0</ele><time>2026-03-28T09:31:55.001Z</time></trkpt><trkpt lat="44.83612723638549" lon="9.245671286350696"><ele>726.0</ele><time>2026-03-28T09:31:56.001Z</time></trkpt><trkpt lat="44.83608877129971" lon="9.245820173504885"><ele>726.0</ele><time>2026-03-28T09:31:57.001Z</time></trkpt><trkpt lat="44.83606179549448" lon="9.245977785272833"><ele>726.0</ele><time>2026-03-28T09:31:58Z</time></trkpt><trkpt lat="44.83605195462629" lon="9.246141893718589"><ele>726.0</ele><time>2026-03-28T09:31:59Z</time></trkpt><trkpt lat="44.83605279801287" lon="9.246311545832574"><ele>726.0</ele><time>2026-03-28T09:32:00Z</time></trkpt><trkpt lat="44.83607655298728" lon="9.24646698648883"><ele>726.0</ele><time>2026-03-28T09:32:01Z</time></trkpt><trkpt lat="44.83607925785526" lon="9.24661797526161"><ele>726.0</ele><time>2026-03-28T09:32:02Z</time></trkpt><trkpt lat="44.836082345921945" lon="9.246764767350285"><ele>726.0</ele><time>2026-03-28T09:32:03Z</time></trkpt><trkpt lat="44.83607097255455" lon="9.246909120042515"><ele>725.8</ele><time>2026-03-28T09:32:04Z</time></trkpt><trkpt lat="44.83608799667496" lon="9.247054711294266"><ele>725.5999999999999</ele><time>2026-03-28T09:32:05Z</time></trkpt><trkpt lat="44.836145186773535" lon="9.247181374195508"><ele>725.4</ele><time>2026-03-28T09:32:06Z</time></trkpt><trkpt lat="44.83621546722262" lon="9.247303678703698"><ele>725.2</ele><time>2026-03-28T09:32:07Z</time></trkpt><trkpt lat="44.836287717407764" lon="9.247416978790328"><ele>725.0</ele><time>2026-03-28T09:32:08Z</time></trkpt><trkpt lat="44.83632982510939" lon="9.24753379753084"><ele>725.6</ele><time>2026-03-28T09:32:09Z</time></trkpt><trkpt lat="44.83633595609376" lon="9.247651966869082"><ele>726.2</ele><time>2026-03-28T09:32:10Z</time></trkpt><trkpt lat="44.83631759469482" lon="9.247781985148661"><ele>726.8</ele><time>2026-03-28T09:32:11Z</time></trkpt><trkpt lat="44.83626622473115" lon="9.24791239170874"><ele>727.4</ele><time>2026-03-28T09:32:12Z</time></trkpt><trkpt lat="44.83622237020465" lon="9.248048975369064"><ele>728.0</ele><time>2026-03-28T09:32:13Z</time></trkpt><trkpt lat="44.836181119886234" lon="9.24817168387047"><ele>729.4</ele><time>2026-03-28T09:32:14Z</time></trkpt><trkpt lat="44.83616256359378" lon="9.248299988690908"><ele>730.8</ele><time>2026-03-28T09:32:15Z</time></trkpt><trkpt lat="44.836195377372455" lon="9.248436169243975"><ele>732.2</ele><time>2026-03-28T09:32:16Z</time></trkpt><trkpt lat="44.836279674331756" lon="9.248520971281692"><ele>733.6</ele><time>2026-03-28T09:32:17Z</time></trkpt><trkpt lat="44.83637382947038" lon="9.24857624314629"><ele>735.0</ele><time>2026-03-28T09:32:18Z</time></trkpt><trkpt lat="44.83647871486664" lon="9.248614041839385"><ele>735.0</ele><time>2026-03-28T09:32:19Z</time></trkpt><trkpt lat="44.83658922049924" lon="9.248631804670783"><ele>735.0</ele><time>2026-03-28T09:32:20Z</time></trkpt><trkpt lat="44.83671297150564" lon="9.248632512021386"><ele>735.0</ele><time>2026-03-28T09:32:21Z</time></trkpt><trkpt lat="44.83682310155837" lon="9.24862522308578"><ele>735.0</ele><time>2026-03-28T09:32:22Z</time></trkpt><trkpt lat="44.83693477975177" lon="9.248665960864791"><ele>733.6</ele><time>2026-03-28T09:32:23Z</time></trkpt><trkpt lat="44.83704549103554" lon="9.248712868731952"><ele>732.2</ele><time>2026-03-28T09:32:24Z</time></trkpt><trkpt lat="44.837147824574174" lon="9.248763167161602"><ele>730.8</ele><time>2026-03-28T09:32:25Z</time></trkpt><trkpt lat="44.83723929159041" lon="9.248824490796624"><ele>729.4</ele><time>2026-03-28T09:32:26Z</time></trkpt><trkpt lat="44.83733383997278" lon="9.248892092851923"><ele>728.0</ele><time>2026-03-28T09:32:27Z</time></trkpt><trkpt lat="44.83742295808947" lon="9.248975338981108"><ele>727.5999999999999</ele><time>2026-03-28T09:32:28Z</time></trkpt><trkpt lat="44.83751053437353" lon="9.249062389412584"><ele>727.1999999999999</ele><time>2026-03-28T09:32:29Z</time></trkpt><trkpt lat="44.83759999522087" lon="9.24914596297225"><ele>726.8</ele><time>2026-03-28T09:32:30Z</time></trkpt><trkpt lat="44.83767997563433" lon="9.249228460877552"><ele>726.4</ele><time>2026-03-28T09:32:31Z</time></trkpt><trkpt lat="44.83776054080949" lon="9.249311268316912"><ele>726.0</ele><time>2026-03-28T09:32:32Z</time></trkpt><trkpt lat="44.83783665645987" lon="9.24939471187048"><ele>726.0</ele><time>2026-03-28T09:32:33Z</time></trkpt><trkpt lat="44.83789848106884" lon="9.249476252153432"><ele>726.0</ele><time>2026-03-28T09:32:34Z</time></trkpt><trkpt lat="44.83793750291367" lon="9.249564157287923"><ele>726.0</ele><time>2026-03-28T09:32:35Z</time></trkpt><trkpt lat="44.837962611522535" lon="9.249662849655508"><ele>726.0</ele><time>2026-03-28T09:32:36Z</time></trkpt><trkpt lat="44.83798713723613" lon="9.249766723328968"><ele>726.0</ele><time>2026-03-28T09:32:37Z</time></trkpt><trkpt lat="44.83802131835411" lon="9.24986595499486"><ele>726.0</ele><time>2026-03-28T09:32:38Z</time></trkpt><trkpt lat="44.83807223103137" lon="9.2499550650513"><ele>728.5</ele><time>2026-03-28T09:32:39Z</time></trkpt><trkpt lat="44.83812984950986" lon="9.250032415277188"><ele>731.0</ele><time>2026-03-28T09:32:40Z</time></trkpt><trkpt lat="44.838194210137075" lon="9.250091759447383"><ele>733.5</ele><time>2026-03-28T09:32:41Z</time></trkpt><trkpt lat="44.83825884758195" lon="9.250138228822111"><ele>736.0</ele><time>2026-03-28T09:32:42Z</time></trkpt><trkpt lat="44.83839373220265" lon="9.250206908125815"><ele>738.5</ele><time>2026-03-28T09:32:44Z</time></trkpt><trkpt lat="44.83844115147407" lon="9.250283087048812"><ele>741.0</ele><time>2026-03-28T09:32:45Z</time></trkpt><trkpt lat="44.83846050933292" lon="9.250377621528214"><ele>741.0</ele><time>2026-03-28T09:32:46Z</time></trkpt><trkpt lat="44.83843818417119" lon="9.250464122972028"><ele>741.0</ele><time>2026-03-28T09:32:47Z</time></trkpt><trkpt lat="44.83846737740506" lon="9.250624173029088"><ele>741.0</ele><time>2026-03-28T09:32:49Z</time></trkpt><trkpt lat="44.838485086071096" lon="9.250723852961075"><ele>741.0</ele><time>2026-03-28T09:32:50Z</time></trkpt><trkpt lat="44.838537643923246" lon="9.250801838367668"><ele>741.0</ele><time>2026-03-28T09:32:51Z</time></trkpt><trkpt lat="44.83861278962561" lon="9.250848140527957"><ele>741.0</ele><time>2026-03-28T09:32:52Z</time></trkpt><trkpt lat="44.83870583676244" lon="9.25089684537613"><ele>740.0</ele><time>2026-03-28T09:32:53Z</time></trkpt><trkpt lat="44.83879968620603" lon="9.250996379936897"><ele>739.0</ele><time>2026-03-28T09:32:54Z</time></trkpt><trkpt lat="44.83890568261295" lon="9.25110179592963"><ele>738.0</ele><time>2026-03-28T09:32:55Z</time></trkpt><trkpt lat="44.83902029850899" lon="9.251171604443332"><ele>737.0</ele><time>2026-03-28T09:32:56Z</time></trkpt><trkpt lat="44.83914038232018" lon="9.251209064859953"><ele>737.0</ele><time>2026-03-28T09:32:57Z</time></trkpt><trkpt lat="44.83925099839692" lon="9.251233393810649"><ele>737.0</ele><time>2026-03-28T09:32:58Z</time></trkpt><trkpt lat="44.839361583079246" lon="9.251257251426809"><ele>737.0</ele><time>2026-03-28T09:32:59Z</time></trkpt><trkpt lat="44.83946517951985" lon="9.251276277519901"><ele>737.0</ele><time>2026-03-28T09:33:00Z</time></trkpt><trkpt lat="44.83955943568005" lon="9.251308012330222"><ele>737.0</ele><time>2026-03-28T09:33:01Z</time></trkpt><trkpt lat="44.839642100997985" lon="9.251337542171921"><ele>737.8</ele><time>2026-03-28T09:33:01.999Z</time></trkpt><trkpt lat="44.83971567147278" lon="9.251383478107213"><ele>738.6</ele><time>2026-03-28T09:33:02.999Z</time></trkpt><trkpt lat="44.83979913323635" lon="9.251413917362965"><ele>739.4</ele><time>2026-03-28T09:33:03.999Z</time></trkpt><trkpt lat="44.83984533032054" lon="9.2515434435314"><ele>740.1999999999999</ele><time>2026-03-28T09:33:04.999Z</time></trkpt><trkpt lat="44.83991569964641" lon="9.251643817441321"><ele>741.0</ele><time>2026-03-28T09:33:05.999Z</time></trkpt><trkpt lat="44.83997449016387" lon="9.251750161111126"><ele>741.0</ele><time>2026-03-28T09:33:06.999Z</time></trkpt><trkpt lat="44.84001028190427" lon="9.25186960520451"><ele>741.0</ele><time>2026-03-28T09:33:07.999Z</time></trkpt><trkpt lat="44.84003159763284" lon="9.252003454001086"><ele>741.0</ele><time>2026-03-28T09:33:08.999Z</time></trkpt><trkpt lat="44.840055871383164" lon="9.252143331882074"><ele>741.0</ele><time>2026-03-28T09:33:09.999Z</time></trkpt><trkpt lat="44.84010889634265" lon="9.252276848827673"><ele>741.0</ele><time>2026-03-28T09:33:10.999Z</time></trkpt><trkpt lat="44.84017556982959" lon="9.25240215476363"><ele>739.4</ele><time>2026-03-28T09:33:11.999Z</time></trkpt><trkpt lat="44.84023606409683" lon="9.252525192476892"><ele>737.8</ele><time>2026-03-28T09:33:12.999Z</time></trkpt><trkpt lat="44.84027577298673" lon="9.25264836524534"><ele>736.1999999999999</ele><time>2026-03-28T09:33:13.999Z</time></trkpt><trkpt lat="44.84029420986952" lon="9.25277145391077"><ele>734.5999999999999</ele><time>2026-03-28T09:33:14.999Z</time></trkpt><trkpt lat="44.84029770845424" lon="9.252894268835417"><ele>733.0</ele><time>2026-03-28T09:33:15.999Z</time></trkpt><trkpt lat="44.84032212632382" lon="9.253009263121246"><ele>733.0</ele><time>2026-03-28T09:33:16.999Z</time></trkpt><trkpt lat="44.84038800108919" lon="9.253103178915971"><ele>733.0</ele><time>2026-03-28T09:33:17.999Z</time></trkpt><trkpt lat="44.84047632514285" lon="9.253176074594933"><ele>733.0</ele><time>2026-03-28T09:33:18.999Z</time></trkpt><trkpt lat="44.84056581305056" lon="9.253245685380891"><ele>733.0</ele><time>2026-03-28T09:33:19.999Z</time></trkpt><trkpt lat="44.84066132083295" lon="9.253326897317796"><ele>733.0</ele><time>2026-03-28T09:33:20.999Z</time></trkpt><trkpt lat="44.840741793020136" lon="9.25342074601711"><ele>732.8</ele><time>2026-03-28T09:33:21.999Z</time></trkpt><trkpt lat="44.840823425075854" lon="9.253511285800064"><ele>732.5999999999999</ele><time>2026-03-28T09:33:22.999Z</time></trkpt><trkpt lat="44.84090655247394" lon="9.25359686404134"><ele>732.4000000000001</ele><time>2026-03-28T09:33:23.999Z</time></trkpt><trkpt lat="44.8409903398371" lon="9.25367070361608"><ele>732.2</ele><time>2026-03-28T09:33:24.999Z</time></trkpt><trkpt lat="44.84108202806139" lon="9.25372607126513"><ele>732.0</ele><time>2026-03-28T09:33:25.999Z</time></trkpt><trkpt lat="44.84117100477276" lon="9.253785171811536"><ele>732.0</ele><time>2026-03-28T09:33:26.999Z</time></trkpt><trkpt lat="44.84123990559809" lon="9.253859265389039"><ele>732.0</ele><time>2026-03-28T09:33:27.999Z</time></trkpt><trkpt lat="44.84129217572187" lon="9.253956419894184"><ele>732.0</ele><time>2026-03-28T09:33:28.999Z</time></trkpt><trkpt lat="44.84132895042105" lon="9.25406796964188"><ele>732.0</ele><time>2026-03-28T09:33:29.999Z</time></trkpt><trkpt lat="44.84134773796476" lon="9.254195249128555"><ele>732.0</ele><time>2026-03-28T09:33:30.999Z</time></trkpt><trkpt lat="44.84132043302187" lon="9.254332709382416"><ele>733.0</ele><time>2026-03-28T09:33:31.999Z</time></trkpt><trkpt lat="44.841292871337174" lon="9.254469719710578"><ele>734.0</ele><time>2026-03-28T09:33:32.999Z</time></trkpt><trkpt lat="44.84128352449444" lon="9.254616884991961"><ele>735.0</ele><time>2026-03-28T09:33:33.999Z</time></trkpt><trkpt lat="44.841264283918385" lon="9.254762581724195"><ele>736.0</ele><time>2026-03-28T09:33:34.999Z</time></trkpt><trkpt lat="44.841247221704535" lon="9.254913293808519"><ele>737.0</ele><time>2026-03-28T09:33:35.999Z</time></trkpt><trkpt lat="44.84123552007058" lon="9.255063637867863"><ele>737.6</ele><time>2026-03-28T09:33:36.999Z</time></trkpt><trkpt lat="44.84123065603423" lon="9.255207440513852"><ele>738.2</ele><time>2026-03-28T09:33:37.999Z</time></trkpt><trkpt lat="44.84123775139664" lon="9.25534963346566"><ele>738.8</ele><time>2026-03-28T09:33:38.999Z</time></trkpt><trkpt lat="44.84126048957262" lon="9.255488583677733"><ele>739.4</ele><time>2026-03-28T09:33:39.999Z</time></trkpt><trkpt lat="44.84130397031695" lon="9.255618567196453"><ele>740.0</ele><time>2026-03-28T09:33:40.999Z</time></trkpt><trkpt lat="44.84137310238818" lon="9.255739084829365"><ele>741.8</ele><time>2026-03-28T09:33:41.999Z</time></trkpt><trkpt lat="44.841443928541594" lon="9.25585305238509"><ele>743.6</ele><time>2026-03-28T09:33:42.999Z</time></trkpt><trkpt lat="44.84151251354071" lon="9.255962459677644"><ele>745.4000000000001</ele><time>2026-03-28T09:33:43.999Z</time></trkpt><trkpt lat="44.84158742659423" lon="9.256050455609623"><ele>747.2</ele><time>2026-03-28T09:33:44.999Z</time></trkpt><trkpt lat="44.841667791885904" lon="9.256118422211063"><ele>749.0</ele><time>2026-03-28T09:33:45.999Z</time></trkpt><trkpt lat="44.84174359893398" lon="9.256183970221556"><ele>747.1666666666666</ele><time>2026-03-28T09:33:46.999Z</time></trkpt><trkpt lat="44.84181644508356" lon="9.256237129014735"><ele>745.3333333333333</ele><time>2026-03-28T09:33:48.001Z</time></trkpt><trkpt lat="44.84188579139222" lon="9.256289341398668"><ele>743.5</ele><time>2026-03-28T09:33:49.001Z</time></trkpt><trkpt lat="44.84194003558594" lon="9.256375647456398"><ele>741.6666666666666</ele><time>2026-03-28T09:33:50.001Z</time></trkpt><trkpt lat="44.841989209722314" lon="9.256466468381563"><ele>739.8333333333334</ele><time>2026-03-28T09:33:51.001Z</time></trkpt><trkpt lat="44.842043753767804" lon="9.256561410450859"><ele>738.0</ele><time>2026-03-28T09:33:52.001Z</time></trkpt><trkpt lat="44.842074761806096" lon="9.256675115416096"><ele>737.4</ele><time>2026-03-28T09:33:53.001Z</time></trkpt><trkpt lat="44.842080831351886" lon="9.256806603464659"><ele>736.8</ele><time>2026-03-28T09:33:54.001Z</time></trkpt><trkpt lat="44.842076249833184" lon="9.256951461829768"><ele>736.2</ele><time>2026-03-28T09:33:55.001Z</time></trkpt><trkpt lat="44.84206966539897" lon="9.257079554608957"><ele>735.6</ele><time>2026-03-28T09:33:56.001Z</time></trkpt><trkpt lat="44.84206667228695" lon="9.257181443293222"><ele>735.0</ele><time>2026-03-28T09:33:57.001Z</time></trkpt><trkpt lat="44.842058572462065" lon="9.257341129430896"><ele>733.6666666666666</ele><time>2026-03-28T09:33:59.001Z</time></trkpt><trkpt lat="44.84204363291912" lon="9.257454989310235"><ele>732.3333333333333</ele><time>2026-03-28T09:34:01.001Z</time></trkpt><trkpt lat="44.8420371234345" lon="9.257567947564135"><ele>731.0</ele><time>2026-03-28T09:34:04.001Z</time></trkpt><trkpt lat="44.84174107447955" lon="9.257555511808297"><ele>733.0</ele><time>2026-03-28T09:34:07.001Z</time></trkpt><trkpt lat="44.841681969017" lon="9.25749668649218"><ele>735.0</ele><time>2026-03-28T09:34:08.001Z</time></trkpt><trkpt lat="44.841618534122645" lon="9.257435874554606"><ele>737.0</ele><time>2026-03-28T09:34:09.001Z</time></trkpt><trkpt lat="44.84154140501078" lon="9.257360845635263"><ele>739.0</ele><time>2026-03-28T09:34:10.001Z</time></trkpt><trkpt lat="44.84145834774132" lon="9.257281838418407"><ele>741.0</ele><time>2026-03-28T09:34:11.001Z</time></trkpt><trkpt lat="44.84137492200428" lon="9.257212095419266"><ele>743.0</ele><time>2026-03-28T09:34:12.001Z</time></trkpt><trkpt lat="44.841299498482414" lon="9.257148391490155"><ele>744.5</ele><time>2026-03-28T09:34:13.001Z</time></trkpt><trkpt lat="44.84124928169756" lon="9.257084014973676"><ele>746.0</ele><time>2026-03-28T09:34:14Z</time></trkpt><trkpt lat="44.84125446232768" lon="9.256948901689077"><ele>747.5</ele><time>2026-03-28T09:34:16Z</time></trkpt><trkpt lat="44.841298834444316" lon="9.25685708848332"><ele>749.0</ele><time>2026-03-28T09:34:17Z</time></trkpt><trkpt lat="44.84133265021116" lon="9.256745982701915"><ele>750.5</ele><time>2026-03-28T09:34:18Z</time></trkpt><trkpt lat="44.841343004927296" lon="9.256639855364249"><ele>752.0</ele><time>2026-03-28T09:34:19Z</time></trkpt><trkpt lat="44.841291538863025" lon="9.256493497570517"><ele>751.4000000000001</ele><time>2026-03-28T09:34:21Z</time></trkpt><trkpt lat="44.841213524815885" lon="9.256435296372167"><ele>750.8000000000001</ele><time>2026-03-28T09:34:22Z</time></trkpt><trkpt lat="44.84110729603492" lon="9.256395743619876"><ele>750.2</ele><time>2026-03-28T09:34:23Z</time></trkpt><trkpt lat="44.84098854588005" lon="9.256376861417342"><ele>749.6</ele><time>2026-03-28T09:34:24Z</time></trkpt><trkpt lat="44.84088653377339" lon="9.256344513281466"><ele>749.0</ele><time>2026-03-28T09:34:25Z</time></trkpt><trkpt lat="44.8407863959323" lon="9.256302654115638"><ele>753.6</ele><time>2026-03-28T09:34:26Z</time></trkpt><trkpt lat="44.84067623074332" lon="9.256272371719012"><ele>758.2</ele><time>2026-03-28T09:34:27Z</time></trkpt><trkpt lat="44.84057797899549" lon="9.25627236430472"><ele>762.8000000000001</ele><time>2026-03-28T09:34:28Z</time></trkpt><trkpt lat="44.84048372218653" lon="9.256291408522014"><ele>767.4000000000001</ele><time>2026-03-28T09:34:29Z</time></trkpt><trkpt lat="44.840405045762104" lon="9.256313290799206"><ele>772.0</ele><time>2026-03-28T09:34:30Z</time></trkpt><trkpt lat="44.840339952034675" lon="9.256308934957339"><ele>771.9999999999999</ele><time>2026-03-28T09:34:31Z</time></trkpt><trkpt lat="44.840258374193304" lon="9.256260826440856"><ele>772.0</ele><time>2026-03-28T09:34:32Z</time></trkpt><trkpt lat="44.84017211538403" lon="9.256218270836717"><ele>772.0</ele><time>2026-03-28T09:34:33Z</time></trkpt><trkpt lat="44.84010225234315" lon="9.256220460526078"><ele>772.0</ele><time>2026-03-28T09:34:34Z</time></trkpt><trkpt lat="44.840017102231286" lon="9.25626644668061"><ele>771.9999999999999</ele><time>2026-03-28T09:34:36Z</time></trkpt><trkpt lat="44.8399295878634" lon="9.256305081836135"><ele>772.0</ele><time>2026-03-28T09:34:38Z</time></trkpt><trkpt lat="44.83982234785409" lon="9.256282072081357"><ele>774.6</ele><time>2026-03-28T09:34:40Z</time></trkpt><trkpt lat="44.839757397238344" lon="9.25629440800686"><ele>777.2</ele><time>2026-03-28T09:34:42Z</time></trkpt><trkpt lat="44.8396753142902" lon="9.256261263271908"><ele>779.8</ele><time>2026-03-28T09:34:45Z</time></trkpt><trkpt lat="44.83951248576806" lon="9.256182619100116"><ele>782.4</ele><time>2026-03-28T09:34:47Z</time></trkpt><trkpt lat="44.839397963010555" lon="9.25615054137173"><ele>785.0</ele><time>2026-03-28T09:34:49Z</time></trkpt><trkpt lat="44.839319973089594" lon="9.256152357417825"><ele>788.3333333333334</ele><time>2026-03-28T09:34:50Z</time></trkpt><trkpt lat="44.83922649702716" lon="9.256159844350503"><ele>791.6666666666667</ele><time>2026-03-28T09:34:51Z</time></trkpt><trkpt lat="44.83914264022903" lon="9.256167515451182"><ele>795.0</ele><time>2026-03-28T09:34:52Z</time></trkpt><trkpt lat="44.83906973072627" lon="9.256203612942667"><ele>798.3333333333333</ele><time>2026-03-28T09:34:53Z</time></trkpt><trkpt lat="44.83900453612208" lon="9.256250104205112"><ele>801.6666666666666</ele><time>2026-03-28T09:34:54Z</time></trkpt><trkpt lat="44.83895242288134" lon="9.256318880187568"><ele>805.0</ele><time>2026-03-28T09:34:55Z</time></trkpt><trkpt lat="44.83889759693472" lon="9.256384127776922"><ele>804.9999999999999</ele><time>2026-03-28T09:34:56Z</time></trkpt><trkpt lat="44.838838034889974" lon="9.256445600512187"><ele>805.0</ele><time>2026-03-28T09:34:57Z</time></trkpt><trkpt lat="44.83877767801007" lon="9.256508778612"><ele>805.0</ele><time>2026-03-28T09:34:58Z</time></trkpt><trkpt lat="44.83871463337525" lon="9.256531749374714"><ele>805.0</ele><time>2026-03-28T09:34:59Z</time></trkpt><trkpt lat="44.83863302316523" lon="9.25644647339279"><ele>804.9999999999999</ele><time>2026-03-28T09:35:02Z</time></trkpt><trkpt lat="44.838543130396395" lon="9.25638179164467"><ele>805.0</ele><time>2026-03-28T09:35:13Z</time></trkpt><trkpt lat="44.838421729797744" lon="9.256332891767327"><ele>808.6</ele><time>2026-03-28T09:35:14.999Z</time></trkpt><trkpt lat="44.83833289057447" lon="9.256288993265038"><ele>812.2</ele><time>2026-03-28T09:35:15.999Z</time></trkpt><trkpt lat="44.838238934903195" lon="9.256249278719071"><ele>815.8</ele><time>2026-03-28T09:35:16.999Z</time></trkpt><trkpt lat="44.83813908604209" lon="9.256210021557642"><ele>819.4</ele><time>2026-03-28T09:35:17.999Z</time></trkpt><trkpt lat="44.83804166808674" lon="9.25618288052831"><ele>823.0</ele><time>2026-03-28T09:35:18.999Z</time></trkpt><trkpt lat="44.83796511350572" lon="9.256187782425224"><ele>823.0</ele><time>2026-03-28T09:35:19.999Z</time></trkpt><trkpt lat="44.837900355275636" lon="9.256219577679259"><ele>823.0</ele><time>2026-03-28T09:35:20.999Z</time></trkpt><trkpt lat="44.83786439307891" lon="9.256302948563057"><ele>823.0</ele><time>2026-03-28T09:35:23.999Z</time></trkpt><trkpt lat="44.83779058996134" lon="9.256351868181625"><ele>823.0</ele><time>2026-03-28T09:35:26.999Z</time></trkpt><trkpt lat="44.8377246873131" lon="9.256383617323165"><ele>823.0</ele><time>2026-03-28T09:35:28.999Z</time></trkpt><trkpt lat="44.83765161006388" lon="9.256393608336666"><ele>823.0</ele><time>2026-03-28T09:35:30.999Z</time></trkpt><trkpt lat="44.83757014895199" lon="9.25642319197261"><ele>823.0</ele><time>2026-03-28T09:35:32.999Z</time></trkpt><trkpt lat="44.837473708048904" lon="9.256468976475348"><ele>825.5999999999999</ele><time>2026-03-28T09:35:34.999Z</time></trkpt><trkpt lat="44.83737421222256" lon="9.25648884060997"><ele>828.1999999999999</ele><time>2026-03-28T09:35:36.999Z</time></trkpt><trkpt lat="44.83727513077144" lon="9.25650524493654"><ele>830.8</ele><time>2026-03-28T09:35:38.999Z</time></trkpt><trkpt lat="44.837185866723594" lon="9.256524805625457"><ele>833.4</ele><time>2026-03-28T09:35:40.999Z</time></trkpt><trkpt lat="44.837090159615975" lon="9.256556332894837"><ele>836.0</ele><time>2026-03-28T09:35:42.999Z</time></trkpt><trkpt lat="44.83698715350204" lon="9.256594626486635"><ele>836.0000000000001</ele><time>2026-03-28T09:35:44.999Z</time></trkpt><trkpt lat="44.83690946203455" lon="9.256610217582793"><ele>836.0</ele><time>2026-03-28T09:35:45.999Z</time></trkpt><trkpt lat="44.836845956167544" lon="9.256620625963906"><ele>836.0</ele><time>2026-03-28T09:35:46.999Z</time></trkpt><trkpt lat="44.83673224658297" lon="9.256693984878495"><ele>836.0</ele><time>2026-03-28T09:35:48.999Z</time></trkpt><trkpt lat="44.83667342463494" lon="9.256741604472886"><ele>836.0000000000001</ele><time>2026-03-28T09:35:49.999Z</time></trkpt><trkpt lat="44.83662336486584" lon="9.256816694146762"><ele>836.0</ele><time>2026-03-28T09:35:54.001Z</time></trkpt><trkpt lat="44.83653986935853" lon="9.256955957947808"><ele>837.0000000000001</ele><time>2026-03-28T09:35:56.001Z</time></trkpt><trkpt lat="44.83648994154464" lon="9.257023037918895"><ele>838.0</ele><time>2026-03-28T09:35:57.001Z</time></trkpt><trkpt lat="44.83645738655354" lon="9.257184718840545"><ele>839.0</ele><time>2026-03-28T09:35:59.001Z</time></trkpt><trkpt lat="44.83644027729281" lon="9.257274106092268"><ele>840.0</ele><time>2026-03-28T09:36:00.001Z</time></trkpt><trkpt lat="44.836396146201515" lon="9.257362039063393"><ele>841.0000000000001</ele><time>2026-03-28T09:36:01.001Z</time></trkpt><trkpt lat="44.836332397948496" lon="9.257459333216996"><ele>842.0</ele><time>2026-03-28T09:36:02.001Z</time></trkpt><trkpt lat="44.836269277813614" lon="9.257546767166316"><ele>842.0000000000001</ele><time>2026-03-28T09:36:03.001Z</time></trkpt><trkpt lat="44.83622800647415" lon="9.257655360041957"><ele>842.0</ele><time>2026-03-28T09:36:04.001Z</time></trkpt><trkpt lat="44.8361888707126" lon="9.257770278738004"><ele>842.0</ele><time>2026-03-28T09:36:05.001Z</time></trkpt><trkpt lat="44.83616422964531" lon="9.25787169795446"><ele>842.0</ele><time>2026-03-28T09:36:06.001Z</time></trkpt><trkpt lat="44.83612662869529" lon="9.258034906120093"><ele>842.0000000000001</ele><time>2026-03-28T09:36:08.001Z</time></trkpt><trkpt lat="44.83606978782856" lon="9.25809913887808"><ele>842.0</ele><time>2026-03-28T09:36:09.001Z</time></trkpt><trkpt lat="44.83600364433564" lon="9.25817777810948"><ele>843.0</ele><time>2026-03-28T09:36:10.001Z</time></trkpt><trkpt lat="44.835937069347686" lon="9.258248047017025"><ele>844.0</ele><time>2026-03-28T09:36:11.001Z</time></trkpt><trkpt lat="44.83586925889767" lon="9.25833064567151"><ele>845.0</ele><time>2026-03-28T09:36:12.001Z</time></trkpt><trkpt lat="44.83580544209398" lon="9.258438256056616"><ele>846.0</ele><time>2026-03-28T09:36:13.001Z</time></trkpt><trkpt lat="44.835733572204035" lon="9.258510726317905"><ele>847.0</ele><time>2026-03-28T09:36:14.001Z</time></trkpt><trkpt lat="44.835642572007494" lon="9.258587132562317"><ele>846.9999999999999</ele><time>2026-03-28T09:36:15.001Z</time></trkpt><trkpt lat="44.83554686620061" lon="9.258633908386836"><ele>847.0</ele><time>2026-03-28T09:36:16.001Z</time></trkpt><trkpt lat="44.83547556000913" lon="9.25863580799048"><ele>847.0</ele><time>2026-03-28T09:36:17.001Z</time></trkpt><trkpt lat="44.83540639613597" lon="9.25863059605178"><ele>847.0</ele><time>2026-03-28T09:36:18.001Z</time></trkpt><trkpt lat="44.83533941316062" lon="9.25872958253176"><ele>846.9999999999999</ele><time>2026-03-28T09:36:20Z</time></trkpt><trkpt lat="44.83532770086904" lon="9.25882471953915"><ele>847.0</ele><time>2026-03-28T09:36:21Z</time></trkpt><trkpt lat="44.83528063270855" lon="9.258928504962372"><ele>848.6</ele><time>2026-03-28T09:36:22Z</time></trkpt><trkpt lat="44.835254683801004" lon="9.259053500213488"><ele>850.2</ele><time>2026-03-28T09:36:24Z</time></trkpt><trkpt lat="44.83521569760789" lon="9.259135397835381"><ele>851.8</ele><time>2026-03-28T09:36:26Z</time></trkpt><trkpt lat="44.83516227405968" lon="9.259197604047372"><ele>853.4</ele><time>2026-03-28T09:36:28Z</time></trkpt><trkpt lat="44.8350437049035" lon="9.259306310144089"><ele>855.0</ele><time>2026-03-28T09:36:30Z</time></trkpt><trkpt lat="44.83489250383737" lon="9.259338335402866"><ele>855.0</ele><time>2026-03-28T09:36:32Z</time></trkpt><trkpt lat="44.83482083045958" lon="9.259379824835625"><ele>855.0</ele><time>2026-03-28T09:36:33Z</time></trkpt><trkpt lat="44.83469290304273" lon="9.259496637573415"><ele>855.0</ele><time>2026-03-28T09:36:35Z</time></trkpt><trkpt lat="44.83461554112749" lon="9.259583365206604"><ele>855.0</ele><time>2026-03-28T09:36:36Z</time></trkpt><trkpt lat="44.8345442643489" lon="9.25967972494137"><ele>855.0</ele><time>2026-03-28T09:36:37Z</time></trkpt><trkpt lat="44.83445812809458" lon="9.259811255076691"><ele>857.0</ele><time>2026-03-28T09:36:38Z</time></trkpt><trkpt lat="44.83437526376801" lon="9.259891974818315"><ele>859.0</ele><time>2026-03-28T09:36:39Z</time></trkpt><trkpt lat="44.834293216078365" lon="9.259930798738162"><ele>861.0</ele><time>2026-03-28T09:36:40Z</time></trkpt><trkpt lat="44.83424246769827" lon="9.260009157129591"><ele>863.0</ele><time>2026-03-28T09:36:42Z</time></trkpt><trkpt lat="44.83420905007544" lon="9.260130414426937"><ele>865.0</ele><time>2026-03-28T09:36:44Z</time></trkpt><trkpt lat="44.83415838867745" lon="9.260295967923724"><ele>865.0</ele><time>2026-03-28T09:36:46Z</time></trkpt><trkpt lat="44.834116284906905" lon="9.260415295214118"><ele>865.0</ele><time>2026-03-28T09:36:47Z</time></trkpt><trkpt lat="44.83407119881949" lon="9.26064631763694"><ele>865.0</ele><time>2026-03-28T09:36:48Z</time></trkpt><trkpt lat="44.834028246060754" lon="9.260767939997681"><ele>865.0</ele><time>2026-03-28T09:36:49Z</time></trkpt><trkpt lat="44.83399561325485" lon="9.260914142610748"><ele>864.3333333333333</ele><time>2026-03-28T09:36:50Z</time></trkpt><trkpt lat="44.83395597677023" lon="9.261062152474821"><ele>863.6666666666666</ele><time>2026-03-28T09:36:51Z</time></trkpt><trkpt lat="44.83394351489886" lon="9.261174036056266"><ele>863.0</ele><time>2026-03-28T09:36:52Z</time></trkpt><trkpt lat="44.83394787811318" lon="9.261269616200751"><ele>862.3333333333333</ele><time>2026-03-28T09:36:53Z</time></trkpt><trkpt lat="44.83393203137261" lon="9.261367897877587"><ele>861.6666666666666</ele><time>2026-03-28T09:36:55Z</time></trkpt><trkpt lat="44.833946310283714" lon="9.261516156062035"><ele>861.0</ele><time>2026-03-28T09:36:57Z</time></trkpt><trkpt lat="44.83392728048337" lon="9.261603354085617"><ele>861.0</ele><time>2026-03-28T09:36:58Z</time></trkpt><trkpt lat="44.8338784673463" lon="9.261707379923818"><ele>861.0</ele><time>2026-03-28T09:36:59Z</time></trkpt><trkpt lat="44.83383632711778" lon="9.26179745716739"><ele>861.0</ele><time>2026-03-28T09:37:00Z</time></trkpt><trkpt lat="44.833790367852835" lon="9.26190807342843"><ele>861.0</ele><time>2026-03-28T09:37:01Z</time></trkpt><trkpt lat="44.833762938954116" lon="9.261990591767692"><ele>861.0</ele><time>2026-03-28T09:37:02Z</time></trkpt><trkpt lat="44.833716730667916" lon="9.262074012041767"><ele>861.0</ele><time>2026-03-28T09:37:03Z</time></trkpt><trkpt lat="44.83364470561275" lon="9.262155347787814"><ele>861.0</ele><time>2026-03-28T09:37:04Z</time></trkpt><trkpt lat="44.83353677093399" lon="9.262273142910443"><ele>860.9999999999999</ele><time>2026-03-28T09:37:06Z</time></trkpt><trkpt lat="44.83349530387084" lon="9.262368288960772"><ele>860.9999999999999</ele><time>2026-03-28T09:37:07Z</time></trkpt><trkpt lat="44.833443160817254" lon="9.262472535434437"><ele>861.0</ele><time>2026-03-28T09:37:08Z</time></trkpt><trkpt lat="44.83337801697133" lon="9.262532346405266"><ele>861.0</ele><time>2026-03-28T09:37:09Z</time></trkpt><trkpt lat="44.833310636138044" lon="9.26256174743152"><ele>863.1666666666666</ele><time>2026-03-28T09:37:10Z</time></trkpt><trkpt lat="44.8332222159188" lon="9.262584217622049"><ele>865.3333333333333</ele><time>2026-03-28T09:37:11Z</time></trkpt><trkpt lat="44.83315763613872" lon="9.262619828610442"><ele>867.5</ele><time>2026-03-28T09:37:12Z</time></trkpt><trkpt lat="44.83317941120478" lon="9.262770000988729"><ele>869.6666666666666</ele><time>2026-03-28T09:37:14Z</time></trkpt><trkpt lat="44.83322974342114" lon="9.26283634007858"><ele>871.8333333333333</ele><time>2026-03-28T09:37:15Z</time></trkpt><trkpt lat="44.83329681610001" lon="9.26288813310363"><ele>874.0</ele><time>2026-03-28T09:37:16Z</time></trkpt><trkpt lat="44.833389319484915" lon="9.262918389343024"><ele>872.8000000000001</ele><time>2026-03-28T09:37:17Z</time></trkpt><trkpt lat="44.83348036530902" lon="9.262923838414032"><ele>871.6000000000001</ele><time>2026-03-28T09:37:18Z</time></trkpt><trkpt lat="44.83358531935565" lon="9.262969377691983"><ele>870.4</ele><time>2026-03-28T09:37:18.999Z</time></trkpt><trkpt lat="44.83366193845886" lon="9.26304852898898"><ele>869.2</ele><time>2026-03-28T09:37:19.999Z</time></trkpt><trkpt lat="44.83373474295411" lon="9.26308681712171"><ele>868.0</ele><time>2026-03-28T09:37:20.999Z</time></trkpt><trkpt lat="44.83383903885061" lon="9.26313732999738"><ele>868.0</ele><time>2026-03-28T09:37:21.999Z</time></trkpt><trkpt lat="44.83392295486947" lon="9.26325667877253"><ele>868.0</ele><time>2026-03-28T09:37:23.999Z</time></trkpt><trkpt lat="44.83395037863012" lon="9.263415679535218"><ele>868.0</ele><time>2026-03-28T09:37:25.999Z</time></trkpt><trkpt lat="44.83389589491232" lon="9.263592028072399"><ele>868.0</ele><time>2026-03-28T09:37:27.999Z</time></trkpt><trkpt lat="44.83395759392188" lon="9.263746152769562"><ele>868.0</ele><time>2026-03-28T09:37:29.999Z</time></trkpt><trkpt lat="44.83395732473636" lon="9.263907131782767"><ele>868.0</ele><time>2026-03-28T09:37:31.999Z</time></trkpt><trkpt lat="44.83397929984499" lon="9.264044034317402"><ele>868.0</ele><time>2026-03-28T09:37:32.999Z</time></trkpt><trkpt lat="44.83399843498941" lon="9.264181300791298"><ele>868.0</ele><time>2026-03-28T09:37:33.999Z</time></trkpt><trkpt lat="44.834016554204126" lon="9.264289295945149"><ele>868.0</ele><time>2026-03-28T09:37:34.999Z</time></trkpt><trkpt lat="44.834048976092504" lon="9.264408497703732"><ele>870.4999999999999</ele><time>2026-03-28T09:37:35.999Z</time></trkpt><trkpt lat="44.834080179035844" lon="9.264498921958614"><ele>873.0</ele><time>2026-03-28T09:37:36.999Z</time></trkpt><trkpt lat="44.83410225369114" lon="9.264618936832006"><ele>875.5</ele><time>2026-03-28T09:37:38.999Z</time></trkpt><trkpt lat="44.834108093637916" lon="9.26472636609387"><ele>878.0</ele><time>2026-03-28T09:38:20.001Z</time></trkpt><trkpt lat="44.83416562117142" lon="9.264801959241172"><ele>880.4999999999999</ele><time>2026-03-28T09:38:23Z</time></trkpt><trkpt lat="44.834236114436266" lon="9.2647080545546"><ele>883.0</ele><time>2026-03-28T09:38:26Z</time></trkpt><trkpt lat="44.834278783745496" lon="9.26464052772405"><ele>878.8333333333333</ele><time>2026-03-28T09:38:28Z</time></trkpt><trkpt lat="44.834343388760665" lon="9.26457556198076"><ele>874.6666666666666</ele><time>2026-03-28T09:38:30Z</time></trkpt><trkpt lat="44.83439645089288" lon="9.264521335400541"><ele>870.5</ele><time>2026-03-28T09:38:32Z</time></trkpt><trkpt lat="44.834444284512664" lon="9.26440436085239"><ele>866.3333333333333</ele><time>2026-03-28T09:38:34Z</time></trkpt><trkpt lat="44.83449699937538" lon="9.26433258893191"><ele>862.1666666666666</ele><time>2026-03-28T09:38:36Z</time></trkpt><trkpt lat="44.834566058600394" lon="9.26429159209008"><ele>858.0</ele><time>2026-03-28T09:38:38Z</time></trkpt><trkpt lat="44.83464885733143" lon="9.26425809445793"><ele>858.0</ele><time>2026-03-28T09:38:40Z</time></trkpt><trkpt lat="44.83468151766588" lon="9.264174919188633"><ele>858.0</ele><time>2026-03-28T09:38:42Z</time></trkpt><trkpt lat="44.83487513026375" lon="9.264210268742728"><ele>858.0</ele><time>2026-03-28T09:38:44Z</time></trkpt><trkpt lat="44.83493662146032" lon="9.264244347424325"><ele>858.0</ele><time>2026-03-28T09:38:45Z</time></trkpt><trkpt lat="44.83502078908124" lon="9.264245954842773"><ele>858.0</ele><time>2026-03-28T09:38:47Z</time></trkpt><trkpt lat="44.835107200217635" lon="9.2642366277794"><ele>853.8</ele><time>2026-03-28T09:38:50Z</time></trkpt><trkpt lat="44.835171687705795" lon="9.264196913638303"><ele>849.5999999999999</ele><time>2026-03-28T09:38:53Z</time></trkpt><trkpt lat="44.835335368468776" lon="9.26433921609829"><ele>845.4000000000001</ele><time>2026-03-28T09:38:57Z</time></trkpt><trkpt lat="44.83538744205828" lon="9.264438077927581"><ele>841.2</ele><time>2026-03-28T09:38:59Z</time></trkpt><trkpt lat="44.83538374073072" lon="9.264536710110285"><ele>837.0</ele><time>2026-03-28T09:39:00Z</time></trkpt><trkpt lat="44.83544297551477" lon="9.264593181562347"><ele>837.0</ele><time>2026-03-28T09:39:03Z</time></trkpt><trkpt lat="44.835510286683835" lon="9.264563576327765"><ele>837.0</ele><time>2026-03-28T09:39:05Z</time></trkpt><trkpt lat="44.8355804293562" lon="9.264501541799557"><ele>837.0</ele><time>2026-03-28T09:39:06Z</time></trkpt><trkpt lat="44.8356603484963" lon="9.26445156064164"><ele>837.0</ele><time>2026-03-28T09:39:07Z</time></trkpt><trkpt lat="44.83571832628379" lon="9.26441275775426"><ele>837.0</ele><time>2026-03-28T09:39:08Z</time></trkpt><trkpt lat="44.83582055761598" lon="9.264366510713488"><ele>837.0</ele><time>2026-03-28T09:39:10Z</time></trkpt><trkpt lat="44.83588298827563" lon="9.264411531544821"><ele>837.0</ele><time>2026-03-28T09:39:14Z</time></trkpt><trkpt lat="44.835848260675796" lon="9.264294075519064"><ele>837.0</ele><time>2026-03-28T09:39:31.999Z</time></trkpt><trkpt lat="44.83589528541654" lon="9.264224522677953"><ele>837.0</ele><time>2026-03-28T09:39:38.999Z</time></trkpt><trkpt lat="44.83596901381584" lon="9.264212976284126"><ele>837.0</ele><time>2026-03-28T09:39:41.999Z</time></trkpt><trkpt lat="44.83604768211103" lon="9.26418742759442"><ele>837.0</ele><time>2026-03-28T09:39:44.999Z</time></trkpt><trkpt lat="44.836143385401755" lon="9.26412939317011"><ele>837.0</ele><time>2026-03-28T09:39:46.999Z</time></trkpt><trkpt lat="44.83624980643384" lon="9.264039379778197"><ele>833.1666666666666</ele><time>2026-03-28T09:39:48.999Z</time></trkpt><trkpt lat="44.83630795709788" lon="9.264002990918211"><ele>829.3333333333333</ele><time>2026-03-28T09:39:49.999Z</time></trkpt><trkpt lat="44.83641583917447" lon="9.263948948756626"><ele>825.5</ele><time>2026-03-28T09:39:51.999Z</time></trkpt><trkpt lat="44.836483824957725" lon="9.263938967216989"><ele>821.6666666666666</ele><time>2026-03-28T09:39:52.999Z</time></trkpt><trkpt lat="44.83654620791814" lon="9.263896218719218"><ele>817.8333333333333</ele><time>2026-03-28T09:39:53.999Z</time></trkpt><trkpt lat="44.83659985425982" lon="9.263837383133634"><ele>814.0</ele><time>2026-03-28T09:39:54.999Z</time></trkpt><trkpt lat="44.836655253378375" lon="9.263777715989507"><ele>813.4000000000001</ele><time>2026-03-28T09:39:55.999Z</time></trkpt><trkpt lat="44.836727470303146" lon="9.263718802427778"><ele>812.8</ele><time>2026-03-28T09:39:57.999Z</time></trkpt><trkpt lat="44.83684147335815" lon="9.263717109219721"><ele>812.2</ele><time>2026-03-28T09:39:59.999Z</time></trkpt><trkpt lat="44.83692243189443" lon="9.263714334558005"><ele>811.5999999999999</ele><time>2026-03-28T09:40:00.999Z</time></trkpt><trkpt lat="44.83701193454089" lon="9.263719148929631"><ele>811.0</ele><time>2026-03-28T09:40:01.999Z</time></trkpt><trkpt lat="44.837091961139706" lon="9.263763272433344"><ele>807.8333333333333</ele><time>2026-03-28T09:40:02.999Z</time></trkpt><trkpt lat="44.83716555388315" lon="9.263806639964514"><ele>804.6666666666666</ele><time>2026-03-28T09:40:03.999Z</time></trkpt><trkpt lat="44.83724699132601" lon="9.263838565996949"><ele>801.5</ele><time>2026-03-28T09:40:04.999Z</time></trkpt><trkpt lat="44.837329006152316" lon="9.263874347180222"><ele>798.3333333333333</ele><time>2026-03-28T09:40:06.001Z</time></trkpt><trkpt lat="44.83740455790299" lon="9.26390749581216"><ele>795.1666666666666</ele><time>2026-03-28T09:40:07.001Z</time></trkpt><trkpt lat="44.837467394486644" lon="9.263920861672027"><ele>792.0</ele><time>2026-03-28T09:40:08.001Z</time></trkpt><trkpt lat="44.83756793792707" lon="9.263915615528825"><ele>792.0</ele><time>2026-03-28T09:40:10.001Z</time></trkpt><trkpt lat="44.83755639953491" lon="9.264072204035427"><ele>792.0</ele><time>2026-03-28T09:40:15.001Z</time></trkpt><trkpt lat="44.83747827747624" lon="9.264180601346556"><ele>792.0</ele><time>2026-03-28T09:40:16.001Z</time></trkpt><trkpt lat="44.83746483739041" lon="9.264317714997427"><ele>792.0</ele><time>2026-03-28T09:40:17.001Z</time></trkpt><trkpt lat="44.83745280640728" lon="9.26448978745737"><ele>792.0</ele><time>2026-03-28T09:40:18.001Z</time></trkpt><trkpt lat="44.837439896942534" lon="9.264587171077396"><ele>792.0</ele><time>2026-03-28T09:40:19.001Z</time></trkpt><trkpt lat="44.83734788400895" lon="9.264742208841184"><ele>792.0</ele><time>2026-03-28T09:40:21.001Z</time></trkpt><trkpt lat="44.83725242308002" lon="9.264810882043765"><ele>792.0</ele><time>2026-03-28T09:40:22.001Z</time></trkpt><trkpt lat="44.83714987233549" lon="9.264896064482095"><ele>792.0</ele><time>2026-03-28T09:40:23.001Z</time></trkpt><trkpt lat="44.83708307910259" lon="9.264938076140158"><ele>792.0</ele><time>2026-03-28T09:40:24.001Z</time></trkpt><trkpt lat="44.83703274664856" lon="9.265041260315162"><ele>791.6</ele><time>2026-03-28T09:40:26.001Z</time></trkpt><trkpt lat="44.83714113091102" lon="9.265132382015967"><ele>791.2</ele><time>2026-03-28T09:40:28.001Z</time></trkpt><trkpt lat="44.83722965246027" lon="9.265121939939325"><ele>790.8</ele><time>2026-03-28T09:40:29.001Z</time></trkpt><trkpt lat="44.837335375833014" lon="9.265101889740851"><ele>790.4</ele><time>2026-03-28T09:40:30.001Z</time></trkpt><trkpt lat="44.837438373572844" lon="9.265155003295556"><ele>790.0</ele><time>2026-03-28T09:40:32Z</time></trkpt><trkpt lat="44.837418825322274" lon="9.265313290940933"><ele>790.0</ele><time>2026-03-28T09:40:34Z</time></trkpt><trkpt lat="44.837383692267075" lon="9.26539188304757"><ele>790.0</ele><time>2026-03-28T09:40:35Z</time></trkpt><trkpt lat="44.837353381684146" lon="9.265507415694929"><ele>790.0</ele><time>2026-03-28T09:40:36Z</time></trkpt><trkpt lat="44.83731603820814" lon="9.265655708148163"><ele>790.0</ele><time>2026-03-28T09:40:37Z</time></trkpt><trkpt lat="44.83727389484135" lon="9.265800324361209"><ele>790.0</ele><time>2026-03-28T09:40:38Z</time></trkpt><trkpt lat="44.83724452385887" lon="9.265906728287668"><ele>792.3333333333333</ele><time>2026-03-28T09:40:39Z</time></trkpt><trkpt lat="44.837244607241566" lon="9.26600993357161"><ele>794.6666666666666</ele><time>2026-03-28T09:40:40Z</time></trkpt><trkpt lat="44.83728219996078" lon="9.266081483165378"><ele>797.0</ele><time>2026-03-28T09:40:41Z</time></trkpt><trkpt lat="44.83735763978825" lon="9.26614721388982"><ele>799.3333333333333</ele><time>2026-03-28T09:40:43Z</time></trkpt><trkpt lat="44.837448988411104" lon="9.266275109468312"><ele>801.6666666666666</ele><time>2026-03-28T09:40:45Z</time></trkpt><trkpt lat="44.8374868901275" lon="9.266362137316861"><ele>804.0</ele><time>2026-03-28T09:40:46Z</time></trkpt><trkpt lat="44.83752361573407" lon="9.266450351039747"><ele>802.6</ele><time>2026-03-28T09:40:47Z</time></trkpt><trkpt lat="44.83759174890216" lon="9.26654898617097"><ele>801.2</ele><time>2026-03-28T09:40:48Z</time></trkpt><trkpt lat="44.8376553672732" lon="9.266644760563256"><ele>799.8000000000001</ele><time>2026-03-28T09:40:49Z</time></trkpt><trkpt lat="44.83768037464798" lon="9.26682746516047"><ele>798.4000000000001</ele><time>2026-03-28T09:40:51Z</time></trkpt><trkpt lat="44.83768849577196" lon="9.26696870017734"><ele>797.0</ele><time>2026-03-28T09:40:52Z</time></trkpt><trkpt lat="44.83770501988981" lon="9.267113822808854"><ele>797.0000000000001</ele><time>2026-03-28T09:40:53Z</time></trkpt><trkpt lat="44.83772241066679" lon="9.267247698441553"><ele>797.0</ele><time>2026-03-28T09:40:54Z</time></trkpt><trkpt lat="44.83774616809039" lon="9.267359308008185"><ele>797.0</ele><time>2026-03-28T09:40:55Z</time></trkpt><trkpt lat="44.83775137628558" lon="9.267462434105061"><ele>797.0</ele><time>2026-03-28T09:40:56Z</time></trkpt><trkpt lat="44.8377201489212" lon="9.267576857832854"><ele>797.0000000000001</ele><time>2026-03-28T09:40:57Z</time></trkpt><trkpt lat="44.837683204312725" lon="9.267720344140836"><ele>797.0</ele><time>2026-03-28T09:40:58Z</time></trkpt><trkpt lat="44.837631125385386" lon="9.267872642810659"><ele>802.8333333333334</ele><time>2026-03-28T09:40:59Z</time></trkpt><trkpt lat="44.837600519007324" lon="9.26801530189276"><ele>808.6666666666667</ele><time>2026-03-28T09:41:00Z</time></trkpt><trkpt lat="44.837579069760956" lon="9.26812683002657"><ele>814.5</ele><time>2026-03-28T09:41:01Z</time></trkpt><trkpt lat="44.83752432251023" lon="9.268209972043781"><ele>820.3333333333333</ele><time>2026-03-28T09:41:02Z</time></trkpt><trkpt lat="44.837458278183654" lon="9.268291045347366"><ele>826.1666666666666</ele><time>2026-03-28T09:41:03Z</time></trkpt><trkpt lat="44.837390817030766" lon="9.268378805082813"><ele>832.0</ele><time>2026-03-28T09:41:04Z</time></trkpt><trkpt lat="44.837317818986214" lon="9.268492526708863"><ele>832.0</ele><time>2026-03-28T09:41:05Z</time></trkpt><trkpt lat="44.83724788784302" lon="9.268625928161098"><ele>832.0</ele><time>2026-03-28T09:41:06Z</time></trkpt><trkpt lat="44.837172070225535" lon="9.268754035447794"><ele>832.0</ele><time>2026-03-28T09:41:07Z</time></trkpt><trkpt lat="44.83710873733182" lon="9.268887126597276"><ele>832.0</ele><time>2026-03-28T09:41:08Z</time></trkpt><trkpt lat="44.83705967003087" lon="9.26899024471377"><ele>832.0</ele><time>2026-03-28T09:41:09Z</time></trkpt><trkpt lat="44.837008826512786" lon="9.26910309257646"><ele>830.5</ele><time>2026-03-28T09:41:10Z</time></trkpt><trkpt lat="44.836937464078304" lon="9.269257703361497"><ele>829.0</ele><time>2026-03-28T09:41:11Z</time></trkpt><trkpt lat="44.836873421634486" lon="9.26940677654861"><ele>827.5</ele><time>2026-03-28T09:41:12Z</time></trkpt><trkpt lat="44.83679754274375" lon="9.269526276403221"><ele>826.0</ele><time>2026-03-28T09:41:13Z</time></trkpt><trkpt lat="44.83674307521036" lon="9.269631619505086"><ele>830.0</ele><time>2026-03-28T09:41:14Z</time></trkpt><trkpt lat="44.83674535385989" lon="9.269743558597845"><ele>834.0</ele><time>2026-03-28T09:41:15Z</time></trkpt><trkpt lat="44.83677523795684" lon="9.269869111629108"><ele>838.0</ele><time>2026-03-28T09:41:16Z</time></trkpt><trkpt lat="44.836780474465385" lon="9.270042046864004"><ele>842.0</ele><time>2026-03-28T09:41:18Z</time></trkpt><trkpt lat="44.8367364189273" lon="9.270144480511162"><ele>846.0</ele><time>2026-03-28T09:41:19Z</time></trkpt><trkpt lat="44.836640045804295" lon="9.270294362797175"><ele>846.0</ele><time>2026-03-28T09:41:20Z</time></trkpt><trkpt lat="44.83654648246614" lon="9.270419105999895"><ele>846.0</ele><time>2026-03-28T09:41:21Z</time></trkpt><trkpt lat="44.83648147103491" lon="9.27049158543622"><ele>846.0</ele><time>2026-03-28T09:41:22Z</time></trkpt><trkpt lat="44.83640812180551" lon="9.270541457806821"><ele>846.0</ele><time>2026-03-28T09:41:23Z</time></trkpt><trkpt lat="44.83633378989803" lon="9.270590973633132"><ele>846.0</ele><time>2026-03-28T09:41:24Z</time></trkpt><trkpt lat="44.83625928323554" lon="9.270648418936881"><ele>843.8</ele><time>2026-03-28T09:41:25Z</time></trkpt><trkpt lat="44.83620359844641" lon="9.270733519454874"><ele>841.5999999999999</ele><time>2026-03-28T09:41:26Z</time></trkpt><trkpt lat="44.836162852987556" lon="9.270888893989346"><ele>839.4</ele><time>2026-03-28T09:41:26.999Z</time></trkpt><trkpt lat="44.83613638949054" lon="9.271031896695124"><ele>837.2</ele><time>2026-03-28T09:41:27.999Z</time></trkpt><trkpt lat="44.83609638200523" lon="9.271107184498215"><ele>835.0</ele><time>2026-03-28T09:41:28.999Z</time></trkpt><trkpt lat="44.83602957588537" lon="9.271168236529526"><ele>838.8</ele><time>2026-03-28T09:41:29.999Z</time></trkpt><trkpt lat="44.835969155765724" lon="9.271219633996603"><ele>842.6</ele><time>2026-03-28T09:41:30.999Z</time></trkpt><trkpt lat="44.835895698348416" lon="9.271242692874429"><ele>846.4000000000001</ele><time>2026-03-28T09:41:31.999Z</time></trkpt><trkpt lat="44.83578984842817" lon="9.271253733503396"><ele>850.2</ele><time>2026-03-28T09:41:32.999Z</time></trkpt><trkpt lat="44.835657912640315" lon="9.271245459312192"><ele>854.0</ele><time>2026-03-28T09:41:33.999Z</time></trkpt><trkpt lat="44.835537565094135" lon="9.271281625168578"><ele>854.0</ele><time>2026-03-28T09:41:34.999Z</time></trkpt><trkpt lat="44.83545526149209" lon="9.271346849922544"><ele>854.0000000000001</ele><time>2026-03-28T09:41:35.999Z</time></trkpt><trkpt lat="44.83530442820227" lon="9.271338734545965"><ele>854.0000000000001</ele><time>2026-03-28T09:41:37.999Z</time></trkpt><trkpt lat="44.8352153890779" lon="9.271339201700389"><ele>854.0</ele><time>2026-03-28T09:41:39.999Z</time></trkpt><trkpt lat="44.83522576109944" lon="9.271488401302495"><ele>854.0</ele><time>2026-03-28T09:41:41.999Z</time></trkpt><trkpt lat="44.83527494604" lon="9.271614464439377"><ele>851.6</ele><time>2026-03-28T09:41:42.999Z</time></trkpt><trkpt lat="44.83535095684665" lon="9.271739492258375"><ele>849.2</ele><time>2026-03-28T09:41:43.999Z</time></trkpt><trkpt lat="44.8354521528061" lon="9.27180712106675"><ele>846.8000000000001</ele><time>2026-03-28T09:41:44.999Z</time></trkpt><trkpt lat="44.835533155247546" lon="9.27190586764881"><ele>844.4000000000001</ele><time>2026-03-28T09:41:45.999Z</time></trkpt><trkpt lat="44.83560492612226" lon="9.271987004819376"><ele>842.0</ele><time>2026-03-28T09:41:46.999Z</time></trkpt><trkpt lat="44.83565512648165" lon="9.272065948749761"><ele>842.0000000000001</ele><time>2026-03-28T09:41:47.999Z</time></trkpt><trkpt lat="44.83571534212172" lon="9.272136455972216"><ele>842.0</ele><time>2026-03-28T09:41:48.999Z</time></trkpt><trkpt lat="44.83577343626499" lon="9.272229358136524"><ele>842.0</ele><time>2026-03-28T09:41:49.999Z</time></trkpt><trkpt lat="44.83585352689658" lon="9.272311796540846"><ele>842.0</ele><time>2026-03-28T09:41:50.999Z</time></trkpt><trkpt lat="44.83591226419873" lon="9.272374009669475"><ele>842.0000000000001</ele><time>2026-03-28T09:41:51.999Z</time></trkpt><trkpt lat="44.835968531147714" lon="9.272497902369912"><ele>842.0</ele><time>2026-03-28T09:41:53.999Z</time></trkpt><trkpt lat="44.83592867210302" lon="9.272669067012863"><ele>844.6</ele><time>2026-03-28T09:41:55.999Z</time></trkpt><trkpt lat="44.835896397915704" lon="9.272757287941367"><ele>847.2</ele><time>2026-03-28T09:41:56.999Z</time></trkpt><trkpt lat="44.83584668737984" lon="9.272851807534918"><ele>849.8</ele><time>2026-03-28T09:41:57.999Z</time></trkpt><trkpt lat="44.83578553413623" lon="9.272942107984756"><ele>852.4</ele><time>2026-03-28T09:41:58.999Z</time></trkpt><trkpt lat="44.8356851446271" lon="9.273045851315823"><ele>855.0</ele><time>2026-03-28T09:41:59.999Z</time></trkpt><trkpt lat="44.83559965964834" lon="9.273156729410298"><ele>855.0</ele><time>2026-03-28T09:42:00.999Z</time></trkpt><trkpt lat="44.83555262006638" lon="9.273303663485933"><ele>855.0</ele><time>2026-03-28T09:42:01.999Z</time></trkpt><trkpt lat="44.83548499012247" lon="9.273451221070497"><ele>855.0</ele><time>2026-03-28T09:42:02.999Z</time></trkpt><trkpt lat="44.83540966376879" lon="9.273594497412775"><ele>855.0</ele><time>2026-03-28T09:42:03.999Z</time></trkpt><trkpt lat="44.83535224888097" lon="9.273720304094445"><ele>855.0</ele><time>2026-03-28T09:42:04.999Z</time></trkpt><trkpt lat="44.83529995698306" lon="9.273862134654552"><ele>855.0</ele><time>2026-03-28T09:42:05.999Z</time></trkpt><trkpt lat="44.83521580160259" lon="9.274019916404633"><ele>855.0</ele><time>2026-03-28T09:42:06.999Z</time></trkpt><trkpt lat="44.835142740605605" lon="9.274158310227687"><ele>855.0</ele><time>2026-03-28T09:42:07.999Z</time></trkpt><trkpt lat="44.83508385960099" lon="9.274278232744079"><ele>856.0</ele><time>2026-03-28T09:42:08.999Z</time></trkpt><trkpt lat="44.835025798247166" lon="9.274400814867121"><ele>857.0</ele><time>2026-03-28T09:42:09.999Z</time></trkpt><trkpt lat="44.834973927740485" lon="9.274556307418756"><ele>858.0</ele><time>2026-03-28T09:42:10.999Z</time></trkpt><trkpt lat="44.83490411285547" lon="9.274678811588382"><ele>859.0</ele><time>2026-03-28T09:42:12.001Z</time></trkpt><trkpt lat="44.83485325424609" lon="9.274767295604539"><ele>860.0</ele><time>2026-03-28T09:42:13.001Z</time></trkpt><trkpt lat="44.834773856307976" lon="9.274890107867659"><ele>860.0000000000001</ele><time>2026-03-28T09:42:15.001Z</time></trkpt><trkpt lat="44.83472338852328" lon="9.274966475885988"><ele>860.0</ele><time>2026-03-28T09:42:16.001Z</time></trkpt><trkpt lat="44.83466609636734" lon="9.275052508265649"><ele>860.0</ele><time>2026-03-28T09:42:17.001Z</time></trkpt><trkpt lat="44.834591062445895" lon="9.275150457384715"><ele>860.0</ele><time>2026-03-28T09:42:18.001Z</time></trkpt><trkpt lat="44.8345184372408" lon="9.275241516987329"><ele>860.0000000000001</ele><time>2026-03-28T09:42:19.001Z</time></trkpt><trkpt lat="44.83447106743364" lon="9.27532245474048"><ele>860.0</ele><time>2026-03-28T09:42:20.001Z</time></trkpt><trkpt lat="44.834439087410956" lon="9.275421078111197"><ele>860.0000000000001</ele><time>2026-03-28T09:42:21.001Z</time></trkpt><trkpt lat="44.83442424510938" lon="9.275529343770048"><ele>860.0</ele><time>2026-03-28T09:42:22.001Z</time></trkpt><trkpt lat="44.83444835415369" lon="9.275653866386847"><ele>860.0</ele><time>2026-03-28T09:42:23.001Z</time></trkpt><trkpt lat="44.83443627026384" lon="9.275762858825415"><ele>860.0</ele><time>2026-03-28T09:42:24.001Z</time></trkpt><trkpt lat="44.83439473938766" lon="9.275850705902748"><ele>860.0000000000001</ele><time>2026-03-28T09:42:25.001Z</time></trkpt><trkpt lat="44.83434260229104" lon="9.275919870918111"><ele>860.0</ele><time>2026-03-28T09:42:26.001Z</time></trkpt><trkpt lat="44.83424248912551" lon="9.275973981792335"><ele>864.0</ele><time>2026-03-28T09:42:28.001Z</time></trkpt><trkpt lat="44.834123335467694" lon="9.275915291062255"><ele>868.0</ele><time>2026-03-28T09:42:30.001Z</time></trkpt><trkpt lat="44.83405817040286" lon="9.275929357981598"><ele>872.0</ele><time>2026-03-28T09:42:31.001Z</time></trkpt><trkpt lat="44.83394270410256" lon="9.276057763707161"><ele>876.0</ele><time>2026-03-28T09:42:33.001Z</time></trkpt><trkpt lat="44.83384390132064" lon="9.276132833072921"><ele>876.0</ele><time>2026-03-28T09:42:34.001Z</time></trkpt><trkpt lat="44.83376713207144" lon="9.276149958394717"><ele>876.0</ele><time>2026-03-28T09:42:35.001Z</time></trkpt><trkpt lat="44.83366952791783" lon="9.276111025304996"><ele>876.0</ele><time>2026-03-28T09:42:36.001Z</time></trkpt><trkpt lat="44.83359233372558" lon="9.276112417356288"><ele>876.0</ele><time>2026-03-28T09:42:37.001Z</time></trkpt><trkpt lat="44.83352898365043" lon="9.276178252175933"><ele>876.0</ele><time>2026-03-28T09:42:38.001Z</time></trkpt><trkpt lat="44.83346894406148" lon="9.27624752572499"><ele>876.0</ele><time>2026-03-28T09:42:39.001Z</time></trkpt><trkpt lat="44.83335698630673" lon="9.276201059561886"><ele>881.1999999999999</ele><time>2026-03-28T09:42:41Z</time></trkpt><trkpt lat="44.83327596776098" lon="9.276168192944468"><ele>886.3999999999999</ele><time>2026-03-28T09:42:42Z</time></trkpt><trkpt lat="44.83319860746884" lon="9.276099234733481"><ele>891.6</ele><time>2026-03-28T09:42:43Z</time></trkpt><trkpt lat="44.833111350791484" lon="9.275997338936214"><ele>896.8</ele><time>2026-03-28T09:42:45Z</time></trkpt><trkpt lat="44.83304694923127" lon="9.276004906550368"><ele>902.0</ele><time>2026-03-28T09:42:46Z</time></trkpt><trkpt lat="44.832949904471995" lon="9.276033446781412"><ele>902.0</ele><time>2026-03-28T09:42:48Z</time></trkpt><trkpt lat="44.83288753654155" lon="9.276001755952286"><ele>902.0</ele><time>2026-03-28T09:42:49Z</time></trkpt><trkpt lat="44.83279770650155" lon="9.275994876335703"><ele>902.0</ele><time>2026-03-28T09:42:51Z</time></trkpt><trkpt lat="44.83264224966534" lon="9.276074015444967"><ele>902.0</ele><time>2026-03-28T09:42:54Z</time></trkpt><trkpt lat="44.83258037282865" lon="9.276159363214514"><ele>902.0</ele><time>2026-03-28T09:42:55Z</time></trkpt><trkpt lat="44.832532359185535" lon="9.276254877909807"><ele>905.6666666666667</ele><time>2026-03-28T09:42:56Z</time></trkpt><trkpt lat="44.83245954828666" lon="9.276327985605697"><ele>909.3333333333334</ele><time>2026-03-28T09:42:58Z</time></trkpt><trkpt lat="44.83237000860324" lon="9.276331718114168"><ele>913.0</ele><time>2026-03-28T09:43:00Z</time></trkpt><trkpt lat="44.83231804150805" lon="9.27642799089091"><ele>916.6666666666667</ele><time>2026-03-28T09:43:02Z</time></trkpt><trkpt lat="44.83229202361079" lon="9.276511111942927"><ele>920.3333333333334</ele><time>2026-03-28T09:43:03Z</time></trkpt><trkpt lat="44.832264442519346" lon="9.276626460530498"><ele>924.0</ele><time>2026-03-28T09:43:04Z</time></trkpt><trkpt lat="44.83223520300588" lon="9.276754958285023"><ele>924.0</ele><time>2026-03-28T09:43:05Z</time></trkpt><trkpt lat="44.83219348300205" lon="9.276857989272752"><ele>924.0</ele><time>2026-03-28T09:43:06Z</time></trkpt><trkpt lat="44.832151016488886" lon="9.276959163494325"><ele>924.0</ele><time>2026-03-28T09:43:07Z</time></trkpt><trkpt lat="44.832114942567934" lon="9.277048478308553"><ele>924.0</ele><time>2026-03-28T09:43:08Z</time></trkpt><trkpt lat="44.832033979643036" lon="9.277135215652313"><ele>924.0</ele><time>2026-03-28T09:43:09Z</time></trkpt><trkpt lat="44.83194315350404" lon="9.277210704237554"><ele>924.0</ele><time>2026-03-28T09:43:10Z</time></trkpt><trkpt lat="44.83184574708831" lon="9.277275602052445"><ele>928.4000000000001</ele><time>2026-03-28T09:43:11Z</time></trkpt><trkpt lat="44.83173542577807" lon="9.277234979779031"><ele>932.8000000000001</ele><time>2026-03-28T09:43:12Z</time></trkpt><trkpt lat="44.83171443766583" lon="9.277406973166421"><ele>937.1999999999999</ele><time>2026-03-28T09:43:14Z</time></trkpt><trkpt lat="44.831608834170325" lon="9.277467750332614"><ele>941.5999999999999</ele><time>2026-03-28T09:43:16Z</time></trkpt><trkpt lat="44.83154617450819" lon="9.277493863822576"><ele>946.0</ele><time>2026-03-28T09:43:17Z</time></trkpt><trkpt lat="44.83151321278808" lon="9.277571110235877"><ele>945.9999999999999</ele><time>2026-03-28T09:43:18Z</time></trkpt><trkpt lat="44.8314916468148" lon="9.277705345255171"><ele>946.0</ele><time>2026-03-28T09:43:19Z</time></trkpt><trkpt lat="44.83146528502578" lon="9.277811402649158"><ele>946.0</ele><time>2026-03-28T09:43:20Z</time></trkpt><trkpt lat="44.83143122930406" lon="9.277897820593529"><ele>946.0</ele><time>2026-03-28T09:43:21Z</time></trkpt><trkpt lat="44.83139029599789" lon="9.278003212654845"><ele>945.9999999999999</ele><time>2026-03-28T09:43:22Z</time></trkpt><trkpt lat="44.831334915821806" lon="9.278102860592812"><ele>946.0</ele><time>2026-03-28T09:43:24Z</time></trkpt><trkpt lat="44.83127478221336" lon="9.278141693883748"><ele>945.8333333333333</ele><time>2026-03-28T09:43:25Z</time></trkpt><trkpt lat="44.83119942592979" lon="9.278234344648858"><ele>945.6666666666666</ele><time>2026-03-28T09:43:26Z</time></trkpt><trkpt lat="44.8311423532358" lon="9.27829032106391"><ele>945.5</ele><time>2026-03-28T09:43:27Z</time></trkpt><trkpt lat="44.831086277881056" lon="9.278351803430075"><ele>945.3333333333333</ele><time>2026-03-28T09:43:28Z</time></trkpt><trkpt lat="44.83101741331592" lon="9.278415166977016"><ele>945.1666666666666</ele><time>2026-03-28T09:43:29Z</time></trkpt><trkpt lat="44.830961049315405" lon="9.278469558260383"><ele>945.0</ele><time>2026-03-28T09:43:30Z</time></trkpt><trkpt lat="44.83090390607038" lon="9.278513888537827"><ele>948.2</ele><time>2026-03-28T09:43:32Z</time></trkpt><trkpt lat="44.830878574457884" lon="9.278612453121308"><ele>951.4</ele><time>2026-03-28T09:43:38.999Z</time></trkpt><trkpt lat="44.830834629850756" lon="9.278756796707569"><ele>954.5999999999999</ele><time>2026-03-28T09:43:40.999Z</time></trkpt><trkpt lat="44.830809005301425" lon="9.278894035421393"><ele>957.8</ele><time>2026-03-28T09:43:42.999Z</time></trkpt><trkpt lat="44.83072866507812" lon="9.27896195134289"><ele>961.0</ele><time>2026-03-28T09:43:44.999Z</time></trkpt><trkpt lat="44.830651225098606" lon="9.279010864182593"><ele>961.4</ele><time>2026-03-28T09:43:45.999Z</time></trkpt><trkpt lat="44.830579599622666" lon="9.279099355255559"><ele>961.8</ele><time>2026-03-28T09:43:47.999Z</time></trkpt><trkpt lat="44.83046552065501" lon="9.279129836630947"><ele>962.1999999999999</ele><time>2026-03-28T09:43:49.999Z</time></trkpt><trkpt lat="44.83038948041566" lon="9.279195527179358"><ele>962.5999999999999</ele><time>2026-03-28T09:43:50.999Z</time></trkpt><trkpt lat="44.83030703138622" lon="9.27928289291667"><ele>963.0</ele><time>2026-03-28T09:43:52.999Z</time></trkpt><trkpt lat="44.83024510200554" lon="9.279324491749522"><ele>963.0</ele><time>2026-03-28T09:43:53.999Z</time></trkpt><trkpt lat="44.83017561379616" lon="9.279363321194515"><ele>963.0</ele><time>2026-03-28T09:43:54.999Z</time></trkpt><trkpt lat="44.83009241591561" lon="9.27938836452993"><ele>963.0</ele><time>2026-03-28T09:43:55.999Z</time></trkpt><trkpt lat="44.829994721951635" lon="9.279321265273884"><ele>963.0</ele><time>2026-03-28T09:43:57.999Z</time></trkpt><trkpt lat="44.829999056038105" lon="9.279232610405812"><ele>963.0</ele><time>2026-03-28T09:43:58.999Z</time></trkpt><trkpt lat="44.83001692107695" lon="9.279145143611297"><ele>963.0</ele><time>2026-03-28T09:43:59.999Z</time></trkpt><trkpt lat="44.83003539888211" lon="9.279044044334027"><ele>965.0</ele><time>2026-03-28T09:44:00.999Z</time></trkpt><trkpt lat="44.829982267807736" lon="9.278949067577178"><ele>967.0</ele><time>2026-03-28T09:44:02.999Z</time></trkpt><trkpt lat="44.829846537073" lon="9.27902029513217"><ele>969.0</ele><time>2026-03-28T09:44:04.999Z</time></trkpt><trkpt lat="44.829750803969006" lon="9.279085140839927"><ele>971.0</ele><time>2026-03-28T09:44:05.999Z</time></trkpt><trkpt lat="44.829654872656796" lon="9.279108138514228"><ele>973.0</ele><time>2026-03-28T09:44:06.999Z</time></trkpt><trkpt lat="44.829561396213784" lon="9.279125931583582"><ele>972.9999999999999</ele><time>2026-03-28T09:44:07.999Z</time></trkpt><trkpt lat="44.82949943972272" lon="9.279096709299065"><ele>973.0</ele><time>2026-03-28T09:44:08.999Z</time></trkpt><trkpt lat="44.82949008798993" lon="9.278944286139364"><ele>973.0</ele><time>2026-03-28T09:44:10.999Z</time></trkpt><trkpt lat="44.82951465111416" lon="9.278843304306545"><ele>973.0</ele><time>2026-03-28T09:44:11.999Z</time></trkpt><trkpt lat="44.829537324378165" lon="9.27870447967406"><ele>972.9999999999999</ele><time>2026-03-28T09:44:12.999Z</time></trkpt><trkpt lat="44.82953394621744" lon="9.278599008157208"><ele>973.0</ele><time>2026-03-28T09:44:13.999Z</time></trkpt><trkpt lat="44.82948167177221" lon="9.278519961436727"><ele>974.5999999999999</ele><time>2026-03-28T09:44:15.999Z</time></trkpt><trkpt lat="44.82936842461216" lon="9.278430702060705"><ele>976.1999999999999</ele><time>2026-03-28T09:44:18.001Z</time></trkpt><trkpt lat="44.829306889537975" lon="9.278315922045127"><ele>977.8</ele><time>2026-03-28T09:44:21.001Z</time></trkpt><trkpt lat="44.829307878058515" lon="9.278224076395645"><ele>979.4</ele><time>2026-03-28T09:44:22.001Z</time></trkpt><trkpt lat="44.829314700035084" lon="9.278126659064403"><ele>981.0</ele><time>2026-03-28T09:44:24.001Z</time></trkpt><trkpt lat="44.82931728555894" lon="9.27797820525249"><ele>982.1999999999999</ele><time>2026-03-28T09:44:25.001Z</time></trkpt><trkpt lat="44.829338101528364" lon="9.277868369853659"><ele>983.3999999999999</ele><time>2026-03-28T09:44:26.001Z</time></trkpt><trkpt lat="44.8293583846747" lon="9.277739155404058"><ele>984.6</ele><time>2026-03-28T09:44:27.001Z</time></trkpt><trkpt lat="44.82936707346634" lon="9.277637943343738"><ele>985.8</ele><time>2026-03-28T09:44:29.001Z</time></trkpt><trkpt lat="44.82939639843123" lon="9.27748040595172"><ele>987.0</ele><time>2026-03-28T09:44:34.001Z</time></trkpt><trkpt lat="44.82944160522898" lon="9.277355222740255"><ele>987.0</ele><time>2026-03-28T09:44:36.001Z</time></trkpt><trkpt lat="44.82938497275017" lon="9.277279615410777"><ele>987.0</ele><time>2026-03-28T09:44:38.001Z</time></trkpt><trkpt lat="44.8292916224658" lon="9.277211214906677"><ele>987.0</ele><time>2026-03-28T09:44:40.001Z</time></trkpt><trkpt lat="44.82922917874489" lon="9.277164742683606"><ele>987.0</ele><time>2026-03-28T09:44:41.001Z</time></trkpt><trkpt lat="44.82914897582606" lon="9.277108454556194"><ele>987.0</ele><time>2026-03-28T09:44:42.001Z</time></trkpt><trkpt lat="44.82907841610014" lon="9.277046137545472"><ele>987.0</ele><time>2026-03-28T09:44:43.001Z</time></trkpt><trkpt lat="44.82901698528436" lon="9.27697963557924"><ele>990.0</ele><time>2026-03-28T09:44:44.001Z</time></trkpt><trkpt lat="44.82899225350704" lon="9.276844097269292"><ele>993.0</ele><time>2026-03-28T09:44:45Z</time></trkpt><trkpt lat="44.828979801418264" lon="9.276707763434002"><ele>996.0</ele><time>2026-03-28T09:44:47Z</time></trkpt><trkpt lat="44.82903865196434" lon="9.276566245300272"><ele>999.0</ele><time>2026-03-28T09:44:49Z</time></trkpt><trkpt lat="44.82905615208898" lon="9.276460420795116"><ele>1002.0</ele><time>2026-03-28T09:44:50Z</time></trkpt><trkpt lat="44.82909882574798" lon="9.27629301477808"><ele>1002.0</ele><time>2026-03-28T09:44:51Z</time></trkpt><trkpt lat="44.82915195979729" lon="9.27622519835921"><ele>1002.0</ele><time>2026-03-28T09:44:52Z</time></trkpt><trkpt lat="44.82918928485254" lon="9.276139546898154"><ele>1002.0</ele><time>2026-03-28T09:44:53Z</time></trkpt><trkpt lat="44.8292252415652" lon="9.276050766344516"><ele>1002.0</ele><time>2026-03-28T09:44:54Z</time></trkpt><trkpt lat="44.82924564153014" lon="9.275965098687927"><ele>1002.0</ele><time>2026-03-28T09:44:55Z</time></trkpt><trkpt lat="44.82924442246091" lon="9.275857452151287"><ele>1002.0</ele><time>2026-03-28T09:44:56Z</time></trkpt><trkpt lat="44.829260437643434" lon="9.275749457033532"><ele>1002.0</ele><time>2026-03-28T09:44:57Z</time></trkpt><trkpt lat="44.82925671859021" lon="9.275658531804055"><ele>1001.2</ele><time>2026-03-28T09:44:59Z</time></trkpt><trkpt lat="44.829162729554426" lon="9.275592844582086"><ele>1000.4000000000001</ele><time>2026-03-28T09:45:01Z</time></trkpt><trkpt lat="44.82913444561593" lon="9.275450946929691"><ele>999.5999999999999</ele><time>2026-03-28T09:45:03Z</time></trkpt><trkpt lat="44.829115841451525" lon="9.275329485438151"><ele>998.8</ele><time>2026-03-28T09:45:04Z</time></trkpt><trkpt lat="44.82906592661488" lon="9.275222787563878"><ele>998.0</ele><time>2026-03-28T09:45:05Z</time></trkpt><trkpt lat="44.829028805967695" lon="9.27514594528367"><ele>998.0000000000001</ele><time>2026-03-28T09:45:06Z</time></trkpt><trkpt lat="44.82893679801721" lon="9.275093309118027"><ele>998.0</ele><time>2026-03-28T09:45:08Z</time></trkpt><trkpt lat="44.82886770473397" lon="9.275006128836118"><ele>998.0</ele><time>2026-03-28T09:45:11Z</time></trkpt><trkpt lat="44.82882924183639" lon="9.274931985298831"><ele>998.0</ele><time>2026-03-28T09:45:13Z</time></trkpt><trkpt lat="44.8288264337646" lon="9.274837167941936"><ele>998.0000000000001</ele><time>2026-03-28T09:45:14Z</time></trkpt><trkpt lat="44.82882535651466" lon="9.274729252639668"><ele>998.0</ele><time>2026-03-28T09:45:15Z</time></trkpt><trkpt lat="44.82881776810993" lon="9.274618934920337"><ele>998.0</ele><time>2026-03-28T09:45:17Z</time></trkpt><trkpt lat="44.82880534810876" lon="9.274759305503016"><ele>998.0</ele><time>2026-03-28T09:46:01.999Z</time></trkpt><trkpt lat="44.828805256180104" lon="9.274895081275726"><ele>998.0</ele><time>2026-03-28T09:46:03.999Z</time></trkpt><trkpt lat="44.82885022354896" lon="9.274985948372853"><ele>998.0</ele><time>2026-03-28T09:46:05.999Z</time></trkpt><trkpt lat="44.82894089745091" lon="9.275057654007444"><ele>998.0</ele><time>2026-03-28T09:46:07.999Z</time></trkpt><trkpt lat="44.829012358936524" lon="9.275123738784306"><ele>998.0000000000001</ele><time>2026-03-28T09:46:09.999Z</time></trkpt><trkpt lat="44.829067704224066" lon="9.275206458030132"><ele>998.0</ele><time>2026-03-28T09:46:11.999Z</time></trkpt><trkpt lat="44.82911668841439" lon="9.275310603821827"><ele>998.0</ele><time>2026-03-28T09:46:13.999Z</time></trkpt><trkpt lat="44.8291599090845" lon="9.2754179016311"><ele>998.0</ele><time>2026-03-28T09:46:15.999Z</time></trkpt><trkpt lat="44.82918822736968" lon="9.275536636316568"><ele>998.0000000000001</ele><time>2026-03-28T09:46:17.999Z</time></trkpt><trkpt lat="44.82920910842075" lon="9.27565349871914"><ele>998.0</ele><time>2026-03-28T09:46:20.999Z</time></trkpt><trkpt lat="44.82925207260674" lon="9.275802010189333"><ele>999.0</ele><time>2026-03-28T09:46:23.001Z</time></trkpt><trkpt lat="44.8292876748718" lon="9.27596879289778"><ele>1000.0</ele><time>2026-03-28T09:46:25.001Z</time></trkpt><trkpt lat="44.82926386154636" lon="9.276150576819546"><ele>1001.0</ele><time>2026-03-28T09:46:27.001Z</time></trkpt><trkpt lat="44.8292317601907" lon="9.276279789031612"><ele>1002.0</ele><time>2026-03-28T09:46:29.001Z</time></trkpt><trkpt lat="44.829174369637805" lon="9.276404738195529"><ele>1002.2</ele><time>2026-03-28T09:46:31.001Z</time></trkpt><trkpt lat="44.82913783363299" lon="9.276522168031214"><ele>1002.4000000000001</ele><time>2026-03-28T09:46:32.001Z</time></trkpt><trkpt lat="44.82910574613126" lon="9.276618253369934"><ele>1002.5999999999999</ele><time>2026-03-28T09:46:33.001Z</time></trkpt><trkpt lat="44.82903571804769" lon="9.27671395095531"><ele>1002.8</ele><time>2026-03-28T09:46:35.001Z</time></trkpt><trkpt lat="44.82902465356574" lon="9.276824456134356"><ele>1003.0</ele><time>2026-03-28T09:46:37.001Z</time></trkpt><trkpt lat="44.82905631110684" lon="9.276984710320985"><ele>1002.9999999999999</ele><time>2026-03-28T09:46:39.001Z</time></trkpt><trkpt lat="44.829073776053264" lon="9.27707531397792"><ele>1003.0</ele><time>2026-03-28T09:46:40.001Z</time></trkpt><trkpt lat="44.82909330935078" lon="9.277163704009165"><ele>1003.0</ele><time>2026-03-28T09:46:41.001Z</time></trkpt><trkpt lat="44.82915696991494" lon="9.277275415108255"><ele>1003.0</ele><time>2026-03-28T09:46:43.001Z</time></trkpt><trkpt lat="44.82922400793744" lon="9.277299513726593"><ele>1002.9999999999999</ele><time>2026-03-28T09:46:44.001Z</time></trkpt><trkpt lat="44.82930355117639" lon="9.277361949207439"><ele>1003.0</ele><time>2026-03-28T09:46:47.001Z</time></trkpt><trkpt lat="44.82937038673257" lon="9.27744773384098"><ele>1003.3333333333333</ele><time>2026-03-28T09:46:49Z</time></trkpt><trkpt lat="44.829386481529404" lon="9.277586631400508"><ele>1003.6666666666666</ele><time>2026-03-28T09:46:51Z</time></trkpt><trkpt lat="44.829323557154254" lon="9.27770572295454"><ele>1004.0</ele><time>2026-03-28T09:46:53Z</time></trkpt><trkpt lat="44.8292945819584" lon="9.277813938941053"><ele>1004.3333333333333</ele><time>2026-03-28T09:46:56Z</time></trkpt><trkpt lat="44.82927838022242" lon="9.277903335051361"><ele>1004.6666666666666</ele><time>2026-03-28T09:46:57Z</time></trkpt><trkpt lat="44.82925665285415" lon="9.278005739689267"><ele>1005.0</ele><time>2026-03-28T09:46:58Z</time></trkpt><trkpt lat="44.82923039022467" lon="9.278088141097893"><ele>1005.1666666666666</ele><time>2026-03-28T09:46:59Z</time></trkpt><trkpt lat="44.82919515956256" lon="9.278177728904726"><ele>1005.3333333333333</ele><time>2026-03-28T09:47:00Z</time></trkpt><trkpt lat="44.82916753177218" lon="9.278263994163702"><ele>1005.5</ele><time>2026-03-28T09:47:01Z</time></trkpt><trkpt lat="44.82913098860718" lon="9.278367901569165"><ele>1005.6666666666666</ele><time>2026-03-28T09:47:02Z</time></trkpt><trkpt lat="44.8290885625675" lon="9.27845820572962"><ele>1005.8333333333333</ele><time>2026-03-28T09:47:03Z</time></trkpt><trkpt lat="44.8290467887101" lon="9.278527724193708"><ele>1006.0</ele><time>2026-03-28T09:47:04Z</time></trkpt><trkpt lat="44.82898823975011" lon="9.278639457873176"><ele>1005.9999999999999</ele><time>2026-03-28T09:47:06Z</time></trkpt><trkpt lat="44.82890067896368" lon="9.278674958045968"><ele>1006.0</ele><time>2026-03-28T09:47:09Z</time></trkpt><trkpt lat="44.828815243946785" lon="9.278723393485752"><ele>1006.0</ele><time>2026-03-28T09:47:11Z</time></trkpt><trkpt lat="44.828744060587084" lon="9.278824218979238"><ele>1006.0</ele><time>2026-03-28T09:47:13Z</time></trkpt><trkpt lat="44.828686716926214" lon="9.278879595327574"><ele>1005.9999999999999</ele><time>2026-03-28T09:47:14Z</time></trkpt><trkpt lat="44.82861177666926" lon="9.278927318983497"><ele>1006.0</ele><time>2026-03-28T09:47:16Z</time></trkpt><trkpt lat="44.8284998307836" lon="9.278933109479235"><ele>1008.8</ele><time>2026-03-28T09:47:19Z</time></trkpt><trkpt lat="44.82843722905961" lon="9.278889056870405"><ele>1011.5999999999999</ele><time>2026-03-28T09:47:21Z</time></trkpt><trkpt lat="44.82833952491935" lon="9.278922681008991"><ele>1014.4</ele><time>2026-03-28T09:47:23Z</time></trkpt><trkpt lat="44.828305127392674" lon="9.27900737407335"><ele>1017.2</ele><time>2026-03-28T09:47:24Z</time></trkpt><trkpt lat="44.828209394134056" lon="9.279115325482088"><ele>1020.0</ele><time>2026-03-28T09:47:26Z</time></trkpt><trkpt lat="44.82810473357407" lon="9.279199145019913"><ele>1020.5</ele><time>2026-03-28T09:47:28Z</time></trkpt><trkpt lat="44.82798034153431" lon="9.279212818137326"><ele>1021.0</ele><time>2026-03-28T09:47:30Z</time></trkpt><trkpt lat="44.827920008380644" lon="9.279241169949886"><ele>1021.5</ele><time>2026-03-28T09:47:31Z</time></trkpt><trkpt lat="44.82785075903307" lon="9.279275848192093"><ele>1022.0</ele><time>2026-03-28T09:47:32Z</time></trkpt><trkpt lat="44.82778676582391" lon="9.279287334755582"><ele>1022.5</ele><time>2026-03-28T09:47:34Z</time></trkpt><trkpt lat="44.827771083768766" lon="9.279167526806189"><ele>1023.0</ele><time>2026-03-28T09:47:36Z</time></trkpt><trkpt lat="44.82779649297559" lon="9.27905681262798"><ele>1022.5</ele><time>2026-03-28T09:47:36.999Z</time></trkpt><trkpt lat="44.827834380373545" lon="9.278922035820154"><ele>1022.0</ele><time>2026-03-28T09:47:37.999Z</time></trkpt><trkpt lat="44.82785427690977" lon="9.278794176749395"><ele>1021.5</ele><time>2026-03-28T09:47:38.999Z</time></trkpt><trkpt lat="44.827867701241594" lon="9.278703512098303"><ele>1021.0</ele><time>2026-03-28T09:47:39.999Z</time></trkpt><trkpt lat="44.827871719998335" lon="9.278594994504576"><ele>1020.5</ele><time>2026-03-28T09:47:41.999Z</time></trkpt><trkpt lat="44.827802830470574" lon="9.278589115245"><ele>1020.0</ele><time>2026-03-28T09:47:44.999Z</time></trkpt><trkpt lat="44.82779532583665" lon="9.278681985751073"><ele>1020.0</ele><time>2026-03-28T09:47:46.999Z</time></trkpt><trkpt lat="44.827689551893776" lon="9.278842153926053"><ele>1020.0</ele><time>2026-03-28T09:47:48.999Z</time></trkpt><trkpt lat="44.82759857296499" lon="9.278940806954932"><ele>1020.0</ele><time>2026-03-28T09:47:49.999Z</time></trkpt><trkpt lat="44.8275191904947" lon="9.279015524996012"><ele>1020.0</ele><time>2026-03-28T09:47:50.999Z</time></trkpt><trkpt lat="44.82744535284462" lon="9.279067357568064"><ele>1020.0</ele><time>2026-03-28T09:47:51.999Z</time></trkpt><trkpt lat="44.827379837024594" lon="9.279085747462407"><ele>1023.8</ele><time>2026-03-28T09:47:52.999Z</time></trkpt><trkpt lat="44.82731042118153" lon="9.279087780041385"><ele>1027.6</ele><time>2026-03-28T09:47:53.999Z</time></trkpt><trkpt lat="44.82719549914749" lon="9.279137087793117"><ele>1031.4</ele><time>2026-03-28T09:47:55.999Z</time></trkpt><trkpt lat="44.82706332317323" lon="9.279210617591039"><ele>1035.2</ele><time>2026-03-28T09:47:57.999Z</time></trkpt><trkpt lat="44.82698255770898" lon="9.2792568374403"><ele>1039.0</ele><time>2026-03-28T09:47:58.999Z</time></trkpt><trkpt lat="44.8269064764642" lon="9.279310099374698"><ele>1039.0</ele><time>2026-03-28T09:47:59.999Z</time></trkpt><trkpt lat="44.82684481062221" lon="9.279343159632063"><ele>1039.0</ele><time>2026-03-28T09:48:00.999Z</time></trkpt><trkpt lat="44.82676362026861" lon="9.279379855200954"><ele>1039.0</ele><time>2026-03-28T09:48:03.999Z</time></trkpt><trkpt lat="44.826688302645586" lon="9.279425163715542"><ele>1039.0</ele><time>2026-03-28T09:48:05.999Z</time></trkpt><trkpt lat="44.82657768780133" lon="9.27947704214124"><ele>1039.0</ele><time>2026-03-28T09:48:07.999Z</time></trkpt><trkpt lat="44.82647038294689" lon="9.279522016159524"><ele>1042.0</ele><time>2026-03-28T09:48:09.999Z</time></trkpt><trkpt lat="44.82639949669046" lon="9.279651501624718"><ele>1045.0</ele><time>2026-03-28T09:48:11.999Z</time></trkpt><trkpt lat="44.826340972620336" lon="9.279732168057496"><ele>1048.0</ele><time>2026-03-28T09:48:12.999Z</time></trkpt><trkpt lat="44.82628078302525" lon="9.279832048145284"><ele>1051.0</ele><time>2026-03-28T09:48:13.999Z</time></trkpt><trkpt lat="44.82622565596941" lon="9.279961427531653"><ele>1054.0</ele><time>2026-03-28T09:48:14.999Z</time></trkpt><trkpt lat="44.82618291568869" lon="9.280086958101295"><ele>1054.3333333333333</ele><time>2026-03-28T09:48:15.999Z</time></trkpt><trkpt lat="44.82613212592385" lon="9.280200411011363"><ele>1054.6666666666665</ele><time>2026-03-28T09:48:16.999Z</time></trkpt><trkpt lat="44.82609855521527" lon="9.280277959207108"><ele>1055.0</ele><time>2026-03-28T09:48:17.999Z</time></trkpt><trkpt lat="44.826046019211795" lon="9.280345329153045"><ele>1055.3333333333333</ele><time>2026-03-28T09:48:31.001Z</time></trkpt><trkpt lat="44.82603343348886" lon="9.280221120026974"><ele>1055.6666666666667</ele><time>2026-03-28T09:48:34.001Z</time></trkpt><trkpt lat="44.82603860673891" lon="9.280098931718323"><ele>1056.0</ele><time>2026-03-28T09:48:37.001Z</time></trkpt><trkpt lat="44.82603834611469" lon="9.27999129967358"><ele>1056.0</ele><time>2026-03-28T09:48:40.001Z</time></trkpt><trkpt lat="44.826030557754756" lon="9.279899420690873"><ele>1056.0</ele><time>2026-03-28T09:48:42.001Z</time></trkpt><trkpt lat="44.825998238762246" lon="9.279780699038879"><ele>1056.0</ele><time>2026-03-28T09:48:44.001Z</time></trkpt><trkpt lat="44.825968019746085" lon="9.27957676746269"><ele>1056.0</ele><time>2026-03-28T09:48:46.001Z</time></trkpt><trkpt lat="44.82592113730414" lon="9.27941377393584"><ele>1056.0</ele><time>2026-03-28T09:48:47.001Z</time></trkpt><trkpt lat="44.82587808988237" lon="9.279281499582469"><ele>1057.3333333333333</ele><time>2026-03-28T09:48:48.001Z</time></trkpt><trkpt lat="44.825845618916965" lon="9.279171786696892"><ele>1058.6666666666667</ele><time>2026-03-28T09:48:49Z</time></trkpt><trkpt lat="44.82582369814227" lon="9.279076003945688"><ele>1060.0</ele><time>2026-03-28T09:48:50Z</time></trkpt><trkpt lat="44.82581306163366" lon="9.278974962139118"><ele>1061.3333333333335</ele><time>2026-03-28T09:48:51Z</time></trkpt><trkpt lat="44.82581808425422" lon="9.278866172035743"><ele>1062.6666666666667</ele><time>2026-03-28T09:48:52Z</time></trkpt><trkpt lat="44.82584537280465" lon="9.27877206152803"><ele>1064.0</ele><time>2026-03-28T09:48:53Z</time></trkpt><trkpt lat="44.82585683485741" lon="9.278649866931396"><ele>1064.0</ele><time>2026-03-28T09:48:54Z</time></trkpt><trkpt lat="44.825862697350736" lon="9.278527023984124"><ele>1064.0</ele><time>2026-03-28T09:48:55Z</time></trkpt><trkpt lat="44.825874959233616" lon="9.278403903841083"><ele>1064.0</ele><time>2026-03-28T09:48:56Z</time></trkpt><trkpt lat="44.82589352870779" lon="9.278297942403757"><ele>1064.0</ele><time>2026-03-28T09:48:57Z</time></trkpt><trkpt lat="44.825914395211214" lon="9.278181861939464"><ele>1064.0</ele><time>2026-03-28T09:48:58Z</time></trkpt><trkpt lat="44.82593673126135" lon="9.278086155682784"><ele>1064.0</ele><time>2026-03-28T09:48:59Z</time></trkpt><trkpt lat="44.8259125492365" lon="9.277944459174735"><ele>1062.6666666666667</ele><time>2026-03-28T09:49:01Z</time></trkpt><trkpt lat="44.825870709465086" lon="9.277869712589558"><ele>1061.3333333333335</ele><time>2026-03-28T09:49:03Z</time></trkpt><trkpt lat="44.825918209784525" lon="9.277803645478272"><ele>1060.0</ele><time>2026-03-28T09:49:06Z</time></trkpt><trkpt lat="44.8259191778538" lon="9.277700332367475"><ele>1058.6666666666667</ele><time>2026-03-28T09:49:43.999Z</time></trkpt><trkpt lat="44.825931373634596" lon="9.277604288487638"><ele>1057.3333333333333</ele><time>2026-03-28T09:49:45.999Z</time></trkpt><trkpt lat="44.82593973300157" lon="9.277424982282895"><ele>1056.0</ele><time>2026-03-28T09:49:47.999Z</time></trkpt><trkpt lat="44.82595273044678" lon="9.277327894483596"><ele>1055.8</ele><time>2026-03-28T09:49:48.999Z</time></trkpt><trkpt lat="44.82595801626232" lon="9.277238383117249"><ele>1055.6</ele><time>2026-03-28T09:49:49.999Z</time></trkpt><trkpt lat="44.825954579805476" lon="9.277058488080266"><ele>1055.4</ele><time>2026-03-28T09:49:51.999Z</time></trkpt><trkpt lat="44.82594431391654" lon="9.27690516752806"><ele>1055.2</ele><time>2026-03-28T09:49:53.999Z</time></trkpt><trkpt lat="44.82592843248399" lon="9.276785188161496"><ele>1055.0</ele><time>2026-03-28T09:49:55.999Z</time></trkpt><trkpt lat="44.82592740059318" lon="9.276618429632697"><ele>1055.0</ele><time>2026-03-28T09:49:57.999Z</time></trkpt><trkpt lat="44.82590700901237" lon="9.276456371956545"><ele>1055.0</ele><time>2026-03-28T09:49:59.999Z</time></trkpt><trkpt lat="44.82589068050771" lon="9.276343379471012"><ele>1055.0</ele><time>2026-03-28T09:50:01.999Z</time></trkpt><trkpt lat="44.825912298127406" lon="9.276194506682494"><ele>1055.0</ele><time>2026-03-28T09:50:03.999Z</time></trkpt><trkpt lat="44.8259356011788" lon="9.276109960574285"><ele>1055.0</ele><time>2026-03-28T09:50:04.999Z</time></trkpt><trkpt lat="44.82596732200354" lon="9.27594213546917"><ele>1054.5714285714287</ele><time>2026-03-28T09:50:06.999Z</time></trkpt><trkpt lat="44.825977273916564" lon="9.275851238518038"><ele>1054.1428571428573</ele><time>2026-03-28T09:50:07.999Z</time></trkpt><trkpt lat="44.82599285751416" lon="9.275749517369636"><ele>1053.7142857142858</ele><time>2026-03-28T09:50:08.999Z</time></trkpt><trkpt lat="44.8260277946515" lon="9.275639846933675"><ele>1053.2857142857142</ele><time>2026-03-28T09:50:10.999Z</time></trkpt><trkpt lat="44.82604301892984" lon="9.275529565045558"><ele>1052.8571428571427</ele><time>2026-03-28T09:50:19.999Z</time></trkpt><trkpt lat="44.82609174280911" lon="9.275454066548896"><ele>1052.4285714285713</ele><time>2026-03-28T09:50:22.999Z</time></trkpt><trkpt lat="44.8260947042619" lon="9.275357393368314"><ele>1052.0</ele><time>2026-03-28T09:50:25.999Z</time></trkpt><trkpt lat="44.826096660270636" lon="9.275261320054963"><ele>1053.2</ele><time>2026-03-28T09:50:27.998Z</time></trkpt><trkpt lat="44.82610333450161" lon="9.275104121274255"><ele>1054.4</ele><time>2026-03-28T09:50:30.998Z</time></trkpt><trkpt lat="44.82612850047581" lon="9.275007657944705"><ele>1055.6</ele><time>2026-03-28T09:50:31.998Z</time></trkpt><trkpt lat="44.826166798587764" lon="9.274872673941793"><ele>1056.8</ele><time>2026-03-28T09:50:32.998Z</time></trkpt><trkpt lat="44.82618819852529" lon="9.274736535887035"><ele>1058.0</ele><time>2026-03-28T09:50:33.998Z</time></trkpt><trkpt lat="44.82620919597156" lon="9.274575108496746"><ele>1060.0</ele><time>2026-03-28T09:50:35.001Z</time></trkpt><trkpt lat="44.826248154975964" lon="9.274404366605825"><ele>1062.0</ele><time>2026-03-28T09:50:36.001Z</time></trkpt><trkpt lat="44.82625917695901" lon="9.27425515587343"><ele>1064.0</ele><time>2026-03-28T09:50:37Z</time></trkpt><trkpt lat="44.82625066489961" lon="9.274119671418472"><ele>1066.0</ele><time>2026-03-28T09:50:38.001Z</time></trkpt><trkpt lat="44.82624886725477" lon="9.274015567709242"><ele>1068.0</ele><time>2026-03-28T09:50:39.001Z</time></trkpt><trkpt lat="44.82626555150116" lon="9.273895473737811"><ele>1070.0</ele><time>2026-03-28T09:50:40Z</time></trkpt><trkpt lat="44.82628694410494" lon="9.273753350538675"><ele>1072.0</ele><time>2026-03-28T09:50:41Z</time></trkpt><trkpt lat="44.82630092178228" lon="9.27359560277836"><ele>1074.0</ele><time>2026-03-28T09:50:42.001Z</time></trkpt><trkpt lat="44.826299355815564" lon="9.273458713357295"><ele>1076.0</ele><time>2026-03-28T09:50:43Z</time></trkpt><trkpt lat="44.82628975010686" lon="9.273309795669018"><ele>1078.0</ele><time>2026-03-28T09:50:44Z</time></trkpt><trkpt lat="44.82626910216273" lon="9.273186660672536"><ele>1077.5</ele><time>2026-03-28T09:50:45Z</time></trkpt><trkpt lat="44.826242128649554" lon="9.273068873814085"><ele>1077.0</ele><time>2026-03-28T09:50:46Z</time></trkpt><trkpt lat="44.82621791682195" lon="9.27294317814109"><ele>1076.5</ele><time>2026-03-28T09:50:47Z</time></trkpt><trkpt lat="44.826190450164226" lon="9.27284500617291"><ele>1076.0</ele><time>2026-03-28T09:50:48Z</time></trkpt><trkpt lat="44.82616887943667" lon="9.27275601923363"><ele>1075.5</ele><time>2026-03-28T09:50:49Z</time></trkpt><trkpt lat="44.826083539980246" lon="9.27268238257439"><ele>1075.0</ele><time>2026-03-28T09:50:51Z</time></trkpt><trkpt lat="44.8260244427186" lon="9.27263991748339"><ele>1076.1666666666665</ele><time>2026-03-28T09:50:52Z</time></trkpt><trkpt lat="44.82594395470615" lon="9.272586862257352"><ele>1077.3333333333333</ele><time>2026-03-28T09:50:53Z</time></trkpt><trkpt lat="44.825880938217466" lon="9.27255272988828"><ele>1078.5</ele><time>2026-03-28T09:50:54Z</time></trkpt><trkpt lat="44.82581794694" lon="9.272532618518513"><ele>1079.6666666666667</ele><time>2026-03-28T09:50:55Z</time></trkpt><trkpt lat="44.82568269129615" lon="9.272529102777098"><ele>1080.8333333333335</ele><time>2026-03-28T09:50:57Z</time></trkpt><trkpt lat="44.8255999168991" lon="9.272534070199399"><ele>1082.0</ele><time>2026-03-28T09:50:58Z</time></trkpt><trkpt lat="44.82551702762629" lon="9.27246060534457"><ele>1082.0</ele><time>2026-03-28T09:51:00Z</time></trkpt><trkpt lat="44.825487078432566" lon="9.272359134414058"><ele>1082.0</ele><time>2026-03-28T09:51:02Z</time></trkpt><trkpt lat="44.825411524612264" lon="9.272244729696293"><ele>1082.0</ele><time>2026-03-28T09:51:04Z</time></trkpt><trkpt lat="44.82533327475361" lon="9.272153342085273"><ele>1082.0</ele><time>2026-03-28T09:51:06Z</time></trkpt><trkpt lat="44.82531856863165" lon="9.272022495445981"><ele>1082.0</ele><time>2026-03-28T09:51:09Z</time></trkpt><trkpt lat="44.82526395762399" lon="9.271865503058963"><ele>1082.1666666666667</ele><time>2026-03-28T09:51:11Z</time></trkpt><trkpt lat="44.82522533045578" lon="9.271748692928925"><ele>1082.3333333333335</ele><time>2026-03-28T09:51:12Z</time></trkpt><trkpt lat="44.82518740636737" lon="9.271646802391174"><ele>1082.5</ele><time>2026-03-28T09:51:13Z</time></trkpt><trkpt lat="44.82515089093395" lon="9.271537279482866"><ele>1082.6666666666667</ele><time>2026-03-28T09:51:14Z</time></trkpt><trkpt lat="44.8251079844565" lon="9.271447587602468"><ele>1082.8333333333333</ele><time>2026-03-28T09:51:15Z</time></trkpt><trkpt lat="44.82508004552132" lon="9.271360211926382"><ele>1083.0</ele><time>2026-03-28T09:51:16Z</time></trkpt><trkpt lat="44.825071028542474" lon="9.27127111470825"><ele>1083.0</ele><time>2026-03-28T09:51:17Z</time></trkpt><trkpt lat="44.82507024037937" lon="9.2711738877736"><ele>1083.0</ele><time>2026-03-28T09:51:18Z</time></trkpt><trkpt lat="44.825047799208896" lon="9.271067884071492"><ele>1083.0</ele><time>2026-03-28T09:51:19Z</time></trkpt><trkpt lat="44.82501219583507" lon="9.270962943214123"><ele>1083.0</ele><time>2026-03-28T09:51:20Z</time></trkpt><trkpt lat="44.82491691623244" lon="9.270848786949461"><ele>1083.0</ele><time>2026-03-28T09:51:22Z</time></trkpt><trkpt lat="44.82487545546374" lon="9.270758305234986"><ele>1083.0</ele><time>2026-03-28T09:51:23Z</time></trkpt><trkpt lat="44.82483433118652" lon="9.270656035023693"><ele>1084.6666666666667</ele><time>2026-03-28T09:51:24Z</time></trkpt><trkpt lat="44.824783524407785" lon="9.270580287029146"><ele>1086.3333333333333</ele><time>2026-03-28T09:51:25Z</time></trkpt><trkpt lat="44.82474033139677" lon="9.270512848705277"><ele>1088.0</ele><time>2026-03-28T09:51:26Z</time></trkpt><trkpt lat="44.824687457455944" lon="9.270458658049739"><ele>1089.6666666666665</ele><time>2026-03-28T09:51:27Z</time></trkpt><trkpt lat="44.82462701044754" lon="9.270412291872274"><ele>1091.3333333333333</ele><time>2026-03-28T09:51:28Z</time></trkpt><trkpt lat="44.824553488402785" lon="9.270243277678109"><ele>1093.0</ele><time>2026-03-28T09:51:30Z</time></trkpt><trkpt lat="44.824511994573925" lon="9.270142119013025"><ele>1093.0</ele><time>2026-03-28T09:51:31Z</time></trkpt><trkpt lat="44.82445416094648" lon="9.270038122608446"><ele>1093.0</ele><time>2026-03-28T09:51:32Z</time></trkpt><trkpt lat="44.82438263603094" lon="9.269938045489287"><ele>1093.0</ele><time>2026-03-28T09:51:33Z</time></trkpt><trkpt lat="44.824299819174975" lon="9.26984234445241"><ele>1093.0</ele><time>2026-03-28T09:51:34Z</time></trkpt><trkpt lat="44.82424416978695" lon="9.269744797974505"><ele>1093.0</ele><time>2026-03-28T09:51:35Z</time></trkpt><trkpt lat="44.824194412434544" lon="9.269663794084462"><ele>1091.8</ele><time>2026-03-28T09:51:36Z</time></trkpt><trkpt lat="44.82411478601787" lon="9.269615825635132"><ele>1090.6</ele><time>2026-03-28T09:51:36.999Z</time></trkpt><trkpt lat="44.82402803730422" lon="9.2695874293205"><ele>1089.4</ele><time>2026-03-28T09:51:37.999Z</time></trkpt><trkpt lat="44.82396649886587" lon="9.269541139171059"><ele>1088.2</ele><time>2026-03-28T09:51:38.999Z</time></trkpt><trkpt lat="44.82388283017326" lon="9.269431597344727"><ele>1087.0</ele><time>2026-03-28T09:51:40.999Z</time></trkpt><trkpt lat="44.8238464404338" lon="9.269267159755675"><ele>1087.0</ele><time>2026-03-28T09:51:42.999Z</time></trkpt><trkpt lat="44.82387841670369" lon="9.269078341409955"><ele>1087.0</ele><time>2026-03-28T09:51:44.999Z</time></trkpt><trkpt lat="44.823890588149304" lon="9.268968617084056"><ele>1087.0</ele><time>2026-03-28T09:51:45.999Z</time></trkpt><trkpt lat="44.82390568466736" lon="9.268855321275003"><ele>1087.0</ele><time>2026-03-28T09:51:46.999Z</time></trkpt><trkpt lat="44.82391992081151" lon="9.268748032644817"><ele>1087.0</ele><time>2026-03-28T09:51:47.999Z</time></trkpt><trkpt lat="44.82389378154181" lon="9.26863810010733"><ele>1086.0</ele><time>2026-03-28T09:51:48.999Z</time></trkpt><trkpt lat="44.82388088500651" lon="9.268521653417434"><ele>1085.0</ele><time>2026-03-28T09:51:49.999Z</time></trkpt><trkpt lat="44.82387491326706" lon="9.26841209139963"><ele>1084.0</ele><time>2026-03-28T09:51:50.999Z</time></trkpt><trkpt lat="44.82383540403895" lon="9.268320818900223"><ele>1083.0</ele><time>2026-03-28T09:51:51.999Z</time></trkpt><trkpt lat="44.82379922865468" lon="9.268189895985486"><ele>1082.0</ele><time>2026-03-28T09:51:52.999Z</time></trkpt><trkpt lat="44.823777912487586" lon="9.268052096481636"><ele>1081.0</ele><time>2026-03-28T09:51:53.999Z</time></trkpt><trkpt lat="44.82375821382295" lon="9.267908431397291"><ele>1079.6</ele><time>2026-03-28T09:51:54.999Z</time></trkpt><trkpt lat="44.82374127051983" lon="9.267772417554342"><ele>1078.1999999999998</ele><time>2026-03-28T09:51:55.999Z</time></trkpt><trkpt lat="44.82371090253428" lon="9.267628477559962"><ele>1076.8000000000002</ele><time>2026-03-28T09:51:56.999Z</time></trkpt><trkpt lat="44.823685242670635" lon="9.267506672490077"><ele>1075.4</ele><time>2026-03-28T09:51:57.999Z</time></trkpt><trkpt lat="44.8236465287678" lon="9.267384620363698"><ele>1074.0</ele><time>2026-03-28T09:51:58.999Z</time></trkpt><trkpt lat="44.823585284031424" lon="9.267272043062496"><ele>1073.4</ele><time>2026-03-28T09:51:59.999Z</time></trkpt><trkpt lat="44.82352043028421" lon="9.267151150025274"><ele>1072.8000000000002</ele><time>2026-03-28T09:52:00.999Z</time></trkpt><trkpt lat="44.82344415943528" lon="9.267039448152676"><ele>1072.1999999999998</ele><time>2026-03-28T09:52:01.999Z</time></trkpt><trkpt lat="44.82336921167462" lon="9.266936304358705"><ele>1071.6</ele><time>2026-03-28T09:52:02.999Z</time></trkpt><trkpt lat="44.82329601529588" lon="9.266870363110284"><ele>1071.0</ele><time>2026-03-28T09:52:03.999Z</time></trkpt><trkpt lat="44.823235847446384" lon="9.266802387265734"><ele>1071.0</ele><time>2026-03-28T09:52:04.999Z</time></trkpt><trkpt lat="44.82318321153243" lon="9.266739453813583"><ele>1071.0</ele><time>2026-03-28T09:52:05.999Z</time></trkpt><trkpt lat="44.82311021904672" lon="9.2666657291272"><ele>1071.0</ele><time>2026-03-28T09:52:06.999Z</time></trkpt><trkpt lat="44.82305197773196" lon="9.266588776419281"><ele>1071.0</ele><time>2026-03-28T09:52:07.999Z</time></trkpt><trkpt lat="44.822993317861645" lon="9.266521747036634"><ele>1071.0</ele><time>2026-03-28T09:52:08.999Z</time></trkpt><trkpt lat="44.82292726842334" lon="9.266472439091737"><ele>1071.0</ele><time>2026-03-28T09:52:09.999Z</time></trkpt><trkpt lat="44.82286623065869" lon="9.266395779798968"><ele>1069.5</ele><time>2026-03-28T09:52:10.999Z</time></trkpt><trkpt lat="44.82282356179889" lon="9.266308596600874"><ele>1068.0</ele><time>2026-03-28T09:52:11.999Z</time></trkpt><trkpt lat="44.822781350067636" lon="9.266234727903528"><ele>1066.5</ele><time>2026-03-28T09:52:12.999Z</time></trkpt><trkpt lat="44.8227502986502" lon="9.26615359587465"><ele>1065.0</ele><time>2026-03-28T09:52:13.999Z</time></trkpt><trkpt lat="44.82272373857118" lon="9.26598983784902"><ele>1063.5</ele><time>2026-03-28T09:52:15.999Z</time></trkpt><trkpt lat="44.82274827461653" lon="9.265838162563133"><ele>1062.0</ele><time>2026-03-28T09:52:17.999Z</time></trkpt><trkpt lat="44.82279159745861" lon="9.265702332087589"><ele>1058.6666666666667</ele><time>2026-03-28T09:52:19.999Z</time></trkpt><trkpt lat="44.82285851297742" lon="9.265578496126532"><ele>1055.3333333333333</ele><time>2026-03-28T09:52:21.999Z</time></trkpt><trkpt lat="44.82290577797543" lon="9.265463577278489"><ele>1052.0</ele><time>2026-03-28T09:52:23.999Z</time></trkpt><trkpt lat="44.82289739509758" lon="9.265370906592088"><ele>1048.6666666666665</ele><time>2026-03-28T09:52:26.999Z</time></trkpt><trkpt lat="44.822852512901406" lon="9.265274657066207"><ele>1045.3333333333333</ele><time>2026-03-28T09:52:27.998Z</time></trkpt><trkpt lat="44.82278980472811" lon="9.265174455593804"><ele>1042.0</ele><time>2026-03-28T09:52:28.998Z</time></trkpt><trkpt lat="44.82271634149341" lon="9.265098756107546"><ele>1042.0</ele><time>2026-03-28T09:52:29.998Z</time></trkpt><trkpt lat="44.8226747831518" lon="9.265020763453016"><ele>1042.0</ele><time>2026-03-28T09:52:30.998Z</time></trkpt><trkpt lat="44.822633174178016" lon="9.264946307702049"><ele>1042.0</ele><time>2026-03-28T09:52:31.998Z</time></trkpt><trkpt lat="44.82258906074419" lon="9.264857404170966"><ele>1042.0</ele><time>2026-03-28T09:52:32.998Z</time></trkpt><trkpt lat="44.822552178663905" lon="9.264763055577573"><ele>1042.0</ele><time>2026-03-28T09:52:33.998Z</time></trkpt><trkpt lat="44.822533697961354" lon="9.26466111341818"><ele>1042.0</ele><time>2026-03-28T09:52:34.998Z</time></trkpt><trkpt lat="44.822512761355746" lon="9.264572181764573"><ele>1042.0</ele><time>2026-03-28T09:52:35.998Z</time></trkpt><trkpt lat="44.82247672686549" lon="9.264479945316465"><ele>1039.6</ele><time>2026-03-28T09:52:36.998Z</time></trkpt><trkpt lat="44.82243314099385" lon="9.264381375540319"><ele>1037.2</ele><time>2026-03-28T09:52:37.998Z</time></trkpt><trkpt lat="44.82236527865423" lon="9.26430899770564"><ele>1034.8</ele><time>2026-03-28T09:52:39.998Z</time></trkpt><trkpt lat="44.822274648243294" lon="9.264318953413307"><ele>1032.4</ele><time>2026-03-28T09:52:42Z</time></trkpt><trkpt lat="44.8221858914642" lon="9.264381907881086"><ele>1030.0</ele><time>2026-03-28T09:52:44Z</time></trkpt><trkpt lat="44.82212307422155" lon="9.264494441816709"><ele>1030.0</ele><time>2026-03-28T09:52:47Z</time></trkpt><trkpt lat="44.82210459720908" lon="9.264594541066149"><ele>1030.0</ele><time>2026-03-28T09:52:48Z</time></trkpt><trkpt lat="44.822093240179804" lon="9.264729841191215"><ele>1030.0</ele><time>2026-03-28T09:52:49Z</time></trkpt><trkpt lat="44.82204497043261" lon="9.264830166554399"><ele>1030.0</ele><time>2026-03-28T09:52:51Z</time></trkpt><trkpt lat="44.82198692727637" lon="9.264878383042442"><ele>1030.0</ele><time>2026-03-28T09:52:52Z</time></trkpt><trkpt lat="44.82189797236276" lon="9.264959018818537"><ele>1030.0</ele><time>2026-03-28T09:52:53Z</time></trkpt><trkpt lat="44.82182576854581" lon="9.265091600761437"><ele>1028.6</ele><time>2026-03-28T09:52:54Z</time></trkpt><trkpt lat="44.821739152751356" lon="9.265187452085163"><ele>1027.2</ele><time>2026-03-28T09:52:55Z</time></trkpt><trkpt lat="44.82167459465926" lon="9.265279579269299"><ele>1025.8</ele><time>2026-03-28T09:52:56Z</time></trkpt><trkpt lat="44.821572398331426" lon="9.265304325928323"><ele>1024.4</ele><time>2026-03-28T09:52:58Z</time></trkpt><trkpt lat="44.821501709401204" lon="9.265409279146187"><ele>1023.0</ele><time>2026-03-28T09:53:00Z</time></trkpt><trkpt lat="44.82147294346922" lon="9.265546019557247"><ele>1024.4</ele><time>2026-03-28T09:53:01Z</time></trkpt><trkpt lat="44.821458628820686" lon="9.265661395412792"><ele>1025.8</ele><time>2026-03-28T09:53:02Z</time></trkpt><trkpt lat="44.82148806269545" lon="9.265836284051089"><ele>1027.2</ele><time>2026-03-28T09:53:04Z</time></trkpt><trkpt lat="44.82150743144341" lon="9.265939483535456"><ele>1028.6</ele><time>2026-03-28T09:53:05Z</time></trkpt><trkpt lat="44.8215436201759" lon="9.266020153591725"><ele>1030.0</ele><time>2026-03-28T09:53:06Z</time></trkpt><trkpt lat="44.82162052376492" lon="9.266128802129211"><ele>1030.0</ele><time>2026-03-28T09:53:07Z</time></trkpt><trkpt lat="44.82165381356034" lon="9.26624074567158"><ele>1030.0</ele><time>2026-03-28T09:53:08Z</time></trkpt><trkpt lat="44.821668765664356" lon="9.266356383063734"><ele>1030.0</ele><time>2026-03-28T09:53:09Z</time></trkpt><trkpt lat="44.82170236326848" lon="9.266527922259865"><ele>1030.0</ele><time>2026-03-28T09:53:10Z</time></trkpt><trkpt lat="44.8217426812073" lon="9.266668049111827"><ele>1030.0</ele><time>2026-03-28T09:53:11Z</time></trkpt><trkpt lat="44.82178914556747" lon="9.266829930578721"><ele>1032.1666666666665</ele><time>2026-03-28T09:53:12Z</time></trkpt><trkpt lat="44.82181610708702" lon="9.266971468296147"><ele>1034.3333333333333</ele><time>2026-03-28T09:53:13Z</time></trkpt><trkpt lat="44.82185534465611" lon="9.267067671616086"><ele>1036.5</ele><time>2026-03-28T09:53:14Z</time></trkpt><trkpt lat="44.821905636708316" lon="9.267180051459256"><ele>1038.6666666666667</ele><time>2026-03-28T09:53:15Z</time></trkpt><trkpt lat="44.82195037473408" lon="9.26726756246353"><ele>1040.8333333333335</ele><time>2026-03-28T09:53:16Z</time></trkpt><trkpt lat="44.82196998942531" lon="9.267351915817793"><ele>1043.0</ele><time>2026-03-28T09:53:17Z</time></trkpt><trkpt lat="44.82201778015643" lon="9.267455499576032"><ele>1043.0</ele><time>2026-03-28T09:53:18Z</time></trkpt><trkpt lat="44.82207750011068" lon="9.267553802809482"><ele>1043.0</ele><time>2026-03-28T09:53:19Z</time></trkpt><trkpt lat="44.822138312547416" lon="9.267669305923766"><ele>1043.0</ele><time>2026-03-28T09:53:20Z</time></trkpt><trkpt lat="44.822179696223664" lon="9.267788214952448"><ele>1043.0</ele><time>2026-03-28T09:53:21Z</time></trkpt><trkpt lat="44.82221494119081" lon="9.267867751071975"><ele>1043.0</ele><time>2026-03-28T09:53:22Z</time></trkpt><trkpt lat="44.82227036999978" lon="9.268018980943996"><ele>1043.0</ele><time>2026-03-28T09:53:24Z</time></trkpt><trkpt lat="44.82234485908111" lon="9.268072467318099"><ele>1043.0</ele><time>2026-03-28T09:53:25Z</time></trkpt><trkpt lat="44.82241864437525" lon="9.268117809599456"><ele>1043.0</ele><time>2026-03-28T09:53:26Z</time></trkpt><trkpt lat="44.8224345828629" lon="9.268234801748088"><ele>1043.0</ele><time>2026-03-28T09:53:28Z</time></trkpt><trkpt lat="44.82240667834954" lon="9.268327674854142"><ele>1043.0</ele><time>2026-03-28T09:53:29Z</time></trkpt><trkpt lat="44.822343105521625" lon="9.268381930474192"><ele>1043.0</ele><time>2026-03-28T09:53:30Z</time></trkpt><trkpt lat="44.82227675107959" lon="9.268469354370374"><ele>1042.4</ele><time>2026-03-28T09:53:31Z</time></trkpt><trkpt lat="44.82221054764026" lon="9.268618812748015"><ele>1041.8</ele><time>2026-03-28T09:53:32Z</time></trkpt><trkpt lat="44.822159842082314" lon="9.268752732733892"><ele>1041.2</ele><time>2026-03-28T09:53:33Z</time></trkpt><trkpt lat="44.82210003033701" lon="9.268844173700531"><ele>1040.6</ele><time>2026-03-28T09:53:34Z</time></trkpt><trkpt lat="44.82203202399419" lon="9.268933202894617"><ele>1040.0</ele><time>2026-03-28T09:53:35Z</time></trkpt><trkpt lat="44.82195946854633" lon="9.269011416429226"><ele>1041.1666666666667</ele><time>2026-03-28T09:53:36Z</time></trkpt><trkpt lat="44.82191816837229" lon="9.269113289219382"><ele>1042.3333333333335</ele><time>2026-03-28T09:53:37Z</time></trkpt><trkpt lat="44.82185142749187" lon="9.269221012156377"><ele>1043.5</ele><time>2026-03-28T09:53:38.999Z</time></trkpt><trkpt lat="44.82176592044082" lon="9.269235183344799"><ele>1044.6666666666667</ele><time>2026-03-28T09:53:41.999Z</time></trkpt><trkpt lat="44.821702149434245" lon="9.269253260351121"><ele>1045.8333333333333</ele><time>2026-03-28T09:53:48.999Z</time></trkpt><trkpt lat="44.821613647541035" lon="9.269253369606181"><ele>1047.0</ele><time>2026-03-28T09:54:05.999Z</time></trkpt><trkpt lat="44.821525160359826" lon="9.269221117251654"><ele>1043.6666666666667</ele><time>2026-03-28T09:54:07.999Z</time></trkpt><trkpt lat="44.821457502339705" lon="9.269188616203916"><ele>1040.3333333333333</ele><time>2026-03-28T09:54:09.999Z</time></trkpt><trkpt lat="44.821384288374226" lon="9.26915592934065"><ele>1037.0</ele><time>2026-03-28T09:54:11.999Z</time></trkpt><trkpt lat="44.82129320170029" lon="9.269101512104227"><ele>1033.6666666666665</ele><time>2026-03-28T09:54:13.999Z</time></trkpt><trkpt lat="44.821208181306574" lon="9.269075927049341"><ele>1030.3333333333333</ele><time>2026-03-28T09:54:15.999Z</time></trkpt><trkpt lat="44.82111257823285" lon="9.26900853330052"><ele>1027.0</ele><time>2026-03-28T09:54:17.999Z</time></trkpt><trkpt lat="44.82104300166915" lon="9.268977255448993"><ele>1021.0</ele><time>2026-03-28T09:54:18.999Z</time></trkpt><trkpt lat="44.82098072076352" lon="9.268940350402817"><ele>1015.0</ele><time>2026-03-28T09:54:19.999Z</time></trkpt><trkpt lat="44.820903238689446" lon="9.268879534741094"><ele>1009.0</ele><time>2026-03-28T09:54:21.999Z</time></trkpt><trkpt lat="44.820827421839546" lon="9.268819260979877"><ele>1003.0</ele><time>2026-03-28T09:54:23.999Z</time></trkpt><trkpt lat="44.82071035255865" lon="9.26880038379658"><ele>997.0</ele><time>2026-03-28T09:54:25.999Z</time></trkpt><trkpt lat="44.82061911017262" lon="9.268740606037333"><ele>996.9999999999999</ele><time>2026-03-28T09:54:27.999Z</time></trkpt><trkpt lat="44.820553805898875" lon="9.268710899974474"><ele>997.0</ele><time>2026-03-28T09:54:29.998Z</time></trkpt><trkpt lat="44.82045950574637" lon="9.268649486295779"><ele>997.0</ele><time>2026-03-28T09:54:31.998Z</time></trkpt><trkpt lat="44.82037729340355" lon="9.26859426655338"><ele>997.0</ele><time>2026-03-28T09:54:33.998Z</time></trkpt><trkpt lat="44.82030667423265" lon="9.268542809957268"><ele>996.9999999999999</ele><time>2026-03-28T09:54:35.998Z</time></trkpt><trkpt lat="44.82021990287776" lon="9.268529024156528"><ele>997.0</ele><time>2026-03-28T09:54:37.998Z</time></trkpt><trkpt lat="44.82015689275452" lon="9.268523882847862"><ele>993.6</ele><time>2026-03-28T09:54:39.998Z</time></trkpt><trkpt lat="44.820064953075644" lon="9.268456511079181"><ele>990.2</ele><time>2026-03-28T09:54:41.998Z</time></trkpt><trkpt lat="44.81999902046" lon="9.268440335699232"><ele>986.8</ele><time>2026-03-28T09:54:43.998Z</time></trkpt><trkpt lat="44.819908312784676" lon="9.268419609465035"><ele>983.4</ele><time>2026-03-28T09:54:47Z</time></trkpt><trkpt lat="44.819736307906844" lon="9.26835183023301"><ele>980.0</ele><time>2026-03-28T09:54:49Z</time></trkpt><trkpt lat="44.81965859936721" lon="9.268331579746068"><ele>980.0000000000001</ele><time>2026-03-28T09:54:50Z</time></trkpt><trkpt lat="44.81958434562471" lon="9.268314722501467"><ele>980.0</ele><time>2026-03-28T09:54:51Z</time></trkpt><trkpt lat="44.81951343391186" lon="9.268286493483803"><ele>980.0</ele><time>2026-03-28T09:54:52Z</time></trkpt><trkpt lat="44.81944811023147" lon="9.26826174105086"><ele>980.0</ele><time>2026-03-28T09:54:53Z</time></trkpt><trkpt lat="44.81934332818502" lon="9.268241588499643"><ele>980.0000000000001</ele><time>2026-03-28T09:54:55Z</time></trkpt><trkpt lat="44.81925521113991" lon="9.268203678027382"><ele>980.0</ele><time>2026-03-28T09:54:57Z</time></trkpt><trkpt lat="44.819155400179824" lon="9.268145160185457"><ele>973.5000000000001</ele><time>2026-03-28T09:54:59Z</time></trkpt><trkpt lat="44.81909066419337" lon="9.26810378063713"><ele>967.0</ele><time>2026-03-28T09:55:00Z</time></trkpt><trkpt lat="44.81900425549705" lon="9.268044661766025"><ele>960.5</ele><time>2026-03-28T09:55:02Z</time></trkpt><trkpt lat="44.8189320739657" lon="9.268010235395195"><ele>954.0</ele><time>2026-03-28T09:55:05Z</time></trkpt><trkpt lat="44.81886035590993" lon="9.268041768188604"><ele>947.5000000000001</ele><time>2026-03-28T09:55:09Z</time></trkpt><trkpt lat="44.818780976226414" lon="9.268009753647846"><ele>941.0</ele><time>2026-03-28T09:55:12Z</time></trkpt><trkpt lat="44.81876198358146" lon="9.26788469148344"><ele>941.0000000000001</ele><time>2026-03-28T09:55:15Z</time></trkpt><trkpt lat="44.818753733565224" lon="9.267796029358282"><ele>941.0</ele><time>2026-03-28T09:55:17Z</time></trkpt><trkpt lat="44.81877691697537" lon="9.267676875731603"><ele>941.0</ele><time>2026-03-28T09:55:20Z</time></trkpt><trkpt lat="44.81880306511377" lon="9.267558604957104"><ele>941.0</ele><time>2026-03-28T09:55:23Z</time></trkpt><trkpt lat="44.81888000190137" lon="9.267478009403447"><ele>941.0000000000001</ele><time>2026-03-28T09:55:26Z</time></trkpt><trkpt lat="44.81894262329337" lon="9.267393102273052"><ele>941.0</ele><time>2026-03-28T09:55:28Z</time></trkpt><trkpt lat="44.819034981187905" lon="9.267352003991824"><ele>941.0000000000001</ele><time>2026-03-28T09:55:30Z</time></trkpt><trkpt lat="44.81911860788304" lon="9.267325337278372"><ele>941.0</ele><time>2026-03-28T09:55:31Z</time></trkpt><trkpt lat="44.819190212501326" lon="9.267295953256019"><ele>941.0</ele><time>2026-03-28T09:55:32Z</time></trkpt><trkpt lat="44.81926018781375" lon="9.267278590658334"><ele>941.0</ele><time>2026-03-28T09:55:33Z</time></trkpt><trkpt lat="44.81931588107936" lon="9.267222391049948"><ele>941.0000000000001</ele><time>2026-03-28T09:55:34Z</time></trkpt><trkpt lat="44.819397649703475" lon="9.267136142010022"><ele>941.0</ele><time>2026-03-28T09:55:36Z</time></trkpt><trkpt lat="44.81948346336782" lon="9.267031819085588"><ele>941.3333333333334</ele><time>2026-03-28T09:55:38Z</time></trkpt><trkpt lat="44.819545337996956" lon="9.266984092439488"><ele>941.6666666666667</ele><time>2026-03-28T09:55:39Z</time></trkpt><trkpt lat="44.819653777982595" lon="9.266930082850884"><ele>942.0</ele><time>2026-03-28T09:55:41Z</time></trkpt><trkpt lat="44.819756795590166" lon="9.266896876507934"><ele>942.3333333333333</ele><time>2026-03-28T09:55:42.999Z</time></trkpt><trkpt lat="44.81979554719975" lon="9.266809276474218"><ele>942.6666666666666</ele><time>2026-03-28T09:55:47.999Z</time></trkpt><trkpt lat="44.81971793213212" lon="9.266779817240247"><ele>943.0</ele><time>2026-03-28T09:55:59.999Z</time></trkpt><trkpt lat="44.819643568482086" lon="9.26670306123449"><ele>943.0</ele><time>2026-03-28T09:56:01.999Z</time></trkpt><trkpt lat="44.81957006645069" lon="9.266624399072123"><ele>943.0</ele><time>2026-03-28T09:56:03.999Z</time></trkpt><trkpt lat="44.81946538631506" lon="9.26653753048429"><ele>943.0</ele><time>2026-03-28T09:56:05.999Z</time></trkpt><trkpt lat="44.81938663943279" lon="9.266426307139858"><ele>943.0</ele><time>2026-03-28T09:56:07.999Z</time></trkpt><trkpt lat="44.81932868224426" lon="9.266325118527487"><ele>943.0</ele><time>2026-03-28T09:56:09.999Z</time></trkpt><trkpt lat="44.81924787248046" lon="9.266230582913586"><ele>935.75</ele><time>2026-03-28T09:56:11.999Z</time></trkpt><trkpt lat="44.819173674176966" lon="9.266111880832135"><ele>928.5</ele><time>2026-03-28T09:56:13.999Z</time></trkpt><trkpt lat="44.819092649015666" lon="9.265989102612009"><ele>921.25</ele><time>2026-03-28T09:56:15.999Z</time></trkpt><trkpt lat="44.819022190399224" lon="9.265861154801232"><ele>914.0</ele><time>2026-03-28T09:56:17.999Z</time></trkpt><trkpt lat="44.818922894144606" lon="9.26578032414978"><ele>914.0</ele><time>2026-03-28T09:56:19.999Z</time></trkpt><trkpt lat="44.81880578152237" lon="9.265670525150266"><ele>914.0000000000001</ele><time>2026-03-28T09:56:21.999Z</time></trkpt><trkpt lat="44.818751692860765" lon="9.265612416844892"><ele>914.0000000000001</ele><time>2026-03-28T09:56:22.999Z</time></trkpt><trkpt lat="44.818705116448875" lon="9.265549089980217"><ele>914.0</ele><time>2026-03-28T09:56:23.999Z</time></trkpt><trkpt lat="44.8186115607586" lon="9.26546671756486"><ele>914.0</ele><time>2026-03-28T09:56:25.999Z</time></trkpt><trkpt lat="44.818525885818524" lon="9.265413433576546"><ele>908.6</ele><time>2026-03-28T09:56:27.999Z</time></trkpt><trkpt lat="44.81845657936342" lon="9.265287171561125"><ele>903.2</ele><time>2026-03-28T09:56:29.999Z</time></trkpt><trkpt lat="44.81835651592275" lon="9.265195033714848"><ele>897.8000000000001</ele><time>2026-03-28T09:56:31.999Z</time></trkpt><trkpt lat="44.81831757041274" lon="9.265111366237118"><ele>892.4000000000001</ele><time>2026-03-28T09:56:32.998Z</time></trkpt><trkpt lat="44.81826933643101" lon="9.26501676328509"><ele>887.0</ele><time>2026-03-28T09:56:33.998Z</time></trkpt><trkpt lat="44.818216087962774" lon="9.264924907815827"><ele>887.0000000000001</ele><time>2026-03-28T09:56:34.998Z</time></trkpt><trkpt lat="44.81817000266621" lon="9.264828635936967"><ele>887.0</ele><time>2026-03-28T09:56:35.998Z</time></trkpt><trkpt lat="44.818129097708265" lon="9.264747594436793"><ele>887.0</ele><time>2026-03-28T09:56:36.998Z</time></trkpt><trkpt lat="44.818100532928014" lon="9.264614234858712"><ele>887.0</ele><time>2026-03-28T09:56:38.998Z</time></trkpt><trkpt lat="44.8181114010685" lon="9.26452230069735"><ele>887.0000000000001</ele><time>2026-03-28T09:56:39.998Z</time></trkpt><trkpt lat="44.81812424896452" lon="9.264424999998555"><ele>887.0</ele><time>2026-03-28T09:56:40.998Z</time></trkpt><trkpt lat="44.81815802794951" lon="9.26425679560599"><ele>886.2</ele><time>2026-03-28T09:56:42.998Z</time></trkpt><trkpt lat="44.818179007714775" lon="9.26417083742605"><ele>885.4000000000001</ele><time>2026-03-28T09:56:43.998Z</time></trkpt><trkpt lat="44.81823566436913" lon="9.26403268506332"><ele>884.5999999999999</ele><time>2026-03-28T09:56:45.998Z</time></trkpt><trkpt lat="44.81833166415596" lon="9.26396728153904"><ele>883.8</ele><time>2026-03-28T09:56:47.998Z</time></trkpt><trkpt lat="44.81842548515096" lon="9.263928642330113"><ele>883.0</ele><time>2026-03-28T09:56:49.998Z</time></trkpt><trkpt lat="44.81849191075872" lon="9.263909497521825"><ele>882.3333333333333</ele><time>2026-03-28T09:56:51.998Z</time></trkpt><trkpt lat="44.81845140913321" lon="9.263821820855062"><ele>881.6666666666666</ele><time>2026-03-28T09:56:54Z</time></trkpt><trkpt lat="44.81834219432642" lon="9.263791860777573"><ele>881.0</ele><time>2026-03-28T09:56:56Z</time></trkpt><trkpt lat="44.81826080528996" lon="9.26381406486895"><ele>880.3333333333333</ele><time>2026-03-28T09:56:58Z</time></trkpt><trkpt lat="44.81815434815361" lon="9.263774728243245"><ele>879.6666666666666</ele><time>2026-03-28T09:57:00Z</time></trkpt><trkpt lat="44.81808800345073" lon="9.263765702564683"><ele>879.0</ele><time>2026-03-28T09:57:01Z</time></trkpt><trkpt lat="44.81798176892303" lon="9.263718895465415"><ele>879.0</ele><time>2026-03-28T09:57:03Z</time></trkpt><trkpt lat="44.81789931763301" lon="9.263668300099011"><ele>879.0</ele><time>2026-03-28T09:57:05Z</time></trkpt><trkpt lat="44.817846323789865" lon="9.263576520477487"><ele>879.0</ele><time>2026-03-28T09:57:08Z</time></trkpt><trkpt lat="44.81782866474105" lon="9.263476978632763"><ele>879.0</ele><time>2026-03-28T09:57:12Z</time></trkpt><trkpt lat="44.81781058482078" lon="9.2633196769521"><ele>879.0</ele><time>2026-03-28T09:57:14Z</time></trkpt><trkpt lat="44.817776930631005" lon="9.263227724216138"><ele>879.0</ele><time>2026-03-28T09:57:15Z</time></trkpt><trkpt lat="44.817724470059645" lon="9.263103022247464"><ele>878.2</ele><time>2026-03-28T09:57:16Z</time></trkpt><trkpt lat="44.81766433613521" lon="9.262988200662479"><ele>877.4000000000001</ele><time>2026-03-28T09:57:17Z</time></trkpt><trkpt lat="44.81761327067198" lon="9.2629012428474"><ele>876.6</ele><time>2026-03-28T09:57:18Z</time></trkpt><trkpt lat="44.81755208944727" lon="9.26283866522017"><ele>875.8</ele><time>2026-03-28T09:57:19Z</time></trkpt><trkpt lat="44.81747541502238" lon="9.262719676355479"><ele>875.0</ele><time>2026-03-28T09:57:21Z</time></trkpt><trkpt lat="44.817492571241914" lon="9.26257824666656"><ele>869.2</ele><time>2026-03-28T09:57:23Z</time></trkpt><trkpt lat="44.81753281577607" lon="9.262410982001569"><ele>863.4</ele><time>2026-03-28T09:57:25Z</time></trkpt><trkpt lat="44.81754785553648" lon="9.262321841369983"><ele>857.5999999999999</ele><time>2026-03-28T09:57:26Z</time></trkpt><trkpt lat="44.81760990240432" lon="9.262188947091563"><ele>851.8</ele><time>2026-03-28T09:57:28Z</time></trkpt><trkpt lat="44.81754699174884" lon="9.262095453242248"><ele>846.0</ele><time>2026-03-28T09:57:30Z</time></trkpt><trkpt lat="44.8174806051474" lon="9.26208946084212"><ele>845.5999999999999</ele><time>2026-03-28T09:57:31Z</time></trkpt><trkpt lat="44.8173950157057" lon="9.262104726215105"><ele>845.2</ele><time>2026-03-28T09:57:32Z</time></trkpt><trkpt lat="44.817313303917786" lon="9.26212452006593"><ele>844.8</ele><time>2026-03-28T09:57:33Z</time></trkpt><trkpt lat="44.81723180621322" lon="9.262118244862801"><ele>844.4000000000001</ele><time>2026-03-28T09:57:35Z</time></trkpt><trkpt lat="44.817264014067284" lon="9.261955663611733"><ele>844.0</ele><time>2026-03-28T09:57:37Z</time></trkpt><trkpt lat="44.81729015642219" lon="9.261759715947832"><ele>844.0</ele><time>2026-03-28T09:57:39Z</time></trkpt><trkpt lat="44.81728196215328" lon="9.261654464838514"><ele>844.0</ele><time>2026-03-28T09:57:41Z</time></trkpt><trkpt lat="44.817196955847976" lon="9.261596142219192"><ele>844.0</ele><time>2026-03-28T09:57:44Z</time></trkpt><trkpt lat="44.81713324345617" lon="9.261576633114858"><ele>844.0</ele><time>2026-03-28T09:57:45.999Z</time></trkpt><trkpt lat="44.81704302826923" lon="9.261563980515332"><ele>844.0</ele><time>2026-03-28T09:57:48.999Z</time></trkpt><trkpt lat="44.81694609034847" lon="9.261676394976508"><ele>844.0</ele><time>2026-03-28T09:57:50.999Z</time></trkpt><trkpt lat="44.816874632859545" lon="9.261773655245046"><ele>844.0</ele><time>2026-03-28T09:57:51.999Z</time></trkpt><trkpt lat="44.816773310007136" lon="9.261831242532788"><ele>844.0</ele><time>2026-03-28T09:57:52.999Z</time></trkpt><trkpt lat="44.816703282369794" lon="9.261916697515154"><ele>844.0</ele><time>2026-03-28T09:57:53.999Z</time></trkpt><trkpt lat="44.81664110810452" lon="9.262011103925538"><ele>844.0</ele><time>2026-03-28T09:57:54.999Z</time></trkpt><trkpt lat="44.81658257111472" lon="9.26212031088834"><ele>840.3333333333333</ele><time>2026-03-28T09:57:55.999Z</time></trkpt><trkpt lat="44.81655345810402" lon="9.262251295897"><ele>836.6666666666666</ele><time>2026-03-28T09:57:56.999Z</time></trkpt><trkpt lat="44.81651467524547" lon="9.262337440844243"><ele>833.0</ele><time>2026-03-28T09:57:57.999Z</time></trkpt><trkpt lat="44.81645732642862" lon="9.262466545169778"><ele>829.3333333333333</ele><time>2026-03-28T09:57:59.999Z</time></trkpt><trkpt lat="44.81641236555623" lon="9.262568227425412"><ele>825.6666666666666</ele><time>2026-03-28T09:58:01.999Z</time></trkpt><trkpt lat="44.8164202476412" lon="9.262662123600467"><ele>822.0</ele><time>2026-03-28T09:58:03.999Z</time></trkpt><trkpt lat="44.81645076354314" lon="9.262757300524354"><ele>822.0</ele><time>2026-03-28T09:58:04.999Z</time></trkpt><trkpt lat="44.816462392599114" lon="9.262878688823351"><ele>822.0</ele><time>2026-03-28T09:58:05.999Z</time></trkpt><trkpt lat="44.81646571744529" lon="9.26302370008336"><ele>822.0</ele><time>2026-03-28T09:58:06.999Z</time></trkpt><trkpt lat="44.816486872493925" lon="9.263186966064215"><ele>822.0</ele><time>2026-03-28T09:58:07.999Z</time></trkpt><trkpt lat="44.816524344697434" lon="9.263352101066259"><ele>822.0</ele><time>2026-03-28T09:58:08.999Z</time></trkpt><trkpt lat="44.81652702209656" lon="9.263504639000123"><ele>822.0</ele><time>2026-03-28T09:58:09.999Z</time></trkpt><trkpt lat="44.81654086036668" lon="9.26363396872818"><ele>822.0</ele><time>2026-03-28T09:58:10.999Z</time></trkpt><trkpt lat="44.81656678175461" lon="9.263756270199954"><ele>822.0</ele><time>2026-03-28T09:58:11.999Z</time></trkpt><trkpt lat="44.81660152543184" lon="9.26385772060216"><ele>822.0</ele><time>2026-03-28T09:58:12.999Z</time></trkpt><trkpt lat="44.81663594167664" lon="9.263940146978719"><ele>822.0</ele><time>2026-03-28T09:58:13.999Z</time></trkpt><trkpt lat="44.816671068700224" lon="9.264096816681276"><ele>822.0</ele><time>2026-03-28T09:58:15.999Z</time></trkpt><trkpt lat="44.816617873838695" lon="9.26421726431119"><ele>822.0</ele><time>2026-03-28T09:58:17.999Z</time></trkpt><trkpt lat="44.81656826081786" lon="9.264282847578553"><ele>822.0</ele><time>2026-03-28T09:58:18.999Z</time></trkpt><trkpt lat="44.81653710400523" lon="9.26436288740429"><ele>822.0</ele><time>2026-03-28T09:58:19.999Z</time></trkpt><trkpt lat="44.81651419355158" lon="9.264520110823655"><ele>822.0</ele><time>2026-03-28T09:58:20.999Z</time></trkpt><trkpt lat="44.81649877798315" lon="9.26461341016718"><ele>822.0</ele><time>2026-03-28T09:58:21.999Z</time></trkpt><trkpt lat="44.816470776010085" lon="9.26471982567989"><ele>822.0</ele><time>2026-03-28T09:58:22.999Z</time></trkpt><trkpt lat="44.81643401797293" lon="9.264832736846502"><ele>821.1666666666666</ele><time>2026-03-28T09:58:23.999Z</time></trkpt><trkpt lat="44.81639640185051" lon="9.264980725285453"><ele>820.3333333333333</ele><time>2026-03-28T09:58:24.999Z</time></trkpt><trkpt lat="44.816351790510396" lon="9.265092245671163"><ele>819.5</ele><time>2026-03-28T09:58:25.999Z</time></trkpt><trkpt lat="44.81631574340183" lon="9.265169136845024"><ele>818.6666666666666</ele><time>2026-03-28T09:58:26.999Z</time></trkpt><trkpt lat="44.81628339138654" lon="9.265302242552531"><ele>817.8333333333333</ele><time>2026-03-28T09:58:28.999Z</time></trkpt><trkpt lat="44.816297380485494" lon="9.265401012568475"><ele>817.0</ele><time>2026-03-28T09:58:29.999Z</time></trkpt><trkpt lat="44.81634659384043" lon="9.265488741270136"><ele>816.8</ele><time>2026-03-28T09:58:30.999Z</time></trkpt><trkpt lat="44.81632583010397" lon="9.265612930054374"><ele>816.6</ele><time>2026-03-28T09:58:32.999Z</time></trkpt><trkpt lat="44.81623631788173" lon="9.26570525444463"><ele>816.4</ele><time>2026-03-28T09:58:34.999Z</time></trkpt><trkpt lat="44.8161884895196" lon="9.265807390152307"><ele>816.1999999999999</ele><time>2026-03-28T09:58:35.999Z</time></trkpt><trkpt lat="44.81614727752547" lon="9.26590532133631"><ele>816.0</ele><time>2026-03-28T09:58:36.999Z</time></trkpt><trkpt lat="44.81613529224984" lon="9.266031897508455"><ele>816.0</ele><time>2026-03-28T09:58:37.998Z</time></trkpt><trkpt lat="44.81611791696441" lon="9.266175808057994"><ele>816.0</ele><time>2026-03-28T09:58:38.998Z</time></trkpt><trkpt lat="44.81607767612209" lon="9.266299225921653"><ele>816.0</ele><time>2026-03-28T09:58:39.998Z</time></trkpt><trkpt lat="44.81606625858723" lon="9.266395732520794"><ele>816.0</ele><time>2026-03-28T09:58:40.998Z</time></trkpt><trkpt lat="44.81606811812833" lon="9.266505662155677"><ele>816.0</ele><time>2026-03-28T09:58:41.998Z</time></trkpt><trkpt lat="44.816057824018266" lon="9.26661703877546"><ele>816.0</ele><time>2026-03-28T09:58:42.998Z</time></trkpt><trkpt lat="44.8160378106472" lon="9.266724308096556"><ele>817.1999999999999</ele><time>2026-03-28T09:58:43.998Z</time></trkpt><trkpt lat="44.81601986175307" lon="9.266850637669599"><ele>818.4</ele><time>2026-03-28T09:58:44.998Z</time></trkpt><trkpt lat="44.816013512442396" lon="9.267011237040675"><ele>819.6</ele><time>2026-03-28T09:58:45.998Z</time></trkpt><trkpt lat="44.81599542512691" lon="9.267176224602714"><ele>820.8</ele><time>2026-03-28T09:58:46.998Z</time></trkpt><trkpt lat="44.81596675592077" lon="9.267321686040844"><ele>822.0</ele><time>2026-03-28T09:58:47.998Z</time></trkpt><trkpt lat="44.81593671564013" lon="9.267434635910655"><ele>822.25</ele><time>2026-03-28T09:58:48.998Z</time></trkpt><trkpt lat="44.81592236215887" lon="9.267528589357473"><ele>822.5</ele><time>2026-03-28T09:58:49.998Z</time></trkpt><trkpt lat="44.81592488071114" lon="9.267727350911718"><ele>822.75</ele><time>2026-03-28T09:58:51.998Z</time></trkpt><trkpt lat="44.81593834995899" lon="9.267869195094486"><ele>823.0</ele><time>2026-03-28T09:58:52.998Z</time></trkpt><trkpt lat="44.81599715312944" lon="9.268061712780826"><ele>822.8</ele><time>2026-03-28T09:58:53.998Z</time></trkpt><trkpt lat="44.816042136676955" lon="9.26825653819793"><ele>822.5999999999999</ele><time>2026-03-28T09:58:54.998Z</time></trkpt><trkpt lat="44.816062992257066" lon="9.268395120050041"><ele>822.4000000000001</ele><time>2026-03-28T09:58:55.998Z</time></trkpt><trkpt lat="44.816068879867515" lon="9.26848629513755"><ele>822.2</ele><time>2026-03-28T09:58:56.998Z</time></trkpt><trkpt lat="44.81605532103322" lon="9.26865257914154"><ele>822.0</ele><time>2026-03-28T09:58:59Z</time></trkpt><trkpt lat="44.81601228215491" lon="9.268759756368024"><ele>814.8</ele><time>2026-03-28T09:59:00Z</time></trkpt><trkpt lat="44.81598573768514" lon="9.268863132209292"><ele>807.6</ele><time>2026-03-28T09:59:01Z</time></trkpt><trkpt lat="44.815967938169614" lon="9.26898809565674"><ele>800.4</ele><time>2026-03-28T09:59:02Z</time></trkpt><trkpt lat="44.81595667686088" lon="9.269130623857402"><ele>793.1999999999999</ele><time>2026-03-28T09:59:03Z</time></trkpt><trkpt lat="44.81593929238124" lon="9.269295631797862"><ele>786.0</ele><time>2026-03-28T09:59:04Z</time></trkpt><trkpt lat="44.81591514275325" lon="9.269446018487473"><ele>786.0</ele><time>2026-03-28T09:59:05Z</time></trkpt><trkpt lat="44.81586882122122" lon="9.26958205618957"><ele>786.0</ele><time>2026-03-28T09:59:06Z</time></trkpt><trkpt lat="44.81581793913044" lon="9.269711190791377"><ele>786.0</ele><time>2026-03-28T09:59:07Z</time></trkpt><trkpt lat="44.815758637705585" lon="9.269841822144912"><ele>786.0</ele><time>2026-03-28T09:59:08Z</time></trkpt><trkpt lat="44.81569393157071" lon="9.269977385164827"><ele>786.0</ele><time>2026-03-28T09:59:09Z</time></trkpt><trkpt lat="44.81564187170248" lon="9.270096144563205"><ele>786.1666666666666</ele><time>2026-03-28T09:59:10Z</time></trkpt><trkpt lat="44.81561392977187" lon="9.270219909912983"><ele>786.3333333333333</ele><time>2026-03-28T09:59:11Z</time></trkpt><trkpt lat="44.81560915958369" lon="9.270324241277782"><ele>786.5</ele><time>2026-03-28T09:59:12Z</time></trkpt><trkpt lat="44.815615920935606" lon="9.270412600767038"><ele>786.6666666666666</ele><time>2026-03-28T09:59:14Z</time></trkpt><trkpt lat="44.81555211363617" lon="9.270425236295827"><ele>786.8333333333333</ele><time>2026-03-28T09:59:16Z</time></trkpt><trkpt lat="44.81548497444045" lon="9.270461851147148"><ele>787.0</ele><time>2026-03-28T09:59:23Z</time></trkpt><trkpt lat="44.81539309224367" lon="9.270436120828004"><ele>786.9999999999999</ele><time>2026-03-28T09:59:25Z</time></trkpt><trkpt lat="44.815314514738276" lon="9.270429405910194"><ele>787.0</ele><time>2026-03-28T09:59:27Z</time></trkpt><trkpt lat="44.81522993582107" lon="9.270399417732923"><ele>787.0</ele><time>2026-03-28T09:59:29Z</time></trkpt><trkpt lat="44.81513693494149" lon="9.27039192559386"><ele>787.0</ele><time>2026-03-28T09:59:31Z</time></trkpt><trkpt lat="44.81504678561125" lon="9.270387329586411"><ele>786.9999999999999</ele><time>2026-03-28T09:59:33Z</time></trkpt><trkpt lat="44.814957085893774" lon="9.27032954079601"><ele>787.0</ele><time>2026-03-28T09:59:35Z</time></trkpt><trkpt lat="44.81491828572757" lon="9.270211833853297"><ele>783.9999999999999</ele><time>2026-03-28T09:59:37Z</time></trkpt><trkpt lat="44.81488037588751" lon="9.270125585472503"><ele>781.0</ele><time>2026-03-28T09:59:38Z</time></trkpt><trkpt lat="44.81483768894534" lon="9.27005155790376"><ele>778.0</ele><time>2026-03-28T09:59:39Z</time></trkpt><trkpt lat="44.81476349037221" lon="9.269995406689917"><ele>775.0</ele><time>2026-03-28T09:59:40Z</time></trkpt><trkpt lat="44.81468766309022" lon="9.269949982254152"><ele>771.9999999999999</ele><time>2026-03-28T09:59:41Z</time></trkpt><trkpt lat="44.8146014567092" lon="9.269925670973608"><ele>769.0</ele><time>2026-03-28T09:59:42Z</time></trkpt><trkpt lat="44.814538142318554" lon="9.269902628814533"><ele>768.9999999999999</ele><time>2026-03-28T09:59:43Z</time></trkpt><trkpt lat="44.814469618380976" lon="9.269888994748454"><ele>769.0</ele><time>2026-03-28T09:59:45Z</time></trkpt><trkpt lat="44.81441530395135" lon="9.269937257462868"><ele>769.0</ele><time>2026-03-28T09:59:47Z</time></trkpt><trkpt lat="44.81435571545166" lon="9.269978425176737"><ele>769.0</ele><time>2026-03-28T09:59:49Z</time></trkpt><trkpt lat="44.814248140951655" lon="9.269989660610491"><ele>768.9999999999999</ele><time>2026-03-28T09:59:51Z</time></trkpt><trkpt lat="44.81415510961017" lon="9.269991192483413"><ele>769.0</ele><time>2026-03-28T09:59:52.999Z</time></trkpt><trkpt lat="44.814086178802114" lon="9.269997971285267"><ele>768.8000000000001</ele><time>2026-03-28T09:59:53.999Z</time></trkpt><trkpt lat="44.8139970023265" lon="9.270007094642544"><ele>768.6</ele><time>2026-03-28T09:59:54.999Z</time></trkpt><trkpt lat="44.813906594219056" lon="9.270020169835183"><ele>768.4</ele><time>2026-03-28T09:59:55.999Z</time></trkpt><trkpt lat="44.81382985310982" lon="9.269994929713075"><ele>768.2</ele><time>2026-03-28T09:59:56.999Z</time></trkpt><trkpt lat="44.81375859490735" lon="9.269962364768666"><ele>768.0</ele><time>2026-03-28T09:59:57.999Z</time></trkpt><trkpt lat="44.813619805938316" lon="9.269984120600133"><ele>768.0</ele><time>2026-03-28T09:59:59.999Z</time></trkpt><trkpt lat="44.81351796712408" lon="9.269995406492608"><ele>768.0</ele><time>2026-03-28T10:00:00.999Z</time></trkpt><trkpt lat="44.81341561758867" lon="9.270015264069814"><ele>768.0</ele><time>2026-03-28T10:00:01.999Z</time></trkpt><trkpt lat="44.813323049423694" lon="9.270021376509032"><ele>768.0</ele><time>2026-03-28T10:00:02.999Z</time></trkpt><trkpt lat="44.81324955128664" lon="9.270035419728401"><ele>768.0</ele><time>2026-03-28T10:00:03.999Z</time></trkpt><trkpt lat="44.813181072052366" lon="9.27005740178748"><ele>768.0</ele><time>2026-03-28T10:00:04.999Z</time></trkpt><trkpt lat="44.81311821937206" lon="9.270063244799516"><ele>766.2</ele><time>2026-03-28T10:00:05.999Z</time></trkpt><trkpt lat="44.81300544344173" lon="9.270073276373944"><ele>764.4</ele><time>2026-03-28T10:00:07.999Z</time></trkpt><trkpt lat="44.81290973861873" lon="9.270086355734547"><ele>762.6</ele><time>2026-03-28T10:00:09.999Z</time></trkpt><trkpt lat="44.81279118762913" lon="9.270095575783921"><ele>760.8000000000001</ele><time>2026-03-28T10:00:11.999Z</time></trkpt><trkpt lat="44.81270313116271" lon="9.270128941880417"><ele>759.0</ele><time>2026-03-28T10:00:13.999Z</time></trkpt><trkpt lat="44.81260574209063" lon="9.270185333613913"><ele>758.4000000000001</ele><time>2026-03-28T10:00:15.999Z</time></trkpt><trkpt lat="44.81254807404839" lon="9.27024116701194"><ele>757.8</ele><time>2026-03-28T10:00:16.999Z</time></trkpt><trkpt lat="44.812449846571226" lon="9.270323599789963"><ele>757.2</ele><time>2026-03-28T10:00:18.999Z</time></trkpt><trkpt lat="44.812384770715916" lon="9.270329711313478"><ele>756.5999999999999</ele><time>2026-03-28T10:00:20.999Z</time></trkpt><trkpt lat="44.81230373373432" lon="9.270266252087684"><ele>756.0</ele><time>2026-03-28T10:00:23.999Z</time></trkpt><trkpt lat="44.81216528699765" lon="9.270213708540242"><ele>756.0</ele><time>2026-03-28T10:00:25.999Z</time></trkpt><trkpt lat="44.81209510112722" lon="9.270206901995563"><ele>756.0</ele><time>2026-03-28T10:00:26.999Z</time></trkpt><trkpt lat="44.81202827836755" lon="9.270188805891726"><ele>756.0</ele><time>2026-03-28T10:00:27.999Z</time></trkpt><trkpt lat="44.81195173607771" lon="9.27016452391405"><ele>756.0</ele><time>2026-03-28T10:00:28.999Z</time></trkpt><trkpt lat="44.811882150944896" lon="9.270144437238013"><ele>756.0</ele><time>2026-03-28T10:00:29.999Z</time></trkpt><trkpt lat="44.81176863235814" lon="9.270104487196324"><ele>756.0</ele><time>2026-03-28T10:00:31.999Z</time></trkpt><trkpt lat="44.81166860630441" lon="9.270044547003945"><ele>755.5999999999999</ele><time>2026-03-28T10:00:33.999Z</time></trkpt><trkpt lat="44.811575018715295" lon="9.269974249204738"><ele>755.2</ele><time>2026-03-28T10:00:35.999Z</time></trkpt><trkpt lat="44.81145003524307" lon="9.26993100142732"><ele>754.8</ele><time>2026-03-28T10:00:37.999Z</time></trkpt><trkpt lat="44.811340241440604" lon="9.26992970100294"><ele>754.4000000000001</ele><time>2026-03-28T10:00:39.999Z</time></trkpt><trkpt lat="44.81127730107258" lon="9.269920461627967"><ele>754.0</ele><time>2026-03-28T10:00:40.999Z</time></trkpt><trkpt lat="44.81120673251864" lon="9.26992136250839"><ele>754.0</ele><time>2026-03-28T10:00:41.999Z</time></trkpt><trkpt lat="44.81108012448074" lon="9.269964369536384"><ele>754.0</ele><time>2026-03-28T10:00:43.999Z</time></trkpt><trkpt lat="44.81094446423828" lon="9.269946926253251"><ele>754.0</ele><time>2026-03-28T10:00:45.998Z</time></trkpt><trkpt lat="44.81086885511774" lon="9.269959218934211"><ele>754.0</ele><time>2026-03-28T10:00:46.998Z</time></trkpt><trkpt lat="44.810800069484145" lon="9.26997546901834"><ele>754.0</ele><time>2026-03-28T10:00:47.998Z</time></trkpt><trkpt lat="44.810678463599764" lon="9.270008338880247"><ele>751.6666666666667</ele><time>2026-03-28T10:00:49.998Z</time></trkpt><trkpt lat="44.81061233900649" lon="9.27003700622212"><ele>749.3333333333334</ele><time>2026-03-28T10:00:50.998Z</time></trkpt><trkpt lat="44.81054269258935" lon="9.270084318684201"><ele>747.0</ele><time>2026-03-28T10:00:51.998Z</time></trkpt><trkpt lat="44.810471626635945" lon="9.270105405452345"><ele>744.6666666666666</ele><time>2026-03-28T10:00:52.998Z</time></trkpt><trkpt lat="44.8104083182671" lon="9.270130727094816"><ele>742.3333333333333</ele><time>2026-03-28T10:00:53.998Z</time></trkpt><trkpt lat="44.810343320706096" lon="9.270149894005808"><ele>740.0</ele><time>2026-03-28T10:00:54.998Z</time></trkpt><trkpt lat="44.81022960198489" lon="9.27019124725988"><ele>737.6666666666666</ele><time>2026-03-28T10:00:56.998Z</time></trkpt><trkpt lat="44.8101498587809" lon="9.27024380636342"><ele>735.3333333333333</ele><time>2026-03-28T10:00:58.998Z</time></trkpt><trkpt lat="44.8100648533226" lon="9.270219922268923"><ele>733.0</ele><time>2026-03-28T10:01:00.998Z</time></trkpt><trkpt lat="44.81000234605132" lon="9.270169945472318"><ele>730.6666666666666</ele><time>2026-03-28T10:01:01.998Z</time></trkpt><trkpt lat="44.80992394731451" lon="9.270175523141075"><ele>728.3333333333334</ele><time>2026-03-28T10:01:02.998Z</time></trkpt><trkpt lat="44.809855353468805" lon="9.270241349103616"><ele>726.0</ele><time>2026-03-28T10:01:04Z</time></trkpt><trkpt lat="44.80979958734037" lon="9.270354801094232"><ele>726.0</ele><time>2026-03-28T10:01:05Z</time></trkpt><trkpt lat="44.809743188586886" lon="9.270469565673539"><ele>726.0</ele><time>2026-03-28T10:01:06Z</time></trkpt><trkpt lat="44.80968447048565" lon="9.270571093057095"><ele>726.0</ele><time>2026-03-28T10:01:07Z</time></trkpt><trkpt lat="44.80961761763195" lon="9.270662181653238"><ele>726.0</ele><time>2026-03-28T10:01:08Z</time></trkpt><trkpt lat="44.80955588510795" lon="9.270759957168536"><ele>726.0</ele><time>2026-03-28T10:01:09Z</time></trkpt><trkpt lat="44.80950041851346" lon="9.270841255916006"><ele>724.6666666666666</ele><time>2026-03-28T10:01:10Z</time></trkpt><trkpt lat="44.809439136369505" lon="9.270926156540293"><ele>723.3333333333334</ele><time>2026-03-28T10:01:11Z</time></trkpt><trkpt lat="44.809370287811674" lon="9.271012662113185"><ele>722.0</ele><time>2026-03-28T10:01:12Z</time></trkpt><trkpt lat="44.80930578260429" lon="9.271101898459369"><ele>720.6666666666667</ele><time>2026-03-28T10:01:13Z</time></trkpt><trkpt lat="44.80924373049463" lon="9.271181688085685"><ele>719.3333333333334</ele><time>2026-03-28T10:01:14Z</time></trkpt><trkpt lat="44.80918781305762" lon="9.271256323175079"><ele>718.0</ele><time>2026-03-28T10:01:15Z</time></trkpt><trkpt lat="44.80912953927982" lon="9.271304637092268"><ele>718.0</ele><time>2026-03-28T10:01:16Z</time></trkpt><trkpt lat="44.809023479280015" lon="9.271360798370598"><ele>718.0</ele><time>2026-03-28T10:01:18Z</time></trkpt><trkpt lat="44.808953684767225" lon="9.271367527306293"><ele>718.0</ele><time>2026-03-28T10:01:20Z</time></trkpt><trkpt lat="44.8088893520907" lon="9.271414542826651"><ele>718.0</ele><time>2026-03-28T10:01:24Z</time></trkpt><trkpt lat="44.80894368664609" lon="9.271757466450593"><ele>718.5</ele><time>2026-03-28T10:01:25Z</time></trkpt><trkpt lat="44.808958437949336" lon="9.271939037165243"><ele>719.0</ele><time>2026-03-28T10:01:27Z</time></trkpt><trkpt lat="44.80898163474587" lon="9.272039598693318"><ele>719.5</ele><time>2026-03-28T10:01:28Z</time></trkpt><trkpt lat="44.80899755049848" lon="9.27213280277085"><ele>720.0</ele><time>2026-03-28T10:01:29Z</time></trkpt><trkpt lat="44.80898071442037" lon="9.272248441168502"><ele>720.5</ele><time>2026-03-28T10:01:30Z</time></trkpt><trkpt lat="44.80896603135415" lon="9.272364376951527"><ele>721.0</ele><time>2026-03-28T10:01:31Z</time></trkpt><trkpt lat="44.80895362068674" lon="9.272491793414577"><ele>721.1666666666667</ele><time>2026-03-28T10:01:32Z</time></trkpt><trkpt lat="44.80895141297115" lon="9.27261952414665"><ele>721.3333333333334</ele><time>2026-03-28T10:01:33Z</time></trkpt><trkpt lat="44.80895169865751" lon="9.272737979064479"><ele>721.5</ele><time>2026-03-28T10:01:34Z</time></trkpt><trkpt lat="44.80895741083016" lon="9.272840181688668"><ele>721.6666666666666</ele><time>2026-03-28T10:01:35Z</time></trkpt><trkpt lat="44.808958709332906" lon="9.27295281755946"><ele>721.8333333333333</ele><time>2026-03-28T10:01:36Z</time></trkpt><trkpt lat="44.80896835442525" lon="9.273056972977088"><ele>722.0</ele><time>2026-03-28T10:01:37Z</time></trkpt><trkpt lat="44.80898695580629" lon="9.273146329448721"><ele>722.0</ele><time>2026-03-28T10:01:38Z</time></trkpt><trkpt lat="44.80901619550476" lon="9.273242161321273"><ele>722.0</ele><time>2026-03-28T10:01:39Z</time></trkpt><trkpt lat="44.80906158313306" lon="9.2733384004799"><ele>722.0</ele><time>2026-03-28T10:01:40Z</time></trkpt><trkpt lat="44.809119619909445" lon="9.27345331104883"><ele>722.0</ele><time>2026-03-28T10:01:41Z</time></trkpt><trkpt lat="44.80918887551823" lon="9.273566558108136"><ele>722.0</ele><time>2026-03-28T10:01:42Z</time></trkpt><trkpt lat="44.80924125497342" lon="9.27365437696585"><ele>722.0</ele><time>2026-03-28T10:01:43Z</time></trkpt><trkpt lat="44.80924494284722" lon="9.273827601549693"><ele>722.0</ele><time>2026-03-28T10:01:45Z</time></trkpt><trkpt lat="44.80920708494631" lon="9.273926157120552"><ele>722.0</ele><time>2026-03-28T10:01:46Z</time></trkpt><trkpt lat="44.80917832038715" lon="9.274008671900955"><ele>722.0</ele><time>2026-03-28T10:01:47Z</time></trkpt><trkpt lat="44.809214418432575" lon="9.27408442359064"><ele>722.0</ele><time>2026-03-28T10:01:48Z</time></trkpt><trkpt lat="44.809271595450944" lon="9.274184090361002"><ele>722.0</ele><time>2026-03-28T10:01:49Z</time></trkpt><trkpt lat="44.80930529820643" lon="9.274318608858055"><ele>722.0</ele><time>2026-03-28T10:01:50Z</time></trkpt><trkpt lat="44.80934132588772" lon="9.274405755526256"><ele>722.4000000000001</ele><time>2026-03-28T10:01:51Z</time></trkpt><trkpt lat="44.809390211762455" lon="9.274561816510133"><ele>722.8000000000001</ele><time>2026-03-28T10:01:53Z</time></trkpt><trkpt lat="44.80939108559629" lon="9.274723396463777"><ele>723.2</ele><time>2026-03-28T10:01:55Z</time></trkpt><trkpt lat="44.809394605080804" lon="9.27490393410978"><ele>723.6</ele><time>2026-03-28T10:01:56.999Z</time></trkpt><trkpt lat="44.80936152798614" lon="9.27499175511751"><ele>724.0</ele><time>2026-03-28T10:01:57.999Z</time></trkpt><trkpt lat="44.80929228034776" lon="9.275103532348327"><ele>724.0</ele><time>2026-03-28T10:01:58.999Z</time></trkpt><trkpt lat="44.809233910228215" lon="9.27521255873768"><ele>724.0</ele><time>2026-03-28T10:01:59.999Z</time></trkpt><trkpt lat="44.80920801668046" lon="9.275300850884427"><ele>724.0</ele><time>2026-03-28T10:02:00.999Z</time></trkpt><trkpt lat="44.809186543354365" lon="9.275450649894447"><ele>724.0</ele><time>2026-03-28T10:02:02.999Z</time></trkpt><trkpt lat="44.809221021967495" lon="9.275574806335527"><ele>724.0</ele><time>2026-03-28T10:02:03.999Z</time></trkpt><trkpt lat="44.80925362570469" lon="9.27573869985539"><ele>724.1666666666667</ele><time>2026-03-28T10:02:04.999Z</time></trkpt><trkpt lat="44.80927327309315" lon="9.27586662168862"><ele>724.3333333333334</ele><time>2026-03-28T10:02:05.999Z</time></trkpt><trkpt lat="44.80926376269983" lon="9.275955779261588"><ele>724.5</ele><time>2026-03-28T10:02:06.999Z</time></trkpt><trkpt lat="44.80922414532495" lon="9.276039685726934"><ele>724.6666666666666</ele><time>2026-03-28T10:02:07.999Z</time></trkpt><trkpt lat="44.809205955019195" lon="9.276166094261782"><ele>724.8333333333333</ele><time>2026-03-28T10:02:08.999Z</time></trkpt><trkpt lat="44.809199899847265" lon="9.276313240966008"><ele>725.0</ele><time>2026-03-28T10:02:09.999Z</time></trkpt><trkpt lat="44.80920224380414" lon="9.276448140485032"><ele>725.8333333333333</ele><time>2026-03-28T10:02:10.999Z</time></trkpt><trkpt lat="44.80920355541171" lon="9.276574225538358"><ele>726.6666666666666</ele><time>2026-03-28T10:02:11.999Z</time></trkpt><trkpt lat="44.80918208932625" lon="9.276707032456674"><ele>727.5</ele><time>2026-03-28T10:02:12.999Z</time></trkpt><trkpt lat="44.80915555435119" lon="9.276809570399351"><ele>728.3333333333334</ele><time>2026-03-28T10:02:13.999Z</time></trkpt><trkpt lat="44.80914939330223" lon="9.27690375988201"><ele>729.1666666666667</ele><time>2026-03-28T10:02:14.999Z</time></trkpt><trkpt lat="44.80917669770208" lon="9.27698516718862"><ele>730.0</ele><time>2026-03-28T10:02:15.999Z</time></trkpt><trkpt lat="44.80916693255672" lon="9.277089610274853"><ele>730.0</ele><time>2026-03-28T10:02:17.999Z</time></trkpt><trkpt lat="44.80909395612405" lon="9.277075749867423"><ele>730.0</ele><time>2026-03-28T10:02:20.999Z</time></trkpt><trkpt lat="44.808993860799355" lon="9.277023313838221"><ele>730.0</ele><time>2026-03-28T10:02:22.999Z</time></trkpt><trkpt lat="44.8088055812618" lon="9.276965830717776"><ele>730.0</ele><time>2026-03-28T10:02:23.999Z</time></trkpt><trkpt lat="44.808702730989076" lon="9.276970328625348"><ele>730.0</ele><time>2026-03-28T10:02:24.999Z</time></trkpt><trkpt lat="44.808522584227916" lon="9.276978888994355"><ele>730.0</ele><time>2026-03-28T10:02:25.999Z</time></trkpt><trkpt lat="44.808374108029895" lon="9.276994008869545"><ele>730.0</ele><time>2026-03-28T10:02:26.999Z</time></trkpt><trkpt lat="44.808267881352535" lon="9.2770252236945"><ele>730.0</ele><time>2026-03-28T10:02:27.999Z</time></trkpt><trkpt lat="44.80814809481415" lon="9.277046782087535"><ele>729.4</ele><time>2026-03-28T10:02:28.999Z</time></trkpt><trkpt lat="44.80805152720524" lon="9.277055829548186"><ele>728.8</ele><time>2026-03-28T10:02:29.999Z</time></trkpt><trkpt lat="44.80796665752356" lon="9.277062160826928"><ele>728.2</ele><time>2026-03-28T10:02:30.999Z</time></trkpt><trkpt lat="44.80787391636304" lon="9.277088284032072"><ele>727.6</ele><time>2026-03-28T10:02:31.999Z</time></trkpt><trkpt lat="44.8077882859252" lon="9.277146657634052"><ele>727.0</ele><time>2026-03-28T10:02:32.999Z</time></trkpt><trkpt lat="44.80769119557084" lon="9.277203069964363"><ele>727.0</ele><time>2026-03-28T10:02:33.999Z</time></trkpt><trkpt lat="44.80761027687271" lon="9.277267746661002"><ele>727.0</ele><time>2026-03-28T10:02:34.999Z</time></trkpt><trkpt lat="44.80753609228318" lon="9.277367231048315"><ele>727.0</ele><time>2026-03-28T10:02:35.999Z</time></trkpt><trkpt lat="44.80745820429842" lon="9.277465689626268"><ele>727.0</ele><time>2026-03-28T10:02:36.999Z</time></trkpt><trkpt lat="44.80737128063338" lon="9.277562303090091"><ele>727.0</ele><time>2026-03-28T10:02:37.999Z</time></trkpt><trkpt lat="44.80728231415841" lon="9.277649350467199"><ele>728.2</ele><time>2026-03-28T10:02:38.999Z</time></trkpt><trkpt lat="44.807189213428806" lon="9.277732635024051"><ele>729.4000000000001</ele><time>2026-03-28T10:02:39.999Z</time></trkpt><trkpt lat="44.80710616751892" lon="9.277816289267339"><ele>730.5999999999999</ele><time>2026-03-28T10:02:40.999Z</time></trkpt><trkpt lat="44.80703946409253" lon="9.277912470549746"><ele>731.8</ele><time>2026-03-28T10:02:41.999Z</time></trkpt><trkpt lat="44.806952421842844" lon="9.278057466880961"><ele>733.0</ele><time>2026-03-28T10:02:42.999Z</time></trkpt><trkpt lat="44.806894599791114" lon="9.278175056222343"><ele>735.2</ele><time>2026-03-28T10:02:43.999Z</time></trkpt><trkpt lat="44.80685566725136" lon="9.278269525939978"><ele>737.4</ele><time>2026-03-28T10:02:44.999Z</time></trkpt><trkpt lat="44.80683802115074" lon="9.278359616536479"><ele>739.6</ele><time>2026-03-28T10:02:45.999Z</time></trkpt><trkpt lat="44.80686534548526" lon="9.278484882761092"><ele>741.8000000000001</ele><time>2026-03-28T10:02:46.999Z</time></trkpt><trkpt lat="44.80691571156974" lon="9.278649121069762"><ele>744.0</ele><time>2026-03-28T10:02:47.999Z</time></trkpt><trkpt lat="44.806964258353666" lon="9.278808984306943"><ele>744.0</ele><time>2026-03-28T10:02:48.999Z</time></trkpt><trkpt lat="44.80704039771589" lon="9.278919001547466"><ele>744.0</ele><time>2026-03-28T10:02:49.998Z</time></trkpt><trkpt lat="44.80711784445408" lon="9.278983636218703"><ele>744.0</ele><time>2026-03-28T10:02:50.998Z</time></trkpt><trkpt lat="44.807207692286795" lon="9.279047408019768"><ele>744.0</ele><time>2026-03-28T10:02:51.998Z</time></trkpt><trkpt lat="44.80726373418335" lon="9.27913313262598"><ele>744.0</ele><time>2026-03-28T10:02:52.998Z</time></trkpt><trkpt lat="44.807324728058475" lon="9.279217447603338"><ele>745.4000000000001</ele><time>2026-03-28T10:02:53.998Z</time></trkpt><trkpt lat="44.80737603355109" lon="9.279312059548097"><ele>746.8</ele><time>2026-03-28T10:02:54.998Z</time></trkpt><trkpt lat="44.80743724915558" lon="9.279425413677998"><ele>748.2</ele><time>2026-03-28T10:02:55.998Z</time></trkpt><trkpt lat="44.807514641531554" lon="9.279555205137537"><ele>749.5999999999999</ele><time>2026-03-28T10:02:56.998Z</time></trkpt><trkpt lat="44.80757856473097" lon="9.279630907792724"><ele>751.0</ele><time>2026-03-28T10:02:57.998Z</time></trkpt><trkpt lat="44.807660457999546" lon="9.279721705293142"><ele>753.1999999999999</ele><time>2026-03-28T10:02:59.998Z</time></trkpt><trkpt lat="44.80770467803629" lon="9.279833597243169"><ele>755.4</ele><time>2026-03-28T10:03:01.998Z</time></trkpt><trkpt lat="44.80756042234526" lon="9.279947523346616"><ele>757.6</ele><time>2026-03-28T10:03:05.998Z</time></trkpt><trkpt lat="44.80746002043295" lon="9.279957492956628"><ele>759.8</ele><time>2026-03-28T10:03:06.998Z</time></trkpt><trkpt lat="44.80738425472399" lon="9.279969420692444"><ele>762.0</ele><time>2026-03-28T10:03:07.998Z</time></trkpt><trkpt lat="44.80729550070313" lon="9.27998113099871"><ele>762.0</ele><time>2026-03-28T10:03:08.998Z</time></trkpt><trkpt lat="44.80722281896957" lon="9.279993097604732"><ele>762.0</ele><time>2026-03-28T10:03:10Z</time></trkpt><trkpt lat="44.8071501750048" lon="9.279997608876407"><ele>762.0</ele><time>2026-03-28T10:03:11Z</time></trkpt><trkpt lat="44.807072473389866" lon="9.280010243557715"><ele>762.0</ele><time>2026-03-28T10:03:12Z</time></trkpt><trkpt lat="44.80699582820429" lon="9.280017558730272"><ele>762.0</ele><time>2026-03-28T10:03:13Z</time></trkpt><trkpt lat="44.806918648563794" lon="9.280030419531023"><ele>762.0</ele><time>2026-03-28T10:03:14Z</time></trkpt><trkpt lat="44.8068423257869" lon="9.280049056295034"><ele>761.1666666666666</ele><time>2026-03-28T10:03:15Z</time></trkpt><trkpt lat="44.80675946864142" lon="9.280055363007401"><ele>760.3333333333334</ele><time>2026-03-28T10:03:16Z</time></trkpt><trkpt lat="44.80667021515998" lon="9.280055862712324"><ele>759.5</ele><time>2026-03-28T10:03:17Z</time></trkpt><trkpt lat="44.80658065138449" lon="9.279995579273479"><ele>758.6666666666667</ele><time>2026-03-28T10:03:18Z</time></trkpt><trkpt lat="44.80649136948165" lon="9.280001159403662"><ele>757.8333333333334</ele><time>2026-03-28T10:03:19Z</time></trkpt><trkpt lat="44.806405904829425" lon="9.279983559673122"><ele>757.0</ele><time>2026-03-28T10:03:20Z</time></trkpt><trkpt lat="44.80630622037167" lon="9.279967460113363"><ele>757.0</ele><time>2026-03-28T10:03:21Z</time></trkpt><trkpt lat="44.806211910693385" lon="9.279944721095434"><ele>757.0</ele><time>2026-03-28T10:03:22Z</time></trkpt><trkpt lat="44.806111764855366" lon="9.27992549464327"><ele>757.0</ele><time>2026-03-28T10:03:23Z</time></trkpt><trkpt lat="44.80601415498206" lon="9.279910771787595"><ele>757.0</ele><time>2026-03-28T10:03:24Z</time></trkpt><trkpt lat="44.805887084672754" lon="9.27989160529901"><ele>757.0</ele><time>2026-03-28T10:03:25Z</time></trkpt><trkpt lat="44.805784030066086" lon="9.279872513906225"><ele>756.2</ele><time>2026-03-28T10:03:26Z</time></trkpt><trkpt lat="44.8056785167563" lon="9.279850335026445"><ele>755.4000000000001</ele><time>2026-03-28T10:03:27Z</time></trkpt><trkpt lat="44.80557363728831" lon="9.279824659675166"><ele>754.5999999999999</ele><time>2026-03-28T10:03:28Z</time></trkpt><trkpt lat="44.80548181824914" lon="9.2798020114791"><ele>753.8</ele><time>2026-03-28T10:03:29Z</time></trkpt><trkpt lat="44.805390859544715" lon="9.279779497811175"><ele>753.0</ele><time>2026-03-28T10:03:30Z</time></trkpt><trkpt lat="44.805295063219816" lon="9.279756671165753"><ele>751.0</ele><time>2026-03-28T10:03:31Z</time></trkpt><trkpt lat="44.805191271837714" lon="9.279737266674806"><ele>749.0</ele><time>2026-03-28T10:03:32Z</time></trkpt><trkpt lat="44.80508078650046" lon="9.279720669578245"><ele>747.0</ele><time>2026-03-28T10:03:33Z</time></trkpt><trkpt lat="44.80497417707569" lon="9.279705777034916"><ele>745.0</ele><time>2026-03-28T10:03:34Z</time></trkpt><trkpt lat="44.804868598087644" lon="9.279691544874552"><ele>743.0</ele><time>2026-03-28T10:03:35Z</time></trkpt><trkpt lat="44.80476789298922" lon="9.279677969720794"><ele>743.0</ele><time>2026-03-28T10:03:36Z</time></trkpt><trkpt lat="44.80466057204428" lon="9.279665792934344"><ele>743.0</ele><time>2026-03-28T10:03:37Z</time></trkpt><trkpt lat="44.80456045360138" lon="9.279660318092475"><ele>743.0</ele><time>2026-03-28T10:03:38Z</time></trkpt><trkpt lat="44.80446705075143" lon="9.279664905901354"><ele>743.0</ele><time>2026-03-28T10:03:39Z</time></trkpt><trkpt lat="44.80437971825639" lon="9.279677453702213"><ele>743.0</ele><time>2026-03-28T10:03:40Z</time></trkpt><trkpt lat="44.80429918747932" lon="9.279695094149268"><ele>744.0</ele><time>2026-03-28T10:03:41Z</time></trkpt><trkpt lat="44.80421682423061" lon="9.279720658277238"><ele>745.0</ele><time>2026-03-28T10:03:42Z</time></trkpt><trkpt lat="44.804146927277955" lon="9.279751838081175"><ele>746.0</ele><time>2026-03-28T10:03:43Z</time></trkpt><trkpt lat="44.80407538063151" lon="9.279813119040611"><ele>747.0</ele><time>2026-03-28T10:03:44Z</time></trkpt><trkpt lat="44.80403807869219" lon="9.279942263483099"><ele>748.0</ele><time>2026-03-28T10:03:45Z</time></trkpt><trkpt lat="44.804000003891325" lon="9.280044895085895"><ele>749.0</ele><time>2026-03-28T10:03:46Z</time></trkpt><trkpt lat="44.8039671789063" lon="9.280135827678695"><ele>749.0</ele><time>2026-03-28T10:03:47Z</time></trkpt><trkpt lat="44.80391881072887" lon="9.28022412030578"><ele>749.0</ele><time>2026-03-28T10:03:48Z</time></trkpt><trkpt lat="44.80384758536995" lon="9.28028216762606"><ele>749.0</ele><time>2026-03-28T10:03:49Z</time></trkpt><trkpt lat="44.803770386391356" lon="9.280255236973469"><ele>749.0</ele><time>2026-03-28T10:03:50Z</time></trkpt><trkpt lat="44.803689019204334" lon="9.280249927141838"><ele>749.0</ele><time>2026-03-28T10:03:51Z</time></trkpt><trkpt lat="44.80359117704916" lon="9.28024880351245"><ele>749.0</ele><time>2026-03-28T10:03:52Z</time></trkpt><trkpt lat="44.80350166646789" lon="9.280225438385663"><ele>747.6666666666666</ele><time>2026-03-28T10:03:53Z</time></trkpt><trkpt lat="44.80341786757865" lon="9.280187871748556"><ele>746.3333333333333</ele><time>2026-03-28T10:03:54Z</time></trkpt><trkpt lat="44.80333372781359" lon="9.280147501087251"><ele>745.0</ele><time>2026-03-28T10:03:55Z</time></trkpt><trkpt lat="44.80325631606301" lon="9.280108957843542"><ele>743.6666666666666</ele><time>2026-03-28T10:03:56Z</time></trkpt><trkpt lat="44.80317620904691" lon="9.280079671669938"><ele>742.3333333333334</ele><time>2026-03-28T10:03:57Z</time></trkpt><trkpt lat="44.803080487768035" lon="9.280090818072653"><ele>741.0</ele><time>2026-03-28T10:03:58Z</time></trkpt><trkpt lat="44.80300282226157" lon="9.28017236717142"><ele>741.0</ele><time>2026-03-28T10:03:59Z</time></trkpt><trkpt lat="44.80292038061432" lon="9.280211786526163"><ele>741.0</ele><time>2026-03-28T10:04:00Z</time></trkpt><trkpt lat="44.802840501245996" lon="9.280244842958776"><ele>741.0</ele><time>2026-03-28T10:04:01Z</time></trkpt><trkpt lat="44.80276532379047" lon="9.280277895216138"><ele>741.0</ele><time>2026-03-28T10:04:02Z</time></trkpt><trkpt lat="44.80269994577183" lon="9.280309350991182"><ele>741.0</ele><time>2026-03-28T10:04:03Z</time></trkpt><trkpt lat="44.80263498965615" lon="9.280338220787783"><ele>741.0</ele><time>2026-03-28T10:04:03.999Z</time></trkpt><trkpt lat="44.802566797142184" lon="9.280364971871425"><ele>741.1999999999999</ele><time>2026-03-28T10:04:04.999Z</time></trkpt><trkpt lat="44.80252300041501" lon="9.280584712236049"><ele>741.4</ele><time>2026-03-28T10:04:06.999Z</time></trkpt><trkpt lat="44.802511678437604" lon="9.280681575474327"><ele>741.6</ele><time>2026-03-28T10:04:07.999Z</time></trkpt><trkpt lat="44.802487453751546" lon="9.28078454687419"><ele>741.8</ele><time>2026-03-28T10:04:08.999Z</time></trkpt><trkpt lat="44.80245585078312" lon="9.280894575801131"><ele>742.0</ele><time>2026-03-28T10:04:09.999Z</time></trkpt><trkpt lat="44.802408919180245" lon="9.281005114520394"><ele>742.0</ele><time>2026-03-28T10:04:10.999Z</time></trkpt><trkpt lat="44.80232448797154" lon="9.281066097038511"><ele>742.0</ele><time>2026-03-28T10:04:11.999Z</time></trkpt><trkpt lat="44.80223937049243" lon="9.281112279973518"><ele>742.0</ele><time>2026-03-28T10:04:12.999Z</time></trkpt><trkpt lat="44.80214329666385" lon="9.28117079481363"><ele>742.0</ele><time>2026-03-28T10:04:13.999Z</time></trkpt><trkpt lat="44.80204095020652" lon="9.281229635522882"><ele>742.0</ele><time>2026-03-28T10:04:14.999Z</time></trkpt><trkpt lat="44.801943363333194" lon="9.281299675999215"><ele>742.0</ele><time>2026-03-28T10:04:15.999Z</time></trkpt><trkpt lat="44.801844758608" lon="9.281352838318309"><ele>742.0</ele><time>2026-03-28T10:04:16.999Z</time></trkpt><trkpt lat="44.8017553166469" lon="9.281370572648736"><ele>742.0</ele><time>2026-03-28T10:04:17.999Z</time></trkpt><trkpt lat="44.801664228197744" lon="9.281356631633805"><ele>742.0</ele><time>2026-03-28T10:04:18.999Z</time></trkpt><trkpt lat="44.801553407671165" lon="9.281356274959444"><ele>742.0</ele><time>2026-03-28T10:04:19.999Z</time></trkpt><trkpt lat="44.80144520668316" lon="9.281356364061429"><ele>740.8</ele><time>2026-03-28T10:04:20.999Z</time></trkpt><trkpt lat="44.801336905390755" lon="9.281352774442116"><ele>739.6</ele><time>2026-03-28T10:04:21.999Z</time></trkpt><trkpt lat="44.80123632316123" lon="9.281336839863894"><ele>738.4</ele><time>2026-03-28T10:04:22.999Z</time></trkpt><trkpt lat="44.80113960947688" lon="9.281308191539475"><ele>737.1999999999999</ele><time>2026-03-28T10:04:23.999Z</time></trkpt><trkpt lat="44.801036576075795" lon="9.28128392964647"><ele>736.0</ele><time>2026-03-28T10:04:24.999Z</time></trkpt><trkpt lat="44.80092095872116" lon="9.281282437889486"><ele>735.5999999999999</ele><time>2026-03-28T10:04:25.999Z</time></trkpt><trkpt lat="44.80081424621754" lon="9.281289306406444"><ele>735.2</ele><time>2026-03-28T10:04:26.999Z</time></trkpt><trkpt lat="44.8007119836071" lon="9.281318809334975"><ele>734.8</ele><time>2026-03-28T10:04:27.999Z</time></trkpt><trkpt lat="44.80060367649806" lon="9.281367462159942"><ele>734.4000000000001</ele><time>2026-03-28T10:04:28.999Z</time></trkpt><trkpt lat="44.80049243013793" lon="9.281430731204114"><ele>734.0</ele><time>2026-03-28T10:04:29.999Z</time></trkpt><trkpt lat="44.80038264934132" lon="9.281495589590124"><ele>735.8000000000001</ele><time>2026-03-28T10:04:30.999Z</time></trkpt><trkpt lat="44.80028484169638" lon="9.28155522474939"><ele>737.6</ele><time>2026-03-28T10:04:31.999Z</time></trkpt><trkpt lat="44.80019271553681" lon="9.281617180337317"><ele>739.4</ele><time>2026-03-28T10:04:32.999Z</time></trkpt><trkpt lat="44.80011885056179" lon="9.281696600423944"><ele>741.2</ele><time>2026-03-28T10:04:33.999Z</time></trkpt><trkpt lat="44.80003840054851" lon="9.28177285289677"><ele>743.0</ele><time>2026-03-28T10:04:34.999Z</time></trkpt><trkpt lat="44.799954869552884" lon="9.281856125315873"><ele>743.0</ele><time>2026-03-28T10:04:35.999Z</time></trkpt><trkpt lat="44.79987151562334" lon="9.281937088947211"><ele>743.0</ele><time>2026-03-28T10:04:36.999Z</time></trkpt><trkpt lat="44.79979483344618" lon="9.282024868281647"><ele>743.0</ele><time>2026-03-28T10:04:37.999Z</time></trkpt><trkpt lat="44.799705553420914" lon="9.282058384396072"><ele>743.0</ele><time>2026-03-28T10:04:38.999Z</time></trkpt><trkpt lat="44.79961670440443" lon="9.282067597002158"><ele>743.0</ele><time>2026-03-28T10:04:39.999Z</time></trkpt><trkpt lat="44.79953044424046" lon="9.282094776288707"><ele>743.0</ele><time>2026-03-28T10:04:40.999Z</time></trkpt><trkpt lat="44.799448455364576" lon="9.28216225596498"><ele>743.0</ele><time>2026-03-28T10:04:41.999Z</time></trkpt><trkpt lat="44.799365121766584" lon="9.282245649838332"><ele>743.0</ele><time>2026-03-28T10:04:42.999Z</time></trkpt><trkpt lat="44.79927668652494" lon="9.28236104075439"><ele>743.0</ele><time>2026-03-28T10:04:43.999Z</time></trkpt><trkpt lat="44.799191129628625" lon="9.28244133873495"><ele>743.0</ele><time>2026-03-28T10:04:44.999Z</time></trkpt><trkpt lat="44.799111696832355" lon="9.282489242931694"><ele>743.8</ele><time>2026-03-28T10:04:45.999Z</time></trkpt><trkpt lat="44.799030203985524" lon="9.282541604620674"><ele>744.5999999999999</ele><time>2026-03-28T10:04:46.999Z</time></trkpt><trkpt lat="44.79895751313671" lon="9.282597285100643"><ele>745.4000000000001</ele><time>2026-03-28T10:04:47.999Z</time></trkpt><trkpt lat="44.79890711467575" lon="9.282696356591732"><ele>746.2</ele><time>2026-03-28T10:04:48.999Z</time></trkpt><trkpt lat="44.79885753052714" lon="9.282840291326265"><ele>747.0</ele><time>2026-03-28T10:04:49.999Z</time></trkpt><trkpt lat="44.79881147950943" lon="9.282982220655827"><ele>750.2</ele><time>2026-03-28T10:04:50.999Z</time></trkpt><trkpt lat="44.798753204034874" lon="9.283122276822088"><ele>753.4000000000001</ele><time>2026-03-28T10:04:51.999Z</time></trkpt><trkpt lat="44.798717929116165" lon="9.28326440756591"><ele>756.5999999999999</ele><time>2026-03-28T10:04:52.999Z</time></trkpt><trkpt lat="44.798666890102915" lon="9.283400712054087"><ele>759.8</ele><time>2026-03-28T10:04:53.999Z</time></trkpt><trkpt lat="44.798611431481994" lon="9.283525478310072"><ele>763.0</ele><time>2026-03-28T10:04:54.999Z</time></trkpt><trkpt lat="44.79855612651751" lon="9.283648789610222"><ele>763.0</ele><time>2026-03-28T10:04:55.999Z</time></trkpt><trkpt lat="44.798506313527575" lon="9.283769826702569"><ele>763.0</ele><time>2026-03-28T10:04:56.999Z</time></trkpt><trkpt lat="44.79846819240805" lon="9.283899466278884"><ele>763.0</ele><time>2026-03-28T10:04:57.998Z</time></trkpt><trkpt lat="44.798440785625004" lon="9.284034786854187"><ele>763.0</ele><time>2026-03-28T10:04:58.998Z</time></trkpt><trkpt lat="44.79843282151656" lon="9.28416607538969"><ele>763.0</ele><time>2026-03-28T10:04:59.998Z</time></trkpt><trkpt lat="44.79843259776322" lon="9.28428761001424"><ele>758.0</ele><time>2026-03-28T10:05:00.998Z</time></trkpt><trkpt lat="44.79841600137824" lon="9.284395358189206"><ele>753.0</ele><time>2026-03-28T10:05:01.998Z</time></trkpt><trkpt lat="44.798366225233316" lon="9.284489263204437"><ele>748.0</ele><time>2026-03-28T10:05:02.998Z</time></trkpt><trkpt lat="44.79828019906282" lon="9.284536850640157"><ele>743.0</ele><time>2026-03-28T10:05:03.998Z</time></trkpt><trkpt lat="44.79819795649082" lon="9.284457965203282"><ele>738.0</ele><time>2026-03-28T10:05:04.998Z</time></trkpt><trkpt lat="44.79811945296598" lon="9.28443657098783"><ele>733.0</ele><time>2026-03-28T10:05:05.998Z</time></trkpt><trkpt lat="44.79805260102671" lon="9.284422431024527"><ele>732.9999999999999</ele><time>2026-03-28T10:05:06.998Z</time></trkpt><trkpt lat="44.79799036263461" lon="9.28440883098066"><ele>733.0</ele><time>2026-03-28T10:05:07.998Z</time></trkpt><trkpt lat="44.79790732769794" lon="9.284372612256862"><ele>733.0</ele><time>2026-03-28T10:05:09.998Z</time></trkpt><trkpt lat="44.797840058637526" lon="9.284377580653919"><ele>733.0</ele><time>2026-03-28T10:06:32.999Z</time></trkpt><trkpt lat="44.7979002125088" lon="9.284404685872643"><ele>733.0</ele><time>2026-03-28T10:07:04.998Z</time></trkpt><trkpt lat="44.79796888238804" lon="9.28441469244908"><ele>732.9999999999999</ele><time>2026-03-28T10:12:08Z</time></trkpt><trkpt lat="44.7978942246928" lon="9.284400432732703"><ele>733.0</ele><time>2026-03-28T10:14:20Z</time></trkpt><trkpt lat="44.79782196448094" lon="9.284309475466442"><ele>733.0</ele><time>2026-03-28T10:15:49Z</time></trkpt><trkpt lat="44.797776869082284" lon="9.284190281588078"><ele>733.0</ele><time>2026-03-28T10:15:51Z</time></trkpt><trkpt lat="44.797742302416026" lon="9.284099177302599"><ele>733.0</ele><time>2026-03-28T10:15:52Z</time></trkpt><trkpt lat="44.797701362092006" lon="9.284022626833941"><ele>733.0</ele><time>2026-03-28T10:15:53Z</time></trkpt><trkpt lat="44.79764551199615" lon="9.283913497403763"><ele>733.0</ele><time>2026-03-28T10:15:55Z</time></trkpt><trkpt lat="44.7975812865339" lon="9.283884159212198"><ele>733.0</ele><time>2026-03-28T10:15:58Z</time></trkpt><trkpt lat="44.797564781714975" lon="9.283996066085889"><ele>733.0</ele><time>2026-03-28T10:16:00Z</time></trkpt><trkpt lat="44.797611841522006" lon="9.284123300699298"><ele>733.0</ele><time>2026-03-28T10:16:02Z</time></trkpt><trkpt lat="44.797666931368916" lon="9.284272442784815"><ele>733.0</ele><time>2026-03-28T10:16:04Z</time></trkpt><trkpt lat="44.797674780229215" lon="9.284404317878993"><ele>733.0</ele><time>2026-03-28T10:16:06Z</time></trkpt><trkpt lat="44.797615598737316" lon="9.284460731051128"><ele>733.0</ele><time>2026-03-28T10:16:07Z</time></trkpt><trkpt lat="44.79754423823302" lon="9.284525489021213"><ele>736.0</ele><time>2026-03-28T10:16:08Z</time></trkpt><trkpt lat="44.79751395200107" lon="9.28466009051689"><ele>739.0</ele><time>2026-03-28T10:16:10Z</time></trkpt><trkpt lat="44.79754327317266" lon="9.284743607811153"><ele>742.0</ele><time>2026-03-28T10:16:11Z</time></trkpt><trkpt lat="44.79745618051484" lon="9.284652778580805"><ele>745.0</ele><time>2026-03-28T10:16:15Z</time></trkpt><trkpt lat="44.797411637596774" lon="9.284566028927967"><ele>748.0</ele><time>2026-03-28T10:16:16Z</time></trkpt><trkpt lat="44.79734389796873" lon="9.284426399757876"><ele>748.0</ele><time>2026-03-28T10:16:18Z</time></trkpt><trkpt lat="44.79730607861097" lon="9.284333838491808"><ele>748.0</ele><time>2026-03-28T10:16:19Z</time></trkpt><trkpt lat="44.79726290292795" lon="9.284217992423702"><ele>748.0</ele><time>2026-03-28T10:16:20Z</time></trkpt><trkpt lat="44.797244026960676" lon="9.284095494223404"><ele>748.0</ele><time>2026-03-28T10:16:21Z</time></trkpt><trkpt lat="44.79721072693316" lon="9.28395596177124"><ele>748.0</ele><time>2026-03-28T10:16:23Z</time></trkpt><trkpt lat="44.79716517058254" lon="9.283894593982962"><ele>748.0</ele><time>2026-03-28T10:16:25Z</time></trkpt><trkpt lat="44.79717370704731" lon="9.28398608041178"><ele>748.0</ele><time>2026-03-28T10:16:27Z</time></trkpt><trkpt lat="44.79718134969005" lon="9.284173530575874"><ele>748.0</ele><time>2026-03-28T10:16:29Z</time></trkpt><trkpt lat="44.79719102036931" lon="9.284281814045483"><ele>748.0</ele><time>2026-03-28T10:16:30Z</time></trkpt><trkpt lat="44.79719863371801" lon="9.284407434450682"><ele>748.0</ele><time>2026-03-28T10:16:31Z</time></trkpt><trkpt lat="44.79722742606293" lon="9.284548492512815"><ele>748.0</ele><time>2026-03-28T10:16:32Z</time></trkpt><trkpt lat="44.797252572400915" lon="9.284670853164355"><ele>749.7142857142857</ele><time>2026-03-28T10:16:33Z</time></trkpt><trkpt lat="44.79727751843634" lon="9.284775169637678"><ele>751.4285714285714</ele><time>2026-03-28T10:16:33.999Z</time></trkpt><trkpt lat="44.79730541175671" lon="9.284864856235664"><ele>753.1428571428571</ele><time>2026-03-28T10:16:34.999Z</time></trkpt><trkpt lat="44.79732274978206" lon="9.284965753761242"><ele>754.8571428571429</ele><time>2026-03-28T10:16:35.999Z</time></trkpt><trkpt lat="44.797308500922256" lon="9.285070761207706"><ele>756.5714285714287</ele><time>2026-03-28T10:16:36.999Z</time></trkpt><trkpt lat="44.79730860155509" lon="9.285177914042922"><ele>758.2857142857143</ele><time>2026-03-28T10:16:37.999Z</time></trkpt><trkpt lat="44.79730691122746" lon="9.285279673210075"><ele>760.0</ele><time>2026-03-28T10:16:38.999Z</time></trkpt><trkpt lat="44.797310815629366" lon="9.285376270750378"><ele>760.0</ele><time>2026-03-28T10:16:39.999Z</time></trkpt><trkpt lat="44.7973020232918" lon="9.285473489741305"><ele>760.0</ele><time>2026-03-28T10:16:40.999Z</time></trkpt><trkpt lat="44.79728791865436" lon="9.285600095391844"><ele>760.0</ele><time>2026-03-28T10:16:43.999Z</time></trkpt><trkpt lat="44.797244240007146" lon="9.2857159423042"><ele>760.0</ele><time>2026-03-28T10:16:45.999Z</time></trkpt><trkpt lat="44.79721102122264" lon="9.285831278283165"><ele>760.0</ele><time>2026-03-28T10:16:47.999Z</time></trkpt><trkpt lat="44.79716357019355" lon="9.285975837157672"><ele>761.3333333333334</ele><time>2026-03-28T10:16:49.999Z</time></trkpt><trkpt lat="44.797117353706945" lon="9.286053041461422"><ele>762.6666666666667</ele><time>2026-03-28T10:16:50.999Z</time></trkpt><trkpt lat="44.79706789837574" lon="9.28618500508697"><ele>764.0</ele><time>2026-03-28T10:16:52.999Z</time></trkpt><trkpt lat="44.79707099229653" lon="9.286334438288726"><ele>765.3333333333334</ele><time>2026-03-28T10:16:54.999Z</time></trkpt><trkpt lat="44.797073717054616" lon="9.286451369284503"><ele>766.6666666666666</ele><time>2026-03-28T10:16:56.999Z</time></trkpt><trkpt lat="44.79712751879516" lon="9.286502359267574"><ele>768.0</ele><time>2026-03-28T10:16:58.999Z</time></trkpt><trkpt lat="44.79712955728393" lon="9.286642518917978"><ele>768.5999999999999</ele><time>2026-03-28T10:17:01.999Z</time></trkpt><trkpt lat="44.79712585318673" lon="9.286775816164127"><ele>769.1999999999999</ele><time>2026-03-28T10:17:03.999Z</time></trkpt><trkpt lat="44.79709316216008" lon="9.286867441191896"><ele>769.8</ele><time>2026-03-28T10:17:06.999Z</time></trkpt><trkpt lat="44.796986288826815" lon="9.286842969182837"><ele>770.4</ele><time>2026-03-28T10:17:10.999Z</time></trkpt><trkpt lat="44.79687985453212" lon="9.28687598137203"><ele>771.0</ele><time>2026-03-28T10:17:12.999Z</time></trkpt><trkpt lat="44.79680329919228" lon="9.286938451440271"><ele>772.8333333333334</ele><time>2026-03-28T10:17:14.999Z</time></trkpt><trkpt lat="44.796780490374914" lon="9.287030075270575"><ele>774.6666666666667</ele><time>2026-03-28T10:17:16.999Z</time></trkpt><trkpt lat="44.79681144136727" lon="9.287108361227776"><ele>776.5</ele><time>2026-03-28T10:17:19.999Z</time></trkpt><trkpt lat="44.79679829425186" lon="9.287255442664579"><ele>778.3333333333334</ele><time>2026-03-28T10:17:22.999Z</time></trkpt><trkpt lat="44.796851322421944" lon="9.287342824111773"><ele>780.1666666666667</ele><time>2026-03-28T10:17:24.999Z</time></trkpt><trkpt lat="44.79686291480553" lon="9.287454668673236"><ele>782.0</ele><time>2026-03-28T10:17:26.999Z</time></trkpt><trkpt lat="44.796893489603676" lon="9.287574280172821"><ele>791.0000000000001</ele><time>2026-03-28T10:17:30.998Z</time></trkpt><trkpt lat="44.79682725310043" lon="9.287661650631565"><ele>800.0</ele><time>2026-03-28T10:17:33.998Z</time></trkpt><trkpt lat="44.79672584536458" lon="9.28766887253688"><ele>809.0</ele><time>2026-03-28T10:17:36.998Z</time></trkpt><trkpt lat="44.79666163606896" lon="9.287722607601472"><ele>818.0</ele><time>2026-03-28T10:17:38.998Z</time></trkpt><trkpt lat="44.796573728974394" lon="9.28776156341839"><ele>827.0000000000001</ele><time>2026-03-28T10:17:40.998Z</time></trkpt><trkpt lat="44.79656091496296" lon="9.287853319239154"><ele>836.0</ele><time>2026-03-28T10:17:42.998Z</time></trkpt><trkpt lat="44.796532238713475" lon="9.287938283695459"><ele>836.0000000000001</ele><time>2026-03-28T10:17:44.998Z</time></trkpt><trkpt lat="44.79654572848953" lon="9.28807099944426"><ele>836.0</ele><time>2026-03-28T10:17:47.998Z</time></trkpt><trkpt lat="44.79654999371282" lon="9.288186023021494"><ele>836.0</ele><time>2026-03-28T10:17:50Z</time></trkpt><trkpt lat="44.7965438594246" lon="9.288276781667298"><ele>836.0</ele><time>2026-03-28T10:17:52Z</time></trkpt><trkpt lat="44.79653552579373" lon="9.288373785719228"><ele>836.0000000000001</ele><time>2026-03-28T10:17:53Z</time></trkpt><trkpt lat="44.796513047886634" lon="9.288490194822883"><ele>836.0</ele><time>2026-03-28T10:17:54Z</time></trkpt><trkpt lat="44.79650730542757" lon="9.288662521735231"><ele>837.8333333333334</ele><time>2026-03-28T10:17:56Z</time></trkpt><trkpt lat="44.79649205256226" lon="9.288749961892359"><ele>839.6666666666667</ele><time>2026-03-28T10:17:57Z</time></trkpt><trkpt lat="44.79648219814821" lon="9.288844234235686"><ele>841.5</ele><time>2026-03-28T10:17:58Z</time></trkpt><trkpt lat="44.796475325765826" lon="9.288940339143663"><ele>843.3333333333333</ele><time>2026-03-28T10:17:59Z</time></trkpt><trkpt lat="44.796477194457985" lon="9.289029323764968"><ele>845.1666666666666</ele><time>2026-03-28T10:18:01Z</time></trkpt><trkpt lat="44.79644864496957" lon="9.289163393174146"><ele>847.0</ele><time>2026-03-28T10:18:03Z</time></trkpt><trkpt lat="44.79646270722088" lon="9.289300822626831"><ele>850.0</ele><time>2026-03-28T10:18:06Z</time></trkpt><trkpt lat="44.79651749247005" lon="9.289521700345023"><ele>853.0</ele><time>2026-03-28T10:18:08Z</time></trkpt><trkpt lat="44.796560811554905" lon="9.28968691104983"><ele>856.0</ele><time>2026-03-28T10:18:10Z</time></trkpt><trkpt lat="44.79661227093927" lon="9.289777500368949"><ele>859.0</ele><time>2026-03-28T10:18:11Z</time></trkpt><trkpt lat="44.796642953070766" lon="9.289857312882939"><ele>862.0</ele><time>2026-03-28T10:18:12Z</time></trkpt><trkpt lat="44.79673404657776" lon="9.290016517803826"><ele>865.6666666666666</ele><time>2026-03-28T10:18:14Z</time></trkpt><trkpt lat="44.79678409609159" lon="9.290074010284163"><ele>869.3333333333333</ele><time>2026-03-28T10:18:15Z</time></trkpt><trkpt lat="44.79684379483669" lon="9.290126735780998"><ele>873.0</ele><time>2026-03-28T10:18:16Z</time></trkpt><trkpt lat="44.79689951112852" lon="9.290174254111989"><ele>876.6666666666667</ele><time>2026-03-28T10:18:17Z</time></trkpt><trkpt lat="44.79694362772366" lon="9.290242770075414"><ele>880.3333333333334</ele><time>2026-03-28T10:18:18Z</time></trkpt><trkpt lat="44.79701994714909" lon="9.290375465528971"><ele>884.0</ele><time>2026-03-28T10:18:20Z</time></trkpt><trkpt lat="44.797056625915104" lon="9.290450575496367"><ele>878.8333333333334</ele><time>2026-03-28T10:18:21Z</time></trkpt><trkpt lat="44.797091708235556" lon="9.290543761630122"><ele>873.6666666666667</ele><time>2026-03-28T10:18:22Z</time></trkpt><trkpt lat="44.79711763393629" lon="9.290632806968281"><ele>868.5</ele><time>2026-03-28T10:18:23Z</time></trkpt><trkpt lat="44.7971553727119" lon="9.29071544086418"><ele>863.3333333333333</ele><time>2026-03-28T10:18:24Z</time></trkpt><trkpt lat="44.797216156199944" lon="9.29079981413364"><ele>858.1666666666666</ele><time>2026-03-28T10:18:25Z</time></trkpt><trkpt lat="44.79725353606356" lon="9.290903492010411"><ele>853.0</ele><time>2026-03-28T10:18:26Z</time></trkpt><trkpt lat="44.79728410137486" lon="9.291009142473447"><ele>852.9999999999999</ele><time>2026-03-28T10:18:27Z</time></trkpt><trkpt lat="44.79730687533219" lon="9.291148144336862"><ele>853.0</ele><time>2026-03-28T10:18:28Z</time></trkpt><trkpt lat="44.79733421364906" lon="9.291292945134082"><ele>853.0</ele><time>2026-03-28T10:18:29Z</time></trkpt><trkpt lat="44.79736173379367" lon="9.291399812072802"><ele>853.0</ele><time>2026-03-28T10:18:30Z</time></trkpt><trkpt lat="44.79737870000442" lon="9.291486194400811"><ele>852.9999999999999</ele><time>2026-03-28T10:18:31Z</time></trkpt><trkpt lat="44.79739789746549" lon="9.29158511363213"><ele>853.0</ele><time>2026-03-28T10:18:32Z</time></trkpt><trkpt lat="44.7974102727094" lon="9.291687329451086"><ele>857.0</ele><time>2026-03-28T10:18:33Z</time></trkpt><trkpt lat="44.7974225802557" lon="9.291795812165462"><ele>861.0</ele><time>2026-03-28T10:18:34Z</time></trkpt><trkpt lat="44.79743536867255" lon="9.291919415933702"><ele>865.0</ele><time>2026-03-28T10:18:35Z</time></trkpt><trkpt lat="44.79745552111607" lon="9.292079361929263"><ele>869.0</ele><time>2026-03-28T10:18:36Z</time></trkpt><trkpt lat="44.797480819735554" lon="9.292241392227035"><ele>873.0</ele><time>2026-03-28T10:18:37Z</time></trkpt><trkpt lat="44.79748846204041" lon="9.292371256376198"><ele>876.6666666666666</ele><time>2026-03-28T10:18:38Z</time></trkpt><trkpt lat="44.79748435420038" lon="9.292485187969186"><ele>880.3333333333333</ele><time>2026-03-28T10:18:38.999Z</time></trkpt><trkpt lat="44.79748188269463" lon="9.292588605065182"><ele>884.0</ele><time>2026-03-28T10:18:39.999Z</time></trkpt><trkpt lat="44.797459171500826" lon="9.292723938940057"><ele>887.6666666666666</ele><time>2026-03-28T10:18:41.999Z</time></trkpt><trkpt lat="44.79744970363492" lon="9.292888851013332"><ele>891.3333333333333</ele><time>2026-03-28T10:18:43.999Z</time></trkpt><trkpt lat="44.797467023886895" lon="9.292992361142465"><ele>895.0</ele><time>2026-03-28T10:18:44.999Z</time></trkpt><trkpt lat="44.79744572667705" lon="9.293111094842306"><ele>896.3333333333333</ele><time>2026-03-28T10:18:45.999Z</time></trkpt><trkpt lat="44.797422807930616" lon="9.293241449505576"><ele>897.6666666666666</ele><time>2026-03-28T10:18:46.999Z</time></trkpt><trkpt lat="44.79741543598398" lon="9.293337665133814"><ele>899.0</ele><time>2026-03-28T10:18:47.999Z</time></trkpt><trkpt lat="44.797443090385975" lon="9.293493440238851"><ele>900.3333333333333</ele><time>2026-03-28T10:18:49.999Z</time></trkpt><trkpt lat="44.797459205901745" lon="9.293589381053486"><ele>901.6666666666666</ele><time>2026-03-28T10:18:50.999Z</time></trkpt><trkpt lat="44.797463030893326" lon="9.293713510316074"><ele>903.0</ele><time>2026-03-28T10:18:51.999Z</time></trkpt><trkpt lat="44.797474152432855" lon="9.293827018280446"><ele>903.3333333333334</ele><time>2026-03-28T10:18:52.999Z</time></trkpt><trkpt lat="44.797516713702656" lon="9.293922710303919"><ele>903.6666666666667</ele><time>2026-03-28T10:18:53.999Z</time></trkpt><trkpt lat="44.79752834917745" lon="9.294014431200539"><ele>904.0</ele><time>2026-03-28T10:18:54.999Z</time></trkpt><trkpt lat="44.79754836812254" lon="9.294171616776723"><ele>904.3333333333334</ele><time>2026-03-28T10:18:56.999Z</time></trkpt><trkpt lat="44.79754420146112" lon="9.294274514196275"><ele>904.6666666666667</ele><time>2026-03-28T10:18:57.999Z</time></trkpt><trkpt lat="44.797545060621616" lon="9.294397755628275"><ele>905.0</ele><time>2026-03-28T10:18:58.999Z</time></trkpt><trkpt lat="44.797558344833206" lon="9.294511621997888"><ele>905.0000000000001</ele><time>2026-03-28T10:18:59.999Z</time></trkpt><trkpt lat="44.79758884383461" lon="9.294601770639096"><ele>905.0</ele><time>2026-03-28T10:19:00.999Z</time></trkpt><trkpt lat="44.797625009075524" lon="9.294746742470647"><ele>905.0</ele><time>2026-03-28T10:19:02.999Z</time></trkpt><trkpt lat="44.79762001598905" lon="9.294842757250798"><ele>905.0</ele><time>2026-03-28T10:19:03.999Z</time></trkpt><trkpt lat="44.797612341571885" lon="9.294955237089335"><ele>905.0000000000001</ele><time>2026-03-28T10:19:04.999Z</time></trkpt><trkpt lat="44.79761085289744" lon="9.295067990246975"><ele>905.0</ele><time>2026-03-28T10:19:05.999Z</time></trkpt><trkpt lat="44.797595429380365" lon="9.295210920307508"><ele>904.6666666666667</ele><time>2026-03-28T10:19:06.999Z</time></trkpt><trkpt lat="44.7975920944752" lon="9.29533727365816"><ele>904.3333333333334</ele><time>2026-03-28T10:19:07.999Z</time></trkpt><trkpt lat="44.79761490457245" lon="9.295452735192269"><ele>904.0</ele><time>2026-03-28T10:19:08.999Z</time></trkpt><trkpt lat="44.79762944684722" lon="9.295543075378104"><ele>903.6666666666667</ele><time>2026-03-28T10:19:09.999Z</time></trkpt><trkpt lat="44.79761687682643" lon="9.29563793941268"><ele>903.3333333333334</ele><time>2026-03-28T10:19:10.999Z</time></trkpt><trkpt lat="44.797620562048415" lon="9.29576538741155"><ele>903.0</ele><time>2026-03-28T10:19:11.999Z</time></trkpt><trkpt lat="44.79760923030449" lon="9.295897514100211"><ele>903.0</ele><time>2026-03-28T10:19:12.999Z</time></trkpt><trkpt lat="44.79759010248837" lon="9.29600803270248"><ele>903.0</ele><time>2026-03-28T10:19:13.999Z</time></trkpt><trkpt lat="44.797603982671475" lon="9.296137775950346"><ele>903.0</ele><time>2026-03-28T10:19:15.999Z</time></trkpt><trkpt lat="44.79764433432279" lon="9.29620869192975"><ele>903.0</ele><time>2026-03-28T10:19:16.999Z</time></trkpt><trkpt lat="44.79769846086194" lon="9.296281684741125"><ele>903.0</ele><time>2026-03-28T10:19:17.999Z</time></trkpt><trkpt lat="44.7977330447911" lon="9.29641035711118"><ele>903.0</ele><time>2026-03-28T10:19:19.999Z</time></trkpt><trkpt lat="44.79773208770896" lon="9.296508795319465"><ele>904.0</ele><time>2026-03-28T10:19:20.999Z</time></trkpt><trkpt lat="44.79771409365399" lon="9.296625409818038"><ele>905.0</ele><time>2026-03-28T10:19:21.999Z</time></trkpt><trkpt lat="44.797647301762915" lon="9.296778467587705"><ele>906.0</ele><time>2026-03-28T10:19:22.999Z</time></trkpt><trkpt lat="44.7976103037265" lon="9.296929553499766"><ele>907.0</ele><time>2026-03-28T10:19:23.999Z</time></trkpt><trkpt lat="44.79753847139442" lon="9.297061709715706"><ele>908.0</ele><time>2026-03-28T10:19:24.999Z</time></trkpt><trkpt lat="44.79744942157002" lon="9.297182905050835"><ele>908.4</ele><time>2026-03-28T10:19:25.999Z</time></trkpt><trkpt lat="44.797394721777444" lon="9.297254143355229"><ele>908.8</ele><time>2026-03-28T10:19:26.999Z</time></trkpt><trkpt lat="44.797355284799785" lon="9.297388511057449"><ele>909.2</ele><time>2026-03-28T10:19:28.999Z</time></trkpt><trkpt lat="44.79739445901283" lon="9.297565747557044"><ele>909.6</ele><time>2026-03-28T10:19:30.999Z</time></trkpt><trkpt lat="44.797476576641515" lon="9.297657102281843"><ele>910.0</ele><time>2026-03-28T10:19:32.999Z</time></trkpt><trkpt lat="44.79753658415682" lon="9.297694839419217"><ele>909.9999999999999</ele><time>2026-03-28T10:19:34.998Z</time></trkpt><trkpt lat="44.7975990076454" lon="9.297719774122067"><ele>910.0</ele><time>2026-03-28T10:19:35.998Z</time></trkpt><trkpt lat="44.79767813354201" lon="9.297792880898294"><ele>910.0</ele><time>2026-03-28T10:19:36.998Z</time></trkpt><trkpt lat="44.79773673080012" lon="9.297858568795746"><ele>910.0</ele><time>2026-03-28T10:19:37.998Z</time></trkpt><trkpt lat="44.79779844561635" lon="9.297996780457671"><ele>909.9999999999999</ele><time>2026-03-28T10:19:39.998Z</time></trkpt><trkpt lat="44.79783332701096" lon="9.298083279881958"><ele>910.0</ele><time>2026-03-28T10:19:40.998Z</time></trkpt><trkpt lat="44.79785304050984" lon="9.298210217083763"><ele>910.0</ele><time>2026-03-28T10:19:42.998Z</time></trkpt><trkpt lat="44.79784356388658" lon="9.29830801066457"><ele>910.0</ele><time>2026-03-28T10:19:45.998Z</time></trkpt><trkpt lat="44.79774650561325" lon="9.298593294065398"><ele>910.0</ele><time>2026-03-28T10:19:48.998Z</time></trkpt><trkpt lat="44.79783789089524" lon="9.298698774544023"><ele>910.0</ele><time>2026-03-28T10:19:51.998Z</time></trkpt><trkpt lat="44.79778060150027" lon="9.298635415818179"><ele>910.0</ele><time>2026-03-28T10:19:52.998Z</time></trkpt><trkpt lat="44.79784456366317" lon="9.298741649036774"><ele>910.0</ele><time>2026-03-28T10:19:54.998Z</time></trkpt><trkpt lat="44.797945565472396" lon="9.299018529267963"><ele>910.0</ele><time>2026-03-28T10:19:58Z</time></trkpt><trkpt lat="44.79805739859982" lon="9.298834793942843"><ele>910.8333333333333</ele><time>2026-03-28T10:20:01Z</time></trkpt><trkpt lat="44.79800368175016" lon="9.298931264931937"><ele>911.6666666666666</ele><time>2026-03-28T10:20:03Z</time></trkpt><trkpt lat="44.79794459172377" lon="9.29902765017025"><ele>912.5</ele><time>2026-03-28T10:20:05Z</time></trkpt><trkpt lat="44.79788639187026" lon="9.299100140434245"><ele>913.3333333333333</ele><time>2026-03-28T10:20:07Z</time></trkpt><trkpt lat="44.797826756766334" lon="9.299169431182928"><ele>914.1666666666666</ele><time>2026-03-28T10:20:09Z</time></trkpt><trkpt lat="44.79777957402901" lon="9.299240517294425"><ele>915.0</ele><time>2026-03-28T10:20:11Z</time></trkpt><trkpt lat="44.797685736980064" lon="9.299265951241178"><ele>916.8333333333334</ele><time>2026-03-28T10:20:14Z</time></trkpt><trkpt lat="44.797559804258995" lon="9.299299563511344"><ele>918.6666666666667</ele><time>2026-03-28T10:20:16Z</time></trkpt><trkpt lat="44.79749260670365" lon="9.299313725354482"><ele>920.5</ele><time>2026-03-28T10:20:17Z</time></trkpt><trkpt lat="44.79741492576186" lon="9.299324194771208"><ele>922.3333333333334</ele><time>2026-03-28T10:20:18Z</time></trkpt><trkpt lat="44.797333775624956" lon="9.299338289032319"><ele>924.1666666666667</ele><time>2026-03-28T10:20:19Z</time></trkpt><trkpt lat="44.79725618194347" lon="9.299355599820128"><ele>926.0</ele><time>2026-03-28T10:20:20Z</time></trkpt><trkpt lat="44.79718004111085" lon="9.299378844745485"><ele>926.0000000000001</ele><time>2026-03-28T10:20:21Z</time></trkpt><trkpt lat="44.79711417667067" lon="9.299394965615932"><ele>926.0</ele><time>2026-03-28T10:20:22Z</time></trkpt><trkpt lat="44.79703894254191" lon="9.299431507980945"><ele>926.0</ele><time>2026-03-28T10:20:24Z</time></trkpt><trkpt lat="44.796931726722946" lon="9.299457078391026"><ele>926.0</ele><time>2026-03-28T10:20:26Z</time></trkpt><trkpt lat="44.79687114926486" lon="9.29948785444669"><ele>926.0000000000001</ele><time>2026-03-28T10:20:27Z</time></trkpt><trkpt lat="44.796800075272124" lon="9.299530769928488"><ele>926.0</ele><time>2026-03-28T10:20:28Z</time></trkpt><trkpt lat="44.79671394568548" lon="9.299545424361963"><ele>928.1666666666667</ele><time>2026-03-28T10:20:30Z</time></trkpt><trkpt lat="44.79666241872784" lon="9.299433015621863"><ele>930.3333333333334</ele><time>2026-03-28T10:21:16.999Z</time></trkpt><trkpt lat="44.79658500254385" lon="9.299364865911663"><ele>932.5</ele><time>2026-03-28T10:21:18.999Z</time></trkpt><trkpt lat="44.796521373915226" lon="9.299323638355805"><ele>934.6666666666667</ele><time>2026-03-28T10:21:19.999Z</time></trkpt><trkpt lat="44.79645897605997" lon="9.299300671630489"><ele>936.8333333333334</ele><time>2026-03-28T10:21:20.999Z</time></trkpt><trkpt lat="44.796331424039906" lon="9.299312203816418"><ele>939.0</ele><time>2026-03-28T10:21:22.999Z</time></trkpt><trkpt lat="44.796257395388565" lon="9.29937737529704"><ele>939.0</ele><time>2026-03-28T10:21:24.999Z</time></trkpt><trkpt lat="44.796211810262484" lon="9.299455716515405"><ele>939.0</ele><time>2026-03-28T10:21:26.999Z</time></trkpt><trkpt lat="44.79614114927013" lon="9.299439081080457"><ele>939.0</ele><time>2026-03-28T10:21:29.999Z</time></trkpt><trkpt lat="44.796162097250445" lon="9.299348370183322"><ele>939.0</ele><time>2026-03-28T10:21:32.999Z</time></trkpt><trkpt lat="44.796180281286745" lon="9.299239230932942"><ele>939.0</ele><time>2026-03-28T10:21:49.998Z</time></trkpt><trkpt lat="44.79617308669016" lon="9.29914081388165"><ele>939.0</ele><time>2026-03-28T10:21:51.998Z</time></trkpt><trkpt lat="44.79608057701777" lon="9.299069239232672"><ele>939.0</ele><time>2026-03-28T10:21:53.998Z</time></trkpt><trkpt lat="44.796004248473324" lon="9.298967129587954"><ele>939.0000000000001</ele><time>2026-03-28T10:21:55.998Z</time></trkpt><trkpt lat="44.79600504333499" lon="9.298812192053024"><ele>939.0000000000001</ele><time>2026-03-28T10:21:57.998Z</time></trkpt><trkpt lat="44.7960475122669" lon="9.298701395850687"><ele>939.0</ele><time>2026-03-28T10:21:58.998Z</time></trkpt><trkpt lat="44.79606831882538" lon="9.298576942906873"><ele>939.0</ele><time>2026-03-28T10:21:59.998Z</time></trkpt><trkpt lat="44.79609502550305" lon="9.298461018378987"><ele>939.0</ele><time>2026-03-28T10:22:00.998Z</time></trkpt><trkpt lat="44.796113137206255" lon="9.298348943125232"><ele>939.0000000000001</ele><time>2026-03-28T10:22:02Z</time></trkpt><trkpt lat="44.79613856029092" lon="9.298262138340828"><ele>939.0000000000001</ele><time>2026-03-28T10:22:03Z</time></trkpt><trkpt lat="44.79619689272515" lon="9.298061443835755"><ele>939.0</ele><time>2026-03-28T10:22:05Z</time></trkpt><trkpt lat="44.796244892372044" lon="9.297971290290521"><ele>939.0</ele><time>2026-03-28T10:22:06Z</time></trkpt><trkpt lat="44.79630992032218" lon="9.297863772425666"><ele>941.5</ele><time>2026-03-28T10:22:07Z</time></trkpt><trkpt lat="44.796358759299245" lon="9.297785850840558"><ele>944.0</ele><time>2026-03-28T10:22:08Z</time></trkpt><trkpt lat="44.796430454029014" lon="9.297736421321108"><ele>946.5</ele><time>2026-03-28T10:22:09Z</time></trkpt><trkpt lat="44.79648771638584" lon="9.297643244652859"><ele>949.0</ele><time>2026-03-28T10:22:10Z</time></trkpt><trkpt lat="44.796544037951016" lon="9.29755534104517"><ele>951.5</ele><time>2026-03-28T10:22:11Z</time></trkpt><trkpt lat="44.796581096606715" lon="9.297448848393081"><ele>954.0</ele><time>2026-03-28T10:22:12Z</time></trkpt><trkpt lat="44.79660942392127" lon="9.297335453462901"><ele>955.8000000000001</ele><time>2026-03-28T10:22:13Z</time></trkpt><trkpt lat="44.79663606418904" lon="9.297216173852338"><ele>957.6000000000001</ele><time>2026-03-28T10:22:14Z</time></trkpt><trkpt lat="44.796650828096986" lon="9.297092046051123"><ele>959.4</ele><time>2026-03-28T10:22:15Z</time></trkpt><trkpt lat="44.79666071885605" lon="9.296959466187003"><ele>961.2</ele><time>2026-03-28T10:22:16Z</time></trkpt><trkpt lat="44.796692751886404" lon="9.296855030383673"><ele>963.0</ele><time>2026-03-28T10:22:17Z</time></trkpt><trkpt lat="44.79669675666212" lon="9.296716826533626"><ele>963.0</ele><time>2026-03-28T10:22:19Z</time></trkpt><trkpt lat="44.79659728821622" lon="9.296603873031962"><ele>963.0</ele><time>2026-03-28T10:22:21Z</time></trkpt><trkpt lat="44.79651413526922" lon="9.296522100509517"><ele>963.0</ele><time>2026-03-28T10:22:22Z</time></trkpt><trkpt lat="44.79642459876345" lon="9.296448954008191"><ele>963.0</ele><time>2026-03-28T10:22:23Z</time></trkpt><trkpt lat="44.79634668816407" lon="9.296383674510798"><ele>963.0</ele><time>2026-03-28T10:22:24Z</time></trkpt><trkpt lat="44.79631488677154" lon="9.296300092525472"><ele>963.4</ele><time>2026-03-28T10:22:25Z</time></trkpt><trkpt lat="44.796310597506526" lon="9.296164516554091"><ele>963.8</ele><time>2026-03-28T10:22:26Z</time></trkpt><trkpt lat="44.79630040123929" lon="9.296011766520824"><ele>964.2</ele><time>2026-03-28T10:22:27Z</time></trkpt><trkpt lat="44.796285787662136" lon="9.295856116979218"><ele>964.6</ele><time>2026-03-28T10:22:28Z</time></trkpt><trkpt lat="44.79627660710719" lon="9.295699877160677"><ele>965.0</ele><time>2026-03-28T10:22:29Z</time></trkpt><trkpt lat="44.79626217437706" lon="9.295554870953515"><ele>965.6</ele><time>2026-03-28T10:22:30Z</time></trkpt><trkpt lat="44.796259885327544" lon="9.295411422933293"><ele>966.2</ele><time>2026-03-28T10:22:31Z</time></trkpt><trkpt lat="44.796231714705414" lon="9.295265565549865"><ele>966.8</ele><time>2026-03-28T10:22:32Z</time></trkpt><trkpt lat="44.79622032472768" lon="9.295130215172522"><ele>967.4</ele><time>2026-03-28T10:22:33Z</time></trkpt><trkpt lat="44.796222784971036" lon="9.295021364812749"><ele>968.0</ele><time>2026-03-28T10:22:34Z</time></trkpt><trkpt lat="44.796257719723975" lon="9.294935986145925"><ele>968.0</ele><time>2026-03-28T10:22:35Z</time></trkpt><trkpt lat="44.796280662998655" lon="9.294847089447709"><ele>968.0</ele><time>2026-03-28T10:22:36Z</time></trkpt><trkpt lat="44.7962817473688" lon="9.294681050885636"><ele>968.0</ele><time>2026-03-28T10:22:38Z</time></trkpt><trkpt lat="44.79625067085239" lon="9.29457698119788"><ele>968.0</ele><time>2026-03-28T10:22:39Z</time></trkpt><trkpt lat="44.79619624709807" lon="9.29449286617013"><ele>968.0</ele><time>2026-03-28T10:22:41Z</time></trkpt><trkpt lat="44.79605859240839" lon="9.294534613309079"><ele>978.0</ele><time>2026-03-28T10:22:43Z</time></trkpt><trkpt lat="44.79598627758197" lon="9.294435069932549"><ele>988.0</ele><time>2026-03-28T10:22:45Z</time></trkpt><trkpt lat="44.7959740417531" lon="9.294255390141405"><ele>998.0</ele><time>2026-03-28T10:22:47Z</time></trkpt><trkpt lat="44.79596515285134" lon="9.29415094450144"><ele>1008.0</ele><time>2026-03-28T10:22:47.999Z</time></trkpt><trkpt lat="44.795893870750405" lon="9.2940179280266"><ele>1018.0</ele><time>2026-03-28T10:22:49.999Z</time></trkpt><trkpt lat="44.79586248812795" lon="9.293924287021095"><ele>1017.2</ele><time>2026-03-28T10:22:50.999Z</time></trkpt><trkpt lat="44.79585247020142" lon="9.293799111975327"><ele>1016.4</ele><time>2026-03-28T10:22:51.999Z</time></trkpt><trkpt lat="44.79579303882946" lon="9.29364033148276"><ele>1015.6000000000001</ele><time>2026-03-28T10:22:53.999Z</time></trkpt><trkpt lat="44.795769069622644" lon="9.293538910536396"><ele>1014.8000000000001</ele><time>2026-03-28T10:22:54.999Z</time></trkpt><trkpt lat="44.79577069139592" lon="9.29343413172866"><ele>1014.0</ele><time>2026-03-28T10:22:55.999Z</time></trkpt><trkpt lat="44.79578941405194" lon="9.293306445631154"><ele>1014.0</ele><time>2026-03-28T10:22:56.999Z</time></trkpt><trkpt lat="44.7958022962389" lon="9.293149476219062"><ele>1014.0000000000001</ele><time>2026-03-28T10:22:57.999Z</time></trkpt><trkpt lat="44.79578553343662" lon="9.29299649292955"><ele>1014.0000000000001</ele><time>2026-03-28T10:22:58.999Z</time></trkpt><trkpt lat="44.79577077219593" lon="9.292856530364757"><ele>1014.0</ele><time>2026-03-28T10:22:59.999Z</time></trkpt><trkpt lat="44.795751285926656" lon="9.292743712487542"><ele>1014.0</ele><time>2026-03-28T10:23:00.999Z</time></trkpt><trkpt lat="44.795727455895424" lon="9.292637460932212"><ele>1013.1666666666666</ele><time>2026-03-28T10:23:01.999Z</time></trkpt><trkpt lat="44.79568824186732" lon="9.29254880551094"><ele>1012.3333333333333</ele><time>2026-03-28T10:23:02.999Z</time></trkpt><trkpt lat="44.79564812099602" lon="9.292461309160938"><ele>1011.5</ele><time>2026-03-28T10:23:03.999Z</time></trkpt><trkpt lat="44.795591981615615" lon="9.292383217828226"><ele>1010.6666666666666</ele><time>2026-03-28T10:23:04.999Z</time></trkpt><trkpt lat="44.795536771625386" lon="9.292320828772246"><ele>1009.8333333333333</ele><time>2026-03-28T10:23:05.999Z</time></trkpt><trkpt lat="44.795454278431826" lon="9.292287812619104"><ele>1009.0</ele><time>2026-03-28T10:23:07.999Z</time></trkpt><trkpt lat="44.795390101088685" lon="9.292325108707656"><ele>1009.0</ele><time>2026-03-28T10:23:08.999Z</time></trkpt><trkpt lat="44.7953070101936" lon="9.29236364362405"><ele>1009.0000000000001</ele><time>2026-03-28T10:23:09.999Z</time></trkpt><trkpt lat="44.79523171420297" lon="9.292355878664535"><ele>1009.0000000000001</ele><time>2026-03-28T10:23:10.999Z</time></trkpt><trkpt lat="44.79515224867223" lon="9.292331235970288"><ele>1009.0</ele><time>2026-03-28T10:23:11.999Z</time></trkpt><trkpt lat="44.79501540548978" lon="9.292343507478437"><ele>1009.0</ele><time>2026-03-28T10:23:13.999Z</time></trkpt><trkpt lat="44.79493419468174" lon="9.292392818023325"><ele>1014.0</ele><time>2026-03-28T10:23:14.999Z</time></trkpt><trkpt lat="44.794839146815825" lon="9.292429979551"><ele>1019.0000000000001</ele><time>2026-03-28T10:23:15.999Z</time></trkpt><trkpt lat="44.7947476847689" lon="9.292490082990932"><ele>1024.0</ele><time>2026-03-28T10:23:16.999Z</time></trkpt><trkpt lat="44.794673455808216" lon="9.292560596556346"><ele>1029.0</ele><time>2026-03-28T10:23:18.999Z</time></trkpt><trkpt lat="44.79463131684766" lon="9.292669577925531"><ele>1034.0</ele><time>2026-03-28T10:23:24.999Z</time></trkpt><trkpt lat="44.794650207851255" lon="9.29277563545067"><ele>1034.0</ele><time>2026-03-28T10:23:25.999Z</time></trkpt><trkpt lat="44.794695875248586" lon="9.292903906756557"><ele>1034.0</ele><time>2026-03-28T10:23:26.999Z</time></trkpt><trkpt lat="44.79473436477408" lon="9.293025450146416"><ele>1034.0</ele><time>2026-03-28T10:23:27.999Z</time></trkpt><trkpt lat="44.794752014510465" lon="9.293119364257421"><ele>1034.0</ele><time>2026-03-28T10:23:28.999Z</time></trkpt><trkpt lat="44.79473467126502" lon="9.293208546835592"><ele>1034.0</ele><time>2026-03-28T10:23:29.999Z</time></trkpt><trkpt lat="44.79473051434834" lon="9.293319510596563"><ele>1034.0</ele><time>2026-03-28T10:23:30.999Z</time></trkpt><trkpt lat="44.79474170750162" lon="9.293444552068008"><ele>1036.8</ele><time>2026-03-28T10:23:31.999Z</time></trkpt><trkpt lat="44.79476910474365" lon="9.293556605337162"><ele>1039.6000000000001</ele><time>2026-03-28T10:23:32.999Z</time></trkpt><trkpt lat="44.79478125700367" lon="9.293673602149568"><ele>1042.4</ele><time>2026-03-28T10:23:33.999Z</time></trkpt><trkpt lat="44.794778551628866" lon="9.293766522415053"><ele>1045.2</ele><time>2026-03-28T10:23:34.999Z</time></trkpt><trkpt lat="44.794725429482256" lon="9.29393722500725"><ele>1048.0</ele><time>2026-03-28T10:23:36.999Z</time></trkpt><trkpt lat="44.79463222784445" lon="9.294071084568577"><ele>1050.0</ele><time>2026-03-28T10:23:38.999Z</time></trkpt><trkpt lat="44.79457874972968" lon="9.29417368937352"><ele>1052.0</ele><time>2026-03-28T10:23:39.999Z</time></trkpt><trkpt lat="44.79453629102487" lon="9.294294051281346"><ele>1054.0</ele><time>2026-03-28T10:23:40.999Z</time></trkpt><trkpt lat="44.794527916073164" lon="9.294450615334362"><ele>1056.0</ele><time>2026-03-28T10:23:42.998Z</time></trkpt><trkpt lat="44.79450396869568" lon="9.294565995166366"><ele>1058.0</ele><time>2026-03-28T10:23:43.998Z</time></trkpt><trkpt lat="44.794457669052" lon="9.294696076934333"><ele>1058.3333333333335</ele><time>2026-03-28T10:23:44.998Z</time></trkpt><trkpt lat="44.79441724924233" lon="9.294826604359526"><ele>1058.6666666666667</ele><time>2026-03-28T10:23:45.998Z</time></trkpt><trkpt lat="44.79438948816626" lon="9.294929078280356"><ele>1059.0</ele><time>2026-03-28T10:23:46.998Z</time></trkpt><trkpt lat="44.79429594072091" lon="9.295018448305061"><ele>1059.3333333333333</ele><time>2026-03-28T10:23:48.998Z</time></trkpt><trkpt lat="44.7942242955793" lon="9.295037792779658"><ele>1059.6666666666665</ele><time>2026-03-28T10:23:49.998Z</time></trkpt><trkpt lat="44.79416237737151" lon="9.295094531713909"><ele>1060.0</ele><time>2026-03-28T10:23:50.998Z</time></trkpt><trkpt lat="44.79411409114036" lon="9.295175183563261"><ele>1063.8</ele><time>2026-03-28T10:23:51.998Z</time></trkpt><trkpt lat="44.794062182329995" lon="9.295264147932194"><ele>1067.6</ele><time>2026-03-28T10:23:52.998Z</time></trkpt><trkpt lat="44.793993158648405" lon="9.29536043042588"><ele>1071.4</ele><time>2026-03-28T10:23:53.998Z</time></trkpt><trkpt lat="44.793919852001714" lon="9.295433031061524"><ele>1075.2</ele><time>2026-03-28T10:23:54.998Z</time></trkpt><trkpt lat="44.79385585043159" lon="9.29550348143542"><ele>1079.0</ele><time>2026-03-28T10:23:55.998Z</time></trkpt><trkpt lat="44.79379810832267" lon="9.29565684423018"><ele>1080.3333333333335</ele><time>2026-03-28T10:23:57.998Z</time></trkpt><trkpt lat="44.793759976609095" lon="9.29576842768282"><ele>1081.6666666666667</ele><time>2026-03-28T10:23:58.998Z</time></trkpt><trkpt lat="44.79372536079637" lon="9.295876598746057"><ele>1083.0</ele><time>2026-03-28T10:23:59.998Z</time></trkpt><trkpt lat="44.79364324784309" lon="9.295978653797595"><ele>1084.3333333333333</ele><time>2026-03-28T10:24:01.998Z</time></trkpt><trkpt lat="44.793569938529835" lon="9.296028185696155"><ele>1085.6666666666665</ele><time>2026-03-28T10:24:02.998Z</time></trkpt><trkpt lat="44.79350118953477" lon="9.296089467409065"><ele>1087.0</ele><time>2026-03-28T10:24:03.998Z</time></trkpt><trkpt lat="44.793425682142335" lon="9.296151282936044"><ele>1089.2</ele><time>2026-03-28T10:24:04.998Z</time></trkpt><trkpt lat="44.79340055245416" lon="9.296306075311396"><ele>1091.4</ele><time>2026-03-28T10:24:06.998Z</time></trkpt><trkpt lat="44.79340912081005" lon="9.296426935395"><ele>1093.6</ele><time>2026-03-28T10:24:08Z</time></trkpt><trkpt lat="44.793369095172096" lon="9.296507427753562"><ele>1095.8</ele><time>2026-03-28T10:24:09Z</time></trkpt><trkpt lat="44.79330291421621" lon="9.296556449800208"><ele>1098.0</ele><time>2026-03-28T10:24:10Z</time></trkpt><trkpt lat="44.793188698753546" lon="9.296591451567355"><ele>1099.4</ele><time>2026-03-28T10:24:12Z</time></trkpt><trkpt lat="44.79310869155969" lon="9.296615463166717"><ele>1100.8</ele><time>2026-03-28T10:24:13Z</time></trkpt><trkpt lat="44.79300763554473" lon="9.296689049234732"><ele>1102.2</ele><time>2026-03-28T10:24:14Z</time></trkpt><trkpt lat="44.792893536360666" lon="9.296782123330287"><ele>1103.6</ele><time>2026-03-28T10:24:15Z</time></trkpt><trkpt lat="44.79280953065183" lon="9.296882530202051"><ele>1105.0</ele><time>2026-03-28T10:24:16Z</time></trkpt><trkpt lat="44.792746109772224" lon="9.297002854638977"><ele>1105.0</ele><time>2026-03-28T10:24:17Z</time></trkpt><trkpt lat="44.79268328767484" lon="9.297153253071414"><ele>1105.0</ele><time>2026-03-28T10:24:18Z</time></trkpt><trkpt lat="44.79262912228132" lon="9.29729824749119"><ele>1105.0</ele><time>2026-03-28T10:24:19Z</time></trkpt><trkpt lat="44.79257501103091" lon="9.297435285622507"><ele>1105.0</ele><time>2026-03-28T10:24:20Z</time></trkpt><trkpt lat="44.79251240177802" lon="9.297583868030253"><ele>1106.2</ele><time>2026-03-28T10:24:21Z</time></trkpt><trkpt lat="44.79245580150335" lon="9.29773283550918"><ele>1107.4</ele><time>2026-03-28T10:24:22Z</time></trkpt><trkpt lat="44.79242147703428" lon="9.297887406930943"><ele>1108.6</ele><time>2026-03-28T10:24:23Z</time></trkpt><trkpt lat="44.79237390289277" lon="9.298030422671836"><ele>1109.8</ele><time>2026-03-28T10:24:24Z</time></trkpt><trkpt lat="44.792335614820765" lon="9.29815355326929"><ele>1111.0</ele><time>2026-03-28T10:24:25Z</time></trkpt><trkpt lat="44.792287524328884" lon="9.298260715801534"><ele>1111.8</ele><time>2026-03-28T10:24:26Z</time></trkpt><trkpt lat="44.7922318813101" lon="9.29836300859719"><ele>1112.6</ele><time>2026-03-28T10:24:27Z</time></trkpt><trkpt lat="44.792174130556226" lon="9.298467330744499"><ele>1113.4</ele><time>2026-03-28T10:24:28Z</time></trkpt><trkpt lat="44.7921100439998" lon="9.29857724927459"><ele>1114.2</ele><time>2026-03-28T10:24:29Z</time></trkpt><trkpt lat="44.792066235142116" lon="9.298695646379922"><ele>1115.0</ele><time>2026-03-28T10:24:30Z</time></trkpt><trkpt lat="44.792024263430235" lon="9.298832566856191"><ele>1114.2</ele><time>2026-03-28T10:24:31Z</time></trkpt><trkpt lat="44.791972532838656" lon="9.298979424396359"><ele>1113.4</ele><time>2026-03-28T10:24:32Z</time></trkpt><trkpt lat="44.791951648897836" lon="9.299127905644088"><ele>1112.6</ele><time>2026-03-28T10:24:33Z</time></trkpt><trkpt lat="44.79193105139835" lon="9.299238903688043"><ele>1111.8</ele><time>2026-03-28T10:24:34Z</time></trkpt><trkpt lat="44.79189630958297" lon="9.29935369037148"><ele>1111.0</ele><time>2026-03-28T10:24:35Z</time></trkpt><trkpt lat="44.79183603665921" lon="9.299455644267391"><ele>1113.6</ele><time>2026-03-28T10:24:36Z</time></trkpt><trkpt lat="44.79176866121216" lon="9.299549867332285"><ele>1116.1999999999998</ele><time>2026-03-28T10:24:37Z</time></trkpt><trkpt lat="44.791668216490855" lon="9.29962554246708"><ele>1118.8000000000002</ele><time>2026-03-28T10:24:38Z</time></trkpt><trkpt lat="44.79156257673998" lon="9.299704561976673"><ele>1121.4</ele><time>2026-03-28T10:24:39Z</time></trkpt><trkpt lat="44.79150077741225" lon="9.299808167114293"><ele>1124.0</ele><time>2026-03-28T10:24:40Z</time></trkpt><trkpt lat="44.79147845063109" lon="9.299892700536017"><ele>1126.0</ele><time>2026-03-28T10:24:41Z</time></trkpt><trkpt lat="44.791496071406634" lon="9.299981783186855"><ele>1128.0</ele><time>2026-03-28T10:24:42Z</time></trkpt><trkpt lat="44.791506594350494" lon="9.3000908386015"><ele>1130.0</ele><time>2026-03-28T10:24:43Z</time></trkpt><trkpt lat="44.791501333561214" lon="9.300242365555393"><ele>1132.0</ele><time>2026-03-28T10:24:44Z</time></trkpt><trkpt lat="44.79143901055948" lon="9.300373848806103"><ele>1134.0</ele><time>2026-03-28T10:24:45Z</time></trkpt><trkpt lat="44.79139870245072" lon="9.300489188680734"><ele>1134.0</ele><time>2026-03-28T10:24:47Z</time></trkpt><trkpt lat="44.791371473020064" lon="9.300581998286473"><ele>1134.0</ele><time>2026-03-28T10:24:49Z</time></trkpt><trkpt lat="44.79129533080722" lon="9.300659963453427"><ele>1134.0</ele><time>2026-03-28T10:42:17.999Z</time></trkpt><trkpt lat="44.7912039002316" lon="9.300738071584735"><ele>1134.0</ele><time>2026-03-28T10:42:19.999Z</time></trkpt><trkpt lat="44.79112487830068" lon="9.300819507217149"><ele>1134.0</ele><time>2026-03-28T10:42:21.999Z</time></trkpt><trkpt lat="44.791007234317156" lon="9.30087245119139"><ele>1137.1666666666667</ele><time>2026-03-28T10:42:23.998Z</time></trkpt><trkpt lat="44.79093996788359" lon="9.300785981218242"><ele>1140.3333333333333</ele><time>2026-03-28T10:42:24.998Z</time></trkpt><trkpt lat="44.79086794970851" lon="9.300764128651641"><ele>1143.5</ele><time>2026-03-28T10:42:25.998Z</time></trkpt><trkpt lat="44.79079085160505" lon="9.300809621172569"><ele>1146.6666666666665</ele><time>2026-03-28T10:42:26.998Z</time></trkpt><trkpt lat="44.79072006158611" lon="9.30078764193073"><ele>1149.8333333333333</ele><time>2026-03-28T10:42:27.998Z</time></trkpt><trkpt lat="44.790631752782076" lon="9.300776590156008"><ele>1153.0</ele><time>2026-03-28T10:42:28.998Z</time></trkpt><trkpt lat="44.79053506685406" lon="9.30074295945505"><ele>1153.0</ele><time>2026-03-28T10:42:29.998Z</time></trkpt><trkpt lat="44.79045388175753" lon="9.300691181442932"><ele>1153.0</ele><time>2026-03-28T10:42:30.998Z</time></trkpt><trkpt lat="44.790366212281974" lon="9.300635389219078"><ele>1153.0</ele><time>2026-03-28T10:42:31.998Z</time></trkpt><trkpt lat="44.79027719289249" lon="9.300569134469097"><ele>1153.0</ele><time>2026-03-28T10:42:32.998Z</time></trkpt><trkpt lat="44.79018990456513" lon="9.300501711006275"><ele>1153.0</ele><time>2026-03-28T10:42:33.998Z</time></trkpt><trkpt lat="44.79010882019734" lon="9.300451184707242"><ele>1153.6</ele><time>2026-03-28T10:42:34.998Z</time></trkpt><trkpt lat="44.7900164826891" lon="9.30043418726465"><ele>1154.1999999999998</ele><time>2026-03-28T10:42:35.998Z</time></trkpt><trkpt lat="44.78992333400783" lon="9.300439340741015"><ele>1154.8</ele><time>2026-03-28T10:42:36.998Z</time></trkpt><trkpt lat="44.789836974232536" lon="9.300479209953675"><ele>1155.3999999999999</ele><time>2026-03-28T10:42:37.998Z</time></trkpt><trkpt lat="44.78974676591028" lon="9.30053798010153"><ele>1156.0</ele><time>2026-03-28T10:42:38.998Z</time></trkpt><trkpt lat="44.789659630662214" lon="9.300618373466026"><ele>1156.0</ele><time>2026-03-28T10:42:39.998Z</time></trkpt><trkpt lat="44.78958242267323" lon="9.300714246888901"><ele>1156.0</ele><time>2026-03-28T10:42:40.998Z</time></trkpt><trkpt lat="44.78952743257653" lon="9.300800255804225"><ele>1156.0</ele><time>2026-03-28T10:42:41.998Z</time></trkpt><trkpt lat="44.78947327290098" lon="9.300892032778417"><ele>1156.0</ele><time>2026-03-28T10:42:42.998Z</time></trkpt><trkpt lat="44.78940079763414" lon="9.300968927615727"><ele>1156.0</ele><time>2026-03-28T10:42:43.998Z</time></trkpt><trkpt lat="44.789300117953545" lon="9.300995359511406"><ele>1155.6</ele><time>2026-03-28T10:42:44.998Z</time></trkpt><trkpt lat="44.78919259873281" lon="9.300986663648267"><ele>1155.1999999999998</ele><time>2026-03-28T10:42:45.998Z</time></trkpt><trkpt lat="44.789119886948704" lon="9.301092832623883"><ele>1154.8000000000002</ele><time>2026-03-28T10:42:46.998Z</time></trkpt><trkpt lat="44.78904831476079" lon="9.301200004310996"><ele>1154.4</ele><time>2026-03-28T10:42:47.998Z</time></trkpt><trkpt lat="44.78899700049545" lon="9.301306859969259"><ele>1154.0</ele><time>2026-03-28T10:42:48.998Z</time></trkpt><trkpt lat="44.788951923268186" lon="9.301416476746747"><ele>1154.0</ele><time>2026-03-28T10:42:49.998Z</time></trkpt><trkpt lat="44.78891208358503" lon="9.30154222288801"><ele>1154.0</ele><time>2026-03-28T10:42:50.998Z</time></trkpt><trkpt lat="44.78888918641197" lon="9.30166703832372"><ele>1154.0</ele><time>2026-03-28T10:42:51.998Z</time></trkpt><trkpt lat="44.78888141254588" lon="9.301762807028943"><ele>1154.0</ele><time>2026-03-28T10:42:52.998Z</time></trkpt><trkpt lat="44.78885352629129" lon="9.301861463009521"><ele>1154.0</ele><time>2026-03-28T10:42:53.998Z</time></trkpt><trkpt lat="44.788793103863455" lon="9.301891277972441"><ele>1154.0</ele><time>2026-03-28T10:42:54.998Z</time></trkpt><trkpt lat="44.78868949835536" lon="9.301845682541918"><ele>1154.0</ele><time>2026-03-28T10:42:56.998Z</time></trkpt><trkpt lat="44.788633551819" lon="9.301760981858424"><ele>1154.0</ele><time>2026-03-28T10:42:57.998Z</time></trkpt><trkpt lat="44.788546102332894" lon="9.301674682040785"><ele>1154.0</ele><time>2026-03-28T10:42:58.998Z</time></trkpt><trkpt lat="44.78845410429609" lon="9.301591133135597"><ele>1154.0</ele><time>2026-03-28T10:43:00Z</time></trkpt><trkpt lat="44.78836705306002" lon="9.301538654782114"><ele>1154.0</ele><time>2026-03-28T10:43:01Z</time></trkpt><trkpt lat="44.788260099876204" lon="9.301536425775435"><ele>1152.0</ele><time>2026-03-28T10:43:02Z</time></trkpt><trkpt lat="44.78815353406469" lon="9.301601646120659"><ele>1150.0</ele><time>2026-03-28T10:43:03Z</time></trkpt><trkpt lat="44.7880664036113" lon="9.301656743881393"><ele>1148.0</ele><time>2026-03-28T10:43:04Z</time></trkpt><trkpt lat="44.78796674364243" lon="9.301719812899103"><ele>1146.0</ele><time>2026-03-28T10:43:05Z</time></trkpt><trkpt lat="44.78788396719773" lon="9.301761882443348"><ele>1144.0</ele><time>2026-03-28T10:43:06Z</time></trkpt><trkpt lat="44.78781375161023" lon="9.30177614460443"><ele>1144.0</ele><time>2026-03-28T10:43:07Z</time></trkpt><trkpt lat="44.78770315395431" lon="9.301703602852188"><ele>1144.0</ele><time>2026-03-28T10:43:09Z</time></trkpt><trkpt lat="44.78768608892336" lon="9.301617869781802"><ele>1144.0</ele><time>2026-03-28T10:43:10Z</time></trkpt><trkpt lat="44.787696880120116" lon="9.301505373192944"><ele>1144.0</ele><time>2026-03-28T10:43:11Z</time></trkpt><trkpt lat="44.78769276642265" lon="9.30135499100516"><ele>1144.0</ele><time>2026-03-28T10:43:12Z</time></trkpt><trkpt lat="44.78768860378696" lon="9.301202819542864"><ele>1144.6000000000001</ele><time>2026-03-28T10:43:13Z</time></trkpt><trkpt lat="44.78768412982513" lon="9.30105382354886"><ele>1145.2</ele><time>2026-03-28T10:43:14Z</time></trkpt><trkpt lat="44.78767880019789" lon="9.300904659410518"><ele>1145.8000000000002</ele><time>2026-03-28T10:43:15Z</time></trkpt><trkpt lat="44.7876656003124" lon="9.300768278748299"><ele>1146.4</ele><time>2026-03-28T10:43:16Z</time></trkpt><trkpt lat="44.7876624186429" lon="9.300653641638279"><ele>1147.0</ele><time>2026-03-28T10:43:17Z</time></trkpt><trkpt lat="44.78765195567257" lon="9.30054244616376"><ele>1145.2</ele><time>2026-03-28T10:43:18Z</time></trkpt><trkpt lat="44.7876608968314" lon="9.300431734531566"><ele>1143.4</ele><time>2026-03-28T10:43:19Z</time></trkpt><trkpt lat="44.78764586601789" lon="9.30032906572892"><ele>1141.6</ele><time>2026-03-28T10:43:20Z</time></trkpt><trkpt lat="44.787583345870935" lon="9.300234409132567"><ele>1139.8</ele><time>2026-03-28T10:43:21Z</time></trkpt><trkpt lat="44.78747586389145" lon="9.300217338607935"><ele>1138.0</ele><time>2026-03-28T10:43:22Z</time></trkpt><trkpt lat="44.787378928163236" lon="9.300309288897283"><ele>1138.0</ele><time>2026-03-28T10:43:23Z</time></trkpt><trkpt lat="44.78732322577666" lon="9.300441283846922"><ele>1138.0</ele><time>2026-03-28T10:43:24Z</time></trkpt><trkpt lat="44.78725334303807" lon="9.300525412559246"><ele>1138.0</ele><time>2026-03-28T10:43:25Z</time></trkpt><trkpt lat="44.78719303922036" lon="9.300600589882613"><ele>1138.0</ele><time>2026-03-28T10:43:26Z</time></trkpt><trkpt lat="44.787120867223564" lon="9.300649657579077"><ele>1138.0</ele><time>2026-03-28T10:43:27Z</time></trkpt><trkpt lat="44.78704160849239" lon="9.300639928951592"><ele>1138.0</ele><time>2026-03-28T10:43:28Z</time></trkpt><trkpt lat="44.786957897191634" lon="9.300607084286506"><ele>1138.0</ele><time>2026-03-28T10:43:29Z</time></trkpt><trkpt lat="44.786857269785145" lon="9.300570111214048"><ele>1138.0</ele><time>2026-03-28T10:43:30Z</time></trkpt><trkpt lat="44.786764218533996" lon="9.300534656078039"><ele>1138.0</ele><time>2026-03-28T10:43:31Z</time></trkpt><trkpt lat="44.78667892519738" lon="9.300500804145525"><ele>1138.0</ele><time>2026-03-28T10:43:32Z</time></trkpt><trkpt lat="44.78659648571924" lon="9.300466169327798"><ele>1138.0</ele><time>2026-03-28T10:43:33Z</time></trkpt><trkpt lat="44.78651301360235" lon="9.30042992728342"><ele>1137.0</ele><time>2026-03-28T10:43:34Z</time></trkpt><trkpt lat="44.786429929724726" lon="9.300391536891778"><ele>1136.0</ele><time>2026-03-28T10:43:35Z</time></trkpt><trkpt lat="44.78634231545981" lon="9.300346976791642"><ele>1135.0</ele><time>2026-03-28T10:43:36Z</time></trkpt><trkpt lat="44.786252603784185" lon="9.30029132181498"><ele>1134.0</ele><time>2026-03-28T10:43:36.999Z</time></trkpt><trkpt lat="44.7861569548133" lon="9.300229875346309"><ele>1133.0</ele><time>2026-03-28T10:43:37.999Z</time></trkpt><trkpt lat="44.78605740093364" lon="9.300165920239616"><ele>1133.5</ele><time>2026-03-28T10:43:38.999Z</time></trkpt><trkpt lat="44.785952241582756" lon="9.30009836428914"><ele>1134.0</ele><time>2026-03-28T10:43:39.999Z</time></trkpt><trkpt lat="44.78584346382247" lon="9.300028483525786"><ele>1134.5</ele><time>2026-03-28T10:43:40.999Z</time></trkpt><trkpt lat="44.78573476637067" lon="9.299959084299068"><ele>1135.0</ele><time>2026-03-28T10:43:41.999Z</time></trkpt><trkpt lat="44.78563151918083" lon="9.299896502001936"><ele>1135.0</ele><time>2026-03-28T10:43:42.999Z</time></trkpt><trkpt lat="44.78553073638976" lon="9.29983069749837"><ele>1135.0</ele><time>2026-03-28T10:43:43.999Z</time></trkpt><trkpt lat="44.785434525185224" lon="9.29976646852487"><ele>1135.0</ele><time>2026-03-28T10:43:44.999Z</time></trkpt><trkpt lat="44.78534290173447" lon="9.299705302292809"><ele>1135.0</ele><time>2026-03-28T10:43:45.999Z</time></trkpt><trkpt lat="44.78525482044077" lon="9.299646500705201"><ele>1135.0</ele><time>2026-03-28T10:43:46.999Z</time></trkpt><trkpt lat="44.785168837680466" lon="9.299591547634028"><ele>1133.6</ele><time>2026-03-28T10:43:47.999Z</time></trkpt><trkpt lat="44.78507679588713" lon="9.299534054085184"><ele>1132.2</ele><time>2026-03-28T10:43:48.999Z</time></trkpt><trkpt lat="44.78497304969234" lon="9.299481459744086"><ele>1130.8</ele><time>2026-03-28T10:43:49.999Z</time></trkpt><trkpt lat="44.78486884054627" lon="9.299428776579767"><ele>1129.4</ele><time>2026-03-28T10:43:50.999Z</time></trkpt><trkpt lat="44.78476171228692" lon="9.299418137566912"><ele>1128.0</ele><time>2026-03-28T10:43:51.999Z</time></trkpt><trkpt lat="44.78466789087794" lon="9.299377617849071"><ele>1128.0</ele><time>2026-03-28T10:43:52.999Z</time></trkpt><trkpt lat="44.78456869283907" lon="9.29934260013293"><ele>1128.0</ele><time>2026-03-28T10:43:53.999Z</time></trkpt><trkpt lat="44.784466570819305" lon="9.29932220165922"><ele>1128.0</ele><time>2026-03-28T10:43:54.999Z</time></trkpt><trkpt lat="44.784355825659254" lon="9.299306108290791"><ele>1128.0</ele><time>2026-03-28T10:43:55.999Z</time></trkpt><trkpt lat="44.784249687500754" lon="9.299368417155884"><ele>1128.0</ele><time>2026-03-28T10:43:56.999Z</time></trkpt><trkpt lat="44.78417435881424" lon="9.299474434017764"><ele>1127.6666666666667</ele><time>2026-03-28T10:43:57.999Z</time></trkpt><trkpt lat="44.78410544934508" lon="9.299558054350545"><ele>1127.3333333333333</ele><time>2026-03-28T10:43:58.999Z</time></trkpt><trkpt lat="44.784029330199004" lon="9.299608481209589"><ele>1127.0</ele><time>2026-03-28T10:43:59.999Z</time></trkpt><trkpt lat="44.78395719593357" lon="9.299553256544398"><ele>1126.6666666666665</ele><time>2026-03-28T10:44:00.999Z</time></trkpt><trkpt lat="44.783903833663146" lon="9.299476135237162"><ele>1126.3333333333333</ele><time>2026-03-28T10:44:01.999Z</time></trkpt><trkpt lat="44.783839036203645" lon="9.299417869701873"><ele>1126.0</ele><time>2026-03-28T10:44:02.999Z</time></trkpt><trkpt lat="44.78374390478498" lon="9.299409447222414"><ele>1126.0</ele><time>2026-03-28T10:44:03.999Z</time></trkpt><trkpt lat="44.78366114239429" lon="9.29953808970995"><ele>1126.0</ele><time>2026-03-28T10:44:04.999Z</time></trkpt><trkpt lat="44.78358658099732" lon="9.299638447285625"><ele>1126.0</ele><time>2026-03-28T10:44:05.999Z</time></trkpt><trkpt lat="44.78349204169697" lon="9.299694678519266"><ele>1126.0</ele><time>2026-03-28T10:44:06.999Z</time></trkpt><trkpt lat="44.783392992956195" lon="9.299709048641404"><ele>1126.0</ele><time>2026-03-28T10:44:07.999Z</time></trkpt><trkpt lat="44.783282884215794" lon="9.299721415096151"><ele>1124.6</ele><time>2026-03-28T10:44:08.999Z</time></trkpt><trkpt lat="44.78317994494946" lon="9.299711380055882"><ele>1123.1999999999998</ele><time>2026-03-28T10:44:09.999Z</time></trkpt><trkpt lat="44.78310156258087" lon="9.29965261407767"><ele>1121.8000000000002</ele><time>2026-03-28T10:44:10.999Z</time></trkpt><trkpt lat="44.78304425773845" lon="9.299558533274668"><ele>1120.4</ele><time>2026-03-28T10:44:11.999Z</time></trkpt><trkpt lat="44.78297069724043" lon="9.299439187030748"><ele>1119.0</ele><time>2026-03-28T10:44:12.999Z</time></trkpt><trkpt lat="44.78289072370896" lon="9.299303798291522"><ele>1119.0</ele><time>2026-03-28T10:44:13.999Z</time></trkpt><trkpt lat="44.78280434845801" lon="9.299160615845475"><ele>1119.0</ele><time>2026-03-28T10:44:14.999Z</time></trkpt><trkpt lat="44.782726983652346" lon="9.299019475565602"><ele>1119.0</ele><time>2026-03-28T10:44:15.999Z</time></trkpt><trkpt lat="44.78267874837956" lon="9.298871567808455"><ele>1119.0</ele><time>2026-03-28T10:44:16.999Z</time></trkpt><trkpt lat="44.78263414808964" lon="9.298723857321727"><ele>1118.5</ele><time>2026-03-28T10:44:17.999Z</time></trkpt><trkpt lat="44.78257789556854" lon="9.298594994000627"><ele>1118.0</ele><time>2026-03-28T10:44:18.999Z</time></trkpt><trkpt lat="44.78248903773674" lon="9.298499944065686"><ele>1117.5</ele><time>2026-03-28T10:44:19.999Z</time></trkpt><trkpt lat="44.78237048038846" lon="9.298484603142022"><ele>1117.0</ele><time>2026-03-28T10:44:20.999Z</time></trkpt><trkpt lat="44.78225476361266" lon="9.29848926202806"><ele>1117.0</ele><time>2026-03-28T10:44:21.999Z</time></trkpt><trkpt lat="44.782139190028204" lon="9.298497809548444"><ele>1117.0</ele><time>2026-03-28T10:44:22.999Z</time></trkpt><trkpt lat="44.78201902535156" lon="9.298527633012363"><ele>1117.0</ele><time>2026-03-28T10:44:23.999Z</time></trkpt><trkpt lat="44.781909848542284" lon="9.298518004231292"><ele>1117.0</ele><time>2026-03-28T10:44:24.999Z</time></trkpt><trkpt lat="44.78180174033279" lon="9.298513076526698"><ele>1117.0</ele><time>2026-03-28T10:44:25.999Z</time></trkpt><trkpt lat="44.78171193896735" lon="9.298477162445698"><ele>1117.0</ele><time>2026-03-28T10:44:26.999Z</time></trkpt><trkpt lat="44.781652065141365" lon="9.298380702717893"><ele>1117.0</ele><time>2026-03-28T10:44:27.998Z</time></trkpt><trkpt lat="44.7816006732476" lon="9.29827387171151"><ele>1117.0</ele><time>2026-03-28T10:44:28.998Z</time></trkpt><trkpt lat="44.7815490880505" lon="9.298145289519118"><ele>1117.0</ele><time>2026-03-28T10:44:29.998Z</time></trkpt><trkpt lat="44.78147872991003" lon="9.29802328710433"><ele>1117.0</ele><time>2026-03-28T10:44:30.998Z</time></trkpt><trkpt lat="44.781379957263844" lon="9.29792667821132"><ele>1117.0</ele><time>2026-03-28T10:44:31.998Z</time></trkpt><trkpt lat="44.78126800974817" lon="9.297893937865727"><ele>1117.0</ele><time>2026-03-28T10:44:32.998Z</time></trkpt><trkpt lat="44.78116095347633" lon="9.29790666391023"><ele>1117.0</ele><time>2026-03-28T10:44:33.998Z</time></trkpt><trkpt lat="44.78105827816724" lon="9.297912949563536"><ele>1117.0</ele><time>2026-03-28T10:44:34.998Z</time></trkpt><trkpt lat="44.78095130296296" lon="9.297923280436475"><ele>1117.2</ele><time>2026-03-28T10:44:35.998Z</time></trkpt><trkpt lat="44.780841281345076" lon="9.297936450406324"><ele>1117.4</ele><time>2026-03-28T10:44:36.998Z</time></trkpt><trkpt lat="44.780730038392214" lon="9.297951154407484"><ele>1117.6</ele><time>2026-03-28T10:44:37.998Z</time></trkpt><trkpt lat="44.78062267923993" lon="9.297964855837769"><ele>1117.8</ele><time>2026-03-28T10:44:38.998Z</time></trkpt><trkpt lat="44.78051979906628" lon="9.297976455077023"><ele>1118.0</ele><time>2026-03-28T10:44:39.998Z</time></trkpt><trkpt lat="44.78042594079478" lon="9.29797841223652"><ele>1118.0</ele><time>2026-03-28T10:44:40.998Z</time></trkpt><trkpt lat="44.78034027733231" lon="9.297942012030214"><ele>1118.0</ele><time>2026-03-28T10:44:41.998Z</time></trkpt><trkpt lat="44.7802708722255" lon="9.297855322639867"><ele>1118.0</ele><time>2026-03-28T10:44:42.998Z</time></trkpt><trkpt lat="44.78019076663441" lon="9.297757408903497"><ele>1118.0</ele><time>2026-03-28T10:44:43.998Z</time></trkpt><trkpt lat="44.780105754738294" lon="9.297645114160323"><ele>1118.0</ele><time>2026-03-28T10:44:44.998Z</time></trkpt><trkpt lat="44.78001894595733" lon="9.297523640299495"><ele>1118.6</ele><time>2026-03-28T10:44:45.998Z</time></trkpt><trkpt lat="44.77994666911756" lon="9.297396667678154"><ele>1119.1999999999998</ele><time>2026-03-28T10:44:46.998Z</time></trkpt><trkpt lat="44.77990181173141" lon="9.29726034227927"><ele>1119.8</ele><time>2026-03-28T10:44:47.998Z</time></trkpt><trkpt lat="44.77987179291122" lon="9.297115703190485"><ele>1120.3999999999999</ele><time>2026-03-28T10:44:48.998Z</time></trkpt><trkpt lat="44.77982144182477" lon="9.296969800996168"><ele>1121.0</ele><time>2026-03-28T10:44:49.998Z</time></trkpt><trkpt lat="44.77974945213659" lon="9.296840841885532"><ele>1119.25</ele><time>2026-03-28T10:44:50.998Z</time></trkpt><trkpt lat="44.779655230746854" lon="9.296722154343719"><ele>1117.5</ele><time>2026-03-28T10:44:51.998Z</time></trkpt><trkpt lat="44.77955463721674" lon="9.296608324423488"><ele>1115.75</ele><time>2026-03-28T10:44:52.998Z</time></trkpt><trkpt lat="44.77944735824016" lon="9.296494068044902"><ele>1114.0</ele><time>2026-03-28T10:44:53.998Z</time></trkpt><trkpt lat="44.779341150530485" lon="9.296377352654366"><ele>1112.75</ele><time>2026-03-28T10:44:54.998Z</time></trkpt><trkpt lat="44.779239340116185" lon="9.29626489830869"><ele>1111.5</ele><time>2026-03-28T10:44:55.998Z</time></trkpt><trkpt lat="44.77913784024646" lon="9.296147965590448"><ele>1110.25</ele><time>2026-03-28T10:44:56.998Z</time></trkpt><trkpt lat="44.77903517335052" lon="9.29602567974129"><ele>1109.0</ele><time>2026-03-28T10:44:57.998Z</time></trkpt><trkpt lat="44.77892704814477" lon="9.295912882788292"><ele>1109.0</ele><time>2026-03-28T10:44:58.998Z</time></trkpt><trkpt lat="44.778819784394244" lon="9.295814427215735"><ele>1109.0</ele><time>2026-03-28T10:44:59.998Z</time></trkpt><trkpt lat="44.77869668104196" lon="9.295740666814517"><ele>1109.0</ele><time>2026-03-28T10:45:00.998Z</time></trkpt><trkpt lat="44.778579059754264" lon="9.295691784998237"><ele>1109.0</ele><time>2026-03-28T10:45:01.998Z</time></trkpt><trkpt lat="44.77846584131678" lon="9.29561950493933"><ele>1107.5</ele><time>2026-03-28T10:45:02.998Z</time></trkpt><trkpt lat="44.77836537205428" lon="9.295520320365062"><ele>1106.0</ele><time>2026-03-28T10:45:03.998Z</time></trkpt><trkpt lat="44.778235330740934" lon="9.295428530800766"><ele>1104.5</ele><time>2026-03-28T10:45:05Z</time></trkpt><trkpt lat="44.77809517640647" lon="9.295380310791353"><ele>1103.0</ele><time>2026-03-28T10:45:06Z</time></trkpt><trkpt lat="44.77795808174443" lon="9.295340285556458"><ele>1103.0</ele><time>2026-03-28T10:45:07Z</time></trkpt><trkpt lat="44.777830518257545" lon="9.295305795752958"><ele>1103.0</ele><time>2026-03-28T10:45:08Z</time></trkpt><trkpt lat="44.77771148711569" lon="9.295275315307217"><ele>1103.0</ele><time>2026-03-28T10:45:09Z</time></trkpt><trkpt lat="44.777603106285056" lon="9.295270152366413"><ele>1103.0</ele><time>2026-03-28T10:45:10Z</time></trkpt><trkpt lat="44.77749851415662" lon="9.295299485744444"><ele>1103.25</ele><time>2026-03-28T10:45:11Z</time></trkpt><trkpt lat="44.77741951296097" lon="9.295422488392957"><ele>1103.5</ele><time>2026-03-28T10:45:12Z</time></trkpt><trkpt lat="44.77733627080465" lon="9.295540523974548"><ele>1103.75</ele><time>2026-03-28T10:45:13Z</time></trkpt><trkpt lat="44.77725326320038" lon="9.29568075181837"><ele>1104.0</ele><time>2026-03-28T10:45:14Z</time></trkpt><trkpt lat="44.77716788275596" lon="9.295816195395744"><ele>1105.2</ele><time>2026-03-28T10:45:15Z</time></trkpt><trkpt lat="44.77707854227375" lon="9.29592270895984"><ele>1106.4</ele><time>2026-03-28T10:45:16Z</time></trkpt><trkpt lat="44.77698638313216" lon="9.295983697629136"><ele>1107.6</ele><time>2026-03-28T10:45:17Z</time></trkpt><trkpt lat="44.77689010884116" lon="9.295956626757974"><ele>1108.8</ele><time>2026-03-28T10:45:18Z</time></trkpt><trkpt lat="44.776812316772975" lon="9.295887681735602"><ele>1110.0</ele><time>2026-03-28T10:45:19Z</time></trkpt><trkpt lat="44.776728681651036" lon="9.295825140499955"><ele>1110.0</ele><time>2026-03-28T10:45:20Z</time></trkpt><trkpt lat="44.77661402438982" lon="9.295807829676688"><ele>1110.0</ele><time>2026-03-28T10:45:21Z</time></trkpt><trkpt lat="44.77650935667551" lon="9.295859520193412"><ele>1110.0</ele><time>2026-03-28T10:45:22Z</time></trkpt><trkpt lat="44.77643545073676" lon="9.296012139650015"><ele>1110.0</ele><time>2026-03-28T10:45:23Z</time></trkpt><trkpt lat="44.7763334391761" lon="9.296085791426407"><ele>1110.0</ele><time>2026-03-28T10:45:24Z</time></trkpt><trkpt lat="44.77622530089813" lon="9.296132456705335"><ele>1110.0</ele><time>2026-03-28T10:45:25Z</time></trkpt><trkpt lat="44.77610995873644" lon="9.296119026188407"><ele>1110.0</ele><time>2026-03-28T10:45:26Z</time></trkpt><trkpt lat="44.775979889594524" lon="9.296099953650522"><ele>1110.0</ele><time>2026-03-28T10:45:27Z</time></trkpt><trkpt lat="44.775848321635685" lon="9.296078355101914"><ele>1109.4</ele><time>2026-03-28T10:45:28Z</time></trkpt><trkpt lat="44.77573343177976" lon="9.296045803776618"><ele>1108.8</ele><time>2026-03-28T10:45:29Z</time></trkpt><trkpt lat="44.77563013661763" lon="9.296005645223092"><ele>1108.2</ele><time>2026-03-28T10:45:30Z</time></trkpt><trkpt lat="44.77555949062536" lon="9.295934024963122"><ele>1107.6</ele><time>2026-03-28T10:45:31Z</time></trkpt><trkpt lat="44.775493929099454" lon="9.295827964509183"><ele>1107.0</ele><time>2026-03-28T10:45:32Z</time></trkpt><trkpt lat="44.77542189223874" lon="9.295703995747905"><ele>1107.25</ele><time>2026-03-28T10:45:33Z</time></trkpt><trkpt lat="44.77534427861066" lon="9.295568598921038"><ele>1107.5</ele><time>2026-03-28T10:45:34Z</time></trkpt><trkpt lat="44.775269218813015" lon="9.29544135999075"><ele>1107.75</ele><time>2026-03-28T10:45:35Z</time></trkpt><trkpt lat="44.7751778554136" lon="9.295312127949538"><ele>1108.0</ele><time>2026-03-28T10:45:36Z</time></trkpt><trkpt lat="44.77505900828451" lon="9.295220605189579"><ele>1108.0</ele><time>2026-03-28T10:45:37Z</time></trkpt><trkpt lat="44.77493342756097" lon="9.295168092113888"><ele>1108.0</ele><time>2026-03-28T10:45:38Z</time></trkpt><trkpt lat="44.77483303164614" lon="9.295113701845603"><ele>1108.0</ele><time>2026-03-28T10:45:39Z</time></trkpt><trkpt lat="44.7747505515709" lon="9.295035321687832"><ele>1108.0</ele><time>2026-03-28T10:45:40Z</time></trkpt><trkpt lat="44.774696528426816" lon="9.294922099784394"><ele>1108.0</ele><time>2026-03-28T10:45:40.999Z</time></trkpt><trkpt lat="44.77465164214922" lon="9.294780450495468"><ele>1106.8</ele><time>2026-03-28T10:45:41.999Z</time></trkpt><trkpt lat="44.77461840752316" lon="9.294634252889413"><ele>1105.6</ele><time>2026-03-28T10:45:42.999Z</time></trkpt><trkpt lat="44.77458614669007" lon="9.294503672283179"><ele>1104.4</ele><time>2026-03-28T10:45:43.999Z</time></trkpt><trkpt lat="44.774546072936026" lon="9.294378545941461"><ele>1103.2</ele><time>2026-03-28T10:45:44.999Z</time></trkpt><trkpt lat="44.77450289245006" lon="9.294261612300549"><ele>1102.0</ele><time>2026-03-28T10:45:45.999Z</time></trkpt><trkpt lat="44.77444575682452" lon="9.294167287711595"><ele>1102.0</ele><time>2026-03-28T10:45:46.999Z</time></trkpt><trkpt lat="44.7743686933319" lon="9.29410707205285"><ele>1102.0</ele><time>2026-03-28T10:45:47.999Z</time></trkpt><trkpt lat="44.774296401180884" lon="9.294060388163883"><ele>1102.0</ele><time>2026-03-28T10:45:48.999Z</time></trkpt><trkpt lat="44.77422637937491" lon="9.294022540052712"><ele>1102.0</ele><time>2026-03-28T10:45:49.999Z</time></trkpt><trkpt lat="44.77416716215778" lon="9.293989816135404"><ele>1102.0</ele><time>2026-03-28T10:45:50.999Z</time></trkpt><trkpt lat="44.7740724186447" lon="9.293919674152193"><ele>1102.0</ele><time>2026-03-28T10:45:52.999Z</time></trkpt><trkpt lat="44.7739549376283" lon="9.294032142691757"><ele>1103.25</ele><time>2026-03-28T10:45:54.999Z</time></trkpt><trkpt lat="44.773872060194" lon="9.294100590303303"><ele>1104.5</ele><time>2026-03-28T10:45:56.999Z</time></trkpt><trkpt lat="44.77382680325662" lon="9.294179550896235"><ele>1105.75</ele><time>2026-03-28T10:45:58.999Z</time></trkpt><trkpt lat="44.77368069062957" lon="9.2939736283039"><ele>1107.0</ele><time>2026-03-28T10:46:03.999Z</time></trkpt><trkpt lat="44.77363352825645" lon="9.293880445673365"><ele>1107.6</ele><time>2026-03-28T10:46:04.999Z</time></trkpt><trkpt lat="44.77357333594666" lon="9.293767126612352"><ele>1108.2</ele><time>2026-03-28T10:46:05.999Z</time></trkpt><trkpt lat="44.77352046396203" lon="9.293681696906546"><ele>1108.8</ele><time>2026-03-28T10:46:06.999Z</time></trkpt><trkpt lat="44.77340217131024" lon="9.293606226895047"><ele>1109.4</ele><time>2026-03-28T10:46:08.999Z</time></trkpt><trkpt lat="44.773304977797" lon="9.293609915722602"><ele>1110.0</ele><time>2026-03-28T10:46:09.999Z</time></trkpt><trkpt lat="44.77319620625187" lon="9.29360007082032"><ele>1108.4</ele><time>2026-03-28T10:46:10.999Z</time></trkpt><trkpt lat="44.773119360407314" lon="9.293564219636254"><ele>1106.8</ele><time>2026-03-28T10:46:11.999Z</time></trkpt><trkpt lat="44.77303603078837" lon="9.293412212293525"><ele>1105.2</ele><time>2026-03-28T10:46:13.999Z</time></trkpt><trkpt lat="44.77299014986064" lon="9.293298766633168"><ele>1103.6</ele><time>2026-03-28T10:46:14.999Z</time></trkpt><trkpt lat="44.7729427806153" lon="9.293191766621314"><ele>1102.0</ele><time>2026-03-28T10:46:15.999Z</time></trkpt><trkpt lat="44.77290694325631" lon="9.29311295343744"><ele>1102.6</ele><time>2026-03-28T10:46:16.999Z</time></trkpt><trkpt lat="44.772847455539534" lon="9.293014024293553"><ele>1103.2</ele><time>2026-03-28T10:46:18.999Z</time></trkpt><trkpt lat="44.77273820292531" lon="9.29301731656811"><ele>1103.8</ele><time>2026-03-28T10:46:20.999Z</time></trkpt><trkpt lat="44.772655505172814" lon="9.293060940745754"><ele>1104.4</ele><time>2026-03-28T10:46:22.999Z</time></trkpt><trkpt lat="44.772578047563414" lon="9.293136956689004"><ele>1105.0</ele><time>2026-03-28T10:46:24.999Z</time></trkpt><trkpt lat="44.7725739911615" lon="9.293253273506352"><ele>1102.4</ele><time>2026-03-28T10:46:26.999Z</time></trkpt><trkpt lat="44.772542554646286" lon="9.293401561855815"><ele>1099.8</ele><time>2026-03-28T10:46:28.999Z</time></trkpt><trkpt lat="44.772495131691876" lon="9.293467374084367"><ele>1097.2</ele><time>2026-03-28T10:46:29.998Z</time></trkpt><trkpt lat="44.77241158621763" lon="9.293527506478492"><ele>1094.6</ele><time>2026-03-28T10:46:30.998Z</time></trkpt><trkpt lat="44.77231644714256" lon="9.293606855201874"><ele>1092.0</ele><time>2026-03-28T10:46:31.998Z</time></trkpt><trkpt lat="44.77224827883918" lon="9.293672619704848"><ele>1092.0</ele><time>2026-03-28T10:46:32.998Z</time></trkpt><trkpt lat="44.77219213632527" lon="9.293727673926957"><ele>1092.0</ele><time>2026-03-28T10:46:33.998Z</time></trkpt><trkpt lat="44.77212513026464" lon="9.29377458020515"><ele>1092.0</ele><time>2026-03-28T10:46:34.998Z</time></trkpt><trkpt lat="44.77204432119006" lon="9.293807650236666"><ele>1092.0</ele><time>2026-03-28T10:46:35.998Z</time></trkpt><trkpt lat="44.77195521956946" lon="9.293832300014632"><ele>1092.0</ele><time>2026-03-28T10:46:36.998Z</time></trkpt><trkpt lat="44.77185763304349" lon="9.293859215633585"><ele>1092.0</ele><time>2026-03-28T10:46:37.998Z</time></trkpt><trkpt lat="44.77176132574505" lon="9.293866073964045"><ele>1089.3333333333333</ele><time>2026-03-28T10:46:38.998Z</time></trkpt><trkpt lat="44.77166146491852" lon="9.293870540563566"><ele>1086.6666666666667</ele><time>2026-03-28T10:46:39.998Z</time></trkpt><trkpt lat="44.77158449780593" lon="9.293897322121673"><ele>1084.0</ele><time>2026-03-28T10:46:40.998Z</time></trkpt><trkpt lat="44.77151332158159" lon="9.293926344399178"><ele>1081.3333333333335</ele><time>2026-03-28T10:46:41.998Z</time></trkpt><trkpt lat="44.771433208302035" lon="9.293934951153163"><ele>1078.6666666666667</ele><time>2026-03-28T10:46:42.998Z</time></trkpt><trkpt lat="44.77136655175156" lon="9.293900912337365"><ele>1076.0</ele><time>2026-03-28T10:46:43.998Z</time></trkpt><trkpt lat="44.77129317810072" lon="9.293859178651232"><ele>1075.857142857143</ele><time>2026-03-28T10:46:44.998Z</time></trkpt><trkpt lat="44.77121605634192" lon="9.293832144294818"><ele>1075.7142857142858</ele><time>2026-03-28T10:46:45.998Z</time></trkpt><trkpt lat="44.77113918839627" lon="9.293829435760177"><ele>1075.5714285714287</ele><time>2026-03-28T10:46:46.998Z</time></trkpt><trkpt lat="44.77106869974764" lon="9.293831792256748"><ele>1075.4285714285716</ele><time>2026-03-28T10:46:47.998Z</time></trkpt><trkpt lat="44.771001473602254" lon="9.293861505193"><ele>1075.2857142857142</ele><time>2026-03-28T10:46:48.998Z</time></trkpt><trkpt lat="44.77094362963199" lon="9.293905817030383"><ele>1075.1428571428573</ele><time>2026-03-28T10:46:49.998Z</time></trkpt><trkpt lat="44.77088266449082" lon="9.29398120034399"><ele>1075.0</ele><time>2026-03-28T10:46:50.998Z</time></trkpt><trkpt lat="44.770818145333756" lon="9.29405159492651"><ele>1072.3333333333333</ele><time>2026-03-28T10:46:51.998Z</time></trkpt><trkpt lat="44.770761919235966" lon="9.294100345200347"><ele>1069.6666666666665</ele><time>2026-03-28T10:46:52.998Z</time></trkpt><trkpt lat="44.77069935166887" lon="9.294126882995053"><ele>1067.0</ele><time>2026-03-28T10:46:53.998Z</time></trkpt><trkpt lat="44.77061334557953" lon="9.294123962250323"><ele>1064.3333333333333</ele><time>2026-03-28T10:46:55.998Z</time></trkpt><trkpt lat="44.77055390100684" lon="9.294084631097359"><ele>1061.6666666666667</ele><time>2026-03-28T10:46:58.998Z</time></trkpt><trkpt lat="44.770468066841374" lon="9.294071547824498"><ele>1059.0</ele><time>2026-03-28T10:47:00.998Z</time></trkpt><trkpt lat="44.770344824041516" lon="9.294088090342854"><ele>1059.0</ele><time>2026-03-28T10:47:02.998Z</time></trkpt><trkpt lat="44.77027899804933" lon="9.29409362934689"><ele>1059.0</ele><time>2026-03-28T10:47:03.998Z</time></trkpt><trkpt lat="44.77015529354493" lon="9.294120111932099"><ele>1059.0</ele><time>2026-03-28T10:47:05.998Z</time></trkpt><trkpt lat="44.7700429442858" lon="9.29411088903683"><ele>1059.0</ele><time>2026-03-28T10:47:07.998Z</time></trkpt><trkpt lat="44.76995300626879" lon="9.294080457681465"><ele>1059.0</ele><time>2026-03-28T10:47:09.998Z</time></trkpt><trkpt lat="44.76986410772878" lon="9.294050075961607"><ele>1055.8</ele><time>2026-03-28T10:47:12Z</time></trkpt><trkpt lat="44.769756047358314" lon="9.294061822171283"><ele>1052.6000000000001</ele><time>2026-03-28T10:47:14Z</time></trkpt><trkpt lat="44.76967859087924" lon="9.294144858054857"><ele>1049.4</ele><time>2026-03-28T10:47:16Z</time></trkpt><trkpt lat="44.76961874468812" lon="9.294276216774064"><ele>1046.2</ele><time>2026-03-28T10:47:18Z</time></trkpt><trkpt lat="44.76951114751536" lon="9.29428530499491"><ele>1043.0</ele><time>2026-03-28T10:47:20Z</time></trkpt><trkpt lat="44.76944893309354" lon="9.294258740934145"><ele>1039.6666666666667</ele><time>2026-03-28T10:47:21Z</time></trkpt><trkpt lat="44.76935283942493" lon="9.294271992696334"><ele>1036.3333333333335</ele><time>2026-03-28T10:47:23Z</time></trkpt><trkpt lat="44.76929025534159" lon="9.294290813810827"><ele>1033.0</ele><time>2026-03-28T10:47:24Z</time></trkpt><trkpt lat="44.76919327883901" lon="9.294345180109728"><ele>1029.6666666666667</ele><time>2026-03-28T10:47:26Z</time></trkpt><trkpt lat="44.76909193243166" lon="9.29439131336526"><ele>1026.3333333333333</ele><time>2026-03-28T10:47:28Z</time></trkpt><trkpt lat="44.769022643251205" lon="9.294417586449558"><ele>1023.0</ele><time>2026-03-28T10:47:29Z</time></trkpt><trkpt lat="44.76895982520893" lon="9.294438447152368"><ele>1023.0</ele><time>2026-03-28T10:47:30Z</time></trkpt><trkpt lat="44.76889684134755" lon="9.294462056399457"><ele>1023.0</ele><time>2026-03-28T10:47:31Z</time></trkpt><trkpt lat="44.76876214238104" lon="9.294484898054888"><ele>1023.0</ele><time>2026-03-28T10:47:33Z</time></trkpt><trkpt lat="44.76868686624473" lon="9.294476683174521"><ele>1023.0</ele><time>2026-03-28T10:47:34Z</time></trkpt><trkpt lat="44.768622646888204" lon="9.294493379599"><ele>1023.0</ele><time>2026-03-28T10:47:35Z</time></trkpt><trkpt lat="44.76854775966933" lon="9.29452877497232"><ele>1023.0</ele><time>2026-03-28T10:47:36Z</time></trkpt><trkpt lat="44.768477565658195" lon="9.29454112575019"><ele>1020.0</ele><time>2026-03-28T10:47:37Z</time></trkpt><trkpt lat="44.76839965173382" lon="9.294531219671256"><ele>1017.0</ele><time>2026-03-28T10:47:38Z</time></trkpt><trkpt lat="44.768327539454944" lon="9.294511448296205"><ele>1014.0</ele><time>2026-03-28T10:47:39Z</time></trkpt><trkpt lat="44.76820637357499" lon="9.294562705899649"><ele>1011.0</ele><time>2026-03-28T10:47:41Z</time></trkpt><trkpt lat="44.76813729855267" lon="9.294564414822192"><ele>1008.0</ele><time>2026-03-28T10:47:42Z</time></trkpt><trkpt lat="44.76803249611411" lon="9.29451808080398"><ele>1008.0</ele><time>2026-03-28T10:47:44Z</time></trkpt><trkpt lat="44.76796073575174" lon="9.294492713421391"><ele>1008.0</ele><time>2026-03-28T10:47:46.999Z</time></trkpt><trkpt lat="44.76790575221791" lon="9.294417130150434"><ele>1008.0</ele><time>2026-03-28T10:47:49.999Z</time></trkpt><trkpt lat="44.76782440318364" lon="9.294403220438365"><ele>1008.0</ele><time>2026-03-28T10:47:52.999Z</time></trkpt><trkpt lat="44.76777927886839" lon="9.294467894448536"><ele>1008.0</ele><time>2026-03-28T10:47:54.999Z</time></trkpt><trkpt lat="44.767673116604556" lon="9.294618025716977"><ele>1008.0</ele><time>2026-03-28T10:47:55.999Z</time></trkpt><trkpt lat="44.76768996113704" lon="9.294796181895249"><ele>1006.5</ele><time>2026-03-28T10:47:57.999Z</time></trkpt><trkpt lat="44.76772586511968" lon="9.294941495763116"><ele>1005.0</ele><time>2026-03-28T10:47:58.999Z</time></trkpt><trkpt lat="44.76775199809544" lon="9.295081012517105"><ele>1003.5</ele><time>2026-03-28T10:47:59.999Z</time></trkpt><trkpt lat="44.767775691561695" lon="9.295186120478037"><ele>1002.0</ele><time>2026-03-28T10:48:00.999Z</time></trkpt><trkpt lat="44.76780677458919" lon="9.295283102757612"><ele>1000.5</ele><time>2026-03-28T10:48:01.999Z</time></trkpt><trkpt lat="44.76788900115126" lon="9.295306836812209"><ele>999.0</ele><time>2026-03-28T10:48:02.999Z</time></trkpt><trkpt lat="44.76807299233862" lon="9.295306353597798"><ele>999.0</ele><time>2026-03-28T10:48:04.999Z</time></trkpt><trkpt lat="44.76815846948914" lon="9.295304614302772"><ele>999.0000000000001</ele><time>2026-03-28T10:48:05.999Z</time></trkpt><trkpt lat="44.76823716520844" lon="9.295299176538531"><ele>999.0000000000001</ele><time>2026-03-28T10:48:06.999Z</time></trkpt><trkpt lat="44.76824735357509" lon="9.29545618060013"><ele>999.0</ele><time>2026-03-28T10:48:09.999Z</time></trkpt><trkpt lat="44.76815652947736" lon="9.295498056095802"><ele>999.0</ele><time>2026-03-28T10:48:11.999Z</time></trkpt><trkpt lat="44.76804097094151" lon="9.295548099611484"><ele>994.8000000000001</ele><time>2026-03-28T10:48:12.999Z</time></trkpt><trkpt lat="44.767934746679806" lon="9.295597845931772"><ele>990.6000000000001</ele><time>2026-03-28T10:48:13.999Z</time></trkpt><trkpt lat="44.76785816496906" lon="9.295603751482446"><ele>986.4</ele><time>2026-03-28T10:48:14.999Z</time></trkpt><trkpt lat="44.76776079492786" lon="9.295594592078157"><ele>982.2</ele><time>2026-03-28T10:48:15.999Z</time></trkpt><trkpt lat="44.767676371391715" lon="9.295607721683876"><ele>978.0</ele><time>2026-03-28T10:48:16.999Z</time></trkpt><trkpt lat="44.76759483230943" lon="9.29562462396922"><ele>975.1666666666666</ele><time>2026-03-28T10:48:17.999Z</time></trkpt><trkpt lat="44.767514152650165" lon="9.295648341505105"><ele>972.3333333333333</ele><time>2026-03-28T10:48:18.999Z</time></trkpt><trkpt lat="44.76743977373789" lon="9.295676946308445"><ele>969.5</ele><time>2026-03-28T10:48:19.999Z</time></trkpt><trkpt lat="44.767384868486715" lon="9.29573140496107"><ele>966.6666666666666</ele><time>2026-03-28T10:48:20.999Z</time></trkpt><trkpt lat="44.76730755031215" lon="9.29586390270944"><ele>963.8333333333333</ele><time>2026-03-28T10:48:22.999Z</time></trkpt><trkpt lat="44.767220390815275" lon="9.295929826222928"><ele>961.0</ele><time>2026-03-28T10:48:24.999Z</time></trkpt><trkpt lat="44.7671365557247" lon="9.295844323758692"><ele>961.0</ele><time>2026-03-28T10:48:26.999Z</time></trkpt><trkpt lat="44.7671334587394" lon="9.295724038147094"><ele>960.9999999999999</ele><time>2026-03-28T10:48:27.999Z</time></trkpt><trkpt lat="44.767133970682984" lon="9.295603017574383"><ele>961.0</ele><time>2026-03-28T10:48:28.999Z</time></trkpt><trkpt lat="44.76711392302002" lon="9.295497547754396"><ele>961.0</ele><time>2026-03-28T10:48:29.999Z</time></trkpt><trkpt lat="44.7670630889393" lon="9.29544109141912"><ele>960.9999999999999</ele><time>2026-03-28T10:48:30.999Z</time></trkpt><trkpt lat="44.76699908791781" lon="9.295437004967358"><ele>961.0</ele><time>2026-03-28T10:48:31.999Z</time></trkpt><trkpt lat="44.76693007799138" lon="9.295412806390809"><ele>961.0</ele><time>2026-03-28T10:48:32.999Z</time></trkpt><trkpt lat="44.766866757317906" lon="9.295396787304233"><ele>959.1999999999999</ele><time>2026-03-28T10:48:33.998Z</time></trkpt><trkpt lat="44.76686495778675" lon="9.295274418152557"><ele>957.3999999999999</ele><time>2026-03-28T10:48:35.998Z</time></trkpt><trkpt lat="44.76683262587971" lon="9.295171843747013"><ele>955.6</ele><time>2026-03-28T10:48:37.998Z</time></trkpt><trkpt lat="44.76665758103714" lon="9.295034046489064"><ele>953.8</ele><time>2026-03-28T10:48:40.998Z</time></trkpt><trkpt lat="44.766594524273096" lon="9.295035912410116"><ele>952.0</ele><time>2026-03-28T10:48:41.998Z</time></trkpt><trkpt lat="44.76653436644552" lon="9.295072915989651"><ele>951.9999999999999</ele><time>2026-03-28T10:48:42.998Z</time></trkpt><trkpt lat="44.766452265754566" lon="9.29512010752108"><ele>952.0</ele><time>2026-03-28T10:48:43.998Z</time></trkpt><trkpt lat="44.76636635351977" lon="9.295176361459845"><ele>952.0</ele><time>2026-03-28T10:48:44.998Z</time></trkpt><trkpt lat="44.766289081768164" lon="9.295235510218339"><ele>952.0</ele><time>2026-03-28T10:48:45.998Z</time></trkpt><trkpt lat="44.76621558011863" lon="9.295292483466474"><ele>951.9999999999999</ele><time>2026-03-28T10:48:46.998Z</time></trkpt><trkpt lat="44.766160132472756" lon="9.295344538658158"><ele>952.0</ele><time>2026-03-28T10:48:47.998Z</time></trkpt><trkpt lat="44.76611992185163" lon="9.295470849044065"><ele>949.75</ele><time>2026-03-28T10:48:49.998Z</time></trkpt><trkpt lat="44.766208813224374" lon="9.295637319249858"><ele>947.5</ele><time>2026-03-28T10:48:51.998Z</time></trkpt><trkpt lat="44.76627218561112" lon="9.295806378520696"><ele>945.25</ele><time>2026-03-28T10:48:52.998Z</time></trkpt><trkpt lat="44.76633576655017" lon="9.295980259147072"><ele>943.0</ele><time>2026-03-28T10:48:53.998Z</time></trkpt><trkpt lat="44.76634521709559" lon="9.296129108457341"><ele>943.0</ele><time>2026-03-28T10:48:54.998Z</time></trkpt><trkpt lat="44.76633203350157" lon="9.296260890090895"><ele>943.0</ele><time>2026-03-28T10:48:55.998Z</time></trkpt><trkpt lat="44.76630281408539" lon="9.29639956672778"><ele>943.0</ele><time>2026-03-28T10:48:56.998Z</time></trkpt><trkpt lat="44.76625807388253" lon="9.2965032299459"><ele>943.0</ele><time>2026-03-28T10:48:57.998Z</time></trkpt><trkpt lat="44.76622077592366" lon="9.296662145498301"><ele>943.0</ele><time>2026-03-28T10:48:59.998Z</time></trkpt><trkpt lat="44.76621904485874" lon="9.296767668466071"><ele>941.0</ele><time>2026-03-28T10:49:00.998Z</time></trkpt><trkpt lat="44.76624242842416" lon="9.296871570029504"><ele>939.0</ele><time>2026-03-28T10:49:01.998Z</time></trkpt><trkpt lat="44.766257625178746" lon="9.296982838094864"><ele>937.0</ele><time>2026-03-28T10:49:02.998Z</time></trkpt><trkpt lat="44.76628846381393" lon="9.297074201501486"><ele>935.0</ele><time>2026-03-28T10:49:03.998Z</time></trkpt><trkpt lat="44.76641688250095" lon="9.297164067532306"><ele>933.0</ele><time>2026-03-28T10:49:05.998Z</time></trkpt><trkpt lat="44.766512442515285" lon="9.29716839826207"><ele>933.0</ele><time>2026-03-28T10:49:06.998Z</time></trkpt><trkpt lat="44.76660586721234" lon="9.297157228518602"><ele>933.0</ele><time>2026-03-28T10:49:07.998Z</time></trkpt><trkpt lat="44.76671898931368" lon="9.297118868580615"><ele>933.0</ele><time>2026-03-28T10:49:08.998Z</time></trkpt><trkpt lat="44.76681303857807" lon="9.297087584286453"><ele>933.0</ele><time>2026-03-28T10:49:09.998Z</time></trkpt><trkpt lat="44.76691504387" lon="9.297069704016836"><ele>933.0</ele><time>2026-03-28T10:49:10.998Z</time></trkpt><trkpt lat="44.76702579324408" lon="9.29706008328483"><ele>934.0</ele><time>2026-03-28T10:49:11.998Z</time></trkpt><trkpt lat="44.76713641513425" lon="9.29706689455698"><ele>935.0</ele><time>2026-03-28T10:49:12.998Z</time></trkpt><trkpt lat="44.767235501860156" lon="9.297083157303787"><ele>936.0</ele><time>2026-03-28T10:49:13.998Z</time></trkpt><trkpt lat="44.767334269443836" lon="9.297101725158818"><ele>937.0</ele><time>2026-03-28T10:49:14.998Z</time></trkpt><trkpt lat="44.767431664522256" lon="9.297135387827382"><ele>938.0</ele><time>2026-03-28T10:49:15.998Z</time></trkpt><trkpt lat="44.767512859704205" lon="9.297177947658515"><ele>938.0</ele><time>2026-03-28T10:49:17Z</time></trkpt><trkpt lat="44.767566287756075" lon="9.29724593131875"><ele>938.0</ele><time>2026-03-28T10:49:18Z</time></trkpt><trkpt lat="44.76759633908787" lon="9.297348878188895"><ele>938.0</ele><time>2026-03-28T10:49:19Z</time></trkpt><trkpt lat="44.76759349338305" lon="9.297484208480212"><ele>938.0</ele><time>2026-03-28T10:49:20Z</time></trkpt><trkpt lat="44.76753209762508" lon="9.297626037817574"><ele>938.0</ele><time>2026-03-28T10:49:21Z</time></trkpt><trkpt lat="44.76754303493388" lon="9.297783306867316"><ele>934.0</ele><time>2026-03-28T10:49:22Z</time></trkpt><trkpt lat="44.767543625771" lon="9.297941674951359"><ele>930.0</ele><time>2026-03-28T10:49:23Z</time></trkpt><trkpt lat="44.767547047452325" lon="9.298092990662681"><ele>926.0</ele><time>2026-03-28T10:49:24Z</time></trkpt><trkpt lat="44.76754723346549" lon="9.29824053609443"><ele>922.0</ele><time>2026-03-28T10:49:25Z</time></trkpt><trkpt lat="44.767561538568955" lon="9.298402521025821"><ele>918.0</ele><time>2026-03-28T10:49:26Z</time></trkpt><trkpt lat="44.76757413774628" lon="9.29856771201704"><ele>916.4</ele><time>2026-03-28T10:49:27Z</time></trkpt><trkpt lat="44.767570074337044" lon="9.29873246274508"><ele>914.8</ele><time>2026-03-28T10:49:28Z</time></trkpt><trkpt lat="44.76751082297589" lon="9.298862095945658"><ele>913.2</ele><time>2026-03-28T10:49:29Z</time></trkpt><trkpt lat="44.767463074089314" lon="9.298990251664236"><ele>911.6</ele><time>2026-03-28T10:49:30Z</time></trkpt><trkpt lat="44.76741816016633" lon="9.299110114654539"><ele>910.0</ele><time>2026-03-28T10:49:31Z</time></trkpt><trkpt lat="44.767373895383066" lon="9.299226832194995"><ele>909.2</ele><time>2026-03-28T10:49:32Z</time></trkpt><trkpt lat="44.76732601572496" lon="9.29935571356921"><ele>908.4</ele><time>2026-03-28T10:49:33Z</time></trkpt><trkpt lat="44.767296002069735" lon="9.299489019553706"><ele>907.5999999999999</ele><time>2026-03-28T10:49:34Z</time></trkpt><trkpt lat="44.76726038526195" lon="9.299609311845447"><ele>906.8</ele><time>2026-03-28T10:49:35Z</time></trkpt><trkpt lat="44.76724885378147" lon="9.299727452932185"><ele>906.0</ele><time>2026-03-28T10:49:36Z</time></trkpt><trkpt lat="44.76725366748668" lon="9.299847007380492"><ele>905.4</ele><time>2026-03-28T10:49:37Z</time></trkpt><trkpt lat="44.76726428238646" lon="9.299959586938352"><ele>904.8</ele><time>2026-03-28T10:49:38Z</time></trkpt><trkpt lat="44.76729543315591" lon="9.300080640691785"><ele>904.1999999999999</ele><time>2026-03-28T10:49:39Z</time></trkpt><trkpt lat="44.76734250911813" lon="9.300211993246869"><ele>903.5999999999999</ele><time>2026-03-28T10:49:40Z</time></trkpt><trkpt lat="44.76738536700031" lon="9.3003500140858"><ele>903.0</ele><time>2026-03-28T10:49:41Z</time></trkpt><trkpt lat="44.76742485594178" lon="9.300475347596578"><ele>903.0</ele><time>2026-03-28T10:49:42Z</time></trkpt><trkpt lat="44.76744963830489" lon="9.300585895123486"><ele>903.0</ele><time>2026-03-28T10:49:43Z</time></trkpt><trkpt lat="44.76746888547089" lon="9.300694758726076"><ele>903.0</ele><time>2026-03-28T10:49:44Z</time></trkpt><trkpt lat="44.76745032268245" lon="9.300805190167498"><ele>903.0</ele><time>2026-03-28T10:49:45Z</time></trkpt><trkpt lat="44.76741855232991" lon="9.300908254915942"><ele>903.0</ele><time>2026-03-28T10:49:46Z</time></trkpt><trkpt lat="44.76736187936709" lon="9.301006514338017"><ele>903.0</ele><time>2026-03-28T10:49:47Z</time></trkpt><trkpt lat="44.76731891047048" lon="9.301132811449376"><ele>903.0</ele><time>2026-03-28T10:49:47.999Z</time></trkpt><trkpt lat="44.76728779522114" lon="9.301254957515576"><ele>903.0</ele><time>2026-03-28T10:49:48.999Z</time></trkpt><trkpt lat="44.76727392034595" lon="9.301381646449748"><ele>903.0</ele><time>2026-03-28T10:49:49.999Z</time></trkpt><trkpt lat="44.76726847720427" lon="9.301489386897558"><ele>903.0</ele><time>2026-03-28T10:49:50.999Z</time></trkpt><trkpt lat="44.767275585479" lon="9.30159393578456"><ele>903.0</ele><time>2026-03-28T10:49:51.999Z</time></trkpt><trkpt lat="44.76728332755323" lon="9.301683175439656"><ele>903.0</ele><time>2026-03-28T10:49:53.999Z</time></trkpt><trkpt lat="44.767261510322236" lon="9.301587956340247"><ele>903.0</ele><time>2026-03-28T10:49:57.999Z</time></trkpt><trkpt lat="44.767220630888694" lon="9.301462241181758"><ele>903.0</ele><time>2026-03-28T10:49:59.999Z</time></trkpt><trkpt lat="44.76715917079208" lon="9.301334388818326"><ele>903.0</ele><time>2026-03-28T10:50:01.999Z</time></trkpt><trkpt lat="44.76712271206856" lon="9.301211979000865"><ele>903.0</ele><time>2026-03-28T10:50:03.999Z</time></trkpt><trkpt lat="44.76713615120489" lon="9.301017931028456"><ele>903.0</ele><time>2026-03-28T10:50:05.999Z</time></trkpt><trkpt lat="44.767124256989405" lon="9.30090767466961"><ele>903.0</ele><time>2026-03-28T10:50:06.999Z</time></trkpt><trkpt lat="44.767083886213754" lon="9.300802041291496"><ele>903.0</ele><time>2026-03-28T10:50:07.999Z</time></trkpt><trkpt lat="44.76704044863897" lon="9.300712736062033"><ele>903.0</ele><time>2026-03-28T10:50:08.999Z</time></trkpt><trkpt lat="44.76699708608352" lon="9.300628799351065"><ele>903.0</ele><time>2026-03-28T10:50:09.999Z</time></trkpt><trkpt lat="44.76695768779567" lon="9.300558288776388"><ele>903.0</ele><time>2026-03-28T10:50:10.999Z</time></trkpt><trkpt lat="44.7668846725472" lon="9.300477965567136"><ele>903.0</ele><time>2026-03-28T10:50:12.999Z</time></trkpt><trkpt lat="44.76681193650266" lon="9.300513268154923"><ele>898.1666666666666</ele><time>2026-03-28T10:50:13.999Z</time></trkpt><trkpt lat="44.76680526276001" lon="9.300649145771116"><ele>893.3333333333333</ele><time>2026-03-28T10:50:14.999Z</time></trkpt><trkpt lat="44.76680789058608" lon="9.300739221584685"><ele>888.5</ele><time>2026-03-28T10:50:15.999Z</time></trkpt><trkpt lat="44.766817275681994" lon="9.300848474581157"><ele>883.6666666666666</ele><time>2026-03-28T10:50:17.999Z</time></trkpt><trkpt lat="44.76674900218252" lon="9.300877883342796"><ele>878.8333333333333</ele><time>2026-03-28T10:50:19.999Z</time></trkpt><trkpt lat="44.766667348661265" lon="9.30072752466282"><ele>874.0</ele><time>2026-03-28T10:50:21.999Z</time></trkpt><trkpt lat="44.76662873074414" lon="9.300607042883165"><ele>874.8333333333333</ele><time>2026-03-28T10:50:22.999Z</time></trkpt><trkpt lat="44.76662868836535" lon="9.30048095681202"><ele>875.6666666666666</ele><time>2026-03-28T10:50:23.999Z</time></trkpt><trkpt lat="44.76660278129273" lon="9.30038451655448"><ele>876.5</ele><time>2026-03-28T10:50:24.999Z</time></trkpt><trkpt lat="44.76657468331945" lon="9.300284258910342"><ele>877.3333333333333</ele><time>2026-03-28T10:50:25.999Z</time></trkpt><trkpt lat="44.76654406465929" lon="9.300186280984862"><ele>878.1666666666666</ele><time>2026-03-28T10:50:26.999Z</time></trkpt><trkpt lat="44.76649140465303" lon="9.30010325547028"><ele>879.0</ele><time>2026-03-28T10:50:27.999Z</time></trkpt><trkpt lat="44.766396592948915" lon="9.30007484765227"><ele>879.0</ele><time>2026-03-28T10:50:28.999Z</time></trkpt><trkpt lat="44.76631800368574" lon="9.300083602062893"><ele>879.0000000000001</ele><time>2026-03-28T10:50:29.999Z</time></trkpt><trkpt lat="44.76624826884621" lon="9.300220323082955"><ele>879.0000000000001</ele><time>2026-03-28T10:50:30.999Z</time></trkpt><trkpt lat="44.76616284395249" lon="9.300290395680397"><ele>879.0</ele><time>2026-03-28T10:50:31.999Z</time></trkpt><trkpt lat="44.7660844807125" lon="9.300363777419863"><ele>879.0</ele><time>2026-03-28T10:50:32.999Z</time></trkpt><trkpt lat="44.766013435404055" lon="9.300412920613827"><ele>877.3333333333334</ele><time>2026-03-28T10:50:33.999Z</time></trkpt><trkpt lat="44.765946028027436" lon="9.300419126505343"><ele>875.6666666666667</ele><time>2026-03-28T10:50:34.999Z</time></trkpt><trkpt lat="44.76587836442361" lon="9.300403034084798"><ele>874.0</ele><time>2026-03-28T10:50:35.999Z</time></trkpt><trkpt lat="44.76580240895351" lon="9.30040178576772"><ele>872.3333333333334</ele><time>2026-03-28T10:50:36.999Z</time></trkpt><trkpt lat="44.765724328551904" lon="9.300400502529076"><ele>870.6666666666667</ele><time>2026-03-28T10:50:37.999Z</time></trkpt><trkpt lat="44.76564111011613" lon="9.300399134845803"><ele>869.0</ele><time>2026-03-28T10:50:38.998Z</time></trkpt><trkpt lat="44.765570166239186" lon="9.300448682420082"><ele>869.0</ele><time>2026-03-28T10:50:39.998Z</time></trkpt><trkpt lat="44.765490295381" lon="9.300320536134784"><ele>869.0000000000001</ele><time>2026-03-28T10:50:41.998Z</time></trkpt><trkpt lat="44.765462937312854" lon="9.300216355049738"><ele>869.0000000000001</ele><time>2026-03-28T10:50:42.998Z</time></trkpt><trkpt lat="44.76541925444032" lon="9.300082322050825"><ele>869.0</ele><time>2026-03-28T10:50:43.998Z</time></trkpt><trkpt lat="44.76536851420494" lon="9.299932675592554"><ele>869.0</ele><time>2026-03-28T10:50:44.998Z</time></trkpt><trkpt lat="44.765328348515226" lon="9.299806821037981"><ele>868.3333333333334</ele><time>2026-03-28T10:50:45.998Z</time></trkpt><trkpt lat="44.765299681908196" lon="9.29969529856676"><ele>867.6666666666667</ele><time>2026-03-28T10:50:46.998Z</time></trkpt><trkpt lat="44.765268535399024" lon="9.299572471453924"><ele>867.0</ele><time>2026-03-28T10:50:47.998Z</time></trkpt><trkpt lat="44.765241417780324" lon="9.299474385621144"><ele>866.3333333333333</ele><time>2026-03-28T10:50:48.998Z</time></trkpt><trkpt lat="44.76519279456564" lon="9.299396805229009"><ele>865.6666666666666</ele><time>2026-03-28T10:50:49.998Z</time></trkpt><trkpt lat="44.76512534399478" lon="9.299334947527527"><ele>865.0</ele><time>2026-03-28T10:50:50.998Z</time></trkpt><trkpt lat="44.76504382520658" lon="9.299282231949777"><ele>864.9999999999999</ele><time>2026-03-28T10:50:51.998Z</time></trkpt><trkpt lat="44.76495881003545" lon="9.299246157782928"><ele>865.0</ele><time>2026-03-28T10:50:52.998Z</time></trkpt><trkpt lat="44.764870655274024" lon="9.29922558566034"><ele>865.0</ele><time>2026-03-28T10:50:53.998Z</time></trkpt><trkpt lat="44.76478606962885" lon="9.299235782543139"><ele>865.0</ele><time>2026-03-28T10:50:54.998Z</time></trkpt><trkpt lat="44.76471632342361" lon="9.299283736955761"><ele>864.9999999999999</ele><time>2026-03-28T10:50:55.998Z</time></trkpt><trkpt lat="44.764653565768484" lon="9.299358875138546"><ele>865.0</ele><time>2026-03-28T10:50:56.998Z</time></trkpt><trkpt lat="44.76457801481685" lon="9.299437165051382"><ele>865.0</ele><time>2026-03-28T10:50:57.998Z</time></trkpt><trkpt lat="44.764500766615306" lon="9.299469933673166"><ele>865.0</ele><time>2026-03-28T10:50:58.998Z</time></trkpt><trkpt lat="44.764417234047045" lon="9.299429793930663"><ele>865.0</ele><time>2026-03-28T10:50:59.998Z</time></trkpt><trkpt lat="44.76433347268569" lon="9.299360801748737"><ele>865.0</ele><time>2026-03-28T10:51:00.998Z</time></trkpt><trkpt lat="44.76421663880624" lon="9.299326249101217"><ele>865.0</ele><time>2026-03-28T10:51:02.998Z</time></trkpt><trkpt lat="44.76417566949073" lon="9.299469284984353"><ele>865.6</ele><time>2026-03-28T10:51:04.998Z</time></trkpt><trkpt lat="44.76419469821088" lon="9.29960377570426"><ele>866.2</ele><time>2026-03-28T10:51:05.998Z</time></trkpt><trkpt lat="44.76418990000171" lon="9.299732802015658"><ele>866.8</ele><time>2026-03-28T10:51:06.998Z</time></trkpt><trkpt lat="44.76412170902603" lon="9.299867453148574"><ele>867.4</ele><time>2026-03-28T10:51:07.998Z</time></trkpt><trkpt lat="44.76406188269589" lon="9.300005874955069"><ele>868.0</ele><time>2026-03-28T10:51:08.998Z</time></trkpt><trkpt lat="44.76401019131551" lon="9.300128490627468"><ele>867.0</ele><time>2026-03-28T10:51:09.998Z</time></trkpt><trkpt lat="44.76392987226439" lon="9.300198685696197"><ele>866.0</ele><time>2026-03-28T10:51:10.998Z</time></trkpt><trkpt lat="44.76383284256138" lon="9.300241534412903"><ele>865.0</ele><time>2026-03-28T10:51:11.998Z</time></trkpt><trkpt lat="44.76373125703256" lon="9.300278946054368"><ele>864.0</ele><time>2026-03-28T10:51:12.998Z</time></trkpt><trkpt lat="44.76361611386919" lon="9.300339666846684"><ele>863.0</ele><time>2026-03-28T10:51:13.998Z</time></trkpt><trkpt lat="44.76351194130064" lon="9.30044413183349"><ele>863.0</ele><time>2026-03-28T10:51:14.998Z</time></trkpt><trkpt lat="44.76342034238524" lon="9.30052750064358"><ele>863.0</ele><time>2026-03-28T10:51:15.998Z</time></trkpt><trkpt lat="44.763320609227534" lon="9.30060492981643"><ele>863.0</ele><time>2026-03-28T10:51:16.998Z</time></trkpt><trkpt lat="44.763219135823675" lon="9.30066802308476"><ele>863.0</ele><time>2026-03-28T10:51:17.998Z</time></trkpt><trkpt lat="44.76311070884053" lon="9.300706411917945"><ele>863.0</ele><time>2026-03-28T10:51:18.998Z</time></trkpt><trkpt lat="44.76303830269454" lon="9.300723573740193"><ele>863.0</ele><time>2026-03-28T10:51:19.998Z</time></trkpt><trkpt lat="44.76292614907695" lon="9.300629222637776"><ele>863.0</ele><time>2026-03-28T10:51:21.998Z</time></trkpt><trkpt lat="44.76287803436134" lon="9.300513620180022"><ele>863.0</ele><time>2026-03-28T10:51:23Z</time></trkpt><trkpt lat="44.76283314990473" lon="9.300379194589894"><ele>863.0</ele><time>2026-03-28T10:51:24Z</time></trkpt><trkpt lat="44.76278204985922" lon="9.300225870941151"><ele>863.0</ele><time>2026-03-28T10:51:25Z</time></trkpt><trkpt lat="44.76273123728527" lon="9.300115756850746"><ele>863.0</ele><time>2026-03-28T10:51:26Z</time></trkpt><trkpt lat="44.762649702543676" lon="9.300006425284908"><ele>863.0</ele><time>2026-03-28T10:51:27Z</time></trkpt><trkpt lat="44.76256444183676" lon="9.299924783639758"><ele>863.0</ele><time>2026-03-28T10:51:28Z</time></trkpt><trkpt lat="44.76250695796454" lon="9.299864030839506"><ele>863.0</ele><time>2026-03-28T10:51:29Z</time></trkpt><trkpt lat="44.762413035806084" lon="9.299865215805324"><ele>862.2</ele><time>2026-03-28T10:51:31Z</time></trkpt><trkpt lat="44.76237314759367" lon="9.299938458654006"><ele>861.4</ele><time>2026-03-28T10:51:32Z</time></trkpt><trkpt lat="44.762375487775124" lon="9.300045195960074"><ele>860.6000000000001</ele><time>2026-03-28T10:51:33Z</time></trkpt><trkpt lat="44.76236478442047" lon="9.300210424706522"><ele>859.8000000000001</ele><time>2026-03-28T10:51:34Z</time></trkpt><trkpt lat="44.762338586339695" lon="9.30038418323143"><ele>859.0</ele><time>2026-03-28T10:51:35Z</time></trkpt><trkpt lat="44.76229458712558" lon="9.300525436602198"><ele>856.6</ele><time>2026-03-28T10:51:36Z</time></trkpt><trkpt lat="44.76223624858912" lon="9.300695136358362"><ele>854.2</ele><time>2026-03-28T10:51:37Z</time></trkpt><trkpt lat="44.76220539894737" lon="9.300839222234137"><ele>851.8000000000001</ele><time>2026-03-28T10:51:38Z</time></trkpt><trkpt lat="44.76215995183631" lon="9.30096341378778"><ele>849.4000000000001</ele><time>2026-03-28T10:51:39Z</time></trkpt><trkpt lat="44.76211639007737" lon="9.301064630831155"><ele>847.0</ele><time>2026-03-28T10:51:40Z</time></trkpt><trkpt lat="44.7620640708888" lon="9.301152418925492"><ele>846.9999999999999</ele><time>2026-03-28T10:51:41Z</time></trkpt><trkpt lat="44.762009345290565" lon="9.301245305937472"><ele>847.0</ele><time>2026-03-28T10:51:42Z</time></trkpt><trkpt lat="44.76194090736881" lon="9.301344808328682"><ele>847.0</ele><time>2026-03-28T10:51:43Z</time></trkpt><trkpt lat="44.76187117442927" lon="9.301421429258086"><ele>847.0</ele><time>2026-03-28T10:51:45Z</time></trkpt><trkpt lat="44.76178150327442" lon="9.301456286223706"><ele>846.9999999999999</ele><time>2026-03-28T10:51:47Z</time></trkpt><trkpt lat="44.761716259976225" lon="9.301476928049828"><ele>847.0</ele><time>2026-03-28T10:51:48Z</time></trkpt><trkpt lat="44.76164352011429" lon="9.30148867991339"><ele>846.3333333333333</ele><time>2026-03-28T10:51:49Z</time></trkpt><trkpt lat="44.76156004067043" lon="9.301509082806806"><ele>845.6666666666666</ele><time>2026-03-28T10:51:50Z</time></trkpt><trkpt lat="44.7614893775549" lon="9.301536440667158"><ele>845.0</ele><time>2026-03-28T10:51:51Z</time></trkpt><trkpt lat="44.76142549716433" lon="9.30157006786729"><ele>844.3333333333333</ele><time>2026-03-28T10:51:52Z</time></trkpt><trkpt lat="44.7613468199057" lon="9.30159305972755"><ele>843.6666666666666</ele><time>2026-03-28T10:51:52.999Z</time></trkpt><trkpt lat="44.761264491480965" lon="9.301610750235428"><ele>843.0</ele><time>2026-03-28T10:51:53.999Z</time></trkpt><trkpt lat="44.76115388167854" lon="9.301612773614732"><ele>843.0</ele><time>2026-03-28T10:51:54.999Z</time></trkpt><trkpt lat="44.76104032029676" lon="9.301611167072181"><ele>843.0</ele><time>2026-03-28T10:51:55.999Z</time></trkpt><trkpt lat="44.76093672435332" lon="9.301610457294515"><ele>843.0</ele><time>2026-03-28T10:51:56.999Z</time></trkpt><trkpt lat="44.760868570804426" lon="9.301634428532688"><ele>843.0</ele><time>2026-03-28T10:51:57.999Z</time></trkpt><trkpt lat="44.76080821693609" lon="9.301732002773523"><ele>843.0</ele><time>2026-03-28T10:51:58.999Z</time></trkpt><trkpt lat="44.76076208868331" lon="9.30182740162195"><ele>843.2</ele><time>2026-03-28T10:51:59.999Z</time></trkpt><trkpt lat="44.760679742364495" lon="9.301900431559769"><ele>843.4</ele><time>2026-03-28T10:52:00.999Z</time></trkpt><trkpt lat="44.7605935529729" lon="9.301973754245017"><ele>843.6</ele><time>2026-03-28T10:52:01.999Z</time></trkpt><trkpt lat="44.76051047984494" lon="9.302044934116216"><ele>843.8000000000001</ele><time>2026-03-28T10:52:02.999Z</time></trkpt><trkpt lat="44.760440419727594" lon="9.302175697200493"><ele>844.0</ele><time>2026-03-28T10:52:04.999Z</time></trkpt><trkpt lat="44.7604015248091" lon="9.302322610867641"><ele>843.9999999999999</ele><time>2026-03-28T10:52:05.999Z</time></trkpt><trkpt lat="44.76035016649594" lon="9.302454865234466"><ele>844.0</ele><time>2026-03-28T10:52:06.999Z</time></trkpt><trkpt lat="44.76034492485135" lon="9.30257037521949"><ele>844.0</ele><time>2026-03-28T10:52:07.999Z</time></trkpt><trkpt lat="44.760327888768714" lon="9.302665193588197"><ele>844.0</ele><time>2026-03-28T10:52:09.999Z</time></trkpt><trkpt lat="44.76024923838026" lon="9.302669616112004"><ele>843.9999999999999</ele><time>2026-03-28T10:52:10.999Z</time></trkpt><trkpt lat="44.760145397349696" lon="9.30268950494575"><ele>844.0</ele><time>2026-03-28T10:52:11.999Z</time></trkpt><trkpt lat="44.76007673564353" lon="9.302707287201143"><ele>843.9999999999999</ele><time>2026-03-28T10:52:12.999Z</time></trkpt><trkpt lat="44.760020082520434" lon="9.302768476621608"><ele>844.0</ele><time>2026-03-28T10:52:13.999Z</time></trkpt><trkpt lat="44.75995606750147" lon="9.302865727407166"><ele>844.0</ele><time>2026-03-28T10:52:14.999Z</time></trkpt><trkpt lat="44.759883683461375" lon="9.302956408474433"><ele>844.0</ele><time>2026-03-28T10:52:15.999Z</time></trkpt><trkpt lat="44.75983034787074" lon="9.30305401830228"><ele>843.9999999999999</ele><time>2026-03-28T10:52:16.999Z</time></trkpt><trkpt lat="44.75976946894015" lon="9.30312420169795"><ele>844.0</ele><time>2026-03-28T10:52:17.999Z</time></trkpt><trkpt lat="44.75968495062072" lon="9.303220660458337"><ele>844.0</ele><time>2026-03-28T10:52:18.999Z</time></trkpt><trkpt lat="44.75960878619347" lon="9.3033291956094"><ele>844.0</ele><time>2026-03-28T10:52:19.999Z</time></trkpt><trkpt lat="44.75955765604299" lon="9.303382387340308"><ele>844.0</ele><time>2026-03-28T10:52:20.999Z</time></trkpt><trkpt lat="44.75949224113181" lon="9.303383441161074"><ele>844.0</ele><time>2026-03-28T10:52:21.999Z</time></trkpt><trkpt lat="44.759393695264976" lon="9.30338126247338"><ele>844.0</ele><time>2026-03-28T10:52:22.999Z</time></trkpt><trkpt lat="44.7592720811349" lon="9.303397313946705"><ele>847.6</ele><time>2026-03-28T10:52:23.999Z</time></trkpt><trkpt lat="44.759192116115024" lon="9.303435433448652"><ele>851.2</ele><time>2026-03-28T10:52:24.999Z</time></trkpt><trkpt lat="44.75908924168346" lon="9.303471279958092"><ele>854.8000000000001</ele><time>2026-03-28T10:52:25.999Z</time></trkpt><trkpt lat="44.75898359633846" lon="9.303491669365755"><ele>858.4000000000001</ele><time>2026-03-28T10:52:26.999Z</time></trkpt><trkpt lat="44.75889726304664" lon="9.303529786385543"><ele>862.0</ele><time>2026-03-28T10:52:27.999Z</time></trkpt><trkpt lat="44.758838152277185" lon="9.303621297389181"><ele>862.0</ele><time>2026-03-28T10:52:28.999Z</time></trkpt><trkpt lat="44.75877667684109" lon="9.303711228764907"><ele>862.0</ele><time>2026-03-28T10:52:29.999Z</time></trkpt><trkpt lat="44.75871509178332" lon="9.30380280321966"><ele>862.0</ele><time>2026-03-28T10:52:30.999Z</time></trkpt><trkpt lat="44.758666931273304" lon="9.303934294637457"><ele>862.0</ele><time>2026-03-28T10:52:31.999Z</time></trkpt><trkpt lat="44.75863894524893" lon="9.304106984860102"><ele>862.0</ele><time>2026-03-28T10:52:32.999Z</time></trkpt><trkpt lat="44.758611080701684" lon="9.3042643956599"><ele>862.6666666666666</ele><time>2026-03-28T10:52:33.999Z</time></trkpt><trkpt lat="44.75837615735935" lon="9.304405957179195"><ele>863.3333333333333</ele><time>2026-03-28T10:52:34.999Z</time></trkpt><trkpt lat="44.75830456111007" lon="9.30457140963168"><ele>864.0</ele><time>2026-03-28T10:52:35.999Z</time></trkpt><trkpt lat="44.758229796945976" lon="9.30470436406931"><ele>861.6666666666666</ele><time>2026-03-28T10:52:36.999Z</time></trkpt><trkpt lat="44.7581767229039" lon="9.304797919578357"><ele>859.3333333333333</ele><time>2026-03-28T10:52:37.999Z</time></trkpt><trkpt lat="44.75813448488806" lon="9.304882059633021"><ele>857.0</ele><time>2026-03-28T10:52:38.999Z</time></trkpt><trkpt lat="44.75807200302073" lon="9.304941196119929"><ele>854.6666666666666</ele><time>2026-03-28T10:52:39.999Z</time></trkpt><trkpt lat="44.75800368112302" lon="9.305009895114532"><ele>852.3333333333333</ele><time>2026-03-28T10:52:40.999Z</time></trkpt><trkpt lat="44.75792654587648" lon="9.305045118583381"><ele>850.0</ele><time>2026-03-28T10:52:41.999Z</time></trkpt><trkpt lat="44.757842306247554" lon="9.305058718526"><ele>850.0</ele><time>2026-03-28T10:52:42.998Z</time></trkpt><trkpt lat="44.7577683272157" lon="9.305046043534952"><ele>850.0</ele><time>2026-03-28T10:52:43.998Z</time></trkpt><trkpt lat="44.75766087603653" lon="9.305038522334797"><ele>850.0</ele><time>2026-03-28T10:52:44.998Z</time></trkpt><trkpt lat="44.757549031099835" lon="9.305029130135251"><ele>850.0</ele><time>2026-03-28T10:52:45.998Z</time></trkpt><trkpt lat="44.75745052074108" lon="9.305010700190218"><ele>850.0</ele><time>2026-03-28T10:52:46.998Z</time></trkpt><trkpt lat="44.75737275572663" lon="9.305020344474643"><ele>853.2</ele><time>2026-03-28T10:52:47.998Z</time></trkpt><trkpt lat="44.75727733023784" lon="9.305023751731415"><ele>856.4</ele><time>2026-03-28T10:52:49.998Z</time></trkpt><trkpt lat="44.757144993042694" lon="9.305052471030297"><ele>859.5999999999999</ele><time>2026-03-28T10:52:51.998Z</time></trkpt><trkpt lat="44.75706050461741" lon="9.305054644485267"><ele>862.8</ele><time>2026-03-28T10:52:52.998Z</time></trkpt><trkpt lat="44.75696621862422" lon="9.305075444638906"><ele>866.0</ele><time>2026-03-28T10:52:54.998Z</time></trkpt><trkpt lat="44.75691860920268" lon="9.305190922469889"><ele>869.0000000000001</ele><time>2026-03-28T10:52:56.998Z</time></trkpt><trkpt lat="44.756842138158056" lon="9.305301723705591"><ele>872.0</ele><time>2026-03-28T10:52:58.998Z</time></trkpt><trkpt lat="44.756758556627695" lon="9.305347292799809"><ele>875.0</ele><time>2026-03-28T10:52:59.998Z</time></trkpt><trkpt lat="44.7566739018295" lon="9.305397605725156"><ele>878.0</ele><time>2026-03-28T10:53:00.998Z</time></trkpt><trkpt lat="44.75659935130135" lon="9.3054158663334"><ele>881.0000000000001</ele><time>2026-03-28T10:53:01.998Z</time></trkpt><trkpt lat="44.75652318230826" lon="9.30542674955171"><ele>884.0</ele><time>2026-03-28T10:53:02.998Z</time></trkpt><trkpt lat="44.75646634974459" lon="9.305468444662521"><ele>884.0000000000001</ele><time>2026-03-28T10:53:03.998Z</time></trkpt><trkpt lat="44.75641170253284" lon="9.305536096944854"><ele>884.0</ele><time>2026-03-28T10:53:04.998Z</time></trkpt><trkpt lat="44.7563486893846" lon="9.305636563249625"><ele>884.0</ele><time>2026-03-28T10:53:06.998Z</time></trkpt><trkpt lat="44.756308407202674" lon="9.305717491620905"><ele>884.0</ele><time>2026-03-28T10:53:08.998Z</time></trkpt><trkpt lat="44.756315228644084" lon="9.305825443343895"><ele>884.0000000000001</ele><time>2026-03-28T10:53:10.998Z</time></trkpt><trkpt lat="44.75631751812857" lon="9.305969439183684"><ele>884.0</ele><time>2026-03-28T10:53:12.998Z</time></trkpt><trkpt lat="44.75629942859069" lon="9.306081610462941"><ele>883.5000000000001</ele><time>2026-03-28T10:53:13.998Z</time></trkpt><trkpt lat="44.75627144171943" lon="9.306200362161297"><ele>883.0</ele><time>2026-03-28T10:53:14.998Z</time></trkpt><trkpt lat="44.756237117386824" lon="9.306295460914578"><ele>882.5</ele><time>2026-03-28T10:53:15.998Z</time></trkpt><trkpt lat="44.75620989470051" lon="9.306403884211282"><ele>882.0</ele><time>2026-03-28T10:53:16.998Z</time></trkpt><trkpt lat="44.75619992075222" lon="9.306505507751773"><ele>881.5000000000001</ele><time>2026-03-28T10:53:17.998Z</time></trkpt><trkpt lat="44.75620861286177" lon="9.306612930395971"><ele>881.0</ele><time>2026-03-28T10:53:18.998Z</time></trkpt><trkpt lat="44.75624111676988" lon="9.30674634885274"><ele>882.3333333333334</ele><time>2026-03-28T10:53:19.998Z</time></trkpt><trkpt lat="44.756269881104" lon="9.30687755239561"><ele>883.6666666666667</ele><time>2026-03-28T10:53:20.998Z</time></trkpt><trkpt lat="44.75628468887874" lon="9.306992534146486"><ele>885.0</ele><time>2026-03-28T10:53:21.998Z</time></trkpt><trkpt lat="44.756297799796464" lon="9.30708754730111"><ele>886.3333333333333</ele><time>2026-03-28T10:53:22.998Z</time></trkpt><trkpt lat="44.75630212671351" lon="9.307231276045043"><ele>887.6666666666666</ele><time>2026-03-28T10:53:24.998Z</time></trkpt><trkpt lat="44.75630381695758" lon="9.30735371668923"><ele>889.0</ele><time>2026-03-28T10:53:25.998Z</time></trkpt><trkpt lat="44.7563079604749" lon="9.307517328924936"><ele>890.6666666666666</ele><time>2026-03-28T10:53:26.998Z</time></trkpt><trkpt lat="44.756325790201366" lon="9.307627401367204"><ele>892.3333333333333</ele><time>2026-03-28T10:53:27.998Z</time></trkpt><trkpt lat="44.756366845400166" lon="9.307707278060143"><ele>894.0</ele><time>2026-03-28T10:53:29Z</time></trkpt><trkpt lat="44.756426868927285" lon="9.307815705776793"><ele>895.6666666666667</ele><time>2026-03-28T10:53:30Z</time></trkpt><trkpt lat="44.75647628433439" lon="9.307911957932992"><ele>897.3333333333334</ele><time>2026-03-28T10:53:31Z</time></trkpt><trkpt lat="44.75652492714645" lon="9.308000741766135"><ele>899.0</ele><time>2026-03-28T10:53:32Z</time></trkpt><trkpt lat="44.75660504295258" lon="9.308019110226661"><ele>901.3333333333334</ele><time>2026-03-28T10:53:33Z</time></trkpt><trkpt lat="44.75667557516779" lon="9.30811491185055"><ele>903.6666666666667</ele><time>2026-03-28T10:53:34Z</time></trkpt><trkpt lat="44.75674931408236" lon="9.308210094686387"><ele>906.0</ele><time>2026-03-28T10:53:35Z</time></trkpt><trkpt lat="44.75681711623012" lon="9.308294233525732"><ele>908.3333333333333</ele><time>2026-03-28T10:53:36Z</time></trkpt><trkpt lat="44.75686056478773" lon="9.308360448656726"><ele>910.6666666666666</ele><time>2026-03-28T10:53:37Z</time></trkpt><trkpt lat="44.7568961097587" lon="9.3084407982765"><ele>913.0</ele><time>2026-03-28T10:53:38Z</time></trkpt><trkpt lat="44.75692593126246" lon="9.308521890815369"><ele>906.8333333333333</ele><time>2026-03-28T10:53:39Z</time></trkpt><trkpt lat="44.75692757706009" lon="9.30863388058067"><ele>900.6666666666666</ele><time>2026-03-28T10:53:40Z</time></trkpt><trkpt lat="44.75693452909572" lon="9.308763918409516"><ele>894.5</ele><time>2026-03-28T10:53:41Z</time></trkpt><trkpt lat="44.75696157466083" lon="9.308873995483042"><ele>888.3333333333333</ele><time>2026-03-28T10:53:42Z</time></trkpt><trkpt lat="44.75697089392356" lon="9.308972079548456"><ele>882.1666666666666</ele><time>2026-03-28T10:53:43Z</time></trkpt><trkpt lat="44.75702633912234" lon="9.309118920674297"><ele>876.0</ele><time>2026-03-28T10:53:45Z</time></trkpt><trkpt lat="44.757100023327354" lon="9.309254741012927"><ele>876.0</ele><time>2026-03-28T10:53:47Z</time></trkpt><trkpt lat="44.75710420948622" lon="9.30940335537278"><ele>875.9999999999999</ele><time>2026-03-28T10:53:49Z</time></trkpt><trkpt lat="44.75711269756739" lon="9.309584738828018"><ele>875.9999999999999</ele><time>2026-03-28T10:53:51Z</time></trkpt><trkpt lat="44.7571302032932" lon="9.309699967450861"><ele>876.0</ele><time>2026-03-28T10:53:52Z</time></trkpt><trkpt lat="44.757136123370096" lon="9.30980793755567"><ele>876.0</ele><time>2026-03-28T10:53:53Z</time></trkpt><trkpt lat="44.75715844534982" lon="9.309920189150816"><ele>877.1999999999999</ele><time>2026-03-28T10:53:53.999Z</time></trkpt><trkpt lat="44.7572093534582" lon="9.310018566448235"><ele>878.3999999999999</ele><time>2026-03-28T10:53:54.999Z</time></trkpt><trkpt lat="44.75725328433729" lon="9.310161443860999"><ele>879.6</ele><time>2026-03-28T10:53:55.999Z</time></trkpt><trkpt lat="44.75728163540994" lon="9.31029234953291"><ele>880.8</ele><time>2026-03-28T10:53:56.999Z</time></trkpt><trkpt lat="44.757296088172005" lon="9.310404243195743"><ele>882.0</ele><time>2026-03-28T10:53:57.999Z</time></trkpt><trkpt lat="44.75728289875377" lon="9.310533229278732"><ele>885.6</ele><time>2026-03-28T10:53:58.999Z</time></trkpt><trkpt lat="44.757309924808055" lon="9.310684342109225"><ele>889.2</ele><time>2026-03-28T10:53:59.999Z</time></trkpt><trkpt lat="44.75734249639812" lon="9.310820737759425"><ele>892.8</ele><time>2026-03-28T10:54:00.999Z</time></trkpt><trkpt lat="44.75738685736463" lon="9.310971461174042"><ele>896.4</ele><time>2026-03-28T10:54:01.999Z</time></trkpt><trkpt lat="44.75744067308344" lon="9.311122351278371"><ele>900.0</ele><time>2026-03-28T10:54:02.999Z</time></trkpt><trkpt lat="44.75748051505695" lon="9.311254802197505"><ele>900.0</ele><time>2026-03-28T10:54:03.999Z</time></trkpt><trkpt lat="44.75752565983883" lon="9.311375322949676"><ele>900.0</ele><time>2026-03-28T10:54:04.999Z</time></trkpt><trkpt lat="44.75757097489423" lon="9.311494238259298"><ele>900.0</ele><time>2026-03-28T10:54:05.999Z</time></trkpt><trkpt lat="44.75761095842061" lon="9.3116042946486"><ele>900.0</ele><time>2026-03-28T10:54:06.999Z</time></trkpt><trkpt lat="44.75765727699345" lon="9.311741942916923"><ele>900.0</ele><time>2026-03-28T10:54:07.999Z</time></trkpt><trkpt lat="44.7577025736374" lon="9.3118824679801"><ele>899.5</ele><time>2026-03-28T10:54:08.999Z</time></trkpt><trkpt lat="44.75775278459909" lon="9.311996082861336"><ele>899.0</ele><time>2026-03-28T10:54:09.999Z</time></trkpt><trkpt lat="44.75781406517127" lon="9.312069493689403"><ele>898.5</ele><time>2026-03-28T10:54:10.999Z</time></trkpt><trkpt lat="44.75787980565022" lon="9.312118664199067"><ele>898.0</ele><time>2026-03-28T10:54:11.999Z</time></trkpt><trkpt lat="44.75795181544295" lon="9.312108738401564"><ele>897.5</ele><time>2026-03-28T10:54:12.999Z</time></trkpt><trkpt lat="44.758040338049625" lon="9.312097165118441"><ele>897.0</ele><time>2026-03-28T10:54:13.999Z</time></trkpt><trkpt lat="44.7581250149325" lon="9.312098804966507"><ele>897.0</ele><time>2026-03-28T10:54:14.999Z</time></trkpt><trkpt lat="44.758197105443486" lon="9.312140256590409"><ele>897.0</ele><time>2026-03-28T10:54:15.999Z</time></trkpt><trkpt lat="44.75824388619228" lon="9.31228552667325"><ele>897.0</ele><time>2026-03-28T10:54:17.999Z</time></trkpt><trkpt lat="44.75828081126243" lon="9.312413331145354"><ele>897.0</ele><time>2026-03-28T10:54:18.999Z</time></trkpt><trkpt lat="44.7583340323364" lon="9.312559696842737"><ele>897.0</ele><time>2026-03-28T10:54:19.999Z</time></trkpt><trkpt lat="44.758366675777886" lon="9.312708346025618"><ele>898.6666666666666</ele><time>2026-03-28T10:54:20.999Z</time></trkpt><trkpt lat="44.758382894508934" lon="9.312807196935326"><ele>900.3333333333333</ele><time>2026-03-28T10:54:21.999Z</time></trkpt><trkpt lat="44.75834824595309" lon="9.312974564720768"><ele>902.0</ele><time>2026-03-28T10:54:23.999Z</time></trkpt><trkpt lat="44.75835406202603" lon="9.31308466589803"><ele>903.6666666666666</ele><time>2026-03-28T10:54:24.999Z</time></trkpt><trkpt lat="44.75834226802522" lon="9.313175171293835"><ele>905.3333333333333</ele><time>2026-03-28T10:54:25.999Z</time></trkpt><trkpt lat="44.75837475180122" lon="9.313255131405427"><ele>907.0</ele><time>2026-03-28T10:54:26.999Z</time></trkpt><trkpt lat="44.75841781285136" lon="9.313324980814368"><ele>907.8</ele><time>2026-03-28T10:54:27.999Z</time></trkpt><trkpt lat="44.75847176438214" lon="9.313401038494773"><ele>908.6</ele><time>2026-03-28T10:54:28.999Z</time></trkpt><trkpt lat="44.758512164321054" lon="9.313498933474913"><ele>909.3999999999999</ele><time>2026-03-28T10:54:29.999Z</time></trkpt><trkpt lat="44.75857529372426" lon="9.313622019708314"><ele>910.1999999999999</ele><time>2026-03-28T10:54:30.999Z</time></trkpt><trkpt lat="44.75864779485292" lon="9.313722642392275"><ele>911.0</ele><time>2026-03-28T10:54:31.999Z</time></trkpt><trkpt lat="44.75873094896314" lon="9.313786743133866"><ele>911.0</ele><time>2026-03-28T10:54:32.999Z</time></trkpt><trkpt lat="44.758728902412315" lon="9.31392693281275"><ele>910.9999999999999</ele><time>2026-03-28T10:54:33.999Z</time></trkpt><trkpt lat="44.75861481986822" lon="9.313873845074903"><ele>910.9999999999999</ele><time>2026-03-28T10:54:51.998Z</time></trkpt><trkpt lat="44.75851815051313" lon="9.313817438402284"><ele>911.0</ele><time>2026-03-28T10:54:53.998Z</time></trkpt><trkpt lat="44.758431714675076" lon="9.313760945259476"><ele>911.0</ele><time>2026-03-28T10:54:55.998Z</time></trkpt><trkpt lat="44.75835505317272" lon="9.313675859484011"><ele>911.0000000000001</ele><time>2026-03-28T10:54:57.998Z</time></trkpt><trkpt lat="44.75830021662231" lon="9.313632119267679"><ele>911.0</ele><time>2026-03-28T10:54:58.998Z</time></trkpt><trkpt lat="44.75823692770005" lon="9.31356688512382"><ele>911.0</ele><time>2026-03-28T10:54:59.998Z</time></trkpt><trkpt lat="44.75817321939673" lon="9.313480312034212"><ele>911.0</ele><time>2026-03-28T10:55:00.998Z</time></trkpt><trkpt lat="44.75810515320633" lon="9.313391609810491"><ele>911.0000000000001</ele><time>2026-03-28T10:55:01.998Z</time></trkpt><trkpt lat="44.758047959859795" lon="9.313316531010672"><ele>911.0</ele><time>2026-03-28T10:55:02.998Z</time></trkpt><trkpt lat="44.757999104757346" lon="9.313257258025354"><ele>911.0000000000001</ele><time>2026-03-28T10:55:03.998Z</time></trkpt><trkpt lat="44.757936986410556" lon="9.313226676293837"><ele>911.0</ele><time>2026-03-28T10:55:04.998Z</time></trkpt><trkpt lat="44.75783635196081" lon="9.313203883398765"><ele>911.0</ele><time>2026-03-28T10:55:06.998Z</time></trkpt><trkpt lat="44.75776659749253" lon="9.313137571994936"><ele>911.0</ele><time>2026-03-28T10:55:08.998Z</time></trkpt><trkpt lat="44.75766352474352" lon="9.313104757381899"><ele>911.0000000000001</ele><time>2026-03-28T10:55:10.998Z</time></trkpt><trkpt lat="44.75758039049471" lon="9.31308473710801"><ele>911.0</ele><time>2026-03-28T10:55:11.998Z</time></trkpt><trkpt lat="44.75748016387909" lon="9.313073906689436"><ele>913.0</ele><time>2026-03-28T10:55:12.998Z</time></trkpt><trkpt lat="44.75739479720417" lon="9.313088856077558"><ele>914.9999999999999</ele><time>2026-03-28T10:55:13.998Z</time></trkpt><trkpt lat="44.757308839905434" lon="9.313099522639126"><ele>916.9999999999999</ele><time>2026-03-28T10:55:14.998Z</time></trkpt><trkpt lat="44.75721093955372" lon="9.313077516982876"><ele>919.0</ele><time>2026-03-28T10:55:15.998Z</time></trkpt><trkpt lat="44.7571082596325" lon="9.313042898106529"><ele>921.0</ele><time>2026-03-28T10:55:16.998Z</time></trkpt><trkpt lat="44.75701119949229" lon="9.313029059100787"><ele>922.1666666666666</ele><time>2026-03-28T10:55:17.998Z</time></trkpt><trkpt lat="44.75693739303262" lon="9.31301875014187"><ele>923.3333333333333</ele><time>2026-03-28T10:55:18.998Z</time></trkpt><trkpt lat="44.75686731910744" lon="9.313031030587817"><ele>924.5</ele><time>2026-03-28T10:55:19.998Z</time></trkpt><trkpt lat="44.756787726639146" lon="9.313017780674027"><ele>925.6666666666666</ele><time>2026-03-28T10:55:20.998Z</time></trkpt><trkpt lat="44.7567014239321" lon="9.31302357909714"><ele>926.8333333333333</ele><time>2026-03-28T10:55:21.998Z</time></trkpt><trkpt lat="44.756620313431306" lon="9.313049606825723"><ele>928.0</ele><time>2026-03-28T10:55:22.998Z</time></trkpt><trkpt lat="44.75654814129311" lon="9.313057218357683"><ele>927.2</ele><time>2026-03-28T10:55:23.998Z</time></trkpt><trkpt lat="44.75645498923268" lon="9.313166601637207"><ele>926.4</ele><time>2026-03-28T10:55:25.998Z</time></trkpt><trkpt lat="44.75643456678193" lon="9.313267045726855"><ele>925.6000000000001</ele><time>2026-03-28T10:55:26.998Z</time></trkpt><trkpt lat="44.756411301683706" lon="9.313405263924356"><ele>924.8000000000001</ele><time>2026-03-28T10:55:27.998Z</time></trkpt><trkpt lat="44.75635096438472" lon="9.313547234702511"><ele>924.0</ele><time>2026-03-28T10:55:29.998Z</time></trkpt><trkpt lat="44.7562839918827" lon="9.313607533219653"><ele>924.0</ele><time>2026-03-28T10:55:30.998Z</time></trkpt><trkpt lat="44.75621703080638" lon="9.313677353944094"><ele>924.0</ele><time>2026-03-28T10:55:31.998Z</time></trkpt><trkpt lat="44.756104348806495" lon="9.313716034914952"><ele>924.0</ele><time>2026-03-28T10:55:32.998Z</time></trkpt><trkpt lat="44.75602531824255" lon="9.31374903701848"><ele>924.0</ele><time>2026-03-28T10:55:34Z</time></trkpt><trkpt lat="44.75596386828077" lon="9.313841575156276"><ele>924.0</ele><time>2026-03-28T10:55:35Z</time></trkpt><trkpt lat="44.75593479519048" lon="9.313942048716802"><ele>924.0</ele><time>2026-03-28T10:55:36Z</time></trkpt><trkpt lat="44.755869162702716" lon="9.314044528203217"><ele>922.6</ele><time>2026-03-28T10:55:37Z</time></trkpt><trkpt lat="44.755798294646894" lon="9.314153436487803"><ele>921.2</ele><time>2026-03-28T10:55:38Z</time></trkpt><trkpt lat="44.75574359027281" lon="9.314238095076494"><ele>919.8000000000001</ele><time>2026-03-28T10:55:39Z</time></trkpt><trkpt lat="44.7556284109626" lon="9.314374281833162"><ele>918.4000000000001</ele><time>2026-03-28T10:55:40Z</time></trkpt><trkpt lat="44.75557096213686" lon="9.314481936680776"><ele>917.0</ele><time>2026-03-28T10:55:41Z</time></trkpt><trkpt lat="44.75554299573493" lon="9.314565358438843"><ele>917.0000000000001</ele><time>2026-03-28T10:55:42Z</time></trkpt><trkpt lat="44.75549318606655" lon="9.314630749394768"><ele>917.0</ele><time>2026-03-28T10:55:43Z</time></trkpt><trkpt lat="44.7554301578274" lon="9.314684855212537"><ele>917.0</ele><time>2026-03-28T10:55:45Z</time></trkpt><trkpt lat="44.75536424799251" lon="9.314630459664034"><ele>917.0</ele><time>2026-03-28T10:55:47Z</time></trkpt><trkpt lat="44.75532070641231" lon="9.31455263148389"><ele>917.0000000000001</ele><time>2026-03-28T10:55:48Z</time></trkpt><trkpt lat="44.75524034897642" lon="9.314478271359437"><ele>917.0</ele><time>2026-03-28T10:55:49Z</time></trkpt><trkpt lat="44.755122099263836" lon="9.314408952791242"><ele>915.2</ele><time>2026-03-28T10:55:50Z</time></trkpt><trkpt lat="44.75503914277119" lon="9.314346899843436"><ele>913.4000000000001</ele><time>2026-03-28T10:55:51Z</time></trkpt><trkpt lat="44.75497260068524" lon="9.314289161967906"><ele>911.5999999999999</ele><time>2026-03-28T10:55:52Z</time></trkpt><trkpt lat="44.75493558494044" lon="9.314181599409254"><ele>909.8</ele><time>2026-03-28T10:55:53Z</time></trkpt><trkpt lat="44.75489499787084" lon="9.31407151184524"><ele>908.0</ele><time>2026-03-28T10:55:54Z</time></trkpt><trkpt lat="44.75484661245593" lon="9.313835223358227"><ele>911.8333333333334</ele><time>2026-03-28T10:55:55Z</time></trkpt><trkpt lat="44.75479317338833" lon="9.313749879379857"><ele>915.6666666666667</ele><time>2026-03-28T10:55:55.999Z</time></trkpt><trkpt lat="44.754749398204545" lon="9.313663675711346"><ele>919.5</ele><time>2026-03-28T10:55:56.999Z</time></trkpt><trkpt lat="44.75468989238029" lon="9.313568988660569"><ele>923.3333333333333</ele><time>2026-03-28T10:55:57.999Z</time></trkpt><trkpt lat="44.754647768187105" lon="9.313458317834675"><ele>927.1666666666666</ele><time>2026-03-28T10:55:58.999Z</time></trkpt><trkpt lat="44.75459790615366" lon="9.31334052817126"><ele>931.0</ele><time>2026-03-28T10:55:59.999Z</time></trkpt><trkpt lat="44.75455294137163" lon="9.313236297825672"><ele>931.0</ele><time>2026-03-28T10:56:00.999Z</time></trkpt><trkpt lat="44.754498645867734" lon="9.313116669906686"><ele>930.9999999999999</ele><time>2026-03-28T10:56:01.999Z</time></trkpt><trkpt lat="44.754441676447975" lon="9.313031646544118"><ele>930.9999999999999</ele><time>2026-03-28T10:56:02.999Z</time></trkpt><trkpt lat="44.754407481676" lon="9.31295570486756"><ele>931.0</ele><time>2026-03-28T10:56:03.999Z</time></trkpt><trkpt lat="44.75429595960387" lon="9.312953504863705"><ele>931.0</ele><time>2026-03-28T10:56:06.999Z</time></trkpt><trkpt lat="44.754216319196686" lon="9.313025145800959"><ele>933.5999999999999</ele><time>2026-03-28T10:56:08.999Z</time></trkpt><trkpt lat="44.754148325679864" lon="9.312986670769199"><ele>936.1999999999999</ele><time>2026-03-28T10:56:09.999Z</time></trkpt><trkpt lat="44.754064641311224" lon="9.312930210481563"><ele>938.8000000000001</ele><time>2026-03-28T10:56:10.999Z</time></trkpt><trkpt lat="44.75398487481297" lon="9.312905425267601"><ele>941.4000000000001</ele><time>2026-03-28T10:56:11.999Z</time></trkpt><trkpt lat="44.75388692195089" lon="9.312946457062539"><ele>944.0</ele><time>2026-03-28T10:56:12.999Z</time></trkpt><trkpt lat="44.753774652866085" lon="9.313007481856168"><ele>944.0000000000001</ele><time>2026-03-28T10:56:13.999Z</time></trkpt><trkpt lat="44.753688867370144" lon="9.313040384397853"><ele>944.0</ele><time>2026-03-28T10:56:14.999Z</time></trkpt><trkpt lat="44.75361707066276" lon="9.313066674357186"><ele>944.0</ele><time>2026-03-28T10:56:15.999Z</time></trkpt><trkpt lat="44.75355523390962" lon="9.313098672759917"><ele>944.0</ele><time>2026-03-28T10:56:16.999Z</time></trkpt><trkpt lat="44.75348680961087" lon="9.313163280259822"><ele>944.0000000000001</ele><time>2026-03-28T10:56:17.999Z</time></trkpt><trkpt lat="44.75341682985887" lon="9.313212201437661"><ele>944.0</ele><time>2026-03-28T10:56:18.999Z</time></trkpt><trkpt lat="44.75333174816725" lon="9.31328166274421"><ele>939.5000000000001</ele><time>2026-03-28T10:56:19.999Z</time></trkpt><trkpt lat="44.75327932767586" lon="9.313336527462768"><ele>935.0</ele><time>2026-03-28T10:56:20.999Z</time></trkpt><trkpt lat="44.753213497866106" lon="9.313370244792921"><ele>930.5</ele><time>2026-03-28T10:56:21.999Z</time></trkpt><trkpt lat="44.753147982535445" lon="9.313366060584542"><ele>926.0</ele><time>2026-03-28T10:56:22.999Z</time></trkpt><trkpt lat="44.75309018177552" lon="9.313323445771662"><ele>921.5000000000001</ele><time>2026-03-28T10:56:23.999Z</time></trkpt><trkpt lat="44.75300078605231" lon="9.313302598023755"><ele>917.0</ele><time>2026-03-28T10:56:24.999Z</time></trkpt><trkpt lat="44.752913285582636" lon="9.313240247343264"><ele>917.0000000000001</ele><time>2026-03-28T10:56:25.999Z</time></trkpt><trkpt lat="44.75283419043132" lon="9.31318847201122"><ele>917.0</ele><time>2026-03-28T10:56:26.999Z</time></trkpt><trkpt lat="44.75278357371576" lon="9.313118138645212"><ele>917.0</ele><time>2026-03-28T10:56:27.999Z</time></trkpt><trkpt lat="44.75269652800002" lon="9.31306711580489"><ele>917.0</ele><time>2026-03-28T10:56:28.999Z</time></trkpt><trkpt lat="44.75263280581742" lon="9.313041819627712"><ele>917.0000000000001</ele><time>2026-03-28T10:56:29.999Z</time></trkpt><trkpt lat="44.752560991585895" lon="9.31302119965847"><ele>917.0</ele><time>2026-03-28T10:56:30.999Z</time></trkpt><trkpt lat="44.752493558276285" lon="9.313081153613082"><ele>917.0</ele><time>2026-03-28T10:56:33.999Z</time></trkpt><trkpt lat="44.75243435481591" lon="9.313142293206324"><ele>917.0</ele><time>2026-03-28T10:56:35.999Z</time></trkpt><trkpt lat="44.75235593439362" lon="9.313232606862488"><ele>917.0</ele><time>2026-03-28T10:56:37.999Z</time></trkpt><trkpt lat="44.75220608340424" lon="9.313369407501357"><ele>917.0</ele><time>2026-03-28T10:56:39.999Z</time></trkpt><trkpt lat="44.75212784076534" lon="9.313426576377509"><ele>917.0</ele><time>2026-03-28T10:56:40.999Z</time></trkpt><trkpt lat="44.75203822508204" lon="9.313464509697596"><ele>917.0000000000001</ele><time>2026-03-28T10:56:41.999Z</time></trkpt><trkpt lat="44.75197011867649" lon="9.313471443081927"><ele>917.0</ele><time>2026-03-28T10:56:42.999Z</time></trkpt><trkpt lat="44.75189375470961" lon="9.313421812341833"><ele>917.0</ele><time>2026-03-28T10:56:43.999Z</time></trkpt><trkpt lat="44.75178972046233" lon="9.313367479170294"><ele>917.0</ele><time>2026-03-28T10:56:44.999Z</time></trkpt><trkpt lat="44.751716062682775" lon="9.313329572132112"><ele>917.0000000000001</ele><time>2026-03-28T10:56:45.999Z</time></trkpt><trkpt lat="44.75163328452578" lon="9.313307926092115"><ele>917.0</ele><time>2026-03-28T10:56:47.999Z</time></trkpt><trkpt lat="44.751487366134214" lon="9.31330216607301"><ele>918.0</ele><time>2026-03-28T10:56:49.998Z</time></trkpt><trkpt lat="44.75138591928752" lon="9.313306521926291"><ele>919.0</ele><time>2026-03-28T10:56:51.998Z</time></trkpt><trkpt lat="44.75134217392994" lon="9.313409831908102"><ele>920.0</ele><time>2026-03-28T10:56:54.998Z</time></trkpt><trkpt lat="44.75128374765707" lon="9.31349749185009"><ele>921.0</ele><time>2026-03-28T10:56:55.998Z</time></trkpt><trkpt lat="44.75120845851285" lon="9.313638921266929"><ele>922.0</ele><time>2026-03-28T10:56:57.998Z</time></trkpt><trkpt lat="44.7511679665881" lon="9.31371835341826"><ele>922.0</ele><time>2026-03-28T10:56:58.998Z</time></trkpt><trkpt lat="44.751132137457034" lon="9.313791786080603"><ele>922.0</ele><time>2026-03-28T10:56:59.998Z</time></trkpt><trkpt lat="44.75108831468178" lon="9.313918579541891"><ele>922.0</ele><time>2026-03-28T10:57:01.998Z</time></trkpt><trkpt lat="44.75106731308085" lon="9.314038967397945"><ele>922.0</ele><time>2026-03-28T10:57:04.998Z</time></trkpt><trkpt lat="44.75103893290644" lon="9.314177068449128"><ele>922.0</ele><time>2026-03-28T10:57:06.998Z</time></trkpt><trkpt lat="44.75102467064073" lon="9.314320330089966"><ele>921.6</ele><time>2026-03-28T10:57:08.998Z</time></trkpt><trkpt lat="44.75100302491782" lon="9.314453396216173"><ele>921.2</ele><time>2026-03-28T10:57:10.998Z</time></trkpt><trkpt lat="44.75097272018536" lon="9.314606677295352"><ele>920.8</ele><time>2026-03-28T10:57:12.998Z</time></trkpt><trkpt lat="44.750961931200365" lon="9.31472930556016"><ele>920.4</ele><time>2026-03-28T10:57:13.998Z</time></trkpt><trkpt lat="44.750938029145615" lon="9.3148686631711"><ele>920.0</ele><time>2026-03-28T10:57:14.998Z</time></trkpt><trkpt lat="44.750914220813456" lon="9.314993524112628"><ele>919.9999999999999</ele><time>2026-03-28T10:57:15.998Z</time></trkpt><trkpt lat="44.7509145826917" lon="9.31510537118481"><ele>920.0</ele><time>2026-03-28T10:57:16.998Z</time></trkpt><trkpt lat="44.75090427903349" lon="9.315211911109182"><ele>919.9999999999999</ele><time>2026-03-28T10:57:17.998Z</time></trkpt><trkpt lat="44.75089474731312" lon="9.315307735936452"><ele>919.9999999999999</ele><time>2026-03-28T10:57:18.998Z</time></trkpt><trkpt lat="44.75089571500061" lon="9.315421288407668"><ele>920.0</ele><time>2026-03-28T10:57:19.998Z</time></trkpt><trkpt lat="44.7509105058217" lon="9.31551393491314"><ele>919.9999999999999</ele><time>2026-03-28T10:57:20.998Z</time></trkpt><trkpt lat="44.75093589998394" lon="9.315608406332395"><ele>919.9999999999999</ele><time>2026-03-28T10:57:21.998Z</time></trkpt><trkpt lat="44.75097464651159" lon="9.31568370690661"><ele>920.8</ele><time>2026-03-28T10:57:22.998Z</time></trkpt><trkpt lat="44.75102410206637" lon="9.315773531706744"><ele>921.6</ele><time>2026-03-28T10:57:24.998Z</time></trkpt><trkpt lat="44.75101107587465" lon="9.315868616284511"><ele>922.4000000000001</ele><time>2026-03-28T10:57:27.998Z</time></trkpt><trkpt lat="44.75100773509943" lon="9.315962755691121"><ele>923.2</ele><time>2026-03-28T10:57:30.998Z</time></trkpt><trkpt lat="44.75106102052087" lon="9.316177813543968"><ele>924.0</ele><time>2026-03-28T10:57:31.998Z</time></trkpt><trkpt lat="44.75106515681389" lon="9.316320676615877"><ele>923.6666666666666</ele><time>2026-03-28T10:57:32.998Z</time></trkpt><trkpt lat="44.751053858555494" lon="9.316413629500873"><ele>923.3333333333333</ele><time>2026-03-28T10:57:33.998Z</time></trkpt><trkpt lat="44.75104144773222" lon="9.316534743466518"><ele>923.0</ele><time>2026-03-28T10:57:34.998Z</time></trkpt><trkpt lat="44.75102367876647" lon="9.316666196140952"><ele>922.6666666666666</ele><time>2026-03-28T10:57:35.998Z</time></trkpt><trkpt lat="44.750996866644066" lon="9.316779660690182"><ele>922.3333333333333</ele><time>2026-03-28T10:57:36.998Z</time></trkpt><trkpt lat="44.75096509046608" lon="9.316867067693037"><ele>922.0</ele><time>2026-03-28T10:57:37.998Z</time></trkpt><trkpt lat="44.75086815690414" lon="9.316922485063808"><ele>922.0</ele><time>2026-03-28T10:57:40Z</time></trkpt><trkpt lat="44.75075848979689" lon="9.31692086683273"><ele>922.0</ele><time>2026-03-28T10:57:42Z</time></trkpt><trkpt lat="44.75069776355971" lon="9.31689127204561"><ele>922.0</ele><time>2026-03-28T10:57:43Z</time></trkpt><trkpt lat="44.75056601907034" lon="9.316847778723588"><ele>922.0</ele><time>2026-03-28T10:57:45Z</time></trkpt><trkpt lat="44.75049942975947" lon="9.316836687610378"><ele>922.0</ele><time>2026-03-28T10:57:46Z</time></trkpt><trkpt lat="44.7504222093059" lon="9.316764450684445"><ele>922.0</ele><time>2026-03-28T10:57:48Z</time></trkpt><trkpt lat="44.75036123768213" lon="9.31667717442322"><ele>922.0</ele><time>2026-03-28T10:57:50Z</time></trkpt><trkpt lat="44.75027654811351" lon="9.316590183340047"><ele>922.0</ele><time>2026-03-28T10:57:52Z</time></trkpt><trkpt lat="44.75026400592076" lon="9.316301134922849"><ele>922.0</ele><time>2026-03-28T10:57:54Z</time></trkpt><trkpt lat="44.75018762959998" lon="9.316189360474306"><ele>928.6</ele><time>2026-03-28T10:58:05.999Z</time></trkpt><trkpt lat="44.750166145541776" lon="9.316099153187919"><ele>935.2</ele><time>2026-03-28T10:58:06.999Z</time></trkpt><trkpt lat="44.75011390351309" lon="9.315986508103139"><ele>941.8</ele><time>2026-03-28T10:58:08.999Z</time></trkpt><trkpt lat="44.750022744244525" lon="9.315945217409345"><ele>948.4</ele><time>2026-03-28T10:58:10.999Z</time></trkpt><trkpt lat="44.749971762289434" lon="9.315825657442325"><ele>955.0</ele><time>2026-03-28T10:58:12.999Z</time></trkpt><trkpt lat="44.749898210141446" lon="9.31573876582875"><ele>954.9999999999999</ele><time>2026-03-28T10:58:14.999Z</time></trkpt><trkpt lat="44.74979851149274" lon="9.315711000435183"><ele>955.0</ele><time>2026-03-28T10:58:16.999Z</time></trkpt><trkpt lat="44.74977586029238" lon="9.315622569774114"><ele>955.0</ele><time>2026-03-28T10:58:19.999Z</time></trkpt><trkpt lat="44.7497093584911" lon="9.31557978216572"><ele>955.0</ele><time>2026-03-28T10:58:21.999Z</time></trkpt><trkpt lat="44.74966586917331" lon="9.315477794238918"><ele>954.9999999999999</ele><time>2026-03-28T10:58:24.999Z</time></trkpt><trkpt lat="44.749599695953414" lon="9.3154631716654"><ele>955.0</ele><time>2026-03-28T10:58:28.999Z</time></trkpt><trkpt lat="44.74954102869437" lon="9.315408114366923"><ele>957.9999999999999</ele><time>2026-03-28T10:58:31.999Z</time></trkpt><trkpt lat="44.74948946170211" lon="9.315356346636358"><ele>961.0</ele><time>2026-03-28T10:58:34.999Z</time></trkpt><trkpt lat="44.74940323697278" lon="9.315296153883455"><ele>964.0</ele><time>2026-03-28T10:58:37.999Z</time></trkpt><trkpt lat="44.74933750020499" lon="9.315235360858614"><ele>967.0</ele><time>2026-03-28T10:58:40.999Z</time></trkpt><trkpt lat="44.749273780232244" lon="9.315205591843208"><ele>969.9999999999999</ele><time>2026-03-28T10:58:43.999Z</time></trkpt><trkpt lat="44.74922760118935" lon="9.31511818591576"><ele>973.0</ele><time>2026-03-28T10:58:44.999Z</time></trkpt><trkpt lat="44.74913897758414" lon="9.315098866549182"><ele>978.5999999999999</ele><time>2026-03-28T10:58:47.999Z</time></trkpt><trkpt lat="44.74903590149911" lon="9.315078871339937"><ele>984.1999999999999</ele><time>2026-03-28T10:58:57.998Z</time></trkpt><trkpt lat="44.74892915197139" lon="9.315012258023094"><ele>989.8</ele><time>2026-03-28T10:59:33.998Z</time></trkpt><trkpt lat="44.74900839904996" lon="9.314956118182268"><ele>995.4</ele><time>2026-03-28T10:59:36.998Z</time></trkpt><trkpt lat="44.74907626482136" lon="9.31492274042864"><ele>1001.0</ele><time>2026-03-28T10:59:38.998Z</time></trkpt><trkpt lat="44.74919819534865" lon="9.314851006274532"><ele>1001.0</ele><time>2026-03-28T10:59:40.998Z</time></trkpt><trkpt lat="44.74925723640815" lon="9.314761804740645"><ele>1000.9999999999999</ele><time>2026-03-28T10:59:42.998Z</time></trkpt><trkpt lat="44.7492089730836" lon="9.314675724371739"><ele>1000.9999999999999</ele><time>2026-03-28T10:59:47Z</time></trkpt><trkpt lat="44.74913944780946" lon="9.314650564151865"><ele>1001.0</ele><time>2026-03-28T10:59:49Z</time></trkpt><trkpt lat="44.749052875860244" lon="9.314601060237312"><ele>1001.0</ele><time>2026-03-28T10:59:52Z</time></trkpt><trkpt lat="44.748952029677596" lon="9.314508791092411"><ele>1002.5000000000001</ele><time>2026-03-28T10:59:54Z</time></trkpt><trkpt lat="44.74888940944554" lon="9.314446415262228"><ele>1004.0</ele><time>2026-03-28T10:59:55Z</time></trkpt><trkpt lat="44.74882785354532" lon="9.314375360120874"><ele>1005.5</ele><time>2026-03-28T10:59:56Z</time></trkpt><trkpt lat="44.74873064915035" lon="9.314332399992411"><ele>1007.0</ele><time>2026-03-28T10:59:58Z</time></trkpt><trkpt lat="44.748658684687854" lon="9.314288933428363"><ele>1008.5000000000001</ele><time>2026-03-28T11:00:19.999Z</time></trkpt><trkpt lat="44.74866244561076" lon="9.314198871929142"><ele>1010.0</ele><time>2026-03-28T11:00:50.999Z</time></trkpt><trkpt lat="44.74861537328928" lon="9.314291759808755"><ele>1014.0</ele><time>2026-03-28T11:07:23.998Z</time></trkpt><trkpt lat="44.74851895763359" lon="9.314270373896912"><ele>1018.0</ele><time>2026-03-28T11:07:25.998Z</time></trkpt><trkpt lat="44.74842034107156" lon="9.314228608037617"><ele>1022.0</ele><time>2026-03-28T11:07:28.998Z</time></trkpt><trkpt lat="44.748345832634186" lon="9.314175293519842"><ele>1026.0</ele><time>2026-03-28T11:07:30.998Z</time></trkpt><trkpt lat="44.74827226270601" lon="9.314166246919832"><ele>1030.0</ele><time>2026-03-28T11:07:32.998Z</time></trkpt><trkpt lat="44.74816719762711" lon="9.314163906293892"><ele>1030.0</ele><time>2026-03-28T11:07:34.998Z</time></trkpt><trkpt lat="44.748094637827855" lon="9.314161394926325"><ele>1030.0</ele><time>2026-03-28T11:07:35.998Z</time></trkpt><trkpt lat="44.74802164810199" lon="9.314165242155385"><ele>1030.0</ele><time>2026-03-28T11:07:36.998Z</time></trkpt><trkpt lat="44.747913940665676" lon="9.314194192000253"><ele>1030.0</ele><time>2026-03-28T11:07:38.998Z</time></trkpt><trkpt lat="44.74781410169225" lon="9.3142495858038"><ele>1030.0</ele><time>2026-03-28T11:07:40.998Z</time></trkpt><trkpt lat="44.74773104388643" lon="9.31429343999739"><ele>1030.5</ele><time>2026-03-28T11:07:42.998Z</time></trkpt><trkpt lat="44.74765642622557" lon="9.314359970429821"><ele>1031.0</ele><time>2026-03-28T11:07:44.998Z</time></trkpt><trkpt lat="44.74758806173343" lon="9.314488511002219"><ele>1031.5</ele><time>2026-03-28T11:07:46.998Z</time></trkpt><trkpt lat="44.74753463903989" lon="9.31454874412847"><ele>1032.0</ele><time>2026-03-28T11:07:47.998Z</time></trkpt><trkpt lat="44.747488299368335" lon="9.31462014095972"><ele>1032.5</ele><time>2026-03-28T11:07:48.998Z</time></trkpt><trkpt lat="44.747428677895684" lon="9.314736938244438"><ele>1033.0</ele><time>2026-03-28T11:07:50.998Z</time></trkpt><trkpt lat="44.747289404137156" lon="9.314808370899708"><ele>1033.0</ele><time>2026-03-28T11:07:52.998Z</time></trkpt><trkpt lat="44.74721668356648" lon="9.314811408980498"><ele>1033.0</ele><time>2026-03-28T11:07:53.998Z</time></trkpt><trkpt lat="44.747106702073275" lon="9.314757111363146"><ele>1033.0</ele><time>2026-03-28T11:07:55.998Z</time></trkpt><trkpt lat="44.74704294090387" lon="9.314727331284406"><ele>1033.0</ele><time>2026-03-28T11:07:56.998Z</time></trkpt><trkpt lat="44.74700715074429" lon="9.314607491307893"><ele>1033.0</ele><time>2026-03-28T11:07:58.998Z</time></trkpt><trkpt lat="44.747013313879805" lon="9.31448222158524"><ele>1033.0</ele><time>2026-03-28T11:08:00.998Z</time></trkpt><trkpt lat="44.74707479533743" lon="9.314433803158806"><ele>1040.0</ele><time>2026-03-28T11:08:02.998Z</time></trkpt><trkpt lat="44.74710137154536" lon="9.314301686210857"><ele>1047.0</ele><time>2026-03-28T11:08:06.998Z</time></trkpt><trkpt lat="44.74705204857522" lon="9.31418570862683"><ele>1054.0</ele><time>2026-03-28T11:08:11Z</time></trkpt><trkpt lat="44.74684398611796" lon="9.31394429666618"><ele>1059.6666666666665</ele><time>2026-03-28T11:08:14Z</time></trkpt><trkpt lat="44.74676134387365" lon="9.313904170779631"><ele>1065.3333333333333</ele><time>2026-03-28T11:08:15Z</time></trkpt><trkpt lat="44.74668273212537" lon="9.313847750058144"><ele>1071.0</ele><time>2026-03-28T11:08:16Z</time></trkpt><trkpt lat="44.74660728680443" lon="9.313798039682487"><ele>1076.6666666666667</ele><time>2026-03-28T11:08:17Z</time></trkpt><trkpt lat="44.74653351157643" lon="9.313766896423578"><ele>1082.3333333333335</ele><time>2026-03-28T11:08:18Z</time></trkpt><trkpt lat="44.74646826538592" lon="9.313730699337802"><ele>1088.0</ele><time>2026-03-28T11:08:19Z</time></trkpt><trkpt lat="44.74636305038202" lon="9.313677620034166"><ele>1088.0</ele><time>2026-03-28T11:08:21Z</time></trkpt><trkpt lat="44.746274342731276" lon="9.313662786483647"><ele>1088.0</ele><time>2026-03-28T11:08:24Z</time></trkpt><trkpt lat="44.74619810794136" lon="9.3136289486499"><ele>1088.0</ele><time>2026-03-28T11:08:27Z</time></trkpt><trkpt lat="44.746133325184644" lon="9.313619895850795"><ele>1088.0</ele><time>2026-03-28T11:08:29Z</time></trkpt><trkpt lat="44.74604526347668" lon="9.31364798863182"><ele>1088.0</ele><time>2026-03-28T11:08:58.999Z</time></trkpt><trkpt lat="44.74598277066879" lon="9.313664036695666"><ele>1088.0</ele><time>2026-03-28T11:09:00.999Z</time></trkpt><trkpt lat="44.745916094395746" lon="9.313659016648373"><ele>1087.4</ele><time>2026-03-28T11:09:01.999Z</time></trkpt><trkpt lat="44.745807123799295" lon="9.313619007942396"><ele>1086.8</ele><time>2026-03-28T11:09:03.999Z</time></trkpt><trkpt lat="44.745722404676705" lon="9.31351259774398"><ele>1086.2</ele><time>2026-03-28T11:09:05.999Z</time></trkpt><trkpt lat="44.745734036962176" lon="9.313410575983232"><ele>1085.6</ele><time>2026-03-28T11:09:07.999Z</time></trkpt><trkpt lat="44.74563816239807" lon="9.313364151736982"><ele>1085.0</ele><time>2026-03-28T11:09:09.999Z</time></trkpt><trkpt lat="44.74555176100769" lon="9.313337093811477"><ele>1085.0</ele><time>2026-03-28T11:09:11.999Z</time></trkpt><trkpt lat="44.745553008187926" lon="9.313227688155992"><ele>1085.0</ele><time>2026-03-28T11:09:14.999Z</time></trkpt><trkpt lat="44.74546703253447" lon="9.313189968331036"><ele>1085.0</ele><time>2026-03-28T11:09:16.999Z</time></trkpt><trkpt lat="44.745387301008186" lon="9.313263329114912"><ele>1085.0</ele><time>2026-03-28T11:10:52.999Z</time></trkpt><trkpt lat="44.745362895729954" lon="9.31315346010006"><ele>1085.0</ele><time>2026-03-28T11:10:55.999Z</time></trkpt><trkpt lat="44.745425452860744" lon="9.313025283667805"><ele>1086.2</ele><time>2026-03-28T11:10:57.999Z</time></trkpt><trkpt lat="44.74542702790359" lon="9.312824022369067"><ele>1087.4</ele><time>2026-03-28T11:10:59.999Z</time></trkpt><trkpt lat="44.74546210813028" lon="9.312690695282322"><ele>1088.6</ele><time>2026-03-28T11:11:00.999Z</time></trkpt><trkpt lat="44.74542397654065" lon="9.31254803527846"><ele>1089.8</ele><time>2026-03-28T11:11:02.999Z</time></trkpt><trkpt lat="44.745386819195346" lon="9.312449605245918"><ele>1091.0</ele><time>2026-03-28T11:11:04.999Z</time></trkpt><trkpt lat="44.745341724490814" lon="9.312364234221908"><ele>1090.6</ele><time>2026-03-28T11:11:06.999Z</time></trkpt><trkpt lat="44.74528888437531" lon="9.312193614105418"><ele>1090.1999999999998</ele><time>2026-03-28T11:11:08.999Z</time></trkpt><trkpt lat="44.74526602744954" lon="9.312098338698275"><ele>1089.8000000000002</ele><time>2026-03-28T11:11:09.999Z</time></trkpt><trkpt lat="44.74523842337498" lon="9.312012033981558"><ele>1089.4</ele><time>2026-03-28T11:11:10.999Z</time></trkpt><trkpt lat="44.745203935348535" lon="9.31192424098824"><ele>1089.0</ele><time>2026-03-28T11:11:11.999Z</time></trkpt><trkpt lat="44.745148039607585" lon="9.311765032127322"><ele>1087.2857142857144</ele><time>2026-03-28T11:11:13.999Z</time></trkpt><trkpt lat="44.74511846840932" lon="9.311669043707969"><ele>1085.5714285714287</ele><time>2026-03-28T11:11:14.999Z</time></trkpt><trkpt lat="44.74509561189799" lon="9.311570364130544"><ele>1083.857142857143</ele><time>2026-03-28T11:11:15.999Z</time></trkpt><trkpt lat="44.7450872942757" lon="9.311481275416748"><ele>1082.1428571428573</ele><time>2026-03-28T11:11:16.999Z</time></trkpt><trkpt lat="44.745083681226426" lon="9.31137186833298"><ele>1080.4285714285716</ele><time>2026-03-28T11:11:17.999Z</time></trkpt><trkpt lat="44.74508284483374" lon="9.311256178259903"><ele>1078.7142857142858</ele><time>2026-03-28T11:11:18.999Z</time></trkpt><trkpt lat="44.745089716072734" lon="9.311161154127879"><ele>1077.0</ele><time>2026-03-28T11:11:19.999Z</time></trkpt><trkpt lat="44.74509866008161" lon="9.311064214053337"><ele>1075.6</ele><time>2026-03-28T11:11:20.999Z</time></trkpt><trkpt lat="44.74510094484248" lon="9.310965882973496"><ele>1074.2</ele><time>2026-03-28T11:11:21.999Z</time></trkpt><trkpt lat="44.7450928708515" lon="9.310761149144207"><ele>1072.8</ele><time>2026-03-28T11:11:23.999Z</time></trkpt><trkpt lat="44.74507865207957" lon="9.310644331600745"><ele>1071.4</ele><time>2026-03-28T11:11:24.999Z</time></trkpt><trkpt lat="44.74504995078441" lon="9.310532135124532"><ele>1070.0</ele><time>2026-03-28T11:11:25.999Z</time></trkpt><trkpt lat="44.74501960772709" lon="9.310439208020993"><ele>1068.5</ele><time>2026-03-28T11:11:26.999Z</time></trkpt><trkpt lat="44.744983569221574" lon="9.310352454105871"><ele>1067.0</ele><time>2026-03-28T11:11:27.999Z</time></trkpt><trkpt lat="44.74494517904561" lon="9.310274547558926"><ele>1065.5</ele><time>2026-03-28T11:11:28.999Z</time></trkpt><trkpt lat="44.744894322452076" lon="9.310205476927864"><ele>1064.0</ele><time>2026-03-28T11:11:29.999Z</time></trkpt><trkpt lat="44.74484934137185" lon="9.31013982039008"><ele>1062.5</ele><time>2026-03-28T11:11:30.999Z</time></trkpt><trkpt lat="44.74480616163352" lon="9.31006727588736"><ele>1061.0</ele><time>2026-03-28T11:11:31.998Z</time></trkpt><trkpt lat="44.744725419815325" lon="9.309952091667732"><ele>1061.0</ele><time>2026-03-28T11:11:33.998Z</time></trkpt><trkpt lat="44.744671710124415" lon="9.309807706190693"><ele>1061.0</ele><time>2026-03-28T11:11:35.998Z</time></trkpt><trkpt lat="44.74462874170006" lon="9.309738935792058"><ele>1061.0</ele><time>2026-03-28T11:11:36.998Z</time></trkpt><trkpt lat="44.74458372669599" lon="9.309673477760775"><ele>1061.0</ele><time>2026-03-28T11:11:37.998Z</time></trkpt><trkpt lat="44.74448962288744" lon="9.309547748229349"><ele>1061.0</ele><time>2026-03-28T11:11:39.998Z</time></trkpt><trkpt lat="44.7444286307201" lon="9.309472114355788"><ele>1058.3333333333335</ele><time>2026-03-28T11:11:40.998Z</time></trkpt><trkpt lat="44.744361339624064" lon="9.309385068514038"><ele>1055.6666666666667</ele><time>2026-03-28T11:11:41.998Z</time></trkpt><trkpt lat="44.74431288537741" lon="9.309322389480291"><ele>1053.0</ele><time>2026-03-28T11:11:42.998Z</time></trkpt><trkpt lat="44.744218254023544" lon="9.30919194614139"><ele>1050.3333333333333</ele><time>2026-03-28T11:11:44.998Z</time></trkpt><trkpt lat="44.74417341310565" lon="9.309111998975473"><ele>1047.6666666666665</ele><time>2026-03-28T11:11:45.998Z</time></trkpt><trkpt lat="44.7441273671486" lon="9.30901917112107"><ele>1045.0</ele><time>2026-03-28T11:11:46.998Z</time></trkpt><trkpt lat="44.74409651323063" lon="9.308926145532995"><ele>1044.0</ele><time>2026-03-28T11:11:47.998Z</time></trkpt><trkpt lat="44.744073592909494" lon="9.308811568014661"><ele>1043.0</ele><time>2026-03-28T11:11:50.998Z</time></trkpt><trkpt lat="44.744033831071846" lon="9.308636666786319"><ele>1042.0</ele><time>2026-03-28T11:11:52.998Z</time></trkpt><trkpt lat="44.74401588215893" lon="9.308533747656684"><ele>1041.0</ele><time>2026-03-28T11:11:53.998Z</time></trkpt><trkpt lat="44.74400887206837" lon="9.308382287037196"><ele>1040.0</ele><time>2026-03-28T11:11:55.998Z</time></trkpt><trkpt lat="44.744026799402015" lon="9.308213644882137"><ele>1040.0000000000002</ele><time>2026-03-28T11:11:57.998Z</time></trkpt><trkpt lat="44.74403726941127" lon="9.308123783786055"><ele>1040.0</ele><time>2026-03-28T11:11:58.998Z</time></trkpt><trkpt lat="44.74403900653072" lon="9.308026271216466"><ele>1040.0</ele><time>2026-03-28T11:11:59.998Z</time></trkpt><trkpt lat="44.744030652327936" lon="9.307935743214966"><ele>1040.0</ele><time>2026-03-28T11:12:00.998Z</time></trkpt><trkpt lat="44.74404164459996" lon="9.307847442097293"><ele>1040.0</ele><time>2026-03-28T11:12:01.998Z</time></trkpt><trkpt lat="44.74405153916515" lon="9.307759490468149"><ele>1040.0000000000002</ele><time>2026-03-28T11:12:02.998Z</time></trkpt><trkpt lat="44.744051313228766" lon="9.307603017474625"><ele>1040.0</ele><time>2026-03-28T11:12:04.998Z</time></trkpt><trkpt lat="44.7440102053002" lon="9.30741930274254"><ele>1038.6</ele><time>2026-03-28T11:12:06.998Z</time></trkpt><trkpt lat="44.74396778892218" lon="9.307322202921616"><ele>1037.2</ele><time>2026-03-28T11:12:07.998Z</time></trkpt><trkpt lat="44.74393414360689" lon="9.307202663144512"><ele>1035.8</ele><time>2026-03-28T11:12:09.998Z</time></trkpt><trkpt lat="44.74382222124042" lon="9.307131083538055"><ele>1034.4</ele><time>2026-03-28T11:12:11.998Z</time></trkpt><trkpt lat="44.743744107812375" lon="9.307045348856832"><ele>1033.0</ele><time>2026-03-28T11:12:12.998Z</time></trkpt><trkpt lat="44.74368442085718" lon="9.306978952784258"><ele>1032.3333333333333</ele><time>2026-03-28T11:12:13.998Z</time></trkpt><trkpt lat="44.743624799850636" lon="9.306887533521913"><ele>1031.6666666666665</ele><time>2026-03-28T11:12:15.998Z</time></trkpt><trkpt lat="44.74361124641131" lon="9.306776222261439"><ele>1031.0</ele><time>2026-03-28T11:12:17.998Z</time></trkpt><trkpt lat="44.74360588160296" lon="9.30668187563773"><ele>1030.3333333333333</ele><time>2026-03-28T11:12:18.998Z</time></trkpt><trkpt lat="44.74356899777322" lon="9.306573541635176"><ele>1029.6666666666667</ele><time>2026-03-28T11:12:20Z</time></trkpt><trkpt lat="44.74356296125202" lon="9.306472823393532"><ele>1029.0</ele><time>2026-03-28T11:12:21Z</time></trkpt><trkpt lat="44.743513846470194" lon="9.306361745898755"><ele>1026.5714285714287</ele><time>2026-03-28T11:12:23Z</time></trkpt><trkpt lat="44.743454627155785" lon="9.30631500722576"><ele>1024.142857142857</ele><time>2026-03-28T11:12:24Z</time></trkpt><trkpt lat="44.74337327931571" lon="9.306268400125395"><ele>1021.7142857142858</ele><time>2026-03-28T11:12:25Z</time></trkpt><trkpt lat="44.743311971547605" lon="9.306212995203419"><ele>1019.2857142857143</ele><time>2026-03-28T11:12:26Z</time></trkpt><trkpt lat="44.743266227430134" lon="9.306143174187541"><ele>1016.8571428571429</ele><time>2026-03-28T11:12:27Z</time></trkpt><trkpt lat="44.74323942931459" lon="9.306060878124054"><ele>1014.4285714285716</ele><time>2026-03-28T11:12:28Z</time></trkpt><trkpt lat="44.74322677388743" lon="9.305964600448785"><ele>1012.0000000000001</ele><time>2026-03-28T11:12:29Z</time></trkpt><trkpt lat="44.74318942617128" lon="9.305871665895696"><ele>1012.0</ele><time>2026-03-28T11:12:30Z</time></trkpt><trkpt lat="44.74312479738024" lon="9.305801012585972"><ele>1012.0</ele><time>2026-03-28T11:12:31Z</time></trkpt><trkpt lat="44.74306596379399" lon="9.305725312143668"><ele>1012.0</ele><time>2026-03-28T11:12:32Z</time></trkpt><trkpt lat="44.74301972153503" lon="9.305650242675789"><ele>1012.0</ele><time>2026-03-28T11:12:33Z</time></trkpt><trkpt lat="44.74295604617145" lon="9.30549298709708"><ele>1012.0</ele><time>2026-03-28T11:12:35Z</time></trkpt><trkpt lat="44.742889916622154" lon="9.305388344278976"><ele>1012.3333333333333</ele><time>2026-03-28T11:12:36Z</time></trkpt><trkpt lat="44.74282495969367" lon="9.305322781060603"><ele>1012.6666666666666</ele><time>2026-03-28T11:12:37Z</time></trkpt><trkpt lat="44.742740940832434" lon="9.305226194481149"><ele>1013.0</ele><time>2026-03-28T11:12:39Z</time></trkpt><trkpt lat="44.742672771065465" lon="9.30516353411798"><ele>1013.3333333333333</ele><time>2026-03-28T11:12:40Z</time></trkpt><trkpt lat="44.74259857422232" lon="9.305101185861028"><ele>1013.6666666666666</ele><time>2026-03-28T11:12:41Z</time></trkpt><trkpt lat="44.74255097381749" lon="9.305025719371983"><ele>1014.0</ele><time>2026-03-28T11:12:42Z</time></trkpt><trkpt lat="44.74251178714443" lon="9.304949349485746"><ele>1012.0</ele><time>2026-03-28T11:12:42.999Z</time></trkpt><trkpt lat="44.74245477992689" lon="9.304868380399268"><ele>1010.0</ele><time>2026-03-28T11:12:43.999Z</time></trkpt><trkpt lat="44.74242049825962" lon="9.304791200027282"><ele>1008.0</ele><time>2026-03-28T11:12:44.999Z</time></trkpt><trkpt lat="44.74239848506928" lon="9.304706937989518"><ele>1006.0</ele><time>2026-03-28T11:12:45.999Z</time></trkpt><trkpt lat="44.7423605427449" lon="9.304627498730992"><ele>1004.0</ele><time>2026-03-28T11:12:46.999Z</time></trkpt><trkpt lat="44.74230804520045" lon="9.304518507971702"><ele>1002.0</ele><time>2026-03-28T11:12:47.999Z</time></trkpt><trkpt lat="44.7422374616769" lon="9.304392685044645"><ele>1001.6</ele><time>2026-03-28T11:12:48.999Z</time></trkpt><trkpt lat="44.742174507676076" lon="9.304276054477857"><ele>1001.2</ele><time>2026-03-28T11:12:49.999Z</time></trkpt><trkpt lat="44.742110300083134" lon="9.304149471113751"><ele>1000.8</ele><time>2026-03-28T11:12:50.999Z</time></trkpt><trkpt lat="44.742044851401204" lon="9.304039428960548"><ele>1000.4</ele><time>2026-03-28T11:12:51.999Z</time></trkpt><trkpt lat="44.74198744219981" lon="9.303938383550134"><ele>1000.0</ele><time>2026-03-28T11:12:52.999Z</time></trkpt><trkpt lat="44.74192632703504" lon="9.303859141791165"><ele>998.3333333333333</ele><time>2026-03-28T11:12:53.999Z</time></trkpt><trkpt lat="44.74185834685854" lon="9.303794343440034"><ele>996.6666666666666</ele><time>2026-03-28T11:12:54.999Z</time></trkpt><trkpt lat="44.741784704749406" lon="9.30371288416837"><ele>995.0</ele><time>2026-03-28T11:12:55.999Z</time></trkpt><trkpt lat="44.741727326849336" lon="9.303623289618729"><ele>993.3333333333333</ele><time>2026-03-28T11:12:56.999Z</time></trkpt><trkpt lat="44.74167724685739" lon="9.303532386325097"><ele>991.6666666666666</ele><time>2026-03-28T11:12:57.999Z</time></trkpt><trkpt lat="44.741600735078485" lon="9.303430708325537"><ele>990.0</ele><time>2026-03-28T11:12:59.999Z</time></trkpt><trkpt lat="44.74152573298948" lon="9.303297147505528"><ele>990.0</ele><time>2026-03-28T11:13:01.999Z</time></trkpt><trkpt lat="44.741400979457055" lon="9.303185066389048"><ele>990.0</ele><time>2026-03-28T11:13:03.999Z</time></trkpt><trkpt lat="44.74130877715256" lon="9.303080752181147"><ele>990.0</ele><time>2026-03-28T11:13:04.999Z</time></trkpt><trkpt lat="44.74120107144481" lon="9.302969444933009"><ele>990.0</ele><time>2026-03-28T11:13:05.999Z</time></trkpt><trkpt lat="44.7411143878031" lon="9.302888525518812"><ele>990.0</ele><time>2026-03-28T11:13:06.999Z</time></trkpt><trkpt lat="44.74102730649479" lon="9.302807665507382"><ele>990.0</ele><time>2026-03-28T11:13:07.999Z</time></trkpt><trkpt lat="44.74095197133057" lon="9.302738288172465"><ele>990.0</ele><time>2026-03-28T11:13:08.999Z</time></trkpt><trkpt lat="44.74089550196145" lon="9.302683688086967"><ele>990.0</ele><time>2026-03-28T11:13:09.999Z</time></trkpt><trkpt lat="44.74083821522863" lon="9.302619435135936"><ele>990.0</ele><time>2026-03-28T11:13:11.999Z</time></trkpt><trkpt lat="44.74094564371744" lon="9.30262573243143"><ele>990.0</ele><time>2026-03-28T11:13:16.999Z</time></trkpt><trkpt lat="44.74110951189058" lon="9.302678428299465"><ele>990.0</ele><time>2026-03-28T11:13:18.999Z</time></trkpt><trkpt lat="44.7412255791631" lon="9.302724478357725"><ele>990.0</ele><time>2026-03-28T11:13:19.999Z</time></trkpt><trkpt lat="44.74133205861004" lon="9.302778490439248"><ele>990.0</ele><time>2026-03-28T11:13:20.999Z</time></trkpt><trkpt lat="44.741437508308266" lon="9.302816020514246"><ele>990.0</ele><time>2026-03-28T11:13:21.999Z</time></trkpt><trkpt lat="44.741534379463815" lon="9.302833437129713"><ele>990.0</ele><time>2026-03-28T11:13:22.999Z</time></trkpt><trkpt lat="44.74163310229622" lon="9.302828857270741"><ele>990.0</ele><time>2026-03-28T11:13:23.999Z</time></trkpt><trkpt lat="44.74173742478278" lon="9.302840727985048"><ele>990.0</ele><time>2026-03-28T11:13:24.999Z</time></trkpt><trkpt lat="44.741865545994344" lon="9.30285226021099"><ele>990.0</ele><time>2026-03-28T11:13:25.999Z</time></trkpt><trkpt lat="44.74199466780921" lon="9.302874703200613"><ele>990.0</ele><time>2026-03-28T11:13:26.999Z</time></trkpt><trkpt lat="44.742104826562276" lon="9.302897392619144"><ele>992.2</ele><time>2026-03-28T11:13:27.999Z</time></trkpt><trkpt lat="44.742201275567005" lon="9.302915707783994"><ele>994.4</ele><time>2026-03-28T11:13:28.999Z</time></trkpt><trkpt lat="44.742273939085784" lon="9.30294196167324"><ele>996.5999999999999</ele><time>2026-03-28T11:13:29.999Z</time></trkpt><trkpt lat="44.74233307504785" lon="9.302893095461876"><ele>998.8</ele><time>2026-03-28T11:13:31.999Z</time></trkpt><trkpt lat="44.74235636366408" lon="9.302719189645952"><ele>1001.0</ele><time>2026-03-28T11:13:33.998Z</time></trkpt><trkpt lat="44.74234834206998" lon="9.302576594559385"><ele>1001.0</ele><time>2026-03-28T11:13:34.998Z</time></trkpt><trkpt lat="44.7423461797614" lon="9.302436085957947"><ele>1000.9999999999999</ele><time>2026-03-28T11:13:35.998Z</time></trkpt><trkpt lat="44.7423524102614" lon="9.302323200721107"><ele>1000.9999999999999</ele><time>2026-03-28T11:13:36.998Z</time></trkpt><trkpt lat="44.74235783776765" lon="9.302195345276852"><ele>1001.0</ele><time>2026-03-28T11:13:37.998Z</time></trkpt><trkpt lat="44.74237297216466" lon="9.302047601828882"><ele>1001.0</ele><time>2026-03-28T11:13:38.998Z</time></trkpt><trkpt lat="44.74237068230576" lon="9.301921957775507"><ele>1002.0</ele><time>2026-03-28T11:13:39.998Z</time></trkpt><trkpt lat="44.74239599715884" lon="9.301812810968027"><ele>1002.9999999999999</ele><time>2026-03-28T11:13:40.998Z</time></trkpt><trkpt lat="44.742429286811664" lon="9.301716130371808"><ele>1003.9999999999999</ele><time>2026-03-28T11:13:41.998Z</time></trkpt><trkpt lat="44.74248814754784" lon="9.301611509822523"><ele>1005.0</ele><time>2026-03-28T11:13:42.998Z</time></trkpt><trkpt lat="44.74256244312981" lon="9.301466526341985"><ele>1006.0</ele><time>2026-03-28T11:13:43.998Z</time></trkpt><trkpt lat="44.74264208404206" lon="9.301305670468413"><ele>1006.5999999999999</ele><time>2026-03-28T11:13:44.998Z</time></trkpt><trkpt lat="44.74271285979479" lon="9.301160530110375"><ele>1007.1999999999999</ele><time>2026-03-28T11:13:45.998Z</time></trkpt><trkpt lat="44.74276888981579" lon="9.301045533693587"><ele>1007.8000000000001</ele><time>2026-03-28T11:13:46.998Z</time></trkpt><trkpt lat="44.74281502149299" lon="9.300927587738213"><ele>1008.4000000000001</ele><time>2026-03-28T11:13:47.998Z</time></trkpt><trkpt lat="44.74284410468511" lon="9.30077666895095"><ele>1009.0</ele><time>2026-03-28T11:13:48.998Z</time></trkpt><trkpt lat="44.74287822647935" lon="9.300635768104437"><ele>1011.9999999999999</ele><time>2026-03-28T11:13:49.998Z</time></trkpt><trkpt lat="44.74291581648647" lon="9.300525901462226"><ele>1015.0</ele><time>2026-03-28T11:13:50.998Z</time></trkpt><trkpt lat="44.74294932061606" lon="9.300439816141944"><ele>1018.0</ele><time>2026-03-28T11:13:51.998Z</time></trkpt><trkpt lat="44.7429808979986" lon="9.30034640127587"><ele>1021.0</ele><time>2026-03-28T11:13:52.998Z</time></trkpt><trkpt lat="44.74303377657209" lon="9.300208849580377"><ele>1023.9999999999999</ele><time>2026-03-28T11:13:54.998Z</time></trkpt><trkpt lat="44.743080181987175" lon="9.300120046275058"><ele>1027.0</ele><time>2026-03-28T11:13:55.998Z</time></trkpt><trkpt lat="44.74313564345792" lon="9.299978566603285"><ele>1027.0</ele><time>2026-03-28T11:13:56.998Z</time></trkpt><trkpt lat="44.74317507593756" lon="9.29984482028772"><ele>1027.0</ele><time>2026-03-28T11:13:57.998Z</time></trkpt><trkpt lat="44.743203971376396" lon="9.299739787179373"><ele>1027.0</ele><time>2026-03-28T11:13:58.998Z</time></trkpt><trkpt lat="44.74323747744843" lon="9.299640755659675"><ele>1027.0</ele><time>2026-03-28T11:13:59.998Z</time></trkpt><trkpt lat="44.743251119422524" lon="9.299518906773852"><ele>1027.0</ele><time>2026-03-28T11:14:00.998Z</time></trkpt><trkpt lat="44.74326145671489" lon="9.299396608659075"><ele>1027.0</ele><time>2026-03-28T11:14:01.998Z</time></trkpt><trkpt lat="44.74327806546871" lon="9.299287805792996"><ele>1028.0</ele><time>2026-03-28T11:14:02.998Z</time></trkpt><trkpt lat="44.743322538237614" lon="9.299150582398193"><ele>1029.0</ele><time>2026-03-28T11:14:04.998Z</time></trkpt><trkpt lat="44.74339596787759" lon="9.298998023076175"><ele>1030.0</ele><time>2026-03-28T11:14:06.998Z</time></trkpt><trkpt lat="44.74344859002822" lon="9.298891405885453"><ele>1031.0</ele><time>2026-03-28T11:14:07.998Z</time></trkpt><trkpt lat="44.74348740323072" lon="9.29876725040292"><ele>1032.0</ele><time>2026-03-28T11:14:08.998Z</time></trkpt><trkpt lat="44.743524250391275" lon="9.298647052065617"><ele>1036.6</ele><time>2026-03-28T11:14:09.998Z</time></trkpt><trkpt lat="44.74356135648321" lon="9.298522727947569"><ele>1041.2</ele><time>2026-03-28T11:14:10.998Z</time></trkpt><trkpt lat="44.74360004429263" lon="9.298406469526938"><ele>1045.8</ele><time>2026-03-28T11:14:11.998Z</time></trkpt><trkpt lat="44.74365745055375" lon="9.298272980911841"><ele>1050.4</ele><time>2026-03-28T11:14:13.998Z</time></trkpt><trkpt lat="44.74371872606529" lon="9.298199551009064"><ele>1055.0</ele><time>2026-03-28T11:14:15.998Z</time></trkpt><trkpt lat="44.74365651808935" lon="9.298103593250037"><ele>1055.0</ele><time>2026-03-28T11:14:18.998Z</time></trkpt><trkpt lat="44.743589558068884" lon="9.298087506092331"><ele>1055.0</ele><time>2026-03-28T11:14:19.998Z</time></trkpt><trkpt lat="44.74350717051214" lon="9.29802713088057"><ele>1055.0</ele><time>2026-03-28T11:14:20.998Z</time></trkpt><trkpt lat="44.743441896448765" lon="9.297902486939916"><ele>1055.0</ele><time>2026-03-28T11:14:22.998Z</time></trkpt><trkpt lat="44.743438454424144" lon="9.297807356745048"><ele>1055.0</ele><time>2026-03-28T11:14:23.998Z</time></trkpt><trkpt lat="44.74346424190296" lon="9.297670942496445"><ele>1055.0</ele><time>2026-03-28T11:14:26Z</time></trkpt><trkpt lat="44.74351166313205" lon="9.29750543504863"><ele>1056.8</ele><time>2026-03-28T11:14:28Z</time></trkpt><trkpt lat="44.74356100489316" lon="9.297372339575857"><ele>1058.6</ele><time>2026-03-28T11:14:29Z</time></trkpt><trkpt lat="44.743603632827956" lon="9.297245469292738"><ele>1060.4</ele><time>2026-03-28T11:14:30Z</time></trkpt><trkpt lat="44.743663144710474" lon="9.297134504704944"><ele>1062.2</ele><time>2026-03-28T11:14:31Z</time></trkpt><trkpt lat="44.743702547916925" lon="9.297036046780503"><ele>1064.0</ele><time>2026-03-28T11:14:32Z</time></trkpt><trkpt lat="44.74374879067011" lon="9.29695797375328"><ele>1064.3333333333335</ele><time>2026-03-28T11:14:33Z</time></trkpt><trkpt lat="44.74380843613021" lon="9.296915319582949"><ele>1064.6666666666667</ele><time>2026-03-28T11:14:34Z</time></trkpt><trkpt lat="44.743883389644914" lon="9.296877549617511"><ele>1065.0</ele><time>2026-03-28T11:14:35Z</time></trkpt><trkpt lat="44.74395738341816" lon="9.296862955314104"><ele>1065.3333333333333</ele><time>2026-03-28T11:14:36Z</time></trkpt><trkpt lat="44.744025465636035" lon="9.296815113951485"><ele>1065.6666666666665</ele><time>2026-03-28T11:14:37Z</time></trkpt><trkpt lat="44.744089631280275" lon="9.296753718194545"><ele>1066.0</ele><time>2026-03-28T11:14:38Z</time></trkpt><trkpt lat="44.74417980192331" lon="9.296730286269183"><ele>1066.0</ele><time>2026-03-28T11:14:39Z</time></trkpt><trkpt lat="44.74426818200215" lon="9.296703746716842"><ele>1066.0</ele><time>2026-03-28T11:14:40Z</time></trkpt><trkpt lat="44.74434223334393" lon="9.29665274704791"><ele>1066.0</ele><time>2026-03-28T11:14:41Z</time></trkpt><trkpt lat="44.74438741879546" lon="9.296564229198573"><ele>1066.0</ele><time>2026-03-28T11:14:42Z</time></trkpt><trkpt lat="44.744439341645986" lon="9.29648276467108"><ele>1066.0</ele><time>2026-03-28T11:14:43Z</time></trkpt><trkpt lat="44.74448793096952" lon="9.296391447386066"><ele>1066.0</ele><time>2026-03-28T11:14:44Z</time></trkpt><trkpt lat="44.74453172699691" lon="9.296276703536602"><ele>1069.1666666666665</ele><time>2026-03-28T11:14:45Z</time></trkpt><trkpt lat="44.74456758798628" lon="9.296168039287641"><ele>1072.3333333333333</ele><time>2026-03-28T11:14:46Z</time></trkpt><trkpt lat="44.744606864530475" lon="9.296095527276885"><ele>1075.5</ele><time>2026-03-28T11:14:46.999Z</time></trkpt><trkpt lat="44.744630651435884" lon="9.295949954698077"><ele>1078.6666666666667</ele><time>2026-03-28T11:14:48.999Z</time></trkpt><trkpt lat="44.744648919606504" lon="9.295835366016991"><ele>1081.8333333333335</ele><time>2026-03-28T11:14:50.999Z</time></trkpt><trkpt lat="44.74465538181738" lon="9.295745890508385"><ele>1085.0</ele><time>2026-03-28T11:14:51.999Z</time></trkpt><trkpt lat="44.74467837150887" lon="9.29563307077055"><ele>1084.8333333333335</ele><time>2026-03-28T11:14:55.999Z</time></trkpt><trkpt lat="44.7446823691484" lon="9.29552832785765"><ele>1084.6666666666667</ele><time>2026-03-28T11:14:58.999Z</time></trkpt><trkpt lat="44.744667904205414" lon="9.295378510385122"><ele>1084.5</ele><time>2026-03-28T11:15:55.998Z</time></trkpt><trkpt lat="44.744668715038465" lon="9.295234113856383"><ele>1084.3333333333333</ele><time>2026-03-28T11:16:23.998Z</time></trkpt><trkpt lat="44.74468651856688" lon="9.295104223252919"><ele>1084.1666666666665</ele><time>2026-03-28T11:16:25.998Z</time></trkpt><trkpt lat="44.74469126954163" lon="9.295007235584695"><ele>1084.0</ele><time>2026-03-28T11:16:26.998Z</time></trkpt><trkpt lat="44.744705246894426" lon="9.294906877015189"><ele>1084.0</ele><time>2026-03-28T11:16:27.998Z</time></trkpt><trkpt lat="44.744781487754466" lon="9.2948171923771"><ele>1084.0</ele><time>2026-03-28T11:16:28.998Z</time></trkpt><trkpt lat="44.74479796555336" lon="9.294703070916123"><ele>1084.0</ele><time>2026-03-28T11:16:29.998Z</time></trkpt><trkpt lat="44.744763388452775" lon="9.294556685657335"><ele>1084.0</ele><time>2026-03-28T11:16:30.998Z</time></trkpt><trkpt lat="44.744785458454466" lon="9.294445021758127"><ele>1084.0</ele><time>2026-03-28T11:16:32Z</time></trkpt><trkpt lat="44.74482527387174" lon="9.294354949731778"><ele>1084.0</ele><time>2026-03-28T11:16:33Z</time></trkpt><trkpt lat="44.7448739779464" lon="9.29427526507767"><ele>1084.0</ele><time>2026-03-28T11:16:34Z</time></trkpt><trkpt lat="44.74492550265078" lon="9.294196025675207"><ele>1084.0</ele><time>2026-03-28T11:16:35Z</time></trkpt><trkpt lat="44.74498803263364" lon="9.29412659310277"><ele>1084.0</ele><time>2026-03-28T11:16:36Z</time></trkpt><trkpt lat="44.74506227096256" lon="9.294057167880993"><ele>1084.0</ele><time>2026-03-28T11:16:37Z</time></trkpt><trkpt lat="44.745148437134354" lon="9.293986812413007"><ele>1084.0</ele><time>2026-03-28T11:16:38Z</time></trkpt><trkpt lat="44.7452146280433" lon="9.293906804833746"><ele>1084.0</ele><time>2026-03-28T11:16:39Z</time></trkpt><trkpt lat="44.74524611803115" lon="9.293790935794641"><ele>1084.8</ele><time>2026-03-28T11:16:40Z</time></trkpt><trkpt lat="44.745240689391025" lon="9.29368878294058"><ele>1085.6000000000001</ele><time>2026-03-28T11:16:41Z</time></trkpt><trkpt lat="44.745207997663265" lon="9.293507725480275"><ele>1086.4</ele><time>2026-03-28T11:16:43Z</time></trkpt><trkpt lat="44.74517324570071" lon="9.293386951579889"><ele>1087.2</ele><time>2026-03-28T11:16:44Z</time></trkpt><trkpt lat="44.745117174668536" lon="9.293246859581068"><ele>1088.0</ele><time>2026-03-28T11:16:45Z</time></trkpt><trkpt lat="44.745086210946205" lon="9.29307582199601"><ele>1086.0</ele><time>2026-03-28T11:16:46Z</time></trkpt><trkpt lat="44.744966377836306" lon="9.292996922611522"><ele>1084.0</ele><time>2026-03-28T11:16:47Z</time></trkpt><trkpt lat="44.7448624204312" lon="9.292916725484487"><ele>1082.0</ele><time>2026-03-28T11:16:48Z</time></trkpt><trkpt lat="44.74475032257775" lon="9.2928297303753"><ele>1080.0</ele><time>2026-03-28T11:16:48.999Z</time></trkpt><trkpt lat="44.74464959717992" lon="9.292747449736433"><ele>1080.0</ele><time>2026-03-28T11:16:49.999Z</time></trkpt><trkpt lat="44.74456333862944" lon="9.29265993181328"><ele>1080.0</ele><time>2026-03-28T11:16:50.999Z</time></trkpt><trkpt lat="44.74449138275127" lon="9.292570523158975"><ele>1080.0</ele><time>2026-03-28T11:16:51.999Z</time></trkpt><trkpt lat="44.74443033427392" lon="9.292467807748675"><ele>1080.0</ele><time>2026-03-28T11:16:52.999Z</time></trkpt><trkpt lat="44.74437497236946" lon="9.292355471719954"><ele>1080.0</ele><time>2026-03-28T11:16:53.999Z</time></trkpt><trkpt lat="44.74433305034922" lon="9.29224161775346"><ele>1077.2</ele><time>2026-03-28T11:16:54.999Z</time></trkpt><trkpt lat="44.74429214866673" lon="9.292130345371236"><ele>1074.4</ele><time>2026-03-28T11:16:55.999Z</time></trkpt><trkpt lat="44.74425531710957" lon="9.292036087091207"><ele>1071.6</ele><time>2026-03-28T11:16:56.999Z</time></trkpt><trkpt lat="44.744206447070944" lon="9.291927927304494"><ele>1068.8</ele><time>2026-03-28T11:16:57.999Z</time></trkpt><trkpt lat="44.74414431314255" lon="9.291820432861469"><ele>1066.0</ele><time>2026-03-28T11:16:58.999Z</time></trkpt><trkpt lat="44.74405548948784" lon="9.291722556279536"><ele>1066.0</ele><time>2026-03-28T11:16:59.999Z</time></trkpt><trkpt lat="44.74394221272456" lon="9.291656315244987"><ele>1066.0</ele><time>2026-03-28T11:17:00.999Z</time></trkpt><trkpt lat="44.743824041985604" lon="9.291590408868146"><ele>1066.0</ele><time>2026-03-28T11:17:01.999Z</time></trkpt><trkpt lat="44.74372745938856" lon="9.291487737264244"><ele>1066.0</ele><time>2026-03-28T11:17:02.999Z</time></trkpt><trkpt lat="44.74362349701937" lon="9.291426478394945"><ele>1064.0</ele><time>2026-03-28T11:17:03.999Z</time></trkpt><trkpt lat="44.74351209154489" lon="9.291310670935912"><ele>1062.0</ele><time>2026-03-28T11:17:04.999Z</time></trkpt><trkpt lat="44.74341108200831" lon="9.291193597653491"><ele>1060.0</ele><time>2026-03-28T11:17:05.999Z</time></trkpt><trkpt lat="44.74329619568064" lon="9.291089515752565"><ele>1058.0</ele><time>2026-03-28T11:17:06.999Z</time></trkpt><trkpt lat="44.743190793506784" lon="9.290970744488462"><ele>1058.0</ele><time>2026-03-28T11:17:07.999Z</time></trkpt><trkpt lat="44.743093192912916" lon="9.290846002651227"><ele>1058.0</ele><time>2026-03-28T11:17:08.999Z</time></trkpt><trkpt lat="44.743005097270036" lon="9.290711505141626"><ele>1058.0</ele><time>2026-03-28T11:17:09.999Z</time></trkpt><trkpt lat="44.742921601723715" lon="9.290568992367902"><ele>1058.0</ele><time>2026-03-28T11:17:10.999Z</time></trkpt><trkpt lat="44.74285200313397" lon="9.290411245693667"><ele>1058.0</ele><time>2026-03-28T11:17:11.999Z</time></trkpt><trkpt lat="44.742761010364696" lon="9.290269026488797"><ele>1058.0</ele><time>2026-03-28T11:17:12.999Z</time></trkpt><trkpt lat="44.74266621601008" lon="9.290126097520226"><ele>1058.0</ele><time>2026-03-28T11:17:13.999Z</time></trkpt><trkpt lat="44.742567809539736" lon="9.290015552806167"><ele>1058.0</ele><time>2026-03-28T11:17:14.999Z</time></trkpt><trkpt lat="44.742487620537354" lon="9.289891650058626"><ele>1055.4</ele><time>2026-03-28T11:17:15.999Z</time></trkpt><trkpt lat="44.74242869798205" lon="9.289750866589705"><ele>1052.8</ele><time>2026-03-28T11:17:16.999Z</time></trkpt><trkpt lat="44.74236088692883" lon="9.289631158316828"><ele>1050.2</ele><time>2026-03-28T11:17:17.999Z</time></trkpt><trkpt lat="44.74228360518477" lon="9.289531451276929"><ele>1047.6</ele><time>2026-03-28T11:17:18.999Z</time></trkpt><trkpt lat="44.742217426816545" lon="9.289416722932085"><ele>1045.0</ele><time>2026-03-28T11:17:19.999Z</time></trkpt><trkpt lat="44.74215234495827" lon="9.289300016696316"><ele>1045.0</ele><time>2026-03-28T11:17:20.999Z</time></trkpt><trkpt lat="44.742094584863146" lon="9.28916733286701"><ele>1045.0</ele><time>2026-03-28T11:17:21.999Z</time></trkpt><trkpt lat="44.742037700345854" lon="9.289037460657903"><ele>1045.0</ele><time>2026-03-28T11:17:22.999Z</time></trkpt><trkpt lat="44.741986213297146" lon="9.288899797267968"><ele>1045.0</ele><time>2026-03-28T11:17:23.999Z</time></trkpt><trkpt lat="44.74193231800059" lon="9.288764199481657"><ele>1045.0</ele><time>2026-03-28T11:17:24.999Z</time></trkpt><trkpt lat="44.7418775899764" lon="9.288625027886498"><ele>1043.0</ele><time>2026-03-28T11:17:25.999Z</time></trkpt><trkpt lat="44.7418354901403" lon="9.288473242275673"><ele>1041.0</ele><time>2026-03-28T11:17:26.999Z</time></trkpt><trkpt lat="44.7418060289495" lon="9.288313795645259"><ele>1039.0</ele><time>2026-03-28T11:17:27.999Z</time></trkpt><trkpt lat="44.741768028431196" lon="9.28815662547591"><ele>1037.0</ele><time>2026-03-28T11:17:28.999Z</time></trkpt><trkpt lat="44.7417085895427" lon="9.288015989226032"><ele>1035.25</ele><time>2026-03-28T11:17:29.999Z</time></trkpt><trkpt lat="44.741664958631" lon="9.287869589475722"><ele>1033.5</ele><time>2026-03-28T11:17:30.999Z</time></trkpt><trkpt lat="44.74161275256951" lon="9.287727725151832"><ele>1031.75</ele><time>2026-03-28T11:17:31.999Z</time></trkpt><trkpt lat="44.7415785592171" lon="9.287569888832401"><ele>1030.0</ele><time>2026-03-28T11:17:32.999Z</time></trkpt><trkpt lat="44.74154036880672" lon="9.287424179077732"><ele>1030.0</ele><time>2026-03-28T11:17:33.999Z</time></trkpt><trkpt lat="44.74148847800872" lon="9.287278469430973"><ele>1030.0</ele><time>2026-03-28T11:17:34.999Z</time></trkpt><trkpt lat="44.74145579507531" lon="9.287113784339413"><ele>1030.0</ele><time>2026-03-28T11:17:35.999Z</time></trkpt><trkpt lat="44.74139719163983" lon="9.286958689608145"><ele>1030.0</ele><time>2026-03-28T11:17:36.999Z</time></trkpt><trkpt lat="44.741335543852664" lon="9.286814333236386"><ele>1026.6</ele><time>2026-03-28T11:17:37.999Z</time></trkpt><trkpt lat="44.741266160730085" lon="9.28668216353335"><ele>1023.2</ele><time>2026-03-28T11:17:38.999Z</time></trkpt><trkpt lat="44.74118599189722" lon="9.286565998121414"><ele>1019.8</ele><time>2026-03-28T11:17:39.999Z</time></trkpt><trkpt lat="44.74112633908512" lon="9.286442887917296"><ele>1016.4</ele><time>2026-03-28T11:17:40.999Z</time></trkpt><trkpt lat="44.741075481840035" lon="9.286312994193729"><ele>1013.0</ele><time>2026-03-28T11:17:41.998Z</time></trkpt><trkpt lat="44.74101784969203" lon="9.28618330830709"><ele>1012.2</ele><time>2026-03-28T11:17:42.998Z</time></trkpt><trkpt lat="44.74097941362254" lon="9.286076390311067"><ele>1011.4</ele><time>2026-03-28T11:17:43.998Z</time></trkpt><trkpt lat="44.7409117891231" lon="9.285968277310895"><ele>1010.6000000000001</ele><time>2026-03-28T11:17:44.998Z</time></trkpt><trkpt lat="44.74082390095983" lon="9.285864245083385"><ele>1009.8000000000001</ele><time>2026-03-28T11:17:45.998Z</time></trkpt><trkpt lat="44.74071848477667" lon="9.285774728071143"><ele>1009.0</ele><time>2026-03-28T11:17:46.998Z</time></trkpt><trkpt lat="44.74060423827445" lon="9.285704082389765"><ele>1009.0</ele><time>2026-03-28T11:17:47.998Z</time></trkpt><trkpt lat="44.74050687150618" lon="9.28560030733987"><ele>1009.0</ele><time>2026-03-28T11:17:48.998Z</time></trkpt><trkpt lat="44.740404782695364" lon="9.285502206675803"><ele>1009.0</ele><time>2026-03-28T11:17:49.998Z</time></trkpt><trkpt lat="44.740302367390306" lon="9.285409827686188"><ele>1009.0</ele><time>2026-03-28T11:17:50.998Z</time></trkpt><trkpt lat="44.74020952895" lon="9.285320579900587"><ele>1005.5</ele><time>2026-03-28T11:17:51.998Z</time></trkpt><trkpt lat="44.7401169115877" lon="9.285237355425707"><ele>1002.0</ele><time>2026-03-28T11:17:52.998Z</time></trkpt><trkpt lat="44.740029691040476" lon="9.28513753891106"><ele>998.5</ele><time>2026-03-28T11:17:53.998Z</time></trkpt><trkpt lat="44.739947060775016" lon="9.285027264469143"><ele>995.0</ele><time>2026-03-28T11:17:54.998Z</time></trkpt><trkpt lat="44.739870141473595" lon="9.284903910322473"><ele>995.0</ele><time>2026-03-28T11:17:55.998Z</time></trkpt><trkpt lat="44.73979822859036" lon="9.284799227825147"><ele>995.0</ele><time>2026-03-28T11:17:56.998Z</time></trkpt><trkpt lat="44.73973016404826" lon="9.284697979487186"><ele>995.0</ele><time>2026-03-28T11:17:57.998Z</time></trkpt><trkpt lat="44.739665567564835" lon="9.284593213676759"><ele>995.0</ele><time>2026-03-28T11:17:58.998Z</time></trkpt><trkpt lat="44.73961223840412" lon="9.284465428604586"><ele>995.0</ele><time>2026-03-28T11:17:59.998Z</time></trkpt><trkpt lat="44.73956436650486" lon="9.284325076612172"><ele>994.0</ele><time>2026-03-28T11:18:00.998Z</time></trkpt><trkpt lat="44.739510861300474" lon="9.284186029335425"><ele>993.0</ele><time>2026-03-28T11:18:01.998Z</time></trkpt><trkpt lat="44.73945590517837" lon="9.28404780353716"><ele>992.0</ele><time>2026-03-28T11:18:02.998Z</time></trkpt><trkpt lat="44.73940722886017" lon="9.283914688166949"><ele>991.0</ele><time>2026-03-28T11:18:03.998Z</time></trkpt><trkpt lat="44.73935575086655" lon="9.283780052649952"><ele>990.0</ele><time>2026-03-28T11:18:04.998Z</time></trkpt><trkpt lat="44.73930062139548" lon="9.283648290512058"><ele>985.6</ele><time>2026-03-28T11:18:05.998Z</time></trkpt><trkpt lat="44.73925039473193" lon="9.283518683197922"><ele>981.2</ele><time>2026-03-28T11:18:06.998Z</time></trkpt><trkpt lat="44.73919739706859" lon="9.283403483618228"><ele>976.8</ele><time>2026-03-28T11:18:07.998Z</time></trkpt><trkpt lat="44.73915218180699" lon="9.283277931270943"><ele>972.4</ele><time>2026-03-28T11:18:08.998Z</time></trkpt><trkpt lat="44.739103256973166" lon="9.283155347545971"><ele>968.0</ele><time>2026-03-28T11:18:09.998Z</time></trkpt><trkpt lat="44.73905389990837" lon="9.283037301805948"><ele>967.0</ele><time>2026-03-28T11:18:10.998Z</time></trkpt><trkpt lat="44.739037724164035" lon="9.282907964585595"><ele>966.0</ele><time>2026-03-28T11:18:11.998Z</time></trkpt><trkpt lat="44.73901561227456" lon="9.282789360770897"><ele>965.0</ele><time>2026-03-28T11:18:12.998Z</time></trkpt><trkpt lat="44.738987529912" lon="9.282669843132448"><ele>964.0</ele><time>2026-03-28T11:18:13.998Z</time></trkpt><trkpt lat="44.7389569778679" lon="9.282549476425833"><ele>963.0</ele><time>2026-03-28T11:18:14.998Z</time></trkpt><trkpt lat="44.738924591132886" lon="9.282432665311847"><ele>963.0</ele><time>2026-03-28T11:18:15.998Z</time></trkpt><trkpt lat="44.738888772715555" lon="9.282316205100425"><ele>963.0</ele><time>2026-03-28T11:18:16.998Z</time></trkpt><trkpt lat="44.73884842339986" lon="9.28220578747032"><ele>963.0</ele><time>2026-03-28T11:18:17.998Z</time></trkpt><trkpt lat="44.73879511281775" lon="9.28209721031058"><ele>963.0</ele><time>2026-03-28T11:18:18.998Z</time></trkpt><trkpt lat="44.7387303105221" lon="9.282001188030565"><ele>963.0</ele><time>2026-03-28T11:18:19.998Z</time></trkpt><trkpt lat="44.73866688226003" lon="9.281925407148952"><ele>963.0</ele><time>2026-03-28T11:18:20.998Z</time></trkpt><trkpt lat="44.738600292962666" lon="9.281861933485933"><ele>961.8333333333334</ele><time>2026-03-28T11:18:21.998Z</time></trkpt><trkpt lat="44.73854151808982" lon="9.281804492884888"><ele>960.6666666666667</ele><time>2026-03-28T11:18:22.998Z</time></trkpt><trkpt lat="44.73846238230543" lon="9.281714608844075"><ele>959.5</ele><time>2026-03-28T11:18:24.998Z</time></trkpt><trkpt lat="44.73837115482993" lon="9.281824209713863"><ele>958.3333333333334</ele><time>2026-03-28T11:18:28.998Z</time></trkpt><trkpt lat="44.73837115482896" lon="9.2819183459805"><ele>957.1666666666667</ele><time>2026-03-28T11:18:29.998Z</time></trkpt><trkpt lat="44.73835380082668" lon="9.282016198107268"><ele>956.0</ele><time>2026-03-28T11:18:30.998Z</time></trkpt><trkpt lat="44.7383244654182" lon="9.282121345101098"><ele>956.0000000000001</ele><time>2026-03-28T11:18:32.998Z</time></trkpt><trkpt lat="44.73829540963765" lon="9.282235988375195"><ele>956.0</ele><time>2026-03-28T11:18:34.997Z</time></trkpt><trkpt lat="44.738359298854874" lon="9.282326989558031"><ele>956.0</ele><time>2026-03-28T11:18:39.999Z</time></trkpt><trkpt lat="44.73831525379024" lon="9.282396467274422"><ele>956.0</ele><time>2026-03-28T11:19:32.999Z</time></trkpt><trkpt lat="44.73844745195945" lon="9.282452164009204"><ele>956.0000000000001</ele><time>2026-03-28T11:19:46.028Z</time></trkpt><trkpt lat="44.73845685248654" lon="9.282360636066095"><ele>956.0</ele><time>2026-03-28T11:19:57.025Z</time></trkpt><trkpt lat="44.73840049961574" lon="9.282108753058704"><ele>956.0</ele><time>2026-03-28T11:20:26.403Z</time></trkpt><trkpt lat="44.73853444388553" lon="9.282332768895543"><ele>956.0</ele><time>2026-03-28T11:25:16.014Z</time></trkpt><trkpt lat="44.738471406094014" lon="9.282249614913269"><ele>956.0</ele><time>2026-03-28T11:25:17.014Z</time></trkpt><trkpt lat="44.73838144565717" lon="9.282291302207136"><ele>956.0</ele><time>2026-03-28T11:25:20.993Z</time></trkpt><trkpt lat="44.738352110560484" lon="9.282184033750807"><ele>956.0000000000001</ele><time>2026-03-28T11:55:34Z</time></trkpt><trkpt lat="44.738371523875976" lon="9.282051553365758"><ele>956.0</ele><time>2026-03-28T11:55:36Z</time></trkpt><trkpt lat="44.73839694773583" lon="9.281957497168627"><ele>956.0</ele><time>2026-03-28T11:55:38Z</time></trkpt><trkpt lat="44.73840225901514" lon="9.281846385563702"><ele>956.0</ele><time>2026-03-28T11:55:39.999Z</time></trkpt><trkpt lat="44.738393806559955" lon="9.281743450458615"><ele>956.0000000000001</ele><time>2026-03-28T11:55:41.999Z</time></trkpt><trkpt lat="44.738391378112354" lon="9.281602374880823"><ele>956.0</ele><time>2026-03-28T11:55:44.999Z</time></trkpt><trkpt lat="44.73835158033263" lon="9.28146774268617"><ele>955.3333333333334</ele><time>2026-03-28T11:55:46.999Z</time></trkpt><trkpt lat="44.73828856802111" lon="9.281378115342635"><ele>954.6666666666667</ele><time>2026-03-28T11:55:48.999Z</time></trkpt><trkpt lat="44.73824361438476" lon="9.281290746308972"><ele>954.0</ele><time>2026-03-28T11:55:50.999Z</time></trkpt><trkpt lat="44.738209694532756" lon="9.281181184135521"><ele>953.3333333333333</ele><time>2026-03-28T11:55:53.999Z</time></trkpt><trkpt lat="44.73824170329364" lon="9.281085489090954"><ele>952.6666666666666</ele><time>2026-03-28T11:55:55.999Z</time></trkpt><trkpt lat="44.73828416473162" lon="9.28100705175081"><ele>952.0</ele><time>2026-03-28T11:55:57.999Z</time></trkpt><trkpt lat="44.73831965205656" lon="9.280929652109553"><ele>952.0</ele><time>2026-03-28T11:55:59.999Z</time></trkpt><trkpt lat="44.73837112686227" lon="9.280840512000813"><ele>952.0</ele><time>2026-03-28T11:56:01.999Z</time></trkpt><trkpt lat="44.73841313819272" lon="9.28077407403926"><ele>952.0</ele><time>2026-03-28T11:56:03.999Z</time></trkpt><trkpt lat="44.738479034630004" lon="9.28075242815327"><ele>952.0</ele><time>2026-03-28T11:58:58.998Z</time></trkpt><trkpt lat="44.73853511046957" lon="9.280800234131497"><ele>952.0</ele><time>2026-03-28T12:01:29Z</time></trkpt><trkpt lat="44.738552711708095" lon="9.28088918049817"><ele>952.0</ele><time>2026-03-28T12:01:43Z</time></trkpt><trkpt lat="44.7385423590826" lon="9.28079853114228"><ele>952.0</ele><time>2026-03-28T12:08:49.999Z</time></trkpt><trkpt lat="44.73848354572245" lon="9.280831372586613"><ele>951.9999999999999</ele><time>2026-03-28T12:09:15.998Z</time></trkpt><trkpt lat="44.73839455949783" lon="9.280867721975518"><ele>952.0</ele><time>2026-03-28T12:09:32Z</time></trkpt><trkpt lat="44.73830757947078" lon="9.280913452672346"><ele>952.0</ele><time>2026-03-28T12:09:35Z</time></trkpt><trkpt lat="44.73823775521955" lon="9.280959865631903"><ele>952.0</ele><time>2026-03-28T12:09:37Z</time></trkpt><trkpt lat="44.73817842452282" lon="9.281035591184908"><ele>951.9999999999999</ele><time>2026-03-28T12:09:39Z</time></trkpt><trkpt lat="44.738162566962615" lon="9.281142446737984"><ele>952.0</ele><time>2026-03-28T12:09:41Z</time></trkpt><trkpt lat="44.73815757756705" lon="9.281239949360202"><ele>951.9999999999999</ele><time>2026-03-28T12:09:43Z</time></trkpt><trkpt lat="44.73814520302566" lon="9.281389318581942"><ele>952.0</ele><time>2026-03-28T12:09:45Z</time></trkpt><trkpt lat="44.73814789557266" lon="9.281551452466736"><ele>952.0</ele><time>2026-03-28T12:09:47Z</time></trkpt><trkpt lat="44.7381566522609" lon="9.281648783161417"><ele>952.0</ele><time>2026-03-28T12:09:48Z</time></trkpt><trkpt lat="44.73816968716916" lon="9.281745253879642"><ele>951.9999999999999</ele><time>2026-03-28T12:09:49Z</time></trkpt><trkpt lat="44.7381573844705" lon="9.28185457954033"><ele>952.0</ele><time>2026-03-28T12:09:50Z</time></trkpt><trkpt lat="44.738168111418815" lon="9.281978148859988"><ele>952.6666666666666</ele><time>2026-03-28T12:09:51Z</time></trkpt><trkpt lat="44.73817857254983" lon="9.282098656061596"><ele>953.3333333333333</ele><time>2026-03-28T12:09:52Z</time></trkpt><trkpt lat="44.73818883355917" lon="9.282216857783153"><ele>954.0</ele><time>2026-03-28T12:09:53Z</time></trkpt><trkpt lat="44.73819808398676" lon="9.28232496790961"><ele>954.6666666666667</ele><time>2026-03-28T12:09:54Z</time></trkpt><trkpt lat="44.73819386123358" lon="9.282433758974268"><ele>955.3333333333334</ele><time>2026-03-28T12:09:55Z</time></trkpt><trkpt lat="44.73816613198113" lon="9.282539926847194"><ele>956.0</ele><time>2026-03-28T12:09:56Z</time></trkpt><trkpt lat="44.73812815506092" lon="9.282657382371342"><ele>956.0000000000001</ele><time>2026-03-28T12:09:57Z</time></trkpt><trkpt lat="44.73808522877733" lon="9.282765785315334"><ele>956.0</ele><time>2026-03-28T12:09:58Z</time></trkpt><trkpt lat="44.73803977562168" lon="9.282877322796244"><ele>956.0</ele><time>2026-03-28T12:09:59Z</time></trkpt><trkpt lat="44.737993966929494" lon="9.282981836964822"><ele>956.0</ele><time>2026-03-28T12:10:00Z</time></trkpt><trkpt lat="44.737959747555166" lon="9.283082888135723"><ele>956.0000000000001</ele><time>2026-03-28T12:10:01Z</time></trkpt><trkpt lat="44.73794245067098" lon="9.283172641296725"><ele>956.0</ele><time>2026-03-28T12:10:02Z</time></trkpt><trkpt lat="44.737938269828255" lon="9.283346802409236"><ele>955.5999999999999</ele><time>2026-03-28T12:10:04Z</time></trkpt><trkpt lat="44.73798671855936" lon="9.283446863650493"><ele>955.1999999999999</ele><time>2026-03-28T12:10:05Z</time></trkpt><trkpt lat="44.73807521960104" lon="9.283515699048055"><ele>954.8000000000001</ele><time>2026-03-28T12:10:06Z</time></trkpt><trkpt lat="44.738152586155735" lon="9.283596145080798"><ele>954.4000000000001</ele><time>2026-03-28T12:10:07Z</time></trkpt><trkpt lat="44.73823813085513" lon="9.283668788699334"><ele>954.0</ele><time>2026-03-28T12:10:08Z</time></trkpt><trkpt lat="44.73832240392207" lon="9.28376022025784"><ele>954.0</ele><time>2026-03-28T12:10:09Z</time></trkpt><trkpt lat="44.73840611742677" lon="9.283861168541668"><ele>954.0000000000001</ele><time>2026-03-28T12:10:10Z</time></trkpt><trkpt lat="44.738483681579694" lon="9.283965093892983"><ele>954.0000000000001</ele><time>2026-03-28T12:10:11Z</time></trkpt><trkpt lat="44.738565022235655" lon="9.284061182064862"><ele>954.0</ele><time>2026-03-28T12:10:12Z</time></trkpt><trkpt lat="44.73863039078414" lon="9.284174328242619"><ele>954.0</ele><time>2026-03-28T12:10:13Z</time></trkpt><trkpt lat="44.73868610180136" lon="9.284303627358208"><ele>954.8000000000001</ele><time>2026-03-28T12:10:13.999Z</time></trkpt><trkpt lat="44.73872013131743" lon="9.284444373227004"><ele>955.6000000000001</ele><time>2026-03-28T12:10:14.999Z</time></trkpt><trkpt lat="44.7387492681466" lon="9.284570680959607"><ele>956.4</ele><time>2026-03-28T12:10:15.999Z</time></trkpt><trkpt lat="44.73878472767207" lon="9.284692684726277"><ele>957.2</ele><time>2026-03-28T12:10:16.999Z</time></trkpt><trkpt lat="44.73880326072572" lon="9.284834021063952"><ele>958.0</ele><time>2026-03-28T12:10:17.999Z</time></trkpt><trkpt lat="44.73883628203166" lon="9.284978477892247"><ele>958.0</ele><time>2026-03-28T12:10:18.999Z</time></trkpt><trkpt lat="44.738868111820096" lon="9.285127784913195"><ele>958.0</ele><time>2026-03-28T12:10:19.999Z</time></trkpt><trkpt lat="44.73892856096563" lon="9.285267668114914"><ele>958.0</ele><time>2026-03-28T12:10:20.999Z</time></trkpt><trkpt lat="44.73895973085175" lon="9.285416952297163"><ele>958.0</ele><time>2026-03-28T12:10:21.999Z</time></trkpt><trkpt lat="44.738966504592156" lon="9.285561820051443"><ele>958.0</ele><time>2026-03-28T12:10:22.999Z</time></trkpt><trkpt lat="44.738946022199144" lon="9.285700101150233"><ele>956.5999999999999</ele><time>2026-03-28T12:10:23.999Z</time></trkpt><trkpt lat="44.73888627966812" lon="9.28582034231261"><ele>955.1999999999999</ele><time>2026-03-28T12:10:24.999Z</time></trkpt><trkpt lat="44.73885836579952" lon="9.285961958814394"><ele>953.8</ele><time>2026-03-28T12:10:25.999Z</time></trkpt><trkpt lat="44.738839340251985" lon="9.286104629352597"><ele>952.4</ele><time>2026-03-28T12:10:26.999Z</time></trkpt><trkpt lat="44.73884187871254" lon="9.286254037743232"><ele>951.0</ele><time>2026-03-28T12:10:27.999Z</time></trkpt><trkpt lat="44.73888531117693" lon="9.28639082823845"><ele>950.1999999999999</ele><time>2026-03-28T12:10:28.999Z</time></trkpt><trkpt lat="44.73894481263914" lon="9.28649770644175"><ele>949.3999999999999</ele><time>2026-03-28T12:10:29.999Z</time></trkpt><trkpt lat="44.7390104259917" lon="9.286604879530032"><ele>948.6</ele><time>2026-03-28T12:10:30.999Z</time></trkpt><trkpt lat="44.73908208257329" lon="9.286715955631323"><ele>947.8</ele><time>2026-03-28T12:10:31.999Z</time></trkpt><trkpt lat="44.739159936305605" lon="9.286823482321514"><ele>947.0</ele><time>2026-03-28T12:10:32.999Z</time></trkpt><trkpt lat="44.739225223344725" lon="9.28692982748217"><ele>947.0</ele><time>2026-03-28T12:10:33.999Z</time></trkpt><trkpt lat="44.73926944280267" lon="9.287043774888675"><ele>947.0</ele><time>2026-03-28T12:10:34.999Z</time></trkpt><trkpt lat="44.73928909170275" lon="9.287163365895047"><ele>947.0</ele><time>2026-03-28T12:10:35.999Z</time></trkpt><trkpt lat="44.73927099501013" lon="9.287276480962266"><ele>947.0</ele><time>2026-03-28T12:10:36.999Z</time></trkpt><trkpt lat="44.73925399133264" lon="9.287406578455359"><ele>947.0</ele><time>2026-03-28T12:10:37.999Z</time></trkpt><trkpt lat="44.73923622741585" lon="9.287547300012527"><ele>945.8</ele><time>2026-03-28T12:10:38.999Z</time></trkpt><trkpt lat="44.739219114721294" lon="9.287698565019504"><ele>944.6</ele><time>2026-03-28T12:10:39.999Z</time></trkpt><trkpt lat="44.73920339223075" lon="9.287841379020135"><ele>943.3999999999999</ele><time>2026-03-28T12:10:40.999Z</time></trkpt><trkpt lat="44.73919186110586" lon="9.287994668884144"><ele>942.1999999999999</ele><time>2026-03-28T12:10:41.999Z</time></trkpt><trkpt lat="44.739193905743385" lon="9.288163204726661"><ele>941.0</ele><time>2026-03-28T12:10:42.999Z</time></trkpt><trkpt lat="44.73922930584234" lon="9.288321585174897"><ele>939.5</ele><time>2026-03-28T12:10:43.999Z</time></trkpt><trkpt lat="44.73928212087484" lon="9.288466232142687"><ele>938.0</ele><time>2026-03-28T12:10:44.999Z</time></trkpt><trkpt lat="44.73933329811218" lon="9.288612212701622"><ele>936.5</ele><time>2026-03-28T12:10:45.999Z</time></trkpt><trkpt lat="44.73938407105406" lon="9.28876062601909"><ele>935.0</ele><time>2026-03-28T12:10:46.999Z</time></trkpt><trkpt lat="44.73942279824124" lon="9.288897086343436"><ele>934.2</ele><time>2026-03-28T12:10:47.999Z</time></trkpt><trkpt lat="44.73944539290528" lon="9.28903542584004"><ele>933.4</ele><time>2026-03-28T12:10:48.999Z</time></trkpt><trkpt lat="44.739448183023285" lon="9.289175295859966"><ele>932.5999999999999</ele><time>2026-03-28T12:10:49.999Z</time></trkpt><trkpt lat="44.73943653056522" lon="9.289310267141493"><ele>931.8</ele><time>2026-03-28T12:10:50.999Z</time></trkpt><trkpt lat="44.73940988004303" lon="9.289451375975174"><ele>931.0</ele><time>2026-03-28T12:10:51.999Z</time></trkpt><trkpt lat="44.73936802310996" lon="9.289594384243324"><ele>931.0</ele><time>2026-03-28T12:10:52.999Z</time></trkpt><trkpt lat="44.73932139454301" lon="9.289735267175217"><ele>930.9999999999999</ele><time>2026-03-28T12:10:53.999Z</time></trkpt><trkpt lat="44.739292488691405" lon="9.289873038437252"><ele>930.9999999999999</ele><time>2026-03-28T12:10:54.999Z</time></trkpt><trkpt lat="44.73928675479987" lon="9.290016991753298"><ele>931.0</ele><time>2026-03-28T12:10:55.999Z</time></trkpt><trkpt lat="44.73932219957248" lon="9.290160981076648"><ele>931.0</ele><time>2026-03-28T12:10:56.999Z</time></trkpt><trkpt lat="44.73937291170561" lon="9.290298248803406"><ele>937.8</ele><time>2026-03-28T12:10:57.999Z</time></trkpt><trkpt lat="44.73942935039694" lon="9.29043322989396"><ele>944.5999999999999</ele><time>2026-03-28T12:10:58.999Z</time></trkpt><trkpt lat="44.73948199593908" lon="9.290572712472727"><ele>951.4</ele><time>2026-03-28T12:10:59.999Z</time></trkpt><trkpt lat="44.73951124856979" lon="9.290693970019449"><ele>958.2</ele><time>2026-03-28T12:11:00.999Z</time></trkpt><trkpt lat="44.73950777989009" lon="9.290818570114338"><ele>965.0</ele><time>2026-03-28T12:11:01.999Z</time></trkpt><trkpt lat="44.739478360444586" lon="9.290934912347273"><ele>965.0</ele><time>2026-03-28T12:11:02.999Z</time></trkpt><trkpt lat="44.73943436701541" lon="9.291050859517778"><ele>965.0</ele><time>2026-03-28T12:11:03.999Z</time></trkpt><trkpt lat="44.73939482044661" lon="9.291175850217956"><ele>965.0</ele><time>2026-03-28T12:11:04.999Z</time></trkpt><trkpt lat="44.739387149565545" lon="9.291320582643873"><ele>965.0</ele><time>2026-03-28T12:11:05.998Z</time></trkpt><trkpt lat="44.73941997774818" lon="9.291470237630987"><ele>965.0</ele><time>2026-03-28T12:11:06.998Z</time></trkpt><trkpt lat="44.73947026628427" lon="9.291604840700007"><ele>963.75</ele><time>2026-03-28T12:11:07.998Z</time></trkpt><trkpt lat="44.73952607162787" lon="9.291746725098506"><ele>962.5</ele><time>2026-03-28T12:11:08.998Z</time></trkpt><trkpt lat="44.739597454862526" lon="9.291873073583968"><ele>961.25</ele><time>2026-03-28T12:11:09.998Z</time></trkpt><trkpt lat="44.73964201253751" lon="9.292018933608384"><ele>960.0</ele><time>2026-03-28T12:11:10.998Z</time></trkpt><trkpt lat="44.739692012069874" lon="9.292168358839307"><ele>958.2</ele><time>2026-03-28T12:11:11.998Z</time></trkpt><trkpt lat="44.739734171511984" lon="9.292305961458721"><ele>956.4</ele><time>2026-03-28T12:11:12.998Z</time></trkpt><trkpt lat="44.73977060685048" lon="9.292443435155652"><ele>954.5999999999999</ele><time>2026-03-28T12:11:13.998Z</time></trkpt><trkpt lat="44.73980173431572" lon="9.292590634222458"><ele>952.8</ele><time>2026-03-28T12:11:14.998Z</time></trkpt><trkpt lat="44.73985560024136" lon="9.2927160820404"><ele>951.0</ele><time>2026-03-28T12:11:15.998Z</time></trkpt><trkpt lat="44.73992552131824" lon="9.292825865793427"><ele>951.0</ele><time>2026-03-28T12:11:16.998Z</time></trkpt><trkpt lat="44.739988576282016" lon="9.292921741549145"><ele>951.0</ele><time>2026-03-28T12:11:17.998Z</time></trkpt><trkpt lat="44.740060688713456" lon="9.292997236226393"><ele>951.0</ele><time>2026-03-28T12:11:18.998Z</time></trkpt><trkpt lat="44.74010724569809" lon="9.293102192383424"><ele>951.0</ele><time>2026-03-28T12:11:19.998Z</time></trkpt><trkpt lat="44.74012468691057" lon="9.293217309067641"><ele>951.0</ele><time>2026-03-28T12:11:20.998Z</time></trkpt><trkpt lat="44.74011561180494" lon="9.293336054698072"><ele>951.0</ele><time>2026-03-28T12:11:21.998Z</time></trkpt><trkpt lat="44.740103845827576" lon="9.293462961497116"><ele>949.1999999999999</ele><time>2026-03-28T12:11:22.998Z</time></trkpt><trkpt lat="44.740109532638165" lon="9.293596006590123"><ele>947.3999999999999</ele><time>2026-03-28T12:11:23.998Z</time></trkpt><trkpt lat="44.74014320105574" lon="9.293723476648273"><ele>945.6</ele><time>2026-03-28T12:11:24.998Z</time></trkpt><trkpt lat="44.74019953123738" lon="9.29384227606716"><ele>943.8</ele><time>2026-03-28T12:11:25.998Z</time></trkpt><trkpt lat="44.740246875798434" lon="9.293969617681121"><ele>942.0</ele><time>2026-03-28T12:11:26.998Z</time></trkpt><trkpt lat="44.7402822495852" lon="9.294111057000594"><ele>946.8</ele><time>2026-03-28T12:11:27.998Z</time></trkpt><trkpt lat="44.740257007431104" lon="9.29424910543314"><ele>951.6</ele><time>2026-03-28T12:11:28.998Z</time></trkpt><trkpt lat="44.74025792135152" lon="9.294389540707185"><ele>956.3999999999999</ele><time>2026-03-28T12:11:29.998Z</time></trkpt><trkpt lat="44.740289064470396" lon="9.294521535339515"><ele>961.1999999999999</ele><time>2026-03-28T12:11:30.998Z</time></trkpt><trkpt lat="44.740348780590786" lon="9.294646017437913"><ele>966.0</ele><time>2026-03-28T12:11:31.998Z</time></trkpt><trkpt lat="44.7404355072999" lon="9.294729681346338"><ele>966.0</ele><time>2026-03-28T12:11:32.998Z</time></trkpt><trkpt lat="44.74049044455983" lon="9.294819881246102"><ele>965.9999999999999</ele><time>2026-03-28T12:11:34Z</time></trkpt><trkpt lat="44.74058177524746" lon="9.294855050792677"><ele>965.9999999999999</ele><time>2026-03-28T12:11:35Z</time></trkpt><trkpt lat="44.74068992082414" lon="9.294834542047676"><ele>966.0</ele><time>2026-03-28T12:11:36Z</time></trkpt><trkpt lat="44.740775235823094" lon="9.294789137425965"><ele>966.0</ele><time>2026-03-28T12:11:37Z</time></trkpt><trkpt lat="44.740846207897455" lon="9.294724135231604"><ele>966.0</ele><time>2026-03-28T12:11:38Z</time></trkpt><trkpt lat="44.74097150064628" lon="9.294652039751982"><ele>966.0</ele><time>2026-03-28T12:11:39Z</time></trkpt><trkpt lat="44.74110631529063" lon="9.294685924968496"><ele>966.0</ele><time>2026-03-28T12:11:40Z</time></trkpt><trkpt lat="44.74121470781842" lon="9.294837667612528"><ele>966.0</ele><time>2026-03-28T12:11:41Z</time></trkpt><trkpt lat="44.74119575079423" lon="9.294951075904214"><ele>965.5999999999999</ele><time>2026-03-28T12:11:42Z</time></trkpt><trkpt lat="44.74117380077989" lon="9.295057808034946"><ele>965.1999999999999</ele><time>2026-03-28T12:11:44Z</time></trkpt><trkpt lat="44.74115505477642" lon="9.295298326549132"><ele>964.8000000000001</ele><time>2026-03-28T12:11:45Z</time></trkpt><trkpt lat="44.74117331785965" lon="9.295427785851135"><ele>964.4000000000001</ele><time>2026-03-28T12:11:46Z</time></trkpt><trkpt lat="44.74118534362604" lon="9.295548666925479"><ele>964.0</ele><time>2026-03-28T12:11:47Z</time></trkpt><trkpt lat="44.741192686016795" lon="9.295672028755986"><ele>963.4999999999999</ele><time>2026-03-28T12:11:48Z</time></trkpt><trkpt lat="44.7411775793037" lon="9.295772560799117"><ele>963.0</ele><time>2026-03-28T12:11:49Z</time></trkpt><trkpt lat="44.741140522858565" lon="9.295875084811863"><ele>962.5</ele><time>2026-03-28T12:11:50Z</time></trkpt><trkpt lat="44.74108596389628" lon="9.295930315729729"><ele>962.0</ele><time>2026-03-28T12:11:51Z</time></trkpt><trkpt lat="44.741011750503006" lon="9.295963820989913"><ele>961.4999999999999</ele><time>2026-03-28T12:11:52Z</time></trkpt><trkpt lat="44.740921236476545" lon="9.29598482870528"><ele>961.0</ele><time>2026-03-28T12:11:53Z</time></trkpt><trkpt lat="44.740810317338465" lon="9.296009496829877"><ele>954.0</ele><time>2026-03-28T12:11:54Z</time></trkpt><trkpt lat="44.74073192553985" lon="9.296021801902338"><ele>947.0</ele><time>2026-03-28T12:11:55Z</time></trkpt><trkpt lat="44.74064829269335" lon="9.296034928830808"><ele>940.0</ele><time>2026-03-28T12:11:56Z</time></trkpt><trkpt lat="44.74049187252218" lon="9.296087761437697"><ele>933.0</ele><time>2026-03-28T12:11:57Z</time></trkpt><trkpt lat="44.74038418633207" lon="9.296196878088187"><ele>933.0</ele><time>2026-03-28T12:11:58Z</time></trkpt><trkpt lat="44.740299550101426" lon="9.296398127657149"><ele>933.0</ele><time>2026-03-28T12:11:59Z</time></trkpt><trkpt lat="44.740242760627005" lon="9.296568711612768"><ele>933.0</ele><time>2026-03-28T12:12:00Z</time></trkpt><trkpt lat="44.74018825330402" lon="9.296740946717335"><ele>933.0</ele><time>2026-03-28T12:12:01Z</time></trkpt><trkpt lat="44.74009305090209" lon="9.296892945464316"><ele>931.75</ele><time>2026-03-28T12:12:02Z</time></trkpt><trkpt lat="44.7400350395377" lon="9.297054347703444"><ele>930.5</ele><time>2026-03-28T12:12:03Z</time></trkpt><trkpt lat="44.739987607297515" lon="9.297202499485488"><ele>929.25</ele><time>2026-03-28T12:12:04Z</time></trkpt><trkpt lat="44.739981292864314" lon="9.297350010756627"><ele>928.0</ele><time>2026-03-28T12:12:05Z</time></trkpt><trkpt lat="44.739939084707004" lon="9.297479515184907"><ele>927.9999999999999</ele><time>2026-03-28T12:12:06Z</time></trkpt><trkpt lat="44.7399014573002" lon="9.297590108610182"><ele>928.0</ele><time>2026-03-28T12:12:07Z</time></trkpt><trkpt lat="44.73987374573988" lon="9.297694969007892"><ele>928.0</ele><time>2026-03-28T12:12:08Z</time></trkpt><trkpt lat="44.7398340967772" lon="9.297822980406222"><ele>928.0</ele><time>2026-03-28T12:12:10Z</time></trkpt><trkpt lat="44.7397974897245" lon="9.297932300551992"><ele>927.9999999999999</ele><time>2026-03-28T12:12:12Z</time></trkpt><trkpt lat="44.73975413102621" lon="9.298037739886974"><ele>928.0</ele><time>2026-03-28T12:12:14Z</time></trkpt><trkpt lat="44.73984100194907" lon="9.298220958256186"><ele>929.2</ele><time>2026-03-28T12:12:17Z</time></trkpt><trkpt lat="44.73995622095644" lon="9.29834197320296"><ele>930.4</ele><time>2026-03-28T12:12:18.999Z</time></trkpt><trkpt lat="44.740031118515645" lon="9.298422007813251"><ele>931.6000000000001</ele><time>2026-03-28T12:12:19.999Z</time></trkpt><trkpt lat="44.74009709011019" lon="9.298528800248983"><ele>932.8000000000001</ele><time>2026-03-28T12:12:20.999Z</time></trkpt><trkpt lat="44.74015986541656" lon="9.298610024136543"><ele>934.0</ele><time>2026-03-28T12:12:21.999Z</time></trkpt><trkpt lat="44.740210106628645" lon="9.298693070483186"><ele>934.0</ele><time>2026-03-28T12:12:22.999Z</time></trkpt><trkpt lat="44.740171530097406" lon="9.298814034777505"><ele>934.0000000000001</ele><time>2026-03-28T12:12:23.999Z</time></trkpt><trkpt lat="44.74016318478284" lon="9.29894599507136"><ele>934.0000000000001</ele><time>2026-03-28T12:12:24.999Z</time></trkpt><trkpt lat="44.740162221866115" lon="9.299112095248006"><ele>934.0</ele><time>2026-03-28T12:12:25.999Z</time></trkpt><trkpt lat="44.74020839694558" lon="9.299282837453717"><ele>934.0</ele><time>2026-03-28T12:12:26.999Z</time></trkpt><trkpt lat="44.7402701489115" lon="9.299452439732447"><ele>937.6</ele><time>2026-03-28T12:12:27.999Z</time></trkpt><trkpt lat="44.74031332839671" lon="9.299588773113253"><ele>941.2</ele><time>2026-03-28T12:12:28.999Z</time></trkpt><trkpt lat="44.74033327615429" lon="9.29969465709066"><ele>944.8000000000001</ele><time>2026-03-28T12:12:29.999Z</time></trkpt><trkpt lat="44.740299934903106" lon="9.299844618312106"><ele>948.4000000000001</ele><time>2026-03-28T12:12:31.999Z</time></trkpt><trkpt lat="44.7402438890528" lon="9.299885021548665"><ele>952.0</ele><time>2026-03-28T12:12:32.999Z</time></trkpt><trkpt lat="44.74016003103201" lon="9.299976971997264"><ele>952.0</ele><time>2026-03-28T12:12:33.999Z</time></trkpt><trkpt lat="44.74007374605708" lon="9.300096324046756"><ele>952.0</ele><time>2026-03-28T12:12:34.999Z</time></trkpt><trkpt lat="44.7399896387751" lon="9.300230067872329"><ele>952.0</ele><time>2026-03-28T12:12:35.999Z</time></trkpt><trkpt lat="44.739910972301445" lon="9.30036755740785"><ele>952.0</ele><time>2026-03-28T12:12:36.999Z</time></trkpt><trkpt lat="44.739855382641665" lon="9.300484097035733"><ele>951.9999999999999</ele><time>2026-03-28T12:12:37.999Z</time></trkpt><trkpt lat="44.73981298260316" lon="9.30057985808977"><ele>952.0</ele><time>2026-03-28T12:12:38.999Z</time></trkpt><trkpt lat="44.73979520210126" lon="9.30068326445977"><ele>952.0</ele><time>2026-03-28T12:12:39.999Z</time></trkpt><trkpt lat="44.739836065364194" lon="9.300767532175001"><ele>952.0</ele><time>2026-03-28T12:12:40.999Z</time></trkpt><trkpt lat="44.739930882313566" lon="9.300816436317062"><ele>951.9999999999999</ele><time>2026-03-28T12:12:41.999Z</time></trkpt><trkpt lat="44.740009534700214" lon="9.300854491237917"><ele>952.0</ele><time>2026-03-28T12:12:42.999Z</time></trkpt><trkpt lat="44.740122055280054" lon="9.30081091874729"><ele>953.3333333333333</ele><time>2026-03-28T12:12:44.999Z</time></trkpt><trkpt lat="44.74018535132623" lon="9.300860068089543"><ele>954.6666666666666</ele><time>2026-03-28T12:12:45.999Z</time></trkpt><trkpt lat="44.74022917869446" lon="9.30098483081939"><ele>956.0</ele><time>2026-03-28T12:12:47.999Z</time></trkpt><trkpt lat="44.74024860820301" lon="9.301081048835654"><ele>957.3333333333333</ele><time>2026-03-28T12:12:48.999Z</time></trkpt><trkpt lat="44.74027591702775" lon="9.30120901295398"><ele>958.6666666666666</ele><time>2026-03-28T12:12:49.999Z</time></trkpt><trkpt lat="44.740312198465034" lon="9.30134817891346"><ele>960.0</ele><time>2026-03-28T12:12:50.999Z</time></trkpt><trkpt lat="44.74032439915037" lon="9.301487159983399"><ele>964.6</ele><time>2026-03-28T12:12:51.999Z</time></trkpt><trkpt lat="44.74036747897413" lon="9.301598421542817"><ele>969.2</ele><time>2026-03-28T12:12:52.999Z</time></trkpt><trkpt lat="44.74043986322513" lon="9.301676943777103"><ele>973.8</ele><time>2026-03-28T12:12:53.999Z</time></trkpt><trkpt lat="44.74052515489147" lon="9.301721076869864"><ele>978.4</ele><time>2026-03-28T12:12:54.999Z</time></trkpt><trkpt lat="44.74063033162003" lon="9.301673636233419"><ele>983.0</ele><time>2026-03-28T12:12:55.999Z</time></trkpt><trkpt lat="44.74070019505763" lon="9.301665648430742"><ele>983.0</ele><time>2026-03-28T12:12:56.999Z</time></trkpt><trkpt lat="44.74075897157235" lon="9.30169926489359"><ele>983.0</ele><time>2026-03-28T12:12:58.999Z</time></trkpt><trkpt lat="44.74079491335957" lon="9.301798866876647"><ele>983.0</ele><time>2026-03-28T12:13:00.999Z</time></trkpt><trkpt lat="44.740741665275195" lon="9.301950072299567"><ele>983.0</ele><time>2026-03-28T12:13:02.999Z</time></trkpt><trkpt lat="44.74067053348869" lon="9.302045797095106"><ele>983.0</ele><time>2026-03-28T12:13:03.999Z</time></trkpt><trkpt lat="44.74058687662996" lon="9.302123409658291"><ele>983.0000000000001</ele><time>2026-03-28T12:13:04.999Z</time></trkpt><trkpt lat="44.74048668528744" lon="9.302169223808221"><ele>983.0</ele><time>2026-03-28T12:13:05.999Z</time></trkpt><trkpt lat="44.74040901167795" lon="9.3021888205658"><ele>983.0</ele><time>2026-03-28T12:13:06.999Z</time></trkpt><trkpt lat="44.740331224518506" lon="9.302286518433155"><ele>983.0</ele><time>2026-03-28T12:13:08.999Z</time></trkpt><trkpt lat="44.74033515818141" lon="9.302382272006353"><ele>983.0000000000001</ele><time>2026-03-28T12:13:10.998Z</time></trkpt><trkpt lat="44.740410444102906" lon="9.302408568415794"><ele>983.0</ele><time>2026-03-28T12:13:11.998Z</time></trkpt><trkpt lat="44.74049014978394" lon="9.302418408714278"><ele>983.6666666666667</ele><time>2026-03-28T12:13:12.998Z</time></trkpt><trkpt lat="44.74058443474164" lon="9.302441513690354"><ele>984.3333333333334</ele><time>2026-03-28T12:13:13.998Z</time></trkpt><trkpt lat="44.740668161272204" lon="9.302468683393217"><ele>985.0</ele><time>2026-03-28T12:13:14.998Z</time></trkpt><trkpt lat="44.74074414076823" lon="9.30251269029925"><ele>985.6666666666667</ele><time>2026-03-28T12:13:15.998Z</time></trkpt><trkpt lat="44.740794919204795" lon="9.302570643435331"><ele>986.3333333333334</ele><time>2026-03-28T12:13:16.998Z</time></trkpt><trkpt lat="44.74086002874429" lon="9.302665778988057"><ele>987.0</ele><time>2026-03-28T12:13:18.998Z</time></trkpt><trkpt lat="44.74092631425992" lon="9.302718221734853"><ele>987.0</ele><time>2026-03-28T12:13:19.998Z</time></trkpt><trkpt lat="44.7410094035425" lon="9.302787698026876"><ele>987.0</ele><time>2026-03-28T12:13:20.998Z</time></trkpt><trkpt lat="44.74106948109693" lon="9.302902730933917"><ele>987.0</ele><time>2026-03-28T12:13:21.998Z</time></trkpt><trkpt lat="44.74114104485997" lon="9.302969473026078"><ele>987.0</ele><time>2026-03-28T12:13:22.998Z</time></trkpt><trkpt lat="44.74123049308434" lon="9.302994378327396"><ele>987.0</ele><time>2026-03-28T12:13:23.998Z</time></trkpt><trkpt lat="44.74130388568504" lon="9.303079366623843"><ele>987.4285714285714</ele><time>2026-03-28T12:13:24.998Z</time></trkpt><trkpt lat="44.741367245137" lon="9.30315272588225"><ele>987.8571428571429</ele><time>2026-03-28T12:13:25.998Z</time></trkpt><trkpt lat="44.741424201198555" lon="9.303216351951935"><ele>988.2857142857142</ele><time>2026-03-28T12:13:26.998Z</time></trkpt><trkpt lat="44.741489952526074" lon="9.303270590526271"><ele>988.7142857142857</ele><time>2026-03-28T12:13:27.998Z</time></trkpt><trkpt lat="44.74155073816532" lon="9.303309505321492"><ele>989.1428571428571</ele><time>2026-03-28T12:13:28.998Z</time></trkpt><trkpt lat="44.74161123831483" lon="9.30336726641991"><ele>989.5714285714284</ele><time>2026-03-28T12:13:29.998Z</time></trkpt><trkpt lat="44.741670734478745" lon="9.303430612994783"><ele>989.9999999999999</ele><time>2026-03-28T12:13:30.998Z</time></trkpt><trkpt lat="44.7417305932389" lon="9.303503943270101"><ele>990.0</ele><time>2026-03-28T12:13:31.998Z</time></trkpt><trkpt lat="44.74178305485737" lon="9.303607009857213"><ele>990.0</ele><time>2026-03-28T12:13:32.998Z</time></trkpt><trkpt lat="44.74185069657273" lon="9.303721467688781"><ele>990.0</ele><time>2026-03-28T12:13:33.998Z</time></trkpt><trkpt lat="44.74193065886242" lon="9.303810130639365"><ele>990.0</ele><time>2026-03-28T12:13:34.998Z</time></trkpt><trkpt lat="44.741995509470605" lon="9.30389176753354"><ele>990.0</ele><time>2026-03-28T12:13:35.998Z</time></trkpt><trkpt lat="44.74205612101221" lon="9.30395625561502"><ele>991.6666666666666</ele><time>2026-03-28T12:13:36.998Z</time></trkpt><trkpt lat="44.742077015030446" lon="9.304075460766496"><ele>993.3333333333333</ele><time>2026-03-28T12:13:37.998Z</time></trkpt><trkpt lat="44.7421347476905" lon="9.304175279151638"><ele>995.0</ele><time>2026-03-28T12:13:38.998Z</time></trkpt><trkpt lat="44.742193651976436" lon="9.304282380074271"><ele>996.6666666666666</ele><time>2026-03-28T12:13:40Z</time></trkpt><trkpt lat="44.74224366982644" lon="9.304379432076974"><ele>998.3333333333333</ele><time>2026-03-28T12:13:41Z</time></trkpt><trkpt lat="44.742293051963436" lon="9.304477290252802"><ele>1000.0</ele><time>2026-03-28T12:13:42Z</time></trkpt><trkpt lat="44.742343184707565" lon="9.30457496501249"><ele>1000.0</ele><time>2026-03-28T12:13:43Z</time></trkpt><trkpt lat="44.74239265658638" lon="9.304667718508378"><ele>1000.0</ele><time>2026-03-28T12:13:44Z</time></trkpt><trkpt lat="44.74243384506882" lon="9.304744941715686"><ele>1000.0</ele><time>2026-03-28T12:13:45Z</time></trkpt><trkpt lat="44.74247219714149" lon="9.304836530251489"><ele>1000.0</ele><time>2026-03-28T12:13:46Z</time></trkpt><trkpt lat="44.742520535397304" lon="9.304902713463871"><ele>1000.0</ele><time>2026-03-28T12:13:47Z</time></trkpt><trkpt lat="44.74257415385157" lon="9.304972308990841"><ele>1000.0</ele><time>2026-03-28T12:13:48Z</time></trkpt><trkpt lat="44.742604779678025" lon="9.305059773750894"><ele>1000.0</ele><time>2026-03-28T12:13:49Z</time></trkpt><trkpt lat="44.742669801724716" lon="9.305173696924305"><ele>1001.9999999999999</ele><time>2026-03-28T12:13:51Z</time></trkpt><trkpt lat="44.742716604888706" lon="9.30525213955261"><ele>1004.0</ele><time>2026-03-28T12:13:52Z</time></trkpt><trkpt lat="44.742777427923855" lon="9.30533923888857"><ele>1006.0</ele><time>2026-03-28T12:13:53Z</time></trkpt><trkpt lat="44.74282355288183" lon="9.305403169768944"><ele>1008.0</ele><time>2026-03-28T12:13:54Z</time></trkpt><trkpt lat="44.7429070452891" lon="9.305512266094617"><ele>1009.9999999999999</ele><time>2026-03-28T12:13:56Z</time></trkpt><trkpt lat="44.74295515962055" lon="9.305573171328808"><ele>1012.0</ele><time>2026-03-28T12:13:57Z</time></trkpt><trkpt lat="44.7430021649649" lon="9.305632150859598"><ele>1011.9999999999999</ele><time>2026-03-28T12:13:58Z</time></trkpt><trkpt lat="44.74305437861191" lon="9.30569766544399"><ele>1012.0</ele><time>2026-03-28T12:13:59Z</time></trkpt><trkpt lat="44.74311826618187" lon="9.305748542139012"><ele>1012.0</ele><time>2026-03-28T12:14:00Z</time></trkpt><trkpt lat="44.74316175412949" lon="9.305841342973972"><ele>1012.0</ele><time>2026-03-28T12:14:01Z</time></trkpt><trkpt lat="44.743205803387646" lon="9.305913693898255"><ele>1011.9999999999999</ele><time>2026-03-28T12:14:02Z</time></trkpt><trkpt lat="44.743259371248804" lon="9.306069889489185"><ele>1012.0</ele><time>2026-03-28T12:14:04Z</time></trkpt><trkpt lat="44.74329111543377" lon="9.306159695707908"><ele>1011.9999999999999</ele><time>2026-03-28T12:14:05Z</time></trkpt><trkpt lat="44.74333963512587" lon="9.306228127370309"><ele>1012.0</ele><time>2026-03-28T12:14:06Z</time></trkpt><trkpt lat="44.74342215444119" lon="9.306250721050512"><ele>1012.0</ele><time>2026-03-28T12:14:07Z</time></trkpt><trkpt lat="44.74347765737836" lon="9.306328835548143"><ele>1012.0</ele><time>2026-03-28T12:14:08Z</time></trkpt><trkpt lat="44.74352841721137" lon="9.306387728081054"><ele>1011.9999999999999</ele><time>2026-03-28T12:14:09Z</time></trkpt><trkpt lat="44.74356046387297" lon="9.306534397312536"><ele>1012.0</ele><time>2026-03-28T12:14:11Z</time></trkpt><trkpt lat="44.74357689840819" lon="9.306675928650796"><ele>1014.8333333333333</ele><time>2026-03-28T12:14:12Z</time></trkpt><trkpt lat="44.74359424199556" lon="9.306786311824732"><ele>1017.6666666666666</ele><time>2026-03-28T12:14:13Z</time></trkpt><trkpt lat="44.74358687589821" lon="9.306877364725558"><ele>1020.5</ele><time>2026-03-28T12:14:14Z</time></trkpt><trkpt lat="44.743655087709136" lon="9.307010729758307"><ele>1023.3333333333333</ele><time>2026-03-28T12:14:16Z</time></trkpt><trkpt lat="44.74371229510493" lon="9.307073117570194"><ele>1026.1666666666667</ele><time>2026-03-28T12:14:17Z</time></trkpt><trkpt lat="44.74378191582846" lon="9.30711519935623"><ele>1029.0</ele><time>2026-03-28T12:14:18Z</time></trkpt><trkpt lat="44.743847663528584" lon="9.307198421158295"><ele>1029.8</ele><time>2026-03-28T12:14:19Z</time></trkpt><trkpt lat="44.74390918970193" lon="9.30724982138693"><ele>1030.6000000000001</ele><time>2026-03-28T12:14:20Z</time></trkpt><trkpt lat="44.74396803005661" lon="9.307345382935155"><ele>1031.4</ele><time>2026-03-28T12:14:22Z</time></trkpt><trkpt lat="44.74402660110774" lon="9.307516613551961"><ele>1032.2</ele><time>2026-03-28T12:14:23.999Z</time></trkpt><trkpt lat="44.74403990011183" lon="9.307613474693692"><ele>1033.0</ele><time>2026-03-28T12:14:24.999Z</time></trkpt><trkpt lat="44.74404144393037" lon="9.307791361215372"><ele>1033.0</ele><time>2026-03-28T12:14:26.999Z</time></trkpt><trkpt lat="44.744033119034185" lon="9.307971264767273"><ele>1033.0</ele><time>2026-03-28T12:14:28.999Z</time></trkpt><trkpt lat="44.744018222788206" lon="9.308159210887615"><ele>1033.0</ele><time>2026-03-28T12:14:30.999Z</time></trkpt><trkpt lat="44.74400942684872" lon="9.308267443485448"><ele>1033.0</ele><time>2026-03-28T12:14:31.999Z</time></trkpt><trkpt lat="44.7440041447398" lon="9.3083839090927"><ele>1033.0</ele><time>2026-03-28T12:14:32.999Z</time></trkpt><trkpt lat="44.744009426115454" lon="9.308516032508638"><ele>1034.1666666666665</ele><time>2026-03-28T12:14:33.999Z</time></trkpt><trkpt lat="44.744031326306484" lon="9.308628321166394"><ele>1035.3333333333333</ele><time>2026-03-28T12:14:34.999Z</time></trkpt><trkpt lat="44.744049997753386" lon="9.308731198880732"><ele>1036.5</ele><time>2026-03-28T12:14:35.999Z</time></trkpt><trkpt lat="44.74405808013451" lon="9.308844897101524"><ele>1037.6666666666667</ele><time>2026-03-28T12:14:36.999Z</time></trkpt><trkpt lat="44.74406909948738" lon="9.308960077086914"><ele>1038.8333333333335</ele><time>2026-03-28T12:14:37.999Z</time></trkpt><trkpt lat="44.7441016362226" lon="9.30906073364494"><ele>1040.0</ele><time>2026-03-28T12:14:38.999Z</time></trkpt><trkpt lat="44.744151240294435" lon="9.309159063623243"><ele>1041.0</ele><time>2026-03-28T12:14:39.999Z</time></trkpt><trkpt lat="44.7442159563639" lon="9.309257321093636"><ele>1042.0</ele><time>2026-03-28T12:14:40.999Z</time></trkpt><trkpt lat="44.74429104840615" lon="9.309358723543687"><ele>1043.0</ele><time>2026-03-28T12:14:41.999Z</time></trkpt><trkpt lat="44.7443602467608" lon="9.309422135953515"><ele>1044.0</ele><time>2026-03-28T12:14:42.999Z</time></trkpt><trkpt lat="44.744416264795476" lon="9.309519650095105"><ele>1045.0</ele><time>2026-03-28T12:14:43.999Z</time></trkpt><trkpt lat="44.74449643705475" lon="9.309596544431445"><ele>1047.3333333333333</ele><time>2026-03-28T12:14:44.999Z</time></trkpt><trkpt lat="44.74456293647054" lon="9.30967992978782"><ele>1049.6666666666665</ele><time>2026-03-28T12:14:45.999Z</time></trkpt><trkpt lat="44.74460558990246" lon="9.309772652705743"><ele>1052.0</ele><time>2026-03-28T12:14:46.999Z</time></trkpt><trkpt lat="44.7446501588726" lon="9.309844510591061"><ele>1054.3333333333333</ele><time>2026-03-28T12:14:47.999Z</time></trkpt><trkpt lat="44.744686802642526" lon="9.309922513448933"><ele>1056.6666666666667</ele><time>2026-03-28T12:14:48.999Z</time></trkpt><trkpt lat="44.744756615610825" lon="9.310054293136448"><ele>1059.0</ele><time>2026-03-28T12:14:50.999Z</time></trkpt><trkpt lat="44.74480236137522" lon="9.310134008404091"><ele>1059.2857142857142</ele><time>2026-03-28T12:14:51.999Z</time></trkpt><trkpt lat="44.74485033123449" lon="9.310209728926111"><ele>1059.5714285714284</ele><time>2026-03-28T12:14:52.999Z</time></trkpt><trkpt lat="44.74490709753841" lon="9.310290111264553"><ele>1059.857142857143</ele><time>2026-03-28T12:14:53.999Z</time></trkpt><trkpt lat="44.744956583873204" lon="9.310369185464811"><ele>1060.142857142857</ele><time>2026-03-28T12:14:54.999Z</time></trkpt><trkpt lat="44.744989797788804" lon="9.310455599590734"><ele>1060.4285714285716</ele><time>2026-03-28T12:14:55.999Z</time></trkpt><trkpt lat="44.745019657582226" lon="9.310547418750991"><ele>1060.7142857142858</ele><time>2026-03-28T12:14:56.999Z</time></trkpt><trkpt lat="44.74504413187432" lon="9.31063856349736"><ele>1061.0</ele><time>2026-03-28T12:14:57.999Z</time></trkpt><trkpt lat="44.74505716789413" lon="9.310733940636801"><ele>1062.5</ele><time>2026-03-28T12:14:58.999Z</time></trkpt><trkpt lat="44.745064807009236" lon="9.310843842327499"><ele>1064.0</ele><time>2026-03-28T12:14:59.999Z</time></trkpt><trkpt lat="44.74506765514251" lon="9.310960765041074"><ele>1065.5</ele><time>2026-03-28T12:15:00.999Z</time></trkpt><trkpt lat="44.74506484149533" lon="9.311072218816099"><ele>1067.0</ele><time>2026-03-28T12:15:01.999Z</time></trkpt><trkpt lat="44.745052899718075" lon="9.311181818453559"><ele>1068.5</ele><time>2026-03-28T12:15:02.999Z</time></trkpt><trkpt lat="44.74504955515357" lon="9.311294513993598"><ele>1070.0</ele><time>2026-03-28T12:15:03.999Z</time></trkpt><trkpt lat="44.74505112281064" lon="9.311413252096909"><ele>1071.1666666666667</ele><time>2026-03-28T12:15:04.999Z</time></trkpt><trkpt lat="44.74506221957659" lon="9.31156001487922"><ele>1072.3333333333335</ele><time>2026-03-28T12:15:05.999Z</time></trkpt><trkpt lat="44.74508696317973" lon="9.31169049475071"><ele>1073.5</ele><time>2026-03-28T12:15:06.999Z</time></trkpt><trkpt lat="44.74511728841165" lon="9.311782968299699"><ele>1074.6666666666667</ele><time>2026-03-28T12:15:07.999Z</time></trkpt><trkpt lat="44.745144690003706" lon="9.311868752243942"><ele>1075.8333333333333</ele><time>2026-03-28T12:15:08.999Z</time></trkpt><trkpt lat="44.745182798883235" lon="9.3119670044245"><ele>1077.0</ele><time>2026-03-28T12:15:09.999Z</time></trkpt><trkpt lat="44.74521997479768" lon="9.3120657229032"><ele>1079.4</ele><time>2026-03-28T12:15:10.999Z</time></trkpt><trkpt lat="44.745249216106224" lon="9.312174234596842"><ele>1081.8000000000002</ele><time>2026-03-28T12:15:11.999Z</time></trkpt><trkpt lat="44.745276634505956" lon="9.312285906492068"><ele>1084.2</ele><time>2026-03-28T12:15:12.999Z</time></trkpt><trkpt lat="44.7453391575284" lon="9.3124324524923"><ele>1086.6000000000001</ele><time>2026-03-28T12:15:14.998Z</time></trkpt><trkpt lat="44.745392718548246" lon="9.312564299851159"><ele>1089.0</ele><time>2026-03-28T12:15:16.998Z</time></trkpt><trkpt lat="44.74541701543614" lon="9.312647307823156"><ele>1089.4</ele><time>2026-03-28T12:15:17.998Z</time></trkpt><trkpt lat="44.74544313195627" lon="9.31278295612314"><ele>1089.8000000000002</ele><time>2026-03-28T12:15:18.998Z</time></trkpt><trkpt lat="44.7454487004758" lon="9.312920416584399"><ele>1090.1999999999998</ele><time>2026-03-28T12:15:19.998Z</time></trkpt><trkpt lat="44.745507537434975" lon="9.313018425730233"><ele>1090.6</ele><time>2026-03-28T12:15:20.998Z</time></trkpt><trkpt lat="44.745504458027504" lon="9.313135263226702"><ele>1091.0</ele><time>2026-03-28T12:15:22.998Z</time></trkpt><trkpt lat="44.74543873298775" lon="9.313231660214836"><ele>1090.0</ele><time>2026-03-28T12:15:25.998Z</time></trkpt><trkpt lat="44.74537560149245" lon="9.313281650543741"><ele>1089.0</ele><time>2026-03-28T12:15:36.998Z</time></trkpt><trkpt lat="44.745327523061064" lon="9.31337243660079"><ele>1088.0</ele><time>2026-03-28T12:15:38.998Z</time></trkpt><trkpt lat="44.74527430223953" lon="9.313426942541923"><ele>1087.0</ele><time>2026-03-28T12:15:40.998Z</time></trkpt><trkpt lat="44.74520939682348" lon="9.313560457398385"><ele>1086.0</ele><time>2026-03-28T12:15:42.998Z</time></trkpt><trkpt lat="44.74515594737855" lon="9.31363108604951"><ele>1085.0</ele><time>2026-03-28T12:15:44.998Z</time></trkpt><trkpt lat="44.74508498530777" lon="9.313688461490889"><ele>1085.0</ele><time>2026-03-28T12:15:47Z</time></trkpt><trkpt lat="44.74503194914083" lon="9.313739648323788"><ele>1085.0</ele><time>2026-03-28T12:15:48Z</time></trkpt><trkpt lat="44.744985140669144" lon="9.313818169397948"><ele>1085.0</ele><time>2026-03-28T12:15:49Z</time></trkpt><trkpt lat="44.744897130521565" lon="9.313894807829737"><ele>1085.0</ele><time>2026-03-28T12:15:50Z</time></trkpt><trkpt lat="44.74480629832105" lon="9.313992310654049"><ele>1085.0</ele><time>2026-03-28T12:15:52Z</time></trkpt><trkpt lat="44.74477962031446" lon="9.314084875009012"><ele>1085.0</ele><time>2026-03-28T12:15:54Z</time></trkpt><trkpt lat="44.744722991835616" lon="9.314166711676036"><ele>1085.142857142857</ele><time>2026-03-28T12:15:57Z</time></trkpt><trkpt lat="44.74465401901421" lon="9.314197718772627"><ele>1085.2857142857142</ele><time>2026-03-28T12:15:59Z</time></trkpt><trkpt lat="44.74458784276043" lon="9.314292088038627"><ele>1085.4285714285716</ele><time>2026-03-28T12:16:01Z</time></trkpt><trkpt lat="44.74454366818323" lon="9.314374393350064"><ele>1085.5714285714284</ele><time>2026-03-28T12:16:02Z</time></trkpt><trkpt lat="44.74449341103785" lon="9.314428005760107"><ele>1085.7142857142858</ele><time>2026-03-28T12:16:03Z</time></trkpt><trkpt lat="44.744429081391985" lon="9.314480916029588"><ele>1085.857142857143</ele><time>2026-03-28T12:16:04Z</time></trkpt><trkpt lat="44.7443648364611" lon="9.31451984668125"><ele>1086.0</ele><time>2026-03-28T12:16:05Z</time></trkpt><trkpt lat="44.74430194419912" lon="9.314632318982389"><ele>1087.3333333333333</ele><time>2026-03-28T12:16:07Z</time></trkpt><trkpt lat="44.74423200644535" lon="9.31470298983173"><ele>1088.6666666666667</ele><time>2026-03-28T12:16:10Z</time></trkpt><trkpt lat="44.74416400537668" lon="9.31478933284345"><ele>1090.0</ele><time>2026-03-28T12:16:12Z</time></trkpt><trkpt lat="44.74410568300577" lon="9.314878618250154"><ele>1091.3333333333335</ele><time>2026-03-28T12:16:14Z</time></trkpt><trkpt lat="44.74402768155314" lon="9.314963806050475"><ele>1092.6666666666667</ele><time>2026-03-28T12:16:16Z</time></trkpt><trkpt lat="44.743975221706016" lon="9.315018614088675"><ele>1094.0</ele><time>2026-03-28T12:16:18Z</time></trkpt><trkpt lat="44.74390832211386" lon="9.315072230809399"><ele>1096.0</ele><time>2026-03-28T12:16:20Z</time></trkpt><trkpt lat="44.74385372559797" lon="9.315134335114731"><ele>1098.0</ele><time>2026-03-28T12:16:22Z</time></trkpt><trkpt lat="44.74377756564372" lon="9.315209703076858"><ele>1100.0</ele><time>2026-03-28T12:16:25.999Z</time></trkpt><trkpt lat="44.74372354096763" lon="9.315289683065686"><ele>1102.0</ele><time>2026-03-28T12:16:26.999Z</time></trkpt><trkpt lat="44.743623690335916" lon="9.315382696932708"><ele>1104.0</ele><time>2026-03-28T12:16:28.999Z</time></trkpt><trkpt lat="44.74353402930685" lon="9.31549724418711"><ele>1109.1666666666667</ele><time>2026-03-28T12:16:30.999Z</time></trkpt><trkpt lat="44.74346604934308" lon="9.315583745858408"><ele>1114.3333333333333</ele><time>2026-03-28T12:16:32.999Z</time></trkpt><trkpt lat="44.743418310961346" lon="9.315651798094558"><ele>1119.5</ele><time>2026-03-28T12:16:34.999Z</time></trkpt><trkpt lat="44.74338502429624" lon="9.315742359966212"><ele>1124.6666666666665</ele><time>2026-03-28T12:16:36.999Z</time></trkpt><trkpt lat="44.74336700524341" lon="9.315827317875922"><ele>1129.8333333333333</ele><time>2026-03-28T12:16:38.999Z</time></trkpt><trkpt lat="44.74334727323778" lon="9.315959403588035"><ele>1135.0</ele><time>2026-03-28T12:16:40.999Z</time></trkpt><trkpt lat="44.743309658666774" lon="9.316132751678714"><ele>1135.0</ele><time>2026-03-28T12:16:42.999Z</time></trkpt><trkpt lat="44.74328760223736" lon="9.316217758423955"><ele>1135.0</ele><time>2026-03-28T12:16:43.999Z</time></trkpt><trkpt lat="44.74327137764166" lon="9.316304418505172"><ele>1135.0</ele><time>2026-03-28T12:16:44.999Z</time></trkpt><trkpt lat="44.74322937473881" lon="9.316431925484254"><ele>1135.0</ele><time>2026-03-28T12:16:46.999Z</time></trkpt><trkpt lat="44.74320720235915" lon="9.316540946116522"><ele>1135.0</ele><time>2026-03-28T12:16:47.999Z</time></trkpt><trkpt lat="44.743190605295716" lon="9.316648585948522"><ele>1135.0</ele><time>2026-03-28T12:16:48.999Z</time></trkpt><trkpt lat="44.743172275237185" lon="9.316746392846266"><ele>1135.3333333333333</ele><time>2026-03-28T12:16:49.999Z</time></trkpt><trkpt lat="44.74315772099733" lon="9.316839481865975"><ele>1135.6666666666665</ele><time>2026-03-28T12:16:50.999Z</time></trkpt><trkpt lat="44.74315367177254" lon="9.3169330559438"><ele>1136.0</ele><time>2026-03-28T12:16:51.999Z</time></trkpt><trkpt lat="44.74313506701833" lon="9.317034997291968"><ele>1136.3333333333333</ele><time>2026-03-28T12:16:52.999Z</time></trkpt><trkpt lat="44.74311419962773" lon="9.317137047472581"><ele>1136.6666666666667</ele><time>2026-03-28T12:16:53.999Z</time></trkpt><trkpt lat="44.74307370446379" lon="9.317214082306334"><ele>1137.0</ele><time>2026-03-28T12:16:54.999Z</time></trkpt><trkpt lat="44.74299425677824" lon="9.317333799444443"><ele>1134.6</ele><time>2026-03-28T12:16:56.999Z</time></trkpt><trkpt lat="44.74293001221399" lon="9.317496297474069"><ele>1132.2</ele><time>2026-03-28T12:16:58.999Z</time></trkpt><trkpt lat="44.742903730019634" lon="9.317592471406963"><ele>1129.8</ele><time>2026-03-28T12:16:59.999Z</time></trkpt><trkpt lat="44.742858455763574" lon="9.317710951749923"><ele>1127.4</ele><time>2026-03-28T12:17:01.999Z</time></trkpt><trkpt lat="44.742780135253476" lon="9.317824163223946"><ele>1125.0</ele><time>2026-03-28T12:17:03.999Z</time></trkpt><trkpt lat="44.742728570773124" lon="9.317986906993177"><ele>1126.8</ele><time>2026-03-28T12:17:05.999Z</time></trkpt><trkpt lat="44.74266838438377" lon="9.31813385240157"><ele>1128.6</ele><time>2026-03-28T12:17:07.999Z</time></trkpt><trkpt lat="44.742606457624866" lon="9.318263767734642"><ele>1130.4</ele><time>2026-03-28T12:17:09.999Z</time></trkpt><trkpt lat="44.742559343788834" lon="9.318388539460788"><ele>1132.2</ele><time>2026-03-28T12:17:11.999Z</time></trkpt><trkpt lat="44.74251839785041" lon="9.318511875070058"><ele>1134.0</ele><time>2026-03-28T12:17:13.999Z</time></trkpt><trkpt lat="44.7424952424379" lon="9.31864937439573"><ele>1134.0</ele><time>2026-03-28T12:17:15.998Z</time></trkpt><trkpt lat="44.74242790705952" lon="9.318762166092249"><ele>1134.0</ele><time>2026-03-28T12:17:17.998Z</time></trkpt><trkpt lat="44.74236661340287" lon="9.318878033653187"><ele>1134.0</ele><time>2026-03-28T12:17:19.998Z</time></trkpt><trkpt lat="44.74232276888436" lon="9.318943123479892"><ele>1134.0</ele><time>2026-03-28T12:17:21.998Z</time></trkpt><trkpt lat="44.742247799224536" lon="9.319020880318439"><ele>1134.0</ele><time>2026-03-28T12:17:53Z</time></trkpt><trkpt lat="44.742179990744624" lon="9.318945415358753"><ele>1131.142857142857</ele><time>2026-03-28T12:20:05Z</time></trkpt><trkpt lat="44.74224420134492" lon="9.31898322279836"><ele>1128.2857142857142</ele><time>2026-03-28T12:20:11Z</time></trkpt><trkpt lat="44.742175443614514" lon="9.318980533951796"><ele>1125.4285714285716</ele><time>2026-03-28T12:20:25Z</time></trkpt><trkpt lat="44.742234226102894" lon="9.318939467105613"><ele>1122.5714285714284</ele><time>2026-03-28T12:21:15.999Z</time></trkpt><trkpt lat="44.74219369816847" lon="9.319012588231722"><ele>1119.7142857142858</ele><time>2026-03-28T12:21:41.998Z</time></trkpt><trkpt lat="44.74215176854373" lon="9.319079594494365"><ele>1116.857142857143</ele><time>2026-03-28T12:21:51.998Z</time></trkpt><trkpt lat="44.74217099741386" lon="9.319178981753364"><ele>1114.0</ele><time>2026-03-28T12:21:56.998Z</time></trkpt><trkpt lat="44.74223320475675" lon="9.319227456161693"><ele>1114.0</ele><time>2026-03-28T12:22:00.998Z</time></trkpt><trkpt lat="44.742295288157266" lon="9.319263995790614"><ele>1114.0</ele><time>2026-03-28T12:22:27Z</time></trkpt><trkpt lat="44.742398936483646" lon="9.319359838885417"><ele>1114.0</ele><time>2026-03-28T12:22:56.999Z</time></trkpt><trkpt lat="44.74243739201704" lon="9.319450129609022"><ele>1114.0</ele><time>2026-03-28T12:23:00.999Z</time></trkpt><trkpt lat="44.742493600985725" lon="9.319512483805036"><ele>1114.0</ele><time>2026-03-28T12:23:03.999Z</time></trkpt><trkpt lat="44.7425507476682" lon="9.319610352314909"><ele>1114.0</ele><time>2026-03-28T12:23:06.999Z</time></trkpt><trkpt lat="44.742597182280704" lon="9.319715532408894"><ele>1109.3333333333333</ele><time>2026-03-28T12:23:09.999Z</time></trkpt><trkpt lat="44.74257546563315" lon="9.319820554863037"><ele>1104.6666666666665</ele><time>2026-03-28T12:23:11.999Z</time></trkpt><trkpt lat="44.74254830837909" lon="9.319903607696219"><ele>1100.0</ele><time>2026-03-28T12:23:13.999Z</time></trkpt><trkpt lat="44.74256137608924" lon="9.320021138237035"><ele>1095.3333333333333</ele><time>2026-03-28T12:23:16.999Z</time></trkpt><trkpt lat="44.7426436357567" lon="9.32008696961812"><ele>1090.6666666666667</ele><time>2026-03-28T12:23:20.999Z</time></trkpt><trkpt lat="44.74271134392924" lon="9.320119054072608"><ele>1086.0</ele><time>2026-03-28T12:23:27.999Z</time></trkpt><trkpt lat="44.74278459449851" lon="9.320210812276427"><ele>1084.3333333333333</ele><time>2026-03-28T12:23:30.999Z</time></trkpt><trkpt lat="44.74284050551162" lon="9.320280592943716"><ele>1082.6666666666667</ele><time>2026-03-28T12:23:36.998Z</time></trkpt><trkpt lat="44.74287427195666" lon="9.32040168404487"><ele>1081.0</ele><time>2026-03-28T12:23:39.998Z</time></trkpt><trkpt lat="44.74289342208473" lon="9.320521733335445"><ele>1079.3333333333335</ele><time>2026-03-28T12:23:42.998Z</time></trkpt><trkpt lat="44.74293574294541" lon="9.320612862011284"><ele>1077.6666666666667</ele><time>2026-03-28T12:23:44.998Z</time></trkpt><trkpt lat="44.74297875585185" lon="9.32071353395504"><ele>1076.0</ele><time>2026-03-28T12:23:46.998Z</time></trkpt><trkpt lat="44.74303156092668" lon="9.320766366063461"><ele>1074.5</ele><time>2026-03-28T12:23:48.998Z</time></trkpt><trkpt lat="44.74308177422217" lon="9.320892757894088"><ele>1073.0</ele><time>2026-03-28T12:23:51.998Z</time></trkpt><trkpt lat="44.74310500570019" lon="9.320986380551458"><ele>1071.5</ele><time>2026-03-28T12:23:53.998Z</time></trkpt><trkpt lat="44.74316023692154" lon="9.321062178182038"><ele>1070.0</ele><time>2026-03-28T12:23:56.998Z</time></trkpt><trkpt lat="44.74318026965899" lon="9.321147921863048"><ele>1068.5</ele><time>2026-03-28T12:23:59.998Z</time></trkpt><trkpt lat="44.743218628842506" lon="9.321277090317865"><ele>1067.0</ele><time>2026-03-28T12:24:01.998Z</time></trkpt><trkpt lat="44.74326408310863" lon="9.321383772711744"><ele>1064.0</ele><time>2026-03-28T12:24:03.998Z</time></trkpt><trkpt lat="44.743320465086626" lon="9.321494003281902"><ele>1061.0</ele><time>2026-03-28T12:24:05.998Z</time></trkpt><trkpt lat="44.743347452114435" lon="9.321598031262234"><ele>1058.0</ele><time>2026-03-28T12:24:07.998Z</time></trkpt><trkpt lat="44.74337873011869" lon="9.32169221224377"><ele>1055.0</ele><time>2026-03-28T12:24:11Z</time></trkpt><trkpt lat="44.743413757621745" lon="9.321799362906665"><ele>1052.0</ele><time>2026-03-28T12:24:15Z</time></trkpt><trkpt lat="44.74344248696329" lon="9.321932306274206"><ele>1049.0</ele><time>2026-03-28T12:24:17Z</time></trkpt><trkpt lat="44.74346476787312" lon="9.322042126204458"><ele>1049.0</ele><time>2026-03-28T12:24:19Z</time></trkpt><trkpt lat="44.74349501630113" lon="9.322153476238773"><ele>1049.0</ele><time>2026-03-28T12:24:23Z</time></trkpt><trkpt lat="44.743574338615915" lon="9.322201183675897"><ele>1049.0</ele><time>2026-03-28T12:24:25Z</time></trkpt><trkpt lat="44.74364110066157" lon="9.322215340457777"><ele>1049.0</ele><time>2026-03-28T12:24:27Z</time></trkpt><trkpt lat="44.74372634704952" lon="9.322215148943634"><ele>1049.0</ele><time>2026-03-28T12:24:30Z</time></trkpt><trkpt lat="44.743765251657415" lon="9.32232656211205"><ele>1049.0</ele><time>2026-03-28T12:24:35Z</time></trkpt><trkpt lat="44.74376275225109" lon="9.322426016999783"><ele>1046.2857142857142</ele><time>2026-03-28T12:24:38Z</time></trkpt><trkpt lat="44.74377794403927" lon="9.322534553345283"><ele>1043.5714285714287</ele><time>2026-03-28T12:24:42Z</time></trkpt><trkpt lat="44.74375338844798" lon="9.322634505986004"><ele>1040.857142857143</ele><time>2026-03-28T12:24:45.999Z</time></trkpt><trkpt lat="44.74374493872105" lon="9.322728845341784"><ele>1038.142857142857</ele><time>2026-03-28T12:24:48.999Z</time></trkpt><trkpt lat="44.743687988111844" lon="9.322783534487568"><ele>1035.4285714285713</ele><time>2026-03-28T12:24:51.999Z</time></trkpt><trkpt lat="44.74362522494515" lon="9.322812584140921"><ele>1032.7142857142858</ele><time>2026-03-28T12:24:55.999Z</time></trkpt><trkpt lat="44.743594524832595" lon="9.322897457637396"><ele>1030.0</ele><time>2026-03-28T12:24:59.999Z</time></trkpt><trkpt lat="44.743646736680105" lon="9.322997170193883"><ele>1027.2</ele><time>2026-03-28T12:25:03.999Z</time></trkpt><trkpt lat="44.74370073506908" lon="9.323097517525543"><ele>1024.4</ele><time>2026-03-28T12:25:05.999Z</time></trkpt><trkpt lat="44.74376000039266" lon="9.32316406730807"><ele>1021.5999999999999</ele><time>2026-03-28T12:25:08.999Z</time></trkpt><trkpt lat="44.743807137829826" lon="9.323250600114555"><ele>1018.8</ele><time>2026-03-28T12:25:11.999Z</time></trkpt><trkpt lat="44.743965782406974" lon="9.323399715433407"><ele>1016.0</ele><time>2026-03-28T12:25:12.999Z</time></trkpt><trkpt lat="44.744033037769164" lon="9.32352620960829"><ele>1016.0</ele><time>2026-03-28T12:25:14.999Z</time></trkpt><trkpt lat="44.744100907985086" lon="9.323632579236218"><ele>1015.9999999999999</ele><time>2026-03-28T12:25:16.999Z</time></trkpt><trkpt lat="44.7441422995765" lon="9.323729843454776"><ele>1015.9999999999999</ele><time>2026-03-28T12:25:18.999Z</time></trkpt><trkpt lat="44.74416751623064" lon="9.323838784871102"><ele>1016.0</ele><time>2026-03-28T12:25:20.999Z</time></trkpt><trkpt lat="44.74417696466068" lon="9.32398017149566"><ele>1016.0</ele><time>2026-03-28T12:25:22.999Z</time></trkpt><trkpt lat="44.744216890237105" lon="9.324099359770491"><ele>1013.5999999999999</ele><time>2026-03-28T12:25:24.999Z</time></trkpt><trkpt lat="44.744283070995124" lon="9.324235519404393"><ele>1011.1999999999999</ele><time>2026-03-28T12:25:26.999Z</time></trkpt><trkpt lat="44.74430796751763" lon="9.32432072892683"><ele>1008.8000000000001</ele><time>2026-03-28T12:25:27.999Z</time></trkpt><trkpt lat="44.74435289902664" lon="9.324473587724489"><ele>1006.4000000000001</ele><time>2026-03-28T12:25:29.999Z</time></trkpt><trkpt lat="44.74440393205238" lon="9.324603162143289"><ele>1004.0</ele><time>2026-03-28T12:25:31.999Z</time></trkpt><trkpt lat="44.744438450048335" lon="9.324746847946901"><ele>1002.0</ele><time>2026-03-28T12:25:33.999Z</time></trkpt><trkpt lat="44.744477890477015" lon="9.324902626472571"><ele>1000.0000000000001</ele><time>2026-03-28T12:25:35.999Z</time></trkpt><trkpt lat="44.744502335275335" lon="9.32499403253898"><ele>998.0000000000001</ele><time>2026-03-28T12:25:36.998Z</time></trkpt><trkpt lat="44.74452096227602" lon="9.325098221302493"><ele>996.0</ele><time>2026-03-28T12:25:37.998Z</time></trkpt><trkpt lat="44.74454488865949" lon="9.325191237738254"><ele>994.0</ele><time>2026-03-28T12:25:38.998Z</time></trkpt><trkpt lat="44.74459120502367" lon="9.325349081540551"><ele>994.0</ele><time>2026-03-28T12:25:40.998Z</time></trkpt><trkpt lat="44.74460697762474" lon="9.325486765604104"><ele>994.0000000000001</ele><time>2026-03-28T12:25:42.998Z</time></trkpt><trkpt lat="44.74469510741978" lon="9.325576804692613"><ele>994.0000000000001</ele><time>2026-03-28T12:25:44.998Z</time></trkpt><trkpt lat="44.74474047377659" lon="9.32566538041434"><ele>994.0</ele><time>2026-03-28T12:25:46.998Z</time></trkpt><trkpt lat="44.74482361023632" lon="9.32574099126097"><ele>994.0</ele><time>2026-03-28T12:25:48.998Z</time></trkpt><trkpt lat="44.74488398066499" lon="9.325875120435848"><ele>993.0</ele><time>2026-03-28T12:25:50.998Z</time></trkpt><trkpt lat="44.744943558738726" lon="9.32599393521029"><ele>992.0000000000001</ele><time>2026-03-28T12:25:52.998Z</time></trkpt><trkpt lat="44.744972272219805" lon="9.326100259044164"><ele>991.0000000000001</ele><time>2026-03-28T12:25:54.998Z</time></trkpt><trkpt lat="44.74501768745686" lon="9.326194833604811"><ele>990.0</ele><time>2026-03-28T12:25:56.998Z</time></trkpt><trkpt lat="44.745087003841235" lon="9.326301583874605"><ele>989.0</ele><time>2026-03-28T12:25:58.998Z</time></trkpt><trkpt lat="44.74514247905883" lon="9.326413911180218"><ele>986.0</ele><time>2026-03-28T12:26:00.998Z</time></trkpt><trkpt lat="44.745187865720695" lon="9.326504111282475"><ele>983.0000000000001</ele><time>2026-03-28T12:26:02.998Z</time></trkpt><trkpt lat="44.74524661768302" lon="9.326621981142631"><ele>980.0000000000001</ele><time>2026-03-28T12:26:04.998Z</time></trkpt><trkpt lat="44.74528993379128" lon="9.326749792434132"><ele>977.0</ele><time>2026-03-28T12:26:06.998Z</time></trkpt><trkpt lat="44.74533079125826" lon="9.326886442188163"><ele>974.0</ele><time>2026-03-28T12:26:08.998Z</time></trkpt><trkpt lat="44.745350628048456" lon="9.327014775831648"><ele>973.4000000000001</ele><time>2026-03-28T12:26:10.998Z</time></trkpt><trkpt lat="44.7453734036511" lon="9.3271613974245"><ele>972.8000000000001</ele><time>2026-03-28T12:26:13.998Z</time></trkpt><trkpt lat="44.74540901907926" lon="9.327302826479208"><ele>972.1999999999999</ele><time>2026-03-28T12:26:15Z</time></trkpt><trkpt lat="44.745499206377325" lon="9.327405049896894"><ele>971.5999999999999</ele><time>2026-03-28T12:26:17Z</time></trkpt><trkpt lat="44.74555144404324" lon="9.327463941766874"><ele>971.0</ele><time>2026-03-28T12:26:18Z</time></trkpt><trkpt lat="44.745607054012474" lon="9.327592032095366"><ele>972.8</ele><time>2026-03-28T12:26:20Z</time></trkpt><trkpt lat="44.745668543064646" lon="9.327712087679778"><ele>974.5999999999999</ele><time>2026-03-28T12:26:22Z</time></trkpt><trkpt lat="44.74576613516272" lon="9.327794338545074"><ele>976.4</ele><time>2026-03-28T12:26:24Z</time></trkpt><trkpt lat="44.74582279544217" lon="9.327863692860783"><ele>978.2</ele><time>2026-03-28T12:26:25Z</time></trkpt><trkpt lat="44.74588719124353" lon="9.327920802875633"><ele>980.0</ele><time>2026-03-28T12:26:26Z</time></trkpt><trkpt lat="44.74598188150677" lon="9.328011052402243"><ele>980.8333333333334</ele><time>2026-03-28T12:26:28Z</time></trkpt><trkpt lat="44.74605404522212" lon="9.328079622274949"><ele>981.6666666666667</ele><time>2026-03-28T12:26:30Z</time></trkpt><trkpt lat="44.74610651855927" lon="9.328134525819218"><ele>982.5</ele><time>2026-03-28T12:26:33Z</time></trkpt><trkpt lat="44.74617418862739" lon="9.328193801412997"><ele>983.3333333333333</ele><time>2026-03-28T12:26:37Z</time></trkpt><trkpt lat="44.746229302741675" lon="9.32829206863438"><ele>984.1666666666666</ele><time>2026-03-28T12:26:41Z</time></trkpt><trkpt lat="44.74628546674023" lon="9.328394915975936"><ele>985.0</ele><time>2026-03-28T12:26:43Z</time></trkpt><trkpt lat="44.74633778844672" lon="9.328457080276426"><ele>985.0</ele><time>2026-03-28T12:26:53.999Z</time></trkpt><trkpt lat="44.746389545563325" lon="9.328514186461677"><ele>985.0</ele><time>2026-03-28T12:26:54.999Z</time></trkpt><trkpt lat="44.74644403284901" lon="9.32860669089045"><ele>985.0</ele><time>2026-03-28T12:26:56.999Z</time></trkpt><trkpt lat="44.74651092157603" lon="9.328776714527468"><ele>985.0</ele><time>2026-03-28T12:26:58.999Z</time></trkpt><trkpt lat="44.74654677443234" lon="9.328894582426384"><ele>985.0</ele><time>2026-03-28T12:26:59.999Z</time></trkpt><trkpt lat="44.74658526697114" lon="9.328989134406656"><ele>984.6</ele><time>2026-03-28T12:27:00.999Z</time></trkpt><trkpt lat="44.746636689835334" lon="9.329119579723722"><ele>984.2</ele><time>2026-03-28T12:27:02.999Z</time></trkpt><trkpt lat="44.746666592975615" lon="9.329234010856942"><ele>983.8</ele><time>2026-03-28T12:27:04.999Z</time></trkpt><trkpt lat="44.74670461007933" lon="9.329324072960155"><ele>983.4</ele><time>2026-03-28T12:27:05.999Z</time></trkpt><trkpt lat="44.74679849672476" lon="9.32941847402312"><ele>983.0</ele><time>2026-03-28T12:27:07.999Z</time></trkpt><trkpt lat="44.74687431106361" lon="9.32942089371355"><ele>983.1666666666667</ele><time>2026-03-28T12:27:08.999Z</time></trkpt><trkpt lat="44.74697270425528" lon="9.329441383428332"><ele>983.3333333333334</ele><time>2026-03-28T12:27:09.999Z</time></trkpt><trkpt lat="44.747069304957236" lon="9.329447409219934"><ele>983.5</ele><time>2026-03-28T12:27:10.999Z</time></trkpt><trkpt lat="44.74715417933452" lon="9.329463256721688"><ele>983.6666666666667</ele><time>2026-03-28T12:27:11.999Z</time></trkpt><trkpt lat="44.74723718972527" lon="9.329489924548245"><ele>983.8333333333334</ele><time>2026-03-28T12:27:14.999Z</time></trkpt><trkpt lat="44.74731377029949" lon="9.32949208468074"><ele>984.0</ele><time>2026-03-28T12:27:16.999Z</time></trkpt><trkpt lat="44.74738567443864" lon="9.329504117175528"><ele>984.0</ele><time>2026-03-28T12:27:17.999Z</time></trkpt><trkpt lat="44.74746159733383" lon="9.329492381137612"><ele>984.0</ele><time>2026-03-28T12:27:18.999Z</time></trkpt><trkpt lat="44.74753813742808" lon="9.329494201839399"><ele>984.0</ele><time>2026-03-28T12:27:19.999Z</time></trkpt><trkpt lat="44.747623674668574" lon="9.329483608779915"><ele>984.0</ele><time>2026-03-28T12:27:20.999Z</time></trkpt><trkpt lat="44.74770336038062" lon="9.32950249419733"><ele>984.0</ele><time>2026-03-28T12:27:21.999Z</time></trkpt><trkpt lat="44.74778622096289" lon="9.329548972444528"><ele>984.0</ele><time>2026-03-28T12:27:22.999Z</time></trkpt><trkpt lat="44.74786484805289" lon="9.329583227779812"><ele>983.5</ele><time>2026-03-28T12:27:23.999Z</time></trkpt><trkpt lat="44.747932894046656" lon="9.329602484797016"><ele>983.0</ele><time>2026-03-28T12:27:24.999Z</time></trkpt><trkpt lat="44.7480188277684" lon="9.329641037898025"><ele>982.5</ele><time>2026-03-28T12:27:25.999Z</time></trkpt><trkpt lat="44.74810038531409" lon="9.329691944190051"><ele>982.0</ele><time>2026-03-28T12:27:26.999Z</time></trkpt><trkpt lat="44.748157522787345" lon="9.329733755469027"><ele>981.5</ele><time>2026-03-28T12:27:27.999Z</time></trkpt><trkpt lat="44.74824127203368" lon="9.32984437371494"><ele>981.0</ele><time>2026-03-28T12:27:29.999Z</time></trkpt><trkpt lat="44.748315370110355" lon="9.329900615229954"><ele>981.0</ele><time>2026-03-28T12:27:30.999Z</time></trkpt><trkpt lat="44.74839057664574" lon="9.329944629431283"><ele>980.9999999999999</ele><time>2026-03-28T12:27:31.999Z</time></trkpt><trkpt lat="44.748498883707434" lon="9.330036951520686"><ele>980.9999999999999</ele><time>2026-03-28T12:27:33.999Z</time></trkpt><trkpt lat="44.74854138337137" lon="9.330130177004254"><ele>981.0</ele><time>2026-03-28T12:27:34.999Z</time></trkpt><trkpt lat="44.74860193037316" lon="9.330206380581396"><ele>981.0</ele><time>2026-03-28T12:27:35.999Z</time></trkpt><trkpt lat="44.74868770539383" lon="9.330277657556232"><ele>979.5999999999999</ele><time>2026-03-28T12:27:37.999Z</time></trkpt><trkpt lat="44.74877524495041" lon="9.330291285996607"><ele>978.1999999999999</ele><time>2026-03-28T12:27:53.998Z</time></trkpt><trkpt lat="44.748832704693726" lon="9.330351835561931"><ele>976.8000000000001</ele><time>2026-03-28T12:27:55.998Z</time></trkpt><trkpt lat="44.74889252883069" lon="9.330483094324423"><ele>975.4000000000001</ele><time>2026-03-28T12:27:58.998Z</time></trkpt><trkpt lat="44.74894489784292" lon="9.330607515024663"><ele>974.0</ele><time>2026-03-28T12:28:00.998Z</time></trkpt><trkpt lat="44.74902976377288" lon="9.3307111108751"><ele>973.4000000000001</ele><time>2026-03-28T12:28:02.998Z</time></trkpt><trkpt lat="44.74913256308364" lon="9.330787914402507"><ele>972.8000000000001</ele><time>2026-03-28T12:28:04.998Z</time></trkpt><trkpt lat="44.74921738418733" lon="9.330858283558472"><ele>972.1999999999999</ele><time>2026-03-28T12:28:06.998Z</time></trkpt><trkpt lat="44.74928317610868" lon="9.330900344329837"><ele>971.5999999999999</ele><time>2026-03-28T12:28:07.998Z</time></trkpt><trkpt lat="44.74933269884427" lon="9.33096077660305"><ele>971.0</ele><time>2026-03-28T12:28:08.998Z</time></trkpt><trkpt lat="44.74941138302353" lon="9.331081225354955"><ele>970.3333333333334</ele><time>2026-03-28T12:28:10.998Z</time></trkpt><trkpt lat="44.74946963052329" lon="9.331214596824372"><ele>969.6666666666667</ele><time>2026-03-28T12:28:12.998Z</time></trkpt><trkpt lat="44.749534849178815" lon="9.331296784814386"><ele>969.0</ele><time>2026-03-28T12:28:14.998Z</time></trkpt><trkpt lat="44.74956427351652" lon="9.3313800055289"><ele>968.3333333333333</ele><time>2026-03-28T12:28:16.998Z</time></trkpt><trkpt lat="44.74962957097168" lon="9.331469229481545"><ele>967.6666666666666</ele><time>2026-03-28T12:28:18.998Z</time></trkpt><trkpt lat="44.749705507639" lon="9.331525154413644"><ele>967.0</ele><time>2026-03-28T12:28:21Z</time></trkpt><trkpt lat="44.749782589893215" lon="9.331560305770033"><ele>966.9999999999999</ele><time>2026-03-28T12:28:23Z</time></trkpt><trkpt lat="44.74985009199836" lon="9.331631371392199"><ele>967.0</ele><time>2026-03-28T12:28:25Z</time></trkpt><trkpt lat="44.74990922642483" lon="9.331731077639756"><ele>967.0</ele><time>2026-03-28T12:28:27Z</time></trkpt><trkpt lat="44.74999027871737" lon="9.331791336431923"><ele>967.0</ele><time>2026-03-28T12:28:29Z</time></trkpt><trkpt lat="44.750057664846665" lon="9.331848509372314"><ele>966.9999999999999</ele><time>2026-03-28T12:28:31Z</time></trkpt><trkpt lat="44.750106755396814" lon="9.33191012567079"><ele>967.0</ele><time>2026-03-28T12:28:34Z</time></trkpt><trkpt lat="44.750187483858625" lon="9.331976907934175"><ele>967.8333333333333</ele><time>2026-03-28T12:31:07.999Z</time></trkpt><trkpt lat="44.75025566265601" lon="9.33207301927953"><ele>968.6666666666666</ele><time>2026-03-28T12:31:09.999Z</time></trkpt><trkpt lat="44.75030650737022" lon="9.332146208018427"><ele>969.5</ele><time>2026-03-28T12:31:10.999Z</time></trkpt><trkpt lat="44.75034685660406" lon="9.332218911623622"><ele>970.3333333333333</ele><time>2026-03-28T12:31:11.999Z</time></trkpt><trkpt lat="44.75040515719024" lon="9.332288943197515"><ele>971.1666666666666</ele><time>2026-03-28T12:31:13.999Z</time></trkpt><trkpt lat="44.75044675009531" lon="9.332421975722655"><ele>972.0</ele><time>2026-03-28T12:31:15.999Z</time></trkpt><trkpt lat="44.75048950529455" lon="9.332579637645246"><ele>972.0</ele><time>2026-03-28T12:31:17.999Z</time></trkpt><trkpt lat="44.75051876524023" lon="9.332664165589192"><ele>972.0</ele><time>2026-03-28T12:31:18.999Z</time></trkpt><trkpt lat="44.75057437417505" lon="9.332790161422347"><ele>972.0</ele><time>2026-03-28T12:31:20.999Z</time></trkpt><trkpt lat="44.75059871826084" lon="9.332945525244748"><ele>972.0</ele><time>2026-03-28T12:31:23.999Z</time></trkpt><trkpt lat="44.75060253370772" lon="9.333096150044492"><ele>972.0</ele><time>2026-03-28T12:31:25.999Z</time></trkpt><trkpt lat="44.75063007243996" lon="9.333218904239546"><ele>971.6666666666666</ele><time>2026-03-28T12:31:27.999Z</time></trkpt><trkpt lat="44.75068145677826" lon="9.33334699802498"><ele>971.3333333333333</ele><time>2026-03-28T12:31:29.999Z</time></trkpt><trkpt lat="44.75070443739047" lon="9.333435334964554"><ele>971.0</ele><time>2026-03-28T12:31:30.999Z</time></trkpt><trkpt lat="44.75074293502369" lon="9.333506685418312"><ele>970.6666666666666</ele><time>2026-03-28T12:31:31.999Z</time></trkpt><trkpt lat="44.75076823646737" lon="9.333652034035195"><ele>970.3333333333333</ele><time>2026-03-28T12:31:33.999Z</time></trkpt><trkpt lat="44.750775634567596" lon="9.333772397018597"><ele>970.0</ele><time>2026-03-28T12:31:36.999Z</time></trkpt><trkpt lat="44.7507713183396" lon="9.333879253219576"><ele>967.3333333333333</ele><time>2026-03-28T12:31:38.999Z</time></trkpt><trkpt lat="44.750767380745046" lon="9.334009231039763"><ele>964.6666666666666</ele><time>2026-03-28T12:31:40.999Z</time></trkpt><trkpt lat="44.750755246396004" lon="9.33415327515273"><ele>962.0</ele><time>2026-03-28T12:31:42.999Z</time></trkpt><trkpt lat="44.750736249128934" lon="9.334258774641851"><ele>959.3333333333333</ele><time>2026-03-28T12:31:44.999Z</time></trkpt><trkpt lat="44.75073554852922" lon="9.334379434817144"><ele>956.6666666666666</ele><time>2026-03-28T12:31:48.999Z</time></trkpt><trkpt lat="44.75079739491347" lon="9.33444304547026"><ele>954.0</ele><time>2026-03-28T12:31:50.998Z</time></trkpt><trkpt lat="44.75085582046153" lon="9.334495474946793"><ele>954.0</ele><time>2026-03-28T12:31:52.998Z</time></trkpt><trkpt lat="44.75093268217824" lon="9.334542249303762"><ele>954.0</ele><time>2026-03-28T12:31:55.998Z</time></trkpt><trkpt lat="44.751003161025956" lon="9.334605345248908"><ele>954.0</ele><time>2026-03-28T12:31:58.998Z</time></trkpt><trkpt lat="44.75106975998695" lon="9.334686450366002"><ele>954.0</ele><time>2026-03-28T12:32:01.998Z</time></trkpt><trkpt lat="44.751133920759656" lon="9.334755948147253"><ele>954.0</ele><time>2026-03-28T12:32:04.998Z</time></trkpt><trkpt lat="44.751173109650274" lon="9.334827308063199"><ele>954.0</ele><time>2026-03-28T12:32:06.998Z</time></trkpt><trkpt lat="44.75122230743885" lon="9.334883608987566"><ele>952.8333333333334</ele><time>2026-03-28T12:32:07.998Z</time></trkpt><trkpt lat="44.75129917523069" lon="9.334949807775196"><ele>951.6666666666667</ele><time>2026-03-28T12:32:09.998Z</time></trkpt><trkpt lat="44.75138050370656" lon="9.33503329751756"><ele>950.5</ele><time>2026-03-28T12:32:12.998Z</time></trkpt><trkpt lat="44.75145975159774" lon="9.335106317246133"><ele>949.3333333333334</ele><time>2026-03-28T12:32:15.998Z</time></trkpt><trkpt lat="44.75151406840982" lon="9.33515330603956"><ele>948.1666666666667</ele><time>2026-03-28T12:32:17.998Z</time></trkpt><trkpt lat="44.75160138024072" lon="9.335200880963468"><ele>947.0</ele><time>2026-03-28T12:32:20.998Z</time></trkpt><trkpt lat="44.75166056290578" lon="9.335240679644288"><ele>947.0</ele><time>2026-03-28T12:32:22.998Z</time></trkpt><trkpt lat="44.7517268853343" lon="9.335317371281334"><ele>947.0</ele><time>2026-03-28T12:32:25.998Z</time></trkpt><trkpt lat="44.7519679374569" lon="9.335596945646062"><ele>947.0</ele><time>2026-03-28T12:32:27.998Z</time></trkpt><trkpt lat="44.75198035757346" lon="9.335738593059455"><ele>946.0</ele><time>2026-03-28T12:32:29.998Z</time></trkpt><trkpt lat="44.752006437429245" lon="9.335857089595107"><ele>945.0</ele><time>2026-03-28T12:32:32Z</time></trkpt><trkpt lat="44.75206580003103" lon="9.336012196179647"><ele>944.0</ele><time>2026-03-28T12:32:34Z</time></trkpt><trkpt lat="44.752103092257485" lon="9.33608873330735"><ele>943.0</ele><time>2026-03-28T12:32:35Z</time></trkpt><trkpt lat="44.7521407024922" lon="9.336162387056731"><ele>942.0</ele><time>2026-03-28T12:32:36Z</time></trkpt><trkpt lat="44.752215450916474" lon="9.336286210638152"><ele>942.0</ele><time>2026-03-28T12:32:38Z</time></trkpt><trkpt lat="44.752300560634794" lon="9.33632373671987"><ele>942.0</ele><time>2026-03-28T12:32:40Z</time></trkpt><trkpt lat="44.75239928053436" lon="9.336397111701622"><ele>942.0</ele><time>2026-03-28T12:32:42Z</time></trkpt><trkpt lat="44.75245752102287" lon="9.336449970039862"><ele>942.0</ele><time>2026-03-28T12:32:43Z</time></trkpt><trkpt lat="44.75251480821038" lon="9.336492257671242"><ele>942.0</ele><time>2026-03-28T12:32:44Z</time></trkpt><trkpt lat="44.75256895829648" lon="9.336538942831243"><ele>942.0</ele><time>2026-03-28T12:32:45Z</time></trkpt><trkpt lat="44.752627594903025" lon="9.336594366005887"><ele>943.1666666666666</ele><time>2026-03-28T12:32:46Z</time></trkpt><trkpt lat="44.752732660572" lon="9.336678132547242"><ele>944.3333333333333</ele><time>2026-03-28T12:32:48Z</time></trkpt><trkpt lat="44.752789950529106" lon="9.336747744446571"><ele>945.5</ele><time>2026-03-28T12:32:50Z</time></trkpt><trkpt lat="44.752798937375076" lon="9.33683704543359"><ele>946.6666666666666</ele><time>2026-03-28T12:32:53Z</time></trkpt><trkpt lat="44.75279628645932" lon="9.33694475964925"><ele>947.8333333333333</ele><time>2026-03-28T12:32:57Z</time></trkpt><trkpt lat="44.752800614429454" lon="9.337043615280932"><ele>949.0</ele><time>2026-03-28T12:33:00Z</time></trkpt><trkpt lat="44.7527836216569" lon="9.337157562603581"><ele>947.6</ele><time>2026-03-28T12:33:04Z</time></trkpt><trkpt lat="44.75276758055072" lon="9.337246935174717"><ele>946.2</ele><time>2026-03-28T12:33:06.999Z</time></trkpt><trkpt lat="44.75270968530872" lon="9.337335816991033"><ele>944.8000000000001</ele><time>2026-03-28T12:33:09.999Z</time></trkpt><trkpt lat="44.75268470623946" lon="9.337420662697212"><ele>943.4000000000001</ele><time>2026-03-28T12:33:11.999Z</time></trkpt><trkpt lat="44.75261524087902" lon="9.337563865980213"><ele>942.0</ele><time>2026-03-28T12:33:13.999Z</time></trkpt><trkpt lat="44.752555514155226" lon="9.337728845717514"><ele>937.3333333333334</ele><time>2026-03-28T12:33:15.999Z</time></trkpt><trkpt lat="44.75249343149603" lon="9.337830162116967"><ele>932.6666666666667</ele><time>2026-03-28T12:33:16.999Z</time></trkpt><trkpt lat="44.752431864550275" lon="9.337912863680282"><ele>928.0</ele><time>2026-03-28T12:33:18.999Z</time></trkpt><trkpt lat="44.752355615766945" lon="9.337963430568644"><ele>923.3333333333334</ele><time>2026-03-28T12:33:20.999Z</time></trkpt><trkpt lat="44.75228621943681" lon="9.338016413442139"><ele>918.6666666666667</ele><time>2026-03-28T12:33:22.999Z</time></trkpt><trkpt lat="44.75224371124311" lon="9.338083833795134"><ele>914.0</ele><time>2026-03-28T12:33:24.999Z</time></trkpt><trkpt lat="44.752244054684404" lon="9.338221145684429"><ele>914.0000000000001</ele><time>2026-03-28T12:33:27.999Z</time></trkpt><trkpt lat="44.752245393807286" lon="9.338320372322356"><ele>914.0</ele><time>2026-03-28T12:33:29.999Z</time></trkpt><trkpt lat="44.752229268819136" lon="9.338413908728139"><ele>914.0</ele><time>2026-03-28T12:33:31.999Z</time></trkpt><trkpt lat="44.75220170831487" lon="9.338509034288016"><ele>914.0</ele><time>2026-03-28T12:33:33.999Z</time></trkpt><trkpt lat="44.75211018419286" lon="9.338576061217914"><ele>914.0000000000001</ele><time>2026-03-28T12:33:35.999Z</time></trkpt><trkpt lat="44.752042621241884" lon="9.338587599218826"><ele>914.0</ele><time>2026-03-28T12:33:38.999Z</time></trkpt><trkpt lat="44.75197160495197" lon="9.338634037522633"><ele>914.0000000000001</ele><time>2026-03-28T12:33:40.999Z</time></trkpt><trkpt lat="44.7519014029703" lon="9.338737318137806"><ele>914.0</ele><time>2026-03-28T12:33:43.999Z</time></trkpt><trkpt lat="44.7518274643309" lon="9.338796940455344"><ele>914.0</ele><time>2026-03-28T12:33:46.999Z</time></trkpt><trkpt lat="44.75177369479046" lon="9.338854461603791"><ele>914.0</ele><time>2026-03-28T12:33:48.999Z</time></trkpt><trkpt lat="44.751724606773486" lon="9.338928596367003"><ele>914.0000000000001</ele><time>2026-03-28T12:33:51.999Z</time></trkpt><trkpt lat="44.751692108292815" lon="9.33900941692418"><ele>914.0</ele><time>2026-03-28T12:33:54.999Z</time></trkpt><trkpt lat="44.75165256430257" lon="9.339100768255514"><ele>909.5714285714287</ele><time>2026-03-28T12:33:57.998Z</time></trkpt><trkpt lat="44.751641826399485" lon="9.339188375451496"><ele>905.1428571428571</ele><time>2026-03-28T12:33:59.998Z</time></trkpt><trkpt lat="44.75164576516241" lon="9.339284976507662"><ele>900.7142857142858</ele><time>2026-03-28T12:34:01.998Z</time></trkpt><trkpt lat="44.75162923399761" lon="9.339422252108502"><ele>896.2857142857143</ele><time>2026-03-28T12:34:03.998Z</time></trkpt><trkpt lat="44.75164910835479" lon="9.339514549184612"><ele>891.8571428571429</ele><time>2026-03-28T12:34:06.998Z</time></trkpt><trkpt lat="44.75167461868765" lon="9.33959987817116"><ele>887.4285714285714</ele><time>2026-03-28T12:34:08.998Z</time></trkpt><trkpt lat="44.75168128205874" lon="9.339698680238287"><ele>883.0</ele><time>2026-03-28T12:34:10.998Z</time></trkpt><trkpt lat="44.75168539173836" lon="9.339826511709871"><ele>881.7142857142858</ele><time>2026-03-28T12:34:13.998Z</time></trkpt><trkpt lat="44.75166250905484" lon="9.339916141149727"><ele>880.4285714285713</ele><time>2026-03-28T12:34:15.998Z</time></trkpt><trkpt lat="44.75165032222412" lon="9.340004923374368"><ele>879.1428571428571</ele><time>2026-03-28T12:34:17.998Z</time></trkpt><trkpt lat="44.75161963390434" lon="9.34009204743414"><ele>877.8571428571429</ele><time>2026-03-28T12:34:19.998Z</time></trkpt><trkpt lat="44.751585032483845" lon="9.340221687968953"><ele>876.5714285714287</ele><time>2026-03-28T12:34:22.998Z</time></trkpt><trkpt lat="44.751553660644504" lon="9.340327155144664"><ele>875.2857142857142</ele><time>2026-03-28T12:36:08.998Z</time></trkpt><trkpt lat="44.751605477133026" lon="9.340383507003216"><ele>874.0</ele><time>2026-03-28T12:36:47Z</time></trkpt><trkpt lat="44.75171159532851" lon="9.340376853372426"><ele>874.0</ele><time>2026-03-28T12:36:51Z</time></trkpt><trkpt lat="44.75178373106555" lon="9.340361960127916"><ele>874.0</ele><time>2026-03-28T12:36:53Z</time></trkpt><trkpt lat="44.751855762539925" lon="9.34033625301091"><ele>874.0</ele><time>2026-03-28T12:36:56Z</time></trkpt><trkpt lat="44.751929948667694" lon="9.340346803019077"><ele>874.0</ele><time>2026-03-28T12:36:59Z</time></trkpt><trkpt lat="44.75201400891059" lon="9.340361964686174"><ele>874.0</ele><time>2026-03-28T12:37:02Z</time></trkpt><trkpt lat="44.7520821651595" lon="9.340373763089485"><ele>874.0</ele><time>2026-03-28T12:37:05Z</time></trkpt><trkpt lat="44.752152577603425" lon="9.340386496191163"><ele>874.0</ele><time>2026-03-28T12:37:07Z</time></trkpt><trkpt lat="44.7522354930973" lon="9.34039027955006"><ele>875.3333333333333</ele><time>2026-03-28T12:37:09Z</time></trkpt><trkpt lat="44.75231912459109" lon="9.340383152751642"><ele>876.6666666666666</ele><time>2026-03-28T12:37:12Z</time></trkpt><trkpt lat="44.752394312249" lon="9.340397209051812"><ele>878.0</ele><time>2026-03-28T12:37:15.999Z</time></trkpt><trkpt lat="44.752465679947505" lon="9.340421773586998"><ele>879.3333333333333</ele><time>2026-03-28T12:37:18.999Z</time></trkpt><trkpt lat="44.75254639643266" lon="9.340451847850902"><ele>880.6666666666666</ele><time>2026-03-28T12:37:32.999Z</time></trkpt><trkpt lat="44.75261381947865" lon="9.340480495650644"><ele>882.0</ele><time>2026-03-28T12:37:35.999Z</time></trkpt><trkpt lat="44.75265036487197" lon="9.34056179822448"><ele>876.1666666666666</ele><time>2026-03-28T12:37:39.999Z</time></trkpt><trkpt lat="44.75255344843239" lon="9.340613796041922"><ele>870.3333333333333</ele><time>2026-03-28T12:37:42.999Z</time></trkpt><trkpt lat="44.752432856453716" lon="9.340652916559405"><ele>864.5</ele><time>2026-03-28T12:37:44.999Z</time></trkpt><trkpt lat="44.752356744121734" lon="9.340664152197856"><ele>858.6666666666666</ele><time>2026-03-28T12:37:45.999Z</time></trkpt><trkpt lat="44.752292691201404" lon="9.34068407495762"><ele>852.8333333333333</ele><time>2026-03-28T12:37:46.999Z</time></trkpt><trkpt lat="44.752223651834065" lon="9.340700785669922"><ele>847.0</ele><time>2026-03-28T12:37:47.999Z</time></trkpt><trkpt lat="44.75215555434723" lon="9.340717539150623"><ele>846.9999999999999</ele><time>2026-03-28T12:37:48.999Z</time></trkpt><trkpt lat="44.7520569752012" lon="9.340746594752183"><ele>847.0</ele><time>2026-03-28T12:37:50.999Z</time></trkpt><trkpt lat="44.75199916050861" lon="9.340786826183255"><ele>847.0</ele><time>2026-03-28T12:37:52.999Z</time></trkpt><trkpt lat="44.75192088402861" lon="9.340860510066786"><ele>847.0</ele><time>2026-03-28T12:37:54.999Z</time></trkpt><trkpt lat="44.751841141440394" lon="9.340965558888795"><ele>846.9999999999999</ele><time>2026-03-28T12:37:56.999Z</time></trkpt><trkpt lat="44.75179490105155" lon="9.341037010717093"><ele>847.0</ele><time>2026-03-28T12:37:58.999Z</time></trkpt><trkpt lat="44.75172924397602" lon="9.341098863934393"><ele>847.6666666666666</ele><time>2026-03-28T12:38:00.999Z</time></trkpt><trkpt lat="44.751648363912985" lon="9.341158798357027"><ele>848.3333333333333</ele><time>2026-03-28T12:38:02.999Z</time></trkpt><trkpt lat="44.751591198190596" lon="9.341234390493206"><ele>849.0</ele><time>2026-03-28T12:38:04.999Z</time></trkpt><trkpt lat="44.75154531912295" lon="9.341304892840899"><ele>849.6666666666667</ele><time>2026-03-28T12:38:06.998Z</time></trkpt><trkpt lat="44.75147881518106" lon="9.341383507585586"><ele>850.3333333333334</ele><time>2026-03-28T12:38:08.998Z</time></trkpt><trkpt lat="44.751403951856624" lon="9.341459012510814"><ele>851.0</ele><time>2026-03-28T12:38:10.998Z</time></trkpt><trkpt lat="44.75132196221047" lon="9.341562360506478"><ele>845.6666666666667</ele><time>2026-03-28T12:38:12.998Z</time></trkpt><trkpt lat="44.75123633696507" lon="9.341598118776204"><ele>840.3333333333334</ele><time>2026-03-28T12:38:14.998Z</time></trkpt><trkpt lat="44.75117041652921" lon="9.341624390694278"><ele>835.0</ele><time>2026-03-28T12:38:15.998Z</time></trkpt><trkpt lat="44.75109990429918" lon="9.34163509256128"><ele>829.6666666666667</ele><time>2026-03-28T12:38:16.998Z</time></trkpt><trkpt lat="44.750990742327325" lon="9.341633525176999"><ele>824.3333333333334</ele><time>2026-03-28T12:38:18.998Z</time></trkpt><trkpt lat="44.75090457425888" lon="9.34163341396077"><ele>819.0</ele><time>2026-03-28T12:38:20.998Z</time></trkpt><trkpt lat="44.75080229623179" lon="9.341606893075555"><ele>817.2</ele><time>2026-03-28T12:38:22.998Z</time></trkpt><trkpt lat="44.75068343622899" lon="9.341552580597767"><ele>815.4000000000001</ele><time>2026-03-28T12:38:24.998Z</time></trkpt><trkpt lat="44.75062676919792" lon="9.341508866749932"><ele>813.6</ele><time>2026-03-28T12:38:25.998Z</time></trkpt><trkpt lat="44.75051776288444" lon="9.341416010033413"><ele>811.8</ele><time>2026-03-28T12:38:27.998Z</time></trkpt><trkpt lat="44.750443220730624" lon="9.34136611790679"><ele>810.0</ele><time>2026-03-28T12:38:28.998Z</time></trkpt><trkpt lat="44.750384289974455" lon="9.341328812693105"><ele>810.6</ele><time>2026-03-28T12:38:29.998Z</time></trkpt><trkpt lat="44.75030879114413" lon="9.34130994467426"><ele>811.2</ele><time>2026-03-28T12:38:31.998Z</time></trkpt><trkpt lat="44.75019341008389" lon="9.341239163072688"><ele>811.8</ele><time>2026-03-28T12:38:33.998Z</time></trkpt><trkpt lat="44.75010988599723" lon="9.341163394082518"><ele>812.4</ele><time>2026-03-28T12:38:35.998Z</time></trkpt><trkpt lat="44.750018283117015" lon="9.341090639618729"><ele>813.0</ele><time>2026-03-28T12:38:37.998Z</time></trkpt><trkpt lat="44.74997411461211" lon="9.34100846224288"><ele>813.0</ele><time>2026-03-28T12:38:39.998Z</time></trkpt><trkpt lat="44.74990604414743" lon="9.340917001377601"><ele>813.0</ele><time>2026-03-28T12:38:54Z</time></trkpt><trkpt lat="44.74988410929744" lon="9.340819861447203"><ele>813.0</ele><time>2026-03-28T12:38:56Z</time></trkpt><trkpt lat="44.749894759051976" lon="9.340704955225402"><ele>813.0</ele><time>2026-03-28T12:38:58Z</time></trkpt><trkpt lat="44.749877058296775" lon="9.34061393968404"><ele>813.0</ele><time>2026-03-28T12:39:00Z</time></trkpt><trkpt lat="44.74989871097954" lon="9.340470983100358"><ele>813.0</ele><time>2026-03-28T12:39:03Z</time></trkpt><trkpt lat="44.74992006069116" lon="9.340355157742348"><ele>812.4285714285714</ele><time>2026-03-28T12:39:05Z</time></trkpt><trkpt lat="44.74993387098208" lon="9.340264731023387"><ele>811.8571428571428</ele><time>2026-03-28T12:39:07Z</time></trkpt><trkpt lat="44.74995223548424" lon="9.34015623554004"><ele>811.2857142857142</ele><time>2026-03-28T12:39:10Z</time></trkpt><trkpt lat="44.74996572992196" lon="9.340062525704065"><ele>810.7142857142858</ele><time>2026-03-28T12:39:13Z</time></trkpt><trkpt lat="44.74996245555973" lon="9.339966375466814"><ele>810.1428571428571</ele><time>2026-03-28T12:39:15Z</time></trkpt><trkpt lat="44.74996963077453" lon="9.339869684677005"><ele>809.5714285714286</ele><time>2026-03-28T12:39:16Z</time></trkpt><trkpt lat="44.749967497273644" lon="9.339767722447371"><ele>809.0</ele><time>2026-03-28T12:39:18.999Z</time></trkpt><trkpt lat="44.74994619554736" lon="9.339683308287666"><ele>806.8000000000001</ele><time>2026-03-28T12:39:25.999Z</time></trkpt><trkpt lat="44.74994280509595" lon="9.339557816819875"><ele>804.6</ele><time>2026-03-28T12:39:31.999Z</time></trkpt><trkpt lat="44.74993821905069" lon="9.339428845174435"><ele>802.4</ele><time>2026-03-28T12:39:34.999Z</time></trkpt><trkpt lat="44.74994684427492" lon="9.339273687151262"><ele>800.2</ele><time>2026-03-28T12:39:36.999Z</time></trkpt><trkpt lat="44.74997890177206" lon="9.339192677635468"><ele>798.0</ele><time>2026-03-28T12:39:37.999Z</time></trkpt><trkpt lat="44.75002179271702" lon="9.339067781549677"><ele>798.0</ele><time>2026-03-28T12:39:39.999Z</time></trkpt><trkpt lat="44.7500501310356" lon="9.338931828855644"><ele>798.0</ele><time>2026-03-28T12:39:42.999Z</time></trkpt><trkpt lat="44.7501031325196" lon="9.3388353515084"><ele>798.0</ele><time>2026-03-28T12:39:45.999Z</time></trkpt><trkpt lat="44.750106543226934" lon="9.338721995617062"><ele>798.0</ele><time>2026-03-28T12:39:48.999Z</time></trkpt><trkpt lat="44.75013701441777" lon="9.338833690610786"><ele>798.0</ele><time>2026-03-28T12:43:55.999Z</time></trkpt><trkpt lat="44.75009243937374" lon="9.338914282029364"><ele>798.0</ele><time>2026-03-28T12:43:58.999Z</time></trkpt><trkpt lat="44.75007344004305" lon="9.339032211402174"><ele>798.0</ele><time>2026-03-28T12:44:01.999Z</time></trkpt><trkpt lat="44.75005114872854" lon="9.33912964153318"><ele>798.0</ele><time>2026-03-28T12:44:03.999Z</time></trkpt><trkpt lat="44.75000585049625" lon="9.339266739561479"><ele>798.0</ele><time>2026-03-28T12:44:05.999Z</time></trkpt><trkpt lat="44.7500009527498" lon="9.339406095473453"><ele>798.0</ele><time>2026-03-28T12:44:07.999Z</time></trkpt><trkpt lat="44.75001002757754" lon="9.339497294649991"><ele>798.0</ele><time>2026-03-28T12:44:11.999Z</time></trkpt><trkpt lat="44.74999503680602" lon="9.33959117038736"><ele>798.0</ele><time>2026-03-28T12:44:17.998Z</time></trkpt><trkpt lat="44.75000500423708" lon="9.339742242791573"><ele>799.8333333333334</ele><time>2026-03-28T12:44:19.998Z</time></trkpt><trkpt lat="44.7500092918078" lon="9.339850539319222"><ele>801.6666666666667</ele><time>2026-03-28T12:44:21.998Z</time></trkpt><trkpt lat="44.74999592458815" lon="9.33998126015375"><ele>803.5</ele><time>2026-03-28T12:44:24.998Z</time></trkpt><trkpt lat="44.749973748159974" lon="9.340112877268144"><ele>805.3333333333334</ele><time>2026-03-28T12:44:27.998Z</time></trkpt><trkpt lat="44.74996774322682" lon="9.340203256261354"><ele>807.1666666666667</ele><time>2026-03-28T12:44:30.998Z</time></trkpt><trkpt lat="44.749954949085165" lon="9.340306238045526"><ele>809.0</ele><time>2026-03-28T12:44:34.998Z</time></trkpt><trkpt lat="44.74994322275331" lon="9.340427046620217"><ele>809.0000000000001</ele><time>2026-03-28T12:44:37.998Z</time></trkpt><trkpt lat="44.74992670912047" lon="9.34054756514674"><ele>809.0</ele><time>2026-03-28T12:44:40.998Z</time></trkpt><trkpt lat="44.74992716846861" lon="9.34068475173853"><ele>809.0</ele><time>2026-03-28T12:44:42.998Z</time></trkpt><trkpt lat="44.74994038678872" lon="9.340801575680684"><ele>809.0</ele><time>2026-03-28T12:44:44.998Z</time></trkpt><trkpt lat="44.74994751908243" lon="9.340919786055174"><ele>809.0000000000001</ele><time>2026-03-28T12:44:46.998Z</time></trkpt><trkpt lat="44.750004434432185" lon="9.341019705224593"><ele>809.0</ele><time>2026-03-28T12:45:09Z</time></trkpt><trkpt lat="44.75006810784045" lon="9.341118762707886"><ele>809.2</ele><time>2026-03-28T12:45:11Z</time></trkpt><trkpt lat="44.75015109572149" lon="9.341171942719441"><ele>809.4000000000001</ele><time>2026-03-28T12:45:13Z</time></trkpt><trkpt lat="44.75023836847416" lon="9.341248159223108"><ele>809.6</ele><time>2026-03-28T12:45:15Z</time></trkpt><trkpt lat="44.75035633609739" lon="9.341332803237913"><ele>809.8</ele><time>2026-03-28T12:45:17Z</time></trkpt><trkpt lat="44.75046375371238" lon="9.341350639877609"><ele>810.0</ele><time>2026-03-28T12:45:19Z</time></trkpt><trkpt lat="44.75056823592578" lon="9.341424465795908"><ele>810.0</ele><time>2026-03-28T12:45:21Z</time></trkpt><trkpt lat="44.750639092279656" lon="9.341474127416406"><ele>810.0</ele><time>2026-03-28T12:45:22Z</time></trkpt><trkpt lat="44.75070706171796" lon="9.34153565634451"><ele>810.0</ele><time>2026-03-28T12:45:23Z</time></trkpt><trkpt lat="44.750769105282146" lon="9.341582037606557"><ele>810.0</ele><time>2026-03-28T12:45:24Z</time></trkpt><trkpt lat="44.75086726801547" lon="9.341630127514263"><ele>810.0</ele><time>2026-03-28T12:45:26Z</time></trkpt><trkpt lat="44.75094158214836" lon="9.34162561101409"><ele>810.0</ele><time>2026-03-28T12:45:28Z</time></trkpt><trkpt lat="44.751056718714054" lon="9.341649050112254"><ele>811.8</ele><time>2026-03-28T12:45:30Z</time></trkpt><trkpt lat="44.75114312620132" lon="9.341626601279366"><ele>813.6</ele><time>2026-03-28T12:45:31Z</time></trkpt><trkpt lat="44.75121394110516" lon="9.341610372057863"><ele>815.4000000000001</ele><time>2026-03-28T12:45:31.999Z</time></trkpt><trkpt lat="44.751320382594265" lon="9.341543884905093"><ele>817.2</ele><time>2026-03-28T12:45:33.999Z</time></trkpt><trkpt lat="44.75137776323681" lon="9.341447472416247"><ele>819.0</ele><time>2026-03-28T12:45:35.999Z</time></trkpt><trkpt lat="44.7514343979743" lon="9.341340638227777"><ele>825.4000000000001</ele><time>2026-03-28T12:45:37.999Z</time></trkpt><trkpt lat="44.751532447938985" lon="9.3412302275319"><ele>831.8</ele><time>2026-03-28T12:45:39.999Z</time></trkpt><trkpt lat="44.751579775418506" lon="9.341145926299475"><ele>838.2</ele><time>2026-03-28T12:45:41.999Z</time></trkpt><trkpt lat="44.7516635529969" lon="9.341045166152416"><ele>844.5999999999999</ele><time>2026-03-28T12:45:43.999Z</time></trkpt><trkpt lat="44.75174369614724" lon="9.340978454169933"><ele>851.0</ele><time>2026-03-28T12:45:45.999Z</time></trkpt><trkpt lat="44.75181910675787" lon="9.340872334619673"><ele>850.3333333333334</ele><time>2026-03-28T12:45:47.999Z</time></trkpt><trkpt lat="44.75190550165874" lon="9.340785944046178"><ele>849.6666666666667</ele><time>2026-03-28T12:45:49.999Z</time></trkpt><trkpt lat="44.75197233166617" lon="9.340678933286709"><ele>849.0</ele><time>2026-03-28T12:45:51.999Z</time></trkpt><trkpt lat="44.75204482875613" lon="9.340672489518584"><ele>848.3333333333333</ele><time>2026-03-28T12:45:53.999Z</time></trkpt><trkpt lat="44.75210468833715" lon="9.340644422698015"><ele>847.6666666666666</ele><time>2026-03-28T12:45:54.999Z</time></trkpt><trkpt lat="44.752182990766414" lon="9.340609793628365"><ele>847.0</ele><time>2026-03-28T12:45:55.999Z</time></trkpt><trkpt lat="44.7522654519024" lon="9.340601362931864"><ele>846.9999999999999</ele><time>2026-03-28T12:45:56.999Z</time></trkpt><trkpt lat="44.75233837380135" lon="9.340596028826901"><ele>847.0</ele><time>2026-03-28T12:45:57.999Z</time></trkpt><trkpt lat="44.75241895858258" lon="9.34059156269853"><ele>847.0</ele><time>2026-03-28T12:45:58.999Z</time></trkpt><trkpt lat="44.752506274237916" lon="9.340589842885453"><ele>847.0</ele><time>2026-03-28T12:45:59.999Z</time></trkpt><trkpt lat="44.752577686391255" lon="9.340582113533383"><ele>846.9999999999999</ele><time>2026-03-28T12:46:00.999Z</time></trkpt><trkpt lat="44.75265160635271" lon="9.340548763469975"><ele>847.0</ele><time>2026-03-28T12:46:01.999Z</time></trkpt><trkpt lat="44.75276318700975" lon="9.340496126324823"><ele>853.6</ele><time>2026-03-28T12:46:03.999Z</time></trkpt><trkpt lat="44.75283592072217" lon="9.34046301254595"><ele>860.2</ele><time>2026-03-28T12:46:04.999Z</time></trkpt><trkpt lat="44.75291853764757" lon="9.340418508254782"><ele>866.8</ele><time>2026-03-28T12:46:05.999Z</time></trkpt><trkpt lat="44.75302851479968" lon="9.340356201238013"><ele>873.4</ele><time>2026-03-28T12:46:07.999Z</time></trkpt><trkpt lat="44.75309426903868" lon="9.34032807280001"><ele>880.0</ele><time>2026-03-28T12:46:08.999Z</time></trkpt><trkpt lat="44.75321259243192" lon="9.340281944068153"><ele>880.0</ele><time>2026-03-28T12:46:10.999Z</time></trkpt><trkpt lat="44.753290529568616" lon="9.340262113511223"><ele>880.0</ele><time>2026-03-28T12:46:11.999Z</time></trkpt><trkpt lat="44.75337402647503" lon="9.340231405381147"><ele>880.0</ele><time>2026-03-28T12:46:12.999Z</time></trkpt><trkpt lat="44.753483672973736" lon="9.340180492053548"><ele>880.0</ele><time>2026-03-28T12:46:14.999Z</time></trkpt><trkpt lat="44.75360889373487" lon="9.340146947176494"><ele>880.0</ele><time>2026-03-28T12:46:16.999Z</time></trkpt><trkpt lat="44.75367875533209" lon="9.340120306630588"><ele>881.0</ele><time>2026-03-28T12:46:17.999Z</time></trkpt><trkpt lat="44.753755842289536" lon="9.340094881761063"><ele>882.0</ele><time>2026-03-28T12:46:18.999Z</time></trkpt><trkpt lat="44.753828040488436" lon="9.340072839577742"><ele>883.0</ele><time>2026-03-28T12:46:19.999Z</time></trkpt><trkpt lat="44.75393648133773" lon="9.340047449230456"><ele>884.0</ele><time>2026-03-28T12:46:21.998Z</time></trkpt><trkpt lat="44.75406734001938" lon="9.340042444470448"><ele>885.0</ele><time>2026-03-28T12:46:23.998Z</time></trkpt><trkpt lat="44.75414512340423" lon="9.340035874116516"><ele>885.0</ele><time>2026-03-28T12:46:24.998Z</time></trkpt><trkpt lat="44.75421648823882" lon="9.340041226301002"><ele>885.0</ele><time>2026-03-28T12:46:25.998Z</time></trkpt><trkpt lat="44.754331093084176" lon="9.340056778429474"><ele>885.0</ele><time>2026-03-28T12:46:27.998Z</time></trkpt><trkpt lat="44.75439666149903" lon="9.340067684535633"><ele>885.0</ele><time>2026-03-28T12:46:28.998Z</time></trkpt><trkpt lat="44.75446425674608" lon="9.340083771444831"><ele>885.0</ele><time>2026-03-28T12:46:29.998Z</time></trkpt><trkpt lat="44.75457376366086" lon="9.340152283832673"><ele>885.0</ele><time>2026-03-28T12:46:31.998Z</time></trkpt><trkpt lat="44.754632009328574" lon="9.340206637568722"><ele>887.6666666666666</ele><time>2026-03-28T12:46:32.998Z</time></trkpt><trkpt lat="44.75467930531277" lon="9.340267356628111"><ele>890.3333333333333</ele><time>2026-03-28T12:46:33.998Z</time></trkpt><trkpt lat="44.75476627777512" lon="9.340384849371741"><ele>893.0</ele><time>2026-03-28T12:46:35.998Z</time></trkpt><trkpt lat="44.75484557765711" lon="9.340472639754285"><ele>895.6666666666666</ele><time>2026-03-28T12:46:37.998Z</time></trkpt><trkpt lat="44.754908719588265" lon="9.340493837051307"><ele>898.3333333333333</ele><time>2026-03-28T12:46:38.998Z</time></trkpt><trkpt lat="44.75496261909501" lon="9.34057973143068"><ele>901.0</ele><time>2026-03-28T12:46:40.998Z</time></trkpt><trkpt lat="44.75497323272792" lon="9.34070506149759"><ele>900.9999999999999</ele><time>2026-03-28T12:46:42.998Z</time></trkpt><trkpt lat="44.75496848214368" lon="9.340798298628139"><ele>901.0</ele><time>2026-03-28T12:46:43.998Z</time></trkpt><trkpt lat="44.754997558941774" lon="9.340900963425284"><ele>901.0</ele><time>2026-03-28T12:46:44.998Z</time></trkpt><trkpt lat="44.755030964345515" lon="9.341012048896326"><ele>901.0</ele><time>2026-03-28T12:46:45.998Z</time></trkpt><trkpt lat="44.75504107574505" lon="9.341150276757284"><ele>900.9999999999999</ele><time>2026-03-28T12:46:46.998Z</time></trkpt><trkpt lat="44.75505024997503" lon="9.341290253714815"><ele>901.0</ele><time>2026-03-28T12:46:47.998Z</time></trkpt><trkpt lat="44.75505015984445" lon="9.34140738934962"><ele>900.9999999999999</ele><time>2026-03-28T12:46:48.998Z</time></trkpt><trkpt lat="44.75506970570398" lon="9.341522901664495"><ele>901.0</ele><time>2026-03-28T12:46:49.998Z</time></trkpt><trkpt lat="44.755101968320666" lon="9.341630591633974"><ele>901.0</ele><time>2026-03-28T12:46:50.998Z</time></trkpt><trkpt lat="44.75514421120667" lon="9.341738625624478"><ele>901.0</ele><time>2026-03-28T12:46:51.998Z</time></trkpt><trkpt lat="44.755196266000816" lon="9.341833046271942"><ele>900.9999999999999</ele><time>2026-03-28T12:46:52.998Z</time></trkpt><trkpt lat="44.755273338188715" lon="9.34190122851178"><ele>901.0</ele><time>2026-03-28T12:46:53.998Z</time></trkpt><trkpt lat="44.755344563566126" lon="9.341962910650318"><ele>905.8333333333333</ele><time>2026-03-28T12:46:54.998Z</time></trkpt><trkpt lat="44.75539973605133" lon="9.342025203832536"><ele>910.6666666666666</ele><time>2026-03-28T12:46:55.998Z</time></trkpt><trkpt lat="44.75549586006799" lon="9.342096419198295"><ele>915.5</ele><time>2026-03-28T12:46:57.998Z</time></trkpt><trkpt lat="44.755576156248964" lon="9.342144188452343"><ele>920.3333333333333</ele><time>2026-03-28T12:46:59.998Z</time></trkpt><trkpt lat="44.75566671843834" lon="9.342116725734574"><ele>925.1666666666666</ele><time>2026-03-28T12:47:01.998Z</time></trkpt><trkpt lat="44.75574881959561" lon="9.342135183267374"><ele>930.0</ele><time>2026-03-28T12:47:03.998Z</time></trkpt><trkpt lat="44.75582340692465" lon="9.342197785049176"><ele>930.0</ele><time>2026-03-28T12:47:05.998Z</time></trkpt><trkpt lat="44.75587822240713" lon="9.342268220514935"><ele>930.0</ele><time>2026-03-28T12:47:07.998Z</time></trkpt><trkpt lat="44.755826254882784" lon="9.342351368827376"><ele>930.0</ele><time>2026-03-28T12:48:25.998Z</time></trkpt><trkpt lat="44.75577105142123" lon="9.342280782957532"><ele>930.0</ele><time>2026-03-28T12:48:28.998Z</time></trkpt><trkpt lat="44.7557200963409" lon="9.342170273147849"><ele>930.0</ele><time>2026-03-28T12:48:31.998Z</time></trkpt><trkpt lat="44.75564524236627" lon="9.342146242438098"><ele>930.0</ele><time>2026-03-28T12:48:33.998Z</time></trkpt><trkpt lat="44.755565191075405" lon="9.342157068921852"><ele>930.0</ele><time>2026-03-28T12:48:35.998Z</time></trkpt><trkpt lat="44.75548332127703" lon="9.342121693799655"><ele>930.0</ele><time>2026-03-28T12:48:37.998Z</time></trkpt><trkpt lat="44.75541081917125" lon="9.342062925255155"><ele>930.0</ele><time>2026-03-28T12:48:39.998Z</time></trkpt><trkpt lat="44.75536978989699" lon="9.341986963534568"><ele>930.0</ele><time>2026-03-28T12:48:42.998Z</time></trkpt><trkpt lat="44.75530724539441" lon="9.341952428504094"><ele>930.0</ele><time>2026-03-28T12:49:28Z</time></trkpt><trkpt lat="44.7553850095426" lon="9.342004490356295"><ele>930.0</ele><time>2026-03-28T12:49:41.999Z</time></trkpt><trkpt lat="44.75546403253395" lon="9.342070936487525"><ele>930.0</ele><time>2026-03-28T12:49:43.999Z</time></trkpt><trkpt lat="44.75553792586293" lon="9.34212172146504"><ele>930.0</ele><time>2026-03-28T12:49:45.999Z</time></trkpt><trkpt lat="44.75560554491711" lon="9.342109968813741"><ele>930.0</ele><time>2026-03-28T12:49:47.999Z</time></trkpt><trkpt lat="44.75570536011694" lon="9.342136551384117"><ele>930.0</ele><time>2026-03-28T12:49:49.999Z</time></trkpt><trkpt lat="44.755775436553755" lon="9.342227331285649"><ele>930.0</ele><time>2026-03-28T12:49:51.999Z</time></trkpt><trkpt lat="44.755824749308516" lon="9.34228787587899"><ele>930.0</ele><time>2026-03-28T12:49:53.999Z</time></trkpt><trkpt lat="44.755946486759235" lon="9.342291969286753"><ele>936.2</ele><time>2026-03-28T12:49:55.999Z</time></trkpt><trkpt lat="44.75604258568185" lon="9.342282835433249"><ele>942.4</ele><time>2026-03-28T12:49:57.999Z</time></trkpt><trkpt lat="44.75613815835055" lon="9.34229576842872"><ele>948.5999999999999</ele><time>2026-03-28T12:49:59.999Z</time></trkpt><trkpt lat="44.7562354984316" lon="9.342256184123208"><ele>954.8</ele><time>2026-03-28T12:50:01.999Z</time></trkpt><trkpt lat="44.75627737145465" lon="9.342174224929494"><ele>961.0</ele><time>2026-03-28T12:50:03.999Z</time></trkpt><trkpt lat="44.75624948413607" lon="9.342051362021099"><ele>961.0</ele><time>2026-03-28T12:50:05.999Z</time></trkpt><trkpt lat="44.756302653546776" lon="9.342003583919052"><ele>960.9999999999999</ele><time>2026-03-28T12:50:10.999Z</time></trkpt><trkpt lat="44.75632072404051" lon="9.34210322950802"><ele>960.9999999999999</ele><time>2026-03-28T12:50:13.999Z</time></trkpt><trkpt lat="44.75622498458575" lon="9.342412818688356"><ele>961.0</ele><time>2026-03-28T12:50:17.999Z</time></trkpt><trkpt lat="44.75618914729488" lon="9.342495366316124"><ele>961.0</ele><time>2026-03-28T12:50:18.999Z</time></trkpt><trkpt lat="44.756140175192925" lon="9.342599681417362"><ele>961.8</ele><time>2026-03-28T12:50:19.999Z</time></trkpt><trkpt lat="44.756103504256096" lon="9.342695025107455"><ele>962.5999999999999</ele><time>2026-03-28T12:50:20.999Z</time></trkpt><trkpt lat="44.756073599762544" lon="9.342791669960983"><ele>963.4</ele><time>2026-03-28T12:50:21.999Z</time></trkpt><trkpt lat="44.75601209032121" lon="9.342912697597496"><ele>964.2</ele><time>2026-03-28T12:50:23.999Z</time></trkpt><trkpt lat="44.75595445289179" lon="9.343015221109608"><ele>965.0</ele><time>2026-03-28T12:50:25.999Z</time></trkpt><trkpt lat="44.75589415099952" lon="9.34313188546627"><ele>958.4</ele><time>2026-03-28T12:50:27.999Z</time></trkpt><trkpt lat="44.75585450587343" lon="9.343279232480462"><ele>951.8</ele><time>2026-03-28T12:50:29.999Z</time></trkpt><trkpt lat="44.755765940204874" lon="9.343355223422277"><ele>945.2</ele><time>2026-03-28T12:50:31.998Z</time></trkpt><trkpt lat="44.75567535761589" lon="9.343401472461299"><ele>938.6</ele><time>2026-03-28T12:50:33.998Z</time></trkpt><trkpt lat="44.755617509547164" lon="9.343518543240341"><ele>932.0</ele><time>2026-03-28T12:50:35.998Z</time></trkpt><trkpt lat="44.75557433110963" lon="9.343584856963322"><ele>932.0000000000001</ele><time>2026-03-28T12:50:36.998Z</time></trkpt><trkpt lat="44.75548440037384" lon="9.34369416843643"><ele>932.0</ele><time>2026-03-28T12:50:38.998Z</time></trkpt><trkpt lat="44.755431856171676" lon="9.343762715366582"><ele>932.0</ele><time>2026-03-28T12:50:39.998Z</time></trkpt><trkpt lat="44.755371671417265" lon="9.343835220611467"><ele>932.0</ele><time>2026-03-28T12:50:41.998Z</time></trkpt><trkpt lat="44.75528867164356" lon="9.343923510202837"><ele>932.0000000000001</ele><time>2026-03-28T12:50:43.998Z</time></trkpt><trkpt lat="44.75524168393916" lon="9.344000891364537"><ele>932.0</ele><time>2026-03-28T12:50:44.998Z</time></trkpt><trkpt lat="44.75516249604545" lon="9.34414719210329"><ele>930.6666666666667</ele><time>2026-03-28T12:50:46.998Z</time></trkpt><trkpt lat="44.75512014437289" lon="9.344220518185018"><ele>929.3333333333334</ele><time>2026-03-28T12:50:47.998Z</time></trkpt><trkpt lat="44.75507713768668" lon="9.34430309619594"><ele>928.0</ele><time>2026-03-28T12:50:48.998Z</time></trkpt><trkpt lat="44.75499605019626" lon="9.344421292130953"><ele>926.6666666666667</ele><time>2026-03-28T12:50:50.998Z</time></trkpt><trkpt lat="44.754981311344345" lon="9.344507816978357"><ele>925.3333333333334</ele><time>2026-03-28T12:50:51.998Z</time></trkpt><trkpt lat="44.75496160069815" lon="9.344597070684104"><ele>924.0</ele><time>2026-03-28T12:50:52.998Z</time></trkpt><trkpt lat="44.75490819529476" lon="9.3447498357805"><ele>928.4000000000001</ele><time>2026-03-28T12:50:54.998Z</time></trkpt><trkpt lat="44.75487975049941" lon="9.3448433818466"><ele>932.8000000000001</ele><time>2026-03-28T12:50:55.998Z</time></trkpt><trkpt lat="44.75483525771518" lon="9.3449968207948"><ele>937.1999999999999</ele><time>2026-03-28T12:50:57.998Z</time></trkpt><trkpt lat="44.75478887819157" lon="9.345086898467525"><ele>941.5999999999999</ele><time>2026-03-28T12:50:59.998Z</time></trkpt><trkpt lat="44.754712054972856" lon="9.34522369436478"><ele>946.0</ele><time>2026-03-28T12:51:01.998Z</time></trkpt><trkpt lat="44.75467138682544" lon="9.34537624724688"><ele>946.0</ele><time>2026-03-28T12:51:03.998Z</time></trkpt><trkpt lat="44.75464682830261" lon="9.345472003574418"><ele>945.9999999999999</ele><time>2026-03-28T12:51:04.998Z</time></trkpt><trkpt lat="44.75462064806026" lon="9.345614576078653"><ele>945.9999999999999</ele><time>2026-03-28T12:51:06.998Z</time></trkpt><trkpt lat="44.7546238328076" lon="9.34583153690678"><ele>946.0</ele><time>2026-03-28T12:51:08.998Z</time></trkpt><trkpt lat="44.75460494377109" lon="9.345988260375297"><ele>946.0</ele><time>2026-03-28T12:51:10.998Z</time></trkpt><trkpt lat="44.75457368537331" lon="9.346137793579857"><ele>948.8333333333333</ele><time>2026-03-28T12:51:12.998Z</time></trkpt><trkpt lat="44.7545467923504" lon="9.346237498878034"><ele>951.6666666666666</ele><time>2026-03-28T12:51:13.998Z</time></trkpt><trkpt lat="44.75451996118439" lon="9.346323626765626"><ele>954.5</ele><time>2026-03-28T12:51:14.998Z</time></trkpt><trkpt lat="44.75449376716425" lon="9.346407266002169"><ele>957.3333333333333</ele><time>2026-03-28T12:51:15.998Z</time></trkpt><trkpt lat="44.75445098392072" lon="9.346558454500753"><ele>960.1666666666666</ele><time>2026-03-28T12:51:17.998Z</time></trkpt><trkpt lat="44.75440470984017" lon="9.346701605226006"><ele>963.0</ele><time>2026-03-28T12:51:19.998Z</time></trkpt><trkpt lat="44.75435626984463" lon="9.346856796780447"><ele>956.0</ele><time>2026-03-28T12:51:22Z</time></trkpt><trkpt lat="44.754318761669325" lon="9.347029398230985"><ele>949.0</ele><time>2026-03-28T12:51:24Z</time></trkpt><trkpt lat="44.7542858962602" lon="9.347191552608477"><ele>942.0</ele><time>2026-03-28T12:51:26Z</time></trkpt><trkpt lat="44.75424911460666" lon="9.347288360505896"><ele>935.0</ele><time>2026-03-28T12:51:28Z</time></trkpt><trkpt lat="44.75422696088961" lon="9.347374779684793"><ele>928.0</ele><time>2026-03-28T12:52:07.999Z</time></trkpt><trkpt lat="44.75419912158103" lon="9.347486927067763"><ele>927.9999999999999</ele><time>2026-03-28T12:52:09.999Z</time></trkpt><trkpt lat="44.75416697160001" lon="9.347604712562445"><ele>928.0</ele><time>2026-03-28T12:52:11.999Z</time></trkpt><trkpt lat="44.75418499299937" lon="9.347733665023965"><ele>928.0</ele><time>2026-03-28T12:52:13.999Z</time></trkpt><trkpt lat="44.7541759940308" lon="9.34785258047286"><ele>928.0</ele><time>2026-03-28T12:52:15.999Z</time></trkpt><trkpt lat="44.754157439582066" lon="9.347949754318208"><ele>927.9999999999999</ele><time>2026-03-28T12:52:17.999Z</time></trkpt><trkpt lat="44.754136997680966" lon="9.348063450778184"><ele>928.0</ele><time>2026-03-28T12:52:19.999Z</time></trkpt><trkpt lat="44.75418111831909" lon="9.348155028677876"><ele>927.0</ele><time>2026-03-28T12:52:21.999Z</time></trkpt><trkpt lat="44.75423056676393" lon="9.348246705529466"><ele>926.0</ele><time>2026-03-28T12:52:23.999Z</time></trkpt><trkpt lat="44.754281085864264" lon="9.348369476759018"><ele>925.0</ele><time>2026-03-28T12:52:25.999Z</time></trkpt><trkpt lat="44.75432909947123" lon="9.348521648692026"><ele>924.0</ele><time>2026-03-28T12:52:27.999Z</time></trkpt><trkpt lat="44.75432317371516" lon="9.348659531584932"><ele>923.0</ele><time>2026-03-28T12:52:29.999Z</time></trkpt><trkpt lat="44.754285532464884" lon="9.34877575809872"><ele>920.2</ele><time>2026-03-28T12:52:31.999Z</time></trkpt><trkpt lat="44.754260540813796" lon="9.348909727357528"><ele>917.4</ele><time>2026-03-28T12:52:33.999Z</time></trkpt><trkpt lat="44.75423287993568" lon="9.349047768143578"><ele>914.6000000000001</ele><time>2026-03-28T12:52:35.998Z</time></trkpt><trkpt lat="44.75422350716699" lon="9.349206575410728"><ele>911.8000000000001</ele><time>2026-03-28T12:52:37.998Z</time></trkpt><trkpt lat="44.75420532550612" lon="9.349353999313411"><ele>909.0</ele><time>2026-03-28T12:52:39.998Z</time></trkpt><trkpt lat="44.7542112274999" lon="9.349444227578184"><ele>909.0</ele><time>2026-03-28T12:52:41.998Z</time></trkpt><trkpt lat="44.75416298940673" lon="9.34955611788633"><ele>909.0000000000001</ele><time>2026-03-28T12:52:44.998Z</time></trkpt><trkpt lat="44.75411751182888" lon="9.349650099414024"><ele>909.0000000000001</ele><time>2026-03-28T12:52:46.998Z</time></trkpt><trkpt lat="44.754041614648706" lon="9.349754083609305"><ele>909.0</ele><time>2026-03-28T12:52:48.998Z</time></trkpt><trkpt lat="44.75397526089925" lon="9.34970688158152"><ele>909.0</ele><time>2026-03-28T12:52:52.998Z</time></trkpt><trkpt lat="44.75389470485762" lon="9.349632377189232"><ele>909.0</ele><time>2026-03-28T12:52:55.998Z</time></trkpt><trkpt lat="44.753747184764165" lon="9.349485319196882"><ele>909.0</ele><time>2026-03-28T12:52:58.998Z</time></trkpt><trkpt lat="44.753692453971894" lon="9.34938384120347"><ele>909.0</ele><time>2026-03-28T12:53:01.998Z</time></trkpt><trkpt lat="44.753657665324596" lon="9.349243022830583"><ele>909.0</ele><time>2026-03-28T12:53:03.998Z</time></trkpt><trkpt lat="44.75362802881188" lon="9.349143861364636"><ele>909.0</ele><time>2026-03-28T12:53:04.998Z</time></trkpt><trkpt lat="44.75359484054805" lon="9.349061235269684"><ele>909.0</ele><time>2026-03-28T12:53:05.998Z</time></trkpt><trkpt lat="44.75353980709536" lon="9.348976397981783"><ele>909.0</ele><time>2026-03-28T12:53:06.998Z</time></trkpt><trkpt lat="44.753485878291045" lon="9.34891360944875"><ele>909.0</ele><time>2026-03-28T12:53:07.998Z</time></trkpt><trkpt lat="44.75342932168271" lon="9.348856120652115"><ele>909.0</ele><time>2026-03-28T12:53:08.998Z</time></trkpt><trkpt lat="44.753340750267135" lon="9.3487661440349"><ele>909.0</ele><time>2026-03-28T12:53:10.998Z</time></trkpt><trkpt lat="44.75323170718783" lon="9.3486940190428"><ele>903.0</ele><time>2026-03-28T12:53:12.998Z</time></trkpt><trkpt lat="44.753132691234924" lon="9.348616423021014"><ele>897.0000000000001</ele><time>2026-03-28T12:53:14.998Z</time></trkpt><trkpt lat="44.7530523182699" lon="9.348522653691179"><ele>891.0000000000001</ele><time>2026-03-28T12:53:16.998Z</time></trkpt><trkpt lat="44.75298823840367" lon="9.348428992711307"><ele>885.0</ele><time>2026-03-28T12:53:18.998Z</time></trkpt><trkpt lat="44.75293009848841" lon="9.348376667639702"><ele>879.0</ele><time>2026-03-28T12:53:20.998Z</time></trkpt><trkpt lat="44.75287161376549" lon="9.348311165491083"><ele>879.0</ele><time>2026-03-28T12:53:25.997Z</time></trkpt><trkpt lat="44.752827402024614" lon="9.348228255441805"><ele>879.0000000000001</ele><time>2026-03-28T12:53:29Z</time></trkpt><trkpt lat="44.75280013395326" lon="9.348104116041785"><ele>879.0000000000001</ele><time>2026-03-28T12:53:32Z</time></trkpt><trkpt lat="44.75279094852327" lon="9.347970020625537"><ele>879.0</ele><time>2026-03-28T12:53:33Z</time></trkpt><trkpt lat="44.752800411496985" lon="9.347851002524274"><ele>879.0</ele><time>2026-03-28T12:53:35Z</time></trkpt><trkpt lat="44.7528073708214" lon="9.347704392396478"><ele>878.5</ele><time>2026-03-28T12:53:37Z</time></trkpt><trkpt lat="44.752812161268324" lon="9.347566242505135"><ele>878.0</ele><time>2026-03-28T12:53:39Z</time></trkpt><trkpt lat="44.75279055116854" lon="9.347403112227488"><ele>877.5</ele><time>2026-03-28T12:53:41Z</time></trkpt><trkpt lat="44.75278109925808" lon="9.347292781874811"><ele>877.0</ele><time>2026-03-28T12:53:42Z</time></trkpt><trkpt lat="44.75278188481548" lon="9.347180316963842"><ele>876.5</ele><time>2026-03-28T12:53:43Z</time></trkpt><trkpt lat="44.75277911107169" lon="9.347088087281264"><ele>876.0</ele><time>2026-03-28T12:53:44Z</time></trkpt><trkpt lat="44.752762304974006" lon="9.346990913759754"><ele>876.0</ele><time>2026-03-28T12:53:45Z</time></trkpt><trkpt lat="44.75275485684926" lon="9.346901697003227"><ele>876.0</ele><time>2026-03-28T12:53:46Z</time></trkpt><trkpt lat="44.75274170307697" lon="9.346790318156268"><ele>876.0</ele><time>2026-03-28T12:53:48Z</time></trkpt><trkpt lat="44.75274208843853" lon="9.34669718371796"><ele>876.0</ele><time>2026-03-28T12:53:49.999Z</time></trkpt><trkpt lat="44.75274723702616" lon="9.346571718204984"><ele>876.0</ele><time>2026-03-28T12:53:51.999Z</time></trkpt><trkpt lat="44.75273503987325" lon="9.346462280327655"><ele>876.0</ele><time>2026-03-28T12:53:52.999Z</time></trkpt><trkpt lat="44.752735571645616" lon="9.346314290423324"><ele>866.0</ele><time>2026-03-28T12:53:54.999Z</time></trkpt><trkpt lat="44.75269458540883" lon="9.346163926056752"><ele>855.9999999999999</ele><time>2026-03-28T12:53:56.999Z</time></trkpt><trkpt lat="44.75264906062463" lon="9.345997951292423"><ele>846.0</ele><time>2026-03-28T12:53:58.999Z</time></trkpt><trkpt lat="44.752636150988984" lon="9.34588787862289"><ele>836.0</ele><time>2026-03-28T12:53:59.999Z</time></trkpt><trkpt lat="44.75262263038924" lon="9.34574992335183"><ele>826.0</ele><time>2026-03-28T12:54:01.999Z</time></trkpt><trkpt lat="44.7525785853037" lon="9.34565620808681"><ele>826.0</ele><time>2026-03-28T12:54:03.999Z</time></trkpt><trkpt lat="44.75252257755512" lon="9.345569567743556"><ele>826.0</ele><time>2026-03-28T12:54:07.999Z</time></trkpt><trkpt lat="44.752428722680186" lon="9.345618251330746"><ele>826.0</ele><time>2026-03-28T12:54:09.999Z</time></trkpt><trkpt lat="44.75236560259605" lon="9.345661586429411"><ele>826.0</ele><time>2026-03-28T12:54:10.999Z</time></trkpt><trkpt lat="44.752274608418055" lon="9.345696146407484"><ele>826.0</ele><time>2026-03-28T12:54:12.999Z</time></trkpt><trkpt lat="44.75215752967873" lon="9.34575143803585"><ele>825.9999999999999</ele><time>2026-03-28T12:54:14.999Z</time></trkpt><trkpt lat="44.75210592430312" lon="9.345829374363053"><ele>826.0</ele><time>2026-03-28T12:54:15.999Z</time></trkpt><trkpt lat="44.752016198668784" lon="9.345874294049398"><ele>826.0</ele><time>2026-03-28T12:54:17.999Z</time></trkpt><trkpt lat="44.75194686936838" lon="9.345844933855188"><ele>826.0</ele><time>2026-03-28T12:54:19.999Z</time></trkpt><trkpt lat="44.751871928409344" lon="9.345828425228234"><ele>825.9999999999999</ele><time>2026-03-28T12:54:21.999Z</time></trkpt><trkpt lat="44.75177608064401" lon="9.345855108079407"><ele>826.0</ele><time>2026-03-28T12:54:23.999Z</time></trkpt><trkpt lat="44.75171412006251" lon="9.345832342131098"><ele>819.8333333333333</ele><time>2026-03-28T12:54:26.999Z</time></trkpt><trkpt lat="44.751725769695945" lon="9.345701864913515"><ele>813.6666666666666</ele><time>2026-03-28T12:54:42.998Z</time></trkpt><trkpt lat="44.75177112154606" lon="9.345628595309988"><ele>807.5</ele><time>2026-03-28T12:54:47.998Z</time></trkpt><trkpt lat="44.75171059965561" lon="9.345592680906462"><ele>801.3333333333333</ele><time>2026-03-28T12:54:56.998Z</time></trkpt><trkpt lat="44.751641205404084" lon="9.345625012938035"><ele>795.1666666666666</ele><time>2026-03-28T12:55:00.998Z</time></trkpt><trkpt lat="44.75156283568763" lon="9.34566033309076"><ele>789.0</ele><time>2026-03-28T12:55:02.998Z</time></trkpt><trkpt lat="44.75148541603201" lon="9.345727910944564"><ele>789.0</ele><time>2026-03-28T12:55:04.998Z</time></trkpt><trkpt lat="44.751440999628144" lon="9.34583142106446"><ele>789.0</ele><time>2026-03-28T12:55:06.998Z</time></trkpt><trkpt lat="44.75143447502999" lon="9.345973543089181"><ele>789.0</ele><time>2026-03-28T12:55:08.998Z</time></trkpt><trkpt lat="44.75145626924839" lon="9.346106253624006"><ele>789.0</ele><time>2026-03-28T12:55:10.998Z</time></trkpt><trkpt lat="44.75151478286011" lon="9.346251364525862"><ele>789.0</ele><time>2026-03-28T12:55:12.998Z</time></trkpt><trkpt lat="44.75154870450386" lon="9.346341473618006"><ele>789.3333333333334</ele><time>2026-03-28T12:55:13.998Z</time></trkpt><trkpt lat="44.75157269939425" lon="9.346425120254917"><ele>789.6666666666667</ele><time>2026-03-28T12:55:14.998Z</time></trkpt><trkpt lat="44.75163583802256" lon="9.346587051631529"><ele>790.0</ele><time>2026-03-28T12:55:16.998Z</time></trkpt><trkpt lat="44.75165252171228" lon="9.346678597367948"><ele>790.3333333333334</ele><time>2026-03-28T12:55:17.998Z</time></trkpt><trkpt lat="44.751671807504415" lon="9.346777287281366"><ele>790.6666666666667</ele><time>2026-03-28T12:55:18.998Z</time></trkpt><trkpt lat="44.75169296053417" lon="9.346862186496118"><ele>791.0</ele><time>2026-03-28T12:55:19.998Z</time></trkpt><trkpt lat="44.75170531514931" lon="9.347011820584946"><ele>791.0</ele><time>2026-03-28T12:55:21.998Z</time></trkpt><trkpt lat="44.75169206481007" lon="9.347138911627944"><ele>791.0</ele><time>2026-03-28T12:55:23.998Z</time></trkpt><trkpt lat="44.75168974968339" lon="9.347292959641575"><ele>791.0</ele><time>2026-03-28T12:55:25.998Z</time></trkpt><trkpt lat="44.75165864492625" lon="9.347466352300925"><ele>791.0</ele><time>2026-03-28T12:55:27.998Z</time></trkpt><trkpt lat="44.75163930549535" lon="9.347558386967734"><ele>791.0</ele><time>2026-03-28T12:55:28.998Z</time></trkpt><trkpt lat="44.75162974497411" lon="9.347649718995854"><ele>789.1666666666667</ele><time>2026-03-28T12:55:29.997Z</time></trkpt><trkpt lat="44.75160861497414" lon="9.347743418448001"><ele>787.3333333333334</ele><time>2026-03-28T12:55:30.997Z</time></trkpt><trkpt lat="44.75159974868653" lon="9.347855633390761"><ele>785.5</ele><time>2026-03-28T12:55:33Z</time></trkpt><trkpt lat="44.75160321359542" lon="9.347957014765267"><ele>783.6666666666667</ele><time>2026-03-28T12:55:35Z</time></trkpt><trkpt lat="44.75154255986522" lon="9.347991592261254"><ele>781.8333333333334</ele><time>2026-03-28T12:55:39Z</time></trkpt><trkpt lat="44.75150230452672" lon="9.347880088502448"><ele>780.0</ele><time>2026-03-28T12:55:41Z</time></trkpt><trkpt lat="44.75145215218004" lon="9.347767747853736"><ele>780.0</ele><time>2026-03-28T12:55:43Z</time></trkpt><trkpt lat="44.75139292788059" lon="9.347632360776908"><ele>780.0</ele><time>2026-03-28T12:55:45Z</time></trkpt><trkpt lat="44.751338346115446" lon="9.347498122332613"><ele>780.0</ele><time>2026-03-28T12:55:47Z</time></trkpt><trkpt lat="44.7513052061232" lon="9.34737931559096"><ele>780.0</ele><time>2026-03-28T12:55:49Z</time></trkpt><trkpt lat="44.75125402834355" lon="9.34728122800942"><ele>780.0</ele><time>2026-03-28T12:57:05.998Z</time></trkpt><trkpt lat="44.751159719218165" lon="9.34717799084198"><ele>782.2</ele><time>2026-03-28T12:57:11.998Z</time></trkpt><trkpt lat="44.75104107024946" lon="9.347084485069345"><ele>784.4</ele><time>2026-03-28T12:57:13.998Z</time></trkpt><trkpt lat="44.75097219536416" lon="9.347048123383061"><ele>786.5999999999999</ele><time>2026-03-28T12:57:14.998Z</time></trkpt><trkpt lat="44.75091738690428" lon="9.347000886010525"><ele>788.8</ele><time>2026-03-28T12:57:15.998Z</time></trkpt><trkpt lat="44.75086829108637" lon="9.346863247845826"><ele>791.0</ele><time>2026-03-28T12:57:17.998Z</time></trkpt><trkpt lat="44.750920930270055" lon="9.346779732021576"><ele>785.5000000000001</ele><time>2026-03-28T12:57:18.998Z</time></trkpt><trkpt lat="44.75092437889481" lon="9.34668273476331"><ele>780.0</ele><time>2026-03-28T12:57:19.998Z</time></trkpt><trkpt lat="44.75089057735759" lon="9.346531975660898"><ele>774.5</ele><time>2026-03-28T12:57:21.998Z</time></trkpt><trkpt lat="44.75083028316275" lon="9.346459723790476"><ele>769.0</ele><time>2026-03-28T12:57:22.998Z</time></trkpt><trkpt lat="44.75075810324772" lon="9.346404018340685"><ele>763.5</ele><time>2026-03-28T12:57:23.998Z</time></trkpt><trkpt lat="44.75068612671074" lon="9.34633796955615"><ele>758.0</ele><time>2026-03-28T12:57:24.998Z</time></trkpt><trkpt lat="44.75063731679731" lon="9.346271891419406"><ele>758.0</ele><time>2026-03-28T12:57:25.998Z</time></trkpt><trkpt lat="44.75059025900601" lon="9.346183419367824"><ele>758.0</ele><time>2026-03-28T12:57:26.998Z</time></trkpt><trkpt lat="44.7505538183242" lon="9.346104279278803"><ele>758.0</ele><time>2026-03-28T12:57:27.998Z</time></trkpt><trkpt lat="44.75052257534528" lon="9.345976224578623"><ele>758.0</ele><time>2026-03-28T12:57:29.998Z</time></trkpt><trkpt lat="44.75045735787449" lon="9.345973091710592"><ele>758.0</ele><time>2026-03-28T12:57:31.998Z</time></trkpt><trkpt lat="44.750449304384944" lon="9.346135057737541"><ele>758.0</ele><time>2026-03-28T12:57:33.998Z</time></trkpt><trkpt lat="44.75047692534597" lon="9.346246308829764"><ele>758.0</ele><time>2026-03-28T12:57:34.998Z</time></trkpt><trkpt lat="44.75051011386342" lon="9.346354330765358"><ele>758.0</ele><time>2026-03-28T12:57:35.998Z</time></trkpt><trkpt lat="44.75052568258355" lon="9.346471944906261"><ele>758.0</ele><time>2026-03-28T12:57:36.997Z</time></trkpt><trkpt lat="44.75056447750323" lon="9.346548256849974"><ele>758.0</ele><time>2026-03-28T12:57:37.997Z</time></trkpt><trkpt lat="44.75063268797757" lon="9.346612406870145"><ele>758.0</ele><time>2026-03-28T12:57:39Z</time></trkpt><trkpt lat="44.750665707949935" lon="9.346710326695591"><ele>758.0</ele><time>2026-03-28T12:57:40Z</time></trkpt><trkpt lat="44.750671675643964" lon="9.346810227362141"><ele>757.1666666666666</ele><time>2026-03-28T12:57:41Z</time></trkpt><trkpt lat="44.750654853321876" lon="9.346912038000543"><ele>756.3333333333333</ele><time>2026-03-28T12:57:42Z</time></trkpt><trkpt lat="44.75063056186288" lon="9.347012070895195"><ele>755.5</ele><time>2026-03-28T12:57:43Z</time></trkpt><trkpt lat="44.750615760873856" lon="9.34711239044287"><ele>754.6666666666666</ele><time>2026-03-28T12:57:44Z</time></trkpt><trkpt lat="44.75060686028967" lon="9.347209809832632"><ele>753.8333333333334</ele><time>2026-03-28T12:57:45Z</time></trkpt><trkpt lat="44.75056025428297" lon="9.347297449247284"><ele>753.0</ele><time>2026-03-28T12:57:46Z</time></trkpt><trkpt lat="44.750623828265795" lon="9.347402765236879"><ele>750.0</ele><time>2026-03-28T12:57:47Z</time></trkpt><trkpt lat="44.75072382948226" lon="9.34742853505481"><ele>747.0</ele><time>2026-03-28T12:57:48Z</time></trkpt><trkpt lat="44.75076100730248" lon="9.347509860226166"><ele>744.0</ele><time>2026-03-28T12:57:49Z</time></trkpt><trkpt lat="44.750744119239535" lon="9.347689948806208"><ele>741.0</ele><time>2026-03-28T12:57:51Z</time></trkpt><trkpt lat="44.7507691986288" lon="9.347842455846044"><ele>738.0</ele><time>2026-03-28T12:57:53Z</time></trkpt><trkpt lat="44.75087285578419" lon="9.347883844599917"><ele>738.0</ele><time>2026-03-28T12:57:54Z</time></trkpt><trkpt lat="44.750924551729916" lon="9.34796870448424"><ele>738.0</ele><time>2026-03-28T12:57:55Z</time></trkpt><trkpt lat="44.75100305559287" lon="9.348066154820527"><ele>738.0</ele><time>2026-03-28T12:57:56Z</time></trkpt><trkpt lat="44.75107485468798" lon="9.348164103778101"><ele>738.0</ele><time>2026-03-28T12:57:57Z</time></trkpt><trkpt lat="44.75112579363177" lon="9.348261623000594"><ele>738.0</ele><time>2026-03-28T12:57:58Z</time></trkpt><trkpt lat="44.7511472605898" lon="9.348375519718903"><ele>741.0</ele><time>2026-03-28T12:57:59Z</time></trkpt><trkpt lat="44.751177297545624" lon="9.348496459644487"><ele>744.0</ele><time>2026-03-28T12:58:00Z</time></trkpt><trkpt lat="44.75119512201177" lon="9.34861706765311"><ele>747.0</ele><time>2026-03-28T12:58:01Z</time></trkpt><trkpt lat="44.75120144204184" lon="9.348740801844981"><ele>750.0</ele><time>2026-03-28T12:58:01.999Z</time></trkpt><trkpt lat="44.751190901296475" lon="9.348861080512874"><ele>753.0</ele><time>2026-03-28T12:58:02.999Z</time></trkpt><trkpt lat="44.75118225425305" lon="9.348985169800974"><ele>756.0</ele><time>2026-03-28T12:58:03.999Z</time></trkpt><trkpt lat="44.751192740894275" lon="9.349093729900357"><ele>756.0</ele><time>2026-03-28T12:58:04.999Z</time></trkpt><trkpt lat="44.75122997923161" lon="9.349185341012602"><ele>756.0</ele><time>2026-03-28T12:58:05.999Z</time></trkpt><trkpt lat="44.75123727039534" lon="9.349352418171476"><ele>756.0</ele><time>2026-03-28T12:58:07.999Z</time></trkpt><trkpt lat="44.75120573772822" lon="9.349442506375343"><ele>756.0</ele><time>2026-03-28T12:58:08.999Z</time></trkpt><trkpt lat="44.75115913283551" lon="9.3495384982306"><ele>756.0</ele><time>2026-03-28T12:58:09.999Z</time></trkpt><trkpt lat="44.75109150034627" lon="9.349619819062868"><ele>756.0</ele><time>2026-03-28T12:58:10.999Z</time></trkpt><trkpt lat="44.751020060068896" lon="9.349727872282669"><ele>747.1999999999999</ele><time>2026-03-28T12:58:11.999Z</time></trkpt><trkpt lat="44.75095844515528" lon="9.349828172102086"><ele>738.4</ele><time>2026-03-28T12:58:12.999Z</time></trkpt><trkpt lat="44.750900708010285" lon="9.34992369894731"><ele>729.6</ele><time>2026-03-28T12:58:13.999Z</time></trkpt><trkpt lat="44.750838514112644" lon="9.35002767570861"><ele>720.8</ele><time>2026-03-28T12:58:14.999Z</time></trkpt><trkpt lat="44.750780709310725" lon="9.350124314743537"><ele>712.0</ele><time>2026-03-28T12:58:15.999Z</time></trkpt><trkpt lat="44.75072683394227" lon="9.35021983199021"><ele>712.0</ele><time>2026-03-28T12:58:16.999Z</time></trkpt><trkpt lat="44.75068036783411" lon="9.350312949265925"><ele>712.0</ele><time>2026-03-28T12:58:17.999Z</time></trkpt><trkpt lat="44.7506426213871" lon="9.350418468279607"><ele>712.0</ele><time>2026-03-28T12:58:18.999Z</time></trkpt><trkpt lat="44.75064663378537" lon="9.350540124812442"><ele>712.0</ele><time>2026-03-28T12:58:19.999Z</time></trkpt><trkpt lat="44.75062424091704" lon="9.350651499614882"><ele>712.0</ele><time>2026-03-28T12:58:20.999Z</time></trkpt><trkpt lat="44.75060793641516" lon="9.350777437677301"><ele>712.0</ele><time>2026-03-28T12:58:21.999Z</time></trkpt><trkpt lat="44.75060440779255" lon="9.350907231875544"><ele>713.0</ele><time>2026-03-28T12:58:22.999Z</time></trkpt><trkpt lat="44.75059251366076" lon="9.351042708751017"><ele>714.0</ele><time>2026-03-28T12:58:23.999Z</time></trkpt><trkpt lat="44.75058960342301" lon="9.351171850076636"><ele>715.0</ele><time>2026-03-28T12:58:24.999Z</time></trkpt><trkpt lat="44.75057955117008" lon="9.351286858652086"><ele>716.0</ele><time>2026-03-28T12:58:25.999Z</time></trkpt><trkpt lat="44.75057167319206" lon="9.351394955990854"><ele>717.0</ele><time>2026-03-28T12:58:26.999Z</time></trkpt><trkpt lat="44.75056337525665" lon="9.351492930022227"><ele>718.0</ele><time>2026-03-28T12:58:27.999Z</time></trkpt><trkpt lat="44.750552784974026" lon="9.351587857859911"><ele>718.5999999999999</ele><time>2026-03-28T12:58:28.999Z</time></trkpt><trkpt lat="44.75052942094209" lon="9.351744019974003"><ele>719.1999999999999</ele><time>2026-03-28T12:58:30.999Z</time></trkpt><trkpt lat="44.7504840406645" lon="9.351812843989604"><ele>719.8</ele><time>2026-03-28T12:58:34.999Z</time></trkpt><trkpt lat="44.75047784835338" lon="9.351697087374314"><ele>720.4</ele><time>2026-03-28T12:58:35.999Z</time></trkpt><trkpt lat="44.75051367275364" lon="9.351557906011347"><ele>721.0</ele><time>2026-03-28T12:58:36.999Z</time></trkpt><trkpt lat="44.75051431988922" lon="9.351413740247047"><ele>720.4</ele><time>2026-03-28T12:58:37.999Z</time></trkpt><trkpt lat="44.75051055019311" lon="9.351277704296917"><ele>719.8</ele><time>2026-03-28T12:58:38.999Z</time></trkpt><trkpt lat="44.75051391040248" lon="9.351146125878067"><ele>719.1999999999999</ele><time>2026-03-28T12:58:39.999Z</time></trkpt><trkpt lat="44.750498192480954" lon="9.351018978924396"><ele>718.5999999999999</ele><time>2026-03-28T12:58:40.999Z</time></trkpt><trkpt lat="44.75048340345464" lon="9.350892975593487"><ele>718.0</ele><time>2026-03-28T12:58:41.999Z</time></trkpt><trkpt lat="44.750457908444865" lon="9.350770010192122"><ele>718.0</ele><time>2026-03-28T12:58:42.999Z</time></trkpt><trkpt lat="44.75042557834662" lon="9.350655948720053"><ele>718.0</ele><time>2026-03-28T12:58:43.999Z</time></trkpt><trkpt lat="44.75038948177149" lon="9.350550455394117"><ele>718.0</ele><time>2026-03-28T12:58:44.999Z</time></trkpt><trkpt lat="44.750367433813175" lon="9.350444718003013"><ele>718.0</ele><time>2026-03-28T12:58:45.999Z</time></trkpt><trkpt lat="44.750371115304844" lon="9.350330745512586"><ele>718.0</ele><time>2026-03-28T12:58:46.999Z</time></trkpt><trkpt lat="44.75039272439206" lon="9.350217404875096"><ele>718.0</ele><time>2026-03-28T12:58:47.999Z</time></trkpt><trkpt lat="44.75041638598922" lon="9.35010468776746"><ele>717.0</ele><time>2026-03-28T12:58:48.999Z</time></trkpt><trkpt lat="44.750439134524456" lon="9.349991871359363"><ele>716.0</ele><time>2026-03-28T12:58:49.999Z</time></trkpt><trkpt lat="44.75045598320427" lon="9.349881485037935"><ele>715.0</ele><time>2026-03-28T12:58:50.998Z</time></trkpt><trkpt lat="44.75046751439133" lon="9.34976933686875"><ele>714.0</ele><time>2026-03-28T12:58:51.998Z</time></trkpt><trkpt lat="44.750476178464076" lon="9.34965567245534"><ele>713.0</ele><time>2026-03-28T12:58:52.998Z</time></trkpt><trkpt lat="44.750476251337815" lon="9.349545643750467"><ele>712.0</ele><time>2026-03-28T12:58:53.998Z</time></trkpt><trkpt lat="44.75047753687559" lon="9.349437219609152"><ele>713.0</ele><time>2026-03-28T12:58:54.998Z</time></trkpt><trkpt lat="44.75048302944986" lon="9.349332508641439"><ele>714.0</ele><time>2026-03-28T12:58:55.998Z</time></trkpt><trkpt lat="44.750478826364294" lon="9.349229757532054"><ele>715.0</ele><time>2026-03-28T12:58:56.998Z</time></trkpt><trkpt lat="44.750464382338485" lon="9.34912116950914"><ele>716.0</ele><time>2026-03-28T12:58:57.998Z</time></trkpt><trkpt lat="44.75041804219726" lon="9.349025817715226"><ele>717.0</ele><time>2026-03-28T12:58:58.998Z</time></trkpt><trkpt lat="44.750362778870624" lon="9.348939421464175"><ele>718.0</ele><time>2026-03-28T12:58:59.998Z</time></trkpt><trkpt lat="44.750297639714965" lon="9.34886121146589"><ele>718.0</ele><time>2026-03-28T12:59:00.998Z</time></trkpt><trkpt lat="44.7502208485639" lon="9.348790213673313"><ele>718.0</ele><time>2026-03-28T12:59:01.998Z</time></trkpt><trkpt lat="44.750137597318044" lon="9.348731560801427"><ele>718.0</ele><time>2026-03-28T12:59:02.998Z</time></trkpt><trkpt lat="44.75005192413269" lon="9.348680898286577"><ele>718.0</ele><time>2026-03-28T12:59:03.998Z</time></trkpt><trkpt lat="44.74997451328984" lon="9.348632660753763"><ele>718.0</ele><time>2026-03-28T12:59:04.998Z</time></trkpt><trkpt lat="44.74989731965914" lon="9.348617992858665"><ele>718.0</ele><time>2026-03-28T12:59:05.998Z</time></trkpt><trkpt lat="44.74984157491568" lon="9.348568063840672"><ele>714.4285714285714</ele><time>2026-03-28T12:59:06.998Z</time></trkpt><trkpt lat="44.7497983218619" lon="9.348499772878952"><ele>710.8571428571429</ele><time>2026-03-28T12:59:07.998Z</time></trkpt><trkpt lat="44.749798040134785" lon="9.348397519744172"><ele>707.2857142857142</ele><time>2026-03-28T12:59:08.998Z</time></trkpt><trkpt lat="44.74975958946287" lon="9.348314319422297"><ele>703.7142857142858</ele><time>2026-03-28T12:59:09.998Z</time></trkpt><trkpt lat="44.74971358521349" lon="9.34822711803185"><ele>700.1428571428571</ele><time>2026-03-28T12:59:10.998Z</time></trkpt><trkpt lat="44.74966592923418" lon="9.348167151726809"><ele>696.5714285714286</ele><time>2026-03-28T12:59:11.998Z</time></trkpt><trkpt lat="44.74962770274292" lon="9.348071764856048"><ele>693.0</ele><time>2026-03-28T12:59:13.998Z</time></trkpt><trkpt lat="44.749580439731645" lon="9.347989548338509"><ele>693.0</ele><time>2026-03-28T12:59:16.998Z</time></trkpt><trkpt lat="44.74950517580004" lon="9.347944502155745"><ele>693.0</ele><time>2026-03-28T12:59:18.998Z</time></trkpt><trkpt lat="44.749460801613004" lon="9.347823476327394"><ele>693.0</ele><time>2026-03-28T12:59:20.998Z</time></trkpt><trkpt lat="44.74944669635738" lon="9.34766009185958"><ele>693.0</ele><time>2026-03-28T12:59:22.998Z</time></trkpt><trkpt lat="44.74943508658529" lon="9.347534915646486"><ele>693.0</ele><time>2026-03-28T12:59:24.998Z</time></trkpt><trkpt lat="44.74937011850433" lon="9.347432578118724"><ele>689.0</ele><time>2026-03-28T12:59:27.998Z</time></trkpt><trkpt lat="44.74930248277772" lon="9.347361927839072"><ele>685.0</ele><time>2026-03-28T12:59:29.998Z</time></trkpt><trkpt lat="44.749238482483584" lon="9.347271151389167"><ele>681.0</ele><time>2026-03-28T12:59:31.998Z</time></trkpt><trkpt lat="44.74919071953151" lon="9.347166938010993"><ele>677.0</ele><time>2026-03-28T12:59:33.998Z</time></trkpt><trkpt lat="44.74912835035446" lon="9.347099201072323"><ele>673.0</ele><time>2026-03-28T12:59:35.998Z</time></trkpt><trkpt lat="44.74906296909018" lon="9.347122985016203"><ele>669.0</ele><time>2026-03-28T12:59:38.998Z</time></trkpt><trkpt lat="44.748972550967714" lon="9.347162390136267"><ele>669.0</ele><time>2026-03-28T12:59:41.997Z</time></trkpt><trkpt lat="44.748867190588825" lon="9.347177612073834"><ele>669.0</ele><time>2026-03-28T12:59:43.997Z</time></trkpt><trkpt lat="44.74874352770987" lon="9.347165288726906"><ele>669.0</ele><time>2026-03-28T12:59:46Z</time></trkpt><trkpt lat="44.748624360949194" lon="9.347206147312797"><ele>669.0</ele><time>2026-03-28T12:59:48Z</time></trkpt><trkpt lat="44.74851046632831" lon="9.347156748847599"><ele>664.2</ele><time>2026-03-28T12:59:50Z</time></trkpt><trkpt lat="44.748422851116345" lon="9.347044002565283"><ele>659.4000000000001</ele><time>2026-03-28T12:59:52Z</time></trkpt><trkpt lat="44.748342188552286" lon="9.346949033746684"><ele>654.6</ele><time>2026-03-28T12:59:54Z</time></trkpt><trkpt lat="44.748278026020394" lon="9.346829271769412"><ele>649.8</ele><time>2026-03-28T12:59:56Z</time></trkpt><trkpt lat="44.748208824975244" lon="9.346713309461803"><ele>645.0</ele><time>2026-03-28T12:59:58Z</time></trkpt><trkpt lat="44.74813376779739" lon="9.346612079956891"><ele>645.0</ele><time>2026-03-28T13:00:00Z</time></trkpt><trkpt lat="44.74805093532387" lon="9.34652151463778"><ele>645.0</ele><time>2026-03-28T13:00:02Z</time></trkpt><trkpt lat="44.74798522413538" lon="9.346413443619301"><ele>645.0</ele><time>2026-03-28T13:00:04Z</time></trkpt><trkpt lat="44.74796452565738" lon="9.346258313515756"><ele>645.0</ele><time>2026-03-28T13:00:05.999Z</time></trkpt><trkpt lat="44.747959657912496" lon="9.346109614998387"><ele>645.0</ele><time>2026-03-28T13:00:07.999Z</time></trkpt><trkpt lat="44.74794275383476" lon="9.345978508737304"><ele>644.4</ele><time>2026-03-28T13:00:09.999Z</time></trkpt><trkpt lat="44.74795719701237" lon="9.345876406983145"><ele>643.8</ele><time>2026-03-28T13:00:11.999Z</time></trkpt><trkpt lat="44.74787466057122" lon="9.345805704722249"><ele>643.2</ele><time>2026-03-28T13:00:14.999Z</time></trkpt><trkpt lat="44.74777777909316" lon="9.34580230924105"><ele>642.6</ele><time>2026-03-28T13:00:16.999Z</time></trkpt><trkpt lat="44.74769016274039" lon="9.3457134598202"><ele>642.0</ele><time>2026-03-28T13:00:18.999Z</time></trkpt><trkpt lat="44.74764786027877" lon="9.345595719945097"><ele>642.3333333333334</ele><time>2026-03-28T13:00:20.999Z</time></trkpt><trkpt lat="44.74762737163201" lon="9.345498624436093"><ele>642.6666666666666</ele><time>2026-03-28T13:01:13.998Z</time></trkpt><trkpt lat="44.74759577405044" lon="9.345377919862855"><ele>643.0</ele><time>2026-03-28T13:01:15.998Z</time></trkpt><trkpt lat="44.74753751693111" lon="9.345220751380495"><ele>643.3333333333333</ele><time>2026-03-28T13:01:17.998Z</time></trkpt><trkpt lat="44.74751392182152" lon="9.345124372133583"><ele>643.6666666666666</ele><time>2026-03-28T13:01:18.998Z</time></trkpt><trkpt lat="44.74749581321256" lon="9.345031592474326"><ele>644.0</ele><time>2026-03-28T13:01:19.998Z</time></trkpt><trkpt lat="44.747474787034506" lon="9.344941705662833"><ele>644.0</ele><time>2026-03-28T13:01:20.998Z</time></trkpt><trkpt lat="44.74743917889251" lon="9.344774408426968"><ele>644.0</ele><time>2026-03-28T13:01:22.998Z</time></trkpt><trkpt lat="44.74740520655293" lon="9.344684476530183"><ele>644.0</ele><time>2026-03-28T13:01:23.998Z</time></trkpt><trkpt lat="44.74738106376096" lon="9.344584144485236"><ele>644.0</ele><time>2026-03-28T13:01:24.998Z</time></trkpt><trkpt lat="44.74736638481182" lon="9.344497116457353"><ele>644.0</ele><time>2026-03-28T13:01:25.998Z</time></trkpt><trkpt lat="44.74735064815391" lon="9.34438501524918"><ele>644.0</ele><time>2026-03-28T13:01:27.998Z</time></trkpt><trkpt lat="44.74738683249288" lon="9.344288318506559"><ele>642.8000000000001</ele><time>2026-03-28T13:01:29.998Z</time></trkpt><trkpt lat="44.74744782169577" lon="9.344178538099737"><ele>641.6</ele><time>2026-03-28T13:01:31.998Z</time></trkpt><trkpt lat="44.74749528124474" lon="9.34404000341105"><ele>640.4</ele><time>2026-03-28T13:01:33.998Z</time></trkpt><trkpt lat="44.74753385320308" lon="9.343912314291941"><ele>639.2</ele><time>2026-03-28T13:01:35.998Z</time></trkpt><trkpt lat="44.74756075272471" lon="9.343799498578823"><ele>638.0</ele><time>2026-03-28T13:01:45.997Z</time></trkpt><trkpt lat="44.747603578656154" lon="9.343708793783653"><ele>638.0</ele><time>2026-03-28T13:01:47.997Z</time></trkpt><trkpt lat="44.747629485133" lon="9.343607972758369"><ele>638.0</ele><time>2026-03-28T13:01:49.997Z</time></trkpt><trkpt lat="44.74757360143719" lon="9.343530071884835"><ele>638.0</ele><time>2026-03-28T13:01:54Z</time></trkpt><trkpt lat="44.74752353521474" lon="9.343456271585675"><ele>638.0</ele><time>2026-03-28T13:01:58Z</time></trkpt><trkpt lat="44.747485734755585" lon="9.343372074300117"><ele>638.0</ele><time>2026-03-28T13:03:38.998Z</time></trkpt><trkpt lat="44.74740655744303" lon="9.343335689218764"><ele>638.0</ele><time>2026-03-28T13:03:41.998Z</time></trkpt><trkpt lat="44.74733998210314" lon="9.34330376638687"><ele>638.0</ele><time>2026-03-28T13:03:47.998Z</time></trkpt><trkpt lat="44.747267400044066" lon="9.34331182674606"><ele>638.0</ele><time>2026-03-28T13:03:53.997Z</time></trkpt><trkpt lat="44.747178989749926" lon="9.343277256557142"><ele>638.0</ele><time>2026-03-28T13:03:58Z</time></trkpt><trkpt lat="44.747098340995265" lon="9.343211003865465"><ele>638.0</ele><time>2026-03-28T13:04:00Z</time></trkpt><trkpt lat="44.747011382672184" lon="9.343183212735667"><ele>638.0</ele><time>2026-03-28T13:04:02Z</time></trkpt><trkpt lat="44.74694981206309" lon="9.343148540383316"><ele>638.0</ele><time>2026-03-28T13:04:04Z</time></trkpt><trkpt lat="44.74688473123499" lon="9.343123136335137"><ele>635.5</ele><time>2026-03-28T13:04:06Z</time></trkpt><trkpt lat="44.746815095298416" lon="9.343075753661498"><ele>633.0</ele><time>2026-03-28T13:04:08Z</time></trkpt><trkpt lat="44.7467286052129" lon="9.342994047330908"><ele>630.5</ele><time>2026-03-28T13:04:11Z</time></trkpt><trkpt lat="44.74668013139878" lon="9.342934623282524"><ele>628.0</ele><time>2026-03-28T13:04:14Z</time></trkpt><trkpt lat="44.746637574087195" lon="9.342851567968951"><ele>625.5</ele><time>2026-03-28T13:04:17Z</time></trkpt><trkpt lat="44.74659055516355" lon="9.342791868819143"><ele>623.0</ele><time>2026-03-28T13:04:18.999Z</time></trkpt><trkpt lat="44.746550344016136" lon="9.34270851751701"><ele>623.0</ele><time>2026-03-28T13:04:20.999Z</time></trkpt><trkpt lat="44.74650340762441" lon="9.342637039273558"><ele>623.0</ele><time>2026-03-28T13:04:22.999Z</time></trkpt><trkpt lat="44.746457708595386" lon="9.342560388840367"><ele>623.0</ele><time>2026-03-28T13:04:25.999Z</time></trkpt><trkpt lat="44.74640136571398" lon="9.342511714358933"><ele>623.0</ele><time>2026-03-28T13:04:27.999Z</time></trkpt><trkpt lat="44.74638312862064" lon="9.342385275384823"><ele>623.0</ele><time>2026-03-28T13:04:30.999Z</time></trkpt><trkpt lat="44.74633528151008" lon="9.342280103801164"><ele>623.0</ele><time>2026-03-28T13:04:33.999Z</time></trkpt><trkpt lat="44.74630700004956" lon="9.342174407941904"><ele>624.5</ele><time>2026-03-28T13:04:35.999Z</time></trkpt><trkpt lat="44.7462824341036" lon="9.342051690646294"><ele>626.0</ele><time>2026-03-28T13:04:37.999Z</time></trkpt><trkpt lat="44.74626200260369" lon="9.341928730614114"><ele>627.5</ele><time>2026-03-28T13:04:39.999Z</time></trkpt><trkpt lat="44.74626995623064" lon="9.341813221563783"><ele>629.0</ele><time>2026-03-28T13:04:42.999Z</time></trkpt><trkpt lat="44.74626621403653" lon="9.341723078971325"><ele>630.5</ele><time>2026-03-28T13:04:44.999Z</time></trkpt><trkpt lat="44.74620661047215" lon="9.341673394700384"><ele>632.0</ele><time>2026-03-28T13:04:46.999Z</time></trkpt><trkpt lat="44.74611757733763" lon="9.341686103837082"><ele>626.4</ele><time>2026-03-28T13:04:49.999Z</time></trkpt><trkpt lat="44.74604322189413" lon="9.341686647126178"><ele>620.8000000000001</ele><time>2026-03-28T13:04:52.999Z</time></trkpt><trkpt lat="44.745936245407435" lon="9.341597160663515"><ele>615.2</ele><time>2026-03-28T13:04:55.999Z</time></trkpt><trkpt lat="44.7458231954933" lon="9.341566444363334"><ele>609.6</ele><time>2026-03-28T13:05:12.998Z</time></trkpt><trkpt lat="44.74575892200426" lon="9.3415791568951"><ele>604.0</ele><time>2026-03-28T13:05:15.998Z</time></trkpt><trkpt lat="44.745667562224384" lon="9.341563018121496"><ele>604.0000000000001</ele><time>2026-03-28T13:05:18.998Z</time></trkpt><trkpt lat="44.745595609894295" lon="9.34152731228694"><ele>604.0</ele><time>2026-03-28T13:05:21.998Z</time></trkpt><trkpt lat="44.74553425700156" lon="9.341494301044396"><ele>604.0</ele><time>2026-03-28T13:05:23.998Z</time></trkpt><trkpt lat="44.74546415742315" lon="9.341440848403954"><ele>604.0</ele><time>2026-03-28T13:05:27.998Z</time></trkpt><trkpt lat="44.74540329213893" lon="9.341405941610898"><ele>604.0</ele><time>2026-03-28T13:05:29.998Z</time></trkpt><trkpt lat="44.74533423097242" lon="9.341369749394671"><ele>604.0000000000001</ele><time>2026-03-28T13:05:48.998Z</time></trkpt><trkpt lat="44.745266720133536" lon="9.341325787347666"><ele>604.0</ele><time>2026-03-28T13:05:56.998Z</time></trkpt><trkpt lat="44.745181755002825" lon="9.341307176287852"><ele>604.1666666666667</ele><time>2026-03-28T13:06:00.997Z</time></trkpt><trkpt lat="44.74510336626405" lon="9.341245879887461"><ele>604.3333333333334</ele><time>2026-03-28T13:06:06Z</time></trkpt><trkpt lat="44.74503330257703" lon="9.341245611465034"><ele>604.5</ele><time>2026-03-28T13:06:11Z</time></trkpt><trkpt lat="44.74504374947192" lon="9.341340126069552"><ele>604.6666666666666</ele><time>2026-03-28T13:06:15Z</time></trkpt><trkpt lat="44.745080413853465" lon="9.341448964514676"><ele>604.8333333333333</ele><time>2026-03-28T13:06:19Z</time></trkpt><trkpt lat="44.74510741247657" lon="9.341552625148292"><ele>605.0</ele><time>2026-03-28T13:06:22Z</time></trkpt><trkpt lat="44.74513280761658" lon="9.341635256572939"><ele>604.8333333333333</ele><time>2026-03-28T13:06:24.999Z</time></trkpt><trkpt lat="44.74517740049128" lon="9.341702439273345"><ele>604.6666666666666</ele><time>2026-03-28T13:06:28.999Z</time></trkpt><trkpt lat="44.74522536991426" lon="9.341780963702792"><ele>604.5</ele><time>2026-03-28T13:07:35.998Z</time></trkpt><trkpt lat="44.74528249063134" lon="9.341888340161214"><ele>604.3333333333334</ele><time>2026-03-28T13:09:08.999Z</time></trkpt><trkpt lat="44.74519269032774" lon="9.341970481728751"><ele>604.1666666666667</ele><time>2026-03-28T13:17:00.999Z</time></trkpt><trkpt lat="44.74524984424828" lon="9.34188539958191"><ele>604.0</ele><time>2026-03-28T13:18:21.998Z</time></trkpt><trkpt lat="44.7452786787284" lon="9.341778308792344"><ele>604.0</ele><time>2026-03-28T13:18:36.999Z</time></trkpt><trkpt lat="44.745300746030786" lon="9.341629700361967"><ele>604.0</ele><time>2026-03-28T13:18:38.999Z</time></trkpt><trkpt lat="44.74530806346344" lon="9.341530459293631"><ele>604.0</ele><time>2026-03-28T13:18:40.999Z</time></trkpt><trkpt lat="44.74530160029628" lon="9.3416714408325"><ele>604.0</ele><time>2026-03-28T13:18:41.999Z</time></trkpt><trkpt lat="44.74532370712267" lon="9.341784381583293"><ele>604.0</ele><time>2026-03-28T13:19:11.999Z</time></trkpt><trkpt lat="44.74528273061161" lon="9.341987805748339"><ele>604.0</ele><time>2026-03-28T13:20:08.998Z</time></trkpt><trkpt lat="44.74523762192369" lon="9.34191721646046"><ele>604.0</ele><time>2026-03-28T13:22:28.998Z</time></trkpt><trkpt lat="44.745256008264555" lon="9.34201170017838"><ele>604.0</ele><time>2026-03-28T13:23:54.999Z</time></trkpt><trkpt lat="44.7452817444035" lon="9.342146543482581"><ele>604.0</ele><time>2026-03-28T13:24:55Z</time></trkpt><trkpt lat="44.745318670756774" lon="9.342234621059516"><ele>604.0</ele><time>2026-03-28T13:24:58Z</time></trkpt><trkpt lat="44.74533238511348" lon="9.342327583995393"><ele>604.0</ele><time>2026-03-28T13:25:10Z</time></trkpt><trkpt lat="44.745316059453785" lon="9.34244665248202"><ele>602.1666666666667</ele><time>2026-03-28T13:25:13Z</time></trkpt><trkpt lat="44.74528576360593" lon="9.342545654302555"><ele>600.3333333333334</ele><time>2026-03-28T13:25:15.999Z</time></trkpt><trkpt lat="44.745200710485825" lon="9.342553917090688"><ele>598.5</ele><time>2026-03-28T13:25:17.999Z</time></trkpt><trkpt lat="44.74512864718428" lon="9.342578835872233"><ele>596.6666666666666</ele><time>2026-03-28T13:25:20.999Z</time></trkpt><trkpt lat="44.745068396741225" lon="9.342654764656977"><ele>594.8333333333333</ele><time>2026-03-28T13:25:23.999Z</time></trkpt><trkpt lat="44.74501328777528" lon="9.342723133890603"><ele>593.0</ele><time>2026-03-28T13:25:25.999Z</time></trkpt><trkpt lat="44.744932137418154" lon="9.342811800437838"><ele>592.0</ele><time>2026-03-28T13:25:27.999Z</time></trkpt><trkpt lat="44.74490348346094" lon="9.34293827032577"><ele>591.0</ele><time>2026-03-28T13:25:30.999Z</time></trkpt><trkpt lat="44.74488866230259" lon="9.343024525886015"><ele>590.0</ele><time>2026-03-28T13:25:32.999Z</time></trkpt><trkpt lat="44.74484300602386" lon="9.343217054954525"><ele>589.0</ele><time>2026-03-28T13:25:34.999Z</time></trkpt><trkpt lat="44.74480323473836" lon="9.343354221939629"><ele>588.0</ele><time>2026-03-28T13:25:36.999Z</time></trkpt><trkpt lat="44.74477733653097" lon="9.343447926612512"><ele>586.0</ele><time>2026-03-28T13:25:38.999Z</time></trkpt><trkpt lat="44.74474554959489" lon="9.343535775369563"><ele>584.0</ele><time>2026-03-28T13:25:42.999Z</time></trkpt><trkpt lat="44.74475127444887" lon="9.343637589218796"><ele>582.0</ele><time>2026-03-28T13:26:06.998Z</time></trkpt><trkpt lat="44.744737722670315" lon="9.343738522796144"><ele>580.0</ele><time>2026-03-28T13:26:11.998Z</time></trkpt><trkpt lat="44.744712563734815" lon="9.343840039477277"><ele>578.0</ele><time>2026-03-28T13:26:14.998Z</time></trkpt><trkpt lat="44.74470593448688" lon="9.343934398684711"><ele>576.0</ele><time>2026-03-28T13:26:17.998Z</time></trkpt><trkpt lat="44.74472967871269" lon="9.344046607767517"><ele>574.0</ele><time>2026-03-28T13:26:20.998Z</time></trkpt><trkpt lat="44.744762613221816" lon="9.344126025509969"><ele>573.1428571428571</ele><time>2026-03-28T13:26:26.998Z</time></trkpt><trkpt lat="44.74478363937746" lon="9.34424781817716"><ele>572.2857142857142</ele><time>2026-03-28T13:26:31.998Z</time></trkpt><trkpt lat="44.74474537520821" lon="9.344318812537782"><ele>571.4285714285714</ele><time>2026-03-28T13:26:36.998Z</time></trkpt><trkpt lat="44.74469319511995" lon="9.34438429661995"><ele>570.5714285714286</ele><time>2026-03-28T13:26:43.998Z</time></trkpt><trkpt lat="44.744652214093215" lon="9.344464625427305"><ele>569.7142857142857</ele><time>2026-03-28T13:27:03Z</time></trkpt><trkpt lat="44.74466942124091" lon="9.34455841052508"><ele>568.8571428571429</ele><time>2026-03-28T13:27:09Z</time></trkpt><trkpt lat="44.744673876200146" lon="9.344650537806531"><ele>568.0</ele><time>2026-03-28T13:27:11Z</time></trkpt><trkpt lat="44.74469557664706" lon="9.344745177659897"><ele>567.6</ele><time>2026-03-28T13:27:14Z</time></trkpt><trkpt lat="44.74474211918822" lon="9.344879452025285"><ele>567.1999999999999</ele><time>2026-03-28T13:27:18Z</time></trkpt><trkpt lat="44.74472105724368" lon="9.345009324445417"><ele>566.8</ele><time>2026-03-28T13:27:21Z</time></trkpt><trkpt lat="44.74473236916529" lon="9.345131097960522"><ele>566.4</ele><time>2026-03-28T13:27:22.999Z</time></trkpt><trkpt lat="44.74477777653556" lon="9.34522373620669"><ele>566.0</ele><time>2026-03-28T13:27:24.999Z</time></trkpt><trkpt lat="44.74481346086961" lon="9.34535048132408"><ele>566.0</ele><time>2026-03-28T13:27:26.999Z</time></trkpt><trkpt lat="44.7448240917571" lon="9.345448812101516"><ele>566.0</ele><time>2026-03-28T13:27:27.999Z</time></trkpt><trkpt lat="44.74483819051994" lon="9.345561887531364"><ele>566.0</ele><time>2026-03-28T13:27:28.999Z</time></trkpt><trkpt lat="44.74485867970591" lon="9.345697359599624"><ele>566.0</ele><time>2026-03-28T13:27:29.999Z</time></trkpt><trkpt lat="44.74487944194716" lon="9.345815569120045"><ele>566.0</ele><time>2026-03-28T13:27:30.999Z</time></trkpt><trkpt lat="44.744903193596464" lon="9.345966591761123"><ele>566.0</ele><time>2026-03-28T13:27:32.999Z</time></trkpt><trkpt lat="44.74493280056278" lon="9.346141376765283"><ele>566.1666666666666</ele><time>2026-03-28T13:27:34.999Z</time></trkpt><trkpt lat="44.744889142112704" lon="9.346263305324012"><ele>566.3333333333333</ele><time>2026-03-28T13:27:35.999Z</time></trkpt><trkpt lat="44.74486112449394" lon="9.346355415886341"><ele>566.5</ele><time>2026-03-28T13:27:36.999Z</time></trkpt><trkpt lat="44.74484793880139" lon="9.346477241335194"><ele>566.6666666666666</ele><time>2026-03-28T13:27:38.999Z</time></trkpt><trkpt lat="44.74484611084787" lon="9.346637761504883"><ele>566.8333333333334</ele><time>2026-03-28T13:27:40.999Z</time></trkpt><trkpt lat="44.74482793782245" lon="9.34673697273817"><ele>567.0</ele><time>2026-03-28T13:27:42.999Z</time></trkpt><trkpt lat="44.74478349216525" lon="9.346837319863413"><ele>566.0</ele><time>2026-03-28T13:27:44.999Z</time></trkpt><trkpt lat="44.7447653624343" lon="9.346978727909791"><ele>565.0</ele><time>2026-03-28T13:27:46.999Z</time></trkpt><trkpt lat="44.74475707939679" lon="9.347104318647496"><ele>564.0</ele><time>2026-03-28T13:27:48.999Z</time></trkpt><trkpt lat="44.74471524240977" lon="9.347193321105136"><ele>563.0</ele><time>2026-03-28T13:27:50.999Z</time></trkpt><trkpt lat="44.74467371230683" lon="9.347312212494542"><ele>562.0</ele><time>2026-03-28T13:27:52.999Z</time></trkpt><trkpt lat="44.74464901903774" lon="9.347451148877436"><ele>560.1666666666667</ele><time>2026-03-28T13:27:54.999Z</time></trkpt><trkpt lat="44.744605171811784" lon="9.347555961826048"><ele>558.3333333333334</ele><time>2026-03-28T13:27:56.999Z</time></trkpt><trkpt lat="44.74457286678835" lon="9.34767484083397"><ele>556.5</ele><time>2026-03-28T13:27:58.999Z</time></trkpt><trkpt lat="44.744558026804" lon="9.347762939513082"><ele>554.6666666666666</ele><time>2026-03-28T13:28:00.999Z</time></trkpt><trkpt lat="44.74456624705187" lon="9.347867951234713"><ele>552.8333333333333</ele><time>2026-03-28T13:28:02.999Z</time></trkpt><trkpt lat="44.7445266644668" lon="9.347977044488742"><ele>551.0</ele><time>2026-03-28T13:28:04.999Z</time></trkpt><trkpt lat="44.74444613735829" lon="9.348081673711574"><ele>547.0</ele><time>2026-03-28T13:28:06.999Z</time></trkpt><trkpt lat="44.74442419585924" lon="9.348217328016968"><ele>543.0</ele><time>2026-03-28T13:28:08.999Z</time></trkpt><trkpt lat="44.744349700853654" lon="9.348380668669725"><ele>539.0</ele><time>2026-03-28T13:28:10.999Z</time></trkpt><trkpt lat="44.74428580252389" lon="9.348501871648516"><ele>535.0</ele><time>2026-03-28T13:28:12.998Z</time></trkpt><trkpt lat="44.744222828379975" lon="9.348638885218751"><ele>538.8333333333334</ele><time>2026-03-28T13:28:14.998Z</time></trkpt><trkpt lat="44.74414424612069" lon="9.348766623535935"><ele>542.6666666666667</ele><time>2026-03-28T13:28:16.998Z</time></trkpt><trkpt lat="44.74412782780016" lon="9.348853036001854"><ele>546.5</ele><time>2026-03-28T13:28:17.998Z</time></trkpt><trkpt lat="44.74411993535306" lon="9.34894220727249"><ele>550.3333333333334</ele><time>2026-03-28T13:28:18.998Z</time></trkpt><trkpt lat="44.74410427007838" lon="9.349118932712457"><ele>554.1666666666666</ele><time>2026-03-28T13:28:20.998Z</time></trkpt><trkpt lat="44.7440921294398" lon="9.349219850370027"><ele>558.0</ele><time>2026-03-28T13:28:21.998Z</time></trkpt><trkpt lat="44.744091641856706" lon="9.349363244089387"><ele>558.0</ele><time>2026-03-28T13:28:23.998Z</time></trkpt><trkpt lat="44.74405877440993" lon="9.349542242509846"><ele>558.0</ele><time>2026-03-28T13:28:25.998Z</time></trkpt><trkpt lat="44.744020968466025" lon="9.349627128118144"><ele>558.0</ele><time>2026-03-28T13:28:26.998Z</time></trkpt><trkpt lat="44.74397390742965" lon="9.349698599851187"><ele>558.0</ele><time>2026-03-28T13:28:27.998Z</time></trkpt><trkpt lat="44.74395284108695" lon="9.349783424380195"><ele>558.0</ele><time>2026-03-28T13:28:28.998Z</time></trkpt><trkpt lat="44.74393089928053" lon="9.349894327636246"><ele>558.0</ele><time>2026-03-28T13:28:40.998Z</time></trkpt><trkpt lat="44.74386266591683" lon="9.349969273551114"><ele>555.0</ele><time>2026-03-28T13:28:43.998Z</time></trkpt><trkpt lat="44.74381870621062" lon="9.350116458677029"><ele>552.0</ele><time>2026-03-28T13:28:45.998Z</time></trkpt><trkpt lat="44.74376733019865" lon="9.350208121037447"><ele>549.0</ele><time>2026-03-28T13:28:46.998Z</time></trkpt><trkpt lat="44.74372216172967" lon="9.350271173368013"><ele>546.0</ele><time>2026-03-28T13:28:47.998Z</time></trkpt><trkpt lat="44.74366756078455" lon="9.350347106777956"><ele>543.0</ele><time>2026-03-28T13:28:48.998Z</time></trkpt><trkpt lat="44.74362368427525" lon="9.350441590701552"><ele>540.0</ele><time>2026-03-28T13:28:49.998Z</time></trkpt><trkpt lat="44.74357741224889" lon="9.350511161585857"><ele>543.6</ele><time>2026-03-28T13:28:50.998Z</time></trkpt><trkpt lat="44.743534633209514" lon="9.350576432744331"><ele>547.2</ele><time>2026-03-28T13:28:51.998Z</time></trkpt><trkpt lat="44.743467036234584" lon="9.350755867500272"><ele>550.8</ele><time>2026-03-28T13:28:53.998Z</time></trkpt><trkpt lat="44.74344559859928" lon="9.35087588461298"><ele>554.4</ele><time>2026-03-28T13:28:55.998Z</time></trkpt><trkpt lat="44.74343546175726" lon="9.350963489295872"><ele>558.0</ele><time>2026-03-28T13:28:57.998Z</time></trkpt><trkpt lat="44.743435133671696" lon="9.351106837106181"><ele>558.0</ele><time>2026-03-28T13:28:59.998Z</time></trkpt><trkpt lat="44.74338892219581" lon="9.351252170553018"><ele>558.0</ele><time>2026-03-28T13:29:01.998Z</time></trkpt><trkpt lat="44.74329139274056" lon="9.351332958393371"><ele>558.0</ele><time>2026-03-28T13:29:03.997Z</time></trkpt><trkpt lat="44.743241754455404" lon="9.351394059395165"><ele>558.0</ele><time>2026-03-28T13:29:04.997Z</time></trkpt><trkpt lat="44.743156270693014" lon="9.35153119832871"><ele>558.0</ele><time>2026-03-28T13:29:07Z</time></trkpt><trkpt lat="44.74309783637681" lon="9.351595962676585"><ele>553.8571428571428</ele><time>2026-03-28T13:29:08Z</time></trkpt><trkpt lat="44.74304435766121" lon="9.351651795788726"><ele>549.7142857142857</ele><time>2026-03-28T13:29:09Z</time></trkpt><trkpt lat="44.74299638763159" lon="9.351712012369418"><ele>545.5714285714286</ele><time>2026-03-28T13:29:10Z</time></trkpt><trkpt lat="44.74297175125371" lon="9.351800758802662"><ele>541.4285714285713</ele><time>2026-03-28T13:29:11Z</time></trkpt><trkpt lat="44.742959614597396" lon="9.351891081194148"><ele>537.2857142857142</ele><time>2026-03-28T13:29:12Z</time></trkpt><trkpt lat="44.74296425464623" lon="9.35201560440964"><ele>533.1428571428571</ele><time>2026-03-28T13:29:14Z</time></trkpt><trkpt lat="44.74299229881524" lon="9.352138518021441"><ele>529.0</ele><time>2026-03-28T13:29:16Z</time></trkpt><trkpt lat="44.74302004469917" lon="9.352219164505543"><ele>526.8333333333334</ele><time>2026-03-28T13:29:17Z</time></trkpt><trkpt lat="44.7430636382955" lon="9.35230487235788"><ele>524.6666666666667</ele><time>2026-03-28T13:29:18Z</time></trkpt><trkpt lat="44.74310396725611" lon="9.352384980621961"><ele>522.5</ele><time>2026-03-28T13:29:19Z</time></trkpt><trkpt lat="44.743124322746816" lon="9.352471465971542"><ele>520.3333333333334</ele><time>2026-03-28T13:29:20Z</time></trkpt><trkpt lat="44.74315764700913" lon="9.352555376745421"><ele>518.1666666666666</ele><time>2026-03-28T13:29:21Z</time></trkpt><trkpt lat="44.743180968512625" lon="9.352698521575467"><ele>516.0</ele><time>2026-03-28T13:29:23Z</time></trkpt><trkpt lat="44.743216965368205" lon="9.352844543228109"><ele>516.0</ele><time>2026-03-28T13:29:25Z</time></trkpt><trkpt lat="44.74326994488786" lon="9.352896042458822"><ele>516.0</ele><time>2026-03-28T13:29:26.999Z</time></trkpt><trkpt lat="44.74330553306911" lon="9.35298390980445"><ele>516.0</ele><time>2026-03-28T13:29:29.999Z</time></trkpt><trkpt lat="44.743311305422836" lon="9.353083891798386"><ele>516.0</ele><time>2026-03-28T13:29:32.999Z</time></trkpt><trkpt lat="44.74339296890897" lon="9.353125010906654"><ele>516.0</ele><time>2026-03-28T13:33:22Z</time></trkpt><trkpt lat="44.74336550320962" lon="9.353215084109417"><ele>516.0</ele><time>2026-03-28T13:33:30Z</time></trkpt><trkpt lat="44.74330586758052" lon="9.353350212993616"><ele>515.5</ele><time>2026-03-28T13:33:33Z</time></trkpt><trkpt lat="44.743290466003096" lon="9.353453745141502"><ele>515.0</ele><time>2026-03-28T13:33:35.999Z</time></trkpt><trkpt lat="44.743325521192546" lon="9.35354409118361"><ele>514.5</ele><time>2026-03-28T13:33:37.999Z</time></trkpt><trkpt lat="44.74333045000561" lon="9.353643751258307"><ele>514.0</ele><time>2026-03-28T13:33:41.999Z</time></trkpt><trkpt lat="44.74341031068737" lon="9.353589568119576"><ele>513.5</ele><time>2026-03-28T13:33:47.999Z</time></trkpt><trkpt lat="44.743454902703924" lon="9.353510132728834"><ele>513.0</ele><time>2026-03-28T13:33:49.999Z</time></trkpt><trkpt lat="44.74352342056608" lon="9.353484757949307"><ele>511.5</ele><time>2026-03-28T13:33:52.999Z</time></trkpt><trkpt lat="44.74359412432055" lon="9.353509777325272"><ele>510.0</ele><time>2026-03-28T13:33:55.999Z</time></trkpt><trkpt lat="44.74369222566719" lon="9.353609762156529"><ele>508.5</ele><time>2026-03-28T13:33:58.999Z</time></trkpt><trkpt lat="44.743709053048484" lon="9.353735897200952"><ele>507.0</ele><time>2026-03-28T13:34:00.999Z</time></trkpt><trkpt lat="44.74376241792517" lon="9.35385303000028"><ele>505.5</ele><time>2026-03-28T13:34:32.998Z</time></trkpt><trkpt lat="44.743699969292905" lon="9.353871408746283"><ele>504.0</ele><time>2026-03-28T13:34:36.998Z</time></trkpt><trkpt lat="44.74364279936389" lon="9.353940009704763"><ele>504.0</ele><time>2026-03-28T13:34:39.998Z</time></trkpt><trkpt lat="44.743579047158306" lon="9.354077364678343"><ele>504.0</ele><time>2026-03-28T13:34:41.998Z</time></trkpt><trkpt lat="44.7435383653578" lon="9.354182049942699"><ele>504.0</ele><time>2026-03-28T13:34:42.998Z</time></trkpt><trkpt lat="44.74351257622534" lon="9.354301301563554"><ele>504.0</ele><time>2026-03-28T13:34:43.998Z</time></trkpt><trkpt lat="44.74348599151752" lon="9.35439846081604"><ele>504.0</ele><time>2026-03-28T13:34:44.998Z</time></trkpt><trkpt lat="44.743462023480895" lon="9.354484954109703"><ele>504.0</ele><time>2026-03-28T13:34:45.998Z</time></trkpt><trkpt lat="44.7434302746889" lon="9.354584549129683"><ele>506.0</ele><time>2026-03-28T13:34:46.998Z</time></trkpt><trkpt lat="44.74340230236185" lon="9.354667365419523"><ele>508.0</ele><time>2026-03-28T13:34:47.998Z</time></trkpt><trkpt lat="44.74332530460955" lon="9.35477598024848"><ele>510.0</ele><time>2026-03-28T13:34:50.998Z</time></trkpt><trkpt lat="44.743276119222145" lon="9.354864821444062"><ele>512.0</ele><time>2026-03-28T13:34:51.998Z</time></trkpt><trkpt lat="44.74321740936658" lon="9.354944548743205"><ele>514.0</ele><time>2026-03-28T13:34:52.998Z</time></trkpt><trkpt lat="44.74313042971839" lon="9.355035885381433"><ele>516.0</ele><time>2026-03-28T13:34:54.998Z</time></trkpt><trkpt lat="44.74306878240474" lon="9.35508091853401"><ele>517.6</ele><time>2026-03-28T13:34:55.998Z</time></trkpt><trkpt lat="44.74299927641768" lon="9.35513066041674"><ele>519.2</ele><time>2026-03-28T13:34:56.998Z</time></trkpt><trkpt lat="44.74292190342121" lon="9.355202555468601"><ele>520.8</ele><time>2026-03-28T13:34:57.998Z</time></trkpt><trkpt lat="44.74283068804948" lon="9.355292203931995"><ele>522.4</ele><time>2026-03-28T13:34:58.998Z</time></trkpt><trkpt lat="44.742758150884356" lon="9.355390913298953"><ele>524.0</ele><time>2026-03-28T13:34:59.998Z</time></trkpt><trkpt lat="44.7427054399441" lon="9.355504027706504"><ele>527.2</ele><time>2026-03-28T13:35:00.998Z</time></trkpt><trkpt lat="44.742670229349294" lon="9.355592112467239"><ele>530.4</ele><time>2026-03-28T13:35:01.998Z</time></trkpt><trkpt lat="44.74262748988461" lon="9.355676809627658"><ele>533.6</ele><time>2026-03-28T13:35:03.998Z</time></trkpt><trkpt lat="44.74253278235718" lon="9.35572464770939"><ele>536.8</ele><time>2026-03-28T13:35:06.998Z</time></trkpt><trkpt lat="44.742456440951315" lon="9.355776107290183"><ele>540.0</ele><time>2026-03-28T13:35:10.998Z</time></trkpt><trkpt lat="44.74233711472" lon="9.355845562344344"><ele>540.0</ele><time>2026-03-28T13:35:12.998Z</time></trkpt><trkpt lat="44.74218158106215" lon="9.355849687154146"><ele>540.0</ele><time>2026-03-28T13:35:14.997Z</time></trkpt><trkpt lat="44.74208332590365" lon="9.355868129670966"><ele>540.0</ele><time>2026-03-28T13:35:15.997Z</time></trkpt><trkpt lat="44.74199295510155" lon="9.355866131096132"><ele>540.0</ele><time>2026-03-28T13:35:16.997Z</time></trkpt><trkpt lat="44.74191326123724" lon="9.355867765262413"><ele>540.0</ele><time>2026-03-28T13:35:17.997Z</time></trkpt><trkpt lat="44.74183383133805" lon="9.355875021437905"><ele>542.2</ele><time>2026-03-28T13:35:18.997Z</time></trkpt><trkpt lat="44.7417541032702" lon="9.355881326143352"><ele>544.4</ele><time>2026-03-28T13:35:19.997Z</time></trkpt><trkpt lat="44.74161785902072" lon="9.355882588277318"><ele>546.6</ele><time>2026-03-28T13:35:22Z</time></trkpt><trkpt lat="44.74154213159802" lon="9.35588413161105"><ele>548.8</ele><time>2026-03-28T13:35:23Z</time></trkpt><trkpt lat="44.74145446693712" lon="9.355888730271085"><ele>551.0</ele><time>2026-03-28T13:35:24Z</time></trkpt><trkpt lat="44.74135138077798" lon="9.355956009809304"><ele>551.0</ele><time>2026-03-28T13:35:26Z</time></trkpt><trkpt lat="44.74129983236768" lon="9.356027751630272"><ele>551.0</ele><time>2026-03-28T13:35:27Z</time></trkpt><trkpt lat="44.74127902530146" lon="9.356127444794009"><ele>551.0</ele><time>2026-03-28T13:35:28Z</time></trkpt><trkpt lat="44.74118824989386" lon="9.356232708372218"><ele>551.0</ele><time>2026-03-28T13:35:30Z</time></trkpt><trkpt lat="44.741125002699874" lon="9.356288322756287"><ele>551.0</ele><time>2026-03-28T13:35:31Z</time></trkpt><trkpt lat="44.741053914083814" lon="9.35635956275488"><ele>551.0</ele><time>2026-03-28T13:35:32Z</time></trkpt><trkpt lat="44.74097734321579" lon="9.356452539691453"><ele>555.2</ele><time>2026-03-28T13:35:33Z</time></trkpt><trkpt lat="44.74092302801241" lon="9.35653946890393"><ele>559.4000000000001</ele><time>2026-03-28T13:35:34Z</time></trkpt><trkpt lat="44.74087101281325" lon="9.356598670632204"><ele>563.6</ele><time>2026-03-28T13:35:35Z</time></trkpt><trkpt lat="44.740784722771856" lon="9.35651094221685"><ele>567.8000000000001</ele><time>2026-03-28T13:35:37.999Z</time></trkpt><trkpt lat="44.740689948840725" lon="9.356582823839638"><ele>572.0</ele><time>2026-03-28T13:35:39.999Z</time></trkpt><trkpt lat="44.74056176519854" lon="9.356654902500422"><ele>572.0</ele><time>2026-03-28T13:35:41.999Z</time></trkpt><trkpt lat="44.7404787799757" lon="9.356664463736603"><ele>572.0</ele><time>2026-03-28T13:35:42.999Z</time></trkpt><trkpt lat="44.74040724066126" lon="9.35668263826263"><ele>572.0</ele><time>2026-03-28T13:35:43.999Z</time></trkpt><trkpt lat="44.7402906077098" lon="9.356730032837165"><ele>572.0</ele><time>2026-03-28T13:35:45.999Z</time></trkpt><trkpt lat="44.740246966275265" lon="9.35681202729559"><ele>572.0</ele><time>2026-03-28T13:35:47.999Z</time></trkpt><trkpt lat="44.74020977665938" lon="9.356884150201079"><ele>572.0</ele><time>2026-03-28T13:35:48.999Z</time></trkpt><trkpt lat="44.74016113676968" lon="9.356971736936476"><ele>575.6</ele><time>2026-03-28T13:35:49.999Z</time></trkpt><trkpt lat="44.740097843745104" lon="9.357091307709588"><ele>579.2</ele><time>2026-03-28T13:35:51.999Z</time></trkpt><trkpt lat="44.739998961056045" lon="9.357132291834144"><ele>582.8</ele><time>2026-03-28T13:35:53.999Z</time></trkpt><trkpt lat="44.7399298259343" lon="9.35716707987538"><ele>586.4</ele><time>2026-03-28T13:35:55.999Z</time></trkpt><trkpt lat="44.739924245565874" lon="9.357276122707825"><ele>590.0</ele><time>2026-03-28T13:36:05.999Z</time></trkpt><trkpt lat="44.739947684465214" lon="9.35741151121067"><ele>591.1666666666666</ele><time>2026-03-28T13:36:07.999Z</time></trkpt><trkpt lat="44.740004320976034" lon="9.357457046099608"><ele>592.3333333333333</ele><time>2026-03-28T13:36:08.999Z</time></trkpt><trkpt lat="44.74009755583779" lon="9.357473240993363"><ele>593.5</ele><time>2026-03-28T13:36:10.999Z</time></trkpt><trkpt lat="44.740200831664744" lon="9.357497341676183"><ele>594.6666666666666</ele><time>2026-03-28T13:36:12.999Z</time></trkpt><trkpt lat="44.74026554487659" lon="9.35748531773821"><ele>595.8333333333334</ele><time>2026-03-28T13:36:13.999Z</time></trkpt><trkpt lat="44.74034913060115" lon="9.357505038811311"><ele>597.0</ele><time>2026-03-28T13:36:15.999Z</time></trkpt><trkpt lat="44.74041972544116" lon="9.357622154520039"><ele>597.0</ele><time>2026-03-28T13:36:17.999Z</time></trkpt><trkpt lat="44.74047688132077" lon="9.357659937356814"><ele>597.0</ele><time>2026-03-28T13:36:18.999Z</time></trkpt><trkpt lat="44.740521327059405" lon="9.357723813525936"><ele>597.0</ele><time>2026-03-28T13:36:19.999Z</time></trkpt><trkpt lat="44.74061124543348" lon="9.357776687639932"><ele>597.0</ele><time>2026-03-28T13:36:21.999Z</time></trkpt><trkpt lat="44.74047674693423" lon="9.357755297188763"><ele>597.0</ele><time>2026-03-28T13:36:35.998Z</time></trkpt><trkpt lat="44.740397071772136" lon="9.357740593350334"><ele>597.0</ele><time>2026-03-28T13:36:36.998Z</time></trkpt><trkpt lat="44.740295157878016" lon="9.357759032069044"><ele>597.0</ele><time>2026-03-28T13:36:38.998Z</time></trkpt><trkpt lat="44.74023026946005" lon="9.35781961721856"><ele>597.0</ele><time>2026-03-28T13:36:41.998Z</time></trkpt><trkpt lat="44.740073334113404" lon="9.357825995412403"><ele>597.0</ele><time>2026-03-28T13:36:42.998Z</time></trkpt><trkpt lat="44.74001166780048" lon="9.35785071853484"><ele>597.0</ele><time>2026-03-28T13:36:43.998Z</time></trkpt><trkpt lat="44.73992156214171" lon="9.35790243328714"><ele>597.0</ele><time>2026-03-28T13:36:45.998Z</time></trkpt><trkpt lat="44.73985641291345" lon="9.357923198124427"><ele>599.25</ele><time>2026-03-28T13:36:46.998Z</time></trkpt><trkpt lat="44.73970968833577" lon="9.357951213424306"><ele>601.5</ele><time>2026-03-28T13:36:48.998Z</time></trkpt><trkpt lat="44.73961295326743" lon="9.358032987335513"><ele>603.75</ele><time>2026-03-28T13:36:50.998Z</time></trkpt><trkpt lat="44.739552745758196" lon="9.358115885732735"><ele>606.0</ele><time>2026-03-28T13:36:52.998Z</time></trkpt><trkpt lat="44.73946977651754" lon="9.358246024103796"><ele>610.6</ele><time>2026-03-28T13:36:54.998Z</time></trkpt><trkpt lat="44.739364369267356" lon="9.358309624653094"><ele>615.2</ele><time>2026-03-28T13:36:56.998Z</time></trkpt><trkpt lat="44.73928721548269" lon="9.358366813137497"><ele>619.8</ele><time>2026-03-28T13:36:57.998Z</time></trkpt><trkpt lat="44.73921709734663" lon="9.358416398436558"><ele>624.4</ele><time>2026-03-28T13:36:58.998Z</time></trkpt><trkpt lat="44.73915360881539" lon="9.358423923265537"><ele>629.0</ele><time>2026-03-28T13:36:59.998Z</time></trkpt><trkpt lat="44.739046214684286" lon="9.358467464405052"><ele>629.0</ele><time>2026-03-28T13:37:01.998Z</time></trkpt><trkpt lat="44.738917110985774" lon="9.358542868539596"><ele>629.0</ele><time>2026-03-28T13:37:03.998Z</time></trkpt><trkpt lat="44.73883307997897" lon="9.358504470769102"><ele>629.0</ele><time>2026-03-28T13:37:05.998Z</time></trkpt><trkpt lat="44.738771762344754" lon="9.35845666602328"><ele>629.0</ele><time>2026-03-28T13:37:07.998Z</time></trkpt><trkpt lat="44.738708175123435" lon="9.358463529541515"><ele>629.0</ele><time>2026-03-28T13:37:09.998Z</time></trkpt><trkpt lat="44.738614628235275" lon="9.358516858189379"><ele>629.0</ele><time>2026-03-28T13:37:11.998Z</time></trkpt><trkpt lat="44.738589020585366" lon="9.358648586295141"><ele>629.0</ele><time>2026-03-28T13:37:13.998Z</time></trkpt><trkpt lat="44.73852755701371" lon="9.35868885523004"><ele>629.0</ele><time>2026-03-28T13:37:18.997Z</time></trkpt><trkpt lat="44.73846207066718" lon="9.358759396177717"><ele>629.0</ele><time>2026-03-28T13:37:24.997Z</time></trkpt><trkpt lat="44.738424852839906" lon="9.358872528268433"><ele>629.0</ele><time>2026-03-28T13:37:29.001Z</time></trkpt><trkpt lat="44.73839519066506" lon="9.358985888550452"><ele>629.0</ele><time>2026-03-28T13:37:31.001Z</time></trkpt><trkpt lat="44.7383981331837" lon="9.359091167903527"><ele>631.8333333333333</ele><time>2026-03-28T13:37:35.001Z</time></trkpt><trkpt lat="44.73836605147656" lon="9.359171302393914"><ele>634.6666666666666</ele><time>2026-03-28T13:37:38.001Z</time></trkpt><trkpt lat="44.738315859501" lon="9.359231587849504"><ele>637.5</ele><time>2026-03-28T13:37:40.001Z</time></trkpt><trkpt lat="44.73828150276123" lon="9.359322242121372"><ele>640.3333333333334</ele><time>2026-03-28T13:37:42Z</time></trkpt><trkpt lat="44.73826134894519" lon="9.359495317872813"><ele>643.1666666666667</ele><time>2026-03-28T13:37:44Z</time></trkpt><trkpt lat="44.73823942542383" lon="9.35959959974126"><ele>646.0</ele><time>2026-03-28T13:37:45Z</time></trkpt><trkpt lat="44.738228289167544" lon="9.359713748801779"><ele>649.5999999999999</ele><time>2026-03-28T13:37:46Z</time></trkpt><trkpt lat="44.73817292997036" lon="9.359837237870684"><ele>653.2</ele><time>2026-03-28T13:37:48Z</time></trkpt><trkpt lat="44.738099639838815" lon="9.359960781985844"><ele>656.8</ele><time>2026-03-28T13:37:50Z</time></trkpt><trkpt lat="44.73803994080989" lon="9.360039464959057"><ele>660.4000000000001</ele><time>2026-03-28T13:37:52Z</time></trkpt><trkpt lat="44.737985769893754" lon="9.360173495914276"><ele>664.0</ele><time>2026-03-28T13:37:55Z</time></trkpt><trkpt lat="44.73795211561256" lon="9.360268382702563"><ele>664.0</ele><time>2026-03-28T13:37:57Z</time></trkpt><trkpt lat="44.73786966348849" lon="9.360393585478672"><ele>664.0</ele><time>2026-03-28T13:37:59Z</time></trkpt><trkpt lat="44.73780637593967" lon="9.36044144807891"><ele>664.0</ele><time>2026-03-28T13:38:00Z</time></trkpt><trkpt lat="44.73774073338567" lon="9.360530745550147"><ele>664.0</ele><time>2026-03-28T13:38:02Z</time></trkpt><trkpt lat="44.73767072598709" lon="9.360608041510686"><ele>664.0</ele><time>2026-03-28T13:38:04Z</time></trkpt><trkpt lat="44.73762959597804" lon="9.360675706052044"><ele>664.0</ele><time>2026-03-28T13:38:07Z</time></trkpt><trkpt lat="44.737562126366456" lon="9.360732268351912"><ele>666.1666666666667</ele><time>2026-03-28T13:38:09Z</time></trkpt><trkpt lat="44.73747199973294" lon="9.360783559653001"><ele>668.3333333333334</ele><time>2026-03-28T13:38:12Z</time></trkpt><trkpt lat="44.737422123700455" lon="9.360866222675101"><ele>670.5</ele><time>2026-03-28T13:38:15Z</time></trkpt><trkpt lat="44.73737061715982" lon="9.360935005944253"><ele>672.6666666666666</ele><time>2026-03-28T13:38:18Z</time></trkpt><trkpt lat="44.737343901931006" lon="9.361015334139005"><ele>674.8333333333333</ele><time>2026-03-28T13:38:20Z</time></trkpt><trkpt lat="44.73731659861969" lon="9.361173808506233"><ele>677.0</ele><time>2026-03-28T13:38:22Z</time></trkpt><trkpt lat="44.7372913914856" lon="9.36132640808404"><ele>679.8333333333333</ele><time>2026-03-28T13:38:24Z</time></trkpt><trkpt lat="44.73721586266529" lon="9.361366615510045"><ele>682.6666666666666</ele><time>2026-03-28T13:38:26Z</time></trkpt><trkpt lat="44.737166185198596" lon="9.361455698024427"><ele>685.5</ele><time>2026-03-28T13:38:29Z</time></trkpt><trkpt lat="44.73710484413776" lon="9.361554721805534"><ele>688.3333333333334</ele><time>2026-03-28T13:38:31.999Z</time></trkpt><trkpt lat="44.7370622286138" lon="9.361623029314456"><ele>691.1666666666667</ele><time>2026-03-28T13:38:38.999Z</time></trkpt><trkpt lat="44.737015160823134" lon="9.361702687796468"><ele>694.0</ele><time>2026-03-28T13:38:43.999Z</time></trkpt><trkpt lat="44.7369458943003" lon="9.361703561079194"><ele>694.0</ele><time>2026-03-28T13:38:50.999Z</time></trkpt><trkpt lat="44.73688791521941" lon="9.36174665990776"><ele>694.0</ele><time>2026-03-28T13:39:03.999Z</time></trkpt><trkpt lat="44.73682028448697" lon="9.361774094562886"><ele>694.0</ele><time>2026-03-28T13:39:09.999Z</time></trkpt><trkpt lat="44.73675804661987" lon="9.361817897711342"><ele>694.0</ele><time>2026-03-28T13:39:17.999Z</time></trkpt><trkpt lat="44.73670930120295" lon="9.36191519880974"><ele>694.0</ele><time>2026-03-28T13:41:34.998Z</time></trkpt><trkpt lat="44.736678555588725" lon="9.362017995452968"><ele>694.0</ele><time>2026-03-28T13:46:39Z</time></trkpt><trkpt lat="44.73664510991314" lon="9.362115902156864"><ele>694.0</ele><time>2026-03-28T13:46:43Z</time></trkpt><trkpt lat="44.7366145625529" lon="9.362232809455147"><ele>695.6666666666667</ele><time>2026-03-28T13:46:47Z</time></trkpt><trkpt lat="44.73655904885751" lon="9.362345572415654"><ele>697.3333333333334</ele><time>2026-03-28T13:46:50Z</time></trkpt><trkpt lat="44.736512998701755" lon="9.362433552588552"><ele>699.0</ele><time>2026-03-28T13:46:52.999Z</time></trkpt><trkpt lat="44.73645503225226" lon="9.362538736653015"><ele>700.6666666666666</ele><time>2026-03-28T13:47:16.999Z</time></trkpt><trkpt lat="44.73638917574878" lon="9.362573733583382"><ele>702.3333333333333</ele><time>2026-03-28T13:47:20.999Z</time></trkpt><trkpt lat="44.73632236700227" lon="9.362602490559537"><ele>704.0</ele><time>2026-03-28T13:47:27.999Z</time></trkpt><trkpt lat="44.73624395188123" lon="9.362590440053216"><ele>704.0</ele><time>2026-03-28T13:47:33.999Z</time></trkpt><trkpt lat="44.736171006016335" lon="9.362597820399662"><ele>704.0</ele><time>2026-03-28T13:47:37.999Z</time></trkpt><trkpt lat="44.736093409616174" lon="9.362605226388869"><ele>704.0</ele><time>2026-03-28T13:47:41.998Z</time></trkpt><trkpt lat="44.73601691478672" lon="9.362609682002475"><ele>704.0</ele><time>2026-03-28T13:47:45.998Z</time></trkpt><trkpt lat="44.73594257613294" lon="9.362675458491333"><ele>704.0</ele><time>2026-03-28T13:47:49.998Z</time></trkpt><trkpt lat="44.73587022489621" lon="9.36270888489767"><ele>704.0</ele><time>2026-03-28T13:47:55.998Z</time></trkpt><trkpt lat="44.73581136215469" lon="9.36274847626467"><ele>705.3333333333333</ele><time>2026-03-28T13:48:15Z</time></trkpt><trkpt lat="44.735755154831644" lon="9.362809431511842"><ele>706.6666666666666</ele><time>2026-03-28T13:48:35Z</time></trkpt><trkpt lat="44.73571725318366" lon="9.362892781579024"><ele>708.0</ele><time>2026-03-28T13:48:41Z</time></trkpt><trkpt lat="44.73566359641212" lon="9.362973614611269"><ele>709.3333333333334</ele><time>2026-03-28T13:48:52Z</time></trkpt><trkpt lat="44.7356064139734" lon="9.363050304286"><ele>710.6666666666667</ele><time>2026-03-28T13:49:14.999Z</time></trkpt><trkpt lat="44.735541289583196" lon="9.363101331015953"><ele>712.0</ele><time>2026-03-28T13:49:37.999Z</time></trkpt><trkpt lat="44.7354966099989" lon="9.363194464042117"><ele>714.5</ele><time>2026-03-28T13:49:40.999Z</time></trkpt><trkpt lat="44.735452104811856" lon="9.363282074995245"><ele>717.0</ele><time>2026-03-28T13:49:42.999Z</time></trkpt><trkpt lat="44.73540517085758" lon="9.36338125653221"><ele>719.5</ele><time>2026-03-28T13:49:45.999Z</time></trkpt><trkpt lat="44.73534069587181" lon="9.363467438854403"><ele>722.0</ele><time>2026-03-28T13:49:48.998Z</time></trkpt><trkpt lat="44.73528745618145" lon="9.363547021997416"><ele>724.5</ele><time>2026-03-28T13:49:50.998Z</time></trkpt><trkpt lat="44.73522936257215" lon="9.363639029402103"><ele>727.0</ele><time>2026-03-28T13:49:52.998Z</time></trkpt><trkpt lat="44.73518670755839" lon="9.363735066993833"><ele>727.0</ele><time>2026-03-28T13:49:54.998Z</time></trkpt><trkpt lat="44.73516099243479" lon="9.36382167167758"><ele>727.0</ele><time>2026-03-28T13:49:56.998Z</time></trkpt><trkpt lat="44.73512935921957" lon="9.363914932336996"><ele>727.0</ele><time>2026-03-28T13:49:59.998Z</time></trkpt><trkpt lat="44.735073986475406" lon="9.36395936258997"><ele>727.0</ele><time>2026-03-28T13:52:06.998Z</time></trkpt><trkpt lat="44.73499633763375" lon="9.364037779914902"><ele>727.0</ele><time>2026-03-28T13:56:41Z</time></trkpt><trkpt lat="44.734939001520736" lon="9.363940183239793"><ele>727.0</ele><time>2026-03-28T14:12:49.998Z</time></trkpt><trkpt lat="44.734841669400424" lon="9.363865545307386"><ele>727.0</ele><time>2026-03-28T14:12:51.998Z</time></trkpt><trkpt lat="44.73477187100394" lon="9.363834899194275"><ele>727.0</ele><time>2026-03-28T14:12:54.998Z</time></trkpt><trkpt lat="44.73470614490549" lon="9.363838958371712"><ele>727.0</ele><time>2026-03-28T14:12:56.998Z</time></trkpt><trkpt lat="44.734647402315545" lon="9.363883099131545"><ele>727.0</ele><time>2026-03-28T14:12:59.998Z</time></trkpt><trkpt lat="44.73455517679221" lon="9.364018643937262"><ele>727.0</ele><time>2026-03-28T14:13:01.998Z</time></trkpt><trkpt lat="44.73449336994678" lon="9.364086793843626"><ele>727.0</ele><time>2026-03-28T14:13:02.998Z</time></trkpt><trkpt lat="44.73441489486525" lon="9.364168688800653"><ele>729.4000000000001</ele><time>2026-03-28T14:13:03.998Z</time></trkpt><trkpt lat="44.73432166940248" lon="9.364231918606945"><ele>731.8000000000001</ele><time>2026-03-28T14:13:04.998Z</time></trkpt><trkpt lat="44.734240899376225" lon="9.364303725657244"><ele>734.2</ele><time>2026-03-28T14:13:06Z</time></trkpt><trkpt lat="44.734151190696146" lon="9.364397755998354"><ele>736.6</ele><time>2026-03-28T14:13:07Z</time></trkpt><trkpt lat="44.73405622867002" lon="9.364465147015524"><ele>739.0</ele><time>2026-03-28T14:13:08Z</time></trkpt><trkpt lat="44.73397218870609" lon="9.364526403818495"><ele>739.0</ele><time>2026-03-28T14:13:09Z</time></trkpt><trkpt lat="44.73391357143956" lon="9.364575462095656"><ele>739.0</ele><time>2026-03-28T14:13:10Z</time></trkpt><trkpt lat="44.73387168762175" lon="9.364661062441167"><ele>739.0</ele><time>2026-03-28T14:13:13Z</time></trkpt><trkpt lat="44.73384062832818" lon="9.364804575269412"><ele>739.0</ele><time>2026-03-28T14:13:15Z</time></trkpt><trkpt lat="44.73382585635096" lon="9.364905919145759"><ele>739.0</ele><time>2026-03-28T14:13:16Z</time></trkpt><trkpt lat="44.73381066277056" lon="9.365022147889942"><ele>739.0</ele><time>2026-03-28T14:13:17Z</time></trkpt><trkpt lat="44.73379587272795" lon="9.36514792445994"><ele>741.3333333333334</ele><time>2026-03-28T14:13:18Z</time></trkpt><trkpt lat="44.73378267761685" lon="9.365276206369684"><ele>743.6666666666667</ele><time>2026-03-28T14:13:19Z</time></trkpt><trkpt lat="44.73376623368056" lon="9.365373411032259"><ele>746.0</ele><time>2026-03-28T14:13:20Z</time></trkpt><trkpt lat="44.73373992417929" lon="9.36547858921916"><ele>748.3333333333334</ele><time>2026-03-28T14:13:22Z</time></trkpt><trkpt lat="44.73369330104653" lon="9.365538229771664"><ele>750.6666666666666</ele><time>2026-03-28T14:13:25Z</time></trkpt><trkpt lat="44.73357669689843" lon="9.365513754270845"><ele>753.0</ele><time>2026-03-28T14:13:29Z</time></trkpt><trkpt lat="44.73350721353742" lon="9.365491812838918"><ele>754.3333333333334</ele><time>2026-03-28T14:13:30Z</time></trkpt><trkpt lat="44.73341393519888" lon="9.36546918007514"><ele>755.6666666666666</ele><time>2026-03-28T14:13:33Z</time></trkpt><trkpt lat="44.733341512367396" lon="9.365466002315873"><ele>757.0</ele><time>2026-03-28T14:13:36Z</time></trkpt><trkpt lat="44.73327501490816" lon="9.365503873991244"><ele>758.3333333333333</ele><time>2026-03-28T14:13:41Z</time></trkpt><trkpt lat="44.733209704338435" lon="9.365475595016015"><ele>759.6666666666666</ele><time>2026-03-28T14:14:50.999Z</time></trkpt><trkpt lat="44.733148285162095" lon="9.365371309687522"><ele>761.0</ele><time>2026-03-28T14:14:52.998Z</time></trkpt><trkpt lat="44.733028381476096" lon="9.365313153079182"><ele>761.0</ele><time>2026-03-28T14:14:54.998Z</time></trkpt><trkpt lat="44.73297626875849" lon="9.36519856992059"><ele>761.0</ele><time>2026-03-28T14:14:55.998Z</time></trkpt><trkpt lat="44.73291980260579" lon="9.365154818579159"><ele>761.0</ele><time>2026-03-28T14:14:56.998Z</time></trkpt><trkpt lat="44.73283223432917" lon="9.365089756794164"><ele>761.0</ele><time>2026-03-28T14:14:58.998Z</time></trkpt><trkpt lat="44.73272416851948" lon="9.365009669236983"><ele>761.0</ele><time>2026-03-28T14:15:00.998Z</time></trkpt><trkpt lat="44.7326641942686" lon="9.364980600008769"><ele>761.0</ele><time>2026-03-28T14:15:01.998Z</time></trkpt><trkpt lat="44.73258692486153" lon="9.364976954327007"><ele>763.3333333333333</ele><time>2026-03-28T14:15:02.998Z</time></trkpt><trkpt lat="44.73251638707333" lon="9.365020767693565"><ele>765.6666666666666</ele><time>2026-03-28T14:15:03.998Z</time></trkpt><trkpt lat="44.73244718335085" lon="9.365047803851295"><ele>768.0</ele><time>2026-03-28T14:15:04.998Z</time></trkpt><trkpt lat="44.73233249374736" lon="9.365072973528815"><ele>770.3333333333333</ele><time>2026-03-28T14:15:06.998Z</time></trkpt><trkpt lat="44.73226664354941" lon="9.365087209788388"><ele>772.6666666666666</ele><time>2026-03-28T14:15:07.998Z</time></trkpt><trkpt lat="44.7321917162184" lon="9.36510026551374"><ele>775.0</ele><time>2026-03-28T14:15:08.998Z</time></trkpt><trkpt lat="44.73208815011478" lon="9.365116877741116"><ele>775.0</ele><time>2026-03-28T14:15:09.998Z</time></trkpt><trkpt lat="44.73198059735721" lon="9.365132477001195"><ele>775.0</ele><time>2026-03-28T14:15:10.998Z</time></trkpt><trkpt lat="44.73188678132827" lon="9.365140598925423"><ele>775.0</ele><time>2026-03-28T14:15:12Z</time></trkpt><trkpt lat="44.731792112741196" lon="9.365125457964098"><ele>775.0</ele><time>2026-03-28T14:15:14Z</time></trkpt><trkpt lat="44.73171848142925" lon="9.365029521034488"><ele>775.0</ele><time>2026-03-28T14:15:16Z</time></trkpt><trkpt lat="44.73162022514225" lon="9.364957529662115"><ele>777.2</ele><time>2026-03-28T14:15:17Z</time></trkpt><trkpt lat="44.73150347464274" lon="9.364891559787077"><ele>779.4</ele><time>2026-03-28T14:15:18Z</time></trkpt><trkpt lat="44.731408244124154" lon="9.364849207729696"><ele>781.5999999999999</ele><time>2026-03-28T14:15:19Z</time></trkpt><trkpt lat="44.731337465777045" lon="9.364820877892042"><ele>783.8</ele><time>2026-03-28T14:15:20Z</time></trkpt><trkpt lat="44.73125115439028" lon="9.36472748923592"><ele>786.0</ele><time>2026-03-28T14:15:22Z</time></trkpt><trkpt lat="44.73119419672112" lon="9.364663351271707"><ele>786.0</ele><time>2026-03-28T14:15:23Z</time></trkpt><trkpt lat="44.731119115860636" lon="9.364633336973288"><ele>786.0</ele><time>2026-03-28T14:15:24Z</time></trkpt><trkpt lat="44.73105828766761" lon="9.364499933110526"><ele>786.0</ele><time>2026-03-28T14:15:26Z</time></trkpt><trkpt lat="44.73105229953432" lon="9.364359725015802"><ele>786.0</ele><time>2026-03-28T14:15:27Z</time></trkpt><trkpt lat="44.73104130120423" lon="9.36422014699508"><ele>786.0</ele><time>2026-03-28T14:15:28Z</time></trkpt><trkpt lat="44.73100743426692" lon="9.364096242907218"><ele>787.8333333333334</ele><time>2026-03-28T14:15:29Z</time></trkpt><trkpt lat="44.73095486845054" lon="9.363990760147704"><ele>789.6666666666667</ele><time>2026-03-28T14:15:30Z</time></trkpt><trkpt lat="44.73089685406048" lon="9.363887047890247"><ele>791.5</ele><time>2026-03-28T14:15:31Z</time></trkpt><trkpt lat="44.730859626284314" lon="9.363796214322539"><ele>793.3333333333334</ele><time>2026-03-28T14:15:32Z</time></trkpt><trkpt lat="44.73083543023447" lon="9.363695748997806"><ele>795.1666666666667</ele><time>2026-03-28T14:15:33Z</time></trkpt><trkpt lat="44.73080733867989" lon="9.363582927876877"><ele>797.0</ele><time>2026-03-28T14:15:34Z</time></trkpt><trkpt lat="44.73078549541638" lon="9.36346560921305"><ele>797.4000000000001</ele><time>2026-03-28T14:15:35Z</time></trkpt><trkpt lat="44.73078208402852" lon="9.363329740897514"><ele>797.8000000000001</ele><time>2026-03-28T14:15:36Z</time></trkpt><trkpt lat="44.730744504732726" lon="9.363193898546156"><ele>798.2</ele><time>2026-03-28T14:15:37Z</time></trkpt><trkpt lat="44.7307204926322" lon="9.363060793390678"><ele>798.6</ele><time>2026-03-28T14:15:38Z</time></trkpt><trkpt lat="44.73071069124755" lon="9.362942736422953"><ele>799.0</ele><time>2026-03-28T14:15:39Z</time></trkpt><trkpt lat="44.73069071117445" lon="9.362815330949998"><ele>799.0</ele><time>2026-03-28T14:15:40Z</time></trkpt><trkpt lat="44.73066515521093" lon="9.362677731081423"><ele>799.0</ele><time>2026-03-28T14:15:41Z</time></trkpt><trkpt lat="44.73062225743024" lon="9.362539283483644"><ele>799.0</ele><time>2026-03-28T14:15:42Z</time></trkpt><trkpt lat="44.73059349382868" lon="9.362394928493186"><ele>799.0</ele><time>2026-03-28T14:15:43Z</time></trkpt><trkpt lat="44.73056010830296" lon="9.36225112531259"><ele>799.0</ele><time>2026-03-28T14:15:44Z</time></trkpt><trkpt lat="44.73053367040262" lon="9.362102760402799"><ele>799.2</ele><time>2026-03-28T14:15:45Z</time></trkpt><trkpt lat="44.73050750854761" lon="9.361959350526476"><ele>799.4000000000001</ele><time>2026-03-28T14:15:46Z</time></trkpt><trkpt lat="44.730484047023104" lon="9.361820160848474"><ele>799.6</ele><time>2026-03-28T14:15:47Z</time></trkpt><trkpt lat="44.7304616120757" lon="9.361683876152261"><ele>799.8</ele><time>2026-03-28T14:15:48Z</time></trkpt><trkpt lat="44.73044077820403" lon="9.361567943811789"><ele>800.0</ele><time>2026-03-28T14:15:49Z</time></trkpt><trkpt lat="44.73041540378645" lon="9.361455470798267"><ele>802.2</ele><time>2026-03-28T14:15:50Z</time></trkpt><trkpt lat="44.73038676052914" lon="9.361330723801785"><ele>804.4</ele><time>2026-03-28T14:15:51Z</time></trkpt><trkpt lat="44.73036897645894" lon="9.361195297778634"><ele>806.5999999999999</ele><time>2026-03-28T14:15:52Z</time></trkpt><trkpt lat="44.730339778620355" lon="9.361044723086437"><ele>808.8</ele><time>2026-03-28T14:15:53Z</time></trkpt><trkpt lat="44.73030977494818" lon="9.36089623317648"><ele>811.0</ele><time>2026-03-28T14:15:54Z</time></trkpt><trkpt lat="44.73028904963114" lon="9.360762140308237"><ele>811.0</ele><time>2026-03-28T14:15:55Z</time></trkpt><trkpt lat="44.730259495873305" lon="9.360632940785033"><ele>811.0</ele><time>2026-03-28T14:15:56Z</time></trkpt><trkpt lat="44.73022303612261" lon="9.360496981705412"><ele>811.0</ele><time>2026-03-28T14:15:57Z</time></trkpt><trkpt lat="44.73018831698218" lon="9.360342625680904"><ele>811.0</ele><time>2026-03-28T14:15:58Z</time></trkpt><trkpt lat="44.73014800030126" lon="9.36019182630641"><ele>811.0</ele><time>2026-03-28T14:15:59Z</time></trkpt><trkpt lat="44.73012821829628" lon="9.360084608000143"><ele>811.8</ele><time>2026-03-28T14:16:00Z</time></trkpt><trkpt lat="44.73012606027725" lon="9.359980475963258"><ele>812.5999999999999</ele><time>2026-03-28T14:16:02Z</time></trkpt><trkpt lat="44.73015175702612" lon="9.359845818561572"><ele>813.4</ele><time>2026-03-28T14:16:05Z</time></trkpt><trkpt lat="44.73017286745698" lon="9.3597102952472"><ele>814.2</ele><time>2026-03-28T14:16:07Z</time></trkpt><trkpt lat="44.730170934362576" lon="9.359599085239047"><ele>815.0</ele><time>2026-03-28T14:16:07.999Z</time></trkpt><trkpt lat="44.73015119518934" lon="9.35943759364083"><ele>815.0</ele><time>2026-03-28T14:16:08.999Z</time></trkpt><trkpt lat="44.73013325881122" lon="9.359277657590921"><ele>815.0</ele><time>2026-03-28T14:16:09.999Z</time></trkpt><trkpt lat="44.730123342033764" lon="9.359148215920055"><ele>815.0</ele><time>2026-03-28T14:16:10.999Z</time></trkpt><trkpt lat="44.730087008447995" lon="9.359047692798304"><ele>815.0</ele><time>2026-03-28T14:16:11.999Z</time></trkpt><trkpt lat="44.73007372966402" lon="9.358905578726187"><ele>815.0</ele><time>2026-03-28T14:16:12.999Z</time></trkpt><trkpt lat="44.73004351839179" lon="9.358765820290266"><ele>814.6666666666667</ele><time>2026-03-28T14:16:13.999Z</time></trkpt><trkpt lat="44.73001086150413" lon="9.358667342243221"><ele>814.3333333333334</ele><time>2026-03-28T14:16:14.999Z</time></trkpt><trkpt lat="44.729981927642456" lon="9.358574078857481"><ele>814.0</ele><time>2026-03-28T14:16:15.999Z</time></trkpt><trkpt lat="44.72992907682481" lon="9.358487834597074"><ele>813.6666666666667</ele><time>2026-03-28T14:16:16.999Z</time></trkpt><trkpt lat="44.729886940284196" lon="9.358387145430333"><ele>813.3333333333334</ele><time>2026-03-28T14:16:17.999Z</time></trkpt><trkpt lat="44.7298279068376" lon="9.358288058260179"><ele>813.0</ele><time>2026-03-28T14:16:18.999Z</time></trkpt><trkpt lat="44.72975217901823" lon="9.358183632648933"><ele>813.0</ele><time>2026-03-28T14:16:19.999Z</time></trkpt><trkpt lat="44.7296672657461" lon="9.358072696615986"><ele>813.0</ele><time>2026-03-28T14:16:20.999Z</time></trkpt><trkpt lat="44.729603540829686" lon="9.35798862983027"><ele>813.0</ele><time>2026-03-28T14:16:21.999Z</time></trkpt><trkpt lat="44.7295510153321" lon="9.35792535170359"><ele>813.0</ele><time>2026-03-28T14:16:22.999Z</time></trkpt><trkpt lat="44.72950086299756" lon="9.35786448871221"><ele>813.0</ele><time>2026-03-28T14:16:23.999Z</time></trkpt><trkpt lat="44.72942286911067" lon="9.357772520528881"><ele>813.0</ele><time>2026-03-28T14:16:25.999Z</time></trkpt><trkpt lat="44.729406817922985" lon="9.357576448377886"><ele>813.6666666666666</ele><time>2026-03-28T14:16:27.999Z</time></trkpt><trkpt lat="44.72941291860484" lon="9.357445934066178"><ele>814.3333333333333</ele><time>2026-03-28T14:16:28.999Z</time></trkpt><trkpt lat="44.72944536273826" lon="9.35733273651121"><ele>815.0</ele><time>2026-03-28T14:16:29.999Z</time></trkpt><trkpt lat="44.72946640636169" lon="9.357220597737307"><ele>815.6666666666666</ele><time>2026-03-28T14:16:30.999Z</time></trkpt><trkpt lat="44.72949097273618" lon="9.357116002593878"><ele>816.3333333333333</ele><time>2026-03-28T14:16:31.999Z</time></trkpt><trkpt lat="44.72949708945939" lon="9.35700795317647"><ele>817.0</ele><time>2026-03-28T14:16:32.999Z</time></trkpt><trkpt lat="44.72948828591199" lon="9.356894155846437"><ele>819.8333333333333</ele><time>2026-03-28T14:16:33.999Z</time></trkpt><trkpt lat="44.72945886221906" lon="9.35676839718868"><ele>822.6666666666666</ele><time>2026-03-28T14:16:34.999Z</time></trkpt><trkpt lat="44.72943702124333" lon="9.356636185366748"><ele>825.5</ele><time>2026-03-28T14:16:35.999Z</time></trkpt><trkpt lat="44.729428038592765" lon="9.356498406534001"><ele>828.3333333333333</ele><time>2026-03-28T14:16:36.999Z</time></trkpt><trkpt lat="44.729420311840734" lon="9.356377949256713"><ele>831.1666666666666</ele><time>2026-03-28T14:16:37.999Z</time></trkpt><trkpt lat="44.729424026972055" lon="9.356274593828287"><ele>834.0</ele><time>2026-03-28T14:16:38.999Z</time></trkpt><trkpt lat="44.729416788034364" lon="9.356180177748891"><ele>835.4000000000001</ele><time>2026-03-28T14:16:39.999Z</time></trkpt><trkpt lat="44.729404913490804" lon="9.356039562702527"><ele>836.8</ele><time>2026-03-28T14:16:41.999Z</time></trkpt><trkpt lat="44.729392982203265" lon="9.355935262378482"><ele>838.2</ele><time>2026-03-28T14:16:42.999Z</time></trkpt><trkpt lat="44.729382622381316" lon="9.35579069871316"><ele>839.5999999999999</ele><time>2026-03-28T14:16:43.999Z</time></trkpt><trkpt lat="44.72937352496273" lon="9.35568829609322"><ele>841.0</ele><time>2026-03-28T14:16:44.999Z</time></trkpt><trkpt lat="44.72934745667282" lon="9.355533178539204"><ele>844.4999999999999</ele><time>2026-03-28T14:16:46.999Z</time></trkpt><trkpt lat="44.72930678241425" lon="9.355443535244094"><ele>848.0</ele><time>2026-03-28T14:16:47.999Z</time></trkpt><trkpt lat="44.729256639761935" lon="9.355347061686906"><ele>851.5</ele><time>2026-03-28T14:16:48.999Z</time></trkpt><trkpt lat="44.72917503849786" lon="9.355285152753774"><ele>855.0</ele><time>2026-03-28T14:16:49.999Z</time></trkpt><trkpt lat="44.729118332877725" lon="9.35519555663824"><ele>858.4999999999999</ele><time>2026-03-28T14:16:50.999Z</time></trkpt><trkpt lat="44.72904218443056" lon="9.355137375075739"><ele>862.0</ele><time>2026-03-28T14:16:51.999Z</time></trkpt><trkpt lat="44.728979439350255" lon="9.355079047078478"><ele>862.0</ele><time>2026-03-28T14:16:52.999Z</time></trkpt><trkpt lat="44.728943026995964" lon="9.355002517834894"><ele>862.0</ele><time>2026-03-28T14:16:53.999Z</time></trkpt><trkpt lat="44.72889217556747" lon="9.354923241557902"><ele>862.0</ele><time>2026-03-28T14:16:54.999Z</time></trkpt><trkpt lat="44.728848591955156" lon="9.354839313747558"><ele>862.0</ele><time>2026-03-28T14:16:55.999Z</time></trkpt><trkpt lat="44.728810451432494" lon="9.354748104787792"><ele>862.0</ele><time>2026-03-28T14:16:56.999Z</time></trkpt><trkpt lat="44.72877637773375" lon="9.354655467709955"><ele>862.0</ele><time>2026-03-28T14:16:57.998Z</time></trkpt><trkpt lat="44.7287499714932" lon="9.354568560079748"><ele>862.0</ele><time>2026-03-28T14:16:58.998Z</time></trkpt><trkpt lat="44.728725601574965" lon="9.354472456257847"><ele>864.9999999999999</ele><time>2026-03-28T14:16:59.998Z</time></trkpt><trkpt lat="44.728705916670016" lon="9.354384451081373"><ele>868.0</ele><time>2026-03-28T14:17:00.998Z</time></trkpt><trkpt lat="44.72875107104719" lon="9.354268741347754"><ele>871.0</ele><time>2026-03-28T14:17:01.998Z</time></trkpt><trkpt lat="44.72869759638196" lon="9.354188110621513"><ele>874.0</ele><time>2026-03-28T14:17:02.998Z</time></trkpt><trkpt lat="44.72867298980831" lon="9.354035227860596"><ele>876.9999999999999</ele><time>2026-03-28T14:17:03.998Z</time></trkpt><trkpt lat="44.728640322790156" lon="9.353951859392671"><ele>880.0</ele><time>2026-03-28T14:17:04.998Z</time></trkpt><trkpt lat="44.72859403674567" lon="9.35378808104467"><ele>880.9999999999999</ele><time>2026-03-28T14:17:06.998Z</time></trkpt><trkpt lat="44.72857031994735" lon="9.353686433212298"><ele>882.0</ele><time>2026-03-28T14:17:07.998Z</time></trkpt><trkpt lat="44.72856099251767" lon="9.353567899530303"><ele>883.0</ele><time>2026-03-28T14:17:08.998Z</time></trkpt><trkpt lat="44.728541933009446" lon="9.353449715590838"><ele>884.0</ele><time>2026-03-28T14:17:09.998Z</time></trkpt><trkpt lat="44.728521494296864" lon="9.35335241439843"><ele>884.9999999999999</ele><time>2026-03-28T14:17:10.998Z</time></trkpt><trkpt lat="44.728512865223536" lon="9.353260028867162"><ele>886.0</ele><time>2026-03-28T14:17:11.998Z</time></trkpt><trkpt lat="44.72854052567919" lon="9.353108487775067"><ele>882.9999999999999</ele><time>2026-03-28T14:17:13.998Z</time></trkpt><trkpt lat="44.728554351555466" lon="9.353008600070194"><ele>880.0</ele><time>2026-03-28T14:17:14.998Z</time></trkpt><trkpt lat="44.72855614351833" lon="9.352904630836973"><ele>877.0</ele><time>2026-03-28T14:17:15.998Z</time></trkpt><trkpt lat="44.72854396433196" lon="9.352799787403534"><ele>874.0</ele><time>2026-03-28T14:17:17Z</time></trkpt><trkpt lat="44.72852324050018" lon="9.352699497133672"><ele>870.9999999999999</ele><time>2026-03-28T14:17:18Z</time></trkpt><trkpt lat="44.728453767278005" lon="9.352617799625186"><ele>868.0</ele><time>2026-03-28T14:17:19Z</time></trkpt><trkpt lat="44.72841808444282" lon="9.352523339879632"><ele>867.9999999999999</ele><time>2026-03-28T14:17:20Z</time></trkpt><trkpt lat="44.72837441032176" lon="9.35241993032033"><ele>868.0</ele><time>2026-03-28T14:17:21Z</time></trkpt><trkpt lat="44.72832425546493" lon="9.35232681141525"><ele>868.0</ele><time>2026-03-28T14:17:22Z</time></trkpt><trkpt lat="44.72827452649769" lon="9.352243908258462"><ele>868.0</ele><time>2026-03-28T14:17:23Z</time></trkpt><trkpt lat="44.7282242929417" lon="9.352161838642779"><ele>867.9999999999999</ele><time>2026-03-28T14:17:24Z</time></trkpt><trkpt lat="44.72822593455571" lon="9.352062392119254"><ele>868.0</ele><time>2026-03-28T14:17:26Z</time></trkpt><trkpt lat="44.728320152151966" lon="9.352028369423437"><ele>869.8333333333333</ele><time>2026-03-28T14:17:50Z</time></trkpt><trkpt lat="44.728391624699874" lon="9.352019855649667"><ele>871.6666666666666</ele><time>2026-03-28T14:17:52Z</time></trkpt><trkpt lat="44.72844659465501" lon="9.35194721760016"><ele>873.5</ele><time>2026-03-28T14:17:54Z</time></trkpt><trkpt lat="44.728498362632855" lon="9.351863145441891"><ele>875.3333333333333</ele><time>2026-03-28T14:17:55Z</time></trkpt><trkpt lat="44.728556987935036" lon="9.351804896064412"><ele>877.1666666666666</ele><time>2026-03-28T14:17:56Z</time></trkpt><trkpt lat="44.728653935739985" lon="9.351785991135282"><ele>879.0</ele><time>2026-03-28T14:17:58Z</time></trkpt><trkpt lat="44.72871591227876" lon="9.3517642645137"><ele>882.6</ele><time>2026-03-28T14:17:59Z</time></trkpt><trkpt lat="44.728824814178864" lon="9.351646404700018"><ele>886.2</ele><time>2026-03-28T14:18:01Z</time></trkpt><trkpt lat="44.728897664569615" lon="9.351593874960274"><ele>889.8000000000001</ele><time>2026-03-28T14:18:02Z</time></trkpt><trkpt lat="44.728983018264785" lon="9.351533013409563"><ele>893.4000000000001</ele><time>2026-03-28T14:18:03Z</time></trkpt><trkpt lat="44.72906469091275" lon="9.351475565988736"><ele>897.0</ele><time>2026-03-28T14:18:04Z</time></trkpt><trkpt lat="44.729177978477956" lon="9.351396100848865"><ele>899.2</ele><time>2026-03-28T14:18:06Z</time></trkpt><trkpt lat="44.72924987852899" lon="9.351346183858503"><ele>901.4000000000001</ele><time>2026-03-28T14:18:07Z</time></trkpt><trkpt lat="44.729314883729614" lon="9.351301053704889"><ele>903.5999999999999</ele><time>2026-03-28T14:18:08Z</time></trkpt><trkpt lat="44.72939577299546" lon="9.35123938231543"><ele>905.8</ele><time>2026-03-28T14:18:10Z</time></trkpt><trkpt lat="44.72934532117591" lon="9.351018486289586"><ele>908.0</ele><time>2026-03-28T14:18:11.999Z</time></trkpt><trkpt lat="44.72937693016607" lon="9.350921894277933"><ele>910.0</ele><time>2026-03-28T14:18:13.999Z</time></trkpt><trkpt lat="44.729480100022286" lon="9.350829912247377"><ele>912.0</ele><time>2026-03-28T14:18:15.999Z</time></trkpt><trkpt lat="44.72954993631568" lon="9.350696009734268"><ele>914.0</ele><time>2026-03-28T14:18:16.999Z</time></trkpt><trkpt lat="44.729604897912104" lon="9.350600248972809"><ele>916.0</ele><time>2026-03-28T14:18:18.999Z</time></trkpt><trkpt lat="44.729668621267685" lon="9.350563819381358"><ele>918.0</ele><time>2026-03-28T14:18:19.999Z</time></trkpt><trkpt lat="44.72976445816558" lon="9.35048710016758"><ele>920.0</ele><time>2026-03-28T14:18:20.999Z</time></trkpt><trkpt lat="44.729834527405735" lon="9.350419573220409"><ele>922.0</ele><time>2026-03-28T14:18:21.999Z</time></trkpt><trkpt lat="44.72989793321175" lon="9.35039398149607"><ele>924.0</ele><time>2026-03-28T14:18:22.999Z</time></trkpt><trkpt lat="44.72997613829373" lon="9.350370617574177"><ele>926.0</ele><time>2026-03-28T14:18:23.999Z</time></trkpt><trkpt lat="44.730059376184485" lon="9.350347824829978"><ele>928.0</ele><time>2026-03-28T14:18:24.999Z</time></trkpt><trkpt lat="44.73014656343517" lon="9.350291644765088"><ele>930.0</ele><time>2026-03-28T14:18:25.999Z</time></trkpt><trkpt lat="44.73024031275168" lon="9.350267048797395"><ele>931.5</ele><time>2026-03-28T14:18:26.999Z</time></trkpt><trkpt lat="44.730322438471134" lon="9.350273290239707"><ele>933.0</ele><time>2026-03-28T14:18:27.999Z</time></trkpt><trkpt lat="44.73040334713647" lon="9.350289944818464"><ele>934.5</ele><time>2026-03-28T14:18:28.999Z</time></trkpt><trkpt lat="44.730487506124305" lon="9.350315133258174"><ele>936.0</ele><time>2026-03-28T14:18:29.999Z</time></trkpt><trkpt lat="44.73056835817673" lon="9.350318396101146"><ele>937.5</ele><time>2026-03-28T14:18:30.999Z</time></trkpt><trkpt lat="44.73063330219926" lon="9.350336905656636"><ele>939.0</ele><time>2026-03-28T14:18:31.999Z</time></trkpt><trkpt lat="44.73070277910314" lon="9.350339422711297"><ele>939.0</ele><time>2026-03-28T14:18:32.999Z</time></trkpt><trkpt lat="44.730786337440406" lon="9.3502961878529"><ele>939.0</ele><time>2026-03-28T14:18:33.999Z</time></trkpt><trkpt lat="44.730850749526255" lon="9.350233081242989"><ele>939.0</ele><time>2026-03-28T14:18:34.999Z</time></trkpt><trkpt lat="44.7309294094017" lon="9.35017384454234"><ele>939.0</ele><time>2026-03-28T14:18:35.999Z</time></trkpt><trkpt lat="44.73101240026774" lon="9.350111451631683"><ele>939.0</ele><time>2026-03-28T14:18:36.999Z</time></trkpt><trkpt lat="44.73108676885164" lon="9.350051500329698"><ele>939.0</ele><time>2026-03-28T14:18:37.999Z</time></trkpt><trkpt lat="44.73115820846888" lon="9.349985378540152"><ele>939.1666666666666</ele><time>2026-03-28T14:18:38.999Z</time></trkpt><trkpt lat="44.73122848590863" lon="9.349909701438028"><ele>939.3333333333333</ele><time>2026-03-28T14:18:39.999Z</time></trkpt><trkpt lat="44.73129268168674" lon="9.349832515397829"><ele>939.5</ele><time>2026-03-28T14:18:40.999Z</time></trkpt><trkpt lat="44.73134846039547" lon="9.349739777006224"><ele>939.6666666666666</ele><time>2026-03-28T14:18:41.999Z</time></trkpt><trkpt lat="44.73140118487429" lon="9.349659334421206"><ele>939.8333333333333</ele><time>2026-03-28T14:18:42.999Z</time></trkpt><trkpt lat="44.73145599581361" lon="9.349567366950705"><ele>940.0</ele><time>2026-03-28T14:18:43.999Z</time></trkpt><trkpt lat="44.731492006128065" lon="9.349477041563224"><ele>940.0</ele><time>2026-03-28T14:18:44.999Z</time></trkpt><trkpt lat="44.73154422911272" lon="9.349399405804407"><ele>940.0</ele><time>2026-03-28T14:18:45.999Z</time></trkpt><trkpt lat="44.73160343021764" lon="9.34927426442656"><ele>940.0</ele><time>2026-03-28T14:18:47.999Z</time></trkpt><trkpt lat="44.73166966422084" lon="9.349130394771256"><ele>940.0</ele><time>2026-03-28T14:18:49.999Z</time></trkpt><trkpt lat="44.731707718183166" lon="9.349028029832919"><ele>940.0</ele><time>2026-03-28T14:18:50.999Z</time></trkpt><trkpt lat="44.7317502452563" lon="9.348905244745836"><ele>939.8</ele><time>2026-03-28T14:18:51.999Z</time></trkpt><trkpt lat="44.731797453731765" lon="9.348763511869038"><ele>939.6</ele><time>2026-03-28T14:18:52.999Z</time></trkpt><trkpt lat="44.731835317676925" lon="9.348650089924167"><ele>939.4000000000001</ele><time>2026-03-28T14:18:53.999Z</time></trkpt><trkpt lat="44.73189072216896" lon="9.348498451373285"><ele>939.2</ele><time>2026-03-28T14:18:55.999Z</time></trkpt><trkpt lat="44.731947998829895" lon="9.348390030923248"><ele>939.0</ele><time>2026-03-28T14:18:57.999Z</time></trkpt><trkpt lat="44.73205156063892" lon="9.348287139105604"><ele>939.0</ele><time>2026-03-28T14:18:59.999Z</time></trkpt><trkpt lat="44.73212613551076" lon="9.34821523292397"><ele>939.0</ele><time>2026-03-28T14:19:00.999Z</time></trkpt><trkpt lat="44.73218863303224" lon="9.348141201500319"><ele>939.0</ele><time>2026-03-28T14:19:01.999Z</time></trkpt><trkpt lat="44.7322501970398" lon="9.348085203937478"><ele>939.0</ele><time>2026-03-28T14:19:02.998Z</time></trkpt><trkpt lat="44.732301870468916" lon="9.34800998059353"><ele>939.0</ele><time>2026-03-28T14:19:03.998Z</time></trkpt><trkpt lat="44.732349005414605" lon="9.347931027999092"><ele>939.0</ele><time>2026-03-28T14:19:04.998Z</time></trkpt><trkpt lat="44.732381991823836" lon="9.34785023550341"><ele>941.3333333333334</ele><time>2026-03-28T14:19:05.998Z</time></trkpt><trkpt lat="44.73238408106601" lon="9.347747249708668"><ele>943.6666666666667</ele><time>2026-03-28T14:19:06.998Z</time></trkpt><trkpt lat="44.73242684050693" lon="9.347677334130465"><ele>946.0</ele><time>2026-03-28T14:19:07.998Z</time></trkpt><trkpt lat="44.73241557005955" lon="9.3475891478117"><ele>948.3333333333334</ele><time>2026-03-28T14:19:08.998Z</time></trkpt><trkpt lat="44.73239288721083" lon="9.347474930654064"><ele>950.6666666666667</ele><time>2026-03-28T14:19:09.998Z</time></trkpt><trkpt lat="44.732381118114034" lon="9.347359056696781"><ele>953.0</ele><time>2026-03-28T14:19:10.998Z</time></trkpt><trkpt lat="44.73237207982909" lon="9.347230608464603"><ele>955.0000000000001</ele><time>2026-03-28T14:19:11.998Z</time></trkpt><trkpt lat="44.73236716473227" lon="9.34711221435472"><ele>957.0</ele><time>2026-03-28T14:19:12.998Z</time></trkpt><trkpt lat="44.7323635357322" lon="9.347004848261312"><ele>959.0</ele><time>2026-03-28T14:19:13.998Z</time></trkpt><trkpt lat="44.73235610010128" lon="9.346890051795025"><ele>961.0</ele><time>2026-03-28T14:19:14.998Z</time></trkpt><trkpt lat="44.732368662864445" lon="9.34675285252093"><ele>963.0000000000001</ele><time>2026-03-28T14:19:15.998Z</time></trkpt><trkpt lat="44.732370455456376" lon="9.346602380564596"><ele>965.0</ele><time>2026-03-28T14:19:16.998Z</time></trkpt><trkpt lat="44.73238305362037" lon="9.346444425602897"><ele>967.3333333333334</ele><time>2026-03-28T14:19:17.998Z</time></trkpt><trkpt lat="44.73239008034258" lon="9.346301323851856"><ele>969.6666666666667</ele><time>2026-03-28T14:19:18.998Z</time></trkpt><trkpt lat="44.73236416485577" lon="9.346183634438496"><ele>972.0</ele><time>2026-03-28T14:19:19.998Z</time></trkpt><trkpt lat="44.732363204521384" lon="9.346090564538121"><ele>974.3333333333333</ele><time>2026-03-28T14:19:20.998Z</time></trkpt><trkpt lat="44.73237628507902" lon="9.345997851292188"><ele>976.6666666666666</ele><time>2026-03-28T14:19:21.998Z</time></trkpt><trkpt lat="44.73240790125933" lon="9.345907536232021"><ele>979.0</ele><time>2026-03-28T14:19:23Z</time></trkpt><trkpt lat="44.73247038012004" lon="9.34579183447615"><ele>979.0</ele><time>2026-03-28T14:19:24Z</time></trkpt><trkpt lat="44.73250538087208" lon="9.345676471969398"><ele>979.0000000000001</ele><time>2026-03-28T14:19:25Z</time></trkpt><trkpt lat="44.73251988122537" lon="9.345564709738696"><ele>979.0000000000001</ele><time>2026-03-28T14:19:26Z</time></trkpt><trkpt lat="44.73251688927849" lon="9.345458955253442"><ele>979.0</ele><time>2026-03-28T14:19:27Z</time></trkpt><trkpt lat="44.732382905899875" lon="9.34537378602235"><ele>979.0</ele><time>2026-03-28T14:19:28Z</time></trkpt><trkpt lat="44.732381597885556" lon="9.345251932296446"><ele>978.9999999999999</ele><time>2026-03-28T14:19:30Z</time></trkpt><trkpt lat="44.73240455032529" lon="9.3453371239583"><ele>979.0</ele><time>2026-03-28T14:21:52Z</time></trkpt><trkpt lat="44.73238345132932" lon="9.345459241558261"><ele>979.0</ele><time>2026-03-28T14:21:54Z</time></trkpt><trkpt lat="44.73229969440115" lon="9.345534114018289"><ele>979.0</ele><time>2026-03-28T14:21:56Z</time></trkpt><trkpt lat="44.73221395423501" lon="9.345639773954348"><ele>978.9999999999999</ele><time>2026-03-28T14:21:58Z</time></trkpt><trkpt lat="44.73216335880871" lon="9.345708778678675"><ele>979.0</ele><time>2026-03-28T14:21:59Z</time></trkpt><trkpt lat="44.73210730583671" lon="9.34577979792238"><ele>978.9999999999999</ele><time>2026-03-28T14:22:00Z</time></trkpt><trkpt lat="44.73204478850609" lon="9.345840657853726"><ele>979.0</ele><time>2026-03-28T14:22:01Z</time></trkpt><trkpt lat="44.731965617490935" lon="9.345891439015126"><ele>979.0</ele><time>2026-03-28T14:22:03Z</time></trkpt><trkpt lat="44.73185439384052" lon="9.345919502347861"><ele>979.0</ele><time>2026-03-28T14:22:05Z</time></trkpt><trkpt lat="44.731782906106965" lon="9.345941057902579"><ele>978.9999999999999</ele><time>2026-03-28T14:22:07Z</time></trkpt><trkpt lat="44.73172076781014" lon="9.345963527338762"><ele>979.0</ele><time>2026-03-28T14:22:08Z</time></trkpt><trkpt lat="44.73159363660659" lon="9.346001976610943"><ele>982.9999999999999</ele><time>2026-03-28T14:22:10Z</time></trkpt><trkpt lat="44.731520496918655" lon="9.346056782662446"><ele>987.0</ele><time>2026-03-28T14:22:11Z</time></trkpt><trkpt lat="44.73145137631122" lon="9.346112203601546"><ele>991.0</ele><time>2026-03-28T14:22:12Z</time></trkpt><trkpt lat="44.73139871902192" lon="9.346178200699097"><ele>995.0</ele><time>2026-03-28T14:22:13Z</time></trkpt><trkpt lat="44.73133239246632" lon="9.346246806926683"><ele>998.9999999999999</ele><time>2026-03-28T14:22:14Z</time></trkpt><trkpt lat="44.73127099058052" lon="9.346305128402285"><ele>1003.0</ele><time>2026-03-28T14:22:15Z</time></trkpt><trkpt lat="44.73118669604585" lon="9.346357489020413"><ele>1003.4999999999999</ele><time>2026-03-28T14:22:16Z</time></trkpt><trkpt lat="44.73111137151966" lon="9.34639857453019"><ele>1004.0</ele><time>2026-03-28T14:22:17Z</time></trkpt><trkpt lat="44.73103268929693" lon="9.346375988321123"><ele>1004.5</ele><time>2026-03-28T14:22:20Z</time></trkpt><trkpt lat="44.73097442230793" lon="9.34628178605962"><ele>1005.0</ele><time>2026-03-28T14:22:21.999Z</time></trkpt><trkpt lat="44.73091194163059" lon="9.346171063355762"><ele>1005.4999999999999</ele><time>2026-03-28T14:22:23.999Z</time></trkpt><trkpt lat="44.730884985219184" lon="9.346064696348316"><ele>1006.0</ele><time>2026-03-28T14:22:24.999Z</time></trkpt><trkpt lat="44.730873380677004" lon="9.345921972010665"><ele>1008.1999999999999</ele><time>2026-03-28T14:22:25.999Z</time></trkpt><trkpt lat="44.7308633521735" lon="9.345804077506116"><ele>1010.3999999999999</ele><time>2026-03-28T14:22:26.999Z</time></trkpt><trkpt lat="44.730832497015314" lon="9.345693538622895"><ele>1012.6</ele><time>2026-03-28T14:22:27.999Z</time></trkpt><trkpt lat="44.73081654650994" lon="9.345593383666747"><ele>1014.8</ele><time>2026-03-28T14:22:28.999Z</time></trkpt><trkpt lat="44.73077569433156" lon="9.345455651471015"><ele>1017.0</ele><time>2026-03-28T14:22:30.999Z</time></trkpt><trkpt lat="44.730720795110344" lon="9.345320783210731"><ele>1017.1428571428571</ele><time>2026-03-28T14:22:32.999Z</time></trkpt><trkpt lat="44.730668188696555" lon="9.345266414041973"><ele>1017.2857142857142</ele><time>2026-03-28T14:22:34.999Z</time></trkpt><trkpt lat="44.73061952324652" lon="9.345208640795505"><ele>1017.4285714285713</ele><time>2026-03-28T14:22:36.999Z</time></trkpt><trkpt lat="44.730585837484995" lon="9.345123581252539"><ele>1017.5714285714284</ele><time>2026-03-28T14:22:39.999Z</time></trkpt><trkpt lat="44.73052625610082" lon="9.345075770623112"><ele>1017.7142857142857</ele><time>2026-03-28T14:22:41.999Z</time></trkpt><trkpt lat="44.73047860579264" lon="9.345015806661124"><ele>1017.8571428571427</ele><time>2026-03-28T14:22:44.999Z</time></trkpt><trkpt lat="44.730421894168636" lon="9.344931434981483"><ele>1017.9999999999999</ele><time>2026-03-28T14:22:48.999Z</time></trkpt><trkpt lat="44.73037420035968" lon="9.344867364870977"><ele>1017.9999999999999</ele><time>2026-03-28T14:22:50.999Z</time></trkpt><trkpt lat="44.73035995166171" lon="9.344757897180331"><ele>1018.0</ele><time>2026-03-28T14:22:52.999Z</time></trkpt><trkpt lat="44.730337484073964" lon="9.344642579489042"><ele>1018.0</ele><time>2026-03-28T14:22:55.999Z</time></trkpt><trkpt lat="44.73032602479782" lon="9.34454222559469"><ele>1018.0</ele><time>2026-03-28T14:22:57.999Z</time></trkpt><trkpt lat="44.73030330237457" lon="9.344450207519817"><ele>1017.9999999999999</ele><time>2026-03-28T14:22:58.999Z</time></trkpt><trkpt lat="44.73026505298608" lon="9.344363894501116"><ele>1018.0</ele><time>2026-03-28T14:22:59.999Z</time></trkpt><trkpt lat="44.73020555298141" lon="9.344261755806041"><ele>1017.6666666666666</ele><time>2026-03-28T14:23:01.999Z</time></trkpt><trkpt lat="44.7301916892675" lon="9.344123283617035"><ele>1017.3333333333333</ele><time>2026-03-28T14:23:03.999Z</time></trkpt><trkpt lat="44.73006995273843" lon="9.344068649092808"><ele>1017.0</ele><time>2026-03-28T14:23:06.999Z</time></trkpt><trkpt lat="44.73001549732601" lon="9.344015808144947"><ele>1016.6666666666667</ele><time>2026-03-28T14:23:07.999Z</time></trkpt><trkpt lat="44.72998385090123" lon="9.343932850101828"><ele>1016.3333333333334</ele><time>2026-03-28T14:23:09.999Z</time></trkpt><trkpt lat="44.7299289497195" lon="9.343881335676393"><ele>1016.0</ele><time>2026-03-28T14:23:19.998Z</time></trkpt><trkpt lat="44.72984244376073" lon="9.34382494163297"><ele>1017.6666666666667</ele><time>2026-03-28T14:23:21.998Z</time></trkpt><trkpt lat="44.72975214852749" lon="9.3438059922843"><ele>1019.3333333333334</ele><time>2026-03-28T14:23:24.998Z</time></trkpt><trkpt lat="44.72966391787612" lon="9.34372078834191"><ele>1021.0</ele><time>2026-03-28T14:23:26.998Z</time></trkpt><trkpt lat="44.729587593730656" lon="9.343711253628122"><ele>1022.6666666666667</ele><time>2026-03-28T14:23:27.998Z</time></trkpt><trkpt lat="44.72951786928637" lon="9.343709844695228"><ele>1024.3333333333333</ele><time>2026-03-28T14:23:28.998Z</time></trkpt><trkpt lat="44.72944580500142" lon="9.343715427606622"><ele>1026.0</ele><time>2026-03-28T14:23:29.998Z</time></trkpt><trkpt lat="44.729375523424366" lon="9.343727721132604"><ele>1026.0</ele><time>2026-03-28T14:23:30.998Z</time></trkpt><trkpt lat="44.72936824707728" lon="9.343592975044826"><ele>1026.0</ele><time>2026-03-28T14:23:53Z</time></trkpt><trkpt lat="44.72944914477569" lon="9.343436169208939"><ele>1026.0</ele><time>2026-03-28T14:23:55Z</time></trkpt><trkpt lat="44.72950178918814" lon="9.34335405534902"><ele>1026.0</ele><time>2026-03-28T14:23:56Z</time></trkpt><trkpt lat="44.72955429395226" lon="9.343290482528527"><ele>1026.0</ele><time>2026-03-28T14:23:57Z</time></trkpt><trkpt lat="44.729618564854114" lon="9.34318201468945"><ele>1026.0</ele><time>2026-03-28T14:23:59Z</time></trkpt><trkpt lat="44.72963715640154" lon="9.343071203635349"><ele>1026.0</ele><time>2026-03-28T14:24:02Z</time></trkpt><trkpt lat="44.72958548162128" lon="9.342986957334043"><ele>1026.0</ele><time>2026-03-28T14:24:22Z</time></trkpt><trkpt lat="44.72949771581997" lon="9.342954310609187"><ele>1026.0</ele><time>2026-03-28T14:24:24Z</time></trkpt><trkpt lat="44.72940110752696" lon="9.342936793412097"><ele>1026.0</ele><time>2026-03-28T14:24:26Z</time></trkpt><trkpt lat="44.729341994573545" lon="9.342894288002935"><ele>1026.0</ele><time>2026-03-28T14:24:27.999Z</time></trkpt><trkpt lat="44.72929989076465" lon="9.342769293089013"><ele>1030.1666666666667</ele><time>2026-03-28T14:24:29.999Z</time></trkpt><trkpt lat="44.72923974555746" lon="9.342692175137609"><ele>1034.3333333333333</ele><time>2026-03-28T14:24:31.999Z</time></trkpt><trkpt lat="44.72919134975508" lon="9.342624219032365"><ele>1038.5</ele><time>2026-03-28T14:24:33.999Z</time></trkpt><trkpt lat="44.72911855149048" lon="9.342526816035368"><ele>1042.6666666666665</ele><time>2026-03-28T14:24:35.999Z</time></trkpt><trkpt lat="44.72906753665008" lon="9.342439672394875"><ele>1046.8333333333333</ele><time>2026-03-28T14:24:37.999Z</time></trkpt><trkpt lat="44.729025480280306" lon="9.342369626920128"><ele>1051.0</ele><time>2026-03-28T14:24:39.999Z</time></trkpt><trkpt lat="44.72898354502536" lon="9.342266310186806"><ele>1050.3333333333333</ele><time>2026-03-28T14:24:42.999Z</time></trkpt><trkpt lat="44.728912344596154" lon="9.34218243213127"><ele>1049.6666666666665</ele><time>2026-03-28T14:24:47.999Z</time></trkpt><trkpt lat="44.7288596176309" lon="9.342087415703476"><ele>1049.0</ele><time>2026-03-28T14:24:51.999Z</time></trkpt><trkpt lat="44.728803624602286" lon="9.34202129961873"><ele>1048.3333333333333</ele><time>2026-03-28T14:24:54.999Z</time></trkpt><trkpt lat="44.72878267577602" lon="9.341918484389835"><ele>1047.6666666666667</ele><time>2026-03-28T14:24:57.999Z</time></trkpt><trkpt lat="44.72874165634863" lon="9.34183415511262"><ele>1047.0</ele><time>2026-03-28T14:24:59.999Z</time></trkpt><trkpt lat="44.72872371159867" lon="9.34172207946213"><ele>1047.0</ele><time>2026-03-28T14:25:22.998Z</time></trkpt><trkpt lat="44.72868964813504" lon="9.34161593941771"><ele>1047.0</ele><time>2026-03-28T14:25:50Z</time></trkpt><trkpt lat="44.72871085370518" lon="9.341521462148453"><ele>1047.0</ele><time>2026-03-28T14:25:55Z</time></trkpt><trkpt lat="44.72869351099755" lon="9.341411023604905"><ele>1047.0</ele><time>2026-03-28T14:25:59Z</time></trkpt><trkpt lat="44.72865811079795" lon="9.341319843959592"><ele>1047.0</ele><time>2026-03-28T14:26:04Z</time></trkpt><trkpt lat="44.72866276712357" lon="9.341221401933652"><ele>1047.0</ele><time>2026-03-28T14:26:07Z</time></trkpt><trkpt lat="44.728720910622464" lon="9.341058676036083"><ele>1047.6666666666667</ele><time>2026-03-28T14:26:09Z</time></trkpt><trkpt lat="44.72873591507144" lon="9.340946582468721"><ele>1048.3333333333333</ele><time>2026-03-28T14:26:10Z</time></trkpt><trkpt lat="44.72873044196269" lon="9.340830737259049"><ele>1049.0</ele><time>2026-03-28T14:26:11Z</time></trkpt><trkpt lat="44.7287133589386" lon="9.340740089611229"><ele>1049.6666666666665</ele><time>2026-03-28T14:26:12Z</time></trkpt><trkpt lat="44.728671311207165" lon="9.34062004517474"><ele>1050.3333333333333</ele><time>2026-03-28T14:26:14Z</time></trkpt><trkpt lat="44.72860781169857" lon="9.340494767598292"><ele>1051.0</ele><time>2026-03-28T14:26:16Z</time></trkpt><trkpt lat="44.72856898853484" lon="9.34034461173271"><ele>1051.8333333333333</ele><time>2026-03-28T14:27:33.998Z</time></trkpt><trkpt lat="44.72862109128112" lon="9.34029202801294"><ele>1052.6666666666665</ele><time>2026-03-28T14:27:36.998Z</time></trkpt><trkpt lat="44.728692002734796" lon="9.340210087447417"><ele>1053.5</ele><time>2026-03-28T14:27:39.998Z</time></trkpt><trkpt lat="44.72875467422855" lon="9.340143073619592"><ele>1054.3333333333333</ele><time>2026-03-28T14:27:42.998Z</time></trkpt><trkpt lat="44.72881579634658" lon="9.340077085049801"><ele>1055.1666666666667</ele><time>2026-03-28T14:27:46Z</time></trkpt><trkpt lat="44.728872417972774" lon="9.340014211114152"><ele>1056.0</ele><time>2026-03-28T14:27:49Z</time></trkpt><trkpt lat="44.728938255915594" lon="9.33995869296011"><ele>1056.0</ele><time>2026-03-28T14:27:51Z</time></trkpt><trkpt lat="44.72901085968737" lon="9.339889557953732"><ele>1056.0</ele><time>2026-03-28T14:27:56Z</time></trkpt><trkpt lat="44.729096802199" lon="9.339791394138585"><ele>1056.0</ele><time>2026-03-28T14:27:58Z</time></trkpt><trkpt lat="44.72913571001594" lon="9.339698246929007"><ele>1056.0</ele><time>2026-03-28T14:28:01Z</time></trkpt><trkpt lat="44.729157475545264" lon="9.339557462202805"><ele>1056.0</ele><time>2026-03-28T14:28:04Z</time></trkpt><trkpt lat="44.72918251956958" lon="9.339463598874634"><ele>1056.0</ele><time>2026-03-28T14:28:06Z</time></trkpt><trkpt lat="44.72921373146513" lon="9.339330746281709"><ele>1056.7142857142858</ele><time>2026-03-28T14:28:11Z</time></trkpt><trkpt lat="44.72924358801914" lon="9.339244379348882"><ele>1057.4285714285716</ele><time>2026-03-28T14:28:15Z</time></trkpt><trkpt lat="44.72928667467139" lon="9.339167455086242"><ele>1058.1428571428573</ele><time>2026-03-28T14:28:18Z</time></trkpt><trkpt lat="44.72928256021235" lon="9.339050862829463"><ele>1058.857142857143</ele><time>2026-03-28T14:28:21Z</time></trkpt><trkpt lat="44.72929328137084" lon="9.338951671015112"><ele>1059.5714285714287</ele><time>2026-03-28T14:28:23Z</time></trkpt><trkpt lat="44.729326762362696" lon="9.338846984247233"><ele>1060.2857142857144</ele><time>2026-03-28T14:28:26Z</time></trkpt><trkpt lat="44.72935257193633" lon="9.33875644132212"><ele>1061.0</ele><time>2026-03-28T14:28:31Z</time></trkpt><trkpt lat="44.72940944391968" lon="9.338658669559381"><ele>1059.3333333333335</ele><time>2026-03-28T14:28:33Z</time></trkpt><trkpt lat="44.72942886356686" lon="9.338554975494782"><ele>1057.6666666666667</ele><time>2026-03-28T14:28:35.999Z</time></trkpt><trkpt lat="44.72945221011772" lon="9.338446079288167"><ele>1056.0</ele><time>2026-03-28T14:28:41.999Z</time></trkpt><trkpt lat="44.72943601711823" lon="9.338348208118802"><ele>1054.3333333333333</ele><time>2026-03-28T14:28:46.999Z</time></trkpt><trkpt lat="44.72943717408618" lon="9.338256471776193"><ele>1052.6666666666665</ele><time>2026-03-28T14:28:50.999Z</time></trkpt><trkpt lat="44.72942768206491" lon="9.338155354411043"><ele>1051.0</ele><time>2026-03-28T14:28:55.999Z</time></trkpt><trkpt lat="44.729397751396746" lon="9.33803821057861"><ele>1053.5714285714287</ele><time>2026-03-28T14:28:58.999Z</time></trkpt><trkpt lat="44.72935130823907" lon="9.337953146068521"><ele>1056.142857142857</ele><time>2026-03-28T14:29:05.999Z</time></trkpt><trkpt lat="44.729301485412186" lon="9.337882823154146"><ele>1058.7142857142858</ele><time>2026-03-28T14:29:08.999Z</time></trkpt><trkpt lat="44.72925904069922" lon="9.337791494348794"><ele>1061.2857142857142</ele><time>2026-03-28T14:29:16.999Z</time></trkpt><trkpt lat="44.72920492138577" lon="9.337738353013746"><ele>1063.857142857143</ele><time>2026-03-28T14:29:18.999Z</time></trkpt><trkpt lat="44.72914926743554" lon="9.337671621932017"><ele>1066.4285714285716</ele><time>2026-03-28T14:29:28.998Z</time></trkpt><trkpt lat="44.72909670444455" lon="9.337608868234955"><ele>1069.0</ele><time>2026-03-28T14:29:32.998Z</time></trkpt><trkpt lat="44.72904889198408" lon="9.337542058995178"><ele>1069.0</ele><time>2026-03-28T14:29:36.998Z</time></trkpt><trkpt lat="44.72900127791047" lon="9.337471244648256"><ele>1069.0</ele><time>2026-03-28T14:29:41.998Z</time></trkpt><trkpt lat="44.72895327254358" lon="9.33739339977521"><ele>1069.0</ele><time>2026-03-28T14:29:46.998Z</time></trkpt><trkpt lat="44.72890413124965" lon="9.337321187562567"><ele>1069.0</ele><time>2026-03-28T14:29:50.998Z</time></trkpt><trkpt lat="44.72884176385687" lon="9.337267691198967"><ele>1069.0</ele><time>2026-03-28T14:30:01Z</time></trkpt><trkpt lat="44.72877565955432" lon="9.337181155409434"><ele>1069.0</ele><time>2026-03-28T14:30:08Z</time></trkpt><trkpt lat="44.72870715785493" lon="9.337131719967596"><ele>1069.0</ele><time>2026-03-28T14:30:13Z</time></trkpt><trkpt lat="44.72867689054522" lon="9.337034531753348"><ele>1069.0</ele><time>2026-03-28T14:30:19Z</time></trkpt><trkpt lat="44.72865738824017" lon="9.336929778249186"><ele>1069.0</ele><time>2026-03-28T14:30:22Z</time></trkpt><trkpt lat="44.72860322977535" lon="9.336877091534758"><ele>1069.0</ele><time>2026-03-28T14:30:37Z</time></trkpt><trkpt lat="44.728616847115084" lon="9.336965961144372"><ele>1069.0</ele><time>2026-03-28T14:31:04.999Z</time></trkpt><trkpt lat="44.7285207162909" lon="9.336987301518645"><ele>1069.0</ele><time>2026-03-28T14:32:50.999Z</time></trkpt><trkpt lat="44.72845501251216" lon="9.33701169902375"><ele>1069.0</ele><time>2026-03-28T14:32:55.999Z</time></trkpt><trkpt lat="44.72838991759262" lon="9.337022422338837"><ele>1071.6666666666665</ele><time>2026-03-28T14:33:03.999Z</time></trkpt><trkpt lat="44.72833552959851" lon="9.336974547107262"><ele>1074.3333333333333</ele><time>2026-03-28T14:33:06.999Z</time></trkpt><trkpt lat="44.72829450008578" lon="9.336887386235157"><ele>1077.0</ele><time>2026-03-28T14:36:46Z</time></trkpt><trkpt lat="44.72822402872717" lon="9.336821328564344"><ele>1079.6666666666667</ele><time>2026-03-28T14:36:48Z</time></trkpt><trkpt lat="44.72817551197391" lon="9.336751603723235"><ele>1082.3333333333335</ele><time>2026-03-28T14:36:50Z</time></trkpt><trkpt lat="44.72812012106283" lon="9.33663760752663"><ele>1085.0</ele><time>2026-03-28T14:36:52Z</time></trkpt><trkpt lat="44.72808136830742" lon="9.336515729513794"><ele>1085.0</ele><time>2026-03-28T14:36:55Z</time></trkpt><trkpt lat="44.72804875670793" lon="9.336429007779152"><ele>1085.0</ele><time>2026-03-28T14:36:57.999Z</time></trkpt><trkpt lat="44.7280035642705" lon="9.336355088928729"><ele>1085.0</ele><time>2026-03-28T14:37:00.999Z</time></trkpt><trkpt lat="44.72794545637157" lon="9.336274074433435"><ele>1085.0</ele><time>2026-03-28T14:37:05.999Z</time></trkpt><trkpt lat="44.727896414201545" lon="9.336209865256265"><ele>1085.0</ele><time>2026-03-28T14:37:08.999Z</time></trkpt><trkpt lat="44.72784265404319" lon="9.336117863788306"><ele>1085.0</ele><time>2026-03-28T14:37:11.999Z</time></trkpt><trkpt lat="44.72777624043568" lon="9.336017493670244"><ele>1087.0</ele><time>2026-03-28T14:37:15.999Z</time></trkpt><trkpt lat="44.72771165355386" lon="9.335938323677357"><ele>1089.0</ele><time>2026-03-28T14:37:17.999Z</time></trkpt><trkpt lat="44.72757718922072" lon="9.335764120800654"><ele>1091.0</ele><time>2026-03-28T14:37:18.999Z</time></trkpt><trkpt lat="44.72752475050606" lon="9.33561848656336"><ele>1093.0</ele><time>2026-03-28T14:37:20.999Z</time></trkpt><trkpt lat="44.727490547287644" lon="9.335508128668213"><ele>1093.0</ele><time>2026-03-28T14:37:22.999Z</time></trkpt><trkpt lat="44.72751238598936" lon="9.335376720383538"><ele>1093.0</ele><time>2026-03-28T14:37:25.999Z</time></trkpt><trkpt lat="44.727546085288566" lon="9.335269987612943"><ele>1093.0</ele><time>2026-03-28T14:37:27.999Z</time></trkpt><trkpt lat="44.72756160121217" lon="9.335162152201978"><ele>1093.0</ele><time>2026-03-28T14:37:29.999Z</time></trkpt><trkpt lat="44.7275940220814" lon="9.335080379755954"><ele>1093.0</ele><time>2026-03-28T14:37:31.999Z</time></trkpt><trkpt lat="44.72764691384459" lon="9.334995196717832"><ele>1093.0</ele><time>2026-03-28T14:37:33.999Z</time></trkpt><trkpt lat="44.72767001062069" lon="9.334896240245403"><ele>1093.0</ele><time>2026-03-28T14:37:36.999Z</time></trkpt><trkpt lat="44.72771706203192" lon="9.334806009889142"><ele>1093.0</ele><time>2026-03-28T14:37:39.999Z</time></trkpt><trkpt lat="44.7277312767951" lon="9.334656782723998"><ele>1093.0</ele><time>2026-03-28T14:37:41.999Z</time></trkpt><trkpt lat="44.7277358832222" lon="9.334557281253083"><ele>1093.0</ele><time>2026-03-28T14:37:42.999Z</time></trkpt><trkpt lat="44.72773614305437" lon="9.334410848358695"><ele>1093.0</ele><time>2026-03-28T14:37:44.999Z</time></trkpt><trkpt lat="44.727710445330196" lon="9.334306138080198"><ele>1093.0</ele><time>2026-03-28T14:37:46.999Z</time></trkpt><trkpt lat="44.72764243277242" lon="9.334158259874496"><ele>1093.5714285714287</ele><time>2026-03-28T14:38:03.998Z</time></trkpt><trkpt lat="44.72761911483386" lon="9.33407316824947"><ele>1094.142857142857</ele><time>2026-03-28T14:38:40Z</time></trkpt><trkpt lat="44.72763152493649" lon="9.333973597702748"><ele>1094.7142857142858</ele><time>2026-03-28T14:38:46Z</time></trkpt><trkpt lat="44.7275688758635" lon="9.333934942727673"><ele>1095.2857142857142</ele><time>2026-03-28T14:38:53Z</time></trkpt><trkpt lat="44.727538888418444" lon="9.333846167464017"><ele>1095.857142857143</ele><time>2026-03-28T14:39:03Z</time></trkpt><trkpt lat="44.72749079111111" lon="9.333778728848444"><ele>1096.4285714285716</ele><time>2026-03-28T14:39:12.999Z</time></trkpt><trkpt lat="44.72744050983697" lon="9.333706723402196"><ele>1097.0</ele><time>2026-03-28T14:39:17.999Z</time></trkpt><trkpt lat="44.727399139731475" lon="9.333594518317492"><ele>1098.5</ele><time>2026-03-28T14:39:20.999Z</time></trkpt><trkpt lat="44.7273867005305" lon="9.333488556640281"><ele>1100.0</ele><time>2026-03-28T14:39:22.999Z</time></trkpt><trkpt lat="44.72735640884679" lon="9.33337767741819"><ele>1101.5</ele><time>2026-03-28T14:39:24.999Z</time></trkpt><trkpt lat="44.72731842084407" lon="9.333281531073252"><ele>1103.0</ele><time>2026-03-28T14:39:26.999Z</time></trkpt><trkpt lat="44.72729747727679" lon="9.333167661693446"><ele>1104.5</ele><time>2026-03-28T14:39:28.999Z</time></trkpt><trkpt lat="44.72728051761267" lon="9.33306998141067"><ele>1106.0</ele><time>2026-03-28T14:39:30.999Z</time></trkpt><trkpt lat="44.72728493847168" lon="9.332962557006818"><ele>1106.5</ele><time>2026-03-28T14:39:32.999Z</time></trkpt><trkpt lat="44.72735751111185" lon="9.33283290123063"><ele>1107.0</ele><time>2026-03-28T14:39:34.999Z</time></trkpt><trkpt lat="44.72734718576316" lon="9.332716500609898"><ele>1107.5</ele><time>2026-03-28T14:39:36.999Z</time></trkpt><trkpt lat="44.72731112476354" lon="9.332630544986769"><ele>1108.0</ele><time>2026-03-28T14:39:38.999Z</time></trkpt><trkpt lat="44.72730064443606" lon="9.33252834164314"><ele>1108.5</ele><time>2026-03-28T14:39:41.999Z</time></trkpt><trkpt lat="44.72726101630601" lon="9.33244990527313"><ele>1109.0</ele><time>2026-03-28T14:39:44.999Z</time></trkpt><trkpt lat="44.72722107256807" lon="9.332365640088353"><ele>1109.0</ele><time>2026-03-28T14:39:46.999Z</time></trkpt><trkpt lat="44.72718899337699" lon="9.332235599008657"><ele>1109.0</ele><time>2026-03-28T14:39:48.999Z</time></trkpt><trkpt lat="44.727161200721916" lon="9.332151864378256"><ele>1109.0</ele><time>2026-03-28T14:39:49.999Z</time></trkpt><trkpt lat="44.72712770415073" lon="9.331984285843282"><ele>1109.0</ele><time>2026-03-28T14:39:51.999Z</time></trkpt><trkpt lat="44.72715121454607" lon="9.331865639044446"><ele>1109.0</ele><time>2026-03-28T14:39:53.999Z</time></trkpt><trkpt lat="44.7271478768565" lon="9.331775752389124"><ele>1109.0</ele><time>2026-03-28T14:39:55.998Z</time></trkpt><trkpt lat="44.72716702531779" lon="9.331627919234863"><ele>1109.3333333333335</ele><time>2026-03-28T14:39:57.998Z</time></trkpt><trkpt lat="44.72714867656416" lon="9.331509001463097"><ele>1109.6666666666667</ele><time>2026-03-28T14:39:59.998Z</time></trkpt><trkpt lat="44.727139830576945" lon="9.331406646124057"><ele>1110.0</ele><time>2026-03-28T14:40:01.998Z</time></trkpt><trkpt lat="44.72708108425763" lon="9.331369610049261"><ele>1110.3333333333333</ele><time>2026-03-28T14:40:04.998Z</time></trkpt><trkpt lat="44.727013224835915" lon="9.331292075145491"><ele>1110.6666666666665</ele><time>2026-03-28T14:40:06.998Z</time></trkpt><trkpt lat="44.72695109524785" lon="9.331175489949898"><ele>1111.0</ele><time>2026-03-28T14:40:08.998Z</time></trkpt><trkpt lat="44.72689436858608" lon="9.331101171976995"><ele>1109.0</ele><time>2026-03-28T14:40:10.998Z</time></trkpt><trkpt lat="44.72682623616219" lon="9.33101371117797"><ele>1107.0</ele><time>2026-03-28T14:40:14.998Z</time></trkpt><trkpt lat="44.72678834059007" lon="9.330934562043772"><ele>1105.0</ele><time>2026-03-28T14:40:17.998Z</time></trkpt><trkpt lat="44.72672778621698" lon="9.330832801959419"><ele>1103.0</ele><time>2026-03-28T14:40:22Z</time></trkpt><trkpt lat="44.7266800867642" lon="9.330753597351942"><ele>1101.0</ele><time>2026-03-28T14:40:25Z</time></trkpt><trkpt lat="44.726621497791506" lon="9.330674466939309"><ele>1099.0</ele><time>2026-03-28T14:40:28Z</time></trkpt><trkpt lat="44.72658380021645" lon="9.330573137586834"><ele>1097.8333333333333</ele><time>2026-03-28T14:40:31Z</time></trkpt><trkpt lat="44.72655939735912" lon="9.330452059721766"><ele>1096.6666666666665</ele><time>2026-03-28T14:40:35Z</time></trkpt><trkpt lat="44.72651437613307" lon="9.330358084284773"><ele>1095.5</ele><time>2026-03-28T14:40:37Z</time></trkpt><trkpt lat="44.72646553396622" lon="9.33028557552677"><ele>1094.3333333333333</ele><time>2026-03-28T14:40:39Z</time></trkpt><trkpt lat="44.72643326990872" lon="9.330185964653813"><ele>1093.1666666666667</ele><time>2026-03-28T14:40:42Z</time></trkpt><trkpt lat="44.72643181213002" lon="9.330085191768054"><ele>1092.0</ele><time>2026-03-28T14:40:44Z</time></trkpt><trkpt lat="44.726448995654266" lon="9.329993008956498"><ele>1092.0</ele><time>2026-03-28T14:40:46Z</time></trkpt><trkpt lat="44.72642091966313" lon="9.32990043114898"><ele>1092.0</ele><time>2026-03-28T14:40:48Z</time></trkpt><trkpt lat="44.72637166220999" lon="9.329818513090805"><ele>1092.0</ele><time>2026-03-28T14:40:50Z</time></trkpt><trkpt lat="44.72633710540118" lon="9.32972231538639"><ele>1092.0</ele><time>2026-03-28T14:40:52Z</time></trkpt><trkpt lat="44.72632019759588" lon="9.329605647479083"><ele>1092.0</ele><time>2026-03-28T14:41:00Z</time></trkpt><trkpt lat="44.726329075898114" lon="9.329510862237694"><ele>1092.0</ele><time>2026-03-28T14:41:03Z</time></trkpt><trkpt lat="44.72631714428308" lon="9.329416938563515"><ele>1092.0</ele><time>2026-03-28T14:41:10.999Z</time></trkpt><trkpt lat="44.72627333515828" lon="9.329297494854021"><ele>1091.5</ele><time>2026-03-28T14:41:12.999Z</time></trkpt><trkpt lat="44.72625512036629" lon="9.329158808644882"><ele>1091.0</ele><time>2026-03-28T14:41:15.999Z</time></trkpt><trkpt lat="44.72621544399102" lon="9.329079378047835"><ele>1090.5</ele><time>2026-03-28T14:41:17.999Z</time></trkpt><trkpt lat="44.726169832558604" lon="9.328971864470228"><ele>1090.0</ele><time>2026-03-28T14:41:48.999Z</time></trkpt><trkpt lat="44.726120030333675" lon="9.328898775044912"><ele>1089.5</ele><time>2026-03-28T14:41:55.999Z</time></trkpt><trkpt lat="44.72609805244743" lon="9.328811754487115"><ele>1089.0</ele><time>2026-03-28T14:41:58.999Z</time></trkpt><trkpt lat="44.7260871363697" lon="9.32871230314822"><ele>1088.8333333333333</ele><time>2026-03-28T14:42:03.998Z</time></trkpt><trkpt lat="44.72606070438668" lon="9.32861227026242"><ele>1088.6666666666667</ele><time>2026-03-28T14:42:07.998Z</time></trkpt><trkpt lat="44.72605074213609" lon="9.328514464754432"><ele>1088.5</ele><time>2026-03-28T14:42:09.998Z</time></trkpt><trkpt lat="44.72605276527375" lon="9.328409307771052"><ele>1088.3333333333335</ele><time>2026-03-28T14:42:11.998Z</time></trkpt><trkpt lat="44.72608178225144" lon="9.328300232113751"><ele>1088.1666666666667</ele><time>2026-03-28T14:42:13.998Z</time></trkpt><trkpt lat="44.7260848461001" lon="9.328168895077884"><ele>1088.0</ele><time>2026-03-28T14:42:15.998Z</time></trkpt><trkpt lat="44.726030513474164" lon="9.328092506809114"><ele>1087.0</ele><time>2026-03-28T14:42:19.998Z</time></trkpt><trkpt lat="44.72592345298523" lon="9.32799367955733"><ele>1086.0</ele><time>2026-03-28T14:42:21.998Z</time></trkpt><trkpt lat="44.72586444284019" lon="9.327961722749578"><ele>1085.0</ele><time>2026-03-28T14:42:22.998Z</time></trkpt><trkpt lat="44.72579093318466" lon="9.327941362328858"><ele>1084.0</ele><time>2026-03-28T14:42:24.998Z</time></trkpt><trkpt lat="44.725706294015964" lon="9.327882733701514"><ele>1083.0</ele><time>2026-03-28T14:42:27Z</time></trkpt><trkpt lat="44.72563854436767" lon="9.327803764820692"><ele>1082.0</ele><time>2026-03-28T14:42:29Z</time></trkpt><trkpt lat="44.72556627735366" lon="9.327748031646395"><ele>1082.0</ele><time>2026-03-28T14:42:31Z</time></trkpt><trkpt lat="44.72549141871353" lon="9.327730882586975"><ele>1082.0</ele><time>2026-03-28T14:42:33Z</time></trkpt><trkpt lat="44.72543420259267" lon="9.327583194206987"><ele>1082.0</ele><time>2026-03-28T14:42:35Z</time></trkpt><trkpt lat="44.72538719319873" lon="9.327522043964361"><ele>1082.0</ele><time>2026-03-28T14:42:40Z</time></trkpt><trkpt lat="44.72534859268001" lon="9.327446222895677"><ele>1082.0</ele><time>2026-03-28T14:42:44Z</time></trkpt><trkpt lat="44.7253543865569" lon="9.32726883682174"><ele>1083.0</ele><time>2026-03-28T14:42:46Z</time></trkpt><trkpt lat="44.725364132962575" lon="9.327158331316953"><ele>1084.0</ele><time>2026-03-28T14:42:48Z</time></trkpt><trkpt lat="44.72537806587499" lon="9.327045829771635"><ele>1085.0</ele><time>2026-03-28T14:42:50Z</time></trkpt><trkpt lat="44.72539778340893" lon="9.326890621162867"><ele>1086.0</ele><time>2026-03-28T14:42:52Z</time></trkpt><trkpt lat="44.725421790718464" lon="9.326770864741462"><ele>1087.0</ele><time>2026-03-28T14:42:54Z</time></trkpt><trkpt lat="44.72548057280527" lon="9.326725009491103"><ele>1088.0</ele><time>2026-03-28T14:42:55Z</time></trkpt><trkpt lat="44.72552245939419" lon="9.326582787790004"><ele>1088.0</ele><time>2026-03-28T14:42:57Z</time></trkpt><trkpt lat="44.72552629752513" lon="9.326470503607732"><ele>1088.0</ele><time>2026-03-28T14:42:59Z</time></trkpt><trkpt lat="44.725463103158575" lon="9.326346882544403"><ele>1088.0</ele><time>2026-03-28T14:43:02Z</time></trkpt><trkpt lat="44.725452705065216" lon="9.32620947786023"><ele>1088.0</ele><time>2026-03-28T14:43:05Z</time></trkpt><trkpt lat="44.725495355849596" lon="9.326118631093566"><ele>1088.0</ele><time>2026-03-28T14:43:07Z</time></trkpt><trkpt lat="44.7255752002426" lon="9.32617238232715"><ele>1087.3333333333335</ele><time>2026-03-28T14:43:08Z</time></trkpt><trkpt lat="44.72560611229245" lon="9.326051621942558"><ele>1086.6666666666667</ele><time>2026-03-28T14:43:12Z</time></trkpt><trkpt lat="44.72562243117165" lon="9.32595378190728"><ele>1086.0</ele><time>2026-03-28T14:43:18.999Z</time></trkpt><trkpt lat="44.72566997157996" lon="9.325894884634389"><ele>1085.3333333333333</ele><time>2026-03-28T14:43:21.999Z</time></trkpt><trkpt lat="44.725657108002004" lon="9.325784363594831"><ele>1084.6666666666665</ele><time>2026-03-28T14:43:28.999Z</time></trkpt><trkpt lat="44.72571297396886" lon="9.325738757429894"><ele>1084.0</ele><time>2026-03-28T14:43:31.999Z</time></trkpt><trkpt lat="44.725762804412255" lon="9.325641289409045"><ele>1084.0</ele><time>2026-03-28T14:43:34.999Z</time></trkpt><trkpt lat="44.72584223839203" lon="9.325592005768891"><ele>1084.0</ele><time>2026-03-28T14:43:36.999Z</time></trkpt><trkpt lat="44.72588455812904" lon="9.325522026288487"><ele>1084.0</ele><time>2026-03-28T14:43:40.999Z</time></trkpt><trkpt lat="44.72588554308665" lon="9.325433246029101"><ele>1084.0</ele><time>2026-03-28T14:44:35Z</time></trkpt><trkpt lat="44.72590619388182" lon="9.325332193575072"><ele>1084.0</ele><time>2026-03-28T14:44:40Z</time></trkpt><trkpt lat="44.725969085309245" lon="9.325264240468954"><ele>1084.0</ele><time>2026-03-28T14:44:45Z</time></trkpt><trkpt lat="44.7260330126054" lon="9.325200793820645"><ele>1084.0</ele><time>2026-03-28T14:44:49Z</time></trkpt><trkpt lat="44.72605184563092" lon="9.325112967075022"><ele>1083.6666666666665</ele><time>2026-03-28T14:44:51Z</time></trkpt><trkpt lat="44.72607665348128" lon="9.325025126907482"><ele>1083.3333333333333</ele><time>2026-03-28T14:44:54Z</time></trkpt><trkpt lat="44.72604473464296" lon="9.324948478357168"><ele>1083.0</ele><time>2026-03-28T14:44:57Z</time></trkpt><trkpt lat="44.72607079154922" lon="9.324854580719657"><ele>1082.6666666666667</ele><time>2026-03-28T14:45:02Z</time></trkpt><trkpt lat="44.726114539191315" lon="9.324731270988677"><ele>1082.3333333333335</ele><time>2026-03-28T14:47:48.999Z</time></trkpt><trkpt lat="44.72618887455638" lon="9.324672811064383"><ele>1082.0</ele><time>2026-03-28T14:47:50.999Z</time></trkpt><trkpt lat="44.72627377783719" lon="9.324622214929931"><ele>1082.0</ele><time>2026-03-28T14:47:52.999Z</time></trkpt><trkpt lat="44.726330896677766" lon="9.324566425442281"><ele>1082.0</ele><time>2026-03-28T14:47:53.999Z</time></trkpt><trkpt lat="44.72641236112578" lon="9.324500272749411"><ele>1082.0</ele><time>2026-03-28T14:47:54.999Z</time></trkpt><trkpt lat="44.72651487416987" lon="9.324441131986811"><ele>1082.0</ele><time>2026-03-28T14:47:55.999Z</time></trkpt><trkpt lat="44.726610496372196" lon="9.324362829903151"><ele>1082.0</ele><time>2026-03-28T14:47:56.999Z</time></trkpt><trkpt lat="44.72670863088857" lon="9.324282470034493"><ele>1082.0</ele><time>2026-03-28T14:47:57.999Z</time></trkpt><trkpt lat="44.72677858609054" lon="9.324229268564093"><ele>1082.0</ele><time>2026-03-28T14:47:58.999Z</time></trkpt><trkpt lat="44.72686056898901" lon="9.324170372107512"><ele>1082.0</ele><time>2026-03-28T14:47:59.999Z</time></trkpt><trkpt lat="44.72694035485138" lon="9.32412256691888"><ele>1082.0</ele><time>2026-03-28T14:48:00.999Z</time></trkpt><trkpt lat="44.72700315311082" lon="9.324011447068745"><ele>1082.0</ele><time>2026-03-28T14:48:01.999Z</time></trkpt><trkpt lat="44.72708060552203" lon="9.323982578561347"><ele>1082.0</ele><time>2026-03-28T14:48:02.999Z</time></trkpt><trkpt lat="44.727162409419044" lon="9.323964769901933"><ele>1082.2</ele><time>2026-03-28T14:48:03.999Z</time></trkpt><trkpt lat="44.727253045731196" lon="9.323949275781136"><ele>1082.4</ele><time>2026-03-28T14:48:04.999Z</time></trkpt><trkpt lat="44.72734173446066" lon="9.323905387578417"><ele>1082.6</ele><time>2026-03-28T14:48:05.999Z</time></trkpt><trkpt lat="44.72743288191494" lon="9.323853104154272"><ele>1082.8</ele><time>2026-03-28T14:48:06.999Z</time></trkpt><trkpt lat="44.72751636957969" lon="9.323789188351096"><ele>1083.0</ele><time>2026-03-28T14:48:07.999Z</time></trkpt><trkpt lat="44.727603585753194" lon="9.323724177756114"><ele>1083.0</ele><time>2026-03-28T14:48:08.998Z</time></trkpt><trkpt lat="44.72768529405065" lon="9.323656939296626"><ele>1083.0</ele><time>2026-03-28T14:48:09.998Z</time></trkpt><trkpt lat="44.727768280479935" lon="9.323597889208678"><ele>1083.0</ele><time>2026-03-28T14:48:10.998Z</time></trkpt><trkpt lat="44.727853371118236" lon="9.323534667924477"><ele>1083.0</ele><time>2026-03-28T14:48:11.998Z</time></trkpt><trkpt lat="44.72794264507085" lon="9.323477788745686"><ele>1083.0</ele><time>2026-03-28T14:48:12.998Z</time></trkpt><trkpt lat="44.72803525228406" lon="9.323421746320458"><ele>1084.4</ele><time>2026-03-28T14:48:13.998Z</time></trkpt><trkpt lat="44.72811737436411" lon="9.323342546801905"><ele>1085.8</ele><time>2026-03-28T14:48:14.998Z</time></trkpt><trkpt lat="44.72819693195726" lon="9.323257439373366"><ele>1087.2</ele><time>2026-03-28T14:48:15.998Z</time></trkpt><trkpt lat="44.7282726173027" lon="9.323192482879355"><ele>1088.6</ele><time>2026-03-28T14:48:16.998Z</time></trkpt><trkpt lat="44.72834394814716" lon="9.323135055565787"><ele>1090.0</ele><time>2026-03-28T14:48:17.998Z</time></trkpt><trkpt lat="44.728431919570575" lon="9.323094822958641"><ele>1090.0</ele><time>2026-03-28T14:48:18.998Z</time></trkpt><trkpt lat="44.728528362920834" lon="9.323090093615777"><ele>1090.0</ele><time>2026-03-28T14:48:19.998Z</time></trkpt><trkpt lat="44.72862776778909" lon="9.32310480100964"><ele>1090.0</ele><time>2026-03-28T14:48:20.998Z</time></trkpt><trkpt lat="44.728725498642866" lon="9.323098558083256"><ele>1090.0</ele><time>2026-03-28T14:48:21.998Z</time></trkpt><trkpt lat="44.7288259380487" lon="9.323075471460868"><ele>1090.0</ele><time>2026-03-28T14:48:22.998Z</time></trkpt><trkpt lat="44.72892166575938" lon="9.323035585647798"><ele>1088.5</ele><time>2026-03-28T14:48:23.998Z</time></trkpt><trkpt lat="44.72900570467074" lon="9.322989531463122"><ele>1087.0</ele><time>2026-03-28T14:48:24.998Z</time></trkpt><trkpt lat="44.72908328912226" lon="9.32292480719343"><ele>1085.5</ele><time>2026-03-28T14:48:25.998Z</time></trkpt><trkpt lat="44.72915697146654" lon="9.322863493713985"><ele>1084.0</ele><time>2026-03-28T14:48:26.998Z</time></trkpt><trkpt lat="44.729219187455534" lon="9.322800867554676"><ele>1082.5</ele><time>2026-03-28T14:48:27.998Z</time></trkpt><trkpt lat="44.72927106981865" lon="9.322712101820871"><ele>1081.0</ele><time>2026-03-28T14:48:28.998Z</time></trkpt><trkpt lat="44.72934745171523" lon="9.322649339012047"><ele>1079.8</ele><time>2026-03-28T14:48:29.998Z</time></trkpt><trkpt lat="44.72942460966142" lon="9.322563861101992"><ele>1078.6</ele><time>2026-03-28T14:48:30.998Z</time></trkpt><trkpt lat="44.72949500789107" lon="9.322470387587845"><ele>1077.4</ele><time>2026-03-28T14:48:31.998Z</time></trkpt><trkpt lat="44.72956224013271" lon="9.322362465159204"><ele>1076.2</ele><time>2026-03-28T14:48:32.998Z</time></trkpt><trkpt lat="44.72962192385342" lon="9.322261710932608"><ele>1075.0</ele><time>2026-03-28T14:48:33.998Z</time></trkpt><trkpt lat="44.729665798551046" lon="9.32217284524381"><ele>1075.0</ele><time>2026-03-28T14:48:34.998Z</time></trkpt><trkpt lat="44.729713086920526" lon="9.322105318383185"><ele>1075.0</ele><time>2026-03-28T14:48:35.998Z</time></trkpt><trkpt lat="44.729782586051684" lon="9.3220606336915"><ele>1075.0</ele><time>2026-03-28T14:48:36.998Z</time></trkpt><trkpt lat="44.729870997293084" lon="9.322039379370178"><ele>1075.0</ele><time>2026-03-28T14:48:37.998Z</time></trkpt><trkpt lat="44.729964765195724" lon="9.322027097603582"><ele>1075.0</ele><time>2026-03-28T14:48:38.998Z</time></trkpt><trkpt lat="44.73006726470685" lon="9.32202370910766"><ele>1075.0</ele><time>2026-03-28T14:48:39.998Z</time></trkpt><trkpt lat="44.73015711510581" lon="9.322001878772246"><ele>1075.4</ele><time>2026-03-28T14:48:40.998Z</time></trkpt><trkpt lat="44.730238203614945" lon="9.321935562753044"><ele>1075.8</ele><time>2026-03-28T14:48:41.998Z</time></trkpt><trkpt lat="44.73033079116507" lon="9.321891598448344"><ele>1076.2</ele><time>2026-03-28T14:48:42.998Z</time></trkpt><trkpt lat="44.73043031449187" lon="9.321877569984654"><ele>1076.6</ele><time>2026-03-28T14:48:44Z</time></trkpt><trkpt lat="44.730531500439376" lon="9.321853518271501"><ele>1077.0</ele><time>2026-03-28T14:48:45Z</time></trkpt><trkpt lat="44.730628160869145" lon="9.321805822709083"><ele>1077.0</ele><time>2026-03-28T14:48:46Z</time></trkpt><trkpt lat="44.73072310653419" lon="9.321767094065908"><ele>1077.0</ele><time>2026-03-28T14:48:47Z</time></trkpt><trkpt lat="44.73081215306599" lon="9.321743871597974"><ele>1077.0</ele><time>2026-03-28T14:48:48Z</time></trkpt><trkpt lat="44.73089369118921" lon="9.321724136792517"><ele>1077.0</ele><time>2026-03-28T14:48:49Z</time></trkpt><trkpt lat="44.73096195769008" lon="9.321723647918002"><ele>1077.0</ele><time>2026-03-28T14:48:50Z</time></trkpt><trkpt lat="44.7310676806643" lon="9.321815474115084"><ele>1076.3333333333333</ele><time>2026-03-28T14:48:52Z</time></trkpt><trkpt lat="44.73108507095295" lon="9.32192215018315"><ele>1075.6666666666667</ele><time>2026-03-28T14:48:53Z</time></trkpt><trkpt lat="44.73110901070833" lon="9.322020153802406"><ele>1075.0</ele><time>2026-03-28T14:48:54Z</time></trkpt><trkpt lat="44.73109789304695" lon="9.32211963210536"><ele>1074.3333333333335</ele><time>2026-03-28T14:48:55Z</time></trkpt><trkpt lat="44.731079818836925" lon="9.32222750711126"><ele>1073.6666666666667</ele><time>2026-03-28T14:48:56Z</time></trkpt><trkpt lat="44.73109673768571" lon="9.322333365335941"><ele>1073.0</ele><time>2026-03-28T14:48:57Z</time></trkpt><trkpt lat="44.73116752341038" lon="9.32242256597052"><ele>1073.0</ele><time>2026-03-28T14:48:58Z</time></trkpt><trkpt lat="44.73123915907454" lon="9.322503344185327"><ele>1073.0</ele><time>2026-03-28T14:48:59Z</time></trkpt><trkpt lat="44.73132546303163" lon="9.322554352497754"><ele>1073.0</ele><time>2026-03-28T14:49:00Z</time></trkpt><trkpt lat="44.73140892765337" lon="9.322574767150279"><ele>1073.0</ele><time>2026-03-28T14:49:01Z</time></trkpt><trkpt lat="44.73148145669261" lon="9.32258763905664"><ele>1073.0</ele><time>2026-03-28T14:49:02Z</time></trkpt><trkpt lat="44.731548778286246" lon="9.322659414158828"><ele>1073.0</ele><time>2026-03-28T14:49:03Z</time></trkpt><trkpt lat="44.7316121323866" lon="9.322753114243318"><ele>1073.0</ele><time>2026-03-28T14:49:04Z</time></trkpt><trkpt lat="44.731676184520545" lon="9.322842435576048"><ele>1073.0</ele><time>2026-03-28T14:49:05Z</time></trkpt><trkpt lat="44.73175421462887" lon="9.322915135665397"><ele>1073.0</ele><time>2026-03-28T14:49:06Z</time></trkpt><trkpt lat="44.73184195779334" lon="9.322962032625817"><ele>1073.0</ele><time>2026-03-28T14:49:07Z</time></trkpt><trkpt lat="44.73193614175828" lon="9.323011700875876"><ele>1073.0</ele><time>2026-03-28T14:49:08Z</time></trkpt><trkpt lat="44.732037374103044" lon="9.323074542036968"><ele>1073.4</ele><time>2026-03-28T14:49:09Z</time></trkpt><trkpt lat="44.73211779150281" lon="9.323117921623963"><ele>1073.8</ele><time>2026-03-28T14:49:10Z</time></trkpt><trkpt lat="44.7321864780736" lon="9.323180580854247"><ele>1074.2</ele><time>2026-03-28T14:49:11Z</time></trkpt><trkpt lat="44.732270530380845" lon="9.32323200428724"><ele>1074.6</ele><time>2026-03-28T14:49:12Z</time></trkpt><trkpt lat="44.732362807842705" lon="9.32329484940618"><ele>1075.0</ele><time>2026-03-28T14:49:13Z</time></trkpt><trkpt lat="44.73244668439758" lon="9.32335336668889"><ele>1075.0</ele><time>2026-03-28T14:49:14Z</time></trkpt><trkpt lat="44.73250567829318" lon="9.323426745137532"><ele>1075.0</ele><time>2026-03-28T14:49:15Z</time></trkpt><trkpt lat="44.732569535353605" lon="9.323507344141696"><ele>1075.0</ele><time>2026-03-28T14:49:16Z</time></trkpt><trkpt lat="44.73263109127953" lon="9.323584818401729"><ele>1075.0</ele><time>2026-03-28T14:49:17Z</time></trkpt><trkpt lat="44.732693302529015" lon="9.32365057230895"><ele>1075.0</ele><time>2026-03-28T14:49:18Z</time></trkpt><trkpt lat="44.7327490444675" lon="9.323713549065701"><ele>1075.0</ele><time>2026-03-28T14:49:19Z</time></trkpt><trkpt lat="44.73281589739217" lon="9.323758032656357"><ele>1074.8333333333333</ele><time>2026-03-28T14:49:20Z</time></trkpt><trkpt lat="44.732882824677745" lon="9.323760371322933"><ele>1074.6666666666665</ele><time>2026-03-28T14:49:20.999Z</time></trkpt><trkpt lat="44.733015799587506" lon="9.323717957736077"><ele>1074.5</ele><time>2026-03-28T14:49:22.999Z</time></trkpt><trkpt lat="44.73309467834286" lon="9.323677386994676"><ele>1074.3333333333333</ele><time>2026-03-28T14:49:23.999Z</time></trkpt><trkpt lat="44.733168389601296" lon="9.323626384172478"><ele>1074.1666666666667</ele><time>2026-03-28T14:49:24.999Z</time></trkpt><trkpt lat="44.73322122320029" lon="9.32356258885486"><ele>1074.0</ele><time>2026-03-28T14:49:25.999Z</time></trkpt><trkpt lat="44.73331979490995" lon="9.323489897837332"><ele>1074.0</ele><time>2026-03-28T14:49:27.999Z</time></trkpt><trkpt lat="44.733374304636875" lon="9.323423552831294"><ele>1074.0</ele><time>2026-03-28T14:49:28.999Z</time></trkpt><trkpt lat="44.73339709527039" lon="9.32332830507257"><ele>1074.0</ele><time>2026-03-28T14:49:29.999Z</time></trkpt><trkpt lat="44.73348962658092" lon="9.32319315588812"><ele>1074.0</ele><time>2026-03-28T14:49:31.999Z</time></trkpt><trkpt lat="44.733560554981345" lon="9.323154746076618"><ele>1074.0</ele><time>2026-03-28T14:49:32.999Z</time></trkpt><trkpt lat="44.733626602985126" lon="9.323149897693362"><ele>1074.0</ele><time>2026-03-28T14:49:33.999Z</time></trkpt><trkpt lat="44.73372618497912" lon="9.323081210983087"><ele>1075.4</ele><time>2026-03-28T14:49:35.999Z</time></trkpt><trkpt lat="44.73377494572334" lon="9.322991127005583"><ele>1076.8000000000002</ele><time>2026-03-28T14:49:36.999Z</time></trkpt><trkpt lat="44.733818352048615" lon="9.322872710426171"><ele>1078.1999999999998</ele><time>2026-03-28T14:49:37.999Z</time></trkpt><trkpt lat="44.73385325085937" lon="9.32274584542749"><ele>1079.6</ele><time>2026-03-28T14:49:38.999Z</time></trkpt><trkpt lat="44.73390316019962" lon="9.322633808064593"><ele>1081.0</ele><time>2026-03-28T14:49:39.999Z</time></trkpt><trkpt lat="44.73399987715972" lon="9.322584729897399"><ele>1081.0</ele><time>2026-03-28T14:49:40.999Z</time></trkpt><trkpt lat="44.73407138511134" lon="9.322411012326693"><ele>1081.0</ele><time>2026-03-28T14:49:41.999Z</time></trkpt><trkpt lat="44.73412110632332" lon="9.322269451104836"><ele>1081.0</ele><time>2026-03-28T14:49:42.999Z</time></trkpt><trkpt lat="44.734149898587965" lon="9.322140373811111"><ele>1081.0</ele><time>2026-03-28T14:49:43.999Z</time></trkpt><trkpt lat="44.73418382421179" lon="9.322022346078716"><ele>1081.0</ele><time>2026-03-28T14:49:44.999Z</time></trkpt><trkpt lat="44.73421754454936" lon="9.321912433566602"><ele>1079.3333333333333</ele><time>2026-03-28T14:49:45.999Z</time></trkpt><trkpt lat="44.734245899580394" lon="9.321819180281766"><ele>1077.6666666666665</ele><time>2026-03-28T14:49:46.999Z</time></trkpt><trkpt lat="44.73425125374708" lon="9.321714281900704"><ele>1076.0</ele><time>2026-03-28T14:49:47.999Z</time></trkpt><trkpt lat="44.73424115795497" lon="9.321582536125801"><ele>1074.3333333333333</ele><time>2026-03-28T14:49:48.999Z</time></trkpt><trkpt lat="44.734216104834594" lon="9.321498423178392"><ele>1072.6666666666667</ele><time>2026-03-28T14:49:49.999Z</time></trkpt><trkpt lat="44.73426415188611" lon="9.321344213877358"><ele>1071.0</ele><time>2026-03-28T14:49:51.999Z</time></trkpt><trkpt lat="44.73432090131388" lon="9.321252376547475"><ele>1069.2</ele><time>2026-03-28T14:49:52.999Z</time></trkpt><trkpt lat="44.734402100597265" lon="9.321187160817951"><ele>1067.3999999999999</ele><time>2026-03-28T14:49:53.999Z</time></trkpt><trkpt lat="44.73446503224019" lon="9.321114487703444"><ele>1065.6</ele><time>2026-03-28T14:49:54.999Z</time></trkpt><trkpt lat="44.734527116785024" lon="9.321080610704605"><ele>1063.8</ele><time>2026-03-28T14:49:55.999Z</time></trkpt><trkpt lat="44.734595482314404" lon="9.321049232132728"><ele>1062.0</ele><time>2026-03-28T14:49:56.999Z</time></trkpt><trkpt lat="44.73475970830528" lon="9.321143061731869"><ele>1062.0</ele><time>2026-03-28T14:49:58.999Z</time></trkpt><trkpt lat="44.73486992061397" lon="9.321210617628124"><ele>1062.0</ele><time>2026-03-28T14:49:59.999Z</time></trkpt><trkpt lat="44.73496504368129" lon="9.321243825569868"><ele>1062.0</ele><time>2026-03-28T14:50:00.999Z</time></trkpt><trkpt lat="44.735075785476596" lon="9.321243085379718"><ele>1062.0</ele><time>2026-03-28T14:50:01.999Z</time></trkpt><trkpt lat="44.73517243377369" lon="9.321261331868733"><ele>1062.0</ele><time>2026-03-28T14:50:02.999Z</time></trkpt><trkpt lat="44.73524287233977" lon="9.321346397408432"><ele>1061.8</ele><time>2026-03-28T14:50:03.999Z</time></trkpt><trkpt lat="44.73533580392712" lon="9.3213872574805"><ele>1061.6</ele><time>2026-03-28T14:50:04.999Z</time></trkpt><trkpt lat="44.73542701488881" lon="9.321435563417268"><ele>1061.3999999999999</ele><time>2026-03-28T14:50:05.999Z</time></trkpt><trkpt lat="44.73552191825621" lon="9.321461190925099"><ele>1061.2</ele><time>2026-03-28T14:50:06.999Z</time></trkpt><trkpt lat="44.73564833036129" lon="9.321479349844795"><ele>1061.0</ele><time>2026-03-28T14:50:08.999Z</time></trkpt><trkpt lat="44.73573552456751" lon="9.321495237936755"><ele>1062.8</ele><time>2026-03-28T14:50:09.999Z</time></trkpt><trkpt lat="44.735835424817544" lon="9.32152460882279"><ele>1064.6</ele><time>2026-03-28T14:50:10.999Z</time></trkpt><trkpt lat="44.73594287661607" lon="9.321582427147861"><ele>1066.4</ele><time>2026-03-28T14:50:11.999Z</time></trkpt><trkpt lat="44.736049893508735" lon="9.32163562188954"><ele>1068.2</ele><time>2026-03-28T14:50:12.998Z</time></trkpt><trkpt lat="44.73615778729279" lon="9.321689342527073"><ele>1070.0</ele><time>2026-03-28T14:50:13.998Z</time></trkpt><trkpt lat="44.73625167211271" lon="9.321727092903611"><ele>1070.0</ele><time>2026-03-28T14:50:14.998Z</time></trkpt><trkpt lat="44.736336326445304" lon="9.321738114879697"><ele>1070.0</ele><time>2026-03-28T14:50:15.998Z</time></trkpt><trkpt lat="44.7364136610503" lon="9.321759897902075"><ele>1070.0</ele><time>2026-03-28T14:50:16.998Z</time></trkpt><trkpt lat="44.736497297683" lon="9.32178466481644"><ele>1070.0</ele><time>2026-03-28T14:50:17.998Z</time></trkpt><trkpt lat="44.73658130254886" lon="9.321781473944139"><ele>1070.0</ele><time>2026-03-28T14:50:18.998Z</time></trkpt><trkpt lat="44.7366596057834" lon="9.32175797155816"><ele>1070.0</ele><time>2026-03-28T14:50:19.998Z</time></trkpt><trkpt lat="44.736743590477154" lon="9.32170457763751"><ele>1070.0</ele><time>2026-03-28T14:50:20.998Z</time></trkpt><trkpt lat="44.736814803103144" lon="9.32166119964934"><ele>1070.0</ele><time>2026-03-28T14:50:21.998Z</time></trkpt><trkpt lat="44.73695499259777" lon="9.321522544103022"><ele>1070.0</ele><time>2026-03-28T14:50:22.998Z</time></trkpt><trkpt lat="44.73702693595995" lon="9.321460731220055"><ele>1070.0</ele><time>2026-03-28T14:50:23.998Z</time></trkpt><trkpt lat="44.737100545360505" lon="9.321383948697042"><ele>1070.0</ele><time>2026-03-28T14:50:24.998Z</time></trkpt><trkpt lat="44.73718800675444" lon="9.321281463852705"><ele>1068.4</ele><time>2026-03-28T14:50:25.998Z</time></trkpt><trkpt lat="44.73725586537204" lon="9.321140599527304"><ele>1066.8</ele><time>2026-03-28T14:50:26.998Z</time></trkpt><trkpt lat="44.73733131932044" lon="9.321032764896296"><ele>1065.2</ele><time>2026-03-28T14:50:27.998Z</time></trkpt><trkpt lat="44.73739306338702" lon="9.3209314857054"><ele>1063.6</ele><time>2026-03-28T14:50:28.998Z</time></trkpt><trkpt lat="44.737469086006726" lon="9.320863055731452"><ele>1062.0</ele><time>2026-03-28T14:50:29.998Z</time></trkpt><trkpt lat="44.73752270837783" lon="9.320796748935647"><ele>1062.0</ele><time>2026-03-28T14:50:30.998Z</time></trkpt><trkpt lat="44.73760197919152" lon="9.320755644486356"><ele>1062.0</ele><time>2026-03-28T14:50:31.998Z</time></trkpt><trkpt lat="44.73767828767127" lon="9.320690066448767"><ele>1062.0</ele><time>2026-03-28T14:50:32.998Z</time></trkpt><trkpt lat="44.73776872924457" lon="9.320634129811358"><ele>1062.0</ele><time>2026-03-28T14:50:33.998Z</time></trkpt><trkpt lat="44.73785922356116" lon="9.320584399656878"><ele>1062.0</ele><time>2026-03-28T14:50:34.998Z</time></trkpt><trkpt lat="44.737959313291874" lon="9.320550878644383"><ele>1062.4</ele><time>2026-03-28T14:50:35.998Z</time></trkpt><trkpt lat="44.73805522221782" lon="9.320497233108119"><ele>1062.8000000000002</ele><time>2026-03-28T14:50:36.998Z</time></trkpt><trkpt lat="44.73815151273186" lon="9.320456728942434"><ele>1063.2</ele><time>2026-03-28T14:50:37.998Z</time></trkpt><trkpt lat="44.7382368965205" lon="9.320422747514948"><ele>1063.6000000000001</ele><time>2026-03-28T14:50:38.998Z</time></trkpt><trkpt lat="44.738321347223284" lon="9.32040070748405"><ele>1064.0</ele><time>2026-03-28T14:50:39.998Z</time></trkpt><trkpt lat="44.73840067117828" lon="9.320381753450846"><ele>1064.0</ele><time>2026-03-28T14:50:40.998Z</time></trkpt><trkpt lat="44.73846098770398" lon="9.320349085639835"><ele>1064.0</ele><time>2026-03-28T14:50:41.998Z</time></trkpt><trkpt lat="44.73854034269075" lon="9.320231341538648"><ele>1064.0</ele><time>2026-03-28T14:50:43.998Z</time></trkpt><trkpt lat="44.73857300047401" lon="9.320084986465917"><ele>1064.0</ele><time>2026-03-28T14:50:45.998Z</time></trkpt><trkpt lat="44.738628668619114" lon="9.320004426274553"><ele>1064.0</ele><time>2026-03-28T14:50:46.998Z</time></trkpt><trkpt lat="44.73870597563467" lon="9.319947217505092"><ele>1066.0</ele><time>2026-03-28T14:50:47.998Z</time></trkpt><trkpt lat="44.73871686772536" lon="9.31985504180992"><ele>1068.0</ele><time>2026-03-28T14:50:48.998Z</time></trkpt><trkpt lat="44.73878662746019" lon="9.319813233736909"><ele>1070.0</ele><time>2026-03-28T14:50:50Z</time></trkpt><trkpt lat="44.73881136859761" lon="9.319710042130273"><ele>1072.0</ele><time>2026-03-28T14:50:51Z</time></trkpt><trkpt lat="44.73880687408063" lon="9.31957677047555"><ele>1074.0</ele><time>2026-03-28T14:50:52Z</time></trkpt><trkpt lat="44.73880432838741" lon="9.319451797419724"><ele>1076.0</ele><time>2026-03-28T14:50:53Z</time></trkpt><trkpt lat="44.73879192734277" lon="9.31930552081445"><ele>1076.0</ele><time>2026-03-28T14:50:54Z</time></trkpt><trkpt lat="44.738748720303626" lon="9.319188401992596"><ele>1076.0</ele><time>2026-03-28T14:50:55Z</time></trkpt><trkpt lat="44.738749088820974" lon="9.319095099485388"><ele>1076.0</ele><time>2026-03-28T14:50:56Z</time></trkpt><trkpt lat="44.738805457519994" lon="9.318947675595457"><ele>1076.0</ele><time>2026-03-28T14:50:58Z</time></trkpt><trkpt lat="44.73886280178173" lon="9.318890639517976"><ele>1076.0</ele><time>2026-03-28T14:50:59Z</time></trkpt><trkpt lat="44.73892083878641" lon="9.31881104186782"><ele>1076.0</ele><time>2026-03-28T14:51:00Z</time></trkpt><trkpt lat="44.73893942856508" lon="9.318696413065592"><ele>1074.5</ele><time>2026-03-28T14:51:01Z</time></trkpt><trkpt lat="44.73895969690084" lon="9.318603784080109"><ele>1073.0</ele><time>2026-03-28T14:51:02Z</time></trkpt><trkpt lat="44.738992125772356" lon="9.318494362180243"><ele>1071.5</ele><time>2026-03-28T14:51:03Z</time></trkpt><trkpt lat="44.73902559449539" lon="9.318381403576947"><ele>1070.0</ele><time>2026-03-28T14:51:04Z</time></trkpt><trkpt lat="44.7390567774461" lon="9.31827909750311"><ele>1068.5</ele><time>2026-03-28T14:51:05Z</time></trkpt><trkpt lat="44.73909358265644" lon="9.318181215194445"><ele>1067.0</ele><time>2026-03-28T14:51:06Z</time></trkpt><trkpt lat="44.7391286941941" lon="9.318101067629817"><ele>1067.5</ele><time>2026-03-28T14:51:07Z</time></trkpt><trkpt lat="44.73917195131087" lon="9.318008190829998"><ele>1068.0</ele><time>2026-03-28T14:51:08Z</time></trkpt><trkpt lat="44.7392199153621" lon="9.3179083498315"><ele>1068.5</ele><time>2026-03-28T14:51:09Z</time></trkpt><trkpt lat="44.739267700809386" lon="9.317817799841373"><ele>1069.0</ele><time>2026-03-28T14:51:10Z</time></trkpt><trkpt lat="44.739320411651" lon="9.317735170204587"><ele>1069.5</ele><time>2026-03-28T14:51:11Z</time></trkpt><trkpt lat="44.739374869980296" lon="9.317655576715259"><ele>1070.0</ele><time>2026-03-28T14:51:12Z</time></trkpt><trkpt lat="44.73944683866092" lon="9.317587854082163"><ele>1070.0</ele><time>2026-03-28T14:51:13Z</time></trkpt><trkpt lat="44.73953034875241" lon="9.317519442834117"><ele>1070.0</ele><time>2026-03-28T14:51:14Z</time></trkpt><trkpt lat="44.7396429292536" lon="9.317440233831306"><ele>1070.0</ele><time>2026-03-28T14:51:15Z</time></trkpt><trkpt lat="44.73976036463326" lon="9.31733842969199"><ele>1070.0</ele><time>2026-03-28T14:51:16Z</time></trkpt><trkpt lat="44.73986994175166" lon="9.317249085635686"><ele>1067.4</ele><time>2026-03-28T14:51:17Z</time></trkpt><trkpt lat="44.739960837985656" lon="9.31716309761528"><ele>1064.8</ele><time>2026-03-28T14:51:18Z</time></trkpt><trkpt lat="44.740038758271005" lon="9.317097569269805"><ele>1062.2</ele><time>2026-03-28T14:51:19Z</time></trkpt><trkpt lat="44.74010210542895" lon="9.316981254383329"><ele>1059.6</ele><time>2026-03-28T14:51:20Z</time></trkpt><trkpt lat="44.740154187103236" lon="9.316852287235989"><ele>1057.0</ele><time>2026-03-28T14:51:21Z</time></trkpt><trkpt lat="44.740204494381004" lon="9.316728359272961"><ele>1056.6</ele><time>2026-03-28T14:51:22Z</time></trkpt><trkpt lat="44.74027388186068" lon="9.31662196848391"><ele>1056.2</ele><time>2026-03-28T14:51:23Z</time></trkpt><trkpt lat="44.74034516385479" lon="9.316525208160405"><ele>1055.8</ele><time>2026-03-28T14:51:23.999Z</time></trkpt><trkpt lat="44.740414701385355" lon="9.31643156524839"><ele>1055.4</ele><time>2026-03-28T14:51:24.999Z</time></trkpt><trkpt lat="44.740482695695825" lon="9.316332493530577"><ele>1055.0</ele><time>2026-03-28T14:51:25.999Z</time></trkpt><trkpt lat="44.74053713123595" lon="9.316224584194236"><ele>1055.0</ele><time>2026-03-28T14:51:26.999Z</time></trkpt><trkpt lat="44.74061094119498" lon="9.316134616502918"><ele>1055.0</ele><time>2026-03-28T14:51:27.999Z</time></trkpt><trkpt lat="44.74067486659748" lon="9.316018586987623"><ele>1055.0</ele><time>2026-03-28T14:51:28.999Z</time></trkpt><trkpt lat="44.74074510715247" lon="9.31588285700337"><ele>1055.0</ele><time>2026-03-28T14:51:29.999Z</time></trkpt><trkpt lat="44.74079779540079" lon="9.315750890985635"><ele>1055.0</ele><time>2026-03-28T14:51:30.999Z</time></trkpt><trkpt lat="44.74083189886132" lon="9.315639931520433"><ele>1053.6666666666667</ele><time>2026-03-28T14:51:31.999Z</time></trkpt><trkpt lat="44.74082936167208" lon="9.315514362198856"><ele>1052.3333333333335</ele><time>2026-03-28T14:51:32.999Z</time></trkpt><trkpt lat="44.740840766687306" lon="9.31541520904616"><ele>1051.0</ele><time>2026-03-28T14:51:33.999Z</time></trkpt><trkpt lat="44.740852866152686" lon="9.315321530573133"><ele>1049.6666666666667</ele><time>2026-03-28T14:51:34.999Z</time></trkpt><trkpt lat="44.74088066354151" lon="9.315220913676686"><ele>1048.3333333333333</ele><time>2026-03-28T14:51:35.999Z</time></trkpt><trkpt lat="44.74089675848108" lon="9.3150955983467"><ele>1047.0</ele><time>2026-03-28T14:51:36.999Z</time></trkpt><trkpt lat="44.74096024852239" lon="9.315011446303869"><ele>1047.0</ele><time>2026-03-28T14:51:37.999Z</time></trkpt><trkpt lat="44.74103352997568" lon="9.314948558535136"><ele>1047.0</ele><time>2026-03-28T14:51:38.999Z</time></trkpt><trkpt lat="44.74112688431235" lon="9.314899245909197"><ele>1047.0</ele><time>2026-03-28T14:51:39.999Z</time></trkpt><trkpt lat="44.741189666410605" lon="9.314851615601802"><ele>1047.0</ele><time>2026-03-28T14:51:40.999Z</time></trkpt><trkpt lat="44.741232001036416" lon="9.314765098829556"><ele>1047.0</ele><time>2026-03-28T14:51:41.999Z</time></trkpt><trkpt lat="44.74126368687973" lon="9.314638867483191"><ele>1047.0</ele><time>2026-03-28T14:51:42.999Z</time></trkpt><trkpt lat="44.741279140895294" lon="9.314506027193275"><ele>1050.4</ele><time>2026-03-28T14:51:43.999Z</time></trkpt><trkpt lat="44.74129009337855" lon="9.314358900370793"><ele>1053.8000000000002</ele><time>2026-03-28T14:51:44.999Z</time></trkpt><trkpt lat="44.74130315303423" lon="9.314211226756779"><ele>1057.2</ele><time>2026-03-28T14:51:45.999Z</time></trkpt><trkpt lat="44.741332243726916" lon="9.31405985199225"><ele>1060.6000000000001</ele><time>2026-03-28T14:51:46.999Z</time></trkpt><trkpt lat="44.74136945124501" lon="9.313937802497962"><ele>1064.0</ele><time>2026-03-28T14:51:47.999Z</time></trkpt><trkpt lat="44.74142420392256" lon="9.313828823510633"><ele>1064.0</ele><time>2026-03-28T14:51:48.999Z</time></trkpt><trkpt lat="44.74149842736965" lon="9.313727506348405"><ele>1064.0</ele><time>2026-03-28T14:51:49.999Z</time></trkpt><trkpt lat="44.74155993623783" lon="9.31361034723138"><ele>1064.0</ele><time>2026-03-28T14:51:50.999Z</time></trkpt><trkpt lat="44.741587859938114" lon="9.313466169086714"><ele>1064.0</ele><time>2026-03-28T14:51:51.999Z</time></trkpt><trkpt lat="44.74162707611968" lon="9.31330609952062"><ele>1064.0</ele><time>2026-03-28T14:51:52.999Z</time></trkpt><trkpt lat="44.741676228872535" lon="9.31313167595211"><ele>1064.1666666666667</ele><time>2026-03-28T14:51:53.999Z</time></trkpt><trkpt lat="44.74172161278932" lon="9.312991748396339"><ele>1064.3333333333335</ele><time>2026-03-28T14:51:54.999Z</time></trkpt><trkpt lat="44.74176349480766" lon="9.312896801989316"><ele>1064.5</ele><time>2026-03-28T14:51:55.999Z</time></trkpt><trkpt lat="44.74181939206571" lon="9.312829279910268"><ele>1064.6666666666667</ele><time>2026-03-28T14:51:56.999Z</time></trkpt><trkpt lat="44.74190286740215" lon="9.312793017281608"><ele>1064.8333333333333</ele><time>2026-03-28T14:51:57.999Z</time></trkpt><trkpt lat="44.741990912706775" lon="9.312741359503512"><ele>1065.0</ele><time>2026-03-28T14:51:58.999Z</time></trkpt><trkpt lat="44.74208911584744" lon="9.312682389148053"><ele>1065.0</ele><time>2026-03-28T14:51:59.999Z</time></trkpt><trkpt lat="44.742199664509634" lon="9.312644743685912"><ele>1065.0</ele><time>2026-03-28T14:52:00.999Z</time></trkpt><trkpt lat="44.7423084423537" lon="9.31261995929855"><ele>1065.0</ele><time>2026-03-28T14:52:01.999Z</time></trkpt><trkpt lat="44.74237967240179" lon="9.312594711843422"><ele>1065.0</ele><time>2026-03-28T14:52:02.999Z</time></trkpt><trkpt lat="44.74252625377171" lon="9.312590112021736"><ele>1065.0</ele><time>2026-03-28T14:52:04.999Z</time></trkpt><trkpt lat="44.742632283877136" lon="9.312621211130097"><ele>1065.0</ele><time>2026-03-28T14:52:05.999Z</time></trkpt><trkpt lat="44.74266256154029" lon="9.312867018081807"><ele>1065.0</ele><time>2026-03-28T14:52:06.999Z</time></trkpt><trkpt lat="44.74277584563075" lon="9.312967151503601"><ele>1065.0</ele><time>2026-03-28T14:52:07.999Z</time></trkpt><trkpt lat="44.74288851614027" lon="9.313045966570684"><ele>1065.0</ele><time>2026-03-28T14:52:08.999Z</time></trkpt><trkpt lat="44.74300426394173" lon="9.313119885313586"><ele>1067.4</ele><time>2026-03-28T14:52:09.999Z</time></trkpt><trkpt lat="44.74310633842181" lon="9.313165532337091"><ele>1069.8</ele><time>2026-03-28T14:52:10.999Z</time></trkpt><trkpt lat="44.74321134813331" lon="9.31319480798997"><ele>1072.2</ele><time>2026-03-28T14:52:11.999Z</time></trkpt><trkpt lat="44.74331715977357" lon="9.313217275904313"><ele>1074.6</ele><time>2026-03-28T14:52:12.999Z</time></trkpt><trkpt lat="44.743416504501965" lon="9.313236139519208"><ele>1077.0</ele><time>2026-03-28T14:52:13.999Z</time></trkpt><trkpt lat="44.74352401813896" lon="9.313262089714199"><ele>1077.75</ele><time>2026-03-28T14:52:14.999Z</time></trkpt><trkpt lat="44.743651463571005" lon="9.313290273452594"><ele>1078.5</ele><time>2026-03-28T14:52:15.999Z</time></trkpt><trkpt lat="44.7437827758131" lon="9.3133039015633"><ele>1079.25</ele><time>2026-03-28T14:52:16.998Z</time></trkpt><trkpt lat="44.74393063260895" lon="9.313279004207578"><ele>1080.0</ele><time>2026-03-28T14:52:17.998Z</time></trkpt><trkpt lat="44.744021234217186" lon="9.313260953325418"><ele>1080.0</ele><time>2026-03-28T14:52:18.998Z</time></trkpt><trkpt lat="44.74410156403534" lon="9.313260713686748"><ele>1080.0</ele><time>2026-03-28T14:52:19.998Z</time></trkpt><trkpt lat="44.744180590449446" lon="9.313264180006922"><ele>1080.0</ele><time>2026-03-28T14:52:20.998Z</time></trkpt><trkpt lat="44.74426144508436" lon="9.31326341616089"><ele>1080.0</ele><time>2026-03-28T14:52:21.998Z</time></trkpt><trkpt lat="44.7443522484397" lon="9.31326255832142"><ele>1080.0</ele><time>2026-03-28T14:52:22.998Z</time></trkpt><trkpt lat="44.74443151215102" lon="9.313261809503235"><ele>1080.0</ele><time>2026-03-28T14:52:23.998Z</time></trkpt><trkpt lat="44.744548781201864" lon="9.313264370194672"><ele>1081.6666666666667</ele><time>2026-03-28T14:52:24.998Z</time></trkpt><trkpt lat="44.74469687723028" lon="9.313268504517126"><ele>1083.3333333333335</ele><time>2026-03-28T14:52:25.998Z</time></trkpt><trkpt lat="44.74483227312283" lon="9.313264405877833"><ele>1085.0</ele><time>2026-03-28T14:52:26.998Z</time></trkpt><trkpt lat="44.7449894069461" lon="9.313100634468162"><ele>1085.0</ele><time>2026-03-28T14:52:27.998Z</time></trkpt><trkpt lat="44.74509521484639" lon="9.313092310038424"><ele>1085.0</ele><time>2026-03-28T14:52:28.998Z</time></trkpt><trkpt lat="44.74518967240714" lon="9.313117033487039"><ele>1085.0</ele><time>2026-03-28T14:52:29.998Z</time></trkpt><trkpt lat="44.74526315823418" lon="9.313140075457424"><ele>1085.0</ele><time>2026-03-28T14:52:30.998Z</time></trkpt><trkpt lat="44.74538937444328" lon="9.31313512782651"><ele>1085.0</ele><time>2026-03-28T14:52:32.998Z</time></trkpt><trkpt lat="44.745463186121675" lon="9.313084464560761"><ele>1085.857142857143</ele><time>2026-03-28T14:52:33.998Z</time></trkpt><trkpt lat="44.74552816738715" lon="9.313020070536151"><ele>1086.7142857142858</ele><time>2026-03-28T14:52:34.998Z</time></trkpt><trkpt lat="44.74558924919458" lon="9.312952210503266"><ele>1087.5714285714284</ele><time>2026-03-28T14:52:35.998Z</time></trkpt><trkpt lat="44.745645019445405" lon="9.312875900924519"><ele>1088.4285714285716</ele><time>2026-03-28T14:52:36.998Z</time></trkpt><trkpt lat="44.745703448586546" lon="9.312811251402241"><ele>1089.2857142857142</ele><time>2026-03-28T14:52:37.998Z</time></trkpt><trkpt lat="44.74575262171133" lon="9.31274911811146"><ele>1090.142857142857</ele><time>2026-03-28T14:52:38.998Z</time></trkpt><trkpt lat="44.74576448568424" lon="9.312646227764265"><ele>1091.0</ele><time>2026-03-28T14:52:39.998Z</time></trkpt><trkpt lat="44.745801106405814" lon="9.31246444654459"><ele>1091.0</ele><time>2026-03-28T14:52:41.998Z</time></trkpt><trkpt lat="44.74582903948387" lon="9.312373451743303"><ele>1091.0</ele><time>2026-03-28T14:52:42.998Z</time></trkpt><trkpt lat="44.745837840984244" lon="9.312255914333717"><ele>1091.0</ele><time>2026-03-28T14:52:43.998Z</time></trkpt><trkpt lat="44.74579033946398" lon="9.31209145256278"><ele>1091.0</ele><time>2026-03-28T14:52:44.998Z</time></trkpt><trkpt lat="44.745801870929185" lon="9.311945930108154"><ele>1091.0</ele><time>2026-03-28T14:52:45.998Z</time></trkpt><trkpt lat="44.74584484084104" lon="9.311823619391463"><ele>1090.5</ele><time>2026-03-28T14:52:46.998Z</time></trkpt><trkpt lat="44.74589975507461" lon="9.311713450055091"><ele>1090.0</ele><time>2026-03-28T14:52:47.998Z</time></trkpt><trkpt lat="44.74595020709807" lon="9.311598010255832"><ele>1089.5</ele><time>2026-03-28T14:52:48.998Z</time></trkpt><trkpt lat="44.746022784436136" lon="9.311469341911438"><ele>1089.0</ele><time>2026-03-28T14:52:49.998Z</time></trkpt><trkpt lat="44.746157159384204" lon="9.311368029018455"><ele>1090.0</ele><time>2026-03-28T14:52:50.998Z</time></trkpt><trkpt lat="44.74623911937493" lon="9.311217508623063"><ele>1091.0</ele><time>2026-03-28T14:52:51.998Z</time></trkpt><trkpt lat="44.74630104320431" lon="9.31105815303529"><ele>1092.0</ele><time>2026-03-28T14:52:52.998Z</time></trkpt><trkpt lat="44.746352753170356" lon="9.31089037370321"><ele>1093.0</ele><time>2026-03-28T14:52:53.998Z</time></trkpt><trkpt lat="44.74639278131171" lon="9.310728423340606"><ele>1093.0</ele><time>2026-03-28T14:52:55Z</time></trkpt><trkpt lat="44.746397155509236" lon="9.310593994512486"><ele>1093.0</ele><time>2026-03-28T14:52:56Z</time></trkpt><trkpt lat="44.74642037628788" lon="9.310446312637556"><ele>1093.0</ele><time>2026-03-28T14:52:57Z</time></trkpt><trkpt lat="44.74643424444587" lon="9.310290905426307"><ele>1093.0</ele><time>2026-03-28T14:52:58Z</time></trkpt><trkpt lat="44.74644848547279" lon="9.310141965109239"><ele>1093.0</ele><time>2026-03-28T14:52:59Z</time></trkpt><trkpt lat="44.74646160398358" lon="9.310005952477828"><ele>1092.6</ele><time>2026-03-28T14:53:00Z</time></trkpt><trkpt lat="44.74647720069543" lon="9.309865082192392"><ele>1092.1999999999998</ele><time>2026-03-28T14:53:01Z</time></trkpt><trkpt lat="44.74645388603225" lon="9.309713734131972"><ele>1091.8</ele><time>2026-03-28T14:53:02Z</time></trkpt><trkpt lat="44.74647102042547" lon="9.309576394891542"><ele>1091.3999999999999</ele><time>2026-03-28T14:53:03Z</time></trkpt><trkpt lat="44.7464914704763" lon="9.30943564236073"><ele>1091.0</ele><time>2026-03-28T14:53:04Z</time></trkpt><trkpt lat="44.74651404907866" lon="9.309327868291588"><ele>1091.0</ele><time>2026-03-28T14:53:05Z</time></trkpt><trkpt lat="44.746534294393655" lon="9.309235530190877"><ele>1091.0</ele><time>2026-03-28T14:53:06Z</time></trkpt><trkpt lat="44.74654787409332" lon="9.30913907772928"><ele>1091.0</ele><time>2026-03-28T14:53:07Z</time></trkpt><trkpt lat="44.746538446088074" lon="9.309042157477785"><ele>1091.0</ele><time>2026-03-28T14:53:08Z</time></trkpt><trkpt lat="44.74653147984738" lon="9.308933484858388"><ele>1091.0</ele><time>2026-03-28T14:53:09Z</time></trkpt><trkpt lat="44.74652909768336" lon="9.308840971252037"><ele>1091.0</ele><time>2026-03-28T14:53:10Z</time></trkpt><trkpt lat="44.746529737175265" lon="9.308741387376886"><ele>1091.0</ele><time>2026-03-28T14:53:11Z</time></trkpt><trkpt lat="44.74652608928474" lon="9.3086385411545"><ele>1090.6666666666667</ele><time>2026-03-28T14:53:12Z</time></trkpt><trkpt lat="44.746537863237336" lon="9.308536509687183"><ele>1090.3333333333335</ele><time>2026-03-28T14:53:13Z</time></trkpt><trkpt lat="44.74653143423187" lon="9.308439025462349"><ele>1090.0</ele><time>2026-03-28T14:53:14Z</time></trkpt><trkpt lat="44.74651749974137" lon="9.308343822521595"><ele>1089.6666666666667</ele><time>2026-03-28T14:53:15Z</time></trkpt><trkpt lat="44.746497046174355" lon="9.308237927254487"><ele>1089.3333333333333</ele><time>2026-03-28T14:53:16Z</time></trkpt><trkpt lat="44.746487468391024" lon="9.308148968320754"><ele>1089.0</ele><time>2026-03-28T14:53:17Z</time></trkpt><trkpt lat="44.746487677646265" lon="9.30797754327204"><ele>1088.0</ele><time>2026-03-28T14:53:19Z</time></trkpt><trkpt lat="44.74649490642584" lon="9.307882617587344"><ele>1087.0</ele><time>2026-03-28T14:53:20Z</time></trkpt><trkpt lat="44.746504878384876" lon="9.307773701440532"><ele>1086.0</ele><time>2026-03-28T14:53:21Z</time></trkpt><trkpt lat="44.74651385174036" lon="9.30765075981301"><ele>1085.0</ele><time>2026-03-28T14:53:22Z</time></trkpt><trkpt lat="44.74652150037235" lon="9.307522989415654"><ele>1084.0</ele><time>2026-03-28T14:53:23Z</time></trkpt><trkpt lat="44.746540461261674" lon="9.30739285438466"><ele>1083.0</ele><time>2026-03-28T14:53:23.999Z</time></trkpt><trkpt lat="44.74656546782762" lon="9.307272225365143"><ele>1081.6</ele><time>2026-03-28T14:53:24.999Z</time></trkpt><trkpt lat="44.74660381160998" lon="9.307147074461065"><ele>1080.1999999999998</ele><time>2026-03-28T14:53:25.999Z</time></trkpt><trkpt lat="44.74665298561833" lon="9.306993432065095"><ele>1078.8</ele><time>2026-03-28T14:53:26.999Z</time></trkpt><trkpt lat="44.746707854912586" lon="9.306838768214142"><ele>1077.3999999999999</ele><time>2026-03-28T14:53:27.999Z</time></trkpt><trkpt lat="44.746739651897784" lon="9.306690394310392"><ele>1076.0</ele><time>2026-03-28T14:53:28.999Z</time></trkpt><trkpt lat="44.746757332660096" lon="9.306568327617136"><ele>1076.0</ele><time>2026-03-28T14:53:29.999Z</time></trkpt><trkpt lat="44.746747536783175" lon="9.306465088081927"><ele>1076.0</ele><time>2026-03-28T14:53:30.999Z</time></trkpt><trkpt lat="44.746742386328705" lon="9.306366839425158"><ele>1076.0</ele><time>2026-03-28T14:53:31.999Z</time></trkpt><trkpt lat="44.74672087262929" lon="9.306282869869394"><ele>1076.0</ele><time>2026-03-28T14:53:32.999Z</time></trkpt><trkpt lat="44.7466815298796" lon="9.306188193639356"><ele>1076.0</ele><time>2026-03-28T14:53:33.999Z</time></trkpt><trkpt lat="44.746694238255984" lon="9.306078377847804"><ele>1076.0</ele><time>2026-03-28T14:53:34.999Z</time></trkpt><trkpt lat="44.746692331898394" lon="9.3059701860585"><ele>1076.0</ele><time>2026-03-28T14:53:35.999Z</time></trkpt><trkpt lat="44.74669174486875" lon="9.305865659128976"><ele>1074.8333333333335</ele><time>2026-03-28T14:53:36.999Z</time></trkpt><trkpt lat="44.74669247589117" lon="9.305768488269601"><ele>1073.6666666666667</ele><time>2026-03-28T14:53:37.999Z</time></trkpt><trkpt lat="44.74669482439156" lon="9.305663506544104"><ele>1072.5</ele><time>2026-03-28T14:53:38.999Z</time></trkpt><trkpt lat="44.74665933031739" lon="9.305566370574097"><ele>1071.3333333333333</ele><time>2026-03-28T14:53:39.999Z</time></trkpt><trkpt lat="44.746656351507475" lon="9.305452041615029"><ele>1070.1666666666665</ele><time>2026-03-28T14:53:40.999Z</time></trkpt><trkpt lat="44.74665689758261" lon="9.3053419658144"><ele>1069.0</ele><time>2026-03-28T14:53:41.999Z</time></trkpt><trkpt lat="44.74665977469847" lon="9.305231423267806"><ele>1069.0</ele><time>2026-03-28T14:53:42.999Z</time></trkpt><trkpt lat="44.74664766235305" lon="9.305128627619608"><ele>1069.0</ele><time>2026-03-28T14:53:43.999Z</time></trkpt><trkpt lat="44.74659253926212" lon="9.305037064513892"><ele>1069.0</ele><time>2026-03-28T14:53:44.999Z</time></trkpt><trkpt lat="44.74654149854413" lon="9.304920850525026"><ele>1069.0</ele><time>2026-03-28T14:53:45.999Z</time></trkpt><trkpt lat="44.7464775564647" lon="9.30481996809021"><ele>1069.0</ele><time>2026-03-28T14:53:46.999Z</time></trkpt><trkpt lat="44.74642065243247" lon="9.304699518161014"><ele>1068.6000000000001</ele><time>2026-03-28T14:53:47.999Z</time></trkpt><trkpt lat="44.746366757663736" lon="9.304582156281203"><ele>1068.2</ele><time>2026-03-28T14:53:48.999Z</time></trkpt><trkpt lat="44.74632723296872" lon="9.304453130899995"><ele>1067.8000000000002</ele><time>2026-03-28T14:53:49.999Z</time></trkpt><trkpt lat="44.746317130624334" lon="9.304352683481111"><ele>1067.4</ele><time>2026-03-28T14:53:50.999Z</time></trkpt><trkpt lat="44.74627407391058" lon="9.304219497935849"><ele>1067.0</ele><time>2026-03-28T14:53:51.999Z</time></trkpt><trkpt lat="44.746230432887046" lon="9.304084478096145"><ele>1067.0</ele><time>2026-03-28T14:53:52.999Z</time></trkpt><trkpt lat="44.74619675943004" lon="9.30393809816847"><ele>1067.0</ele><time>2026-03-28T14:53:53.999Z</time></trkpt><trkpt lat="44.746186805168065" lon="9.303807754902447"><ele>1067.0</ele><time>2026-03-28T14:53:54.999Z</time></trkpt><trkpt lat="44.74616669022389" lon="9.303675237884336"><ele>1067.0</ele><time>2026-03-28T14:53:55.999Z</time></trkpt><trkpt lat="44.74614875499685" lon="9.303547467239243"><ele>1067.0</ele><time>2026-03-28T14:53:56.999Z</time></trkpt><trkpt lat="44.74612452123824" lon="9.303409276967194"><ele>1066.8</ele><time>2026-03-28T14:53:57.999Z</time></trkpt><trkpt lat="44.74609897254475" lon="9.303270640477278"><ele>1066.6</ele><time>2026-03-28T14:53:58.999Z</time></trkpt><trkpt lat="44.746072766998886" lon="9.303137602946736"><ele>1066.3999999999999</ele><time>2026-03-28T14:53:59.999Z</time></trkpt><trkpt lat="44.746047873660785" lon="9.30301896212968"><ele>1066.2</ele><time>2026-03-28T14:54:00.999Z</time></trkpt><trkpt lat="44.746040250339526" lon="9.302924155545501"><ele>1066.0</ele><time>2026-03-28T14:54:01.999Z</time></trkpt><trkpt lat="44.74600466281275" lon="9.302759853305794"><ele>1065.2857142857142</ele><time>2026-03-28T14:54:03.999Z</time></trkpt><trkpt lat="44.745984292225586" lon="9.302669143978042"><ele>1064.5714285714284</ele><time>2026-03-28T14:54:04.999Z</time></trkpt><trkpt lat="44.74596668283049" lon="9.30257408959704"><ele>1063.857142857143</ele><time>2026-03-28T14:54:05.999Z</time></trkpt><trkpt lat="44.745950931971336" lon="9.302472714063688"><ele>1063.142857142857</ele><time>2026-03-28T14:54:06.999Z</time></trkpt><trkpt lat="44.745937905986864" lon="9.302365644102542"><ele>1062.4285714285716</ele><time>2026-03-28T14:54:07.999Z</time></trkpt><trkpt lat="44.74592539702354" lon="9.302256304963981"><ele>1061.7142857142858</ele><time>2026-03-28T14:54:08.999Z</time></trkpt><trkpt lat="44.745912782810635" lon="9.302147885556824"><ele>1061.0</ele><time>2026-03-28T14:54:09.999Z</time></trkpt><trkpt lat="44.7459023963785" lon="9.302057162674165"><ele>1063.0</ele><time>2026-03-28T14:54:10.999Z</time></trkpt><trkpt lat="44.74588983297338" lon="9.301969055127469"><ele>1065.0</ele><time>2026-03-28T14:54:12.999Z</time></trkpt><trkpt lat="44.74594121231256" lon="9.301904674936658"><ele>1067.0</ele><time>2026-03-28T14:56:20.999Z</time></trkpt><trkpt lat="44.7460165238152" lon="9.301719729207212"><ele>1069.0</ele><time>2026-03-28T14:56:23.999Z</time></trkpt><trkpt lat="44.746002622504356" lon="9.301556010914691"><ele>1071.0</ele><time>2026-03-28T14:56:25.998Z</time></trkpt><trkpt lat="44.74604302407699" lon="9.301385209711151"><ele>1073.8333333333333</ele><time>2026-03-28T14:56:27.998Z</time></trkpt><trkpt lat="44.74607909298387" lon="9.301307406770276"><ele>1076.6666666666667</ele><time>2026-03-28T14:56:28.998Z</time></trkpt><trkpt lat="44.74611360398992" lon="9.301210275057182"><ele>1079.5</ele><time>2026-03-28T14:56:29.998Z</time></trkpt><trkpt lat="44.746164039353054" lon="9.301121471744352"><ele>1082.3333333333335</ele><time>2026-03-28T14:56:30.998Z</time></trkpt><trkpt lat="44.7462330759278" lon="9.301040404706391"><ele>1085.1666666666667</ele><time>2026-03-28T14:56:31.998Z</time></trkpt><trkpt lat="44.74627489841484" lon="9.300929346662748"><ele>1088.0</ele><time>2026-03-28T14:56:32.998Z</time></trkpt><trkpt lat="44.74629778633976" lon="9.300837307506077"><ele>1088.0</ele><time>2026-03-28T14:56:33.998Z</time></trkpt><trkpt lat="44.74632855954556" lon="9.300725673321644"><ele>1088.0</ele><time>2026-03-28T14:56:34.998Z</time></trkpt><trkpt lat="44.74637427266439" lon="9.300640614122363"><ele>1088.0</ele><time>2026-03-28T14:56:35.998Z</time></trkpt><trkpt lat="44.746432308129215" lon="9.300602438887879"><ele>1088.0</ele><time>2026-03-28T14:56:36.998Z</time></trkpt><trkpt lat="44.74652243944632" lon="9.30058585531411"><ele>1088.0</ele><time>2026-03-28T14:56:37.998Z</time></trkpt><trkpt lat="44.746623480134616" lon="9.300550167070368"><ele>1088.0</ele><time>2026-03-28T14:56:38.998Z</time></trkpt><trkpt lat="44.74669249266715" lon="9.300515594507594"><ele>1088.3333333333335</ele><time>2026-03-28T14:56:39.998Z</time></trkpt><trkpt lat="44.74675505818829" lon="9.300453602658129"><ele>1088.6666666666667</ele><time>2026-03-28T14:56:40.998Z</time></trkpt><trkpt lat="44.74679322502561" lon="9.300365974408939"><ele>1089.0</ele><time>2026-03-28T14:56:41.998Z</time></trkpt><trkpt lat="44.74685634265831" lon="9.300243435319636"><ele>1089.3333333333333</ele><time>2026-03-28T14:56:43.998Z</time></trkpt><trkpt lat="44.746919312257454" lon="9.300184796728619"><ele>1089.6666666666665</ele><time>2026-03-28T14:56:45.998Z</time></trkpt><trkpt lat="44.747027327271454" lon="9.300158692187248"><ele>1090.0</ele><time>2026-03-28T14:56:47.998Z</time></trkpt><trkpt lat="44.74708731824715" lon="9.300125459907855"><ele>1090.8333333333333</ele><time>2026-03-28T14:56:48.998Z</time></trkpt><trkpt lat="44.74713703951725" lon="9.300018502146255"><ele>1091.6666666666665</ele><time>2026-03-28T14:56:50.998Z</time></trkpt><trkpt lat="44.74719075247783" lon="9.29991573985162"><ele>1092.5</ele><time>2026-03-28T14:56:51.998Z</time></trkpt><trkpt lat="44.74725389018859" lon="9.299836685799018"><ele>1093.3333333333333</ele><time>2026-03-28T14:56:52.998Z</time></trkpt><trkpt lat="44.747310857698345" lon="9.299789048716022"><ele>1094.1666666666667</ele><time>2026-03-28T14:56:53.998Z</time></trkpt><trkpt lat="44.74736960681498" lon="9.29973736871571"><ele>1095.0</ele><time>2026-03-28T14:56:54.998Z</time></trkpt><trkpt lat="44.747429951397415" lon="9.299683720539408"><ele>1094.8</ele><time>2026-03-28T14:56:55.998Z</time></trkpt><trkpt lat="44.74749393669254" lon="9.29961370789372"><ele>1094.6</ele><time>2026-03-28T14:56:56.998Z</time></trkpt><trkpt lat="44.7475949076114" lon="9.29947325511726"><ele>1094.4</ele><time>2026-03-28T14:56:58.998Z</time></trkpt><trkpt lat="44.74765160327167" lon="9.299391549450222"><ele>1094.2</ele><time>2026-03-28T14:56:59.998Z</time></trkpt><trkpt lat="44.747695524850414" lon="9.299291495822988"><ele>1094.0</ele><time>2026-03-28T14:57:00.998Z</time></trkpt><trkpt lat="44.74773256426755" lon="9.299170321601588"><ele>1094.0</ele><time>2026-03-28T14:57:01.998Z</time></trkpt><trkpt lat="44.7477730718673" lon="9.299081796305249"><ele>1094.0</ele><time>2026-03-28T14:57:02.998Z</time></trkpt><trkpt lat="44.747815172025824" lon="9.298946926314851"><ele>1094.0</ele><time>2026-03-28T14:57:04.998Z</time></trkpt><trkpt lat="44.74780517222095" lon="9.298754688812172"><ele>1094.0</ele><time>2026-03-28T14:57:07Z</time></trkpt><trkpt lat="44.74783578738715" lon="9.298599751253455"><ele>1094.0</ele><time>2026-03-28T14:57:09Z</time></trkpt><trkpt lat="44.74786889526973" lon="9.298517000663542"><ele>1095.0</ele><time>2026-03-28T14:57:10Z</time></trkpt><trkpt lat="44.74792852028391" lon="9.298433474108053"><ele>1096.0</ele><time>2026-03-28T14:57:11Z</time></trkpt><trkpt lat="44.74796754717061" lon="9.298356864234123"><ele>1097.0</ele><time>2026-03-28T14:57:12Z</time></trkpt><trkpt lat="44.74800573306846" lon="9.298230078195186"><ele>1098.0</ele><time>2026-03-28T14:57:14Z</time></trkpt><trkpt lat="44.74798732432325" lon="9.298117463523967"><ele>1099.0</ele><time>2026-03-28T14:57:16Z</time></trkpt><trkpt lat="44.74795956541219" lon="9.298037482040968"><ele>1100.0</ele><time>2026-03-28T14:57:18Z</time></trkpt><trkpt lat="44.7479035182909" lon="9.297958982499376"><ele>1100.5714285714287</ele><time>2026-03-28T14:57:20Z</time></trkpt><trkpt lat="44.7478910804314" lon="9.297842192364604"><ele>1101.142857142857</ele><time>2026-03-28T14:57:22Z</time></trkpt><trkpt lat="44.74788191595421" lon="9.297751367281137"><ele>1101.7142857142858</ele><time>2026-03-28T14:57:23Z</time></trkpt><trkpt lat="44.74786280880714" lon="9.297663985990981"><ele>1102.2857142857142</ele><time>2026-03-28T14:57:24Z</time></trkpt><trkpt lat="44.747838446018655" lon="9.297570932687218"><ele>1102.857142857143</ele><time>2026-03-28T14:57:25Z</time></trkpt><trkpt lat="44.74781876194548" lon="9.297479387871013"><ele>1103.4285714285716</ele><time>2026-03-28T14:57:26Z</time></trkpt><trkpt lat="44.74780334432449" lon="9.297390605257418"><ele>1104.0</ele><time>2026-03-28T14:57:27Z</time></trkpt><trkpt lat="44.747799404267326" lon="9.297226993671295"><ele>1105.0</ele><time>2026-03-28T14:57:29Z</time></trkpt><trkpt lat="44.74784161185109" lon="9.297133689635544"><ele>1106.0</ele><time>2026-03-28T14:57:30Z</time></trkpt><trkpt lat="44.74789526502299" lon="9.297061363178079"><ele>1107.0</ele><time>2026-03-28T14:57:31Z</time></trkpt><trkpt lat="44.747941406635874" lon="9.2969790958595"><ele>1108.0</ele><time>2026-03-28T14:57:32Z</time></trkpt><trkpt lat="44.74800170707183" lon="9.296899952502725"><ele>1109.0</ele><time>2026-03-28T14:57:32.999Z</time></trkpt><trkpt lat="44.74804916488744" lon="9.296819644805584"><ele>1110.0</ele><time>2026-03-28T14:57:33.999Z</time></trkpt><trkpt lat="44.748110354582636" lon="9.296738278901664"><ele>1110.0</ele><time>2026-03-28T14:57:34.999Z</time></trkpt><trkpt lat="44.748152642599884" lon="9.296645999901642"><ele>1110.0</ele><time>2026-03-28T14:57:35.999Z</time></trkpt><trkpt lat="44.74819586551184" lon="9.29654463865163"><ele>1110.0</ele><time>2026-03-28T14:57:36.999Z</time></trkpt><trkpt lat="44.748229392530696" lon="9.296415817354942"><ele>1110.0</ele><time>2026-03-28T14:57:38.999Z</time></trkpt><trkpt lat="44.74829162006495" lon="9.296394293911133"><ele>1110.0</ele><time>2026-03-28T14:57:40.999Z</time></trkpt><trkpt lat="44.7483575773713" lon="9.296422317773223"><ele>1110.0</ele><time>2026-03-28T14:58:05.999Z</time></trkpt><trkpt lat="44.748466325191124" lon="9.296500895423916"><ele>1113.0</ele><time>2026-03-28T14:58:07.999Z</time></trkpt><trkpt lat="44.748546693803654" lon="9.29658052926313"><ele>1116.0</ele><time>2026-03-28T14:58:08.999Z</time></trkpt><trkpt lat="44.748580523324364" lon="9.296670971007908"><ele>1119.0</ele><time>2026-03-28T14:58:09.999Z</time></trkpt><trkpt lat="44.74860065502886" lon="9.296773880832248"><ele>1122.0</ele><time>2026-03-28T14:58:10.999Z</time></trkpt><trkpt lat="44.74862189578464" lon="9.29690986644278"><ele>1125.0</ele><time>2026-03-28T14:58:11.999Z</time></trkpt><trkpt lat="44.74864714662073" lon="9.29706017860961"><ele>1125.0</ele><time>2026-03-28T14:58:12.999Z</time></trkpt><trkpt lat="44.748670454054306" lon="9.297203201585225"><ele>1125.0</ele><time>2026-03-28T14:58:13.999Z</time></trkpt><trkpt lat="44.74873843910889" lon="9.297363981825159"><ele>1125.0</ele><time>2026-03-28T14:58:14.999Z</time></trkpt><trkpt lat="44.7487989893455" lon="9.297473926629815"><ele>1125.0</ele><time>2026-03-28T14:58:15.999Z</time></trkpt><trkpt lat="44.748857202034664" lon="9.297573108142432"><ele>1125.0</ele><time>2026-03-28T14:58:16.999Z</time></trkpt><trkpt lat="44.74891152222042" lon="9.297673654306344"><ele>1123.6</ele><time>2026-03-28T14:58:17.999Z</time></trkpt><trkpt lat="44.748973718887584" lon="9.297767451530543"><ele>1122.2</ele><time>2026-03-28T14:58:18.999Z</time></trkpt><trkpt lat="44.74902373332387" lon="9.297893269168183"><ele>1120.8</ele><time>2026-03-28T14:58:19.999Z</time></trkpt><trkpt lat="44.74906027026294" lon="9.298005959714544"><ele>1119.4</ele><time>2026-03-28T14:58:20.999Z</time></trkpt><trkpt lat="44.74908354454809" lon="9.298157017153672"><ele>1118.0</ele><time>2026-03-28T14:58:22.999Z</time></trkpt><trkpt lat="44.74914406160349" lon="9.298301545587373"><ele>1116.6</ele><time>2026-03-28T14:58:24.999Z</time></trkpt><trkpt lat="44.74919881528947" lon="9.29836500301345"><ele>1115.1999999999998</ele><time>2026-03-28T14:58:25.999Z</time></trkpt><trkpt lat="44.749293958155924" lon="9.298496353172974"><ele>1113.8</ele><time>2026-03-28T14:58:26.999Z</time></trkpt><trkpt lat="44.74935816177402" lon="9.298593340851557"><ele>1112.3999999999999</ele><time>2026-03-28T14:58:27.999Z</time></trkpt><trkpt lat="44.74941769804964" lon="9.298676449950744"><ele>1111.0</ele><time>2026-03-28T14:58:28.999Z</time></trkpt><trkpt lat="44.74948658502883" lon="9.29875801531389"><ele>1110.8</ele><time>2026-03-28T14:58:29.999Z</time></trkpt><trkpt lat="44.74953760345086" lon="9.298831255618698"><ele>1110.6</ele><time>2026-03-28T14:58:30.999Z</time></trkpt><trkpt lat="44.74961034350652" lon="9.298875537675626"><ele>1110.4</ele><time>2026-03-28T14:58:32.998Z</time></trkpt><trkpt lat="44.749712354081915" lon="9.298895158757315"><ele>1110.2</ele><time>2026-03-28T14:58:34.998Z</time></trkpt><trkpt lat="44.749810043969354" lon="9.298856873861544"><ele>1110.0</ele><time>2026-03-28T14:58:36.998Z</time></trkpt><trkpt lat="44.74988977811812" lon="9.298734062073168"><ele>1110.0</ele><time>2026-03-28T14:58:38.998Z</time></trkpt><trkpt lat="44.74989322655956" lon="9.298633422960862"><ele>1110.0</ele><time>2026-03-28T14:58:40.998Z</time></trkpt><trkpt lat="44.74991498231806" lon="9.298545091707066"><ele>1110.0</ele><time>2026-03-28T14:58:41.998Z</time></trkpt><trkpt lat="44.749925528907646" lon="9.298451209805346"><ele>1110.0</ele><time>2026-03-28T14:58:42.998Z</time></trkpt><trkpt lat="44.74994646761886" lon="9.29828190531579"><ele>1110.0</ele><time>2026-03-28T14:58:44.998Z</time></trkpt><trkpt lat="44.749962695178816" lon="9.298138824121772"><ele>1110.0</ele><time>2026-03-28T14:58:46.998Z</time></trkpt><trkpt lat="44.74999471215823" lon="9.297970134856659"><ele>1108.1666666666667</ele><time>2026-03-28T14:58:47.998Z</time></trkpt><trkpt lat="44.75001497926821" lon="9.297830950703823"><ele>1106.3333333333333</ele><time>2026-03-28T14:58:48.998Z</time></trkpt><trkpt lat="44.75004262050647" lon="9.297727499064395"><ele>1104.5</ele><time>2026-03-28T14:58:49.998Z</time></trkpt><trkpt lat="44.75008685348133" lon="9.297638374912069"><ele>1102.6666666666665</ele><time>2026-03-28T14:58:50.998Z</time></trkpt><trkpt lat="44.750145199103216" lon="9.297573697884573"><ele>1100.8333333333333</ele><time>2026-03-28T14:58:51.998Z</time></trkpt><trkpt lat="44.750205803143686" lon="9.297536901390572"><ele>1099.0</ele><time>2026-03-28T14:58:52.998Z</time></trkpt><trkpt lat="44.7502589371945" lon="9.297322148502207"><ele>1102.25</ele><time>2026-03-28T14:58:54.998Z</time></trkpt><trkpt lat="44.75031249475686" lon="9.29717222248753"><ele>1105.5</ele><time>2026-03-28T14:58:55.998Z</time></trkpt><trkpt lat="44.750421325484666" lon="9.297113852867666"><ele>1108.75</ele><time>2026-03-28T14:58:56.998Z</time></trkpt><trkpt lat="44.750464182277646" lon="9.297013084911349"><ele>1112.0</ele><time>2026-03-28T14:58:57.998Z</time></trkpt><trkpt lat="44.75058350444015" lon="9.29688687613832"><ele>1112.0</ele><time>2026-03-28T14:58:59.998Z</time></trkpt><trkpt lat="44.75065741914696" lon="9.296799193087153"><ele>1112.0</ele><time>2026-03-28T14:59:00.998Z</time></trkpt><trkpt lat="44.75070837406708" lon="9.296707721868232"><ele>1112.0</ele><time>2026-03-28T14:59:01.998Z</time></trkpt><trkpt lat="44.75075669013149" lon="9.296628870370432"><ele>1112.0</ele><time>2026-03-28T14:59:02.998Z</time></trkpt><trkpt lat="44.75082200767254" lon="9.296574541271507"><ele>1112.0</ele><time>2026-03-28T14:59:03.998Z</time></trkpt><trkpt lat="44.750865972515406" lon="9.296503056351339"><ele>1112.0</ele><time>2026-03-28T14:59:04.998Z</time></trkpt><trkpt lat="44.750953933927676" lon="9.296444603458513"><ele>1113.6</ele><time>2026-03-28T14:59:06.998Z</time></trkpt><trkpt lat="44.75103926020013" lon="9.296351377972082"><ele>1115.2</ele><time>2026-03-28T14:59:08.998Z</time></trkpt><trkpt lat="44.75110647079377" lon="9.296270375691556"><ele>1116.8</ele><time>2026-03-28T14:59:09.998Z</time></trkpt><trkpt lat="44.751165057501325" lon="9.296178879183682"><ele>1118.4</ele><time>2026-03-28T14:59:10.998Z</time></trkpt><trkpt lat="44.75123969588669" lon="9.296098665694569"><ele>1120.0</ele><time>2026-03-28T14:59:11.998Z</time></trkpt><trkpt lat="44.75132003835161" lon="9.296024838543307"><ele>1120.0</ele><time>2026-03-28T14:59:13Z</time></trkpt><trkpt lat="44.751386251030745" lon="9.295930099071207"><ele>1120.0</ele><time>2026-03-28T14:59:14Z</time></trkpt><trkpt lat="44.751451091032585" lon="9.295844555456673"><ele>1120.0</ele><time>2026-03-28T14:59:15Z</time></trkpt><trkpt lat="44.751518891667885" lon="9.295782641981528"><ele>1120.0</ele><time>2026-03-28T14:59:16Z</time></trkpt><trkpt lat="44.751578717160086" lon="9.29572904324823"><ele>1120.0</ele><time>2026-03-28T14:59:17Z</time></trkpt><trkpt lat="44.751642688695014" lon="9.295679520044867"><ele>1120.0</ele><time>2026-03-28T14:59:18Z</time></trkpt><trkpt lat="44.7517017722148" lon="9.295606372028201"><ele>1121.8333333333333</ele><time>2026-03-28T14:59:19Z</time></trkpt><trkpt lat="44.75175912900868" lon="9.295535629891408"><ele>1123.6666666666665</ele><time>2026-03-28T14:59:20Z</time></trkpt><trkpt lat="44.75181312812881" lon="9.295426519509146"><ele>1125.5</ele><time>2026-03-28T14:59:22Z</time></trkpt><trkpt lat="44.75188012385189" lon="9.295370422267826"><ele>1127.3333333333333</ele><time>2026-03-28T14:59:24Z</time></trkpt><trkpt lat="44.75192475201116" lon="9.295293959447294"><ele>1129.1666666666667</ele><time>2026-03-28T14:59:28Z</time></trkpt><trkpt lat="44.75198331548416" lon="9.295246348378395"><ele>1131.0</ele><time>2026-03-28T14:59:29Z</time></trkpt><trkpt lat="44.75204690288596" lon="9.29518276819114"><ele>1131.0</ele><time>2026-03-28T14:59:30Z</time></trkpt><trkpt lat="44.752127152622414" lon="9.295099509168683"><ele>1131.0</ele><time>2026-03-28T14:59:32Z</time></trkpt><trkpt lat="44.752241585555694" lon="9.294981217549822"><ele>1131.0</ele><time>2026-03-28T14:59:34Z</time></trkpt><trkpt lat="44.75233787332249" lon="9.29490235797507"><ele>1131.0</ele><time>2026-03-28T14:59:35Z</time></trkpt><trkpt lat="44.75242612307672" lon="9.294834921901613"><ele>1131.0</ele><time>2026-03-28T14:59:36Z</time></trkpt><trkpt lat="44.75248895750658" lon="9.294779354636244"><ele>1131.0</ele><time>2026-03-28T14:59:37Z</time></trkpt><trkpt lat="44.75253905219991" lon="9.294701768742978"><ele>1131.0</ele><time>2026-03-28T14:59:38Z</time></trkpt><trkpt lat="44.752580469521654" lon="9.294631950584579"><ele>1131.0</ele><time>2026-03-28T14:59:40Z</time></trkpt><trkpt lat="44.752685720512886" lon="9.294644383166606"><ele>1131.0</ele><time>2026-03-28T14:59:41.999Z</time></trkpt><trkpt lat="44.75275157970091" lon="9.294624605576958"><ele>1131.0</ele><time>2026-03-28T14:59:45.999Z</time></trkpt><trkpt lat="44.75281741261128" lon="9.294633485647768"><ele>1130.5</ele><time>2026-03-28T14:59:47.999Z</time></trkpt><trkpt lat="44.752888510296756" lon="9.294634653776884"><ele>1130.0</ele><time>2026-03-28T14:59:50.999Z</time></trkpt><trkpt lat="44.752960323033385" lon="9.29460531368554"><ele>1129.5</ele><time>2026-03-28T14:59:52.999Z</time></trkpt><trkpt lat="44.753028228378646" lon="9.29459111442366"><ele>1129.0</ele><time>2026-03-28T14:59:54.999Z</time></trkpt><trkpt lat="44.753127865695404" lon="9.29459927146776"><ele>1128.5</ele><time>2026-03-28T14:59:57.999Z</time></trkpt><trkpt lat="44.753211239562994" lon="9.294568368726994"><ele>1128.0</ele><time>2026-03-28T15:00:00.999Z</time></trkpt><trkpt lat="44.753313806031684" lon="9.294554591818548"><ele>1128.0</ele><time>2026-03-28T15:00:03.999Z</time></trkpt><trkpt lat="44.753418903878476" lon="9.294539214389527"><ele>1128.0</ele><time>2026-03-28T15:00:05.999Z</time></trkpt><trkpt lat="44.75353285107959" lon="9.294460214977573"><ele>1128.0</ele><time>2026-03-28T15:00:07.999Z</time></trkpt><trkpt lat="44.753617034198335" lon="9.29438746146384"><ele>1128.0</ele><time>2026-03-28T15:00:08.999Z</time></trkpt><trkpt lat="44.753702267690336" lon="9.294319289638635"><ele>1128.0</ele><time>2026-03-28T15:00:09.999Z</time></trkpt><trkpt lat="44.75377384126141" lon="9.294202433252067"><ele>1127.6666666666667</ele><time>2026-03-28T15:00:10.999Z</time></trkpt><trkpt lat="44.75383236694557" lon="9.294131933966566"><ele>1127.3333333333333</ele><time>2026-03-28T15:00:11.999Z</time></trkpt><trkpt lat="44.75388598737998" lon="9.29406373958547"><ele>1127.0</ele><time>2026-03-28T15:00:12.999Z</time></trkpt><trkpt lat="44.75393983245814" lon="9.293986258616624"><ele>1126.6666666666665</ele><time>2026-03-28T15:00:13.999Z</time></trkpt><trkpt lat="44.75398370253016" lon="9.293872690024273"><ele>1126.3333333333333</ele><time>2026-03-28T15:00:14.999Z</time></trkpt><trkpt lat="44.754023427699494" lon="9.293787174355774"><ele>1126.0</ele><time>2026-03-28T15:00:15.999Z</time></trkpt><trkpt lat="44.754155325016434" lon="9.293714731715005"><ele>1126.0</ele><time>2026-03-28T15:00:16.999Z</time></trkpt><trkpt lat="44.75424457696823" lon="9.293610064396338"><ele>1126.0</ele><time>2026-03-28T15:00:18.999Z</time></trkpt><trkpt lat="44.75429567981401" lon="9.293557396522807"><ele>1126.0</ele><time>2026-03-28T15:00:20.999Z</time></trkpt><trkpt lat="44.75434586590904" lon="9.293469126220439"><ele>1126.0</ele><time>2026-03-28T15:00:22.999Z</time></trkpt><trkpt lat="44.754428578041136" lon="9.293417423535121"><ele>1126.0</ele><time>2026-03-28T15:00:25.999Z</time></trkpt><trkpt lat="44.75450398024412" lon="9.29335527155346"><ele>1126.0</ele><time>2026-03-28T15:00:27.999Z</time></trkpt><trkpt lat="44.75455957497086" lon="9.293289865427573"><ele>1126.0</ele><time>2026-03-28T15:00:29.999Z</time></trkpt><trkpt lat="44.75461485425311" lon="9.293223675269193"><ele>1126.0</ele><time>2026-03-28T15:00:31.999Z</time></trkpt><trkpt lat="44.754641505822036" lon="9.293135651953591"><ele>1126.0</ele><time>2026-03-28T15:00:33.999Z</time></trkpt><trkpt lat="44.75465280660695" lon="9.2930467507341"><ele>1126.0</ele><time>2026-03-28T15:00:35.999Z</time></trkpt><trkpt lat="44.754710528156195" lon="9.292987332810462"><ele>1126.0</ele><time>2026-03-28T15:00:36.999Z</time></trkpt><trkpt lat="44.75475841097829" lon="9.292862172975349"><ele>1126.0</ele><time>2026-03-28T15:00:38.999Z</time></trkpt><trkpt lat="44.754830814172266" lon="9.292804143116697"><ele>1126.0</ele><time>2026-03-28T15:00:40.998Z</time></trkpt><trkpt lat="44.75494324213637" lon="9.2927816174915"><ele>1126.0</ele><time>2026-03-28T15:00:42.998Z</time></trkpt><trkpt lat="44.75504201713451" lon="9.2927845506306"><ele>1126.0</ele><time>2026-03-28T15:00:43.998Z</time></trkpt><trkpt lat="44.755137826866054" lon="9.292758598722852"><ele>1126.0</ele><time>2026-03-28T15:00:44.998Z</time></trkpt><trkpt lat="44.75520956192551" lon="9.2927064117077"><ele>1126.0</ele><time>2026-03-28T15:00:45.998Z</time></trkpt><trkpt lat="44.75525782114963" lon="9.292632690477172"><ele>1126.8</ele><time>2026-03-28T15:00:46.998Z</time></trkpt><trkpt lat="44.75532163081955" lon="9.292538507973141"><ele>1127.6</ele><time>2026-03-28T15:00:47.998Z</time></trkpt><trkpt lat="44.75536719723675" lon="9.292445942018595"><ele>1128.4</ele><time>2026-03-28T15:00:48.998Z</time></trkpt><trkpt lat="44.75543193062126" lon="9.292304257208404"><ele>1129.2</ele><time>2026-03-28T15:00:50.998Z</time></trkpt><trkpt lat="44.75547889617206" lon="9.292151657609804"><ele>1130.0</ele><time>2026-03-28T15:00:52.998Z</time></trkpt><trkpt lat="44.755503108405414" lon="9.292056765722306"><ele>1131.4285714285713</ele><time>2026-03-28T15:00:53.998Z</time></trkpt><trkpt lat="44.755513757287254" lon="9.291963485721356"><ele>1132.857142857143</ele><time>2026-03-28T15:00:54.998Z</time></trkpt><trkpt lat="44.75550183445397" lon="9.291874277808061"><ele>1134.2857142857142</ele><time>2026-03-28T15:00:55.998Z</time></trkpt><trkpt lat="44.75552179698311" lon="9.291769995006213"><ele>1135.7142857142858</ele><time>2026-03-28T15:00:56.998Z</time></trkpt><trkpt lat="44.75555895345872" lon="9.2916843366669"><ele>1137.142857142857</ele><time>2026-03-28T15:00:57.998Z</time></trkpt><trkpt lat="44.7556004599268" lon="9.291599522722645"><ele>1138.5714285714284</ele><time>2026-03-28T15:00:58.998Z</time></trkpt><trkpt lat="44.75563994748476" lon="9.291518634990094"><ele>1140.0</ele><time>2026-03-28T15:00:59.998Z</time></trkpt><trkpt lat="44.75569387648568" lon="9.29144746475691"><ele>1141.0</ele><time>2026-03-28T15:01:00.998Z</time></trkpt><trkpt lat="44.75574723120089" lon="9.29138164309138"><ele>1142.0</ele><time>2026-03-28T15:01:01.998Z</time></trkpt><trkpt lat="44.75579791427129" lon="9.291188753975042"><ele>1143.0</ele><time>2026-03-28T15:01:03.998Z</time></trkpt><trkpt lat="44.75580628281391" lon="9.291064573349123"><ele>1144.0</ele><time>2026-03-28T15:01:04.998Z</time></trkpt><trkpt lat="44.75583746916745" lon="9.290960930675096"><ele>1145.0</ele><time>2026-03-28T15:01:05.998Z</time></trkpt><trkpt lat="44.75587928362745" lon="9.29085650081537"><ele>1145.0</ele><time>2026-03-28T15:01:06.998Z</time></trkpt><trkpt lat="44.75592452611166" lon="9.290745421946227"><ele>1145.0</ele><time>2026-03-28T15:01:07.998Z</time></trkpt><trkpt lat="44.755973709632535" lon="9.29062559302574"><ele>1145.0</ele><time>2026-03-28T15:01:08.998Z</time></trkpt><trkpt lat="44.75599214039564" lon="9.290515974468065"><ele>1145.0</ele><time>2026-03-28T15:01:09.998Z</time></trkpt><trkpt lat="44.7559885304801" lon="9.290426458138388"><ele>1145.0</ele><time>2026-03-28T15:01:10.998Z</time></trkpt><trkpt lat="44.755999484499526" lon="9.290331256574033"><ele>1145.0</ele><time>2026-03-28T15:01:11.998Z</time></trkpt><trkpt lat="44.75604639781703" lon="9.290238013625268"><ele>1145.8</ele><time>2026-03-28T15:01:12.998Z</time></trkpt><trkpt lat="44.75610339096893" lon="9.290121732691672"><ele>1146.6</ele><time>2026-03-28T15:01:13.998Z</time></trkpt><trkpt lat="44.75616904113836" lon="9.290000283975436"><ele>1147.4</ele><time>2026-03-28T15:01:14.998Z</time></trkpt><trkpt lat="44.75623638240614" lon="9.289888276626863"><ele>1148.2</ele><time>2026-03-28T15:01:15.998Z</time></trkpt><trkpt lat="44.75626901207334" lon="9.289753917908051"><ele>1149.0</ele><time>2026-03-28T15:01:16.998Z</time></trkpt><trkpt lat="44.756286754655825" lon="9.289624851894803"><ele>1150.5</ele><time>2026-03-28T15:01:17.998Z</time></trkpt><trkpt lat="44.75630487816174" lon="9.289506180723793"><ele>1152.0</ele><time>2026-03-28T15:01:19Z</time></trkpt><trkpt lat="44.756327515032304" lon="9.289406677346381"><ele>1153.5</ele><time>2026-03-28T15:01:20Z</time></trkpt><trkpt lat="44.756340576341856" lon="9.28928234548822"><ele>1155.0</ele><time>2026-03-28T15:01:21Z</time></trkpt><trkpt lat="44.756365706584155" lon="9.289170694152826"><ele>1156.5</ele><time>2026-03-28T15:01:22Z</time></trkpt><trkpt lat="44.75639119268629" lon="9.289081225303981"><ele>1158.0</ele><time>2026-03-28T15:01:23Z</time></trkpt><trkpt lat="44.75640976247238" lon="9.288994689731126"><ele>1158.2</ele><time>2026-03-28T15:01:24Z</time></trkpt><trkpt lat="44.756443088398115" lon="9.288864463176179"><ele>1158.4</ele><time>2026-03-28T15:01:26Z</time></trkpt><trkpt lat="44.75651414941497" lon="9.288694012040969"><ele>1158.6000000000001</ele><time>2026-03-28T15:01:28Z</time></trkpt><trkpt lat="44.75655350179535" lon="9.288615653051417"><ele>1158.8</ele><time>2026-03-28T15:01:29Z</time></trkpt><trkpt lat="44.756598698730194" lon="9.288492559746762"><ele>1159.0</ele><time>2026-03-28T15:01:31Z</time></trkpt><trkpt lat="44.756683093428954" lon="9.288416749852344"><ele>1159.0</ele><time>2026-03-28T15:01:33Z</time></trkpt><trkpt lat="44.75676163752664" lon="9.288351575797238"><ele>1159.0</ele><time>2026-03-28T15:01:34Z</time></trkpt><trkpt lat="44.75683580034758" lon="9.288298497607135"><ele>1159.0</ele><time>2026-03-28T15:01:35Z</time></trkpt><trkpt lat="44.756905391462766" lon="9.288242200583857"><ele>1159.0</ele><time>2026-03-28T15:01:36Z</time></trkpt><trkpt lat="44.75697037123896" lon="9.288186910279645"><ele>1159.0</ele><time>2026-03-28T15:01:37Z</time></trkpt><trkpt lat="44.75702827546194" lon="9.288119727472802"><ele>1159.0</ele><time>2026-03-28T15:01:38Z</time></trkpt><trkpt lat="44.757090123004424" lon="9.288061854284031"><ele>1158.0000000000002</ele><time>2026-03-28T15:01:39Z</time></trkpt><trkpt lat="44.75715122407421" lon="9.288007086077597"><ele>1157.0</ele><time>2026-03-28T15:01:40Z</time></trkpt><trkpt lat="44.757209366024085" lon="9.287959915462762"><ele>1156.0</ele><time>2026-03-28T15:01:41Z</time></trkpt><trkpt lat="44.75727371103844" lon="9.287874768632989"><ele>1155.0</ele><time>2026-03-28T15:01:43Z</time></trkpt><trkpt lat="44.75734021161768" lon="9.287856043005782"><ele>1154.0</ele><time>2026-03-28T15:01:45Z</time></trkpt><trkpt lat="44.757414700315216" lon="9.287824404762825"><ele>1153.0000000000002</ele><time>2026-03-28T15:01:46.999Z</time></trkpt><trkpt lat="44.757472240668655" lon="9.28777022771682"><ele>1152.0</ele><time>2026-03-28T15:01:47.999Z</time></trkpt><trkpt lat="44.75754647777739" lon="9.287739724212384"><ele>1152.0</ele><time>2026-03-28T15:01:48.999Z</time></trkpt><trkpt lat="44.75761537047965" lon="9.287705058341258"><ele>1152.0</ele><time>2026-03-28T15:01:49.999Z</time></trkpt><trkpt lat="44.757720547058085" lon="9.287609764950371"><ele>1152.0</ele><time>2026-03-28T15:01:51.999Z</time></trkpt><trkpt lat="44.75777802020788" lon="9.287546983149317"><ele>1152.0</ele><time>2026-03-28T15:01:52.999Z</time></trkpt><trkpt lat="44.75787410088668" lon="9.28747799545442"><ele>1152.0</ele><time>2026-03-28T15:01:54.999Z</time></trkpt><trkpt lat="44.75797466198328" lon="9.28741195355955"><ele>1151.6666666666667</ele><time>2026-03-28T15:01:56.999Z</time></trkpt><trkpt lat="44.75802495757548" lon="9.287330370460142"><ele>1151.3333333333333</ele><time>2026-03-28T15:01:58.999Z</time></trkpt><trkpt lat="44.75809400029986" lon="9.287220267632291"><ele>1151.0</ele><time>2026-03-28T15:02:00.999Z</time></trkpt><trkpt lat="44.75813760742753" lon="9.28713239692979"><ele>1150.6666666666665</ele><time>2026-03-28T15:02:04.999Z</time></trkpt><trkpt lat="44.75814658273547" lon="9.287036659880133"><ele>1150.3333333333333</ele><time>2026-03-28T15:02:07.999Z</time></trkpt><trkpt lat="44.7582027512806" lon="9.286963232106814"><ele>1150.0</ele><time>2026-03-28T15:02:10.999Z</time></trkpt><trkpt lat="44.758295430332296" lon="9.28686516211372"><ele>1150.0</ele><time>2026-03-28T15:02:11.999Z</time></trkpt><trkpt lat="44.75836475677308" lon="9.286846128620267"><ele>1150.0</ele><time>2026-03-28T15:02:14.999Z</time></trkpt><trkpt lat="44.758428908156944" lon="9.28683928266866"><ele>1150.0</ele><time>2026-03-28T15:02:49.998Z</time></trkpt><trkpt lat="44.7584892629504" lon="9.286807343615903"><ele>1150.0</ele><time>2026-03-28T15:02:50.998Z</time></trkpt><trkpt lat="44.758555824705034" lon="9.286785628087785"><ele>1150.0</ele><time>2026-03-28T15:02:51.998Z</time></trkpt><trkpt lat="44.7586418559764" lon="9.286736255834782"><ele>1150.0</ele><time>2026-03-28T15:02:52.998Z</time></trkpt><trkpt lat="44.758735595649526" lon="9.286676233983764"><ele>1150.0</ele><time>2026-03-28T15:02:53.998Z</time></trkpt><trkpt lat="44.75884056382127" lon="9.28661065915257"><ele>1150.0</ele><time>2026-03-28T15:02:54.998Z</time></trkpt><trkpt lat="44.758952460831395" lon="9.286537342438926"><ele>1150.0</ele><time>2026-03-28T15:02:55.998Z</time></trkpt><trkpt lat="44.75907070568976" lon="9.286488573083705"><ele>1150.0</ele><time>2026-03-28T15:02:56.998Z</time></trkpt><trkpt lat="44.75917335310566" lon="9.286455441208291"><ele>1150.0</ele><time>2026-03-28T15:02:57.998Z</time></trkpt><trkpt lat="44.759264749755964" lon="9.286429013297797"><ele>1150.0</ele><time>2026-03-28T15:02:58.998Z</time></trkpt><trkpt lat="44.75934982373685" lon="9.286365448112422"><ele>1150.0</ele><time>2026-03-28T15:02:59.998Z</time></trkpt><trkpt lat="44.75944135074469" lon="9.286359611476012"><ele>1150.0</ele><time>2026-03-28T15:03:00.998Z</time></trkpt><trkpt lat="44.75953445580968" lon="9.286348212379156"><ele>1150.0</ele><time>2026-03-28T15:03:01.998Z</time></trkpt><trkpt lat="44.75963661743242" lon="9.286342085262072"><ele>1152.75</ele><time>2026-03-28T15:03:02.998Z</time></trkpt><trkpt lat="44.759737097191774" lon="9.28628367159111"><ele>1155.5</ele><time>2026-03-28T15:03:03.998Z</time></trkpt><trkpt lat="44.759844655397934" lon="9.286207515620882"><ele>1158.25</ele><time>2026-03-28T15:03:04.998Z</time></trkpt><trkpt lat="44.75994082876162" lon="9.286135683745071"><ele>1161.0</ele><time>2026-03-28T15:03:05.998Z</time></trkpt><trkpt lat="44.760048391747546" lon="9.2860685127415"><ele>1161.0</ele><time>2026-03-28T15:03:06.998Z</time></trkpt><trkpt lat="44.7601588151177" lon="9.28602276929865"><ele>1161.0</ele><time>2026-03-28T15:03:07.998Z</time></trkpt><trkpt lat="44.7602671491947" lon="9.286010329965471"><ele>1161.0</ele><time>2026-03-28T15:03:08.998Z</time></trkpt><trkpt lat="44.760369576148086" lon="9.285985937806585"><ele>1161.0</ele><time>2026-03-28T15:03:09.998Z</time></trkpt><trkpt lat="44.760475383840934" lon="9.285962990310493"><ele>1161.0</ele><time>2026-03-28T15:03:10.998Z</time></trkpt><trkpt lat="44.76058571016767" lon="9.285940570754263"><ele>1158.75</ele><time>2026-03-28T15:03:11.998Z</time></trkpt><trkpt lat="44.76070234033819" lon="9.285920825644672"><ele>1156.5</ele><time>2026-03-28T15:03:12.998Z</time></trkpt><trkpt lat="44.76081819698032" lon="9.285906961882691"><ele>1154.25</ele><time>2026-03-28T15:03:13.998Z</time></trkpt><trkpt lat="44.760934889122375" lon="9.285896583668052"><ele>1152.0</ele><time>2026-03-28T15:03:14.998Z</time></trkpt><trkpt lat="44.76104210665489" lon="9.285889802418296"><ele>1149.0</ele><time>2026-03-28T15:03:15.998Z</time></trkpt><trkpt lat="44.761144226590964" lon="9.2858878715818"><ele>1146.0</ele><time>2026-03-28T15:03:16.998Z</time></trkpt><trkpt lat="44.761250413999996" lon="9.285872914822374"><ele>1143.0</ele><time>2026-03-28T15:03:17.998Z</time></trkpt><trkpt lat="44.76134053387712" lon="9.285799989381252"><ele>1140.0</ele><time>2026-03-28T15:03:18.998Z</time></trkpt><trkpt lat="44.761425562542215" lon="9.285738759055565"><ele>1137.0</ele><time>2026-03-28T15:03:19.998Z</time></trkpt><trkpt lat="44.76151345687714" lon="9.28563462368897"><ele>1140.0</ele><time>2026-03-28T15:03:20.998Z</time></trkpt><trkpt lat="44.76161449338262" lon="9.28558864649732"><ele>1143.0</ele><time>2026-03-28T15:03:21.998Z</time></trkpt><trkpt lat="44.76174132576657" lon="9.28554077612639"><ele>1146.0</ele><time>2026-03-28T15:03:22.998Z</time></trkpt><trkpt lat="44.7618654589171" lon="9.285491767165936"><ele>1149.0</ele><time>2026-03-28T15:03:23.998Z</time></trkpt><trkpt lat="44.76198079772114" lon="9.28544577894493"><ele>1149.0</ele><time>2026-03-28T15:03:25Z</time></trkpt><trkpt lat="44.762095306634926" lon="9.285400923390332"><ele>1149.0</ele><time>2026-03-28T15:03:26Z</time></trkpt><trkpt lat="44.76220199710373" lon="9.285362835006081"><ele>1149.0</ele><time>2026-03-28T15:03:27Z</time></trkpt><trkpt lat="44.762305933881066" lon="9.285347901590683"><ele>1149.0</ele><time>2026-03-28T15:03:28Z</time></trkpt><trkpt lat="44.762402855932606" lon="9.285382451645605"><ele>1149.0</ele><time>2026-03-28T15:03:29Z</time></trkpt><trkpt lat="44.762500706094805" lon="9.285423709208771"><ele>1149.0</ele><time>2026-03-28T15:03:30Z</time></trkpt><trkpt lat="44.762609578731414" lon="9.285456592439163"><ele>1149.0</ele><time>2026-03-28T15:03:31Z</time></trkpt><trkpt lat="44.76272838540198" lon="9.285448861960397"><ele>1149.0</ele><time>2026-03-28T15:03:32Z</time></trkpt><trkpt lat="44.762842898033675" lon="9.285443393853592"><ele>1149.0</ele><time>2026-03-28T15:03:33Z</time></trkpt><trkpt lat="44.762967904358625" lon="9.285457719556515"><ele>1148.5</ele><time>2026-03-28T15:03:34Z</time></trkpt><trkpt lat="44.76308293857939" lon="9.285504264685576"><ele>1148.0</ele><time>2026-03-28T15:03:35Z</time></trkpt><trkpt lat="44.76320872328234" lon="9.28554674480517"><ele>1147.5</ele><time>2026-03-28T15:03:36Z</time></trkpt><trkpt lat="44.7633412590717" lon="9.285563986109613"><ele>1147.0</ele><time>2026-03-28T15:03:37Z</time></trkpt><trkpt lat="44.76346611932242" lon="9.285557740956136"><ele>1143.2</ele><time>2026-03-28T15:03:38Z</time></trkpt><trkpt lat="44.763579463731496" lon="9.285547285238447"><ele>1139.4</ele><time>2026-03-28T15:03:39Z</time></trkpt><trkpt lat="44.763685469986704" lon="9.285537438478848"><ele>1135.6</ele><time>2026-03-28T15:03:40Z</time></trkpt><trkpt lat="44.76378617936427" lon="9.285528069427505"><ele>1131.8</ele><time>2026-03-28T15:03:41Z</time></trkpt><trkpt lat="44.763886040472755" lon="9.285518779291506"><ele>1128.0</ele><time>2026-03-28T15:03:42Z</time></trkpt><trkpt lat="44.76398235491662" lon="9.28550736346766"><ele>1128.0</ele><time>2026-03-28T15:03:43Z</time></trkpt><trkpt lat="44.76407607199252" lon="9.285471870043281"><ele>1128.0</ele><time>2026-03-28T15:03:44Z</time></trkpt><trkpt lat="44.76416904155628" lon="9.28544592100726"><ele>1128.0</ele><time>2026-03-28T15:03:45Z</time></trkpt><trkpt lat="44.76425450401546" lon="9.285386501397142"><ele>1128.0</ele><time>2026-03-28T15:03:46Z</time></trkpt><trkpt lat="44.76433462572779" lon="9.285289064467618"><ele>1128.0</ele><time>2026-03-28T15:03:47Z</time></trkpt><trkpt lat="44.764401593335855" lon="9.28517087456377"><ele>1124.2</ele><time>2026-03-28T15:03:48Z</time></trkpt><trkpt lat="44.764469154992995" lon="9.285070296393826"><ele>1120.4</ele><time>2026-03-28T15:03:49Z</time></trkpt><trkpt lat="44.764534409911285" lon="9.284983730117562"><ele>1116.6000000000001</ele><time>2026-03-28T15:03:50Z</time></trkpt><trkpt lat="44.76461631496174" lon="9.284951103579145"><ele>1112.8</ele><time>2026-03-28T15:03:51Z</time></trkpt><trkpt lat="44.76470231179376" lon="9.284965586819"><ele>1109.0</ele><time>2026-03-28T15:03:52Z</time></trkpt><trkpt lat="44.764798004170196" lon="9.285009197375015"><ele>1109.0</ele><time>2026-03-28T15:03:52.999Z</time></trkpt><trkpt lat="44.76490460957939" lon="9.285059993845014"><ele>1109.0</ele><time>2026-03-28T15:03:53.999Z</time></trkpt><trkpt lat="44.76503757290239" lon="9.285102415452403"><ele>1109.0</ele><time>2026-03-28T15:03:54.999Z</time></trkpt><trkpt lat="44.76516748386706" lon="9.28516450534595"><ele>1109.0</ele><time>2026-03-28T15:03:55.999Z</time></trkpt><trkpt lat="44.76528373992334" lon="9.285223221877025"><ele>1108.0</ele><time>2026-03-28T15:03:56.999Z</time></trkpt><trkpt lat="44.7653991205429" lon="9.285275283606456"><ele>1107.0</ele><time>2026-03-28T15:03:57.999Z</time></trkpt><trkpt lat="44.76552024443228" lon="9.28532749002394"><ele>1106.0</ele><time>2026-03-28T15:03:58.999Z</time></trkpt><trkpt lat="44.7656421900818" lon="9.285387780886525"><ele>1105.0</ele><time>2026-03-28T15:03:59.999Z</time></trkpt><trkpt lat="44.765770537519664" lon="9.285409194162076"><ele>1105.0</ele><time>2026-03-28T15:04:00.999Z</time></trkpt><trkpt lat="44.76589172813694" lon="9.285428479976064"><ele>1105.0</ele><time>2026-03-28T15:04:01.999Z</time></trkpt><trkpt lat="44.766013698974895" lon="9.285446605916377"><ele>1105.0</ele><time>2026-03-28T15:04:02.999Z</time></trkpt><trkpt lat="44.76613584260332" lon="9.2854410345119"><ele>1105.0</ele><time>2026-03-28T15:04:03.999Z</time></trkpt><trkpt lat="44.76625485134003" lon="9.285459677653911"><ele>1106.75</ele><time>2026-03-28T15:04:04.999Z</time></trkpt><trkpt lat="44.766373098314794" lon="9.285474026234775"><ele>1108.5</ele><time>2026-03-28T15:04:05.999Z</time></trkpt><trkpt lat="44.76649094346384" lon="9.285490596476027"><ele>1110.25</ele><time>2026-03-28T15:04:06.999Z</time></trkpt><trkpt lat="44.76660575248141" lon="9.285537204799743"><ele>1112.0</ele><time>2026-03-28T15:04:07.999Z</time></trkpt><trkpt lat="44.76672677960028" lon="9.285542858143431"><ele>1112.0</ele><time>2026-03-28T15:04:08.999Z</time></trkpt><trkpt lat="44.766847566145124" lon="9.285575864077213"><ele>1112.0</ele><time>2026-03-28T15:04:09.999Z</time></trkpt><trkpt lat="44.76696904846273" lon="9.28561618095445"><ele>1112.0</ele><time>2026-03-28T15:04:10.999Z</time></trkpt><trkpt lat="44.76709671046893" lon="9.28565260807907"><ele>1112.0</ele><time>2026-03-28T15:04:11.999Z</time></trkpt><trkpt lat="44.76723155939072" lon="9.285683749867475"><ele>1112.0</ele><time>2026-03-28T15:04:12.999Z</time></trkpt><trkpt lat="44.76737137745546" lon="9.285715605960414"><ele>1112.0</ele><time>2026-03-28T15:04:13.999Z</time></trkpt><trkpt lat="44.767511018696524" lon="9.285750910637912"><ele>1112.0</ele><time>2026-03-28T15:04:14.999Z</time></trkpt><trkpt lat="44.7676453424836" lon="9.285789053601123"><ele>1112.0</ele><time>2026-03-28T15:04:15.999Z</time></trkpt><trkpt lat="44.76777763245347" lon="9.285827121530327"><ele>1112.5</ele><time>2026-03-28T15:04:16.999Z</time></trkpt><trkpt lat="44.76790757553784" lon="9.285865709464083"><ele>1113.0</ele><time>2026-03-28T15:04:17.999Z</time></trkpt><trkpt lat="44.76803328128623" lon="9.28593008825566"><ele>1113.5</ele><time>2026-03-28T15:04:18.999Z</time></trkpt><trkpt lat="44.76816209733189" lon="9.285976727881536"><ele>1114.0</ele><time>2026-03-28T15:04:19.999Z</time></trkpt><trkpt lat="44.76829413023207" lon="9.2859954551831"><ele>1114.0</ele><time>2026-03-28T15:04:20.999Z</time></trkpt><trkpt lat="44.76842126853493" lon="9.286030872098959"><ele>1114.0</ele><time>2026-03-28T15:04:21.999Z</time></trkpt><trkpt lat="44.76854702778045" lon="9.286061110663953"><ele>1114.0</ele><time>2026-03-28T15:04:22.999Z</time></trkpt><trkpt lat="44.76867076274624" lon="9.286094034089297"><ele>1114.0</ele><time>2026-03-28T15:04:23.999Z</time></trkpt><trkpt lat="44.768801820326416" lon="9.286130275453429"><ele>1113.25</ele><time>2026-03-28T15:04:24.999Z</time></trkpt><trkpt lat="44.76893003220804" lon="9.286190950970823"><ele>1112.5</ele><time>2026-03-28T15:04:25.999Z</time></trkpt><trkpt lat="44.769050995784816" lon="9.286212742923956"><ele>1111.75</ele><time>2026-03-28T15:04:26.999Z</time></trkpt><trkpt lat="44.769160748578834" lon="9.286255461153518"><ele>1111.0</ele><time>2026-03-28T15:04:27.999Z</time></trkpt><trkpt lat="44.769272007629795" lon="9.28630730360488"><ele>1112.5</ele><time>2026-03-28T15:04:28.999Z</time></trkpt><trkpt lat="44.76938662807451" lon="9.28635717444737"><ele>1114.0</ele><time>2026-03-28T15:04:29.999Z</time></trkpt><trkpt lat="44.76950082027467" lon="9.28641305745446"><ele>1115.5</ele><time>2026-03-28T15:04:30.999Z</time></trkpt><trkpt lat="44.76961861569656" lon="9.286463275498514"><ele>1117.0</ele><time>2026-03-28T15:04:31.999Z</time></trkpt><trkpt lat="44.76973421794501" lon="9.286511184778227"><ele>1117.0</ele><time>2026-03-28T15:04:32.999Z</time></trkpt><trkpt lat="44.769852864009025" lon="9.286552226097736"><ele>1117.0</ele><time>2026-03-28T15:04:33.999Z</time></trkpt><trkpt lat="44.76996385445804" lon="9.286599634391168"><ele>1117.0</ele><time>2026-03-28T15:04:34.999Z</time></trkpt><trkpt lat="44.77007666033253" lon="9.28665168282824"><ele>1117.0</ele><time>2026-03-28T15:04:35.999Z</time></trkpt><trkpt lat="44.77018633930976" lon="9.286708454754965"><ele>1118.0</ele><time>2026-03-28T15:04:36.999Z</time></trkpt><trkpt lat="44.77030246709852" lon="9.286761744460721"><ele>1119.0</ele><time>2026-03-28T15:04:37.999Z</time></trkpt><trkpt lat="44.770410394614075" lon="9.286819269315052"><ele>1120.0</ele><time>2026-03-28T15:04:38.999Z</time></trkpt><trkpt lat="44.77050878269042" lon="9.286889873865277"><ele>1121.0</ele><time>2026-03-28T15:04:39.999Z</time></trkpt><trkpt lat="44.770586331862546" lon="9.286983174470166"><ele>1121.0</ele><time>2026-03-28T15:04:40.999Z</time></trkpt><trkpt lat="44.77062995651584" lon="9.287106743154762"><ele>1121.0</ele><time>2026-03-28T15:04:41.999Z</time></trkpt><trkpt lat="44.77063395865621" lon="9.287238536547008"><ele>1121.0</ele><time>2026-03-28T15:04:42.999Z</time></trkpt><trkpt lat="44.7706467101718" lon="9.287382528001539"><ele>1121.0</ele><time>2026-03-28T15:04:43.999Z</time></trkpt><trkpt lat="44.77067516694886" lon="9.287522495471185"><ele>1121.0</ele><time>2026-03-28T15:04:44.999Z</time></trkpt><trkpt lat="44.77071108380835" lon="9.287653301021912"><ele>1121.8</ele><time>2026-03-28T15:04:45.999Z</time></trkpt><trkpt lat="44.77077106785828" lon="9.28774595205005"><ele>1122.6</ele><time>2026-03-28T15:04:46.999Z</time></trkpt><trkpt lat="44.770856714544124" lon="9.287778056644909"><ele>1123.4</ele><time>2026-03-28T15:04:47.999Z</time></trkpt><trkpt lat="44.77095617462553" lon="9.287752062487295"><ele>1124.2</ele><time>2026-03-28T15:04:48.999Z</time></trkpt><trkpt lat="44.77105929967739" lon="9.287692634137123"><ele>1125.0</ele><time>2026-03-28T15:04:49.999Z</time></trkpt><trkpt lat="44.7711668567682" lon="9.287619171739282"><ele>1126.4</ele><time>2026-03-28T15:04:50.999Z</time></trkpt><trkpt lat="44.771256370594706" lon="9.28757978356853"><ele>1127.8</ele><time>2026-03-28T15:04:51.999Z</time></trkpt><trkpt lat="44.77135335291301" lon="9.28759614022617"><ele>1129.2</ele><time>2026-03-28T15:04:52.999Z</time></trkpt><trkpt lat="44.77143234419498" lon="9.287711281994818"><ele>1130.6</ele><time>2026-03-28T15:04:53.999Z</time></trkpt><trkpt lat="44.77146550759565" lon="9.287796765122847"><ele>1132.0</ele><time>2026-03-28T15:04:54.999Z</time></trkpt><trkpt lat="44.771488103266094" lon="9.287917028356485"><ele>1132.0</ele><time>2026-03-28T15:04:55.998Z</time></trkpt><trkpt lat="44.77155379843651" lon="9.288035789834005"><ele>1132.0</ele><time>2026-03-28T15:04:56.998Z</time></trkpt><trkpt lat="44.771664074635346" lon="9.288118015230959"><ele>1132.0</ele><time>2026-03-28T15:04:57.998Z</time></trkpt><trkpt lat="44.77178556160197" lon="9.288104509364361"><ele>1132.0</ele><time>2026-03-28T15:04:58.998Z</time></trkpt><trkpt lat="44.77190922120419" lon="9.288183082779927"><ele>1131.4</ele><time>2026-03-28T15:04:59.998Z</time></trkpt><trkpt lat="44.77199435335769" lon="9.288266580873309"><ele>1130.8000000000002</ele><time>2026-03-28T15:05:00.998Z</time></trkpt><trkpt lat="44.772068910012834" lon="9.28836941160411"><ele>1130.2</ele><time>2026-03-28T15:05:01.998Z</time></trkpt><trkpt lat="44.77213206853785" lon="9.288481810896737"><ele>1129.6000000000001</ele><time>2026-03-28T15:05:02.998Z</time></trkpt><trkpt lat="44.77218948440999" lon="9.28858825056082"><ele>1129.0</ele><time>2026-03-28T15:05:03.998Z</time></trkpt><trkpt lat="44.77220668770383" lon="9.288711513678345"><ele>1129.0</ele><time>2026-03-28T15:05:04.998Z</time></trkpt><trkpt lat="44.77224562063265" lon="9.288845900513403"><ele>1129.0</ele><time>2026-03-28T15:05:05.998Z</time></trkpt><trkpt lat="44.772301100582816" lon="9.288977255283257"><ele>1129.0</ele><time>2026-03-28T15:05:06.998Z</time></trkpt><trkpt lat="44.77239163310732" lon="9.289112221770576"><ele>1129.0</ele><time>2026-03-28T15:05:07.998Z</time></trkpt><trkpt lat="44.772468264495515" lon="9.289270152661459"><ele>1127.25</ele><time>2026-03-28T15:05:08.998Z</time></trkpt><trkpt lat="44.77251475893259" lon="9.289431635621117"><ele>1125.5</ele><time>2026-03-28T15:05:09.998Z</time></trkpt><trkpt lat="44.772525143969325" lon="9.289597201311308"><ele>1123.75</ele><time>2026-03-28T15:05:10.998Z</time></trkpt><trkpt lat="44.772549024124494" lon="9.289735885601754"><ele>1122.0</ele><time>2026-03-28T15:05:11.998Z</time></trkpt><trkpt lat="44.772601829647684" lon="9.289877650585938"><ele>1123.5</ele><time>2026-03-28T15:05:12.998Z</time></trkpt><trkpt lat="44.772677502886374" lon="9.290015132360393"><ele>1125.0</ele><time>2026-03-28T15:05:13.998Z</time></trkpt><trkpt lat="44.77277832233685" lon="9.290206934119713"><ele>1126.5</ele><time>2026-03-28T15:05:14.998Z</time></trkpt><trkpt lat="44.77285928629254" lon="9.290356732362119"><ele>1128.0</ele><time>2026-03-28T15:05:15.998Z</time></trkpt><trkpt lat="44.77295032217201" lon="9.290463475914539"><ele>1128.0</ele><time>2026-03-28T15:05:16.998Z</time></trkpt><trkpt lat="44.773047521946275" lon="9.290563212658252"><ele>1128.0</ele><time>2026-03-28T15:05:17.998Z</time></trkpt><trkpt lat="44.77314768927269" lon="9.290631197579417"><ele>1128.0</ele><time>2026-03-28T15:05:18.998Z</time></trkpt><trkpt lat="44.773202964428876" lon="9.290757911034143"><ele>1128.0</ele><time>2026-03-28T15:05:19.998Z</time></trkpt><trkpt lat="44.77322561215346" lon="9.290887086913964"><ele>1128.0</ele><time>2026-03-28T15:05:20.998Z</time></trkpt><trkpt lat="44.77321747668349" lon="9.291024236033834"><ele>1125.25</ele><time>2026-03-28T15:05:21.998Z</time></trkpt><trkpt lat="44.77322361351291" lon="9.291183814945427"><ele>1122.5</ele><time>2026-03-28T15:05:22.998Z</time></trkpt><trkpt lat="44.77325262579625" lon="9.291364529474647"><ele>1119.75</ele><time>2026-03-28T15:05:23.998Z</time></trkpt><trkpt lat="44.77330088652061" lon="9.291549603319769"><ele>1117.0</ele><time>2026-03-28T15:05:24.998Z</time></trkpt><trkpt lat="44.77335896869414" lon="9.291737400362997"><ele>1117.0</ele><time>2026-03-28T15:05:25.998Z</time></trkpt><trkpt lat="44.773419926614096" lon="9.291928531460956"><ele>1117.0</ele><time>2026-03-28T15:05:26.998Z</time></trkpt><trkpt lat="44.77347789543474" lon="9.292123365833014"><ele>1117.0</ele><time>2026-03-28T15:05:27.998Z</time></trkpt><trkpt lat="44.77353453610594" lon="9.292316510079115"><ele>1117.0</ele><time>2026-03-28T15:05:28.998Z</time></trkpt><trkpt lat="44.773588917315195" lon="9.292500805286215"><ele>1117.0</ele><time>2026-03-28T15:05:29.998Z</time></trkpt><trkpt lat="44.773637963173044" lon="9.292673439011564"><ele>1117.0</ele><time>2026-03-28T15:05:31Z</time></trkpt><trkpt lat="44.773668464335024" lon="9.292837455343667"><ele>1117.0</ele><time>2026-03-28T15:05:32Z</time></trkpt><trkpt lat="44.77368064725038" lon="9.293000595421903"><ele>1117.0</ele><time>2026-03-28T15:05:33Z</time></trkpt><trkpt lat="44.77368622182428" lon="9.29315481752831"><ele>1115.6</ele><time>2026-03-28T15:05:34Z</time></trkpt><trkpt lat="44.773699999207054" lon="9.293297272984722"><ele>1114.2</ele><time>2026-03-28T15:05:35Z</time></trkpt><trkpt lat="44.77373203086203" lon="9.293434826912296"><ele>1112.8</ele><time>2026-03-28T15:05:36Z</time></trkpt><trkpt lat="44.773780127398105" lon="9.293558100106575"><ele>1111.4</ele><time>2026-03-28T15:05:37Z</time></trkpt><trkpt lat="44.77383343694998" lon="9.293663865674413"><ele>1110.0</ele><time>2026-03-28T15:05:38Z</time></trkpt><trkpt lat="44.77388472553935" lon="9.293756650837484"><ele>1110.0</ele><time>2026-03-28T15:05:39Z</time></trkpt><trkpt lat="44.77392699149654" lon="9.293828604279332"><ele>1110.0</ele><time>2026-03-28T15:05:40Z</time></trkpt><trkpt lat="44.77399915722919" lon="9.293891491278366"><ele>1110.0</ele><time>2026-03-28T15:05:42Z</time></trkpt><trkpt lat="44.77405861182701" lon="9.293958776986942"><ele>1110.0</ele><time>2026-03-28T15:16:39.999Z</time></trkpt><trkpt lat="44.77416491262297" lon="9.293857202176493"><ele>1110.0</ele><time>2026-03-28T15:16:41.999Z</time></trkpt><trkpt lat="44.774208046471166" lon="9.293756611919852"><ele>1110.0</ele><time>2026-03-28T15:16:42.999Z</time></trkpt><trkpt lat="44.77426388946267" lon="9.293646004168956"><ele>1110.0</ele><time>2026-03-28T15:16:43.999Z</time></trkpt><trkpt lat="44.77433795559727" lon="9.29351584258938"><ele>1110.0</ele><time>2026-03-28T15:16:44.999Z</time></trkpt><trkpt lat="44.77440938600908" lon="9.293372977183338"><ele>1110.0</ele><time>2026-03-28T15:16:45.999Z</time></trkpt><trkpt lat="44.77447255026091" lon="9.293224477555006"><ele>1110.0</ele><time>2026-03-28T15:16:46.999Z</time></trkpt><trkpt lat="44.774526650124685" lon="9.293060579903825"><ele>1109.0</ele><time>2026-03-28T15:16:47.999Z</time></trkpt><trkpt lat="44.774566763964586" lon="9.292886040861054"><ele>1108.0</ele><time>2026-03-28T15:16:48.999Z</time></trkpt><trkpt lat="44.77459203579375" lon="9.29270763156299"><ele>1107.0</ele><time>2026-03-28T15:16:49.999Z</time></trkpt><trkpt lat="44.77460235317892" lon="9.292535648843984"><ele>1106.0</ele><time>2026-03-28T15:16:50.999Z</time></trkpt><trkpt lat="44.77460210505333" lon="9.29236791469569"><ele>1106.2</ele><time>2026-03-28T15:16:51.999Z</time></trkpt><trkpt lat="44.77459064119236" lon="9.292217064488293"><ele>1106.3999999999999</ele><time>2026-03-28T15:16:52.999Z</time></trkpt><trkpt lat="44.774582854554" lon="9.292080851346654"><ele>1106.6</ele><time>2026-03-28T15:16:53.999Z</time></trkpt><trkpt lat="44.77457712752489" lon="9.291928803327863"><ele>1106.8</ele><time>2026-03-28T15:16:54.999Z</time></trkpt><trkpt lat="44.774573428728594" lon="9.291771508595993"><ele>1107.0</ele><time>2026-03-28T15:16:55.999Z</time></trkpt><trkpt lat="44.77456714686706" lon="9.291619250811042"><ele>1107.0</ele><time>2026-03-28T15:16:56.999Z</time></trkpt><trkpt lat="44.77456625352273" lon="9.291480269478857"><ele>1107.0</ele><time>2026-03-28T15:16:57.999Z</time></trkpt><trkpt lat="44.77457247280177" lon="9.291335463083955"><ele>1107.0</ele><time>2026-03-28T15:16:58.999Z</time></trkpt><trkpt lat="44.77459690861124" lon="9.29118553008585"><ele>1107.0</ele><time>2026-03-28T15:16:59.999Z</time></trkpt><trkpt lat="44.774638694610026" lon="9.291040607967693"><ele>1107.0</ele><time>2026-03-28T15:17:00.999Z</time></trkpt><trkpt lat="44.77469477209795" lon="9.290899535456926"><ele>1107.8</ele><time>2026-03-28T15:17:01.999Z</time></trkpt><trkpt lat="44.774759781671456" lon="9.29076672661216"><ele>1108.6</ele><time>2026-03-28T15:17:02.999Z</time></trkpt><trkpt lat="44.77482161494995" lon="9.290655947709212"><ele>1109.3999999999999</ele><time>2026-03-28T15:17:03.999Z</time></trkpt><trkpt lat="44.77486038554673" lon="9.290548051524322"><ele>1110.2</ele><time>2026-03-28T15:17:04.999Z</time></trkpt><trkpt lat="44.77488696775451" lon="9.290416338075298"><ele>1111.0</ele><time>2026-03-28T15:17:05.999Z</time></trkpt><trkpt lat="44.774889900320034" lon="9.290268918414165"><ele>1111.5</ele><time>2026-03-28T15:17:06.999Z</time></trkpt><trkpt lat="44.77489901241087" lon="9.290107890815612"><ele>1112.0</ele><time>2026-03-28T15:17:07.999Z</time></trkpt><trkpt lat="44.77489880237856" lon="9.289948008525942"><ele>1112.5</ele><time>2026-03-28T15:17:08.999Z</time></trkpt><trkpt lat="44.77489839698283" lon="9.289790309297926"><ele>1113.0</ele><time>2026-03-28T15:17:09.999Z</time></trkpt><trkpt lat="44.77489705820241" lon="9.289623973506451"><ele>1113.75</ele><time>2026-03-28T15:17:10.999Z</time></trkpt><trkpt lat="44.77487175519602" lon="9.289458122253318"><ele>1114.5</ele><time>2026-03-28T15:17:11.999Z</time></trkpt><trkpt lat="44.77485421821706" lon="9.289282867426826"><ele>1115.25</ele><time>2026-03-28T15:17:12.999Z</time></trkpt><trkpt lat="44.7748200722514" lon="9.289106658774047"><ele>1116.0</ele><time>2026-03-28T15:17:13.999Z</time></trkpt><trkpt lat="44.77478188597895" lon="9.288933160254965"><ele>1114.75</ele><time>2026-03-28T15:17:14.999Z</time></trkpt><trkpt lat="44.7747387341106" lon="9.288759463190848"><ele>1113.5</ele><time>2026-03-28T15:17:15.999Z</time></trkpt><trkpt lat="44.7747005941096" lon="9.28859435978417"><ele>1112.25</ele><time>2026-03-28T15:17:16.999Z</time></trkpt><trkpt lat="44.77466790853081" lon="9.288436766789216"><ele>1111.0</ele><time>2026-03-28T15:17:17.999Z</time></trkpt><trkpt lat="44.774626841915094" lon="9.288282927719155"><ele>1111.0</ele><time>2026-03-28T15:17:18.999Z</time></trkpt><trkpt lat="44.774601145615904" lon="9.288125120317181"><ele>1111.0</ele><time>2026-03-28T15:17:19.999Z</time></trkpt><trkpt lat="44.774580261084544" lon="9.28797101895703"><ele>1111.0</ele><time>2026-03-28T15:17:20.999Z</time></trkpt><trkpt lat="44.77456570583421" lon="9.287822885083377"><ele>1111.0</ele><time>2026-03-28T15:17:21.999Z</time></trkpt><trkpt lat="44.77456122636012" lon="9.287684162031935"><ele>1111.0</ele><time>2026-03-28T15:17:22.999Z</time></trkpt><trkpt lat="44.774557911458984" lon="9.287540091521407"><ele>1108.75</ele><time>2026-03-28T15:17:23.999Z</time></trkpt><trkpt lat="44.77455462366049" lon="9.287385421821506"><ele>1106.5</ele><time>2026-03-28T15:17:24.999Z</time></trkpt><trkpt lat="44.77455586113477" lon="9.287224719852384"><ele>1104.25</ele><time>2026-03-28T15:17:25.999Z</time></trkpt><trkpt lat="44.774567836375375" lon="9.287065950823276"><ele>1102.0</ele><time>2026-03-28T15:17:26.999Z</time></trkpt><trkpt lat="44.77458069171354" lon="9.28690095018293"><ele>1100.5</ele><time>2026-03-28T15:17:27.999Z</time></trkpt><trkpt lat="44.7745889509915" lon="9.286727955707951"><ele>1099.0</ele><time>2026-03-28T15:17:28.999Z</time></trkpt><trkpt lat="44.77459202908549" lon="9.286547159187334"><ele>1097.5</ele><time>2026-03-28T15:17:29.999Z</time></trkpt><trkpt lat="44.774591525117835" lon="9.286359071441941"><ele>1096.0</ele><time>2026-03-28T15:17:30.999Z</time></trkpt><trkpt lat="44.77459055893331" lon="9.286168543431824"><ele>1095.25</ele><time>2026-03-28T15:17:31.999Z</time></trkpt><trkpt lat="44.77459130084968" lon="9.285984012300409"><ele>1094.5</ele><time>2026-03-28T15:17:32.999Z</time></trkpt><trkpt lat="44.77460053091925" lon="9.28580549781191"><ele>1093.75</ele><time>2026-03-28T15:17:33.999Z</time></trkpt><trkpt lat="44.77462251408535" lon="9.28562967892968"><ele>1093.0</ele><time>2026-03-28T15:17:34.999Z</time></trkpt><trkpt lat="44.77466412420441" lon="9.285456928126964"><ele>1092.5</ele><time>2026-03-28T15:17:35.998Z</time></trkpt><trkpt lat="44.77472404329191" lon="9.285303415809846"><ele>1092.0</ele><time>2026-03-28T15:17:36.998Z</time></trkpt><trkpt lat="44.7747873112563" lon="9.285157155421455"><ele>1091.5</ele><time>2026-03-28T15:17:37.998Z</time></trkpt><trkpt lat="44.7748569361615" lon="9.28501342914549"><ele>1091.0</ele><time>2026-03-28T15:17:38.998Z</time></trkpt><trkpt lat="44.77493592432975" lon="9.284871282330412"><ele>1091.0</ele><time>2026-03-28T15:17:39.998Z</time></trkpt><trkpt lat="44.775022655611075" lon="9.284732051736027"><ele>1091.0</ele><time>2026-03-28T15:17:40.998Z</time></trkpt><trkpt lat="44.77511911234943" lon="9.284605481288626"><ele>1091.0</ele><time>2026-03-28T15:17:41.998Z</time></trkpt><trkpt lat="44.77522150419797" lon="9.28447981380001"><ele>1091.0</ele><time>2026-03-28T15:17:42.998Z</time></trkpt><trkpt lat="44.7753256909676" lon="9.284362056376278"><ele>1088.75</ele><time>2026-03-28T15:17:43.998Z</time></trkpt><trkpt lat="44.775430042122224" lon="9.28425592985026"><ele>1086.5</ele><time>2026-03-28T15:17:44.998Z</time></trkpt><trkpt lat="44.775543819207016" lon="9.284158748333537"><ele>1084.25</ele><time>2026-03-28T15:17:45.998Z</time></trkpt><trkpt lat="44.7756602215512" lon="9.284065799424194"><ele>1082.0</ele><time>2026-03-28T15:17:46.998Z</time></trkpt><trkpt lat="44.775775233719145" lon="9.283968725051935"><ele>1081.5</ele><time>2026-03-28T15:17:47.998Z</time></trkpt><trkpt lat="44.775893063626974" lon="9.283865472083884"><ele>1081.0</ele><time>2026-03-28T15:17:48.998Z</time></trkpt><trkpt lat="44.776006674259484" lon="9.283762832080967"><ele>1080.5</ele><time>2026-03-28T15:17:49.998Z</time></trkpt><trkpt lat="44.776123790827306" lon="9.2836636023565"><ele>1080.0</ele><time>2026-03-28T15:17:50.998Z</time></trkpt><trkpt lat="44.77623606195293" lon="9.283561612141607"><ele>1080.0</ele><time>2026-03-28T15:17:51.998Z</time></trkpt><trkpt lat="44.77635005531595" lon="9.283456916120821"><ele>1080.0</ele><time>2026-03-28T15:17:52.998Z</time></trkpt><trkpt lat="44.776464729737285" lon="9.28334973323529"><ele>1080.0</ele><time>2026-03-28T15:17:53.998Z</time></trkpt><trkpt lat="44.776579543589506" lon="9.283249914299224"><ele>1080.0</ele><time>2026-03-28T15:17:54.998Z</time></trkpt><trkpt lat="44.77668279300497" lon="9.283166389512438"><ele>1079.6</ele><time>2026-03-28T15:17:55.998Z</time></trkpt><trkpt lat="44.77676405299308" lon="9.283096709433046"><ele>1079.2</ele><time>2026-03-28T15:17:56.998Z</time></trkpt><trkpt lat="44.77682820751773" lon="9.283022458039227"><ele>1078.8</ele><time>2026-03-28T15:17:57.998Z</time></trkpt><trkpt lat="44.77687994463606" lon="9.282922512565126"><ele>1078.4</ele><time>2026-03-28T15:17:58.998Z</time></trkpt><trkpt lat="44.776932865277175" lon="9.28279219448632"><ele>1078.0</ele><time>2026-03-28T15:17:59.998Z</time></trkpt><trkpt lat="44.77696922231723" lon="9.282625510663562"><ele>1075.8</ele><time>2026-03-28T15:18:00.998Z</time></trkpt><trkpt lat="44.77702167630677" lon="9.28249672696834"><ele>1073.6</ele><time>2026-03-28T15:18:01.998Z</time></trkpt><trkpt lat="44.777078196739126" lon="9.282366360540504"><ele>1071.4</ele><time>2026-03-28T15:18:02.998Z</time></trkpt><trkpt lat="44.77714890647167" lon="9.282252107623284"><ele>1069.2</ele><time>2026-03-28T15:18:03.998Z</time></trkpt><trkpt lat="44.77722892103684" lon="9.282159513927358"><ele>1067.0</ele><time>2026-03-28T15:18:04.998Z</time></trkpt><trkpt lat="44.777307996540706" lon="9.282080082760233"><ele>1067.0</ele><time>2026-03-28T15:18:05.998Z</time></trkpt><trkpt lat="44.77736871752835" lon="9.282010900769007"><ele>1067.0</ele><time>2026-03-28T15:18:07Z</time></trkpt><trkpt lat="44.77739861178618" lon="9.281892951409178"><ele>1067.0</ele><time>2026-03-28T15:18:08Z</time></trkpt><trkpt lat="44.77739931452671" lon="9.281738526553202"><ele>1067.0</ele><time>2026-03-28T15:18:09Z</time></trkpt><trkpt lat="44.77737781160931" lon="9.281587814191594"><ele>1067.0</ele><time>2026-03-28T15:18:10Z</time></trkpt><trkpt lat="44.77738155975139" lon="9.281447486698962"><ele>1065.25</ele><time>2026-03-28T15:18:11Z</time></trkpt><trkpt lat="44.77742335431085" lon="9.281281510351198"><ele>1063.5</ele><time>2026-03-28T15:18:12Z</time></trkpt><trkpt lat="44.77747217391096" lon="9.281098192918213"><ele>1061.75</ele><time>2026-03-28T15:18:13Z</time></trkpt><trkpt lat="44.777533056052235" lon="9.28092584548121"><ele>1060.0</ele><time>2026-03-28T15:18:14Z</time></trkpt><trkpt lat="44.77758643241546" lon="9.280730642768033"><ele>1058.5</ele><time>2026-03-28T15:18:15Z</time></trkpt><trkpt lat="44.77763494216153" lon="9.280534395046082"><ele>1057.0</ele><time>2026-03-28T15:18:16Z</time></trkpt><trkpt lat="44.77768455048617" lon="9.2803463978356"><ele>1055.5</ele><time>2026-03-28T15:18:17Z</time></trkpt><trkpt lat="44.77774870667575" lon="9.28016248883473"><ele>1054.0</ele><time>2026-03-28T15:18:18Z</time></trkpt><trkpt lat="44.77780773741643" lon="9.279987135519193"><ele>1052.5</ele><time>2026-03-28T15:18:19Z</time></trkpt><trkpt lat="44.77785390858679" lon="9.279806753435762"><ele>1051.0</ele><time>2026-03-28T15:18:20Z</time></trkpt><trkpt lat="44.777884768621455" lon="9.279635053725746"><ele>1049.5</ele><time>2026-03-28T15:18:21Z</time></trkpt><trkpt lat="44.77791240330688" lon="9.27945646048246"><ele>1048.0</ele><time>2026-03-28T15:18:22Z</time></trkpt><trkpt lat="44.777942472043826" lon="9.279278342973143"><ele>1048.0</ele><time>2026-03-28T15:18:23Z</time></trkpt><trkpt lat="44.777976029106576" lon="9.279097438591124"><ele>1048.0</ele><time>2026-03-28T15:18:24Z</time></trkpt><trkpt lat="44.7780065195841" lon="9.278937210859677"><ele>1048.0</ele><time>2026-03-28T15:18:25Z</time></trkpt><trkpt lat="44.77804299029948" lon="9.278806479150708"><ele>1048.0</ele><time>2026-03-28T15:18:26Z</time></trkpt><trkpt lat="44.77809397851363" lon="9.278690502372893"><ele>1048.0</ele><time>2026-03-28T15:18:27Z</time></trkpt><trkpt lat="44.77817623766369" lon="9.278584521798397"><ele>1047.75</ele><time>2026-03-28T15:18:28Z</time></trkpt><trkpt lat="44.778259573674475" lon="9.278462974451406"><ele>1047.5</ele><time>2026-03-28T15:18:29Z</time></trkpt><trkpt lat="44.77836746374977" lon="9.278316523623648"><ele>1047.25</ele><time>2026-03-28T15:18:30Z</time></trkpt><trkpt lat="44.77844218257514" lon="9.278146171100571"><ele>1047.0</ele><time>2026-03-28T15:18:31Z</time></trkpt><trkpt lat="44.77849831510674" lon="9.277982966574012"><ele>1044.0</ele><time>2026-03-28T15:18:32Z</time></trkpt><trkpt lat="44.77853940806258" lon="9.277808603950056"><ele>1041.0</ele><time>2026-03-28T15:18:33Z</time></trkpt><trkpt lat="44.77860263163945" lon="9.27763195330667"><ele>1038.0</ele><time>2026-03-28T15:18:34Z</time></trkpt><trkpt lat="44.778618722645334" lon="9.277453933440887"><ele>1035.0</ele><time>2026-03-28T15:18:35Z</time></trkpt><trkpt lat="44.77865518780325" lon="9.277292460807903"><ele>1034.6</ele><time>2026-03-28T15:18:36Z</time></trkpt><trkpt lat="44.77861000333752" lon="9.27714363914593"><ele>1034.2</ele><time>2026-03-28T15:18:36.999Z</time></trkpt><trkpt lat="44.778608106672756" lon="9.277021494804844"><ele>1033.8</ele><time>2026-03-28T15:18:37.999Z</time></trkpt><trkpt lat="44.7786295405779" lon="9.276905091064114"><ele>1033.4</ele><time>2026-03-28T15:18:38.999Z</time></trkpt><trkpt lat="44.7786507734762" lon="9.276784040389696"><ele>1033.0</ele><time>2026-03-28T15:18:39.999Z</time></trkpt><trkpt lat="44.778719648324525" lon="9.276705942554969"><ele>1033.0</ele><time>2026-03-28T15:18:40.999Z</time></trkpt><trkpt lat="44.77879157360595" lon="9.276599774041475"><ele>1033.0</ele><time>2026-03-28T15:18:41.999Z</time></trkpt><trkpt lat="44.7788616893353" lon="9.276429157917843"><ele>1033.0</ele><time>2026-03-28T15:18:42.999Z</time></trkpt><trkpt lat="44.77894298938623" lon="9.276249543339667"><ele>1033.0</ele><time>2026-03-28T15:18:43.999Z</time></trkpt><trkpt lat="44.77899969248617" lon="9.276076198623656"><ele>1031.75</ele><time>2026-03-28T15:18:44.999Z</time></trkpt><trkpt lat="44.77902078516204" lon="9.275875338254249"><ele>1030.5</ele><time>2026-03-28T15:18:45.999Z</time></trkpt><trkpt lat="44.77905116054388" lon="9.27568614005286"><ele>1029.25</ele><time>2026-03-28T15:18:46.999Z</time></trkpt><trkpt lat="44.77909220688139" lon="9.275510326277196"><ele>1028.0</ele><time>2026-03-28T15:18:47.999Z</time></trkpt><trkpt lat="44.77914354370338" lon="9.275356376633793"><ele>1027.75</ele><time>2026-03-28T15:18:48.999Z</time></trkpt><trkpt lat="44.77920596927112" lon="9.275195218131364"><ele>1027.5</ele><time>2026-03-28T15:18:49.999Z</time></trkpt><trkpt lat="44.7792767996754" lon="9.27505107030427"><ele>1027.25</ele><time>2026-03-28T15:18:50.999Z</time></trkpt><trkpt lat="44.779348531220286" lon="9.274888659805733"><ele>1027.0</ele><time>2026-03-28T15:18:51.999Z</time></trkpt><trkpt lat="44.7794214082731" lon="9.274745057389081"><ele>1025.0</ele><time>2026-03-28T15:18:52.999Z</time></trkpt><trkpt lat="44.77948210001237" lon="9.274626172941552"><ele>1023.0</ele><time>2026-03-28T15:18:53.999Z</time></trkpt><trkpt lat="44.779558639221435" lon="9.274520717231397"><ele>1021.0</ele><time>2026-03-28T15:18:54.999Z</time></trkpt><trkpt lat="44.779653943519634" lon="9.274437945468655"><ele>1019.0</ele><time>2026-03-28T15:18:55.999Z</time></trkpt><trkpt lat="44.77976335882272" lon="9.274420315995474"><ele>1017.0</ele><time>2026-03-28T15:18:56.999Z</time></trkpt><trkpt lat="44.7798568127104" lon="9.274377250327946"><ele>1017.0</ele><time>2026-03-28T15:18:57.999Z</time></trkpt><trkpt lat="44.77995333894352" lon="9.274403441273279"><ele>1017.0</ele><time>2026-03-28T15:18:58.999Z</time></trkpt><trkpt lat="44.78000611829817" lon="9.274261736042298"><ele>1017.0</ele><time>2026-03-28T15:18:59.999Z</time></trkpt><trkpt lat="44.78006358722774" lon="9.274113506976441"><ele>1017.0</ele><time>2026-03-28T15:19:00.999Z</time></trkpt><trkpt lat="44.78014603304719" lon="9.274001554235"><ele>1017.0</ele><time>2026-03-28T15:19:01.999Z</time></trkpt><trkpt lat="44.78024123746245" lon="9.27391973153496"><ele>1018.2</ele><time>2026-03-28T15:19:02.999Z</time></trkpt><trkpt lat="44.78034926967617" lon="9.273896176111265"><ele>1019.4000000000001</ele><time>2026-03-28T15:19:03.999Z</time></trkpt><trkpt lat="44.780437053779195" lon="9.273834067424762"><ele>1020.5999999999999</ele><time>2026-03-28T15:19:04.999Z</time></trkpt><trkpt lat="44.780507128300215" lon="9.273762553049833"><ele>1021.8</ele><time>2026-03-28T15:19:05.999Z</time></trkpt><trkpt lat="44.78059295720575" lon="9.273711879144974"><ele>1023.0</ele><time>2026-03-28T15:19:06.999Z</time></trkpt><trkpt lat="44.780622318499255" lon="9.273590511409628"><ele>1023.0</ele><time>2026-03-28T15:19:07.999Z</time></trkpt><trkpt lat="44.780720938441604" lon="9.273587271335"><ele>1023.0</ele><time>2026-03-28T15:19:08.999Z</time></trkpt><trkpt lat="44.78074490687516" lon="9.273494136126414"><ele>1023.0</ele><time>2026-03-28T15:19:09.999Z</time></trkpt><trkpt lat="44.7807572359315" lon="9.273372714715624"><ele>1023.0</ele><time>2026-03-28T15:19:10.999Z</time></trkpt><trkpt lat="44.780775975920854" lon="9.273238038707179"><ele>1023.0</ele><time>2026-03-28T15:19:11.999Z</time></trkpt><trkpt lat="44.780796259755164" lon="9.273132056924364"><ele>1023.0</ele><time>2026-03-28T15:19:12.999Z</time></trkpt><trkpt lat="44.78079380008406" lon="9.273028156637903"><ele>1023.0</ele><time>2026-03-28T15:19:13.999Z</time></trkpt><trkpt lat="44.78075960975506" lon="9.272899327344925"><ele>1023.0</ele><time>2026-03-28T15:19:14.999Z</time></trkpt><trkpt lat="44.780730835926214" lon="9.272754887398904"><ele>1023.0</ele><time>2026-03-28T15:19:15.999Z</time></trkpt><trkpt lat="44.780712183913174" lon="9.272652672087567"><ele>1023.0</ele><time>2026-03-28T15:19:16.999Z</time></trkpt><trkpt lat="44.78069451142933" lon="9.272559327278922"><ele>1023.0</ele><time>2026-03-28T15:19:17.999Z</time></trkpt><trkpt lat="44.78069510646561" lon="9.272378101733958"><ele>1023.0</ele><time>2026-03-28T15:19:19.999Z</time></trkpt><trkpt lat="44.78071076664413" lon="9.27228049317152"><ele>1023.0</ele><time>2026-03-28T15:19:20.999Z</time></trkpt><trkpt lat="44.78075022372176" lon="9.272141181816536"><ele>1023.0</ele><time>2026-03-28T15:19:22.999Z</time></trkpt><trkpt lat="44.780772638942686" lon="9.272050358379818"><ele>1023.0</ele><time>2026-03-28T15:19:24.999Z</time></trkpt><trkpt lat="44.78076095247693" lon="9.271925258137781"><ele>1023.0</ele><time>2026-03-28T15:19:26.999Z</time></trkpt><trkpt lat="44.78073954457618" lon="9.271767282299848"><ele>1023.0</ele><time>2026-03-28T15:19:28.999Z</time></trkpt><trkpt lat="44.78075373149935" lon="9.271662392700039"><ele>1023.1666666666666</ele><time>2026-03-28T15:19:29.999Z</time></trkpt><trkpt lat="44.780757447689524" lon="9.271534653191"><ele>1023.3333333333333</ele><time>2026-03-28T15:19:30.999Z</time></trkpt><trkpt lat="44.78076147234626" lon="9.27144113362761"><ele>1023.5</ele><time>2026-03-28T15:19:31.999Z</time></trkpt><trkpt lat="44.780760315007086" lon="9.271343619193006"><ele>1023.6666666666666</ele><time>2026-03-28T15:19:32.999Z</time></trkpt><trkpt lat="44.78077491488798" lon="9.271217336871056"><ele>1023.8333333333333</ele><time>2026-03-28T15:19:34.999Z</time></trkpt><trkpt lat="44.78082993381271" lon="9.271071225701473"><ele>1024.0</ele><time>2026-03-28T15:19:36.999Z</time></trkpt><trkpt lat="44.780891269465215" lon="9.270977104514674"><ele>1023.9999999999999</ele><time>2026-03-28T15:19:37.999Z</time></trkpt><trkpt lat="44.780965999246625" lon="9.270888698072753"><ele>1024.0</ele><time>2026-03-28T15:19:38.999Z</time></trkpt><trkpt lat="44.78104787483554" lon="9.270791564913337"><ele>1024.0</ele><time>2026-03-28T15:19:39.999Z</time></trkpt><trkpt lat="44.78111294881991" lon="9.270709741023776"><ele>1024.0</ele><time>2026-03-28T15:19:40.998Z</time></trkpt><trkpt lat="44.78117017651321" lon="9.270631567207465"><ele>1023.9999999999999</ele><time>2026-03-28T15:19:42.998Z</time></trkpt><trkpt lat="44.78114371033633" lon="9.270545485628924"><ele>1024.0</ele><time>2026-03-28T15:19:52.998Z</time></trkpt><trkpt lat="44.781115031225845" lon="9.270643383948288"><ele>1022.6</ele><time>2026-03-28T15:19:55.998Z</time></trkpt><trkpt lat="44.78117518496455" lon="9.270676749538657"><ele>1021.2</ele><time>2026-03-28T15:19:59.998Z</time></trkpt><trkpt lat="44.78122262913014" lon="9.270562744246096"><ele>1019.8000000000001</ele><time>2026-03-28T15:20:02.998Z</time></trkpt><trkpt lat="44.78117502036556" lon="9.27039247413749"><ele>1018.4000000000001</ele><time>2026-03-28T15:20:04.998Z</time></trkpt><trkpt lat="44.78114022904586" lon="9.270290246284063"><ele>1017.0</ele><time>2026-03-28T15:20:05.998Z</time></trkpt><trkpt lat="44.78109004621944" lon="9.27019470588739"><ele>1017.0</ele><time>2026-03-28T15:20:06.998Z</time></trkpt><trkpt lat="44.78105481981941" lon="9.270092981310873"><ele>1017.0</ele><time>2026-03-28T15:20:07.998Z</time></trkpt><trkpt lat="44.78101038300895" lon="9.269982564011423"><ele>1017.0</ele><time>2026-03-28T15:20:08.998Z</time></trkpt><trkpt lat="44.78098303370681" lon="9.269883684450747"><ele>1017.0</ele><time>2026-03-28T15:20:09.998Z</time></trkpt><trkpt lat="44.78094272968991" lon="9.269786347902754"><ele>1017.0</ele><time>2026-03-28T15:20:10.998Z</time></trkpt><trkpt lat="44.7809096592833" lon="9.269704129578907"><ele>1017.0</ele><time>2026-03-28T15:20:11.998Z</time></trkpt><trkpt lat="44.78089817112409" lon="9.269588520185005"><ele>1016.0</ele><time>2026-03-28T15:20:14Z</time></trkpt><trkpt lat="44.78090992773911" lon="9.269466471362927"><ele>1015.0</ele><time>2026-03-28T15:20:17Z</time></trkpt><trkpt lat="44.780903153781395" lon="9.269365803858284"><ele>1014.0</ele><time>2026-03-28T15:20:23Z</time></trkpt><trkpt lat="44.78091063342093" lon="9.269265976403283"><ele>1013.0</ele><time>2026-03-28T15:20:25Z</time></trkpt><trkpt lat="44.7810255890775" lon="9.268975158688242"><ele>1011.2</ele><time>2026-03-28T15:20:26Z</time></trkpt><trkpt lat="44.78109670914289" lon="9.268885296385568"><ele>1009.4</ele><time>2026-03-28T15:20:27Z</time></trkpt><trkpt lat="44.78115775805996" lon="9.268843226008764"><ele>1007.6000000000001</ele><time>2026-03-28T15:20:28Z</time></trkpt><trkpt lat="44.78122561977593" lon="9.268796926152596"><ele>1005.8000000000001</ele><time>2026-03-28T15:20:29Z</time></trkpt><trkpt lat="44.78130835968897" lon="9.268716663218012"><ele>1004.0</ele><time>2026-03-28T15:20:30Z</time></trkpt><trkpt lat="44.78141929816643" lon="9.268621350718186"><ele>1004.0</ele><time>2026-03-28T15:20:31Z</time></trkpt><trkpt lat="44.78150272586371" lon="9.268532275449083"><ele>1004.0000000000001</ele><time>2026-03-28T15:20:32Z</time></trkpt><trkpt lat="44.781588833646936" lon="9.26843545994529"><ele>1004.0000000000001</ele><time>2026-03-28T15:20:33Z</time></trkpt><trkpt lat="44.78165709948995" lon="9.268339884247888"><ele>1004.0</ele><time>2026-03-28T15:20:34Z</time></trkpt><trkpt lat="44.78171902605326" lon="9.268242547996747"><ele>1004.0</ele><time>2026-03-28T15:20:35Z</time></trkpt><trkpt lat="44.781763723037464" lon="9.26813767625553"><ele>1002.2</ele><time>2026-03-28T15:20:36Z</time></trkpt><trkpt lat="44.78181792249971" lon="9.268049174917108"><ele>1000.4000000000001</ele><time>2026-03-28T15:20:37Z</time></trkpt><trkpt lat="44.7818831628622" lon="9.267972772006202"><ele>998.6</ele><time>2026-03-28T15:20:38Z</time></trkpt><trkpt lat="44.7819519378087" lon="9.267908655689057"><ele>996.8</ele><time>2026-03-28T15:20:39Z</time></trkpt><trkpt lat="44.78203076736737" lon="9.267825721030011"><ele>995.0</ele><time>2026-03-28T15:20:40Z</time></trkpt><trkpt lat="44.78212371530473" lon="9.267738121564033"><ele>995.0000000000001</ele><time>2026-03-28T15:20:41Z</time></trkpt><trkpt lat="44.782212354675714" lon="9.267656436945488"><ele>995.0</ele><time>2026-03-28T15:20:41.999Z</time></trkpt><trkpt lat="44.78229938834274" lon="9.2675833215626"><ele>995.0</ele><time>2026-03-28T15:20:42.999Z</time></trkpt><trkpt lat="44.78237254934633" lon="9.267531996001178"><ele>995.0</ele><time>2026-03-28T15:20:43.999Z</time></trkpt><trkpt lat="44.78242827891231" lon="9.267476691898755"><ele>995.0000000000001</ele><time>2026-03-28T15:20:44.999Z</time></trkpt><trkpt lat="44.78247096134179" lon="9.267376441966197"><ele>995.0</ele><time>2026-03-28T15:20:48.999Z</time></trkpt><trkpt lat="44.78253265373084" lon="9.267285458630973"><ele>995.6666666666667</ele><time>2026-03-28T15:20:51.999Z</time></trkpt><trkpt lat="44.7825849906697" lon="9.26721240771644"><ele>996.3333333333334</ele><time>2026-03-28T15:20:55.999Z</time></trkpt><trkpt lat="44.7825871041977" lon="9.267108561868806"><ele>997.0</ele><time>2026-03-28T15:22:24Z</time></trkpt><trkpt lat="44.78259564902743" lon="9.266977005231569"><ele>997.6666666666667</ele><time>2026-03-28T15:22:29Z</time></trkpt><trkpt lat="44.782632258604565" lon="9.266839740461666"><ele>998.3333333333334</ele><time>2026-03-28T15:22:31Z</time></trkpt><trkpt lat="44.78268186604908" lon="9.266767910473867"><ele>999.0</ele><time>2026-03-28T15:22:33Z</time></trkpt><trkpt lat="44.782695668578604" lon="9.26667793040587"><ele>997.2</ele><time>2026-03-28T15:22:35Z</time></trkpt><trkpt lat="44.78272578317064" lon="9.266539934989007"><ele>995.4000000000001</ele><time>2026-03-28T15:22:37Z</time></trkpt><trkpt lat="44.78273906220657" lon="9.266431253863075"><ele>993.6</ele><time>2026-03-28T15:22:39Z</time></trkpt><trkpt lat="44.78277914942502" lon="9.266235190910793"><ele>991.8</ele><time>2026-03-28T15:22:41Z</time></trkpt><trkpt lat="44.782791363955845" lon="9.266103047752633"><ele>990.0</ele><time>2026-03-28T15:22:42Z</time></trkpt><trkpt lat="44.78280940921513" lon="9.265983208059716"><ele>990.0</ele><time>2026-03-28T15:22:43Z</time></trkpt><trkpt lat="44.78282652342201" lon="9.265891280791916"><ele>990.0</ele><time>2026-03-28T15:22:44Z</time></trkpt><trkpt lat="44.782857888234496" lon="9.265736001658833"><ele>990.0</ele><time>2026-03-28T15:22:46Z</time></trkpt><trkpt lat="44.78288821784488" lon="9.265587725187212"><ele>990.0</ele><time>2026-03-28T15:22:47.999Z</time></trkpt><trkpt lat="44.78294155263337" lon="9.265392806005044"><ele>990.0</ele><time>2026-03-28T15:22:49.999Z</time></trkpt><trkpt lat="44.78297056222511" lon="9.265256265187784"><ele>989.5714285714284</ele><time>2026-03-28T15:22:50.999Z</time></trkpt><trkpt lat="44.78300454736897" lon="9.265156401143159"><ele>989.1428571428571</ele><time>2026-03-28T15:22:51.999Z</time></trkpt><trkpt lat="44.78303693853035" lon="9.265055083098181"><ele>988.7142857142857</ele><time>2026-03-28T15:22:52.999Z</time></trkpt><trkpt lat="44.783066429425254" lon="9.264975134091623"><ele>988.2857142857142</ele><time>2026-03-28T15:22:53.999Z</time></trkpt><trkpt lat="44.78310296989767" lon="9.264892731912822"><ele>987.8571428571429</ele><time>2026-03-28T15:22:54.999Z</time></trkpt><trkpt lat="44.7831534686038" lon="9.264816925594834"><ele>987.4285714285714</ele><time>2026-03-28T15:22:55.999Z</time></trkpt><trkpt lat="44.783211176144064" lon="9.264771451410802"><ele>987.0</ele><time>2026-03-28T15:22:56.999Z</time></trkpt><trkpt lat="44.783299126322355" lon="9.264675857230916"><ele>985.2</ele><time>2026-03-28T15:22:58.999Z</time></trkpt><trkpt lat="44.78332982382008" lon="9.264536515658323"><ele>983.4000000000001</ele><time>2026-03-28T15:23:00.999Z</time></trkpt><trkpt lat="44.78334880828023" lon="9.264365010981615"><ele>981.5999999999999</ele><time>2026-03-28T15:23:02.999Z</time></trkpt><trkpt lat="44.783342279238866" lon="9.264276361710523"><ele>979.8</ele><time>2026-03-28T15:23:03.999Z</time></trkpt><trkpt lat="44.783352223513475" lon="9.264157955471209"><ele>978.0</ele><time>2026-03-28T15:23:04.999Z</time></trkpt><trkpt lat="44.78337793032362" lon="9.264052651596526"><ele>977.0</ele><time>2026-03-28T15:23:05.999Z</time></trkpt><trkpt lat="44.783394812947186" lon="9.263935376515112"><ele>976.0</ele><time>2026-03-28T15:23:06.999Z</time></trkpt><trkpt lat="44.78343037184371" lon="9.263831794632402"><ele>975.0</ele><time>2026-03-28T15:23:07.999Z</time></trkpt><trkpt lat="44.783492632122126" lon="9.263714648169618"><ele>974.0</ele><time>2026-03-28T15:23:09.999Z</time></trkpt><trkpt lat="44.78353444838495" lon="9.263643503345742"><ele>973.0</ele><time>2026-03-28T15:23:11.999Z</time></trkpt><trkpt lat="44.78357673619771" lon="9.26371611027414"><ele>972.0</ele><time>2026-03-28T15:23:30.999Z</time></trkpt><trkpt lat="44.78365737824102" lon="9.263741189894658"><ele>972.0</ele><time>2026-03-28T15:23:34.999Z</time></trkpt><trkpt lat="44.78374813033547" lon="9.263742789028903"><ele>972.0</ele><time>2026-03-28T15:23:37.999Z</time></trkpt><trkpt lat="44.78382395936807" lon="9.26373808577862"><ele>972.0</ele><time>2026-03-28T15:23:39.999Z</time></trkpt><trkpt lat="44.78388908684584" lon="9.26373593097747"><ele>972.0</ele><time>2026-03-28T15:23:41.999Z</time></trkpt><trkpt lat="44.78401265535094" lon="9.263744654943252"><ele>972.0</ele><time>2026-03-28T15:23:43.999Z</time></trkpt><trkpt lat="44.78412181795855" lon="9.263771389175911"><ele>972.0</ele><time>2026-03-28T15:23:45.999Z</time></trkpt><trkpt lat="44.78421178075325" lon="9.263739253741669"><ele>972.0</ele><time>2026-03-28T15:23:46.999Z</time></trkpt><trkpt lat="44.784287027096696" lon="9.263747159213262"><ele>972.0</ele><time>2026-03-28T15:23:47.999Z</time></trkpt><trkpt lat="44.78436900056696" lon="9.263858648864872"><ele>972.0</ele><time>2026-03-28T15:23:49.998Z</time></trkpt><trkpt lat="44.784439595918855" lon="9.263932343877526"><ele>972.0</ele><time>2026-03-28T15:23:50.998Z</time></trkpt><trkpt lat="44.78450588127126" lon="9.264009549574736"><ele>965.8</ele><time>2026-03-28T15:23:51.998Z</time></trkpt><trkpt lat="44.784588390817696" lon="9.26406883205046"><ele>959.6</ele><time>2026-03-28T15:23:52.998Z</time></trkpt><trkpt lat="44.78467652716456" lon="9.26412684616476"><ele>953.3999999999999</ele><time>2026-03-28T15:23:53.998Z</time></trkpt><trkpt lat="44.784769198906666" lon="9.264180207723234"><ele>947.1999999999999</ele><time>2026-03-28T15:23:54.998Z</time></trkpt><trkpt lat="44.78485430176438" lon="9.264215853497905"><ele>941.0</ele><time>2026-03-28T15:23:55.998Z</time></trkpt><trkpt lat="44.784941199247726" lon="9.264254047551546"><ele>941.0000000000001</ele><time>2026-03-28T15:23:56.998Z</time></trkpt><trkpt lat="44.78502209003799" lon="9.264274729001212"><ele>941.0</ele><time>2026-03-28T15:23:57.998Z</time></trkpt><trkpt lat="44.78513093794248" lon="9.264346811715345"><ele>941.0</ele><time>2026-03-28T15:23:59.998Z</time></trkpt><trkpt lat="44.78521386303498" lon="9.264382736925851"><ele>941.0</ele><time>2026-03-28T15:24:00.998Z</time></trkpt><trkpt lat="44.78528531363218" lon="9.264394272958757"><ele>941.0000000000001</ele><time>2026-03-28T15:24:01.998Z</time></trkpt><trkpt lat="44.78535349391779" lon="9.2643715643315"><ele>941.0</ele><time>2026-03-28T15:24:02.998Z</time></trkpt><trkpt lat="44.785435301931784" lon="9.264361245840927"><ele>938.8333333333334</ele><time>2026-03-28T15:24:03.998Z</time></trkpt><trkpt lat="44.78550558394529" lon="9.264386986112765"><ele>936.6666666666667</ele><time>2026-03-28T15:24:04.998Z</time></trkpt><trkpt lat="44.78557613067654" lon="9.264401431274738"><ele>934.5</ele><time>2026-03-28T15:24:05.998Z</time></trkpt><trkpt lat="44.78565572226822" lon="9.2643795263391"><ele>932.3333333333333</ele><time>2026-03-28T15:24:06.998Z</time></trkpt><trkpt lat="44.78573406406446" lon="9.264363380732823"><ele>930.1666666666666</ele><time>2026-03-28T15:24:07.998Z</time></trkpt><trkpt lat="44.78581407977448" lon="9.264279191189843"><ele>928.0</ele><time>2026-03-28T15:24:08.998Z</time></trkpt><trkpt lat="44.78596777693341" lon="9.26424935529181"><ele>924.9999999999999</ele><time>2026-03-28T15:24:10.998Z</time></trkpt><trkpt lat="44.786060741267256" lon="9.264240678646098"><ele>922.0</ele><time>2026-03-28T15:24:11.998Z</time></trkpt><trkpt lat="44.786138183701205" lon="9.264243909424284"><ele>919.0</ele><time>2026-03-28T15:24:12.998Z</time></trkpt><trkpt lat="44.78621570306185" lon="9.264256675572733"><ele>916.0</ele><time>2026-03-28T15:24:13.998Z</time></trkpt><trkpt lat="44.786302119966514" lon="9.264278455587963"><ele>912.9999999999999</ele><time>2026-03-28T15:24:14.998Z</time></trkpt><trkpt lat="44.786380932414794" lon="9.264305146131322"><ele>910.0</ele><time>2026-03-28T15:24:15.998Z</time></trkpt><trkpt lat="44.786468374813495" lon="9.264320767107563"><ele>909.9999999999999</ele><time>2026-03-28T15:24:16.998Z</time></trkpt><trkpt lat="44.78655324281834" lon="9.264332636070039"><ele>910.0</ele><time>2026-03-28T15:24:17.998Z</time></trkpt><trkpt lat="44.78663307803376" lon="9.264335028700067"><ele>910.0</ele><time>2026-03-28T15:24:18.998Z</time></trkpt><trkpt lat="44.7867063977916" lon="9.26433442842634"><ele>910.0</ele><time>2026-03-28T15:24:19.998Z</time></trkpt><trkpt lat="44.7867802678412" lon="9.264310428492161"><ele>909.9999999999999</ele><time>2026-03-28T15:24:20.998Z</time></trkpt><trkpt lat="44.78686852393152" lon="9.264308255051594"><ele>910.0</ele><time>2026-03-28T15:24:21.998Z</time></trkpt><trkpt lat="44.78694860794345" lon="9.264323687769851"><ele>906.9999999999999</ele><time>2026-03-28T15:24:22.998Z</time></trkpt><trkpt lat="44.787030867998546" lon="9.264368178498518"><ele>904.0</ele><time>2026-03-28T15:24:23.998Z</time></trkpt><trkpt lat="44.78711831487671" lon="9.264396451355745"><ele>901.0</ele><time>2026-03-28T15:24:25Z</time></trkpt><trkpt lat="44.78719357149941" lon="9.26440478276669"><ele>898.0</ele><time>2026-03-28T15:24:26Z</time></trkpt><trkpt lat="44.787266825505" lon="9.264408061529108"><ele>894.9999999999999</ele><time>2026-03-28T15:24:27Z</time></trkpt><trkpt lat="44.78734239788613" lon="9.264383945643763"><ele>892.0</ele><time>2026-03-28T15:24:28Z</time></trkpt><trkpt lat="44.787415452266885" lon="9.264342150680967"><ele>892.0</ele><time>2026-03-28T15:24:29Z</time></trkpt><trkpt lat="44.78748573818563" lon="9.264324749379474"><ele>892.0</ele><time>2026-03-28T15:24:30Z</time></trkpt><trkpt lat="44.787595118982" lon="9.264357212516325"><ele>892.0</ele><time>2026-03-28T15:24:32Z</time></trkpt><trkpt lat="44.787670930156125" lon="9.264314018727752"><ele>892.0</ele><time>2026-03-28T15:24:34Z</time></trkpt><trkpt lat="44.7877159270088" lon="9.264166275596375"><ele>892.0</ele><time>2026-03-28T15:24:36Z</time></trkpt><trkpt lat="44.78775063522706" lon="9.264063390555343"><ele>890.0</ele><time>2026-03-28T15:24:37Z</time></trkpt><trkpt lat="44.787803422877275" lon="9.263980884226454"><ele>888.0</ele><time>2026-03-28T15:24:38Z</time></trkpt><trkpt lat="44.78787803993388" lon="9.263887476630744"><ele>886.0</ele><time>2026-03-28T15:24:39Z</time></trkpt><trkpt lat="44.787949730457306" lon="9.263805939798356"><ele>884.0</ele><time>2026-03-28T15:24:40Z</time></trkpt><trkpt lat="44.78800617309983" lon="9.263727480369054"><ele>882.0</ele><time>2026-03-28T15:24:41Z</time></trkpt><trkpt lat="44.78807209472282" lon="9.26360833115464"><ele>882.0</ele><time>2026-03-28T15:24:43Z</time></trkpt><trkpt lat="44.788092658244146" lon="9.263473802185601"><ele>882.0</ele><time>2026-03-28T15:24:44Z</time></trkpt><trkpt lat="44.788120311250275" lon="9.263309657472805"><ele>882.0</ele><time>2026-03-28T15:24:45Z</time></trkpt><trkpt lat="44.78813324554927" lon="9.263175673243932"><ele>882.0</ele><time>2026-03-28T15:24:46Z</time></trkpt><trkpt lat="44.78816030800906" lon="9.26303956895414"><ele>882.0</ele><time>2026-03-28T15:24:47Z</time></trkpt><trkpt lat="44.788184123000434" lon="9.262905267996883"><ele>881.1666666666666</ele><time>2026-03-28T15:24:48Z</time></trkpt><trkpt lat="44.78821217381843" lon="9.26281928278837"><ele>880.3333333333333</ele><time>2026-03-28T15:24:49Z</time></trkpt><trkpt lat="44.78822012215414" lon="9.2627268672115"><ele>879.5</ele><time>2026-03-28T15:24:50Z</time></trkpt><trkpt lat="44.78823090734836" lon="9.262611166672375"><ele>878.6666666666666</ele><time>2026-03-28T15:24:51Z</time></trkpt><trkpt lat="44.78824106866283" lon="9.262465734015777"><ele>877.8333333333333</ele><time>2026-03-28T15:24:52Z</time></trkpt><trkpt lat="44.788249065652685" lon="9.262327126739557"><ele>877.0</ele><time>2026-03-28T15:24:52.999Z</time></trkpt><trkpt lat="44.78826135459492" lon="9.262202426876835"><ele>876.8</ele><time>2026-03-28T15:24:53.999Z</time></trkpt><trkpt lat="44.78826655540277" lon="9.262084456140563"><ele>876.6</ele><time>2026-03-28T15:24:54.999Z</time></trkpt><trkpt lat="44.788201203951935" lon="9.261915746765848"><ele>876.3999999999999</ele><time>2026-03-28T15:24:56.999Z</time></trkpt><trkpt lat="44.78817326574765" lon="9.261831548365423"><ele>876.1999999999999</ele><time>2026-03-28T15:24:57.999Z</time></trkpt><trkpt lat="44.78816918823346" lon="9.261697432418844"><ele>876.0</ele><time>2026-03-28T15:24:58.999Z</time></trkpt><trkpt lat="44.7881824390849" lon="9.261571711232854"><ele>876.0</ele><time>2026-03-28T15:24:59.999Z</time></trkpt><trkpt lat="44.78819074043481" lon="9.26147553301893"><ele>876.0</ele><time>2026-03-28T15:25:00.999Z</time></trkpt><trkpt lat="44.7882523957596" lon="9.261407959414097"><ele>876.0</ele><time>2026-03-28T15:25:02.999Z</time></trkpt><trkpt lat="44.78822896181267" lon="9.261273130267636"><ele>876.0</ele><time>2026-03-28T15:25:03.999Z</time></trkpt><trkpt lat="44.78829954582674" lon="9.261151561839755"><ele>876.0</ele><time>2026-03-28T15:25:05.999Z</time></trkpt><trkpt lat="44.788359598068986" lon="9.26112404439749"><ele>876.0</ele><time>2026-03-28T15:25:06.999Z</time></trkpt><trkpt lat="44.78847017477393" lon="9.261044063998185"><ele>873.25</ele><time>2026-03-28T15:25:07.999Z</time></trkpt><trkpt lat="44.788578123220226" lon="9.260995994337032"><ele>870.5</ele><time>2026-03-28T15:25:08.999Z</time></trkpt><trkpt lat="44.788752849466626" lon="9.261050375880004"><ele>867.75</ele><time>2026-03-28T15:25:09.999Z</time></trkpt><trkpt lat="44.78881492643483" lon="9.260983327054069"><ele>865.0</ele><time>2026-03-28T15:25:10.999Z</time></trkpt><trkpt lat="44.78889409146978" lon="9.26092867650283"><ele>864.9999999999999</ele><time>2026-03-28T15:25:11.999Z</time></trkpt><trkpt lat="44.788962966839144" lon="9.26084613472753"><ele>865.0</ele><time>2026-03-28T15:25:12.999Z</time></trkpt><trkpt lat="44.78900791843848" lon="9.260743756053126"><ele>865.0</ele><time>2026-03-28T15:25:13.999Z</time></trkpt><trkpt lat="44.7890182405801" lon="9.260630594949317"><ele>865.0</ele><time>2026-03-28T15:25:14.999Z</time></trkpt><trkpt lat="44.78902755147943" lon="9.260517193750445"><ele>864.9999999999999</ele><time>2026-03-28T15:25:15.999Z</time></trkpt><trkpt lat="44.78901018901959" lon="9.260368849706953"><ele>865.0</ele><time>2026-03-28T15:25:16.999Z</time></trkpt><trkpt lat="44.78900563819517" lon="9.260231425890117"><ele>863.1666666666666</ele><time>2026-03-28T15:25:17.999Z</time></trkpt><trkpt lat="44.78902742833997" lon="9.260102804569074"><ele>861.3333333333333</ele><time>2026-03-28T15:25:18.999Z</time></trkpt><trkpt lat="44.789032107412666" lon="9.25997447381844"><ele>859.5</ele><time>2026-03-28T15:25:19.999Z</time></trkpt><trkpt lat="44.789040258102446" lon="9.259854434834747"><ele>857.6666666666667</ele><time>2026-03-28T15:25:20.999Z</time></trkpt><trkpt lat="44.789031153507366" lon="9.259757762776301"><ele>855.8333333333334</ele><time>2026-03-28T15:25:21.999Z</time></trkpt><trkpt lat="44.78901513945226" lon="9.259635817831258"><ele>854.0</ele><time>2026-03-28T15:25:22.999Z</time></trkpt><trkpt lat="44.78898578884991" lon="9.259515896239275"><ele>852.5000000000001</ele><time>2026-03-28T15:25:23.999Z</time></trkpt><trkpt lat="44.788930569689455" lon="9.259424668583035"><ele>851.0</ele><time>2026-03-28T15:25:24.999Z</time></trkpt><trkpt lat="44.7888726871177" lon="9.259333312512819"><ele>849.5</ele><time>2026-03-28T15:25:25.999Z</time></trkpt><trkpt lat="44.78883583394648" lon="9.259233903247052"><ele>848.0</ele><time>2026-03-28T15:25:26.999Z</time></trkpt><trkpt lat="44.78884064556044" lon="9.259145212700846"><ele>846.5000000000001</ele><time>2026-03-28T15:25:27.999Z</time></trkpt><trkpt lat="44.78886873529804" lon="9.258999513388524"><ele>845.0</ele><time>2026-03-28T15:25:28.999Z</time></trkpt><trkpt lat="44.788912404656934" lon="9.258847710714774"><ele>844.0</ele><time>2026-03-28T15:25:29.999Z</time></trkpt><trkpt lat="44.78898044754014" lon="9.258635331032323"><ele>843.0</ele><time>2026-03-28T15:25:30.999Z</time></trkpt><trkpt lat="44.78902305032299" lon="9.258480453094043"><ele>842.0</ele><time>2026-03-28T15:25:31.999Z</time></trkpt><trkpt lat="44.789057605335316" lon="9.258359301667046"><ele>841.0</ele><time>2026-03-28T15:25:32.999Z</time></trkpt><trkpt lat="44.78906906637893" lon="9.258230673715726"><ele>840.9999999999999</ele><time>2026-03-28T15:25:33.999Z</time></trkpt><trkpt lat="44.78907716906195" lon="9.25814073581771"><ele>841.0</ele><time>2026-03-28T15:25:34.999Z</time></trkpt><trkpt lat="44.78907096672388" lon="9.25804831084652"><ele>841.0</ele><time>2026-03-28T15:25:35.999Z</time></trkpt><trkpt lat="44.78906922197437" lon="9.257941493889275"><ele>841.0</ele><time>2026-03-28T15:25:36.999Z</time></trkpt><trkpt lat="44.789068886277896" lon="9.25783602438549"><ele>840.9999999999999</ele><time>2026-03-28T15:25:37.999Z</time></trkpt><trkpt lat="44.78909674568893" lon="9.257739061675903"><ele>841.0</ele><time>2026-03-28T15:25:38.999Z</time></trkpt><trkpt lat="44.78916600850711" lon="9.25756121207278"><ele>840.1428571428572</ele><time>2026-03-28T15:25:40.999Z</time></trkpt><trkpt lat="44.78920404375273" lon="9.25745912550708"><ele>839.2857142857142</ele><time>2026-03-28T15:25:41.999Z</time></trkpt><trkpt lat="44.78922840729336" lon="9.257365059581977"><ele>838.4285714285714</ele><time>2026-03-28T15:25:42.999Z</time></trkpt><trkpt lat="44.78925859530587" lon="9.25727141171771"><ele>837.5714285714287</ele><time>2026-03-28T15:25:43.999Z</time></trkpt><trkpt lat="44.78929524563488" lon="9.25718859684174"><ele>836.7142857142858</ele><time>2026-03-28T15:25:44.999Z</time></trkpt><trkpt lat="44.78931728173951" lon="9.257086484191879"><ele>835.8571428571429</ele><time>2026-03-28T15:25:46.999Z</time></trkpt><trkpt lat="44.789269996528105" lon="9.257000072279343"><ele>835.0</ele><time>2026-03-28T15:25:48.999Z</time></trkpt><trkpt lat="44.78921746895636" lon="9.256830488602969"><ele>835.0</ele><time>2026-03-28T15:25:50.999Z</time></trkpt><trkpt lat="44.78921659355573" lon="9.256711263160213"><ele>835.0</ele><time>2026-03-28T15:25:51.999Z</time></trkpt><trkpt lat="44.789223679618225" lon="9.25656759280812"><ele>835.0</ele><time>2026-03-28T15:25:52.999Z</time></trkpt><trkpt lat="44.78925260691688" lon="9.256439245160436"><ele>835.0</ele><time>2026-03-28T15:25:53.999Z</time></trkpt><trkpt lat="44.78931089257293" lon="9.256336390342808"><ele>835.0</ele><time>2026-03-28T15:25:54.999Z</time></trkpt><trkpt lat="44.78938215089409" lon="9.256237330790539"><ele>830.6</ele><time>2026-03-28T15:25:55.998Z</time></trkpt><trkpt lat="44.789457598199284" lon="9.256151455491786"><ele>826.2</ele><time>2026-03-28T15:25:56.998Z</time></trkpt><trkpt lat="44.78955105874041" lon="9.256063250368046"><ele>821.8</ele><time>2026-03-28T15:25:57.998Z</time></trkpt><trkpt lat="44.7896514885841" lon="9.2559794436517"><ele>817.4</ele><time>2026-03-28T15:25:58.998Z</time></trkpt><trkpt lat="44.78974823711182" lon="9.255895206731443"><ele>813.0</ele><time>2026-03-28T15:25:59.998Z</time></trkpt><trkpt lat="44.7898335218849" lon="9.255809502867034"><ele>813.0</ele><time>2026-03-28T15:26:00.998Z</time></trkpt><trkpt lat="44.789911611862735" lon="9.255702558229855"><ele>813.0</ele><time>2026-03-28T15:26:01.998Z</time></trkpt><trkpt lat="44.78997822329768" lon="9.25559730703511"><ele>813.0</ele><time>2026-03-28T15:26:02.998Z</time></trkpt><trkpt lat="44.79002783554778" lon="9.255481648148375"><ele>813.0</ele><time>2026-03-28T15:26:03.998Z</time></trkpt><trkpt lat="44.790073952097195" lon="9.255359130034629"><ele>813.0</ele><time>2026-03-28T15:26:04.998Z</time></trkpt><trkpt lat="44.79010244078169" lon="9.25527064622761"><ele>812.5999999999999</ele><time>2026-03-28T15:26:05.998Z</time></trkpt><trkpt lat="44.79012576657853" lon="9.255164679211589"><ele>812.1999999999999</ele><time>2026-03-28T15:26:07.998Z</time></trkpt><trkpt lat="44.790197928924" lon="9.25517022259538"><ele>811.8</ele><time>2026-03-28T15:26:45Z</time></trkpt><trkpt lat="44.790278002629734" lon="9.255205637664282"><ele>811.4</ele><time>2026-03-28T15:26:47Z</time></trkpt><trkpt lat="44.79036053562691" lon="9.255200666689053"><ele>811.0</ele><time>2026-03-28T15:26:49Z</time></trkpt><trkpt lat="44.79047609373991" lon="9.255311800946327"><ele>810.4</ele><time>2026-03-28T15:26:50Z</time></trkpt><trkpt lat="44.790559903570724" lon="9.255379711455545"><ele>809.8</ele><time>2026-03-28T15:26:51Z</time></trkpt><trkpt lat="44.790642308703866" lon="9.255464912246838"><ele>809.1999999999999</ele><time>2026-03-28T15:26:52Z</time></trkpt><trkpt lat="44.790683992467706" lon="9.255543255047904"><ele>808.5999999999999</ele><time>2026-03-28T15:26:53Z</time></trkpt><trkpt lat="44.79073850083493" lon="9.255621946364203"><ele>808.0</ele><time>2026-03-28T15:26:53.999Z</time></trkpt><trkpt lat="44.79081493976816" lon="9.255781470651655"><ele>808.0</ele><time>2026-03-28T15:26:55.999Z</time></trkpt><trkpt lat="44.79089139529112" lon="9.255884229916186"><ele>808.0</ele><time>2026-03-28T15:26:57.999Z</time></trkpt><trkpt lat="44.79099449955507" lon="9.255930243366176"><ele>808.0</ele><time>2026-03-28T15:27:00.999Z</time></trkpt><trkpt lat="44.79107186838516" lon="9.2559479574997"><ele>808.0</ele><time>2026-03-28T15:27:02.999Z</time></trkpt><trkpt lat="44.791113937749344" lon="9.25606161188671"><ele>808.0</ele><time>2026-03-28T15:27:04.999Z</time></trkpt><trkpt lat="44.79121743079505" lon="9.256211388139773"><ele>807.4999999999999</ele><time>2026-03-28T15:27:06.999Z</time></trkpt><trkpt lat="44.791303425747564" lon="9.256277241025284"><ele>807.0</ele><time>2026-03-28T15:27:07.999Z</time></trkpt><trkpt lat="44.79136872666696" lon="9.256334807004487"><ele>806.5</ele><time>2026-03-28T15:27:08.999Z</time></trkpt><trkpt lat="44.79142337442747" lon="9.25640496173607"><ele>806.0</ele><time>2026-03-28T15:27:09.999Z</time></trkpt><trkpt lat="44.79147980519829" lon="9.256483464483368"><ele>805.4999999999999</ele><time>2026-03-28T15:27:10.999Z</time></trkpt><trkpt lat="44.79155118627584" lon="9.256602541037337"><ele>805.0</ele><time>2026-03-28T15:27:12.999Z</time></trkpt><trkpt lat="44.791633223546" lon="9.25654941097079"><ele>804.6666666666666</ele><time>2026-03-28T15:27:14.999Z</time></trkpt><trkpt lat="44.79170434823439" lon="9.256542739426356"><ele>804.3333333333333</ele><time>2026-03-28T15:27:16.999Z</time></trkpt><trkpt lat="44.79177036800424" lon="9.256542424668543"><ele>804.0</ele><time>2026-03-28T15:27:18.999Z</time></trkpt><trkpt lat="44.791837421334364" lon="9.256489891259397"><ele>803.6666666666667</ele><time>2026-03-28T15:27:20.999Z</time></trkpt><trkpt lat="44.79188410820621" lon="9.256422601429954"><ele>803.3333333333334</ele><time>2026-03-28T15:27:21.999Z</time></trkpt><trkpt lat="44.791924550608805" lon="9.256342702625785"><ele>803.0</ele><time>2026-03-28T15:27:23.999Z</time></trkpt><trkpt lat="44.79200526101032" lon="9.25622578170617"><ele>800.3333333333334</ele><time>2026-03-28T15:27:25.999Z</time></trkpt><trkpt lat="44.79207657307974" lon="9.256156096381792"><ele>797.6666666666667</ele><time>2026-03-28T15:27:26.999Z</time></trkpt><trkpt lat="44.79213282156687" lon="9.256107963751223"><ele>795.0</ele><time>2026-03-28T15:27:27.999Z</time></trkpt><trkpt lat="44.79220559618962" lon="9.256008340525725"><ele>792.3333333333333</ele><time>2026-03-28T15:27:29.999Z</time></trkpt><trkpt lat="44.79229312649955" lon="9.25604198690238"><ele>789.6666666666666</ele><time>2026-03-28T15:27:34.999Z</time></trkpt><trkpt lat="44.792334384885336" lon="9.256136508041854"><ele>787.0</ele><time>2026-03-28T15:27:36.999Z</time></trkpt><trkpt lat="44.792375230633155" lon="9.256260399068767"><ele>786.9999999999999</ele><time>2026-03-28T15:27:38.999Z</time></trkpt><trkpt lat="44.7923706273133" lon="9.256422768462103"><ele>787.0</ele><time>2026-03-28T15:27:40.999Z</time></trkpt><trkpt lat="44.79234856669377" lon="9.256526839612516"><ele>787.0</ele><time>2026-03-28T15:27:41.999Z</time></trkpt><trkpt lat="44.79232683621533" lon="9.256674021758254"><ele>787.0</ele><time>2026-03-28T15:27:43.999Z</time></trkpt><trkpt lat="44.79230963544065" lon="9.256764241039118"><ele>786.9999999999999</ele><time>2026-03-28T15:27:44.999Z</time></trkpt><trkpt lat="44.79227218293094" lon="9.256838694856814"><ele>787.0</ele><time>2026-03-28T15:27:45.999Z</time></trkpt><trkpt lat="44.792238118996565" lon="9.257010493912958"><ele>787.2</ele><time>2026-03-28T15:27:47.999Z</time></trkpt><trkpt lat="44.79227004597288" lon="9.2571058817395"><ele>787.4000000000001</ele><time>2026-03-28T15:27:48.999Z</time></trkpt><trkpt lat="44.792306171311" lon="9.25721598169657"><ele>787.5999999999999</ele><time>2026-03-28T15:27:50.999Z</time></trkpt><trkpt lat="44.792402983631284" lon="9.257187698275688"><ele>787.8</ele><time>2026-03-28T15:27:52.999Z</time></trkpt><trkpt lat="44.79250034012076" lon="9.257214443543672"><ele>788.0</ele><time>2026-03-28T15:27:54.999Z</time></trkpt><trkpt lat="44.792545950687504" lon="9.257328237759369"><ele>786.8</ele><time>2026-03-28T15:27:56.998Z</time></trkpt><trkpt lat="44.792568296332355" lon="9.257451856659635"><ele>785.5999999999999</ele><time>2026-03-28T15:27:58.998Z</time></trkpt><trkpt lat="44.79249972227643" lon="9.257565281593319"><ele>784.4000000000001</ele><time>2026-03-28T15:28:00.998Z</time></trkpt><trkpt lat="44.79247586810124" lon="9.25765150317303"><ele>783.2</ele><time>2026-03-28T15:28:01.998Z</time></trkpt><trkpt lat="44.79245188306266" lon="9.257823456385688"><ele>782.0</ele><time>2026-03-28T15:28:03.998Z</time></trkpt><trkpt lat="44.79247399755934" lon="9.257917964245738"><ele>782.0000000000001</ele><time>2026-03-28T15:28:04.998Z</time></trkpt><trkpt lat="44.79250297068466" lon="9.25802217470277"><ele>782.0</ele><time>2026-03-28T15:28:05.998Z</time></trkpt><trkpt lat="44.792538306195965" lon="9.258134847291135"><ele>782.0</ele><time>2026-03-28T15:28:06.998Z</time></trkpt><trkpt lat="44.792580300707506" lon="9.25823800938301"><ele>782.0</ele><time>2026-03-28T15:28:07.998Z</time></trkpt><trkpt lat="44.792614300437656" lon="9.258340106793629"><ele>782.0000000000001</ele><time>2026-03-28T15:28:08.998Z</time></trkpt><trkpt lat="44.79264461548395" lon="9.258487022835615"><ele>782.0</ele><time>2026-03-28T15:28:09.998Z</time></trkpt><trkpt lat="44.792661972168204" lon="9.258689085476714"><ele>780.75</ele><time>2026-03-28T15:28:10.998Z</time></trkpt><trkpt lat="44.79266013962355" lon="9.258876952083202"><ele>779.5</ele><time>2026-03-28T15:28:11.998Z</time></trkpt><trkpt lat="44.79266920513536" lon="9.259051250438446"><ele>778.25</ele><time>2026-03-28T15:28:12.998Z</time></trkpt><trkpt lat="44.79266226054242" lon="9.259198124999067"><ele>777.0</ele><time>2026-03-28T15:28:13.998Z</time></trkpt><trkpt lat="44.79265064379518" lon="9.259336661939281"><ele>777.0</ele><time>2026-03-28T15:28:14.998Z</time></trkpt><trkpt lat="44.79263435973522" lon="9.259455593604295"><ele>777.0</ele><time>2026-03-28T15:28:15.998Z</time></trkpt><trkpt lat="44.79262054771954" lon="9.25956796334174"><ele>777.0</ele><time>2026-03-28T15:28:16.998Z</time></trkpt><trkpt lat="44.792607854660986" lon="9.25968560931444"><ele>777.0</ele><time>2026-03-28T15:28:17.998Z</time></trkpt><trkpt lat="44.79258553222327" lon="9.259798620667878"><ele>777.0</ele><time>2026-03-28T15:28:18.998Z</time></trkpt><trkpt lat="44.79255637585269" lon="9.259890779420326"><ele>777.0</ele><time>2026-03-28T15:28:19.998Z</time></trkpt><trkpt lat="44.792528689353965" lon="9.25997783594139"><ele>776.6</ele><time>2026-03-28T15:28:20.998Z</time></trkpt><trkpt lat="44.79253376786576" lon="9.260136343472448"><ele>776.2</ele><time>2026-03-28T15:28:22.998Z</time></trkpt><trkpt lat="44.79256460562187" lon="9.260250030895595"><ele>775.8</ele><time>2026-03-28T15:28:23.998Z</time></trkpt><trkpt lat="44.79258378933632" lon="9.260405301655453"><ele>775.4</ele><time>2026-03-28T15:28:24.998Z</time></trkpt><trkpt lat="44.79259368945632" lon="9.260521562060182"><ele>775.0</ele><time>2026-03-28T15:28:25.998Z</time></trkpt><trkpt lat="44.79259858170539" lon="9.260664599454786"><ele>775.0</ele><time>2026-03-28T15:28:27.998Z</time></trkpt><trkpt lat="44.79263802964504" lon="9.260817360108604"><ele>775.0</ele><time>2026-03-28T15:28:29.998Z</time></trkpt><trkpt lat="44.79267338360576" lon="9.26094309439823"><ele>775.0</ele><time>2026-03-28T15:28:31.998Z</time></trkpt><trkpt lat="44.792774418574815" lon="9.261001699147181"><ele>775.0</ele><time>2026-03-28T15:28:33.998Z</time></trkpt><trkpt lat="44.792849305527895" lon="9.261073287308855"><ele>775.0</ele><time>2026-03-28T15:28:34.998Z</time></trkpt><trkpt lat="44.79291549529307" lon="9.261179173626479"><ele>773.4</ele><time>2026-03-28T15:28:36Z</time></trkpt><trkpt lat="44.792985078481365" lon="9.261310595483474"><ele>771.8</ele><time>2026-03-28T15:28:37Z</time></trkpt><trkpt lat="44.793035543628385" lon="9.261400444920914"><ele>770.2</ele><time>2026-03-28T15:28:38Z</time></trkpt><trkpt lat="44.79306606438907" lon="9.261548935766026"><ele>768.6</ele><time>2026-03-28T15:28:40Z</time></trkpt><trkpt lat="44.79307472270991" lon="9.26168481620823"><ele>767.0</ele><time>2026-03-28T15:28:41Z</time></trkpt><trkpt lat="44.793087676089584" lon="9.261870706786988"><ele>767.0</ele><time>2026-03-28T15:28:42Z</time></trkpt><trkpt lat="44.79311099278745" lon="9.262041124669194"><ele>767.0</ele><time>2026-03-28T15:28:43Z</time></trkpt><trkpt lat="44.79312393382532" lon="9.262245360244378"><ele>767.0</ele><time>2026-03-28T15:28:44Z</time></trkpt><trkpt lat="44.79313845473384" lon="9.26239347034253"><ele>767.0</ele><time>2026-03-28T15:28:45Z</time></trkpt><trkpt lat="44.79314156856823" lon="9.262550687126133"><ele>767.4000000000001</ele><time>2026-03-28T15:28:46Z</time></trkpt><trkpt lat="44.79313270457535" lon="9.262650724045185"><ele>767.8000000000001</ele><time>2026-03-28T15:28:47Z</time></trkpt><trkpt lat="44.793205547767634" lon="9.262821247338682"><ele>768.2</ele><time>2026-03-28T15:28:49Z</time></trkpt><trkpt lat="44.79327633012297" lon="9.262921643652136"><ele>768.6</ele><time>2026-03-28T15:28:50Z</time></trkpt><trkpt lat="44.7933269508857" lon="9.263063269742226"><ele>769.0</ele><time>2026-03-28T15:28:51Z</time></trkpt><trkpt lat="44.793339821816865" lon="9.263214235179154"><ele>769.1666666666666</ele><time>2026-03-28T15:28:52Z</time></trkpt><trkpt lat="44.793346739365724" lon="9.263349943115553"><ele>769.3333333333333</ele><time>2026-03-28T15:28:53Z</time></trkpt><trkpt lat="44.79336290379717" lon="9.2634482482956"><ele>769.5</ele><time>2026-03-28T15:28:54Z</time></trkpt><trkpt lat="44.793388718706446" lon="9.263542567430326"><ele>769.6666666666667</ele><time>2026-03-28T15:28:55Z</time></trkpt><trkpt lat="44.79343187119612" lon="9.263652379748262"><ele>769.8333333333334</ele><time>2026-03-28T15:28:56Z</time></trkpt><trkpt lat="44.79348761848566" lon="9.263777105131101"><ele>770.0</ele><time>2026-03-28T15:28:57Z</time></trkpt><trkpt lat="44.79355377276791" lon="9.263893402256173"><ele>771.4</ele><time>2026-03-28T15:28:57.999Z</time></trkpt><trkpt lat="44.79362988407386" lon="9.264003176385435"><ele>772.8</ele><time>2026-03-28T15:28:58.999Z</time></trkpt><trkpt lat="44.79370297894739" lon="9.26411690286903"><ele>774.2</ele><time>2026-03-28T15:28:59.999Z</time></trkpt><trkpt lat="44.793779569148086" lon="9.264211299759427"><ele>775.6</ele><time>2026-03-28T15:29:00.999Z</time></trkpt><trkpt lat="44.7938398594719" lon="9.264333333541426"><ele>777.0</ele><time>2026-03-28T15:29:01.999Z</time></trkpt><trkpt lat="44.79389488637824" lon="9.264466414764138"><ele>777.0</ele><time>2026-03-28T15:29:02.999Z</time></trkpt><trkpt lat="44.79393149830866" lon="9.264596293636169"><ele>777.0</ele><time>2026-03-28T15:29:03.999Z</time></trkpt><trkpt lat="44.7939392110244" lon="9.2647124607563"><ele>777.0</ele><time>2026-03-28T15:29:04.999Z</time></trkpt><trkpt lat="44.7939333562321" lon="9.26480509959593"><ele>777.0</ele><time>2026-03-28T15:29:05.999Z</time></trkpt><trkpt lat="44.79401906727218" lon="9.264816229306408"><ele>777.0</ele><time>2026-03-28T15:29:17.999Z</time></trkpt><trkpt lat="44.794166240767076" lon="9.264780235265603"><ele>777.0</ele><time>2026-03-28T15:29:19.999Z</time></trkpt><trkpt lat="44.7942659996499" lon="9.264756950379367"><ele>777.0</ele><time>2026-03-28T15:29:20.999Z</time></trkpt><trkpt lat="44.79435825451653" lon="9.26473122848953"><ele>777.0</ele><time>2026-03-28T15:29:21.999Z</time></trkpt><trkpt lat="44.79446565688152" lon="9.264664094376695"><ele>777.0</ele><time>2026-03-28T15:29:23.999Z</time></trkpt><trkpt lat="44.79454343117244" lon="9.26462008874418"><ele>777.0</ele><time>2026-03-28T15:29:24.999Z</time></trkpt><trkpt lat="44.794623371224795" lon="9.26455156616418"><ele>777.8</ele><time>2026-03-28T15:29:25.999Z</time></trkpt><trkpt lat="44.794723231878734" lon="9.264476871356148"><ele>778.6</ele><time>2026-03-28T15:29:26.999Z</time></trkpt><trkpt lat="44.794802813444264" lon="9.264401424384435"><ele>779.4</ele><time>2026-03-28T15:29:27.999Z</time></trkpt><trkpt lat="44.794888585626474" lon="9.264335252076801"><ele>780.1999999999999</ele><time>2026-03-28T15:29:28.999Z</time></trkpt><trkpt lat="44.79496668478476" lon="9.264288778773116"><ele>781.0</ele><time>2026-03-28T15:29:29.999Z</time></trkpt><trkpt lat="44.795052116764396" lon="9.264229044891675"><ele>781.0</ele><time>2026-03-28T15:29:30.999Z</time></trkpt><trkpt lat="44.795160544602695" lon="9.264106894798244"><ele>781.0</ele><time>2026-03-28T15:29:32.999Z</time></trkpt><trkpt lat="44.795239657214104" lon="9.264027918064707"><ele>781.0</ele><time>2026-03-28T15:29:33.999Z</time></trkpt><trkpt lat="44.79532619884426" lon="9.263953788663438"><ele>781.0</ele><time>2026-03-28T15:29:34.999Z</time></trkpt><trkpt lat="44.79539889261598" lon="9.263891500123881"><ele>781.0</ele><time>2026-03-28T15:29:35.999Z</time></trkpt><trkpt lat="44.79546727067224" lon="9.263828824652329"><ele>779.3333333333333</ele><time>2026-03-28T15:29:36.999Z</time></trkpt><trkpt lat="44.79552899262531" lon="9.263783785106565"><ele>777.6666666666666</ele><time>2026-03-28T15:29:37.999Z</time></trkpt><trkpt lat="44.79559463213867" lon="9.263737344559155"><ele>776.0</ele><time>2026-03-28T15:29:38.999Z</time></trkpt><trkpt lat="44.79568251180292" lon="9.263686227748462"><ele>774.3333333333333</ele><time>2026-03-28T15:29:39.999Z</time></trkpt><trkpt lat="44.795783436877144" lon="9.263645766032585"><ele>772.6666666666666</ele><time>2026-03-28T15:29:40.999Z</time></trkpt><trkpt lat="44.79586127423885" lon="9.263591856905457"><ele>771.0</ele><time>2026-03-28T15:29:41.999Z</time></trkpt><trkpt lat="44.79594081375128" lon="9.263586390672812"><ele>771.0</ele><time>2026-03-28T15:29:43.999Z</time></trkpt><trkpt lat="44.7959970878895" lon="9.263651433734784"><ele>771.0</ele><time>2026-03-28T15:29:45.999Z</time></trkpt><trkpt lat="44.79609711824212" lon="9.263633596464082"><ele>771.0</ele><time>2026-03-28T15:29:47.999Z</time></trkpt><trkpt lat="44.79613105675168" lon="9.263534605388612"><ele>771.0</ele><time>2026-03-28T15:29:48.999Z</time></trkpt><trkpt lat="44.79622648465178" lon="9.26344596411636"><ele>771.0</ele><time>2026-03-28T15:29:50.999Z</time></trkpt><trkpt lat="44.796330767976045" lon="9.263446914671361"><ele>770.1666666666666</ele><time>2026-03-28T15:29:52.999Z</time></trkpt><trkpt lat="44.796394711707435" lon="9.263462353670008"><ele>769.3333333333334</ele><time>2026-03-28T15:29:53.999Z</time></trkpt><trkpt lat="44.79649565508533" lon="9.263486560464836"><ele>768.5</ele><time>2026-03-28T15:29:54.999Z</time></trkpt><trkpt lat="44.796573749485646" lon="9.263485222292227"><ele>767.6666666666667</ele><time>2026-03-28T15:29:55.999Z</time></trkpt><trkpt lat="44.79665251577297" lon="9.263429097822247"><ele>766.8333333333334</ele><time>2026-03-28T15:29:56.999Z</time></trkpt><trkpt lat="44.796739813009374" lon="9.263366641596845"><ele>766.0</ele><time>2026-03-28T15:29:57.999Z</time></trkpt><trkpt lat="44.79681935485412" lon="9.263309309796519"><ele>763.6666666666667</ele><time>2026-03-28T15:29:58.999Z</time></trkpt><trkpt lat="44.79690229641513" lon="9.263257573193604"><ele>761.3333333333334</ele><time>2026-03-28T15:29:59.999Z</time></trkpt><trkpt lat="44.79698291664694" lon="9.263210266529896"><ele>759.0</ele><time>2026-03-28T15:30:00.998Z</time></trkpt><trkpt lat="44.79703541279293" lon="9.263160677365239"><ele>756.6666666666666</ele><time>2026-03-28T15:30:01.998Z</time></trkpt><trkpt lat="44.79710047813959" lon="9.26312429852165"><ele>754.3333333333333</ele><time>2026-03-28T15:30:02.998Z</time></trkpt><trkpt lat="44.79715792966438" lon="9.263033644466411"><ele>752.0</ele><time>2026-03-28T15:30:03.998Z</time></trkpt><trkpt lat="44.79723052416184" lon="9.262970180165594"><ele>751.5</ele><time>2026-03-28T15:30:04.998Z</time></trkpt><trkpt lat="44.79730051807672" lon="9.26293471830313"><ele>751.0</ele><time>2026-03-28T15:30:05.998Z</time></trkpt><trkpt lat="44.79735067495447" lon="9.262869941345942"><ele>750.5</ele><time>2026-03-28T15:30:06.998Z</time></trkpt><trkpt lat="44.797385133406884" lon="9.26276608884854"><ele>750.0</ele><time>2026-03-28T15:30:07.998Z</time></trkpt><trkpt lat="44.79748402299267" lon="9.262656039740879"><ele>749.5</ele><time>2026-03-28T15:30:09.998Z</time></trkpt><trkpt lat="44.7975264288851" lon="9.262585718134805"><ele>749.0</ele><time>2026-03-28T15:30:10.998Z</time></trkpt><trkpt lat="44.797567656346764" lon="9.262502404209092"><ele>749.0</ele><time>2026-03-28T15:30:11.998Z</time></trkpt><trkpt lat="44.79760164640348" lon="9.262424659352886"><ele>749.0</ele><time>2026-03-28T15:30:12.998Z</time></trkpt><trkpt lat="44.79766492520958" lon="9.262369296602717"><ele>749.0</ele><time>2026-03-28T15:30:13.998Z</time></trkpt><trkpt lat="44.7977163645911" lon="9.262309690570943"><ele>749.0</ele><time>2026-03-28T15:30:14.998Z</time></trkpt><trkpt lat="44.797750659238524" lon="9.262234361178846"><ele>749.0</ele><time>2026-03-28T15:30:15.998Z</time></trkpt><trkpt lat="44.79777919936483" lon="9.262116890278813"><ele>749.0</ele><time>2026-03-28T15:30:16.998Z</time></trkpt><trkpt lat="44.797804292552335" lon="9.262016937017828"><ele>749.0</ele><time>2026-03-28T15:30:17.998Z</time></trkpt><trkpt lat="44.79785016537493" lon="9.261903145526526"><ele>744.2</ele><time>2026-03-28T15:30:19.998Z</time></trkpt><trkpt lat="44.79793223033262" lon="9.261966192744278"><ele>739.4000000000001</ele><time>2026-03-28T15:30:21.998Z</time></trkpt><trkpt lat="44.797941326039094" lon="9.262099201413678"><ele>734.6</ele><time>2026-03-28T15:30:23.998Z</time></trkpt><trkpt lat="44.797939496935875" lon="9.262188781346527"><ele>729.8</ele><time>2026-03-28T15:30:24.998Z</time></trkpt><trkpt lat="44.79799009342417" lon="9.262351687000276"><ele>725.0</ele><time>2026-03-28T15:30:26.998Z</time></trkpt><trkpt lat="44.798000681427474" lon="9.262476210764607"><ele>725.0</ele><time>2026-03-28T15:30:27.998Z</time></trkpt><trkpt lat="44.79800712978938" lon="9.262597894251227"><ele>725.0</ele><time>2026-03-28T15:30:28.998Z</time></trkpt><trkpt lat="44.79801630854721" lon="9.262716358820244"><ele>725.0</ele><time>2026-03-28T15:30:29.998Z</time></trkpt><trkpt lat="44.798022857053944" lon="9.262876520890488"><ele>725.0</ele><time>2026-03-28T15:30:30.998Z</time></trkpt><trkpt lat="44.798014728470875" lon="9.263038945757012"><ele>725.0</ele><time>2026-03-28T15:30:31.998Z</time></trkpt><trkpt lat="44.79801598506772" lon="9.263206814573465"><ele>724.4</ele><time>2026-03-28T15:30:32.998Z</time></trkpt><trkpt lat="44.7980173361614" lon="9.263380102385915"><ele>723.8</ele><time>2026-03-28T15:30:33.998Z</time></trkpt><trkpt lat="44.79801238096497" lon="9.263520026172595"><ele>723.2</ele><time>2026-03-28T15:30:34.998Z</time></trkpt><trkpt lat="44.79799846091654" lon="9.263650516895348"><ele>722.6</ele><time>2026-03-28T15:30:35.998Z</time></trkpt><trkpt lat="44.79798575470397" lon="9.263739327421932"><ele>722.0</ele><time>2026-03-28T15:30:36.998Z</time></trkpt><trkpt lat="44.79795457795665" lon="9.263847695602935"><ele>722.5</ele><time>2026-03-28T15:30:37.998Z</time></trkpt><trkpt lat="44.7979303360983" lon="9.263993112127894"><ele>723.0</ele><time>2026-03-28T15:30:38.998Z</time></trkpt><trkpt lat="44.79789437924964" lon="9.264162032987327"><ele>723.5</ele><time>2026-03-28T15:30:39.998Z</time></trkpt><trkpt lat="44.79785064674902" lon="9.264341493138488"><ele>724.0</ele><time>2026-03-28T15:30:40.998Z</time></trkpt><trkpt lat="44.79782051715594" lon="9.264499190929213"><ele>724.0</ele><time>2026-03-28T15:30:42Z</time></trkpt><trkpt lat="44.797792997672595" lon="9.264629641628751"><ele>724.0</ele><time>2026-03-28T15:30:43Z</time></trkpt><trkpt lat="44.79776839650816" lon="9.264754087547232"><ele>724.0</ele><time>2026-03-28T15:30:44Z</time></trkpt><trkpt lat="44.79774849643857" lon="9.264842785539544"><ele>724.0</ele><time>2026-03-28T15:30:45Z</time></trkpt><trkpt lat="44.797757527777584" lon="9.264952892120744"><ele>724.0</ele><time>2026-03-28T15:30:47Z</time></trkpt><trkpt lat="44.79788143492167" lon="9.265015098623993"><ele>723.5</ele><time>2026-03-28T15:30:49Z</time></trkpt><trkpt lat="44.797903795221025" lon="9.265105660254749"><ele>723.0</ele><time>2026-03-28T15:30:50Z</time></trkpt><trkpt lat="44.797939644728594" lon="9.265227530033727"><ele>722.5</ele><time>2026-03-28T15:30:51Z</time></trkpt><trkpt lat="44.79797374798924" lon="9.26535435829646"><ele>722.0</ele><time>2026-03-28T15:30:52Z</time></trkpt><trkpt lat="44.79800857237365" lon="9.265456944529266"><ele>721.5</ele><time>2026-03-28T15:30:53Z</time></trkpt><trkpt lat="44.79803269692548" lon="9.265553822163843"><ele>721.0</ele><time>2026-03-28T15:30:54Z</time></trkpt><trkpt lat="44.798051976578044" lon="9.265697434405558"><ele>720.6666666666667</ele><time>2026-03-28T15:30:55Z</time></trkpt><trkpt lat="44.79800742676448" lon="9.265771193301038"><ele>720.3333333333334</ele><time>2026-03-28T15:30:56Z</time></trkpt><trkpt lat="44.79806325822793" lon="9.265875364339799"><ele>720.0</ele><time>2026-03-28T15:30:58Z</time></trkpt><trkpt lat="44.798147944248456" lon="9.265927643473141"><ele>719.6666666666666</ele><time>2026-03-28T15:31:00Z</time></trkpt><trkpt lat="44.79823916892781" lon="9.266000128105786"><ele>719.3333333333333</ele><time>2026-03-28T15:31:02Z</time></trkpt><trkpt lat="44.798313213032415" lon="9.266054902094476"><ele>719.0</ele><time>2026-03-28T15:31:02.999Z</time></trkpt><trkpt lat="44.798422800928556" lon="9.26611270861352"><ele>719.0</ele><time>2026-03-28T15:31:04.999Z</time></trkpt><trkpt lat="44.798483361207666" lon="9.26614296499257"><ele>719.0</ele><time>2026-03-28T15:31:05.999Z</time></trkpt><trkpt lat="44.79859810687543" lon="9.26610250133267"><ele>719.0</ele><time>2026-03-28T15:31:07.999Z</time></trkpt><trkpt lat="44.798678528468585" lon="9.26606571640961"><ele>719.0</ele><time>2026-03-28T15:31:08.999Z</time></trkpt><trkpt lat="44.798781621967095" lon="9.26604009343234"><ele>719.0</ele><time>2026-03-28T15:31:10.999Z</time></trkpt><trkpt lat="44.798845346273914" lon="9.266201298412446"><ele>714.6</ele><time>2026-03-28T15:31:12.999Z</time></trkpt><trkpt lat="44.7988951439981" lon="9.266328245292353"><ele>710.2</ele><time>2026-03-28T15:31:13.999Z</time></trkpt><trkpt lat="44.79893114426427" lon="9.266427011877077"><ele>705.8000000000001</ele><time>2026-03-28T15:31:14.999Z</time></trkpt><trkpt lat="44.79902096325965" lon="9.26656692236895"><ele>701.4000000000001</ele><time>2026-03-28T15:31:16.999Z</time></trkpt><trkpt lat="44.79909380320661" lon="9.266668325478134"><ele>697.0</ele><time>2026-03-28T15:31:17.999Z</time></trkpt><trkpt lat="44.79915234413757" lon="9.26675048934598"><ele>697.0</ele><time>2026-03-28T15:31:18.999Z</time></trkpt><trkpt lat="44.799201876972475" lon="9.26681276162686"><ele>697.0</ele><time>2026-03-28T15:31:19.999Z</time></trkpt><trkpt lat="44.799268160536656" lon="9.266796872256819"><ele>697.0</ele><time>2026-03-28T15:31:22.999Z</time></trkpt><trkpt lat="44.79924828036037" lon="9.266705657109942"><ele>697.0</ele><time>2026-03-28T15:31:24.999Z</time></trkpt><trkpt lat="44.79926344214714" lon="9.266551147641582"><ele>697.0</ele><time>2026-03-28T15:31:31.999Z</time></trkpt><trkpt lat="44.79926579085234" lon="9.26641904879802"><ele>697.0</ele><time>2026-03-28T15:31:32.999Z</time></trkpt><trkpt lat="44.79927389732722" lon="9.266290757021912"><ele>697.0</ele><time>2026-03-28T15:31:33.999Z</time></trkpt><trkpt lat="44.799286068079674" lon="9.266184360212032"><ele>697.0</ele><time>2026-03-28T15:31:34.999Z</time></trkpt><trkpt lat="44.799310367770325" lon="9.266086502965976"><ele>697.0</ele><time>2026-03-28T15:31:35.999Z</time></trkpt><trkpt lat="44.79932334018224" lon="9.265972216230587"><ele>697.0</ele><time>2026-03-28T15:31:36.999Z</time></trkpt><trkpt lat="44.799354530846195" lon="9.26583938439811"><ele>697.0</ele><time>2026-03-28T15:31:37.999Z</time></trkpt><trkpt lat="44.79938606572965" lon="9.265716239995463"><ele>697.0</ele><time>2026-03-28T15:31:38.999Z</time></trkpt><trkpt lat="44.799413506585346" lon="9.265585033166586"><ele>693.3333333333334</ele><time>2026-03-28T15:31:39.999Z</time></trkpt><trkpt lat="44.79942467855239" lon="9.265489215277075"><ele>689.6666666666667</ele><time>2026-03-28T15:31:40.999Z</time></trkpt><trkpt lat="44.79938715866273" lon="9.265398244116941"><ele>686.0</ele><time>2026-03-28T15:31:42.999Z</time></trkpt><trkpt lat="44.79936679475217" lon="9.265297888976798"><ele>682.3333333333334</ele><time>2026-03-28T15:31:44.999Z</time></trkpt><trkpt lat="44.7993370604564" lon="9.265198594004714"><ele>678.6666666666666</ele><time>2026-03-28T15:31:46.999Z</time></trkpt><trkpt lat="44.799366908558476" lon="9.26502608432745"><ele>675.0</ele><time>2026-03-28T15:31:48.999Z</time></trkpt><trkpt lat="44.79939947751163" lon="9.264914786529378"><ele>675.6666666666666</ele><time>2026-03-28T15:31:49.999Z</time></trkpt><trkpt lat="44.799445511277675" lon="9.264751771391406"><ele>676.3333333333334</ele><time>2026-03-28T15:31:50.999Z</time></trkpt><trkpt lat="44.79947826272464" lon="9.264628026517427"><ele>677.0</ele><time>2026-03-28T15:31:51.999Z</time></trkpt><trkpt lat="44.79951199321787" lon="9.264543194994424"><ele>677.6666666666667</ele><time>2026-03-28T15:31:52.999Z</time></trkpt><trkpt lat="44.79956175429122" lon="9.264457616077115"><ele>678.3333333333334</ele><time>2026-03-28T15:31:53.999Z</time></trkpt><trkpt lat="44.79961729540844" lon="9.264384392389985"><ele>679.0</ele><time>2026-03-28T15:31:54.999Z</time></trkpt><trkpt lat="44.79966208612288" lon="9.26430919953663"><ele>679.0</ele><time>2026-03-28T15:31:55.999Z</time></trkpt><trkpt lat="44.79968884162876" lon="9.264215380889022"><ele>679.0</ele><time>2026-03-28T15:31:56.999Z</time></trkpt><trkpt lat="44.79972676348896" lon="9.264108978161524"><ele>679.0</ele><time>2026-03-28T15:31:57.999Z</time></trkpt><trkpt lat="44.799740560307406" lon="9.263986632155301"><ele>679.0</ele><time>2026-03-28T15:31:58.999Z</time></trkpt><trkpt lat="44.79975477494883" lon="9.263875101166619"><ele>679.0</ele><time>2026-03-28T15:31:59.999Z</time></trkpt><trkpt lat="44.799775271574106" lon="9.263726254201279"><ele>679.0</ele><time>2026-03-28T15:32:18.998Z</time></trkpt><trkpt lat="44.799784867153605" lon="9.263633754460798"><ele>679.0</ele><time>2026-03-28T15:32:20.998Z</time></trkpt><trkpt lat="44.799812085152375" lon="9.263552347704683"><ele>679.0</ele><time>2026-03-28T15:32:23.998Z</time></trkpt><trkpt lat="44.79985194572677" lon="9.263473175873196"><ele>679.0</ele><time>2026-03-28T15:32:25.998Z</time></trkpt><trkpt lat="44.79992221405806" lon="9.263397842534635"><ele>679.0</ele><time>2026-03-28T15:32:27.998Z</time></trkpt><trkpt lat="44.80005657713641" lon="9.26340678607565"><ele>679.0</ele><time>2026-03-28T15:32:29.998Z</time></trkpt><trkpt lat="44.80014677522338" lon="9.263379886452197"><ele>679.0</ele><time>2026-03-28T15:32:30.998Z</time></trkpt><trkpt lat="44.80022955998604" lon="9.263322850069054"><ele>677.4000000000001</ele><time>2026-03-28T15:32:31.998Z</time></trkpt><trkpt lat="44.80030824645034" lon="9.26327881197943"><ele>675.8</ele><time>2026-03-28T15:32:32.998Z</time></trkpt><trkpt lat="44.80041441522861" lon="9.26316656637066"><ele>674.2</ele><time>2026-03-28T15:32:33.998Z</time></trkpt><trkpt lat="44.80050666301265" lon="9.263122202810093"><ele>672.5999999999999</ele><time>2026-03-28T15:32:34.998Z</time></trkpt><trkpt lat="44.80059816189584" lon="9.263087765086597"><ele>671.0</ele><time>2026-03-28T15:32:35.998Z</time></trkpt><trkpt lat="44.8006943719985" lon="9.263134624478568"><ele>671.0</ele><time>2026-03-28T15:32:36.998Z</time></trkpt><trkpt lat="44.80077610971377" lon="9.263120414854528"><ele>671.0</ele><time>2026-03-28T15:32:37.998Z</time></trkpt><trkpt lat="44.800862725429525" lon="9.263099530751264"><ele>671.0</ele><time>2026-03-28T15:32:38.998Z</time></trkpt><trkpt lat="44.80093768348956" lon="9.263093779011148"><ele>671.0</ele><time>2026-03-28T15:32:39.998Z</time></trkpt><trkpt lat="44.801005836509745" lon="9.26307728019822"><ele>671.0</ele><time>2026-03-28T15:32:40.998Z</time></trkpt><trkpt lat="44.80107008669042" lon="9.26305832676509"><ele>671.0</ele><time>2026-03-28T15:32:41.998Z</time></trkpt><trkpt lat="44.80118986250354" lon="9.263050630477924"><ele>670.0</ele><time>2026-03-28T15:32:43.998Z</time></trkpt><trkpt lat="44.8012909343057" lon="9.263098391631951"><ele>669.0</ele><time>2026-03-28T15:32:45.998Z</time></trkpt><trkpt lat="44.80138814351053" lon="9.263134399456822"><ele>668.0</ele><time>2026-03-28T15:32:47Z</time></trkpt><trkpt lat="44.801460612634955" lon="9.263172259766032"><ele>667.0</ele><time>2026-03-28T15:32:48Z</time></trkpt><trkpt lat="44.80150960940123" lon="9.263258829809887"><ele>666.0</ele><time>2026-03-28T15:32:50Z</time></trkpt><trkpt lat="44.80155550024145" lon="9.263371801233568"><ele>666.0</ele><time>2026-03-28T15:32:52Z</time></trkpt><trkpt lat="44.80162060338407" lon="9.263458839334852"><ele>666.0</ele><time>2026-03-28T15:32:54Z</time></trkpt><trkpt lat="44.801716202507656" lon="9.263498698093459"><ele>666.0</ele><time>2026-03-28T15:32:57Z</time></trkpt><trkpt lat="44.801780074095525" lon="9.263544563088562"><ele>666.0</ele><time>2026-03-28T15:32:59Z</time></trkpt><trkpt lat="44.80187034978062" lon="9.263622159060809"><ele>666.0</ele><time>2026-03-28T15:33:01Z</time></trkpt><trkpt lat="44.801907183075016" lon="9.263710070409825"><ele>666.0</ele><time>2026-03-28T15:33:03Z</time></trkpt><trkpt lat="44.80190470850383" lon="9.263856139206672"><ele>661.7142857142858</ele><time>2026-03-28T15:33:04.999Z</time></trkpt><trkpt lat="44.80193903168397" lon="9.263945824437897"><ele>657.4285714285713</ele><time>2026-03-28T15:33:05.999Z</time></trkpt><trkpt lat="44.80198549237818" lon="9.264035886909394"><ele>653.1428571428571</ele><time>2026-03-28T15:33:06.999Z</time></trkpt><trkpt lat="44.80203608965967" lon="9.264119572476853"><ele>648.8571428571429</ele><time>2026-03-28T15:33:07.999Z</time></trkpt><trkpt lat="44.802075896161135" lon="9.264188585775184"><ele>644.5714285714287</ele><time>2026-03-28T15:33:08.999Z</time></trkpt><trkpt lat="44.8021438070815" lon="9.264223741510218"><ele>640.2857142857142</ele><time>2026-03-28T15:33:10.999Z</time></trkpt><trkpt lat="44.802214956938975" lon="9.264163710325107"><ele>636.0</ele><time>2026-03-28T15:33:12.999Z</time></trkpt><trkpt lat="44.8024274813845" lon="9.264184999000776"><ele>636.0</ele><time>2026-03-28T15:33:15.999Z</time></trkpt><trkpt lat="44.8025468253129" lon="9.264161451719739"><ele>636.0</ele><time>2026-03-28T15:33:17.999Z</time></trkpt><trkpt lat="44.8026143586642" lon="9.264163545248035"><ele>636.0</ele><time>2026-03-28T15:33:18.999Z</time></trkpt><trkpt lat="44.802686039248805" lon="9.26415221507412"><ele>636.0</ele><time>2026-03-28T15:33:19.999Z</time></trkpt><trkpt lat="44.80276348182478" lon="9.26412990809956"><ele>636.0</ele><time>2026-03-28T15:33:20.999Z</time></trkpt><trkpt lat="44.80282963382722" lon="9.264089219230055"><ele>636.0</ele><time>2026-03-28T15:33:21.999Z</time></trkpt><trkpt lat="44.802928989491086" lon="9.264048420448892"><ele>629.2</ele><time>2026-03-28T15:33:23.999Z</time></trkpt><trkpt lat="44.80299257128095" lon="9.26420439193851"><ele>622.4000000000001</ele><time>2026-03-28T15:33:26.999Z</time></trkpt><trkpt lat="44.80301224555447" lon="9.264306313481104"><ele>615.6</ele><time>2026-03-28T15:33:27.999Z</time></trkpt><trkpt lat="44.80303817255104" lon="9.26444900630629"><ele>608.8000000000001</ele><time>2026-03-28T15:33:28.999Z</time></trkpt><trkpt lat="44.80306101634189" lon="9.264611879493039"><ele>602.0</ele><time>2026-03-28T15:33:29.999Z</time></trkpt><trkpt lat="44.80308865495665" lon="9.26479014806834"><ele>602.0</ele><time>2026-03-28T15:33:30.999Z</time></trkpt><trkpt lat="44.803093800440706" lon="9.264946752599979"><ele>602.0</ele><time>2026-03-28T15:33:31.999Z</time></trkpt><trkpt lat="44.803093973027224" lon="9.265044886720204"><ele>602.0</ele><time>2026-03-28T15:33:32.999Z</time></trkpt><trkpt lat="44.80309752097687" lon="9.265137245470685"><ele>602.0</ele><time>2026-03-28T15:33:34.999Z</time></trkpt><trkpt lat="44.80316411387595" lon="9.265267279315086"><ele>602.0</ele><time>2026-03-28T15:33:37.999Z</time></trkpt><trkpt lat="44.80324739247126" lon="9.265349186702212"><ele>602.0</ele><time>2026-03-28T15:33:39.999Z</time></trkpt><trkpt lat="44.80332353900139" lon="9.265341787893405"><ele>602.0</ele><time>2026-03-28T15:33:41.999Z</time></trkpt><trkpt lat="44.80340454220554" lon="9.265303035209792"><ele>602.0</ele><time>2026-03-28T15:33:43.999Z</time></trkpt><trkpt lat="44.80349237813824" lon="9.265296971296587"><ele>602.0</ele><time>2026-03-28T15:33:45.999Z</time></trkpt><trkpt lat="44.80354812416197" lon="9.265355455363126"><ele>602.0</ele><time>2026-03-28T15:33:47.999Z</time></trkpt><trkpt lat="44.80363670200538" lon="9.265453977558282"><ele>602.0</ele><time>2026-03-28T15:33:49.999Z</time></trkpt><trkpt lat="44.8036625356569" lon="9.26554641787579"><ele>597.4</ele><time>2026-03-28T15:33:50.999Z</time></trkpt><trkpt lat="44.803688172895036" lon="9.26568745867392"><ele>592.8000000000001</ele><time>2026-03-28T15:33:51.999Z</time></trkpt><trkpt lat="44.80372161629781" lon="9.265764611294365"><ele>588.2</ele><time>2026-03-28T15:33:52.999Z</time></trkpt><trkpt lat="44.803772527699195" lon="9.265854966559289"><ele>583.6</ele><time>2026-03-28T15:33:54.999Z</time></trkpt><trkpt lat="44.803869802183" lon="9.265835941792735"><ele>579.0</ele><time>2026-03-28T15:33:57.999Z</time></trkpt><trkpt lat="44.80399181598128" lon="9.265856319341122"><ele>579.0</ele><time>2026-03-28T15:33:59.999Z</time></trkpt><trkpt lat="44.80404539039327" lon="9.265906247834446"><ele>579.0</ele><time>2026-03-28T15:34:00.999Z</time></trkpt><trkpt lat="44.80406518380792" lon="9.26606192323555"><ele>579.0</ele><time>2026-03-28T15:34:02.999Z</time></trkpt><trkpt lat="44.804070928340856" lon="9.26615682075097"><ele>579.0</ele><time>2026-03-28T15:34:03.999Z</time></trkpt><trkpt lat="44.80415628727744" lon="9.266099989750707"><ele>579.0</ele><time>2026-03-28T15:34:06.998Z</time></trkpt><trkpt lat="44.80415785917013" lon="9.265980250271175"><ele>579.0</ele><time>2026-03-28T15:34:08.998Z</time></trkpt><trkpt lat="44.804135889670164" lon="9.265878369368371"><ele>578.9999999999999</ele><time>2026-03-28T15:34:10.998Z</time></trkpt><trkpt lat="44.80411346088934" lon="9.265777823739974"><ele>579.0</ele><time>2026-03-28T15:34:13.998Z</time></trkpt><trkpt lat="44.80408570364974" lon="9.2656787459795"><ele>579.0</ele><time>2026-03-28T15:34:15.998Z</time></trkpt><trkpt lat="44.80409570026725" lon="9.26557628853716"><ele>579.0</ele><time>2026-03-28T15:34:18.998Z</time></trkpt><trkpt lat="44.804163185879574" lon="9.265607695253868"><ele>579.0</ele><time>2026-03-28T15:34:22.998Z</time></trkpt><trkpt lat="44.80423822308121" lon="9.265607262444524"><ele>578.9999999999999</ele><time>2026-03-28T15:34:25.998Z</time></trkpt><trkpt lat="44.80430374934041" lon="9.265589882424146"><ele>579.0</ele><time>2026-03-28T15:34:27.998Z</time></trkpt><trkpt lat="44.80438263048574" lon="9.265551817201938"><ele>580.3333333333334</ele><time>2026-03-28T15:34:29.998Z</time></trkpt><trkpt lat="44.80445555299027" lon="9.265539624156979"><ele>581.6666666666666</ele><time>2026-03-28T15:34:30.998Z</time></trkpt><trkpt lat="44.80453760706772" lon="9.265566562037828"><ele>583.0</ele><time>2026-03-28T15:34:31.998Z</time></trkpt><trkpt lat="44.804600957382306" lon="9.265504645229983"><ele>584.3333333333333</ele><time>2026-03-28T15:34:33.998Z</time></trkpt><trkpt lat="44.8046415641684" lon="9.265434091234901"><ele>585.6666666666666</ele><time>2026-03-28T15:34:34.998Z</time></trkpt><trkpt lat="44.80464059748133" lon="9.265328703391011"><ele>587.0</ele><time>2026-03-28T15:34:35.998Z</time></trkpt><trkpt lat="44.80465575464712" lon="9.265219698901827"><ele>587.0</ele><time>2026-03-28T15:34:37.998Z</time></trkpt><trkpt lat="44.80476298189506" lon="9.265078365436885"><ele>587.0</ele><time>2026-03-28T15:35:05Z</time></trkpt><trkpt lat="44.80484564727076" lon="9.265027701966943"><ele>587.0</ele><time>2026-03-28T15:35:06Z</time></trkpt><trkpt lat="44.80497626567085" lon="9.26494506878935"><ele>587.0</ele><time>2026-03-28T15:35:08Z</time></trkpt><trkpt lat="44.80515561947898" lon="9.264884869873603"><ele>590.0</ele><time>2026-03-28T15:35:08.999Z</time></trkpt><trkpt lat="44.80531470765824" lon="9.264790663423312"><ele>593.0</ele><time>2026-03-28T15:35:09.999Z</time></trkpt><trkpt lat="44.80544082368959" lon="9.264684961059455"><ele>596.0</ele><time>2026-03-28T15:35:10.999Z</time></trkpt><trkpt lat="44.8055465602263" lon="9.264609425672695"><ele>599.0</ele><time>2026-03-28T15:35:11.999Z</time></trkpt><trkpt lat="44.80561272414263" lon="9.264559349907731"><ele>599.0</ele><time>2026-03-28T15:35:12.999Z</time></trkpt><trkpt lat="44.80570930310451" lon="9.264556844947341"><ele>599.0</ele><time>2026-03-28T15:35:14.999Z</time></trkpt><trkpt lat="44.80582766581335" lon="9.26446209304582"><ele>599.0</ele><time>2026-03-28T15:35:16.999Z</time></trkpt><trkpt lat="44.80587956915781" lon="9.264395840630389"><ele>599.0</ele><time>2026-03-28T15:35:17.999Z</time></trkpt><trkpt lat="44.805852416951154" lon="9.26426834980119"><ele>599.0</ele><time>2026-03-28T15:35:19.999Z</time></trkpt><trkpt lat="44.80580834474609" lon="9.264178915771332"><ele>599.0</ele><time>2026-03-28T15:35:20.999Z</time></trkpt><trkpt lat="44.80574404445862" lon="9.264032701927206"><ele>599.0</ele><time>2026-03-28T15:35:21.999Z</time></trkpt><trkpt lat="44.80571450362069" lon="9.263931286690491"><ele>599.0</ele><time>2026-03-28T15:35:22.999Z</time></trkpt><trkpt lat="44.80571545649983" lon="9.263823009928197"><ele>599.0</ele><time>2026-03-28T15:35:24.999Z</time></trkpt><trkpt lat="44.805774354796874" lon="9.263714003300697"><ele>599.0</ele><time>2026-03-28T15:35:26.999Z</time></trkpt><trkpt lat="44.805898130246746" lon="9.263754219606602"><ele>599.0</ele><time>2026-03-28T15:35:28.999Z</time></trkpt><trkpt lat="44.80594861993911" lon="9.263820951862078"><ele>599.0</ele><time>2026-03-28T15:35:29.999Z</time></trkpt><trkpt lat="44.805976754063714" lon="9.263953557420564"><ele>599.0</ele><time>2026-03-28T15:35:30.999Z</time></trkpt><trkpt lat="44.806071691794436" lon="9.263998508943265"><ele>599.0</ele><time>2026-03-28T15:35:31.999Z</time></trkpt><trkpt lat="44.80613271642347" lon="9.264023258495687"><ele>599.0</ele><time>2026-03-28T15:35:32.999Z</time></trkpt><trkpt lat="44.80624415000302" lon="9.264030837599735"><ele>599.0</ele><time>2026-03-28T15:35:33.999Z</time></trkpt><trkpt lat="44.806343570314404" lon="9.264110646884488"><ele>601.3333333333333</ele><time>2026-03-28T15:35:34.999Z</time></trkpt><trkpt lat="44.80643516271467" lon="9.264138762374245"><ele>603.6666666666666</ele><time>2026-03-28T15:35:35.999Z</time></trkpt><trkpt lat="44.8065177298914" lon="9.264130456626587"><ele>606.0</ele><time>2026-03-28T15:35:36.999Z</time></trkpt><trkpt lat="44.806595025253145" lon="9.264012056581945"><ele>608.3333333333334</ele><time>2026-03-28T15:35:38.999Z</time></trkpt><trkpt lat="44.80660767868801" lon="9.263914788018987"><ele>610.6666666666667</ele><time>2026-03-28T15:35:39.999Z</time></trkpt><trkpt lat="44.8066008227214" lon="9.263799231554252"><ele>613.0</ele><time>2026-03-28T15:35:40.999Z</time></trkpt><trkpt lat="44.80659769915281" lon="9.263645076875829"><ele>614.6</ele><time>2026-03-28T15:35:41.999Z</time></trkpt><trkpt lat="44.80660990807165" lon="9.263487585359236"><ele>616.1999999999999</ele><time>2026-03-28T15:35:42.999Z</time></trkpt><trkpt lat="44.806647051374654" lon="9.263395548492177"><ele>617.8</ele><time>2026-03-28T15:35:43.999Z</time></trkpt><trkpt lat="44.80672047247991" lon="9.26328358191196"><ele>619.4</ele><time>2026-03-28T15:35:44.999Z</time></trkpt><trkpt lat="44.80680774880075" lon="9.263132591315733"><ele>621.0</ele><time>2026-03-28T15:35:45.999Z</time></trkpt><trkpt lat="44.80687475060723" lon="9.262988729851404"><ele>625.75</ele><time>2026-03-28T15:35:46.999Z</time></trkpt><trkpt lat="44.80690837406246" lon="9.262846298080255"><ele>630.5</ele><time>2026-03-28T15:35:47.999Z</time></trkpt><trkpt lat="44.80693812964025" lon="9.262684144425432"><ele>635.25</ele><time>2026-03-28T15:35:48.999Z</time></trkpt><trkpt lat="44.806993913223636" lon="9.262552098160976"><ele>640.0</ele><time>2026-03-28T15:35:49.999Z</time></trkpt><trkpt lat="44.807092284163694" lon="9.262455507075657"><ele>640.0</ele><time>2026-03-28T15:35:50.999Z</time></trkpt><trkpt lat="44.80716347631657" lon="9.262331968485142"><ele>640.0</ele><time>2026-03-28T15:35:51.999Z</time></trkpt><trkpt lat="44.80722527240118" lon="9.262216239761836"><ele>640.0</ele><time>2026-03-28T15:35:52.999Z</time></trkpt><trkpt lat="44.80725369681836" lon="9.262076066525479"><ele>640.0</ele><time>2026-03-28T15:35:53.999Z</time></trkpt><trkpt lat="44.8072707598845" lon="9.261943321079155"><ele>640.0</ele><time>2026-03-28T15:35:54.999Z</time></trkpt><trkpt lat="44.807285354800456" lon="9.261832727188077"><ele>640.6666666666667</ele><time>2026-03-28T15:35:55.999Z</time></trkpt><trkpt lat="44.80729082884505" lon="9.261742069004159"><ele>641.3333333333334</ele><time>2026-03-28T15:35:56.999Z</time></trkpt><trkpt lat="44.80730255284911" lon="9.26156959380774"><ele>642.0</ele><time>2026-03-28T15:35:58.999Z</time></trkpt><trkpt lat="44.807325671228526" lon="9.261469505614041"><ele>642.6666666666666</ele><time>2026-03-28T15:35:59.999Z</time></trkpt><trkpt lat="44.80735782894779" lon="9.261379211721586"><ele>643.3333333333333</ele><time>2026-03-28T15:36:00.999Z</time></trkpt><trkpt lat="44.80740280869748" lon="9.261297996898968"><ele>644.0</ele><time>2026-03-28T15:36:01.999Z</time></trkpt><trkpt lat="44.80745531087286" lon="9.261226191561237"><ele>644.0</ele><time>2026-03-28T15:36:02.999Z</time></trkpt><trkpt lat="44.80751891589234" lon="9.261174172197734"><ele>644.0</ele><time>2026-03-28T15:36:03.999Z</time></trkpt><trkpt lat="44.80757489351174" lon="9.261107503919407"><ele>644.0</ele><time>2026-03-28T15:36:04.999Z</time></trkpt><trkpt lat="44.80761222225374" lon="9.261015115658244"><ele>644.0</ele><time>2026-03-28T15:36:05.999Z</time></trkpt><trkpt lat="44.80767175643095" lon="9.260926071372884"><ele>644.0</ele><time>2026-03-28T15:36:06.999Z</time></trkpt><trkpt lat="44.80772589855109" lon="9.2608254268301"><ele>644.0</ele><time>2026-03-28T15:36:07.999Z</time></trkpt><trkpt lat="44.80777491761024" lon="9.260724297769066"><ele>646.5714285714286</ele><time>2026-03-28T15:36:08.999Z</time></trkpt><trkpt lat="44.80782477490545" lon="9.260628277543645"><ele>649.1428571428571</ele><time>2026-03-28T15:36:09.999Z</time></trkpt><trkpt lat="44.807872275178894" lon="9.26054225572297"><ele>651.7142857142858</ele><time>2026-03-28T15:36:10.999Z</time></trkpt><trkpt lat="44.80792473393409" lon="9.260460778706513"><ele>654.2857142857142</ele><time>2026-03-28T15:36:11.998Z</time></trkpt><trkpt lat="44.807967448378854" lon="9.26037328808415"><ele>656.8571428571429</ele><time>2026-03-28T15:36:12.998Z</time></trkpt><trkpt lat="44.808002928431165" lon="9.260292954704038"><ele>659.4285714285714</ele><time>2026-03-28T15:36:13.998Z</time></trkpt><trkpt lat="44.808037339513426" lon="9.260217032847365"><ele>662.0</ele><time>2026-03-28T15:36:14.998Z</time></trkpt><trkpt lat="44.808079678674304" lon="9.26012687753924"><ele>662.0</ele><time>2026-03-28T15:36:15.998Z</time></trkpt><trkpt lat="44.808120206754644" lon="9.260025695375724"><ele>662.0</ele><time>2026-03-28T15:36:16.998Z</time></trkpt><trkpt lat="44.808141501964606" lon="9.259911880981287"><ele>662.0</ele><time>2026-03-28T15:36:17.998Z</time></trkpt><trkpt lat="44.80814218864436" lon="9.259797774832489"><ele>662.0</ele><time>2026-03-28T15:36:18.998Z</time></trkpt><trkpt lat="44.808136751274056" lon="9.259698756736258"><ele>662.0</ele><time>2026-03-28T15:36:19.998Z</time></trkpt><trkpt lat="44.80816930470267" lon="9.259589870644247"><ele>662.0</ele><time>2026-03-28T15:36:21.998Z</time></trkpt><trkpt lat="44.8082495199015" lon="9.259627970010447"><ele>662.0</ele><time>2026-03-28T15:36:23.998Z</time></trkpt><trkpt lat="44.80831060670211" lon="9.259765075824152"><ele>662.0</ele><time>2026-03-28T15:36:25.998Z</time></trkpt><trkpt lat="44.808352836848286" lon="9.259832302428554"><ele>662.0</ele><time>2026-03-28T15:36:26.998Z</time></trkpt><trkpt lat="44.808406494776186" lon="9.259886819895817"><ele>662.0</ele><time>2026-03-28T15:36:27.998Z</time></trkpt><trkpt lat="44.808468671335554" lon="9.259925183066242"><ele>662.0</ele><time>2026-03-28T15:36:28.998Z</time></trkpt><trkpt lat="44.80853326186173" lon="9.259964304299235"><ele>662.0</ele><time>2026-03-28T15:36:29.998Z</time></trkpt><trkpt lat="44.808595642177714" lon="9.260019274431775"><ele>663.6666666666666</ele><time>2026-03-28T15:36:30.998Z</time></trkpt><trkpt lat="44.80865598766728" lon="9.26007818531923"><ele>665.3333333333333</ele><time>2026-03-28T15:36:31.998Z</time></trkpt><trkpt lat="44.80871118509005" lon="9.260131075651413"><ele>667.0</ele><time>2026-03-28T15:36:32.998Z</time></trkpt><trkpt lat="44.808804794039325" lon="9.260220205489047"><ele>668.6666666666666</ele><time>2026-03-28T15:36:34.998Z</time></trkpt><trkpt lat="44.80884721882393" lon="9.260288942880878"><ele>670.3333333333334</ele><time>2026-03-28T15:36:36.998Z</time></trkpt><trkpt lat="44.80887858746223" lon="9.260371653256746"><ele>672.0</ele><time>2026-03-28T15:38:20.999Z</time></trkpt><trkpt lat="44.80882313881284" lon="9.260455983366645"><ele>672.0</ele><time>2026-03-28T15:38:22.999Z</time></trkpt><trkpt lat="44.80876691229268" lon="9.260595990200272"><ele>672.0</ele><time>2026-03-28T15:38:24.999Z</time></trkpt><trkpt lat="44.808763197497754" lon="9.260700636688073"><ele>672.0</ele><time>2026-03-28T15:38:25.999Z</time></trkpt><trkpt lat="44.80876365961236" lon="9.26082763089424"><ele>672.0</ele><time>2026-03-28T15:38:26.999Z</time></trkpt><trkpt lat="44.808782604303715" lon="9.26093270660187"><ele>672.0</ele><time>2026-03-28T15:38:27.999Z</time></trkpt><trkpt lat="44.808803684621715" lon="9.261054420581639"><ele>672.0</ele><time>2026-03-28T15:38:28.999Z</time></trkpt><trkpt lat="44.808827407056704" lon="9.261191389619636"><ele>674.2</ele><time>2026-03-28T15:38:29.999Z</time></trkpt><trkpt lat="44.80885285717382" lon="9.261333864767511"><ele>676.4000000000001</ele><time>2026-03-28T15:38:30.999Z</time></trkpt><trkpt lat="44.808878020041476" lon="9.261474507721836"><ele>678.5999999999999</ele><time>2026-03-28T15:38:31.999Z</time></trkpt><trkpt lat="44.80891963313266" lon="9.26160246152123"><ele>680.8</ele><time>2026-03-28T15:38:32.999Z</time></trkpt><trkpt lat="44.80895025779111" lon="9.261739500877928"><ele>683.0</ele><time>2026-03-28T15:38:33.999Z</time></trkpt><trkpt lat="44.80898823978556" lon="9.261883708797972"><ele>683.0</ele><time>2026-03-28T15:38:34.999Z</time></trkpt><trkpt lat="44.80903310994264" lon="9.262032012728843"><ele>683.0</ele><time>2026-03-28T15:38:35.999Z</time></trkpt><trkpt lat="44.80908208537447" lon="9.262172343512821"><ele>683.0</ele><time>2026-03-28T15:38:36.999Z</time></trkpt><trkpt lat="44.809126976446386" lon="9.262293173463604"><ele>683.0</ele><time>2026-03-28T15:38:37.999Z</time></trkpt><trkpt lat="44.80917680101579" lon="9.262411637908938"><ele>683.0</ele><time>2026-03-28T15:38:38.999Z</time></trkpt><trkpt lat="44.80923097973801" lon="9.26252785043641"><ele>681.2</ele><time>2026-03-28T15:38:39.999Z</time></trkpt><trkpt lat="44.80928709092582" lon="9.26263728706695"><ele>679.4</ele><time>2026-03-28T15:38:40.999Z</time></trkpt><trkpt lat="44.809356105562756" lon="9.262747599625294"><ele>677.6</ele><time>2026-03-28T15:38:41.999Z</time></trkpt><trkpt lat="44.809415113989004" lon="9.26283881599632"><ele>675.8000000000001</ele><time>2026-03-28T15:38:42.999Z</time></trkpt><trkpt lat="44.80949024497777" lon="9.262946882842225"><ele>674.0</ele><time>2026-03-28T15:38:43.999Z</time></trkpt><trkpt lat="44.80957602162952" lon="9.26305321582778"><ele>676.8000000000001</ele><time>2026-03-28T15:38:44.999Z</time></trkpt><trkpt lat="44.809674979993915" lon="9.263145122733363"><ele>679.6</ele><time>2026-03-28T15:38:45.999Z</time></trkpt><trkpt lat="44.80976594417502" lon="9.263229731261037"><ele>682.4</ele><time>2026-03-28T15:38:46.999Z</time></trkpt><trkpt lat="44.80984967712626" lon="9.263310558356393"><ele>685.2</ele><time>2026-03-28T15:38:47.999Z</time></trkpt><trkpt lat="44.8099332670275" lon="9.263389773217565"><ele>688.0</ele><time>2026-03-28T15:38:48.999Z</time></trkpt><trkpt lat="44.8100156981203" lon="9.263465334821035"><ele>688.0</ele><time>2026-03-28T15:38:49.999Z</time></trkpt><trkpt lat="44.81008728017566" lon="9.263539699514844"><ele>688.0</ele><time>2026-03-28T15:38:50.999Z</time></trkpt><trkpt lat="44.810142684047456" lon="9.263614281709048"><ele>688.0</ele><time>2026-03-28T15:38:51.999Z</time></trkpt><trkpt lat="44.81016511614302" lon="9.26372667100026"><ele>688.0</ele><time>2026-03-28T15:38:52.999Z</time></trkpt><trkpt lat="44.81019644530341" lon="9.263844690627517"><ele>688.0</ele><time>2026-03-28T15:38:53.999Z</time></trkpt><trkpt lat="44.810227985079905" lon="9.263987000893328"><ele>688.0</ele><time>2026-03-28T15:38:54.999Z</time></trkpt><trkpt lat="44.81027051153919" lon="9.26414764901352"><ele>690.5</ele><time>2026-03-28T15:38:55.999Z</time></trkpt><trkpt lat="44.81033733133555" lon="9.264300767434714"><ele>693.0</ele><time>2026-03-28T15:38:56.999Z</time></trkpt><trkpt lat="44.81042535039774" lon="9.264434424860655"><ele>695.5</ele><time>2026-03-28T15:38:57.999Z</time></trkpt><trkpt lat="44.81051699986676" lon="9.264558581891249"><ele>698.0</ele><time>2026-03-28T15:38:58.999Z</time></trkpt><trkpt lat="44.810608465152576" lon="9.264678494316824"><ele>695.5</ele><time>2026-03-28T15:38:59.999Z</time></trkpt><trkpt lat="44.810699410971665" lon="9.264792414082468"><ele>693.0</ele><time>2026-03-28T15:39:00.999Z</time></trkpt><trkpt lat="44.810790427911456" lon="9.264906094477444"><ele>690.5</ele><time>2026-03-28T15:39:01.999Z</time></trkpt><trkpt lat="44.81088268993887" lon="9.265021309665272"><ele>688.0</ele><time>2026-03-28T15:39:02.999Z</time></trkpt><trkpt lat="44.810975893907795" lon="9.26513624858598"><ele>693.4</ele><time>2026-03-28T15:39:04.001Z</time></trkpt><trkpt lat="44.81106429412818" lon="9.26523276025963"><ele>698.8</ele><time>2026-03-28T15:39:05.001Z</time></trkpt><trkpt lat="44.81114646275762" lon="9.265313883860454"><ele>704.2</ele><time>2026-03-28T15:39:06.001Z</time></trkpt><trkpt lat="44.81121960886107" lon="9.265388275957198"><ele>709.6</ele><time>2026-03-28T15:39:07.001Z</time></trkpt><trkpt lat="44.81129271223758" lon="9.265450660122472"><ele>715.0</ele><time>2026-03-28T15:39:08.001Z</time></trkpt><trkpt lat="44.81130010868195" lon="9.265565458377925"><ele>711.4</ele><time>2026-03-28T15:39:09.001Z</time></trkpt><trkpt lat="44.8112887580349" lon="9.265673845640604"><ele>707.8</ele><time>2026-03-28T15:39:10.001Z</time></trkpt><trkpt lat="44.811259304133145" lon="9.265786184045187"><ele>704.2</ele><time>2026-03-28T15:39:11.001Z</time></trkpt><trkpt lat="44.81121091117053" lon="9.265907246806426"><ele>700.6</ele><time>2026-03-28T15:39:12.001Z</time></trkpt><trkpt lat="44.81114891738128" lon="9.266045538678533"><ele>697.0</ele><time>2026-03-28T15:39:13.001Z</time></trkpt><trkpt lat="44.81108304064115" lon="9.266191732899687"><ele>697.0</ele><time>2026-03-28T15:39:14.001Z</time></trkpt><trkpt lat="44.81101780331259" lon="9.266336508380316"><ele>697.0</ele><time>2026-03-28T15:39:15.001Z</time></trkpt><trkpt lat="44.810953233697546" lon="9.26647937809116"><ele>697.0</ele><time>2026-03-28T15:39:16.001Z</time></trkpt><trkpt lat="44.810887990737555" lon="9.266623024186016"><ele>697.0</ele><time>2026-03-28T15:39:17.001Z</time></trkpt><trkpt lat="44.81082152618601" lon="9.266770651597339"><ele>697.75</ele><time>2026-03-28T15:39:18.001Z</time></trkpt><trkpt lat="44.81075588305075" lon="9.266913096994573"><ele>698.5</ele><time>2026-03-28T15:39:19Z</time></trkpt><trkpt lat="44.81068453182753" lon="9.267058619497805"><ele>699.25</ele><time>2026-03-28T15:39:20Z</time></trkpt><trkpt lat="44.81060758420826" lon="9.26718012462678"><ele>700.0</ele><time>2026-03-28T15:39:21Z</time></trkpt><trkpt lat="44.810518802205735" lon="9.267290716441238"><ele>700.0</ele><time>2026-03-28T15:39:22Z</time></trkpt><trkpt lat="44.81042915950227" lon="9.267401587586448"><ele>700.0</ele><time>2026-03-28T15:39:23Z</time></trkpt><trkpt lat="44.81034241228144" lon="9.267508877548956"><ele>700.0</ele><time>2026-03-28T15:39:24Z</time></trkpt><trkpt lat="44.810258412349675" lon="9.267613064976624"><ele>700.0</ele><time>2026-03-28T15:39:25Z</time></trkpt><trkpt lat="44.81017974052424" lon="9.26771623939533"><ele>699.8</ele><time>2026-03-28T15:39:26Z</time></trkpt><trkpt lat="44.810105006861434" lon="9.267825006545667"><ele>699.6</ele><time>2026-03-28T15:39:27Z</time></trkpt><trkpt lat="44.81004855711306" lon="9.267967227557406"><ele>699.4000000000001</ele><time>2026-03-28T15:39:28Z</time></trkpt><trkpt lat="44.810004663705584" lon="9.268067331671624"><ele>699.2</ele><time>2026-03-28T15:39:29Z</time></trkpt><trkpt lat="44.80996840773726" lon="9.268150018149038"><ele>699.0</ele><time>2026-03-28T15:39:30Z</time></trkpt><trkpt lat="44.81014715364402" lon="9.268268855110106"><ele>699.2</ele><time>2026-03-28T15:39:34Z</time></trkpt><trkpt lat="44.81020148510735" lon="9.268205048098638"><ele>699.4000000000001</ele><time>2026-03-28T15:39:35Z</time></trkpt><trkpt lat="44.81033943973227" lon="9.268153039138214"><ele>699.6</ele><time>2026-03-28T15:39:37Z</time></trkpt><trkpt lat="44.81042761603463" lon="9.268117568111846"><ele>699.8</ele><time>2026-03-28T15:39:38Z</time></trkpt><trkpt lat="44.8105324821179" lon="9.2680659751311"><ele>700.0</ele><time>2026-03-28T15:39:39Z</time></trkpt><trkpt lat="44.810663331379544" lon="9.26799937783595"><ele>700.0</ele><time>2026-03-28T15:39:40Z</time></trkpt><trkpt lat="44.81080613316476" lon="9.267956459911266"><ele>700.0</ele><time>2026-03-28T15:39:41Z</time></trkpt><trkpt lat="44.8109427664367" lon="9.267912600003338"><ele>700.0</ele><time>2026-03-28T15:39:42Z</time></trkpt><trkpt lat="44.81106831975162" lon="9.2678656017502"><ele>700.0</ele><time>2026-03-28T15:39:43Z</time></trkpt><trkpt lat="44.81118207908578" lon="9.267806737170803"><ele>702.8</ele><time>2026-03-28T15:39:44Z</time></trkpt><trkpt lat="44.81127991725254" lon="9.267742763796363"><ele>705.6</ele><time>2026-03-28T15:39:45Z</time></trkpt><trkpt lat="44.811368972269364" lon="9.26767708397556"><ele>708.4000000000001</ele><time>2026-03-28T15:39:46Z</time></trkpt><trkpt lat="44.81145090383495" lon="9.267616035522861"><ele>711.2</ele><time>2026-03-28T15:39:47Z</time></trkpt><trkpt lat="44.81154145752454" lon="9.2675816546027"><ele>714.0</ele><time>2026-03-28T15:39:48Z</time></trkpt><trkpt lat="44.81163171388044" lon="9.26754002857697"><ele>714.0</ele><time>2026-03-28T15:39:49Z</time></trkpt><trkpt lat="44.811725709975015" lon="9.267507706973957"><ele>714.0</ele><time>2026-03-28T15:39:50Z</time></trkpt><trkpt lat="44.81182466610085" lon="9.26752402628693"><ele>714.0</ele><time>2026-03-28T15:39:51Z</time></trkpt><trkpt lat="44.811931604350406" lon="9.26757041859305"><ele>714.0</ele><time>2026-03-28T15:39:52Z</time></trkpt><trkpt lat="44.81205115897409" lon="9.26762477269861"><ele>714.0</ele><time>2026-03-28T15:39:53Z</time></trkpt><trkpt lat="44.81217969801191" lon="9.267687636531502"><ele>715.0</ele><time>2026-03-28T15:39:54Z</time></trkpt><trkpt lat="44.81229096395322" lon="9.267736673478668"><ele>716.0</ele><time>2026-03-28T15:39:55Z</time></trkpt><trkpt lat="44.81239518613193" lon="9.267782294102288"><ele>717.0</ele><time>2026-03-28T15:39:56Z</time></trkpt><trkpt lat="44.81250027521645" lon="9.267828294083943"><ele>718.0</ele><time>2026-03-28T15:39:57Z</time></trkpt><trkpt lat="44.81259921835293" lon="9.267879169501954"><ele>719.0</ele><time>2026-03-28T15:39:58Z</time></trkpt><trkpt lat="44.81270190838674" lon="9.267946565235484"><ele>722.25</ele><time>2026-03-28T15:39:59Z</time></trkpt><trkpt lat="44.81280284213968" lon="9.26802650970654"><ele>725.5</ele><time>2026-03-28T15:40:00Z</time></trkpt><trkpt lat="44.8129039316257" lon="9.268121105778357"><ele>728.75</ele><time>2026-03-28T15:40:01Z</time></trkpt><trkpt lat="44.81300472765995" lon="9.268217456206136"><ele>732.0</ele><time>2026-03-28T15:40:02Z</time></trkpt><trkpt lat="44.813110456539455" lon="9.268280480987507"><ele>732.25</ele><time>2026-03-28T15:40:03Z</time></trkpt><trkpt lat="44.81322515704457" lon="9.268324637228911"><ele>732.5</ele><time>2026-03-28T15:40:04Z</time></trkpt><trkpt lat="44.81334008227709" lon="9.268353136383576"><ele>732.75</ele><time>2026-03-28T15:40:05Z</time></trkpt><trkpt lat="44.81345388424134" lon="9.268373822428295"><ele>733.0</ele><time>2026-03-28T15:40:06Z</time></trkpt><trkpt lat="44.81356914083392" lon="9.268389998755698"><ele>734.8333333333334</ele><time>2026-03-28T15:40:07Z</time></trkpt><trkpt lat="44.81367573322795" lon="9.268401265512574"><ele>736.6666666666667</ele><time>2026-03-28T15:40:08Z</time></trkpt><trkpt lat="44.81377018132666" lon="9.26840334259277"><ele>738.5</ele><time>2026-03-28T15:40:09Z</time></trkpt><trkpt lat="44.8138425721514" lon="9.268400598498568"><ele>740.3333333333334</ele><time>2026-03-28T15:40:10Z</time></trkpt><trkpt lat="44.813935186440396" lon="9.268381966619115"><ele>742.1666666666666</ele><time>2026-03-28T15:40:12Z</time></trkpt><trkpt lat="44.81396049832331" lon="9.268472891249042"><ele>744.0</ele><time>2026-03-28T15:40:13Z</time></trkpt><trkpt lat="44.81401869372044" lon="9.268536688146844"><ele>744.0</ele><time>2026-03-28T15:40:14Z</time></trkpt><trkpt lat="44.81410006066534" lon="9.268573573854434"><ele>744.0</ele><time>2026-03-28T15:40:15Z</time></trkpt><trkpt lat="44.81417480382991" lon="9.268637794788049"><ele>744.0</ele><time>2026-03-28T15:40:16Z</time></trkpt><trkpt lat="44.81423337283703" lon="9.26874844956243"><ele>744.0</ele><time>2026-03-28T15:40:17Z</time></trkpt><trkpt lat="44.81429729976457" lon="9.268837808608376"><ele>744.0</ele><time>2026-03-28T15:40:18Z</time></trkpt><trkpt lat="44.814338562934886" lon="9.268917010762904"><ele>744.0</ele><time>2026-03-28T15:40:18.999Z</time></trkpt><trkpt lat="44.81433557609626" lon="9.269082533278105"><ele>750.0</ele><time>2026-03-28T15:40:20.999Z</time></trkpt><trkpt lat="44.81434279495123" lon="9.269303426062045"><ele>756.0</ele><time>2026-03-28T15:40:22.999Z</time></trkpt><trkpt lat="44.8144922977078" lon="9.269338027286706"><ele>762.0</ele><time>2026-03-28T15:40:23.999Z</time></trkpt><trkpt lat="44.81453869837652" lon="9.269449858691173"><ele>768.0</ele><time>2026-03-28T15:40:24.999Z</time></trkpt><trkpt lat="44.814572641109066" lon="9.269531664917336"><ele>768.0</ele><time>2026-03-28T15:40:25.999Z</time></trkpt><trkpt lat="44.814626019649225" lon="9.269660313867517"><ele>768.0</ele><time>2026-03-28T15:40:27.999Z</time></trkpt><trkpt lat="44.81459314102044" lon="9.269844389475693"><ele>768.0</ele><time>2026-03-28T15:40:29.999Z</time></trkpt><trkpt lat="44.81469902198933" lon="9.26986010552267"><ele>768.0</ele><time>2026-03-28T15:40:30.999Z</time></trkpt><trkpt lat="44.8148003906511" lon="9.269892363799741"><ele>768.2</ele><time>2026-03-28T15:40:31.999Z</time></trkpt><trkpt lat="44.81488585046086" lon="9.269972090064751"><ele>768.4</ele><time>2026-03-28T15:40:32.999Z</time></trkpt><trkpt lat="44.81494430212806" lon="9.2701284561193"><ele>768.6</ele><time>2026-03-28T15:40:34.999Z</time></trkpt><trkpt lat="44.81497721709267" lon="9.270236475767286"><ele>768.8000000000001</ele><time>2026-03-28T15:40:36.999Z</time></trkpt><trkpt lat="44.81503315171502" lon="9.270297810961587"><ele>769.0</ele><time>2026-03-28T15:40:38.999Z</time></trkpt><trkpt lat="44.81513879682093" lon="9.270310392488392"><ele>772.6</ele><time>2026-03-28T15:40:40.999Z</time></trkpt><trkpt lat="44.815225802966374" lon="9.270322433104626"><ele>776.2</ele><time>2026-03-28T15:40:42.999Z</time></trkpt><trkpt lat="44.815299498373626" lon="9.270338831611182"><ele>779.8000000000001</ele><time>2026-03-28T15:40:44.999Z</time></trkpt><trkpt lat="44.815426264293336" lon="9.270334145545542"><ele>783.4000000000001</ele><time>2026-03-28T15:40:47.999Z</time></trkpt><trkpt lat="44.815499894831035" lon="9.270301916984147"><ele>787.0</ele><time>2026-03-28T15:40:49.999Z</time></trkpt><trkpt lat="44.8155657163569" lon="9.270185343184554"><ele>787.0</ele><time>2026-03-28T15:40:51.999Z</time></trkpt><trkpt lat="44.81554501830692" lon="9.270057230573814"><ele>787.0</ele><time>2026-03-28T15:40:54.999Z</time></trkpt><trkpt lat="44.8156142173485" lon="9.26986566020827"><ele>787.0</ele><time>2026-03-28T15:40:56.999Z</time></trkpt><trkpt lat="44.81570142767473" lon="9.269662175565133"><ele>787.0</ele><time>2026-03-28T15:40:57.999Z</time></trkpt><trkpt lat="44.81578429768305" lon="9.269416962396784"><ele>786.75</ele><time>2026-03-28T15:40:58.999Z</time></trkpt><trkpt lat="44.81586074137398" lon="9.269273853545124"><ele>786.5</ele><time>2026-03-28T15:40:59.999Z</time></trkpt><trkpt lat="44.81593385972061" lon="9.269132429685035"><ele>786.25</ele><time>2026-03-28T15:41:00.999Z</time></trkpt><trkpt lat="44.815963116091936" lon="9.268965902179964"><ele>786.0</ele><time>2026-03-28T15:41:01.999Z</time></trkpt><trkpt lat="44.81599012823292" lon="9.26881148181305"><ele>793.1999999999999</ele><time>2026-03-28T15:41:02.999Z</time></trkpt><trkpt lat="44.815996822261056" lon="9.268675379583977"><ele>800.4</ele><time>2026-03-28T15:41:03.999Z</time></trkpt><trkpt lat="44.8160115828033" lon="9.268540906742045"><ele>807.6</ele><time>2026-03-28T15:41:04.999Z</time></trkpt><trkpt lat="44.81603647405687" lon="9.268397469630195"><ele>814.8</ele><time>2026-03-28T15:41:05.999Z</time></trkpt><trkpt lat="44.81603996269825" lon="9.268264123561256"><ele>822.0</ele><time>2026-03-28T15:41:06.999Z</time></trkpt><trkpt lat="44.81603228592966" lon="9.268131144118053"><ele>822.2</ele><time>2026-03-28T15:41:08.999Z</time></trkpt><trkpt lat="44.81603301521785" lon="9.268009667876237"><ele>822.4000000000001</ele><time>2026-03-28T15:41:10.001Z</time></trkpt><trkpt lat="44.816017237703605" lon="9.267884094014622"><ele>822.5999999999999</ele><time>2026-03-28T15:41:11.001Z</time></trkpt><trkpt lat="44.81599681862148" lon="9.267735047632113"><ele>822.8</ele><time>2026-03-28T15:41:12.001Z</time></trkpt><trkpt lat="44.81597563622069" lon="9.267605668147759"><ele>823.0</ele><time>2026-03-28T15:41:13.001Z</time></trkpt><trkpt lat="44.81596104299082" lon="9.267500853051253"><ele>823.0</ele><time>2026-03-28T15:41:14.001Z</time></trkpt><trkpt lat="44.815986526514955" lon="9.267398397047767"><ele>823.0</ele><time>2026-03-28T15:41:15.001Z</time></trkpt><trkpt lat="44.81601769969575" lon="9.267305255453989"><ele>823.0</ele><time>2026-03-28T15:41:16.001Z</time></trkpt><trkpt lat="44.81605195486908" lon="9.267134365947419"><ele>823.0</ele><time>2026-03-28T15:41:17.001Z</time></trkpt><trkpt lat="44.81608658546543" lon="9.266950934703848"><ele>823.0</ele><time>2026-03-28T15:41:18.001Z</time></trkpt><trkpt lat="44.81609478846148" lon="9.266777937557881"><ele>822.8</ele><time>2026-03-28T15:41:19.001Z</time></trkpt><trkpt lat="44.81610536271844" lon="9.266626185506581"><ele>822.5999999999999</ele><time>2026-03-28T15:41:20.001Z</time></trkpt><trkpt lat="44.81612767017319" lon="9.266524809774086"><ele>822.4000000000001</ele><time>2026-03-28T15:41:21.001Z</time></trkpt><trkpt lat="44.81615172768466" lon="9.266415917995852"><ele>822.2</ele><time>2026-03-28T15:41:22.001Z</time></trkpt><trkpt lat="44.81616372942522" lon="9.266302382540244"><ele>822.0</ele><time>2026-03-28T15:41:23.001Z</time></trkpt><trkpt lat="44.816160976466854" lon="9.266151907970306"><ele>821.0</ele><time>2026-03-28T15:41:24.001Z</time></trkpt><trkpt lat="44.81617519048284" lon="9.266018500459092"><ele>820.0</ele><time>2026-03-28T15:41:25Z</time></trkpt><trkpt lat="44.81619366408292" lon="9.265851489563186"><ele>819.0</ele><time>2026-03-28T15:41:26Z</time></trkpt><trkpt lat="44.816222982710876" lon="9.265706638706222"><ele>818.0</ele><time>2026-03-28T15:41:27Z</time></trkpt><trkpt lat="44.81625432742914" lon="9.265609708296106"><ele>817.0</ele><time>2026-03-28T15:41:28Z</time></trkpt><trkpt lat="44.81632684499048" lon="9.265530016517998"><ele>817.0</ele><time>2026-03-28T15:41:29Z</time></trkpt><trkpt lat="44.816361383029076" lon="9.265448403283465"><ele>817.0</ele><time>2026-03-28T15:41:30Z</time></trkpt><trkpt lat="44.816313722257426" lon="9.265318237535581"><ele>817.0</ele><time>2026-03-28T15:41:33Z</time></trkpt><trkpt lat="44.81631451149414" lon="9.265161108391707"><ele>817.0</ele><time>2026-03-28T15:41:35Z</time></trkpt><trkpt lat="44.8163400711716" lon="9.26507666487925"><ele>817.0</ele><time>2026-03-28T15:41:36Z</time></trkpt><trkpt lat="44.81639629285665" lon="9.264936312130231"><ele>818.25</ele><time>2026-03-28T15:41:37Z</time></trkpt><trkpt lat="44.8164719447447" lon="9.264718327667818"><ele>819.5</ele><time>2026-03-28T15:41:38Z</time></trkpt><trkpt lat="44.81652924299682" lon="9.264562041556513"><ele>820.75</ele><time>2026-03-28T15:41:39Z</time></trkpt><trkpt lat="44.816573336638086" lon="9.26440202694055"><ele>822.0</ele><time>2026-03-28T15:41:40Z</time></trkpt><trkpt lat="44.81660602382627" lon="9.264282460002205"><ele>822.0</ele><time>2026-03-28T15:41:41Z</time></trkpt><trkpt lat="44.81664466537332" lon="9.264154022650564"><ele>822.0</ele><time>2026-03-28T15:41:42Z</time></trkpt><trkpt lat="44.81666427272784" lon="9.264054262369598"><ele>822.0</ele><time>2026-03-28T15:41:43Z</time></trkpt><trkpt lat="44.816690127534116" lon="9.263933589158361"><ele>822.0</ele><time>2026-03-28T15:41:44Z</time></trkpt><trkpt lat="44.816670696200454" lon="9.263808679715561"><ele>822.0</ele><time>2026-03-28T15:41:46Z</time></trkpt><trkpt lat="44.816624654941" lon="9.263727968013324"><ele>822.0</ele><time>2026-03-28T15:41:47Z</time></trkpt><trkpt lat="44.81656895401492" lon="9.26362538671253"><ele>822.0</ele><time>2026-03-28T15:41:48Z</time></trkpt><trkpt lat="44.816544824044094" lon="9.263540743899851"><ele>822.0</ele><time>2026-03-28T15:41:49Z</time></trkpt><trkpt lat="44.81652339180515" lon="9.263432050026255"><ele>822.0</ele><time>2026-03-28T15:41:50Z</time></trkpt><trkpt lat="44.8165126138952" lon="9.263233938235045"><ele>822.0</ele><time>2026-03-28T15:41:51Z</time></trkpt><trkpt lat="44.81649082027674" lon="9.26306382667155"><ele>822.0</ele><time>2026-03-28T15:41:52Z</time></trkpt><trkpt lat="44.81646039707942" lon="9.262907788481082"><ele>822.0</ele><time>2026-03-28T15:41:53Z</time></trkpt><trkpt lat="44.81644707763026" lon="9.262749021738202"><ele>822.0</ele><time>2026-03-28T15:41:54Z</time></trkpt><trkpt lat="44.81642992827185" lon="9.262658040536781"><ele>822.0</ele><time>2026-03-28T15:41:55Z</time></trkpt><trkpt lat="44.81638213470753" lon="9.26256479334071"><ele>822.0</ele><time>2026-03-28T15:41:57Z</time></trkpt><trkpt lat="44.816405547838045" lon="9.26245846620166"><ele>822.0</ele><time>2026-03-28T15:42:10Z</time></trkpt><trkpt lat="44.8164691206625" lon="9.262292516036098"><ele>821.8333333333334</ele><time>2026-03-28T15:42:12Z</time></trkpt><trkpt lat="44.81651755950931" lon="9.262191306938668"><ele>821.6666666666667</ele><time>2026-03-28T15:42:13Z</time></trkpt><trkpt lat="44.816565902851394" lon="9.262092992580586"><ele>821.5</ele><time>2026-03-28T15:42:14Z</time></trkpt><trkpt lat="44.81661460531073" lon="9.261999984831162"><ele>821.3333333333334</ele><time>2026-03-28T15:42:15Z</time></trkpt><trkpt lat="44.81669453329974" lon="9.261917726051"><ele>821.1666666666667</ele><time>2026-03-28T15:42:16Z</time></trkpt><trkpt lat="44.816760480872695" lon="9.26184443764841"><ele>821.0</ele><time>2026-03-28T15:42:17Z</time></trkpt><trkpt lat="44.816816865467196" lon="9.261772059911026"><ele>825.5999999999999</ele><time>2026-03-28T15:42:18Z</time></trkpt><trkpt lat="44.816877701148776" lon="9.261701269007771"><ele>830.2</ele><time>2026-03-28T15:42:19Z</time></trkpt><trkpt lat="44.81694490577144" lon="9.261643617313203"><ele>834.8</ele><time>2026-03-28T15:42:20Z</time></trkpt><trkpt lat="44.81705022278115" lon="9.261490987113651"><ele>839.4000000000001</ele><time>2026-03-28T15:42:22Z</time></trkpt><trkpt lat="44.81710765500585" lon="9.261378399833575"><ele>844.0</ele><time>2026-03-28T15:42:23Z</time></trkpt><trkpt lat="44.81714485697764" lon="9.261256378179345"><ele>845.2</ele><time>2026-03-28T15:42:23.999Z</time></trkpt><trkpt lat="44.81715136614946" lon="9.261116002176152"><ele>846.4000000000001</ele><time>2026-03-28T15:42:24.999Z</time></trkpt><trkpt lat="44.817143591087024" lon="9.260969226588784"><ele>847.6</ele><time>2026-03-28T15:42:25.999Z</time></trkpt><trkpt lat="44.8171374246784" lon="9.260822888412175"><ele>848.8</ele><time>2026-03-28T15:42:26.999Z</time></trkpt><trkpt lat="44.81714180948331" lon="9.26069689248225"><ele>850.0</ele><time>2026-03-28T15:42:27.999Z</time></trkpt><trkpt lat="44.81714960245267" lon="9.260574397837948"><ele>852.6666666666666</ele><time>2026-03-28T15:42:28.999Z</time></trkpt><trkpt lat="44.81714967637203" lon="9.260459149752007"><ele>855.3333333333333</ele><time>2026-03-28T15:42:29.999Z</time></trkpt><trkpt lat="44.81713859921839" lon="9.260341038237659"><ele>858.0</ele><time>2026-03-28T15:42:30.999Z</time></trkpt><trkpt lat="44.817111191845" lon="9.260236250053989"><ele>860.6666666666667</ele><time>2026-03-28T15:42:31.999Z</time></trkpt><trkpt lat="44.81707427316929" lon="9.260126125936786"><ele>863.3333333333334</ele><time>2026-03-28T15:42:32.999Z</time></trkpt><trkpt lat="44.81703590428369" lon="9.26001978003029"><ele>866.0</ele><time>2026-03-28T15:42:33.999Z</time></trkpt><trkpt lat="44.81699292303468" lon="9.259915267476527"><ele>866.0</ele><time>2026-03-28T15:42:34.999Z</time></trkpt><trkpt lat="44.8169642855101" lon="9.259801623050032"><ele>865.9999999999999</ele><time>2026-03-28T15:42:35.999Z</time></trkpt><trkpt lat="44.8169404145072" lon="9.259684203356166"><ele>865.9999999999999</ele><time>2026-03-28T15:42:36.999Z</time></trkpt><trkpt lat="44.816918152152695" lon="9.259562308620236"><ele>866.0</ele><time>2026-03-28T15:42:37.999Z</time></trkpt><trkpt lat="44.816899707105335" lon="9.259434007135846"><ele>866.0</ele><time>2026-03-28T15:42:38.999Z</time></trkpt><trkpt lat="44.81688062623953" lon="9.259301527660774"><ele>868.0</ele><time>2026-03-28T15:42:39.999Z</time></trkpt><trkpt lat="44.816858531361255" lon="9.25917168928909"><ele>869.9999999999999</ele><time>2026-03-28T15:42:40.999Z</time></trkpt><trkpt lat="44.81682846875891" lon="9.259046358709455"><ele>871.9999999999999</ele><time>2026-03-28T15:42:41.999Z</time></trkpt><trkpt lat="44.81679104353429" lon="9.25892668378148"><ele>874.0</ele><time>2026-03-28T15:42:42.999Z</time></trkpt><trkpt lat="44.81674344313457" lon="9.258812824828157"><ele>876.0</ele><time>2026-03-28T15:42:43.999Z</time></trkpt><trkpt lat="44.81670790298599" lon="9.25870627218933"><ele>872.0</ele><time>2026-03-28T15:42:44.999Z</time></trkpt><trkpt lat="44.816688946431775" lon="9.25858348779174"><ele>867.9999999999999</ele><time>2026-03-28T15:42:45.999Z</time></trkpt><trkpt lat="44.81668854500186" lon="9.25845231246873"><ele>863.9999999999999</ele><time>2026-03-28T15:42:46.999Z</time></trkpt><trkpt lat="44.816713709589415" lon="9.258320218403494"><ele>860.0</ele><time>2026-03-28T15:42:47.999Z</time></trkpt><trkpt lat="44.81675986929008" lon="9.25819957104432"><ele>856.0</ele><time>2026-03-28T15:42:48.999Z</time></trkpt><trkpt lat="44.81682259205458" lon="9.258088947292494"><ele>856.0</ele><time>2026-03-28T15:42:49.999Z</time></trkpt><trkpt lat="44.8169123045833" lon="9.258010135902287"><ele>856.0</ele><time>2026-03-28T15:42:50.999Z</time></trkpt><trkpt lat="44.8170155061893" lon="9.257953671721737"><ele>856.0</ele><time>2026-03-28T15:42:51.999Z</time></trkpt><trkpt lat="44.81712920664843" lon="9.2579205908103"><ele>856.0</ele><time>2026-03-28T15:42:52.999Z</time></trkpt><trkpt lat="44.817254977968744" lon="9.257920936977557"><ele>856.0</ele><time>2026-03-28T15:42:53.999Z</time></trkpt><trkpt lat="44.81737386529844" lon="9.257871533796955"><ele>856.0</ele><time>2026-03-28T15:42:54.999Z</time></trkpt><trkpt lat="44.81748390161441" lon="9.257802469225924"><ele>856.0</ele><time>2026-03-28T15:42:55.999Z</time></trkpt><trkpt lat="44.81758758200376" lon="9.25775063675457"><ele>856.0</ele><time>2026-03-28T15:42:56.999Z</time></trkpt><trkpt lat="44.817684822575025" lon="9.257698674960736"><ele>858.4</ele><time>2026-03-28T15:42:57.999Z</time></trkpt><trkpt lat="44.81778588836167" lon="9.25764387033606"><ele>860.8</ele><time>2026-03-28T15:42:58.999Z</time></trkpt><trkpt lat="44.81788031141067" lon="9.257580591852758"><ele>863.1999999999999</ele><time>2026-03-28T15:42:59.999Z</time></trkpt><trkpt lat="44.81797315567899" lon="9.257510939122762"><ele>865.5999999999999</ele><time>2026-03-28T15:43:00.999Z</time></trkpt><trkpt lat="44.81806493610811" lon="9.257425859366132"><ele>868.0</ele><time>2026-03-28T15:43:01.999Z</time></trkpt><trkpt lat="44.81815466988933" lon="9.257338360221848"><ele>864.5</ele><time>2026-03-28T15:43:02.999Z</time></trkpt><trkpt lat="44.81824328689583" lon="9.2572365671668"><ele>861.0</ele><time>2026-03-28T15:43:03.999Z</time></trkpt><trkpt lat="44.81832489006109" lon="9.257116271510606"><ele>857.5</ele><time>2026-03-28T15:43:04.999Z</time></trkpt><trkpt lat="44.818395758579115" lon="9.256982751713824"><ele>854.0</ele><time>2026-03-28T15:43:05.999Z</time></trkpt><trkpt lat="44.81843708252668" lon="9.256828942773216"><ele>854.0</ele><time>2026-03-28T15:43:06.999Z</time></trkpt><trkpt lat="44.8184808289306" lon="9.256692518619174"><ele>854.0000000000001</ele><time>2026-03-28T15:43:07.999Z</time></trkpt><trkpt lat="44.8185349030696" lon="9.25658959856985"><ele>854.0000000000001</ele><time>2026-03-28T15:43:08.999Z</time></trkpt><trkpt lat="44.81860774364099" lon="9.256497690162176"><ele>854.0</ele><time>2026-03-28T15:43:09.999Z</time></trkpt><trkpt lat="44.818676015086076" lon="9.256390530782703"><ele>854.0</ele><time>2026-03-28T15:43:10.999Z</time></trkpt><trkpt lat="44.818737326724595" lon="9.25626578208096"><ele>854.0</ele><time>2026-03-28T15:43:11.999Z</time></trkpt><trkpt lat="44.81878268683744" lon="9.256129003390988"><ele>854.0000000000001</ele><time>2026-03-28T15:43:12.999Z</time></trkpt><trkpt lat="44.81880637015684" lon="9.255992826934424"><ele>854.0000000000001</ele><time>2026-03-28T15:43:13.999Z</time></trkpt><trkpt lat="44.818817416532575" lon="9.25585432465119"><ele>854.0</ele><time>2026-03-28T15:43:15Z</time></trkpt><trkpt lat="44.81883010640464" lon="9.255717815037237"><ele>854.0</ele><time>2026-03-28T15:43:16Z</time></trkpt><trkpt lat="44.818847702397655" lon="9.255578387133989"><ele>854.0</ele><time>2026-03-28T15:43:17Z</time></trkpt><trkpt lat="44.81887406036291" lon="9.255437323606843"><ele>854.0000000000001</ele><time>2026-03-28T15:43:18Z</time></trkpt><trkpt lat="44.81890741451385" lon="9.2553020096932"><ele>854.0000000000001</ele><time>2026-03-28T15:43:19Z</time></trkpt><trkpt lat="44.81895058804211" lon="9.255181834663695"><ele>854.0</ele><time>2026-03-28T15:43:20Z</time></trkpt><trkpt lat="44.819009073766594" lon="9.25506773622924"><ele>854.0</ele><time>2026-03-28T15:43:21Z</time></trkpt><trkpt lat="44.81909659118183" lon="9.254973991548487"><ele>854.0</ele><time>2026-03-28T15:43:22Z</time></trkpt><trkpt lat="44.81920156878836" lon="9.254917379274234"><ele>854.0</ele><time>2026-03-28T15:43:23Z</time></trkpt><trkpt lat="44.81931363007022" lon="9.25486759688201"><ele>854.0</ele><time>2026-03-28T15:43:24Z</time></trkpt><trkpt lat="44.81943206866353" lon="9.25482164252956"><ele>854.0</ele><time>2026-03-28T15:43:25Z</time></trkpt><trkpt lat="44.8195505281312" lon="9.254783214313091"><ele>852.0</ele><time>2026-03-28T15:43:26Z</time></trkpt><trkpt lat="44.81966387539622" lon="9.25474600372966"><ele>850.0000000000001</ele><time>2026-03-28T15:43:27Z</time></trkpt><trkpt lat="44.8197771586105" lon="9.254708814152433"><ele>848.0</ele><time>2026-03-28T15:43:28Z</time></trkpt><trkpt lat="44.81988121196926" lon="9.254672301421317"><ele>846.0</ele><time>2026-03-28T15:43:29Z</time></trkpt><trkpt lat="44.81998465225701" lon="9.25463172785874"><ele>844.0</ele><time>2026-03-28T15:43:30Z</time></trkpt><trkpt lat="44.820081673169284" lon="9.254593586270158"><ele>844.8000000000001</ele><time>2026-03-28T15:43:31Z</time></trkpt><trkpt lat="44.82016840813004" lon="9.254530823877891"><ele>845.6</ele><time>2026-03-28T15:43:32Z</time></trkpt><trkpt lat="44.820245609125585" lon="9.254482989826792"><ele>846.4</ele><time>2026-03-28T15:43:33Z</time></trkpt><trkpt lat="44.820300418974064" lon="9.254422261325546"><ele>847.2</ele><time>2026-03-28T15:43:34Z</time></trkpt><trkpt lat="44.820315129674704" lon="9.254242237832775"><ele>848.0</ele><time>2026-03-28T15:43:36Z</time></trkpt><trkpt lat="44.820285537296435" lon="9.254116068494653"><ele>848.0</ele><time>2026-03-28T15:43:37Z</time></trkpt><trkpt lat="44.8202471456439" lon="9.253979734678053"><ele>848.0</ele><time>2026-03-28T15:43:38Z</time></trkpt><trkpt lat="44.820212196349516" lon="9.253846271113972"><ele>848.0</ele><time>2026-03-28T15:43:39Z</time></trkpt><trkpt lat="44.82017887664699" lon="9.253743641136206"><ele>848.0</ele><time>2026-03-28T15:43:40Z</time></trkpt><trkpt lat="44.82019639140375" lon="9.25357091549647"><ele>848.0</ele><time>2026-03-28T15:43:42Z</time></trkpt><trkpt lat="44.82027326443305" lon="9.253497734060408"><ele>846.4</ele><time>2026-03-28T15:43:43Z</time></trkpt><trkpt lat="44.82035327542041" lon="9.253420362594195"><ele>844.8</ele><time>2026-03-28T15:43:44Z</time></trkpt><trkpt lat="44.82043625524582" lon="9.253329763041531"><ele>843.2</ele><time>2026-03-28T15:43:45Z</time></trkpt><trkpt lat="44.8205085449348" lon="9.25326331518599"><ele>841.6</ele><time>2026-03-28T15:43:46Z</time></trkpt><trkpt lat="44.820587900527215" lon="9.253209755562423"><ele>840.0</ele><time>2026-03-28T15:43:47Z</time></trkpt><trkpt lat="44.82067874775764" lon="9.253148652079233"><ele>838.4</ele><time>2026-03-28T15:43:48Z</time></trkpt><trkpt lat="44.820778135226284" lon="9.253071741678795"><ele>836.8</ele><time>2026-03-28T15:43:49Z</time></trkpt><trkpt lat="44.820875790577965" lon="9.252981400993766"><ele>835.2</ele><time>2026-03-28T15:43:50Z</time></trkpt><trkpt lat="44.82096271201408" lon="9.252896078242921"><ele>833.6</ele><time>2026-03-28T15:43:51Z</time></trkpt><trkpt lat="44.82104902799391" lon="9.252828837759118"><ele>832.0</ele><time>2026-03-28T15:43:52Z</time></trkpt><trkpt lat="44.82113624668707" lon="9.252760868946645"><ele>831.3333333333333</ele><time>2026-03-28T15:43:53Z</time></trkpt><trkpt lat="44.82122188268018" lon="9.25270359312006"><ele>830.6666666666666</ele><time>2026-03-28T15:43:54Z</time></trkpt><trkpt lat="44.821304149268116" lon="9.25264484407268"><ele>830.0</ele><time>2026-03-28T15:43:55Z</time></trkpt><trkpt lat="44.82137840012402" lon="9.252571232263332"><ele>829.3333333333333</ele><time>2026-03-28T15:43:56Z</time></trkpt><trkpt lat="44.821442100299244" lon="9.252484849033726"><ele>828.6666666666666</ele><time>2026-03-28T15:43:57Z</time></trkpt><trkpt lat="44.821496345970196" lon="9.252396888342682"><ele>828.0</ele><time>2026-03-28T15:43:58Z</time></trkpt><trkpt lat="44.82154828678074" lon="9.252316839664198"><ele>827.6666666666666</ele><time>2026-03-28T15:43:59Z</time></trkpt><trkpt lat="44.82159950558622" lon="9.252253613396105"><ele>827.3333333333333</ele><time>2026-03-28T15:44:00Z</time></trkpt><trkpt lat="44.82165825150205" lon="9.252217726656633"><ele>827.0</ele><time>2026-03-28T15:44:01Z</time></trkpt><trkpt lat="44.821731316648446" lon="9.252199509841857"><ele>826.6666666666666</ele><time>2026-03-28T15:44:02Z</time></trkpt><trkpt lat="44.821817619439685" lon="9.252197684818956"><ele>826.3333333333333</ele><time>2026-03-28T15:44:03Z</time></trkpt><trkpt lat="44.82191163978767" lon="9.252200296000712"><ele>826.0</ele><time>2026-03-28T15:44:04Z</time></trkpt><trkpt lat="44.82200138599825" lon="9.252154784745535"><ele>824.5999999999999</ele><time>2026-03-28T15:44:05Z</time></trkpt><trkpt lat="44.82208702479654" lon="9.252080143869174"><ele>823.2</ele><time>2026-03-28T15:44:06Z</time></trkpt><trkpt lat="44.82215213446721" lon="9.252018158841373"><ele>821.8</ele><time>2026-03-28T15:44:07Z</time></trkpt><trkpt lat="44.82221509824625" lon="9.25194707489984"><ele>820.4000000000001</ele><time>2026-03-28T15:44:08Z</time></trkpt><trkpt lat="44.82228368825117" lon="9.251836040441008"><ele>819.0</ele><time>2026-03-28T15:44:09Z</time></trkpt><trkpt lat="44.82235302071305" lon="9.251726872201793"><ele>819.0</ele><time>2026-03-28T15:44:10Z</time></trkpt><trkpt lat="44.822423432843756" lon="9.251636950755696"><ele>819.0</ele><time>2026-03-28T15:44:11Z</time></trkpt><trkpt lat="44.822492817190216" lon="9.251557056561635"><ele>819.0</ele><time>2026-03-28T15:44:12Z</time></trkpt><trkpt lat="44.822566285676544" lon="9.251511665348861"><ele>819.0</ele><time>2026-03-28T15:44:13Z</time></trkpt><trkpt lat="44.82263621258338" lon="9.251460307988697"><ele>819.0</ele><time>2026-03-28T15:44:14Z</time></trkpt><trkpt lat="44.82270102703153" lon="9.251386955167181"><ele>819.0</ele><time>2026-03-28T15:44:15Z</time></trkpt><trkpt lat="44.82276808697635" lon="9.251302966236624"><ele>815.4000000000001</ele><time>2026-03-28T15:44:16Z</time></trkpt><trkpt lat="44.82283882719312" lon="9.251236116326535"><ele>811.8</ele><time>2026-03-28T15:44:17Z</time></trkpt><trkpt lat="44.82292002558305" lon="9.251174803283382"><ele>808.2</ele><time>2026-03-28T15:44:18Z</time></trkpt><trkpt lat="44.822999391863206" lon="9.251112583001474"><ele>804.5999999999999</ele><time>2026-03-28T15:44:19Z</time></trkpt><trkpt lat="44.82308557611809" lon="9.251035990582201"><ele>801.0</ele><time>2026-03-28T15:44:20Z</time></trkpt><trkpt lat="44.82320523401403" lon="9.25099880576247"><ele>801.0</ele><time>2026-03-28T15:44:21Z</time></trkpt><trkpt lat="44.82333368819067" lon="9.25093523703844"><ele>801.0</ele><time>2026-03-28T15:44:22Z</time></trkpt><trkpt lat="44.82343704011218" lon="9.250851969288853"><ele>801.0</ele><time>2026-03-28T15:44:23Z</time></trkpt><trkpt lat="44.823540177240154" lon="9.250743307439278"><ele>801.0</ele><time>2026-03-28T15:44:24Z</time></trkpt><trkpt lat="44.823643803874944" lon="9.250611417399357"><ele>800.0</ele><time>2026-03-28T15:44:25Z</time></trkpt><trkpt lat="44.82374848604741" lon="9.250485160258798"><ele>799.0</ele><time>2026-03-28T15:44:25.999Z</time></trkpt><trkpt lat="44.82385937223252" lon="9.250357188195077"><ele>798.0</ele><time>2026-03-28T15:44:26.999Z</time></trkpt><trkpt lat="44.82395785024921" lon="9.250229881401138"><ele>797.0</ele><time>2026-03-28T15:44:27.999Z</time></trkpt><trkpt lat="44.8240545096" lon="9.250131906224729"><ele>797.0000000000001</ele><time>2026-03-28T15:44:28.999Z</time></trkpt><trkpt lat="44.82414624573035" lon="9.250049548207071"><ele>797.0</ele><time>2026-03-28T15:44:29.999Z</time></trkpt><trkpt lat="44.82423463742693" lon="9.249994217745376"><ele>797.0</ele><time>2026-03-28T15:44:30.999Z</time></trkpt><trkpt lat="44.82430763646782" lon="9.24997635978294"><ele>797.0</ele><time>2026-03-28T15:44:31.999Z</time></trkpt><trkpt lat="44.82436708457058" lon="9.24994628019295"><ele>797.0000000000001</ele><time>2026-03-28T15:44:32.999Z</time></trkpt><trkpt lat="44.82445811515551" lon="9.24994387678054"><ele>797.0</ele><time>2026-03-28T15:44:34.999Z</time></trkpt><trkpt lat="44.824520850970806" lon="9.249985775930426"><ele>796.0</ele><time>2026-03-28T15:44:35.999Z</time></trkpt><trkpt lat="44.82459877029633" lon="9.25005926366994"><ele>795.0</ele><time>2026-03-28T15:44:36.999Z</time></trkpt><trkpt lat="44.824692964402956" lon="9.250118720245936"><ele>794.0</ele><time>2026-03-28T15:44:37.999Z</time></trkpt><trkpt lat="44.824801863243486" lon="9.250156619968648"><ele>793.0</ele><time>2026-03-28T15:44:38.999Z</time></trkpt><trkpt lat="44.82492536381297" lon="9.250179037966898"><ele>792.0</ele><time>2026-03-28T15:44:39.999Z</time></trkpt><trkpt lat="44.82505079611673" lon="9.25018345260619"><ele>790.4000000000001</ele><time>2026-03-28T15:44:40.999Z</time></trkpt><trkpt lat="44.82515933304885" lon="9.25014261101804"><ele>788.8000000000001</ele><time>2026-03-28T15:44:41.999Z</time></trkpt><trkpt lat="44.825254043072476" lon="9.250086526776157"><ele>787.2</ele><time>2026-03-28T15:44:42.999Z</time></trkpt><trkpt lat="44.82535199306694" lon="9.250028468998032"><ele>785.6</ele><time>2026-03-28T15:44:43.999Z</time></trkpt><trkpt lat="44.82544805924643" lon="9.250006597403079"><ele>784.0</ele><time>2026-03-28T15:44:44.999Z</time></trkpt><trkpt lat="44.82553601325952" lon="9.249990393992086"><ele>783.9999999999999</ele><time>2026-03-28T15:44:45.999Z</time></trkpt><trkpt lat="44.825599613566865" lon="9.249979350035819"><ele>784.0</ele><time>2026-03-28T15:44:46.999Z</time></trkpt><trkpt lat="44.8256640884732" lon="9.249955045959307"><ele>784.0</ele><time>2026-03-28T15:44:47.999Z</time></trkpt><trkpt lat="44.82578412250319" lon="9.24990864053453"><ele>784.0</ele><time>2026-03-28T15:44:49.999Z</time></trkpt><trkpt lat="44.825856857477376" lon="9.249890627230814"><ele>783.9999999999999</ele><time>2026-03-28T15:44:50.999Z</time></trkpt><trkpt lat="44.825930550878915" lon="9.249878915128967"><ele>784.0</ele><time>2026-03-28T15:44:51.999Z</time></trkpt><trkpt lat="44.82600805891757" lon="9.249863390589963"><ele>781.8333333333333</ele><time>2026-03-28T15:44:52.999Z</time></trkpt><trkpt lat="44.82608531354785" lon="9.249839038596662"><ele>779.6666666666666</ele><time>2026-03-28T15:44:53.999Z</time></trkpt><trkpt lat="44.82617097784901" lon="9.249813453256346"><ele>777.5</ele><time>2026-03-28T15:44:54.999Z</time></trkpt><trkpt lat="44.826253308376614" lon="9.24979779973913"><ele>775.3333333333333</ele><time>2026-03-28T15:44:55.999Z</time></trkpt><trkpt lat="44.826338012162935" lon="9.249785322283552"><ele>773.1666666666666</ele><time>2026-03-28T15:44:56.999Z</time></trkpt><trkpt lat="44.82641969305075" lon="9.249763327602727"><ele>771.0</ele><time>2026-03-28T15:44:57.999Z</time></trkpt><trkpt lat="44.826506416493196" lon="9.249727929005036"><ele>770.1999999999999</ele><time>2026-03-28T15:44:58.999Z</time></trkpt><trkpt lat="44.826596533763556" lon="9.249697060965731"><ele>769.4</ele><time>2026-03-28T15:44:59.999Z</time></trkpt><trkpt lat="44.82668924741997" lon="9.24970442831094"><ele>768.6</ele><time>2026-03-28T15:45:00.999Z</time></trkpt><trkpt lat="44.82678681026552" lon="9.249724523983115"><ele>767.8</ele><time>2026-03-28T15:45:01.999Z</time></trkpt><trkpt lat="44.8268850068005" lon="9.24973808392998"><ele>767.0</ele><time>2026-03-28T15:45:02.999Z</time></trkpt><trkpt lat="44.82698076181559" lon="9.249724917953168"><ele>765.2</ele><time>2026-03-28T15:45:03.999Z</time></trkpt><trkpt lat="44.82706344905273" lon="9.249701177384164"><ele>763.4000000000001</ele><time>2026-03-28T15:45:04.999Z</time></trkpt><trkpt lat="44.827179211066905" lon="9.249670462250796"><ele>761.5999999999999</ele><time>2026-03-28T15:45:06.999Z</time></trkpt><trkpt lat="44.827277098220904" lon="9.249732353852135"><ele>759.8</ele><time>2026-03-28T15:45:08.999Z</time></trkpt><trkpt lat="44.82732742218963" lon="9.24984559717497"><ele>758.0</ele><time>2026-03-28T15:45:09.999Z</time></trkpt><trkpt lat="44.82737825026712" lon="9.249981753531236"><ele>758.0</ele><time>2026-03-28T15:45:10.999Z</time></trkpt><trkpt lat="44.82743866447576" lon="9.250115404732146"><ele>758.0</ele><time>2026-03-28T15:45:11.999Z</time></trkpt><trkpt lat="44.82752135515603" lon="9.25023665758789"><ele>758.0</ele><time>2026-03-28T15:45:12.999Z</time></trkpt><trkpt lat="44.82760803769871" lon="9.25033690271151"><ele>758.0</ele><time>2026-03-28T15:45:13.999Z</time></trkpt><trkpt lat="44.827684100298455" lon="9.250429242465843"><ele>758.0</ele><time>2026-03-28T15:45:14.999Z</time></trkpt><trkpt lat="44.827765195056905" lon="9.250483115375834"><ele>757.2</ele><time>2026-03-28T15:45:15.999Z</time></trkpt><trkpt lat="44.82785489346003" lon="9.250487781726504"><ele>756.4</ele><time>2026-03-28T15:45:16.999Z</time></trkpt><trkpt lat="44.82797087337988" lon="9.250426189364752"><ele>755.6</ele><time>2026-03-28T15:45:17.999Z</time></trkpt><trkpt lat="44.82807694750001" lon="9.250333767128094"><ele>754.8000000000001</ele><time>2026-03-28T15:45:18.999Z</time></trkpt><trkpt lat="44.8281696912378" lon="9.250255958308077"><ele>754.0</ele><time>2026-03-28T15:45:19.999Z</time></trkpt><trkpt lat="44.82826430312435" lon="9.250224303895678"><ele>754.0</ele><time>2026-03-28T15:45:21Z</time></trkpt><trkpt lat="44.82838847932252" lon="9.250171785342648"><ele>754.0</ele><time>2026-03-28T15:45:22Z</time></trkpt><trkpt lat="44.82850202557792" lon="9.25015839198012"><ele>754.0</ele><time>2026-03-28T15:45:23Z</time></trkpt><trkpt lat="44.82862690898303" lon="9.250134185863011"><ele>754.0</ele><time>2026-03-28T15:45:24Z</time></trkpt><trkpt lat="44.828719184505964" lon="9.250094333312868"><ele>754.6666666666667</ele><time>2026-03-28T15:45:25Z</time></trkpt><trkpt lat="44.828807006458355" lon="9.250043180330538"><ele>755.3333333333334</ele><time>2026-03-28T15:45:26Z</time></trkpt><trkpt lat="44.82889415743229" lon="9.249984105008597"><ele>756.0</ele><time>2026-03-28T15:45:27Z</time></trkpt><trkpt lat="44.82896474256497" lon="9.249945063813175"><ele>756.6666666666666</ele><time>2026-03-28T15:45:28Z</time></trkpt><trkpt lat="44.82902996880966" lon="9.249885225710724"><ele>757.3333333333333</ele><time>2026-03-28T15:45:29Z</time></trkpt><trkpt lat="44.829081604468826" lon="9.249798052049961"><ele>758.0</ele><time>2026-03-28T15:45:31Z</time></trkpt><trkpt lat="44.8291222161289" lon="9.24990021087552"><ele>758.0</ele><time>2026-03-28T15:45:34Z</time></trkpt><trkpt lat="44.82914485652166" lon="9.250067243726683"><ele>758.0</ele><time>2026-03-28T15:45:36Z</time></trkpt><trkpt lat="44.829171357604935" lon="9.250163528616818"><ele>758.0</ele><time>2026-03-28T15:45:37Z</time></trkpt><trkpt lat="44.829206329206436" lon="9.250263010355551"><ele>758.0</ele><time>2026-03-28T15:45:38Z</time></trkpt><trkpt lat="44.82926660343482" lon="9.250351057527498"><ele>758.0</ele><time>2026-03-28T15:45:39Z</time></trkpt><trkpt lat="44.829338265188" lon="9.250437723668611"><ele>758.5999999999999</ele><time>2026-03-28T15:45:41Z</time></trkpt><trkpt lat="44.82940434610992" lon="9.250433728047966"><ele>759.1999999999999</ele><time>2026-03-28T15:45:43Z</time></trkpt><trkpt lat="44.82951132809408" lon="9.250235009155398"><ele>759.8</ele><time>2026-03-28T15:46:28Z</time></trkpt><trkpt lat="44.82954879780741" lon="9.250160604167736"><ele>760.4</ele><time>2026-03-28T15:46:29Z</time></trkpt><trkpt lat="44.82966381625001" lon="9.250088673518365"><ele>761.0</ele><time>2026-03-28T15:46:32Z</time></trkpt><trkpt lat="44.82972818278788" lon="9.249992822381344"><ele>761.0</ele><time>2026-03-28T15:46:33.999Z</time></trkpt><trkpt lat="44.82978024176462" lon="9.249932741356968"><ele>761.0</ele><time>2026-03-28T15:46:34.999Z</time></trkpt><trkpt lat="44.82989131985438" lon="9.249872346499595"><ele>761.0</ele><time>2026-03-28T15:46:36.999Z</time></trkpt><trkpt lat="44.82995420632958" lon="9.249881383881489"><ele>761.0</ele><time>2026-03-28T15:46:37.999Z</time></trkpt><trkpt lat="44.83005841766924" lon="9.24985690573645"><ele>761.0</ele><time>2026-03-28T15:46:39.999Z</time></trkpt><trkpt lat="44.83007680549309" lon="9.249770325729157"><ele>761.0</ele><time>2026-03-28T15:46:40.999Z</time></trkpt><trkpt lat="44.83007544423532" lon="9.249638419870879"><ele>759.0</ele><time>2026-03-28T15:46:41.999Z</time></trkpt><trkpt lat="44.83006822358738" lon="9.249509980697278"><ele>757.0</ele><time>2026-03-28T15:46:42.999Z</time></trkpt><trkpt lat="44.830061634989896" lon="9.249392624763336"><ele>755.0</ele><time>2026-03-28T15:46:43.999Z</time></trkpt><trkpt lat="44.82999914030033" lon="9.249275999523768"><ele>753.0</ele><time>2026-03-28T15:46:45.999Z</time></trkpt><trkpt lat="44.829911460651736" lon="9.249229513889937"><ele>751.0</ele><time>2026-03-28T15:46:46.999Z</time></trkpt><trkpt lat="44.82984992249165" lon="9.24912134506496"><ele>751.0</ele><time>2026-03-28T15:46:47.999Z</time></trkpt><trkpt lat="44.829796613079395" lon="9.249006241698929"><ele>751.0</ele><time>2026-03-28T15:46:48.999Z</time></trkpt><trkpt lat="44.82974493348892" lon="9.248899775673523"><ele>751.0</ele><time>2026-03-28T15:46:49.999Z</time></trkpt><trkpt lat="44.82969631988356" lon="9.248785198197979"><ele>751.0</ele><time>2026-03-28T15:46:50.999Z</time></trkpt><trkpt lat="44.82965534992357" lon="9.248686540270668"><ele>751.0</ele><time>2026-03-28T15:46:51.999Z</time></trkpt><trkpt lat="44.82961965511333" lon="9.24860058512683"><ele>751.0</ele><time>2026-03-28T15:46:52.999Z</time></trkpt><trkpt lat="44.82957289541483" lon="9.248459076517936"><ele>748.25</ele><time>2026-03-28T15:46:54.999Z</time></trkpt><trkpt lat="44.82965642772879" lon="9.248313907051552"><ele>745.5</ele><time>2026-03-28T15:46:56.999Z</time></trkpt><trkpt lat="44.8297173557257" lon="9.248193061038698"><ele>742.75</ele><time>2026-03-28T15:46:57.999Z</time></trkpt><trkpt lat="44.82981867429041" lon="9.248119014923997"><ele>740.0</ele><time>2026-03-28T15:46:58.999Z</time></trkpt><trkpt lat="44.82991640848032" lon="9.248037188594374"><ele>738.4</ele><time>2026-03-28T15:46:59.999Z</time></trkpt><trkpt lat="44.83000042100243" lon="9.247962855281669"><ele>736.8</ele><time>2026-03-28T15:47:00.999Z</time></trkpt><trkpt lat="44.83007888535078" lon="9.247893430997676"><ele>735.2</ele><time>2026-03-28T15:47:01.999Z</time></trkpt><trkpt lat="44.830157773917755" lon="9.247821984233056"><ele>733.6</ele><time>2026-03-28T15:47:02.999Z</time></trkpt><trkpt lat="44.83023624872329" lon="9.2477473376234"><ele>732.0</ele><time>2026-03-28T15:47:03.999Z</time></trkpt><trkpt lat="44.8303131152414" lon="9.247661630770166"><ele>731.5</ele><time>2026-03-28T15:47:04.999Z</time></trkpt><trkpt lat="44.83037771292792" lon="9.247547530235337"><ele>731.0</ele><time>2026-03-28T15:47:05.999Z</time></trkpt><trkpt lat="44.83045139183801" lon="9.247428770867671"><ele>730.5</ele><time>2026-03-28T15:47:06.999Z</time></trkpt><trkpt lat="44.830528385738525" lon="9.247311002972285"><ele>730.0</ele><time>2026-03-28T15:47:07.999Z</time></trkpt><trkpt lat="44.830629245357606" lon="9.247210508415197"><ele>729.0</ele><time>2026-03-28T15:47:08.999Z</time></trkpt><trkpt lat="44.83072634957039" lon="9.247091360096386"><ele>728.0</ele><time>2026-03-28T15:47:09.999Z</time></trkpt><trkpt lat="44.83084899131385" lon="9.247042259365946"><ele>727.0</ele><time>2026-03-28T15:47:10.999Z</time></trkpt><trkpt lat="44.83097361917238" lon="9.24701784256588"><ele>726.0</ele><time>2026-03-28T15:47:11.999Z</time></trkpt><trkpt lat="44.83109286105283" lon="9.246971204132809"><ele>726.0</ele><time>2026-03-28T15:47:12.999Z</time></trkpt><trkpt lat="44.83121112665724" lon="9.24696570830281"><ele>726.0</ele><time>2026-03-28T15:47:13.999Z</time></trkpt><trkpt lat="44.831326433357845" lon="9.246942148563887"><ele>726.0</ele><time>2026-03-28T15:47:14.999Z</time></trkpt><trkpt lat="44.831432993249095" lon="9.246905075581093"><ele>726.0</ele><time>2026-03-28T15:47:15.999Z</time></trkpt><trkpt lat="44.831532284009256" lon="9.246903202363827"><ele>726.0</ele><time>2026-03-28T15:47:16.999Z</time></trkpt><trkpt lat="44.831627731892425" lon="9.246920652995245"><ele>726.0</ele><time>2026-03-28T15:47:17.999Z</time></trkpt><trkpt lat="44.831723455653986" lon="9.246908022022659"><ele>726.0</ele><time>2026-03-28T15:47:18.999Z</time></trkpt><trkpt lat="44.83182036008991" lon="9.246887367221309"><ele>726.0</ele><time>2026-03-28T15:47:19.999Z</time></trkpt><trkpt lat="44.83192511480503" lon="9.246843286805642"><ele>726.0</ele><time>2026-03-28T15:47:20.999Z</time></trkpt><trkpt lat="44.83203731687891" lon="9.246771392164257"><ele>726.0</ele><time>2026-03-28T15:47:21.999Z</time></trkpt><trkpt lat="44.83217056177082" lon="9.246702997616381"><ele>726.75</ele><time>2026-03-28T15:47:22.999Z</time></trkpt><trkpt lat="44.832314655865254" lon="9.246645559900324"><ele>727.5</ele><time>2026-03-28T15:47:23.999Z</time></trkpt><trkpt lat="44.832469064313706" lon="9.246639179360457"><ele>728.25</ele><time>2026-03-28T15:47:24.999Z</time></trkpt><trkpt lat="44.83259721265811" lon="9.246711421133579"><ele>729.0</ele><time>2026-03-28T15:47:25.999Z</time></trkpt><trkpt lat="44.83271922580407" lon="9.246767409235165"><ele>729.75</ele><time>2026-03-28T15:47:27.001Z</time></trkpt><trkpt lat="44.83284916443551" lon="9.24677302208591"><ele>730.5</ele><time>2026-03-28T15:47:28.001Z</time></trkpt><trkpt lat="44.832967421104954" lon="9.246671293750712"><ele>731.25</ele><time>2026-03-28T15:47:29.001Z</time></trkpt><trkpt lat="44.83308488826926" lon="9.24655848791949"><ele>732.0</ele><time>2026-03-28T15:47:30.001Z</time></trkpt><trkpt lat="44.83319942849273" lon="9.24642633541372"><ele>732.0</ele><time>2026-03-28T15:47:31.001Z</time></trkpt><trkpt lat="44.83330912221482" lon="9.246308467428305"><ele>732.0</ele><time>2026-03-28T15:47:32.001Z</time></trkpt><trkpt lat="44.833402380429455" lon="9.246219354019399"><ele>732.0</ele><time>2026-03-28T15:47:33.001Z</time></trkpt><trkpt lat="44.833497285199485" lon="9.246156296739208"><ele>732.0</ele><time>2026-03-28T15:47:34.001Z</time></trkpt><trkpt lat="44.83360680766185" lon="9.24618005051777"><ele>733.5</ele><time>2026-03-28T15:47:35.001Z</time></trkpt><trkpt lat="44.833728372741234" lon="9.246188958952914"><ele>735.0</ele><time>2026-03-28T15:47:36.001Z</time></trkpt><trkpt lat="44.833866755346" lon="9.246205116768552"><ele>736.5</ele><time>2026-03-28T15:47:37.001Z</time></trkpt><trkpt lat="44.834012111180485" lon="9.246230032505705"><ele>738.0</ele><time>2026-03-28T15:47:38.001Z</time></trkpt><trkpt lat="44.834169126555125" lon="9.246252183552544"><ele>739.5</ele><time>2026-03-28T15:47:39.001Z</time></trkpt><trkpt lat="44.83430919262908" lon="9.24626231406084"><ele>741.0</ele><time>2026-03-28T15:47:40.001Z</time></trkpt><trkpt lat="44.83444122645908" lon="9.246242534427243"><ele>742.5</ele><time>2026-03-28T15:47:41.001Z</time></trkpt><trkpt lat="44.834561565853036" lon="9.24615044509275"><ele>744.0</ele><time>2026-03-28T15:47:42.001Z</time></trkpt><trkpt lat="44.834701460335054" lon="9.246088726377511"><ele>744.0</ele><time>2026-03-28T15:47:43Z</time></trkpt><trkpt lat="44.83484191355074" lon="9.246023615947971"><ele>744.0</ele><time>2026-03-28T15:47:44Z</time></trkpt><trkpt lat="44.834980161077645" lon="9.245935998791408"><ele>744.0</ele><time>2026-03-28T15:47:45Z</time></trkpt><trkpt lat="44.835099081895216" lon="9.245836799643767"><ele>744.0</ele><time>2026-03-28T15:47:46Z</time></trkpt><trkpt lat="44.835206261103" lon="9.245748075615094"><ele>743.0</ele><time>2026-03-28T15:47:47Z</time></trkpt><trkpt lat="44.83530478562687" lon="9.245671966120813"><ele>742.0</ele><time>2026-03-28T15:47:48Z</time></trkpt><trkpt lat="44.83540267827166" lon="9.245592326632515"><ele>741.0</ele><time>2026-03-28T15:47:49Z</time></trkpt><trkpt lat="44.83550245633502" lon="9.245502307959745"><ele>740.0</ele><time>2026-03-28T15:47:50Z</time></trkpt><trkpt lat="44.83559769135366" lon="9.245391427018028"><ele>740.0</ele><time>2026-03-28T15:47:51Z</time></trkpt><trkpt lat="44.83567952653282" lon="9.245251346017259"><ele>740.0</ele><time>2026-03-28T15:47:52Z</time></trkpt><trkpt lat="44.83574313059433" lon="9.245083141089687"><ele>740.0</ele><time>2026-03-28T15:47:53Z</time></trkpt><trkpt lat="44.835783895948865" lon="9.244894311516404"><ele>740.0</ele><time>2026-03-28T15:47:54Z</time></trkpt><trkpt lat="44.835806993942526" lon="9.24468965878712"><ele>739.75</ele><time>2026-03-28T15:47:55Z</time></trkpt><trkpt lat="44.83582584018415" lon="9.24450698392017"><ele>739.5</ele><time>2026-03-28T15:47:56Z</time></trkpt><trkpt lat="44.835854264383755" lon="9.2443328064853"><ele>739.25</ele><time>2026-03-28T15:47:57Z</time></trkpt><trkpt lat="44.8358898578697" lon="9.244173652432588"><ele>739.0</ele><time>2026-03-28T15:47:58Z</time></trkpt><trkpt lat="44.83593680987042" lon="9.244026583261148"><ele>737.5</ele><time>2026-03-28T15:47:59Z</time></trkpt><trkpt lat="44.83600383244707" lon="9.243886733773465"><ele>736.0</ele><time>2026-03-28T15:48:00Z</time></trkpt><trkpt lat="44.83608239737649" lon="9.24375658346093"><ele>734.5</ele><time>2026-03-28T15:48:01Z</time></trkpt><trkpt lat="44.836157423596156" lon="9.243634269883058"><ele>733.0</ele><time>2026-03-28T15:48:02Z</time></trkpt><trkpt lat="44.836227292954774" lon="9.243513957875983"><ele>733.0</ele><time>2026-03-28T15:48:03Z</time></trkpt><trkpt lat="44.836291748128396" lon="9.243398011520076"><ele>733.0</ele><time>2026-03-28T15:48:04Z</time></trkpt><trkpt lat="44.83636022217075" lon="9.243294115628599"><ele>733.0</ele><time>2026-03-28T15:48:05Z</time></trkpt><trkpt lat="44.83644733090388" lon="9.243218212804667"><ele>733.0</ele><time>2026-03-28T15:48:06Z</time></trkpt><trkpt lat="44.83655663967754" lon="9.24319075047019"><ele>733.0</ele><time>2026-03-28T15:48:07Z</time></trkpt><trkpt lat="44.836667934201756" lon="9.243192954967551"><ele>733.0</ele><time>2026-03-28T15:48:08Z</time></trkpt><trkpt lat="44.83678123414773" lon="9.243201044942394"><ele>733.0</ele><time>2026-03-28T15:48:09Z</time></trkpt><trkpt lat="44.83689466091747" lon="9.243182892430555"><ele>733.0</ele><time>2026-03-28T15:48:10Z</time></trkpt><trkpt lat="44.83700094997762" lon="9.243146174013985"><ele>733.0</ele><time>2026-03-28T15:48:11Z</time></trkpt><trkpt lat="44.837092120736635" lon="9.243074664155547"><ele>733.0</ele><time>2026-03-28T15:48:12Z</time></trkpt><trkpt lat="44.83717521892598" lon="9.24296124262505"><ele>732.25</ele><time>2026-03-28T15:48:13Z</time></trkpt><trkpt lat="44.83725199037197" lon="9.242820996232997"><ele>731.5</ele><time>2026-03-28T15:48:14Z</time></trkpt><trkpt lat="44.83733132499137" lon="9.242669508013837"><ele>730.75</ele><time>2026-03-28T15:48:15Z</time></trkpt><trkpt lat="44.83741380356048" lon="9.242525772451211"><ele>730.0</ele><time>2026-03-28T15:48:16Z</time></trkpt><trkpt lat="44.837495240002056" lon="9.242393940727391"><ele>729.6</ele><time>2026-03-28T15:48:17Z</time></trkpt><trkpt lat="44.83757390019299" lon="9.242263495037847"><ele>729.2</ele><time>2026-03-28T15:48:18Z</time></trkpt><trkpt lat="44.83764671446613" lon="9.242131103610763"><ele>728.8</ele><time>2026-03-28T15:48:19Z</time></trkpt><trkpt lat="44.837710051615495" lon="9.242014667832843"><ele>728.4</ele><time>2026-03-28T15:48:20Z</time></trkpt><trkpt lat="44.837771358074335" lon="9.241919421127596"><ele>728.0</ele><time>2026-03-28T15:48:21Z</time></trkpt><trkpt lat="44.83782282484959" lon="9.241837565808382"><ele>727.4</ele><time>2026-03-28T15:48:22Z</time></trkpt><trkpt lat="44.83789964587018" lon="9.241718731587257"><ele>726.8</ele><time>2026-03-28T15:48:24Z</time></trkpt><trkpt lat="44.83795514353281" lon="9.241610173573978"><ele>726.2</ele><time>2026-03-28T15:48:26Z</time></trkpt><trkpt lat="44.83799868594836" lon="9.241528221280497"><ele>725.6</ele><time>2026-03-28T15:48:27Z</time></trkpt><trkpt lat="44.838060294532944" lon="9.241444770614093"><ele>725.0</ele><time>2026-03-28T15:48:28Z</time></trkpt><trkpt lat="44.838136927749524" lon="9.241356365396026"><ele>726.0</ele><time>2026-03-28T15:48:29Z</time></trkpt><trkpt lat="44.838222441055905" lon="9.241264226706395"><ele>727.0</ele><time>2026-03-28T15:48:30Z</time></trkpt><trkpt lat="44.83831280774182" lon="9.241182283815878"><ele>728.0</ele><time>2026-03-28T15:48:31Z</time></trkpt><trkpt lat="44.83840562018943" lon="9.241113195878956"><ele>729.0</ele><time>2026-03-28T15:48:32Z</time></trkpt><trkpt lat="44.838496261285194" lon="9.241050935570469"><ele>730.0</ele><time>2026-03-28T15:48:33Z</time></trkpt><trkpt lat="44.838583428352315" lon="9.240992626243848"><ele>730.0</ele><time>2026-03-28T15:48:34Z</time></trkpt><trkpt lat="44.83866669150013" lon="9.240933887563687"><ele>730.0</ele><time>2026-03-28T15:48:35Z</time></trkpt><trkpt lat="44.83874873885459" lon="9.240875266738929"><ele>730.0</ele><time>2026-03-28T15:48:36Z</time></trkpt><trkpt lat="44.838825048008154" lon="9.240822080640715"><ele>730.0</ele><time>2026-03-28T15:48:37Z</time></trkpt><trkpt lat="44.83889389483304" lon="9.240777253108748"><ele>730.0</ele><time>2026-03-28T15:48:38Z</time></trkpt><trkpt lat="44.83895484322626" lon="9.24073112562127"><ele>730.0</ele><time>2026-03-28T15:48:38.999Z</time></trkpt><trkpt lat="44.839019960394964" lon="9.240677107253736"><ele>731.2</ele><time>2026-03-28T15:48:39.999Z</time></trkpt><trkpt lat="44.83908621284425" lon="9.240608449354646"><ele>732.4</ele><time>2026-03-28T15:48:40.999Z</time></trkpt><trkpt lat="44.839150664775886" lon="9.240524265025913"><ele>733.5999999999999</ele><time>2026-03-28T15:48:41.999Z</time></trkpt><trkpt lat="44.839214463638555" lon="9.240418730827827"><ele>734.8</ele><time>2026-03-28T15:48:42.999Z</time></trkpt><trkpt lat="44.83927681973174" lon="9.24030297338144"><ele>736.0</ele><time>2026-03-28T15:48:43.999Z</time></trkpt><trkpt lat="44.839340532022156" lon="9.240186290233153"><ele>736.0</ele><time>2026-03-28T15:48:44.999Z</time></trkpt><trkpt lat="44.83940404646238" lon="9.24006475939594"><ele>736.0</ele><time>2026-03-28T15:48:45.999Z</time></trkpt><trkpt lat="44.83945897913058" lon="9.239936606695116"><ele>736.0</ele><time>2026-03-28T15:48:46.999Z</time></trkpt><trkpt lat="44.83950984635647" lon="9.239802537457596"><ele>736.0</ele><time>2026-03-28T15:48:47.999Z</time></trkpt><trkpt lat="44.83955926176349" lon="9.239671977049998"><ele>736.0</ele><time>2026-03-28T15:48:48.999Z</time></trkpt><trkpt lat="44.83960896183826" lon="9.239547381582542"><ele>737.1999999999999</ele><time>2026-03-28T15:48:49.999Z</time></trkpt><trkpt lat="44.83965386807858" lon="9.23942444607735"><ele>738.4</ele><time>2026-03-28T15:48:50.999Z</time></trkpt><trkpt lat="44.839700145444205" lon="9.239292933392074"><ele>739.6</ele><time>2026-03-28T15:48:51.999Z</time></trkpt><trkpt lat="44.83974139263804" lon="9.239150662239199"><ele>740.8</ele><time>2026-03-28T15:48:52.999Z</time></trkpt><trkpt lat="44.83978124622722" lon="9.238998290310468"><ele>742.0</ele><time>2026-03-28T15:48:53.999Z</time></trkpt><trkpt lat="44.83982480537921" lon="9.23884920678429"><ele>742.25</ele><time>2026-03-28T15:48:54.999Z</time></trkpt><trkpt lat="44.83987228754963" lon="9.23869687101901"><ele>742.5</ele><time>2026-03-28T15:48:55.999Z</time></trkpt><trkpt lat="44.8399215858547" lon="9.238550978307842"><ele>742.75</ele><time>2026-03-28T15:48:56.999Z</time></trkpt><trkpt lat="44.839963863884535" lon="9.238392096124965"><ele>743.0</ele><time>2026-03-28T15:48:57.999Z</time></trkpt><trkpt lat="44.84000976250371" lon="9.238247500270296"><ele>743.8</ele><time>2026-03-28T15:48:58.999Z</time></trkpt><trkpt lat="44.840053834399946" lon="9.238118950726358"><ele>744.5999999999999</ele><time>2026-03-28T15:48:59.999Z</time></trkpt><trkpt lat="44.84009322642328" lon="9.237981125479083"><ele>745.4000000000001</ele><time>2026-03-28T15:49:00.999Z</time></trkpt><trkpt lat="44.840133632163045" lon="9.237846218828125"><ele>746.2</ele><time>2026-03-28T15:49:01.999Z</time></trkpt><trkpt lat="44.840173398666636" lon="9.23772717699308"><ele>747.0</ele><time>2026-03-28T15:49:02.999Z</time></trkpt><trkpt lat="44.84021756806576" lon="9.237617085856746"><ele>745.4000000000001</ele><time>2026-03-28T15:49:03.999Z</time></trkpt><trkpt lat="44.84026969332421" lon="9.237516322794363"><ele>743.8000000000001</ele><time>2026-03-28T15:49:04.999Z</time></trkpt><trkpt lat="44.84032386087572" lon="9.237422649181594"><ele>742.2</ele><time>2026-03-28T15:49:05.999Z</time></trkpt><trkpt lat="44.84038138784938" lon="9.237316721599026"><ele>740.6</ele><time>2026-03-28T15:49:06.999Z</time></trkpt><trkpt lat="44.84045026102132" lon="9.23722492918729"><ele>739.0</ele><time>2026-03-28T15:49:07.999Z</time></trkpt><trkpt lat="44.84052829910753" lon="9.23715799199407"><ele>742.2</ele><time>2026-03-28T15:49:08.999Z</time></trkpt><trkpt lat="44.840600640693545" lon="9.237094098034701"><ele>745.4000000000001</ele><time>2026-03-28T15:49:09.999Z</time></trkpt><trkpt lat="44.84068019805786" lon="9.23702151442855"><ele>748.6</ele><time>2026-03-28T15:49:10.999Z</time></trkpt><trkpt lat="44.84075492031106" lon="9.23691951427911"><ele>751.8</ele><time>2026-03-28T15:49:11.999Z</time></trkpt><trkpt lat="44.84081366927275" lon="9.23679772555454"><ele>755.0</ele><time>2026-03-28T15:49:12.999Z</time></trkpt><trkpt lat="44.84086887150149" lon="9.236694859778298"><ele>755.0</ele><time>2026-03-28T15:49:13.999Z</time></trkpt><trkpt lat="44.840918433061795" lon="9.236609025263125"><ele>755.0</ele><time>2026-03-28T15:49:14.999Z</time></trkpt><trkpt lat="44.84096971478777" lon="9.236532699982638"><ele>755.0</ele><time>2026-03-28T15:49:15.999Z</time></trkpt><trkpt lat="44.8410330457197" lon="9.23639979347699"><ele>755.0</ele><time>2026-03-28T15:49:17.999Z</time></trkpt><trkpt lat="44.841010054676794" lon="9.236299398199082"><ele>755.0</ele><time>2026-03-28T15:49:19.999Z</time></trkpt><trkpt lat="44.840938930880085" lon="9.236284914616894"><ele>755.0</ele><time>2026-03-28T15:49:20.999Z</time></trkpt><trkpt lat="44.840875573319344" lon="9.236376950585804"><ele>757.0</ele><time>2026-03-28T15:49:21.999Z</time></trkpt><trkpt lat="44.840784436411205" lon="9.236413447255456"><ele>759.0</ele><time>2026-03-28T15:49:23.999Z</time></trkpt><trkpt lat="44.84072994839274" lon="9.236319951609277"><ele>761.0</ele><time>2026-03-28T15:49:26.999Z</time></trkpt><trkpt lat="44.8408170861466" lon="9.236287884779136"><ele>763.0</ele><time>2026-03-28T15:49:27.999Z</time></trkpt><trkpt lat="44.84087176628189" lon="9.236239797364249"><ele>765.0</ele><time>2026-03-28T15:49:28.999Z</time></trkpt><trkpt lat="44.84093714588631" lon="9.236172106606366"><ele>767.0</ele><time>2026-03-28T15:49:30.999Z</time></trkpt><trkpt lat="44.84104009643278" lon="9.236056928930012"><ele>767.0</ele><time>2026-03-28T15:49:32.001Z</time></trkpt><trkpt lat="44.84108303363956" lon="9.23587288747706"><ele>767.0</ele><time>2026-03-28T15:49:33.001Z</time></trkpt><trkpt lat="44.84115022487251" lon="9.235796626230707"><ele>767.0</ele><time>2026-03-28T15:49:34.001Z</time></trkpt><trkpt lat="44.84123477983877" lon="9.235738633117665"><ele>767.0</ele><time>2026-03-28T15:49:35.001Z</time></trkpt><trkpt lat="44.84132542943407" lon="9.235653535417928"><ele>767.0</ele><time>2026-03-28T15:49:36.001Z</time></trkpt><trkpt lat="44.84143274025172" lon="9.235574731666699"><ele>771.2</ele><time>2026-03-28T15:49:37.001Z</time></trkpt><trkpt lat="44.841523887525504" lon="9.23551439734891"><ele>775.4000000000001</ele><time>2026-03-28T15:49:38.001Z</time></trkpt><trkpt lat="44.84162414174683" lon="9.235448250585272"><ele>779.5999999999999</ele><time>2026-03-28T15:49:39.001Z</time></trkpt><trkpt lat="44.84172557205324" lon="9.23539136845208"><ele>783.8</ele><time>2026-03-28T15:49:40Z</time></trkpt><trkpt lat="44.8418315492322" lon="9.235348365067006"><ele>788.0</ele><time>2026-03-28T15:49:41Z</time></trkpt><trkpt lat="44.841949369545716" lon="9.23530394562518"><ele>788.0</ele><time>2026-03-28T15:49:42Z</time></trkpt><trkpt lat="44.84205357571888" lon="9.235255799509005"><ele>788.0</ele><time>2026-03-28T15:49:43Z</time></trkpt><trkpt lat="44.842157746823226" lon="9.235226564726338"><ele>788.0</ele><time>2026-03-28T15:49:44Z</time></trkpt><trkpt lat="44.84224890209917" lon="9.235186431714357"><ele>788.0</ele><time>2026-03-28T15:49:46Z</time></trkpt><trkpt lat="44.842303430391866" lon="9.235047447095202"><ele>788.0</ele><time>2026-03-28T15:49:48Z</time></trkpt><trkpt lat="44.84226730801888" lon="9.234933055754121"><ele>788.0</ele><time>2026-03-28T15:49:49Z</time></trkpt><trkpt lat="44.84216716203602" lon="9.234906435305279"><ele>788.0</ele><time>2026-03-28T15:49:50Z</time></trkpt><trkpt lat="44.842102564161586" lon="9.234830015883416"><ele>788.0</ele><time>2026-03-28T15:49:51Z</time></trkpt><trkpt lat="44.84200407501818" lon="9.234721490887624"><ele>788.0</ele><time>2026-03-28T15:49:52Z</time></trkpt><trkpt lat="44.841947598413874" lon="9.23462325343225"><ele>788.0</ele><time>2026-03-28T15:49:54Z</time></trkpt><trkpt lat="44.84197354530108" lon="9.234516664955898"><ele>795.0</ele><time>2026-03-28T15:49:56Z</time></trkpt><trkpt lat="44.842056467868154" lon="9.234560855601602"><ele>802.0</ele><time>2026-03-28T15:49:57Z</time></trkpt><trkpt lat="44.842145635867816" lon="9.234596150770274"><ele>809.0</ele><time>2026-03-28T15:49:59Z</time></trkpt><trkpt lat="44.84242542108789" lon="9.234508561911287"><ele>809.0</ele><time>2026-03-28T15:50:00Z</time></trkpt><trkpt lat="44.84239528663778" lon="9.234308660746084"><ele>809.0</ele><time>2026-03-28T15:50:02Z</time></trkpt><trkpt lat="44.84232191933644" lon="9.234256109266804"><ele>809.0</ele><time>2026-03-28T15:50:03Z</time></trkpt><trkpt lat="44.84223914296534" lon="9.234243495744659"><ele>809.0</ele><time>2026-03-28T15:50:04Z</time></trkpt><trkpt lat="44.84214909491119" lon="9.234261525771261"><ele>809.0</ele><time>2026-03-28T15:50:05Z</time></trkpt><trkpt lat="44.84205523795947" lon="9.234257113132823"><ele>809.0000000000001</ele><time>2026-03-28T15:50:06Z</time></trkpt><trkpt lat="44.84196893902943" lon="9.234240701363927"><ele>809.0</ele><time>2026-03-28T15:50:07Z</time></trkpt><trkpt lat="44.84182788870334" lon="9.234163304660198"><ele>809.0</ele><time>2026-03-28T15:50:09Z</time></trkpt><trkpt lat="44.841762027792264" lon="9.234138103465648"><ele>809.0</ele><time>2026-03-28T15:50:10Z</time></trkpt><trkpt lat="44.84168454059287" lon="9.234118768838648"><ele>809.0000000000001</ele><time>2026-03-28T15:50:11Z</time></trkpt><trkpt lat="44.8416234999639" lon="9.234091139669005"><ele>809.0</ele><time>2026-03-28T15:50:12Z</time></trkpt><trkpt lat="44.84163730885442" lon="9.233900567237724"><ele>810.6666666666667</ele><time>2026-03-28T15:50:13Z</time></trkpt><trkpt lat="44.841556881683836" lon="9.23386596015996"><ele>812.3333333333333</ele><time>2026-03-28T15:50:14Z</time></trkpt><trkpt lat="44.8414847190024" lon="9.23386653888819"><ele>814.0</ele><time>2026-03-28T15:50:15Z</time></trkpt><trkpt lat="44.84117229428248" lon="9.23406996813778"><ele>814.0</ele><time>2026-03-28T15:50:27Z</time></trkpt><trkpt lat="44.84105938050479" lon="9.23409889623853"><ele>814.0</ele><time>2026-03-28T15:50:28Z</time></trkpt><trkpt lat="44.84097407536205" lon="9.234113544886949"><ele>814.0</ele><time>2026-03-28T15:50:29Z</time></trkpt><trkpt lat="44.84091168600524" lon="9.234159244026609"><ele>814.0</ele><time>2026-03-28T15:50:30Z</time></trkpt><trkpt lat="44.840803500788525" lon="9.234178285620716"><ele>814.0</ele><time>2026-03-28T15:50:32Z</time></trkpt><trkpt lat="44.840758147345696" lon="9.234101036466557"><ele>812.6</ele><time>2026-03-28T15:50:33Z</time></trkpt><trkpt lat="44.840722702265964" lon="9.233992046824715"><ele>811.2</ele><time>2026-03-28T15:50:34Z</time></trkpt><trkpt lat="44.84070131918531" lon="9.233869030618342"><ele>809.8000000000001</ele><time>2026-03-28T15:50:35Z</time></trkpt><trkpt lat="44.84066170016475" lon="9.2337065546128"><ele>808.4000000000001</ele><time>2026-03-28T15:50:36Z</time></trkpt><trkpt lat="44.840623904784046" lon="9.233525574379838"><ele>807.0</ele><time>2026-03-28T15:50:37Z</time></trkpt><trkpt lat="44.84057043419728" lon="9.233358569182334"><ele>810.0</ele><time>2026-03-28T15:50:38Z</time></trkpt><trkpt lat="44.84053233408223" lon="9.233212203751318"><ele>813.0</ele><time>2026-03-28T15:50:39Z</time></trkpt><trkpt lat="44.840481741467215" lon="9.233033996093695"><ele>816.0</ele><time>2026-03-28T15:50:40Z</time></trkpt><trkpt lat="44.84045517076211" lon="9.232938268039169"><ele>819.0</ele><time>2026-03-28T15:50:40.999Z</time></trkpt><trkpt lat="44.840452184215664" lon="9.232822677919888"><ele>822.0</ele><time>2026-03-28T15:50:41.999Z</time></trkpt><trkpt lat="44.84046762214936" lon="9.232711163146522"><ele>822.75</ele><time>2026-03-28T15:50:42.999Z</time></trkpt><trkpt lat="44.84050069973566" lon="9.232582945148831"><ele>823.5</ele><time>2026-03-28T15:50:43.999Z</time></trkpt><trkpt lat="44.840531263074595" lon="9.232431965800675"><ele>824.25</ele><time>2026-03-28T15:50:44.999Z</time></trkpt><trkpt lat="44.840562976263904" lon="9.23223158080588"><ele>825.0</ele><time>2026-03-28T15:50:45.999Z</time></trkpt><trkpt lat="44.8405906546809" lon="9.232030880032497"><ele>825.0</ele><time>2026-03-28T15:50:46.999Z</time></trkpt><trkpt lat="44.84062434652341" lon="9.231842797703136"><ele>825.0</ele><time>2026-03-28T15:50:47.999Z</time></trkpt><trkpt lat="44.840660503226005" lon="9.231645899367152"><ele>825.0</ele><time>2026-03-28T15:50:48.999Z</time></trkpt><trkpt lat="44.84069503236182" lon="9.23145907766171"><ele>825.0</ele><time>2026-03-28T15:50:49.999Z</time></trkpt><trkpt lat="44.84073542249188" lon="9.23127944065478"><ele>822.25</ele><time>2026-03-28T15:50:50.999Z</time></trkpt><trkpt lat="44.840792055265624" lon="9.231112101048511"><ele>819.5</ele><time>2026-03-28T15:50:51.999Z</time></trkpt><trkpt lat="44.84083165837262" lon="9.230946197776264"><ele>816.75</ele><time>2026-03-28T15:50:52.999Z</time></trkpt><trkpt lat="44.840863664784" lon="9.230781003391964"><ele>814.0</ele><time>2026-03-28T15:50:53.999Z</time></trkpt><trkpt lat="44.84087547773244" lon="9.230611215930418"><ele>812.5</ele><time>2026-03-28T15:50:54.999Z</time></trkpt><trkpt lat="44.840885596757815" lon="9.23041560639922"><ele>811.0</ele><time>2026-03-28T15:50:55.999Z</time></trkpt><trkpt lat="44.84089565201235" lon="9.230224567533883"><ele>809.5</ele><time>2026-03-28T15:50:56.999Z</time></trkpt><trkpt lat="44.840895406558026" lon="9.230037847986434"><ele>808.0</ele><time>2026-03-28T15:50:57.999Z</time></trkpt><trkpt lat="44.84089695402425" lon="9.229869430314324"><ele>806.2</ele><time>2026-03-28T15:50:58.999Z</time></trkpt><trkpt lat="44.840924318015944" lon="9.22971592025679"><ele>804.4</ele><time>2026-03-28T15:50:59.999Z</time></trkpt><trkpt lat="44.840935067589655" lon="9.229569572155842"><ele>802.6</ele><time>2026-03-28T15:51:00.999Z</time></trkpt><trkpt lat="44.840946468764365" lon="9.229454095480138"><ele>800.8000000000001</ele><time>2026-03-28T15:51:01.999Z</time></trkpt><trkpt lat="44.840996228618906" lon="9.229362252653793"><ele>799.0</ele><time>2026-03-28T15:51:02.999Z</time></trkpt><trkpt lat="44.84106110367232" lon="9.229260739150229"><ele>803.0</ele><time>2026-03-28T15:51:03.999Z</time></trkpt><trkpt lat="44.84114393271499" lon="9.22915047165626"><ele>807.0</ele><time>2026-03-28T15:51:04.999Z</time></trkpt><trkpt lat="44.84125253277823" lon="9.229042606624589"><ele>811.0</ele><time>2026-03-28T15:51:05.999Z</time></trkpt><trkpt lat="44.84133922736246" lon="9.228890171750205"><ele>815.0</ele><time>2026-03-28T15:51:06.999Z</time></trkpt><trkpt lat="44.84141993987651" lon="9.228720832523338"><ele>815.0</ele><time>2026-03-28T15:51:07.999Z</time></trkpt><trkpt lat="44.84150036096672" lon="9.228558881310025"><ele>815.0</ele><time>2026-03-28T15:51:08.999Z</time></trkpt><trkpt lat="44.841582136458676" lon="9.228438382474634"><ele>815.0</ele><time>2026-03-28T15:51:09.999Z</time></trkpt><trkpt lat="44.841651532305235" lon="9.228336153938368"><ele>815.0</ele><time>2026-03-28T15:51:10.999Z</time></trkpt><trkpt lat="44.84170907225794" lon="9.228262702646324"><ele>815.0</ele><time>2026-03-28T15:51:11.999Z</time></trkpt><trkpt lat="44.84177201222996" lon="9.228203993822575"><ele>815.6666666666667</ele><time>2026-03-28T15:51:12.999Z</time></trkpt><trkpt lat="44.841845136057394" lon="9.228190533537175"><ele>816.3333333333334</ele><time>2026-03-28T15:51:13.999Z</time></trkpt><trkpt lat="44.841914675115824" lon="9.228203876070216"><ele>817.0</ele><time>2026-03-28T15:51:14.999Z</time></trkpt><trkpt lat="44.84198489853704" lon="9.228208797937306"><ele>817.6666666666667</ele><time>2026-03-28T15:51:15.999Z</time></trkpt><trkpt lat="44.842060855121815" lon="9.228216625208427"><ele>818.3333333333334</ele><time>2026-03-28T15:51:16.999Z</time></trkpt><trkpt lat="44.842194498147634" lon="9.228219584184558"><ele>819.0</ele><time>2026-03-28T15:51:17.999Z</time></trkpt><trkpt lat="44.842306210517116" lon="9.228290211579079"><ele>819.0</ele><time>2026-03-28T15:51:18.999Z</time></trkpt><trkpt lat="44.842405292037554" lon="9.228364238659479"><ele>819.0</ele><time>2026-03-28T15:51:19.999Z</time></trkpt><trkpt lat="44.8425080260529" lon="9.228473443609463"><ele>819.0</ele><time>2026-03-28T15:51:20.999Z</time></trkpt><trkpt lat="44.84260241910359" lon="9.228600920941716"><ele>819.0</ele><time>2026-03-28T15:51:21.999Z</time></trkpt><trkpt lat="44.842691883081734" lon="9.22871858353762"><ele>819.0</ele><time>2026-03-28T15:51:22.999Z</time></trkpt><trkpt lat="44.84278587383484" lon="9.228825852956017"><ele>819.0</ele><time>2026-03-28T15:51:23.999Z</time></trkpt><trkpt lat="44.84289637905562" lon="9.22889419675099"><ele>819.0</ele><time>2026-03-28T15:51:24.999Z</time></trkpt><trkpt lat="44.843019726901076" lon="9.228988994536076"><ele>819.0</ele><time>2026-03-28T15:51:25.999Z</time></trkpt><trkpt lat="44.843077334550884" lon="9.2290824334446"><ele>819.5</ele><time>2026-03-28T15:51:26.999Z</time></trkpt><trkpt lat="44.843183333093734" lon="9.229198590099923"><ele>820.0</ele><time>2026-03-28T15:51:27.999Z</time></trkpt><trkpt lat="44.843246176417395" lon="9.229309071106472"><ele>820.5</ele><time>2026-03-28T15:51:28.999Z</time></trkpt><trkpt lat="44.843335409380224" lon="9.229394622632729"><ele>821.0</ele><time>2026-03-28T15:51:29.999Z</time></trkpt><trkpt lat="44.843429586025266" lon="9.229468021986808"><ele>821.1999999999999</ele><time>2026-03-28T15:51:30.999Z</time></trkpt><trkpt lat="44.843513752973074" lon="9.22949664408117"><ele>821.4</ele><time>2026-03-28T15:51:31.999Z</time></trkpt><trkpt lat="44.84359860398792" lon="9.229542032772546"><ele>821.6</ele><time>2026-03-28T15:51:32.999Z</time></trkpt><trkpt lat="44.84371886308966" lon="9.229539384496137"><ele>821.8</ele><time>2026-03-28T15:51:33.999Z</time></trkpt><trkpt lat="44.843778254621725" lon="9.229483630012156"><ele>822.0</ele><time>2026-03-28T15:51:34.999Z</time></trkpt><trkpt lat="44.843874225761425" lon="9.229468376526455"><ele>822.0</ele><time>2026-03-28T15:51:35.999Z</time></trkpt><trkpt lat="44.84397115459686" lon="9.229414291079182"><ele>822.0</ele><time>2026-03-28T15:51:36.999Z</time></trkpt><trkpt lat="44.84404305470825" lon="9.229320632806157"><ele>822.0</ele><time>2026-03-28T15:51:38Z</time></trkpt><trkpt lat="44.8441135422859" lon="9.229195250270745"><ele>822.0</ele><time>2026-03-28T15:51:39Z</time></trkpt><trkpt lat="44.84418644234801" lon="9.229032560653225"><ele>822.2</ele><time>2026-03-28T15:51:40Z</time></trkpt><trkpt lat="44.84426422060314" lon="9.228923157320052"><ele>822.4000000000001</ele><time>2026-03-28T15:51:41Z</time></trkpt><trkpt lat="44.84432752968316" lon="9.228815798913493"><ele>822.5999999999999</ele><time>2026-03-28T15:51:42Z</time></trkpt><trkpt lat="44.84439275028441" lon="9.22872284798882"><ele>822.8</ele><time>2026-03-28T15:51:43Z</time></trkpt><trkpt lat="44.84445025270185" lon="9.228636753308148"><ele>823.0</ele><time>2026-03-28T15:51:44Z</time></trkpt><trkpt lat="44.844522418724885" lon="9.22856534914762"><ele>822.9999999999999</ele><time>2026-03-28T15:51:45Z</time></trkpt><trkpt lat="44.84458612246429" lon="9.228486044071927"><ele>823.0</ele><time>2026-03-28T15:51:46Z</time></trkpt><trkpt lat="44.8446503723347" lon="9.228421378431374"><ele>823.0</ele><time>2026-03-28T15:51:47Z</time></trkpt><trkpt lat="44.844730170365516" lon="9.228331354553193"><ele>823.0</ele><time>2026-03-28T15:51:49Z</time></trkpt><trkpt lat="44.84478622131551" lon="9.22825805654236"><ele>822.9999999999999</ele><time>2026-03-28T15:51:50Z</time></trkpt><trkpt lat="44.84485584993303" lon="9.228171011139418"><ele>823.0</ele><time>2026-03-28T15:51:51Z</time></trkpt><trkpt lat="44.844917067577285" lon="9.228091001857704"><ele>824.1666666666666</ele><time>2026-03-28T15:51:52Z</time></trkpt><trkpt lat="44.84492587743748" lon="9.227928772827578"><ele>825.3333333333333</ele><time>2026-03-28T15:51:53Z</time></trkpt><trkpt lat="44.844947844142006" lon="9.227816684074906"><ele>826.5</ele><time>2026-03-28T15:51:54Z</time></trkpt><trkpt lat="44.84496112461279" lon="9.227717901179574"><ele>827.6666666666667</ele><time>2026-03-28T15:51:55Z</time></trkpt><trkpt lat="44.8449891461906" lon="9.227617577208958"><ele>828.8333333333334</ele><time>2026-03-28T15:51:56Z</time></trkpt><trkpt lat="44.845025119864445" lon="9.22750696649996"><ele>830.0</ele><time>2026-03-28T15:51:57Z</time></trkpt><trkpt lat="44.845026373095514" lon="9.227367007157783"><ele>829.6</ele><time>2026-03-28T15:51:58Z</time></trkpt><trkpt lat="44.84505451196872" lon="9.227240453181945"><ele>829.2</ele><time>2026-03-28T15:51:59Z</time></trkpt><trkpt lat="44.845100317275985" lon="9.22711763076807"><ele>828.8</ele><time>2026-03-28T15:52:00Z</time></trkpt><trkpt lat="44.84513994009394" lon="9.226989650683059"><ele>828.4</ele><time>2026-03-28T15:52:01Z</time></trkpt><trkpt lat="44.84515200400188" lon="9.226856447676479"><ele>828.0</ele><time>2026-03-28T15:52:02Z</time></trkpt><trkpt lat="44.845168723864724" lon="9.226728902437696"><ele>825.2</ele><time>2026-03-28T15:52:03Z</time></trkpt><trkpt lat="44.845202798431366" lon="9.226599515598478"><ele>822.4</ele><time>2026-03-28T15:52:04Z</time></trkpt><trkpt lat="44.845212194504704" lon="9.22645944709269"><ele>819.6</ele><time>2026-03-28T15:52:05Z</time></trkpt><trkpt lat="44.845192631095216" lon="9.226324308660585"><ele>816.8000000000001</ele><time>2026-03-28T15:52:06Z</time></trkpt><trkpt lat="44.84516588944036" lon="9.226169505827794"><ele>814.0</ele><time>2026-03-28T15:52:07Z</time></trkpt><trkpt lat="44.84515613833018" lon="9.226008123167986"><ele>814.0</ele><time>2026-03-28T15:52:08Z</time></trkpt><trkpt lat="44.845170974736945" lon="9.225850242806152"><ele>814.0</ele><time>2026-03-28T15:52:09Z</time></trkpt><trkpt lat="44.84516948314495" lon="9.225687832984985"><ele>814.0</ele><time>2026-03-28T15:52:10Z</time></trkpt><trkpt lat="44.84517135690572" lon="9.225565812259324"><ele>814.0</ele><time>2026-03-28T15:52:11Z</time></trkpt><trkpt lat="44.845190061759055" lon="9.225472389249802"><ele>814.0</ele><time>2026-03-28T15:52:12Z</time></trkpt><trkpt lat="44.84525496149049" lon="9.225322129582375"><ele>816.0</ele><time>2026-03-28T15:52:14Z</time></trkpt><trkpt lat="44.84532213272401" lon="9.225230843692714"><ele>818.0</ele><time>2026-03-28T15:52:15Z</time></trkpt><trkpt lat="44.845388700614876" lon="9.225111340737039"><ele>820.0</ele><time>2026-03-28T15:52:16Z</time></trkpt><trkpt lat="44.8454652431561" lon="9.22500671317774"><ele>822.0</ele><time>2026-03-28T15:52:17Z</time></trkpt><trkpt lat="44.84555437554769" lon="9.224910465253197"><ele>824.0</ele><time>2026-03-28T15:52:18Z</time></trkpt><trkpt lat="44.84566045106724" lon="9.224836515460783"><ele>824.2</ele><time>2026-03-28T15:52:19Z</time></trkpt><trkpt lat="44.845766648716186" lon="9.224787535831696"><ele>824.4000000000001</ele><time>2026-03-28T15:52:20Z</time></trkpt><trkpt lat="44.8458499859737" lon="9.224741876166535"><ele>824.6</ele><time>2026-03-28T15:52:21Z</time></trkpt><trkpt lat="44.845937331151944" lon="9.224711301093226"><ele>824.8</ele><time>2026-03-28T15:52:22Z</time></trkpt><trkpt lat="44.8460405064745" lon="9.224694228494869"><ele>825.0</ele><time>2026-03-28T15:52:23Z</time></trkpt><trkpt lat="44.84614411365254" lon="9.224653003967678"><ele>826.1666666666666</ele><time>2026-03-28T15:52:24Z</time></trkpt><trkpt lat="44.84623453160733" lon="9.224593364073282"><ele>827.3333333333333</ele><time>2026-03-28T15:52:25Z</time></trkpt><trkpt lat="44.84630700128873" lon="9.22451194198997"><ele>828.5</ele><time>2026-03-28T15:52:26Z</time></trkpt><trkpt lat="44.84637039888933" lon="9.2244459606188"><ele>829.6666666666666</ele><time>2026-03-28T15:52:27Z</time></trkpt><trkpt lat="44.84640820885443" lon="9.224304577767063"><ele>830.8333333333333</ele><time>2026-03-28T15:52:30Z</time></trkpt><trkpt lat="44.84641791210048" lon="9.224207157542411"><ele>832.0</ele><time>2026-03-28T15:52:31Z</time></trkpt><trkpt lat="44.84646412497085" lon="9.224113184259592"><ele>832.0</ele><time>2026-03-28T15:52:33Z</time></trkpt><trkpt lat="44.84658222448389" lon="9.224051449638166"><ele>832.0</ele><time>2026-03-28T15:52:35Z</time></trkpt><trkpt lat="44.84664169674849" lon="9.223985294403159"><ele>832.0</ele><time>2026-03-28T15:52:36Z</time></trkpt><trkpt lat="44.84675353039991" lon="9.223882374255851"><ele>832.0</ele><time>2026-03-28T15:52:38Z</time></trkpt><trkpt lat="44.846813007303986" lon="9.22381510083481"><ele>832.0</ele><time>2026-03-28T15:52:39Z</time></trkpt><trkpt lat="44.846868368879505" lon="9.223754209202674"><ele>833.0</ele><time>2026-03-28T15:52:40Z</time></trkpt><trkpt lat="44.846920772087536" lon="9.223674552796501"><ele>834.0</ele><time>2026-03-28T15:52:41Z</time></trkpt><trkpt lat="44.846942687722276" lon="9.223553101605225"><ele>835.0</ele><time>2026-03-28T15:52:42.999Z</time></trkpt><trkpt lat="44.846919740260915" lon="9.223432379531015"><ele>836.0</ele><time>2026-03-28T15:52:44.999Z</time></trkpt><trkpt lat="44.846855437029824" lon="9.22329312417524"><ele>837.0</ele><time>2026-03-28T15:52:46.999Z</time></trkpt><trkpt lat="44.84678942170274" lon="9.223156457728603"><ele>840.5</ele><time>2026-03-28T15:52:48.999Z</time></trkpt><trkpt lat="44.846769008678166" lon="9.22301876283037"><ele>844.0</ele><time>2026-03-28T15:52:50.999Z</time></trkpt><trkpt lat="44.84678822077176" lon="9.222847917759186"><ele>847.5</ele><time>2026-03-28T15:52:52.999Z</time></trkpt><trkpt lat="44.84684536993025" lon="9.22269524177957"><ele>851.0</ele><time>2026-03-28T15:52:54.999Z</time></trkpt><trkpt lat="44.84691818046562" lon="9.222547826243861"><ele>851.0000000000001</ele><time>2026-03-28T15:52:56.999Z</time></trkpt><trkpt lat="44.84693531970283" lon="9.222435735205828"><ele>851.0</ele><time>2026-03-28T15:52:57.999Z</time></trkpt><trkpt lat="44.84695860025644" lon="9.222319763506714"><ele>851.0</ele><time>2026-03-28T15:52:58.999Z</time></trkpt><trkpt lat="44.84699677807276" lon="9.222212927451395"><ele>851.0</ele><time>2026-03-28T15:52:59.999Z</time></trkpt><trkpt lat="44.84702214449132" lon="9.222117781359579"><ele>851.0000000000001</ele><time>2026-03-28T15:53:00.999Z</time></trkpt><trkpt lat="44.84702713789049" lon="9.22201795623062"><ele>851.0</ele><time>2026-03-28T15:53:01.999Z</time></trkpt><trkpt lat="44.84702053474853" lon="9.221908181755953"><ele>851.6666666666667</ele><time>2026-03-28T15:53:02.999Z</time></trkpt><trkpt lat="44.847015313654" lon="9.22179607550496"><ele>852.3333333333334</ele><time>2026-03-28T15:53:03.999Z</time></trkpt><trkpt lat="44.8469900231545" lon="9.221694500534126"><ele>853.0</ele><time>2026-03-28T15:53:04.999Z</time></trkpt><trkpt lat="44.84694836525673" lon="9.221586327108215"><ele>853.6666666666667</ele><time>2026-03-28T15:53:05.999Z</time></trkpt><trkpt lat="44.84691232019308" lon="9.221489512465498"><ele>854.3333333333334</ele><time>2026-03-28T15:53:06.999Z</time></trkpt><trkpt lat="44.84687472889539" lon="9.221417247383101"><ele>855.0</ele><time>2026-03-28T15:53:07.999Z</time></trkpt><trkpt lat="44.84678882657667" lon="9.221353220405296"><ele>857.0</ele><time>2026-03-28T15:53:08.999Z</time></trkpt><trkpt lat="44.8467055795969" lon="9.221297824566884"><ele>859.0</ele><time>2026-03-28T15:53:09.999Z</time></trkpt><trkpt lat="44.84659791732847" lon="9.221286993060522"><ele>861.0</ele><time>2026-03-28T15:53:10.999Z</time></trkpt><trkpt lat="44.84651466924025" lon="9.221260469296618"><ele>863.0</ele><time>2026-03-28T15:53:11.999Z</time></trkpt><trkpt lat="44.84648019400641" lon="9.221185719245495"><ele>865.0</ele><time>2026-03-28T15:53:13.999Z</time></trkpt><trkpt lat="44.846447987301836" lon="9.221092054168953"><ele>867.0</ele><time>2026-03-28T15:53:15.999Z</time></trkpt><trkpt lat="44.84637308845063" lon="9.221112434173808"><ele>867.0</ele><time>2026-03-28T15:53:17.999Z</time></trkpt><trkpt lat="44.84635207432378" lon="9.220954322408987"><ele>867.0</ele><time>2026-03-28T15:53:19.999Z</time></trkpt><trkpt lat="44.846259344406896" lon="9.220890785815827"><ele>867.0</ele><time>2026-03-28T15:53:20.999Z</time></trkpt><trkpt lat="44.846163279577624" lon="9.220847221495527"><ele>867.0</ele><time>2026-03-28T15:53:21.999Z</time></trkpt><trkpt lat="44.84601451944499" lon="9.220779774312037"><ele>866.5</ele><time>2026-03-28T15:53:22.999Z</time></trkpt><trkpt lat="44.84585710295558" lon="9.220691995324703"><ele>866.0</ele><time>2026-03-28T15:53:23.999Z</time></trkpt><trkpt lat="44.84571886946305" lon="9.22063473295972"><ele>865.5</ele><time>2026-03-28T15:53:24.999Z</time></trkpt><trkpt lat="44.84560928539571" lon="9.220571496010596"><ele>865.0</ele><time>2026-03-28T15:53:25.999Z</time></trkpt><trkpt lat="44.84552754278001" lon="9.220502228424712"><ele>865.0</ele><time>2026-03-28T15:53:26.999Z</time></trkpt><trkpt lat="44.84546552348723" lon="9.220441277830124"><ele>865.0</ele><time>2026-03-28T15:53:27.999Z</time></trkpt><trkpt lat="44.845400773664736" lon="9.220340131477894"><ele>865.0</ele><time>2026-03-28T15:53:29.999Z</time></trkpt><trkpt lat="44.84530852482091" lon="9.22030167223141"><ele>865.0</ele><time>2026-03-28T15:53:31.999Z</time></trkpt><trkpt lat="44.84524513764011" lon="9.220290598622048"><ele>865.0</ele><time>2026-03-28T15:53:32.999Z</time></trkpt><trkpt lat="44.84511817158299" lon="9.220162067017982"><ele>866.2</ele><time>2026-03-28T15:53:34.999Z</time></trkpt><trkpt lat="44.845053370352275" lon="9.220027030595393"><ele>867.4</ele><time>2026-03-28T15:53:35.999Z</time></trkpt><trkpt lat="44.844988725224184" lon="9.219921138680588"><ele>868.5999999999999</ele><time>2026-03-28T15:53:36.999Z</time></trkpt><trkpt lat="44.8449374724186" lon="9.219801217260885"><ele>869.8</ele><time>2026-03-28T15:53:37.999Z</time></trkpt><trkpt lat="44.84491909764806" lon="9.21966284679986"><ele>871.0</ele><time>2026-03-28T15:53:38.999Z</time></trkpt><trkpt lat="44.844896859575684" lon="9.219531797374676"><ele>870.9999999999999</ele><time>2026-03-28T15:53:39.999Z</time></trkpt><trkpt lat="44.84487503719811" lon="9.219391506930158"><ele>871.0</ele><time>2026-03-28T15:53:40.998Z</time></trkpt><trkpt lat="44.844857050113745" lon="9.219273843225166"><ele>871.0</ele><time>2026-03-28T15:53:41.998Z</time></trkpt><trkpt lat="44.844851215782356" lon="9.219155059946258"><ele>871.0</ele><time>2026-03-28T15:53:42.998Z</time></trkpt><trkpt lat="44.844853509706404" lon="9.219030847660669"><ele>870.9999999999999</ele><time>2026-03-28T15:53:44Z</time></trkpt><trkpt lat="44.84486193027284" lon="9.218910144077858"><ele>871.0</ele><time>2026-03-28T15:53:45Z</time></trkpt><trkpt lat="44.8448894197963" lon="9.218778526066313"><ele>870.0</ele><time>2026-03-28T15:53:46Z</time></trkpt><trkpt lat="44.8449183705872" lon="9.218651740698009"><ele>868.9999999999999</ele><time>2026-03-28T15:53:47Z</time></trkpt><trkpt lat="44.844987101776674" lon="9.218527949994717"><ele>867.9999999999999</ele><time>2026-03-28T15:53:48Z</time></trkpt><trkpt lat="44.84504878244109" lon="9.218417872593694"><ele>867.0</ele><time>2026-03-28T15:53:49Z</time></trkpt><trkpt lat="44.845109648804915" lon="9.218318476969843"><ele>866.0</ele><time>2026-03-28T15:53:50Z</time></trkpt><trkpt lat="44.84516479826214" lon="9.218232354776996"><ele>864.1999999999999</ele><time>2026-03-28T15:53:51Z</time></trkpt><trkpt lat="44.845223194023575" lon="9.218139572319288"><ele>862.3999999999999</ele><time>2026-03-28T15:53:52Z</time></trkpt><trkpt lat="44.845294102168005" lon="9.218046827622539"><ele>860.6</ele><time>2026-03-28T15:53:53Z</time></trkpt><trkpt lat="44.84535835984889" lon="9.217944171111975"><ele>858.8</ele><time>2026-03-28T15:53:54Z</time></trkpt><trkpt lat="44.845405253888686" lon="9.21785103703061"><ele>857.0</ele><time>2026-03-28T15:53:55Z</time></trkpt><trkpt lat="44.8454503908857" lon="9.217694943216372"><ele>857.0000000000001</ele><time>2026-03-28T15:53:57Z</time></trkpt><trkpt lat="44.845480091945525" lon="9.217595747662479"><ele>857.0</ele><time>2026-03-28T15:53:59Z</time></trkpt><trkpt lat="44.84551947369965" lon="9.21747308948677"><ele>857.0</ele><time>2026-03-28T15:54:01Z</time></trkpt><trkpt lat="44.845527125333966" lon="9.217382966331304"><ele>857.0</ele><time>2026-03-28T15:54:03Z</time></trkpt><trkpt lat="44.845513132896535" lon="9.217292951923685"><ele>857.0000000000001</ele><time>2026-03-28T15:54:06Z</time></trkpt><trkpt lat="44.845485843372956" lon="9.217406177129664"><ele>857.0</ele><time>2026-03-28T15:55:17.999Z</time></trkpt><trkpt lat="44.84548484534763" lon="9.217607861473011"><ele>857.0000000000001</ele><time>2026-03-28T15:55:19.999Z</time></trkpt><trkpt lat="44.845495912976126" lon="9.217764004435415"><ele>857.0</ele><time>2026-03-28T15:55:21.999Z</time></trkpt><trkpt lat="44.84552775396394" lon="9.21784300137374"><ele>857.0</ele><time>2026-03-28T15:55:22.999Z</time></trkpt><trkpt lat="44.845554605130154" lon="9.217927691006265"><ele>857.0</ele><time>2026-03-28T15:55:23.999Z</time></trkpt><trkpt lat="44.84559285775367" lon="9.218081877293107"><ele>857.0000000000001</ele><time>2026-03-28T15:55:25.999Z</time></trkpt><trkpt lat="44.845579952285924" lon="9.218171331445468"><ele>857.0</ele><time>2026-03-28T15:55:26.999Z</time></trkpt><trkpt lat="44.84562674275863" lon="9.218339455080004"><ele>856.7142857142857</ele><time>2026-03-28T15:55:28.999Z</time></trkpt><trkpt lat="44.84564500172039" lon="9.218436479214427"><ele>856.4285714285713</ele><time>2026-03-28T15:55:29.999Z</time></trkpt><trkpt lat="44.84566302176082" lon="9.218554637246285"><ele>856.1428571428571</ele><time>2026-03-28T15:55:30.999Z</time></trkpt><trkpt lat="44.84566701263655" lon="9.218654635374206"><ele>855.8571428571429</ele><time>2026-03-28T15:55:31.999Z</time></trkpt><trkpt lat="44.84567133781468" lon="9.218760026730415"><ele>855.5714285714286</ele><time>2026-03-28T15:55:32.999Z</time></trkpt><trkpt lat="44.845677543695565" lon="9.218865212251828"><ele>855.2857142857143</ele><time>2026-03-28T15:55:33.999Z</time></trkpt><trkpt lat="44.845682458524266" lon="9.21896101713624"><ele>855.0</ele><time>2026-03-28T15:55:34.999Z</time></trkpt><trkpt lat="44.84567357063892" lon="9.219050455908494"><ele>855.0</ele><time>2026-03-28T15:55:35.999Z</time></trkpt><trkpt lat="44.84565236048468" lon="9.219139710989927"><ele>855.0</ele><time>2026-03-28T15:55:36.999Z</time></trkpt><trkpt lat="44.845614006027276" lon="9.219254526256842"><ele>855.0</ele><time>2026-03-28T15:55:37.999Z</time></trkpt><trkpt lat="44.84557589964878" lon="9.21934734669432"><ele>855.0</ele><time>2026-03-28T15:55:38.999Z</time></trkpt><trkpt lat="44.845540668723025" lon="9.219444477147942"><ele>855.0</ele><time>2026-03-28T15:55:39.999Z</time></trkpt><trkpt lat="44.845506783974926" lon="9.219585187938783"><ele>855.0</ele><time>2026-03-28T15:55:41.999Z</time></trkpt><trkpt lat="44.845561860673186" lon="9.21969046301422"><ele>855.0</ele><time>2026-03-28T15:55:43.998Z</time></trkpt><trkpt lat="44.845625334178685" lon="9.219722884764538"><ele>855.0</ele><time>2026-03-28T15:55:45.998Z</time></trkpt><trkpt lat="44.84569536620563" lon="9.219763152888826"><ele>855.0</ele><time>2026-03-28T15:55:47.998Z</time></trkpt><trkpt lat="44.84577206580882" lon="9.219824523760037"><ele>855.0</ele><time>2026-03-28T15:55:50Z</time></trkpt><trkpt lat="44.84586170539509" lon="9.219904896185186"><ele>855.0</ele><time>2026-03-28T15:55:52Z</time></trkpt><trkpt lat="44.845949396564684" lon="9.219964007233893"><ele>855.0</ele><time>2026-03-28T15:55:54Z</time></trkpt><trkpt lat="44.84601822874509" lon="9.21998466705851"><ele>855.0</ele><time>2026-03-28T15:55:55Z</time></trkpt><trkpt lat="44.84608292849436" lon="9.220003532485828"><ele>855.0</ele><time>2026-03-28T15:55:56Z</time></trkpt><trkpt lat="44.846160745063585" lon="9.219976531118144"><ele>855.0</ele><time>2026-03-28T15:55:57Z</time></trkpt><trkpt lat="44.846261304812046" lon="9.219936532574941"><ele>855.0</ele><time>2026-03-28T15:55:58Z</time></trkpt><trkpt lat="44.84635402855659" lon="9.219885506655604"><ele>855.0</ele><time>2026-03-28T15:55:59Z</time></trkpt><trkpt lat="44.84644589355908" lon="9.219847227907648"><ele>855.0</ele><time>2026-03-28T15:56:00Z</time></trkpt><trkpt lat="44.84652462594202" lon="9.219825236174"><ele>853.1666666666666</ele><time>2026-03-28T15:56:01Z</time></trkpt><trkpt lat="44.84663863524107" lon="9.219803874508594"><ele>851.3333333333333</ele><time>2026-03-28T15:56:02Z</time></trkpt><trkpt lat="44.846718591771534" lon="9.219814100220471"><ele>849.5</ele><time>2026-03-28T15:56:03Z</time></trkpt><trkpt lat="44.84680015346089" lon="9.21983550852848"><ele>847.6666666666666</ele><time>2026-03-28T15:56:04Z</time></trkpt><trkpt lat="44.84689006952964" lon="9.219889437220393"><ele>845.8333333333333</ele><time>2026-03-28T15:56:05Z</time></trkpt><trkpt lat="44.846948518052564" lon="9.2199403701146"><ele>844.0</ele><time>2026-03-28T15:56:06Z</time></trkpt><trkpt lat="44.847047984128174" lon="9.220040395431111"><ele>844.0</ele><time>2026-03-28T15:56:08Z</time></trkpt><trkpt lat="44.847108189925095" lon="9.22010913538112"><ele>844.0</ele><time>2026-03-28T15:56:09Z</time></trkpt><trkpt lat="44.84716694411017" lon="9.22020171082751"><ele>844.0</ele><time>2026-03-28T15:56:10Z</time></trkpt><trkpt lat="44.84722037808692" lon="9.220325535693345"><ele>844.0</ele><time>2026-03-28T15:56:11Z</time></trkpt><trkpt lat="44.84726083575563" lon="9.220450242101126"><ele>844.0</ele><time>2026-03-28T15:56:12Z</time></trkpt><trkpt lat="44.84729425664154" lon="9.220562811973148"><ele>844.8333333333333</ele><time>2026-03-28T15:56:13Z</time></trkpt><trkpt lat="44.847332685453395" lon="9.220653840659965"><ele>845.6666666666666</ele><time>2026-03-28T15:56:14Z</time></trkpt><trkpt lat="44.847376527367594" lon="9.220743091101337"><ele>846.5</ele><time>2026-03-28T15:56:15Z</time></trkpt><trkpt lat="44.847456248337686" lon="9.22077848629875"><ele>847.3333333333333</ele><time>2026-03-28T15:56:16Z</time></trkpt><trkpt lat="44.84751822508813" lon="9.220842541700137"><ele>848.1666666666666</ele><time>2026-03-28T15:56:17Z</time></trkpt><trkpt lat="44.847623167438634" lon="9.220905440276958"><ele>849.0</ele><time>2026-03-28T15:56:19Z</time></trkpt><trkpt lat="44.84771875591456" lon="9.22091969746017"><ele>849.0</ele><time>2026-03-28T15:56:21Z</time></trkpt><trkpt lat="44.847793154595614" lon="9.220918076154181"><ele>849.0</ele><time>2026-03-28T15:56:22Z</time></trkpt><trkpt lat="44.847854844893384" lon="9.220937998052603"><ele>849.0</ele><time>2026-03-28T15:56:23Z</time></trkpt><trkpt lat="44.8479569771772" lon="9.220997388417551"><ele>849.0</ele><time>2026-03-28T15:56:25Z</time></trkpt><trkpt lat="44.8480267130346" lon="9.221056791245584"><ele>849.0</ele><time>2026-03-28T15:56:27Z</time></trkpt></trkseg></trk></gpx>